
Distance (Route):
Temperature : 22.4°C
Humidity : 49.3%
Pressure : 998.53hPa| Receiver | Frames | First received | Last received |
|---|---|---|---|
| DL1XH-west | 713 | 2026-08-31 10:49:52 | 2026-08-31 13:00:38 |
| AA1-15 | 659 | 2026-08-31 10:55:04 | 2026-08-31 13:02:10 |
| DF8AY | 594 | 2026-08-31 10:51:31 | 2026-08-31 13:00:21 |
| BIOWL1-15 | 581 | 2026-08-31 10:50:34 | 2026-08-31 12:58:35 |
| DL1XH1-15 | 521 | 2026-08-31 10:50:07 | 2026-08-31 13:00:23 |
| DB0DAN | 500 | 2026-08-31 10:46:40 | 2026-08-31 13:02:40 |
| DM0DOS-11 | 497 | 2026-08-31 10:48:23 | 2026-08-31 13:00:05 |
| DO2SHX-10 | 461 | 2026-08-31 10:59:04 | 2026-08-31 13:01:12 |
| DL1XH-15 | 442 | 2026-08-31 10:49:55 | 2026-08-31 13:01:34 |
| GOEST3-10 | 208 | 2026-08-31 11:00:52 | 2026-08-31 12:48:45 |
| HSKMA3-T | 157 | 2026-08-31 12:01:54 | 2026-08-31 12:34:56 |
| DD8BA-10 | 136 | 2026-08-31 10:53:39 | 2026-08-31 12:53:12 |
| DL3AQ-11 | 127 | 2026-08-31 10:58:54 | 2026-08-31 12:45:58 |
| DF8AY-15 | 88 | 2026-08-31 10:53:26 | 2026-08-31 12:59:24 |
| DL1NUX | 80 | 2026-08-31 12:07:22 | 2026-08-31 12:37:09 |
| DF7ER-10 | 67 | 2026-08-31 11:07:41 | 2026-08-31 12:46:56 |
| DL4BBY-15 | 46 | 2026-08-31 10:54:17 | 2026-08-31 12:51:29 |
| SMARD9-15 | 45 | 2026-08-31 10:55:21 | 2026-08-31 13:01:11 |
| BIOWL9-15 | 40 | 2026-08-31 10:50:07 | 2026-08-31 12:58:03 |
| S3001 | 40 | 2026-08-31 10:59:49 | 2026-08-31 12:57:53 |
| SONDE2-11 | 33 | 2026-08-31 11:10:15 | 2026-08-31 12:55:51 |
| AM1SDL-15 | 32 | 2026-08-31 10:54:33 | 2026-08-31 12:58:14 |
| DJ2DS-15 | 31 | 2026-08-31 10:54:28 | 2026-08-31 12:57:41 |
| EDDB2-12 | 31 | 2026-08-31 11:10:47 | 2026-08-31 12:54:47 |
| TFSTFS | 28 | 2026-08-31 11:17:11 | 2026-08-31 12:49:27 |
| DL1ZP-14 | 28 | 2026-08-31 11:22:30 | 2026-08-31 12:42:16 |
| SONCRA | 27 | 2026-08-31 10:58:34 | 2026-08-31 12:51:30 |
| DB0NH | 26 | 2026-08-31 11:20:45 | 2026-08-31 12:42:14 |
| BUE01 | 25 | 2026-08-31 11:05:01 | 2026-08-31 12:45:56 |
| DK7RCA | 24 | 2026-08-31 11:25:59 | 2026-08-31 12:41:13 |
| DC4HF-4 | 23 | 2026-08-31 10:49:07 | 2026-08-31 12:13:15 |
| EDDB2-11 | 22 | 2026-08-31 11:24:00 | 2026-08-31 12:46:48 |
| DO9LL-15 | 20 | 2026-08-31 11:06:27 | 2026-08-31 12:46:28 |
| DO3MHA-11 | 20 | 2026-08-31 12:14:59 | 2026-08-31 12:32:54 |
| DL8OAI-8 | 19 | 2026-08-31 11:20:11 | 2026-08-31 12:22:11 |
| DL1LOL-11 | 18 | 2026-08-31 10:54:38 | 2026-08-31 12:51:26 |
| HTAHTA | 18 | 2026-08-31 11:22:20 | 2026-08-31 12:38:56 |
| DB0UT-7 | 18 | 2026-08-31 11:28:56 | 2026-08-31 12:45:37 |
| DG6HD-15 | 16 | 2026-08-31 11:55:36 | 2026-08-31 12:49:09 |
| AP2371 | 15 | 2026-08-31 11:00:51 | 2026-08-31 12:42:59 |
| DK1YY | 15 | 2026-08-31 11:17:21 | 2026-08-31 12:54:08 |
| DL4XJ-10 | 15 | 2026-08-31 11:21:15 | 2026-08-31 12:26:04 |
| SMARD9-10 | 12 | 2026-08-31 10:53:25 | 2026-08-31 12:48:11 |
| DO2LYB-13 | 9 | 2026-08-31 10:54:42 | 2026-08-31 12:48:56 |
| SO1NDE-10 | 9 | 2026-08-31 12:08:50 | 2026-08-31 12:25:23 |
| DF2AP-13 | 8 | 2026-08-31 11:17:01 | 2026-08-31 11:50:16 |
| MECKS9 | 8 | 2026-08-31 11:34:41 | 2026-08-31 12:31:26 |
| BIOWL7-15 | 6 | 2026-08-31 11:17:26 | 2026-08-31 12:34:41 |
| DL2RXE-15 | 6 | 2026-08-31 11:26:12 | 2026-08-31 12:19:26 |
| SP3BTT-10 | 5 | 2026-08-31 11:28:06 | 2026-08-31 12:19:10 |
| DF7PN | 5 | 2026-08-31 12:12:57 | 2026-08-31 12:33:39 |
| NBG1-10 | 4 | 2026-08-31 11:28:32 | 2026-08-31 12:44:12 |
| DL1CLM-18 | 4 | 2026-08-31 11:55:28 | 2026-08-31 12:49:29 |
| SP3WXH-11 | 2 | 2026-08-31 12:31:21 | 2026-08-31 12:31:52 |
| Receiver | Date | Latitude | Longitude | Direction | Speed | Altitude | Climb | Temperature | Humidity | Pressure | Voltage | Killtimer | Uptime | BKT | XDATA |
|---|---|---|---|---|---|---|---|---|---|---|---|---|---|---|---|
| DB0DAN | 2026-08-31 13:02:40 | 53.37890 | 11.19041 | 18° | 27km/h | 124m | -14m/s | 22.4°C | 49.3% | 998.53hPa | 2.7V | 00:00:00 | 00:00:00 | 00:00:00 | |
| DB0DAN | 2026-08-31 13:02:25 | 53.37785 | 11.18931 | 37° | 33km/h | 308m | -12.6m/s | 20.4°C | 52.9% | 977.03hPa | 2.6V | 00:00:00 | 00:00:00 | 00:00:00 | |
| DB0DAN | 2026-08-31 13:02:10 | 53.37676 | 11.18785 | 38° | 38km/h | 479m | -12.8m/s | 18.9°C | 57.9% | 958.04hPa | 2.7V | 00:00:00 | 00:00:00 | 00:00:00 | |
| AA1-15 | 2026-08-31 13:02:10 | 53.37676 | 11.18785 | 38° | 40km/h | 479m | -12.8m/s | 18.9°C | 66.1% | 958hPa | 2.7V | 02:46:08 | 02:53:27 | 00:00:00 | |
| AA1-15 | 2026-08-31 13:02:09 | 53.37661 | 11.18762 | 44° | 40km/h | 505m | -12.5m/s | 18.6°C | 66% | 954.9hPa | 2.6V | 02:46:08 | 02:53:25 | 00:00:00 | |
| AA1-15 | 2026-08-31 13:02:07 | 53.37654 | 11.18751 | 45° | 37km/h | 518m | -12.1m/s | 18.4°C | 66.2% | 953.6hPa | 2.7V | 02:46:08 | 02:53:24 | 00:00:00 | |
| AA1-15 | 2026-08-31 13:02:05 | 53.37641 | 11.18729 | 42° | 37km/h | 543m | -13.3m/s | 18.2°C | 67.3% | 950.9hPa | 2.7V | 02:46:59 | 02:53:22 | 00:00:00 | |
| AA1-15 | 2026-08-31 13:02:04 | 53.37634 | 11.18718 | 41° | 38km/h | 556m | -12.9m/s | 18.1°C | 68% | 949.5hPa | 2.7V | 02:46:59 | 02:53:21 | 00:00:00 | |
| AA1-15 | 2026-08-31 13:02:03 | 53.37626 | 11.18707 | 44° | 40km/h | 568m | -13.8m/s | 17.9°C | 68.3% | 948.1hPa | 2.7V | 02:46:59 | 02:53:20 | 00:00:00 | |
| AA1-15 | 2026-08-31 13:02:01 | 53.37611 | 11.18683 | 45° | 40km/h | 594m | -11.5m/s | 17.7°C | 69% | 945.3hPa | 2.7V | 02:46:59 | 02:53:18 | 00:00:00 | |
| AA1-15 | 2026-08-31 13:02:00 | 53.37604 | 11.18672 | 42° | 38km/h | 605m | -12m/s | 17.6°C | 69.4% | 944hPa | 2.7V | 02:46:59 | 02:53:17 | 00:00:00 | |
| AA1-15 | 2026-08-31 13:01:58 | 53.37589 | 11.18651 | 44° | 40km/h | 630m | -12.5m/s | 17.4°C | 70.7% | 941.2hPa | 2.6V | 02:46:59 | 02:53:15 | 00:00:00 | |
| AA1-15 | 2026-08-31 13:01:56 | 53.37574 | 11.18627 | 44° | 40km/h | 655m | -12.2m/s | 17.1°C | 71.5% | 938.5hPa | 2.7V | 02:46:59 | 02:53:13 | 00:00:00 | |
| DB0DAN | 2026-08-31 13:01:55 | 53.37567 | 11.18615 | 46° | 35km/h | 667m | -11.1m/s | 17°C | 63.3% | 937.29hPa | 2.7V | 00:00:00 | 00:00:00 | 00:00:00 | |
| AA1-15 | 2026-08-31 13:01:54 | 53.37561 | 11.18604 | 45° | 37km/h | 678m | -12.5m/s | 16.9°C | 72.6% | 935.8hPa | 2.7V | 02:46:59 | 02:53:11 | 00:00:00 | |
| AA1-15 | 2026-08-31 13:01:53 | 53.37554 | 11.18593 | 43° | 37km/h | 691m | -13.9m/s | 16.8°C | 73.1% | 934.4hPa | 2.7V | 02:46:59 | 02:53:10 | 00:00:00 | |
| AA1-15 | 2026-08-31 13:01:52 | 53.37548 | 11.18582 | 46° | 37km/h | 704m | -13.6m/s | 16.7°C | 73.2% | 933.2hPa | 2.7V | 02:46:59 | 02:53:09 | 00:00:00 | |
| AA1-15 | 2026-08-31 13:01:50 | 53.37535 | 11.18559 | 48° | 38km/h | 733m | -15.2m/s | 16.5°C | 75.6% | 930hPa | 2.7V | 02:46:59 | 02:53:07 | 00:00:00 | |
| AA1-15 | 2026-08-31 13:01:50 | 53.37528 | 11.18547 | 50° | 37km/h | 748m | -13.6m/s | 16.3°C | 75.8% | 928.6hPa | 2.6V | 02:46:59 | 02:53:06 | 00:00:00 | |
| AA1-15 | 2026-08-31 13:01:48 | 53.37522 | 11.18535 | 45° | 37km/h | 761m | -15.3m/s | 16.2°C | 76.7% | 927hPa | 2.6V | 02:46:59 | 02:53:05 | 00:00:00 | |
| AA1-15 | 2026-08-31 13:01:47 | 53.37502 | 11.18501 | 48° | 35km/h | 805m | -13.3m/s | 15.7°C | 76.1% | 922.3hPa | 2.7V | 02:46:59 | 02:53:02 | 00:00:00 | |
| AA1-15 | 2026-08-31 13:01:45 | 53.37496 | 11.18490 | 46° | 37km/h | 818m | -14.1m/s | 15.6°C | 76.6% | 920.7hPa | 2.7V | 02:46:59 | 02:53:01 | 00:00:00 | |
| AA1-15 | 2026-08-31 13:01:43 | 53.37489 | 11.18479 | 44° | 37km/h | 832m | -14m/s | 15.4°C | 77.1% | 919.3hPa | 2.7V | 02:46:59 | 02:53:00 | 00:00:00 | |
| AA1-15 | 2026-08-31 13:01:42 | 53.37483 | 11.18468 | 47° | 37km/h | 846m | -13.5m/s | 15.3°C | 77.6% | 918hPa | 2.7V | 02:46:59 | 02:52:59 | 00:00:00 | |
| AA1-15 | 2026-08-31 13:01:41 | 53.37477 | 11.18456 | 49° | 37km/h | 859m | -13.8m/s | 15.2°C | 78% | 916.3hPa | 2.7V | 02:46:59 | 02:52:58 | 00:00:00 | |
| DB0DAN | 2026-08-31 13:01:40 | 53.37471 | 11.18444 | 49° | 33km/h | 873m | -12.4m/s | 15°C | 69.8% | 914.88hPa | 2.7V | 00:00:00 | 00:00:00 | 00:00:00 | |
| AA1-15 | 2026-08-31 13:01:39 | 53.37465 | 11.18433 | 50° | 35km/h | 885m | -12.6m/s | 14.9°C | 78.9% | 913.3hPa | 2.6V | 02:46:59 | 02:52:56 | 00:00:00 | |
| AA1-15 | 2026-08-31 13:01:38 | 53.37459 | 11.18421 | 48° | 37km/h | 896m | -12.7m/s | 14.8°C | 79.6% | 911.9hPa | 2.6V | 02:46:59 | 02:52:55 | 00:00:00 | |
| AA1-15 | 2026-08-31 13:01:37 | 53.37453 | 11.18409 | 52° | 37km/h | 910m | -13.8m/s | 14.7°C | 81.4% | 910.7hPa | 2.7V | 02:46:59 | 02:52:54 | 00:00:00 | |
| AA1-15 | 2026-08-31 13:01:35 | 53.37441 | 11.18386 | 46° | 38km/h | 937m | -13.6m/s | 14.4°C | 81.7% | 908hPa | 2.7V | 02:46:59 | 02:52:52 | 00:00:00 | |
| DL1XH-15 | 2026-08-31 13:01:34 | 53.37423 | 11.18349 | 52° | 37km/h | 975m | -12m/s | 14°C | 74.1% | 903.8hPa | 2.7V | 02:46:43 | 02:52:49 | 00:00:00 | |
| DL1XH-15 | 2026-08-31 13:01:34 | 53.37412 | 11.18327 | 47° | 35km/h | 998m | -12.2m/s | 13.8°C | 74.9% | 901.1hPa | 2.7V | 02:46:45 | 02:52:47 | 00:00:00 | |
| AA1-15 | 2026-08-31 13:01:33 | 53.37429 | 11.18362 | 53° | 37km/h | 963m | -12.4m/s | 14.1°C | 81.3% | 905hPa | 2.6V | 02:46:59 | 02:52:50 | 00:00:00 | |
| AA1-15 | 2026-08-31 13:01:32 | 53.37423 | 11.18349 | 53° | 37km/h | 975m | -12m/s | 14°C | 81.9% | 903.8hPa | 2.7V | 02:46:59 | 02:52:49 | 00:00:00 | |
| AA1-15 | 2026-08-31 13:01:31 | 53.37417 | 11.18338 | 51° | 33km/h | 987m | -11.8m/s | 13.9°C | 82.3% | 902.5hPa | 2.7V | 02:46:59 | 02:52:48 | 00:00:00 | |
| AA1-15 | 2026-08-31 13:01:30 | 53.37412 | 11.18327 | 48° | 35km/h | 998m | -12.2m/s | 13.8°C | 82.6% | 901.1hPa | 2.7V | 02:46:59 | 02:52:47 | 00:00:00 | |
| AA1-15 | 2026-08-31 13:01:28 | 53.37400 | 11.18305 | 51° | 37km/h | 1022m | -12.4m/s | 13.5°C | 83.3% | 898.4hPa | 2.7V | 02:46:59 | 02:52:45 | 00:00:00 | |
| DL1XH-15 | 2026-08-31 13:01:28 | 53.37373 | 11.18246 | 50° | 35km/h | 1088m | -14.7m/s | 12.9°C | 78.5% | 891.8hPa | 2.7V | 02:46:52 | 02:52:40 | 00:00:00 | |
| AA1-15 | 2026-08-31 13:01:26 | 53.37388 | 11.18281 | 54° | 37km/h | 1047m | -13.5m/s | 13.3°C | 84.8% | 896hPa | 2.7V | 02:46:59 | 02:52:43 | 00:00:00 | |
| AA1-15 | 2026-08-31 13:01:25 | 53.37383 | 11.18269 | 51° | 37km/h | 1060m | -13.6m/s | 13.2°C | 85.4% | 894.6hPa | 2.6V | 02:46:59 | 02:52:42 | 00:00:00 | |
| DB0DAN | 2026-08-31 13:01:25 | 53.37383 | 11.18269 | 51° | 35km/h | 1060m | -13.6m/s | 13.2°C | 76.6% | 894.58hPa | 2.6V | 00:00:00 | 00:00:00 | 00:00:00 | |
| AA1-15 | 2026-08-31 13:01:24 | 53.37378 | 11.18257 | 59° | 33km/h | 1074m | -15.1m/s | 13.1°C | 86.3% | 893.3hPa | 2.6V | 02:46:59 | 02:52:41 | 00:00:00 | |
| AA1-15 | 2026-08-31 13:01:23 | 53.37367 | 11.18234 | 53° | 38km/h | 1102m | -14m/s | 12.8°C | 86.8% | 890.3hPa | 2.7V | 02:46:59 | 02:52:39 | 00:00:00 | |
| DL1XH-15 | 2026-08-31 13:01:22 | 53.37338 | 11.18171 | 46° | 38km/h | 1166m | -11.8m/s | 12.2°C | 81.4% | 883.9hPa | 2.7V | 02:46:58 | 02:52:34 | 00:00:00 | |
| AA1-15 | 2026-08-31 13:01:21 | 53.37361 | 11.18221 | 53° | 38km/h | 1116m | -13.6m/s | 12.7°C | 87% | 889hPa | 2.7V | 02:46:59 | 02:52:38 | 00:00:00 | |
| AA1-15 | 2026-08-31 13:01:19 | 53.37344 | 11.18183 | 51° | 38km/h | 1154m | -13m/s | 12.3°C | 87.9% | 884.8hPa | 2.7V | 02:46:59 | 02:52:35 | 00:00:00 | |
| AA1-15 | 2026-08-31 13:01:17 | 53.37338 | 11.18171 | 47° | 38km/h | 1166m | -11.8m/s | 12.2°C | 88.4% | 883.9hPa | 2.7V | 02:46:59 | 02:52:34 | 00:00:00 | |
| DL1XH-15 | 2026-08-31 13:01:16 | 53.37326 | 11.18146 | 53° | 38km/h | 1190m | -12.3m/s | 11.9°C | 82.5% | 881.1hPa | 2.6V | 02:47:00 | 02:52:32 | 00:00:00 | |
| DL1XH-15 | 2026-08-31 13:01:16 | 53.37315 | 11.18122 | 50° | 37km/h | 1216m | -12.5m/s | 11.7°C | 83.7% | 878.7hPa | 2.7V | 02:47:02 | 02:52:30 | 00:00:00 | |
| DL1XH-15 | 2026-08-31 13:01:16 | 53.37303 | 11.18096 | 52° | 38km/h | 1242m | -13.3m/s | 11.4°C | 84.7% | 875.9hPa | 2.7V | 02:47:04 | 02:52:28 | 00:00:00 | |
| AA1-15 | 2026-08-31 13:01:15 | 53.37326 | 11.18146 | 54° | 38km/h | 1190m | -12.3m/s | 12°C | 89.4% | 881.1hPa | 2.6V | 02:47:50 | 02:52:32 | 00:00:00 | |
| AA1-15 | 2026-08-31 13:01:13 | 53.37314 | 11.18122 | 50° | 37km/h | 1216m | -12.5m/s | 11.7°C | 91.1% | 878.7hPa | 2.7V | 02:47:50 | 02:52:30 | 00:00:00 | |
| AA1-15 | 2026-08-31 13:01:12 | 53.37309 | 11.18110 | 57° | 38km/h | 1229m | -13.1m/s | 11.6°C | 91.6% | 877.2hPa | 2.7V | 02:47:50 | 02:52:29 | 00:00:00 | |
| DO2SHX-10 | 2026-08-31 13:01:12 | 53.37309 | 11.18110 | 57° | 38km/h | 1229m | -13.0m/s | 11.5°C | 84.1% | 877.1hPa | 2.7V | 00:00:00 | 02:52:29 | 00:00:00 | |
| SMARD9-15 | 2026-08-31 13:01:11 | 53.37303 | 11.18096 | 52° | 38km/h | 1242m | -13.3m/s | 11.4°C | 83.7% | 875.9hPa | 2.7V | 00:00:00 | 00:00:00 | 00:00:00 | |
| DL1XH-15 | 2026-08-31 13:01:11 | 53.37280 | 11.18046 | 56° | 38km/h | 1295m | -13.2m/s | 10.9°C | 86.9% | 870.4hPa | 2.7V | 02:47:08 | 02:52:24 | 00:00:00 | |
| AA1-15 | 2026-08-31 13:01:11 | 53.37303 | 11.18096 | 52° | 38km/h | 1242m | -13.3m/s | 11.4°C | 91.9% | 875.9hPa | 2.7V | 02:47:50 | 02:52:28 | 00:00:00 | |
| DB0DAN | 2026-08-31 13:01:10 | 53.37297 | 11.18084 | 54° | 35km/h | 1255m | -12.4m/s | 11.3°C | 84.2% | 874.54hPa | 2.6V | 00:00:00 | 00:00:00 | 00:00:00 | |
| AA1-15 | 2026-08-31 13:01:09 | 53.37292 | 11.18071 | 53° | 37km/h | 1268m | -14.5m/s | 11.2°C | 93.1% | 873.3hPa | 2.7V | 02:47:50 | 02:52:26 | 00:00:00 | |
| AA1-15 | 2026-08-31 13:01:08 | 53.37286 | 11.18059 | 50° | 38km/h | 1282m | -13.6m/s | 11.1°C | 93.5% | 871.8hPa | 2.7V | 02:47:50 | 02:52:25 | 00:00:00 | |
| AA1-15 | 2026-08-31 13:01:06 | 53.37275 | 11.18033 | 57° | 38km/h | 1309m | -12.8m/s | 10.8°C | 93.9% | 868.9hPa | 2.7V | 02:47:50 | 02:52:23 | 00:00:00 | |
| AA1-15 | 2026-08-31 13:01:05 | 53.37270 | 11.18019 | 58° | 38km/h | 1321m | -13m/s | 10.7°C | 93.9% | 867.7hPa | 2.7V | 02:47:50 | 02:52:22 | 00:00:00 | |
| AA1-15 | 2026-08-31 13:01:03 | 53.37258 | 11.17992 | 51° | 40km/h | 1345m | -11.7m/s | 10.8°C | 88.6% | 865.2hPa | 2.6V | 02:47:50 | 02:52:20 | 00:00:00 | |
| AA1-15 | 2026-08-31 13:01:03 | 53.37252 | 11.17978 | 58° | 42km/h | 1356m | -11.4m/s | 10.6°C | 89.8% | 863.8hPa | 2.6V | 02:47:50 | 02:52:19 | 00:00:00 | |
| AA1-15 | 2026-08-31 13:01:00 | 53.37240 | 11.17949 | 54° | 42km/h | 1380m | -13.6m/s | 10.5°C | 89.6% | 861.4hPa | 2.7V | 02:47:50 | 02:52:17 | 00:00:00 | |
| DL1XH-15 | 2026-08-31 13:01:00 | 53.37222 | 11.17903 | 52° | 42km/h | 1418m | -10.2m/s | 10.2°C | 81.3% | 857.5hPa | 2.7V | 02:47:18 | 02:52:14 | 00:00:00 | |
| AA1-15 | 2026-08-31 13:00:58 | 53.37228 | 11.17918 | 55° | 44km/h | 1406m | -12.8m/s | 10.3°C | 89.4% | 858.7hPa | 2.7V | 02:47:50 | 02:52:15 | 00:00:00 | |
| AA1-15 | 2026-08-31 13:00:56 | 53.37215 | 11.17889 | 54° | 42km/h | 1430m | -12.5m/s | 10.2°C | 87% | 856.3hPa | 2.7V | 02:47:50 | 02:52:13 | 00:00:00 | |
| DB0DAN | 2026-08-31 13:00:55 | 53.37209 | 11.17874 | 52° | 40km/h | 1443m | -13.9m/s | 10.1°C | 78.2% | 855hPa | 2.7V | 00:00:00 | 00:00:00 | 00:00:00 | |
| AA1-15 | 2026-08-31 13:00:54 | 53.37202 | 11.17860 | 54° | 42km/h | 1456m | -12.4m/s | 10°C | 87.6% | 853.4hPa | 2.6V | 02:47:50 | 02:52:11 | 00:00:00 | |
| AA1-15 | 2026-08-31 13:00:53 | 53.37196 | 11.17846 | 52° | 44km/h | 1468m | -13.5m/s | 9.9°C | 87.2% | 852.1hPa | 2.6V | 02:47:50 | 02:52:10 | 00:00:00 | |
| AA1-15 | 2026-08-31 13:00:52 | 53.37189 | 11.17831 | 53° | 46km/h | 1482m | -14.9m/s | 9.8°C | 87.5% | 850.8hPa | 2.7V | 02:47:50 | 02:52:09 | 00:00:00 | |
| AA1-15 | 2026-08-31 13:00:50 | 53.37176 | 11.17801 | 50° | 42km/h | 1510m | -13.4m/s | 9.5°C | 87.8% | 848.1hPa | 2.7V | 02:47:50 | 02:52:07 | 00:00:00 | |
| AA1-15 | 2026-08-31 13:00:49 | 53.37169 | 11.17787 | 50° | 42km/h | 1524m | -14m/s | 9.4°C | 88.1% | 846.6hPa | 2.7V | 02:47:50 | 02:52:06 | 00:00:00 | |
| DL1XH-15 | 2026-08-31 13:00:48 | 53.37120 | 11.17686 | 49° | 46km/h | 1616m | -12.9m/s | 8.7°C | 80.9% | 837.4hPa | 2.7V | 02:47:33 | 02:51:59 | 00:00:00 | |
| AA1-15 | 2026-08-31 13:00:48 | 53.37155 | 11.17759 | 52° | 44km/h | 1552m | -14.5m/s | 9.2°C | 87.6% | 844hPa | 2.7V | 02:47:50 | 02:52:04 | 00:00:00 | |
| AA1-15 | 2026-08-31 13:00:47 | 53.37149 | 11.17744 | 57° | 42km/h | 1566m | -12.9m/s | 9.1°C | 88% | 842.7hPa | 2.6V | 02:47:50 | 02:52:03 | 00:00:00 | |
| AA1-15 | 2026-08-31 13:00:45 | 53.37142 | 11.17730 | 52° | 44km/h | 1579m | -12.2m/s | 8.9°C | 88.5% | 841.3hPa | 2.6V | 02:47:50 | 02:52:02 | 00:00:00 | |
| AA1-15 | 2026-08-31 13:00:43 | 53.37127 | 11.17701 | 49° | 46km/h | 1604m | -12.1m/s | 8.8°C | 87% | 838.6hPa | 2.7V | 02:47:50 | 02:52:00 | 00:00:00 | |
| DL1XH-15 | 2026-08-31 13:00:43 | 53.37112 | 11.17671 | 53° | 44km/h | 1630m | -10.7m/s | 8.6°C | 81.3% | 836.1hPa | 2.7V | 02:47:34 | 02:51:58 | 00:00:00 | |
| AA1-15 | 2026-08-31 13:00:42 | 53.37120 | 11.17686 | 50° | 46km/h | 1616m | -12.9m/s | 8.7°C | 87% | 837.4hPa | 2.7V | 02:47:50 | 02:51:59 | 00:00:00 | |
| AA1-15 | 2026-08-31 13:00:40 | 53.37105 | 11.17655 | 54° | 44km/h | 1641m | -11.3m/s | 8.5°C | 87.7% | 835.1hPa | 2.7V | 02:47:50 | 02:51:57 | 00:00:00 | |
| DB0DAN | 2026-08-31 13:00:40 | 53.37105 | 11.17655 | 54° | 42km/h | 1641m | -11.3m/s | 8.5°C | 80.1% | 835.12hPa | 2.7V | 00:00:00 | 00:00:00 | 00:00:00 | |
| AA1-15 | 2026-08-31 13:00:39 | 53.37099 | 11.17640 | 55° | 44km/h | 1652m | -11.3m/s | 8.4°C | 88% | 833.9hPa | 2.7V | 02:47:50 | 02:51:56 | 00:00:00 | |
| DL1XH-west | 2026-08-31 13:00:38 | 53.37092 | 11.17624 | 55° | 46km/h | 1664m | -13.1m/s | 8.4°C | 87.7% | 832.7hPa | 2.6V | 02:47:50 | 02:51:55 | 00:00:00 | |
| AA1-15 | 2026-08-31 13:00:37 | 53.37085 | 11.17609 | 55° | 44km/h | 1677m | -12.7m/s | 8.3°C | 87.7% | 831.4hPa | 2.6V | 02:47:50 | 02:51:54 | 00:00:00 | |
| AA1-15 | 2026-08-31 13:00:36 | 53.37078 | 11.17593 | 53° | 46km/h | 1689m | -12.1m/s | 8.2°C | 87.3% | 830.2hPa | 2.7V | 02:47:50 | 02:51:53 | 00:00:00 | |
| AA1-15 | 2026-08-31 13:00:35 | 53.37071 | 11.17577 | 54° | 47km/h | 1701m | -11.9m/s | 8.1°C | 87.7% | 828.9hPa | 2.7V | 02:47:50 | 02:51:52 | 00:00:00 | |
| AA1-15 | 2026-08-31 13:00:34 | 53.37063 | 11.17561 | 52° | 47km/h | 1712m | -11.7m/s | 8.1°C | 88% | 827.7hPa | 2.7V | 02:47:50 | 02:51:51 | 00:00:00 | |
| DL1XH-west | 2026-08-31 13:00:33 | 53.37056 | 11.17545 | 54° | 47km/h | 1724m | -11.5m/s | 8°C | 88.2% | 826.4hPa | 2.7V | 02:47:50 | 02:51:50 | 00:00:00 | |
| AA1-15 | 2026-08-31 13:00:32 | 53.37049 | 11.17529 | 59° | 46km/h | 1736m | -13.7m/s | 8°C | 87.8% | 825.1hPa | 2.7V | 02:47:50 | 02:51:49 | 00:00:00 | |
| DL1XH-west | 2026-08-31 13:00:31 | 53.37042 | 11.17512 | 55° | 47km/h | 1749m | -13m/s | 7.9°C | 87.1% | 824.1hPa | 2.7V | 02:47:50 | 02:51:48 | 00:00:00 | |
| DL1XH-15 | 2026-08-31 13:00:30 | 53.37000 | 11.17409 | 54° | 53km/h | 1822m | -12.8m/s | 7.4°C | 80.7% | 817hPa | 2.7V | 02:47:50 | 02:51:42 | 00:00:00 | |
| AA1-15 | 2026-08-31 13:00:29 | 53.37029 | 11.17478 | 57° | 47km/h | 1775m | -13.5m/s | 7.9°C | 83% | 821.1hPa | 2.6V | 02:47:50 | 02:51:46 | 00:00:00 | |
| DL1XH-west | 2026-08-31 13:00:28 | 53.37022 | 11.17461 | 55° | 51km/h | 1788m | -11.9m/s | 7.8°C | 83.9% | 820.2hPa | 2.7V | 02:47:50 | 02:51:45 | 00:00:00 | |
| DL1XH-west | 2026-08-31 13:00:26 | 53.37007 | 11.17426 | 55° | 49km/h | 1811m | -11m/s | 7.6°C | 85.3% | 818hPa | 2.7V | 02:47:50 | 02:51:43 | 00:00:00 | |
| DB0DAN | 2026-08-31 13:00:25 | 53.36999 | 11.17409 | 54° | 49km/h | 1822m | -12.8m/s | 7.4°C | 79.5% | 817.02hPa | 2.7V | 00:00:00 | 00:00:00 | 00:00:00 | |
| DL1XH-15 | 2026-08-31 13:00:24 | 53.36984 | 11.17374 | 54° | 49km/h | 1848m | -11.5m/s | 7.2°C | 81.7% | 814.4hPa | 2.7V | 02:47:52 | 02:51:40 | 00:00:00 | |
| DL1XH-15 | 2026-08-31 13:00:24 | 53.36969 | 11.17341 | 54° | 49km/h | 1871m | -11.1m/s | 6.9°C | 84.4% | 811.9hPa | 2.6V | 02:47:54 | 02:51:38 | 00:00:00 | |
| AA1-15 | 2026-08-31 13:00:24 | 53.36992 | 11.17392 | 54° | 51km/h | 1835m | -13.5m/s | 7.3°C | 86.9% | 815.7hPa | 2.7V | 02:48:41 | 02:51:41 | 00:00:00 | |
| DO2SHX-10 | 2026-08-31 13:00:24 | 53.36992 | 11.17392 | 54° | 51km/h | 1835m | -13.4m/s | 7.3°C | 80.9% | 815.6hPa | 2.7V | 00:00:00 | 02:51:41 | 00:00:00 | |
| DL1XH1-15 | 2026-08-31 13:00:23 | 53.36961 | 11.17324 | 51° | 53km/h | 1883m | -13.1m/s | 6.8°C | 85.1% | 810.7hPa | 2.7V | 02:47:55 | 02:51:37 | 00:00:00 | |
| DL1XH1-15 | 2026-08-31 13:00:23 | 53.36936 | 11.17272 | 53° | 51km/h | 1924m | -12.7m/s | 6.5°C | 82.3% | 806.7hPa | 2.7V | 02:47:58 | 02:51:34 | 00:00:00 | |
| AA1-15 | 2026-08-31 13:00:23 | 53.36984 | 11.17374 | 54° | 49km/h | 1849m | -11.5m/s | 7.2°C | 87.5% | 814.4hPa | 2.7V | 02:48:41 | 02:51:40 | 00:00:00 | |
| AA1-15 | 2026-08-31 13:00:22 | 53.36976 | 11.17358 | 53° | 49km/h | 1860m | -11.8m/s | 7°C | 89.2% | 813.1hPa | 2.6V | 02:48:41 | 02:51:39 | 00:00:00 | |
| DL1XH-west | 2026-08-31 13:00:21 | 53.36969 | 11.17341 | 54° | 49km/h | 1871m | -11.1m/s | 6.9°C | 90.3% | 811.9hPa | 2.6V | 02:48:41 | 02:51:38 | 00:00:00 | |
| DF8AY | 2026-08-31 13:00:21 | 53.36936 | 11.17272 | 53° | 51km/h | 1924m | -12.7m/s | 6.5°C | 88.4% | 806.8hPa | 2.7V | 02:48:41 | 02:51:34 | 00:00:00 | |
| DL1XH-west | 2026-08-31 13:00:19 | 53.36952 | 11.17307 | 52° | 51km/h | 1897m | -14.3m/s | 6.7°C | 91% | 809.6hPa | 2.7V | 02:48:41 | 02:51:36 | 00:00:00 | |
| DL1XH-15 | 2026-08-31 13:00:19 | 53.36920 | 11.17237 | 53° | 55km/h | 1949m | -13.1m/s | 6.3°C | 82% | 804.3hPa | 2.6V | 02:48:00 | 02:51:32 | 00:00:00 | |
| DL1XH-15 | 2026-08-31 13:00:19 | 53.36903 | 11.17203 | 51° | 51km/h | 1974m | -11.8m/s | 6.3°C | 78.1% | 801.6hPa | 2.7V | 02:48:02 | 02:51:30 | 00:00:00 | |
| DL1XH-west | 2026-08-31 13:00:18 | 53.36944 | 11.17290 | 52° | 53km/h | 1910m | -12.9m/s | 6.6°C | 90.3% | 808hPa | 2.7V | 02:48:41 | 02:51:35 | 00:00:00 | |
| DO2SHX-10 | 2026-08-31 13:00:18 | 53.36944 | 11.17290 | 52° | 51km/h | 1910m | -12.9m/s | 6.5°C | 84.6% | 807.9hPa | 2.7V | 00:00:00 | 02:51:35 | 00:00:00 | |
| DL1XH1-15 | 2026-08-31 13:00:18 | 53.36928 | 11.17255 | 50° | 51km/h | 1936m | -12.9m/s | 6.4°C | 83.3% | 805.4hPa | 2.7V | 02:47:59 | 02:51:33 | 00:00:00 | |
| DL1XH1-15 | 2026-08-31 13:00:18 | 53.36912 | 11.17220 | 51° | 51km/h | 1962m | -13m/s | 6.3°C | 80.7% | 803.1hPa | 2.6V | 02:48:01 | 02:51:31 | 00:00:00 | |
| DL1XH-west | 2026-08-31 13:00:17 | 53.36928 | 11.17255 | 51° | 51km/h | 1936m | -12.9m/s | 6.4°C | 89.2% | 805.5hPa | 2.7V | 02:48:41 | 02:51:33 | 00:00:00 | |
| DF8AY | 2026-08-31 13:00:16 | 53.36920 | 11.17237 | 54° | 55km/h | 1949m | -13.1m/s | 6.4°C | 88.1% | 804.3hPa | 2.6V | 02:48:41 | 02:51:32 | 00:00:00 | |
| DF8AY | 2026-08-31 13:00:14 | 53.36912 | 11.17220 | 51° | 51km/h | 1962m | -13m/s | 6.4°C | 87.3% | 803.1hPa | 2.6V | 02:48:41 | 02:51:31 | 00:00:00 | |
| DL1XH-west | 2026-08-31 13:00:14 | 53.36903 | 11.17203 | 51° | 51km/h | 1974m | -11.8m/s | 6.3°C | 84.9% | 801.7hPa | 2.7V | 02:48:41 | 02:51:30 | 00:00:00 | |
| AA1-15 | 2026-08-31 13:00:12 | 53.36895 | 11.17186 | 51° | 51km/h | 1986m | -13.1m/s | 6.2°C | 84.8% | 800.4hPa | 2.7V | 02:48:41 | 02:51:29 | 00:00:00 | |
| DL1XH-15 | 2026-08-31 13:00:12 | 53.36887 | 11.17169 | 49° | 53km/h | 1998m | -12.5m/s | 6.2°C | 76.2% | 799.3hPa | 2.7V | 02:48:04 | 02:51:28 | 00:00:00 | |
| DO2SHX-10 | 2026-08-31 13:00:12 | 53.36895 | 11.17186 | 51° | 53km/h | 1986m | -13.0m/s | 6.2°C | 78.0% | 800.3hPa | 2.7V | 02:48:00 | 02:51:29 | 00:00:00 | |
| DL1XH1-15 | 2026-08-31 13:00:12 | 53.36833 | 11.17070 | 46° | 53km/h | 2072m | -12.7m/s | 5.9°C | 75.4% | 791.6hPa | 2.7V | 02:48:10 | 02:51:22 | 00:00:00 | |
| DL1XH-west | 2026-08-31 13:00:11 | 53.36887 | 11.17169 | 50° | 53km/h | 1998m | -12.5m/s | 6.2°C | 83.3% | 799.3hPa | 2.7V | 02:48:41 | 02:51:28 | 00:00:00 | |
| DB0DAN | 2026-08-31 13:00:10 | 53.36878 | 11.17152 | 50° | 51km/h | 2010m | -13m/s | 6.1°C | 75.5% | 797.82hPa | 2.7V | 00:00:00 | 00:00:00 | 00:00:00 | |
| SMARD9-15 | 2026-08-31 13:00:09 | 53.36869 | 11.17135 | 47° | 53km/h | 2023m | -13.3m/s | 6.0°C | 76.7% | 796.6hPa | 2.7V | 00:00:00 | 00:00:00 | 00:00:00 | |
| DL1XH-15 | 2026-08-31 13:00:07 | 53.36807 | 11.17021 | 47° | 53km/h | 2108m | -12.3m/s | 5.5°C | 76.1% | 788.2hPa | 2.7V | 02:48:13 | 02:51:19 | 00:00:00 | |
| DF8AY | 2026-08-31 13:00:06 | 53.36842 | 11.17086 | 49° | 51km/h | 2061m | -12.5m/s | 5.9°C | 82.2% | 793hPa | 2.6V | 02:48:41 | 02:51:23 | 00:00:00 | |
| DO2SHX-10 | 2026-08-31 13:00:06 | 53.36842 | 11.17086 | 49° | 53km/h | 2061m | -12.4m/s | 5.9°C | 74.9% | 792.9hPa | 2.6V | 00:00:00 | 02:51:23 | 00:00:00 | |
| DM0DOS-11 | 2026-08-31 13:00:05 | 53.36789 | 11.16989 | 48° | 53km/h | 2132m | -13.2m/s | 5.4°C | 75.8% | 786.1hPa | 2.6V | 02:48:15 | 02:51:17 | 00:00:00 | |
| AA1-15 | 2026-08-31 13:00:04 | 53.36815 | 11.17037 | 50° | 53km/h | 2096m | -12.1m/s | 5.6°C | 82.9% | 789.4hPa | 2.7V | 02:48:41 | 02:51:20 | 00:00:00 | |
| DL1XH-15 | 2026-08-31 13:00:02 | 53.36762 | 11.16941 | 47° | 53km/h | 2169m | -14m/s | 5.1°C | 75.6% | 782.5hPa | 2.7V | 02:48:18 | 02:51:14 | 00:00:00 | |
| DL1XH-west | 2026-08-31 13:00:01 | 53.36798 | 11.17005 | 46° | 51km/h | 2120m | -11.6m/s | 5.5°C | 82.5% | 787hPa | 2.7V | 02:48:41 | 02:51:18 | 00:00:00 | |
| DL1XH-15 | 2026-08-31 12:59:57 | 53.36716 | 11.16865 | 43° | 51km/h | 2236m | -14.2m/s | 4.7°C | 75% | 776.6hPa | 2.6V | 02:48:23 | 02:51:09 | 00:00:00 | |
| DF8AY | 2026-08-31 12:59:56 | 53.36753 | 11.16925 | 45° | 53km/h | 2183m | -14.1m/s | 5.1°C | 83.3% | 781.4hPa | 2.7V | 02:48:41 | 02:51:13 | 00:00:00 | |
| DL1XH1-15 | 2026-08-31 12:59:55 | 53.36744 | 11.16909 | 42° | 51km/h | 2196m | -13.1m/s | 5°C | 75.1% | 780hPa | 2.7V | 02:48:20 | 02:51:12 | 00:00:00 | |
| DL1XH1-15 | 2026-08-31 12:59:55 | 53.36698 | 11.16834 | 45° | 47km/h | 2263m | -11.6m/s | 4.5°C | 75.4% | 773.9hPa | 2.7V | 02:48:25 | 02:51:07 | 00:00:00 | |
| DB0DAN | 2026-08-31 12:59:55 | 53.36743 | 11.16909 | 43° | 49km/h | 2196m | -13.1m/s | 5°C | 73.9% | 780.01hPa | 2.7V | 00:00:00 | 00:00:00 | 00:00:00 | |
| AA1-15 | 2026-08-31 12:59:54 | 53.36734 | 11.16894 | 45° | 47km/h | 2209m | -13.6m/s | 4.9°C | 83.2% | 778.9hPa | 2.7V | 02:48:41 | 02:51:11 | 00:00:00 | |
| DL1XH-15 | 2026-08-31 12:59:52 | 53.36672 | 11.16788 | 45° | 49km/h | 2296m | -11.6m/s | 4.2°C | 76.3% | 770.7hPa | 2.7V | 02:48:28 | 02:51:04 | 00:00:00 | |
| DL1XH-west | 2026-08-31 12:59:51 | 53.36706 | 11.16850 | 48° | 51km/h | 2250m | -13.9m/s | 4.6°C | 82.6% | 775.2hPa | 2.6V | 02:48:41 | 02:51:08 | 00:00:00 | |
| DM0DOS-11 | 2026-08-31 12:59:48 | 53.36637 | 11.16727 | 45° | 51km/h | 2342m | -10.8m/s | 3.7°C | 78.7% | 766hPa | 2.7V | 02:48:32 | 02:51:00 | 00:00:00 | |
| DL1XH-15 | 2026-08-31 12:59:47 | 53.36629 | 11.16712 | 48° | 47km/h | 2352m | -10.6m/s | 3.6°C | 79.1% | 765.1hPa | 2.7V | 02:48:33 | 02:50:59 | 00:00:00 | |
| DF8AY | 2026-08-31 12:59:45 | 53.36654 | 11.16758 | 46° | 51km/h | 2320m | -12.2m/s | 3.9°C | 83.2% | 768.2hPa | 2.6V | 02:48:41 | 02:51:02 | 00:00:00 | |
| DL1XH1-15 | 2026-08-31 12:59:45 | 53.36612 | 11.16683 | 43° | 49km/h | 2375m | -12.5m/s | 3.4°C | 80.8% | 762.9hPa | 2.7V | 02:48:35 | 02:50:57 | 00:00:00 | |
| DM0DOS-11 | 2026-08-31 12:59:43 | 53.36594 | 11.16653 | 46° | 51km/h | 2402m | -14.1m/s | 3.2°C | 81.2% | 760.7hPa | 2.6V | 02:48:37 | 02:50:55 | 00:00:00 | |
| AA1-15 | 2026-08-31 12:59:43 | 53.36637 | 11.16727 | 46° | 51km/h | 2342m | -10.8m/s | 3.7°C | 84.2% | 766hPa | 2.7V | 02:48:41 | 02:51:00 | 00:00:00 | |
| DL1XH-west | 2026-08-31 12:59:40 | 53.36612 | 11.16683 | 44° | 49km/h | 2375m | -12.5m/s | 3.4°C | 87.6% | 762.9hPa | 2.7V | 02:48:41 | 02:50:57 | 00:00:00 | |
| DL1XH1-15 | 2026-08-31 12:59:40 | 53.36567 | 11.16609 | 45° | 51km/h | 2444m | -13.7m/s | 3.1°C | 80.1% | 756.8hPa | 2.7V | 02:48:40 | 02:50:52 | 00:00:00 | |
| DB0DAN | 2026-08-31 12:59:40 | 53.36612 | 11.16683 | 44° | 47km/h | 2375m | -12.5m/s | 3.4°C | 79.4% | 762.92hPa | 2.7V | 00:00:00 | 00:00:00 | 00:00:00 | |
| DM0DOS-11 | 2026-08-31 12:59:38 | 53.36549 | 11.16580 | 41° | 49km/h | 2469m | -10.9m/s | 2.9°C | 79.3% | 754.4hPa | 2.7V | 02:48:42 | 02:50:50 | 00:00:00 | |
| SMARD9-15 | 2026-08-31 12:59:38 | 53.36585 | 11.16639 | 44° | 46km/h | 2416m | -14.9m/s | 3.1°C | 80.1% | 759.2hPa | 2.7V | 00:00:00 | 00:00:00 | 00:00:00 | |
| DL1XH-15 | 2026-08-31 12:59:37 | 53.36539 | 11.16566 | 42° | 49km/h | 2480m | -12m/s | 2.8°C | 79.8% | 753.5hPa | 2.7V | 02:48:43 | 02:50:49 | 00:00:00 | |
| DF8AY | 2026-08-31 12:59:35 | 53.36567 | 11.16609 | 46° | 51km/h | 2444m | -13.7m/s | 3.1°C | 87.2% | 756.8hPa | 2.7V | 02:48:41 | 02:50:52 | 00:00:00 | |
| DM0DOS-11 | 2026-08-31 12:59:33 | 53.36504 | 11.16506 | 45° | 49km/h | 2530m | -11.6m/s | 2.3°C | 81.8% | 748.9hPa | 2.7V | 02:48:47 | 02:50:45 | 00:00:00 | |
| AA1-15 | 2026-08-31 12:59:32 | 53.36539 | 11.16566 | 43° | 49km/h | 2480m | -12m/s | 2.8°C | 86.7% | 753.5hPa | 2.7V | 02:49:32 | 02:50:49 | 00:00:00 | |
| DL1XH1-15 | 2026-08-31 12:59:30 | 53.36478 | 11.16460 | 45° | 51km/h | 2569m | -14m/s | 2.1°C | 80.7% | 745.4hPa | 2.7V | 02:48:50 | 02:50:42 | 00:00:00 | |
| DL1XH-west | 2026-08-31 12:59:29 | 53.36512 | 11.16521 | 46° | 49km/h | 2518m | -12.4m/s | 2.4°C | 88.1% | 750.1hPa | 2.7V | 02:49:32 | 02:50:46 | 00:00:00 | |
| DL1XH-15 | 2026-08-31 12:59:27 | 53.36454 | 11.16416 | 46° | 44km/h | 2606m | -10.2m/s | 1.9°C | 81.2% | 742hPa | 2.7V | 02:48:53 | 02:50:39 | 00:00:00 | |
| DF8AY | 2026-08-31 12:59:25 | 53.36478 | 11.16460 | 46° | 51km/h | 2570m | -14m/s | 2.1°C | 86.9% | 745.4hPa | 2.7V | 02:49:32 | 02:50:42 | 00:00:00 | |
| DB0DAN | 2026-08-31 12:59:25 | 53.36478 | 11.16460 | 46° | 47km/h | 2570m | -14m/s | 2.1°C | 79.2% | 745.38hPa | 2.7V | 00:00:00 | 00:00:00 | 00:00:00 | |
| DF8AY-15 | 2026-08-31 12:59:24 | 53.36469 | 11.16444 | 48° | 46km/h | 2583m | -12.2m/s | 2.1°C | 79.0% | 744.1hPa | 2.7V | 00:00:00 | 02:50:41 | 00:00:00 | |
| DM0DOS-11 | 2026-08-31 12:59:23 | 53.36422 | 11.16362 | 47° | 42km/h | 2651m | -9.8m/s | 1.5°C | 86.4% | 737.5hPa | 2.7V | 02:48:57 | 02:50:35 | 00:00:00 | |
| DL1XH-15 | 2026-08-31 12:59:22 | 53.36415 | 11.16348 | 48° | 44km/h | 2662m | -12.1m/s | 1.4°C | 86.8% | 736.5hPa | 2.6V | 02:48:58 | 02:50:34 | 00:00:00 | |
| AA1-15 | 2026-08-31 12:59:22 | 53.36446 | 11.16403 | 46° | 44km/h | 2617m | -11.1m/s | 1.8°C | 87.5% | 740.7hPa | 2.7V | 02:49:32 | 02:50:38 | 00:00:00 | |
| DL1XH1-15 | 2026-08-31 12:59:20 | 53.36400 | 11.16321 | 46° | 44km/h | 2684m | -12.3m/s | 1.2°C | 87.8% | 734.3hPa | 2.7V | 02:49:00 | 02:50:32 | 00:00:00 | |
| DF8AY | 2026-08-31 12:59:19 | 53.36393 | 11.16308 | 44° | 44km/h | 2695m | -12.6m/s | 1.1°C | 93.6% | 733hPa | 2.7V | 02:49:32 | 02:50:31 | 00:00:00 | |
| DL1XH-west | 2026-08-31 12:59:19 | 53.36422 | 11.16362 | 48° | 42km/h | 2651m | -9.8m/s | 1.5°C | 91.7% | 737.5hPa | 2.7V | 02:49:32 | 02:50:35 | 00:00:00 | |
| DM0DOS-11 | 2026-08-31 12:59:18 | 53.36385 | 11.16295 | 43° | 46km/h | 2707m | -12.6m/s | 1°C | 88.8% | 732hPa | 2.7V | 02:49:02 | 02:50:30 | 00:00:00 | |
| DO2SHX-10 | 2026-08-31 12:59:16 | 53.36408 | 11.16335 | 49° | 47km/h | 2673m | -12.1m/s | 1.3°C | 87.3% | 735.2hPa | 2.6V | 02:48:00 | 02:50:33 | 00:00:00 | |
| DM0DOS-11 | 2026-08-31 12:59:13 | 53.36343 | 11.16227 | 46° | 49km/h | 2767m | -12.5m/s | 0.6°C | 92.4% | 726.4hPa | 2.7V | 02:49:07 | 02:50:25 | 00:00:00 | |
| DL1XH-15 | 2026-08-31 12:59:12 | 53.36335 | 11.16212 | 45° | 47km/h | 2779m | -13.2m/s | 0.5°C | 92.3% | 725.1hPa | 2.7V | 02:49:08 | 02:50:24 | 00:00:00 | |
| AA1-15 | 2026-08-31 12:59:11 | 53.36369 | 11.16267 | 45° | 47km/h | 2732m | -12.9m/s | 0.8°C | 95.9% | 729.6hPa | 2.7V | 02:49:32 | 02:50:28 | 00:00:00 | |
| DB0DAN | 2026-08-31 12:59:10 | 53.36361 | 11.16254 | 45° | 42km/h | 2744m | -13.7m/s | 0.7°C | 89.5% | 728.59hPa | 2.6V | 00:00:00 | 00:00:00 | 00:00:00 | |
| DM0DOS-11 | 2026-08-31 12:59:08 | 53.36302 | 11.16154 | 47° | 47km/h | 2829m | -14.7m/s | 0.2°C | 89.9% | 721hPa | 2.6V | 02:49:12 | 02:50:20 | 00:00:00 | |
| DL1XH-west | 2026-08-31 12:59:08 | 53.36335 | 11.16212 | 46° | 47km/h | 2779m | -13.2m/s | 0.5°C | 96% | 725.2hPa | 2.7V | 02:49:32 | 02:50:24 | 00:00:00 | |
| DF8AY | 2026-08-31 12:59:04 | 53.36310 | 11.16168 | 48° | 49km/h | 2816m | -12.7m/s | 0.3°C | 95.3% | 722hPa | 2.6V | 02:49:32 | 02:50:21 | 00:00:00 | |
| DF8AY-15 | 2026-08-31 12:59:04 | 53.36310 | 11.16168 | 49° | 47km/h | 2816m | -12.7m/s | 0.3°C | 90.6% | 722.0hPa | 2.6V | 02:49:00 | 02:50:21 | 00:00:00 | |
| DM0DOS-11 | 2026-08-31 12:59:03 | 53.36263 | 11.16080 | 50° | 49km/h | 2891m | -13.3m/s | -0.1°C | 88.4% | 715.4hPa | 2.7V | 02:49:17 | 02:50:15 | 00:00:00 | |
| DL1XH-15 | 2026-08-31 12:59:02 | 53.36255 | 11.16064 | 49° | 49km/h | 2904m | -12.8m/s | -0.1°C | 87.5% | 714.3hPa | 2.6V | 02:49:18 | 02:50:14 | 00:00:00 | |
| AA1-15 | 2026-08-31 12:59:01 | 53.36279 | 11.16109 | 51° | 44km/h | 2868m | -12.3m/s | -0°C | 95.3% | 717.7hPa | 2.7V | 02:49:32 | 02:50:17 | 00:00:00 | |
| DL1XH1-15 | 2026-08-31 12:59:00 | 53.36240 | 11.16032 | 50° | 47km/h | 2928m | -11.4m/s | -0.2°C | 85% | 712.3hPa | 2.7V | 02:49:20 | 02:50:12 | 00:00:00 | |
| DM0DOS-11 | 2026-08-31 12:58:58 | 53.36224 | 11.16002 | 50° | 49km/h | 2949m | -11.2m/s | -0.4°C | 85.5% | 710.1hPa | 2.7V | 02:49:22 | 02:50:10 | 00:00:00 | |
| DL1XH-15 | 2026-08-31 12:58:57 | 53.36217 | 11.15986 | 52° | 47km/h | 2960m | -12.1m/s | -0.4°C | 84.5% | 709.3hPa | 2.7V | 02:49:23 | 02:50:09 | 00:00:00 | |
| DL1XH-west | 2026-08-31 12:58:57 | 53.36247 | 11.16048 | 50° | 49km/h | 2916m | -12.2m/s | -0.1°C | 90.7% | 713.4hPa | 2.6V | 02:49:32 | 02:50:13 | 00:00:00 | |
| DF8AY | 2026-08-31 12:58:55 | 53.36232 | 11.16017 | 51° | 47km/h | 2939m | -10.3m/s | -0.3°C | 90.7% | 711.3hPa | 2.7V | 02:49:32 | 02:50:11 | 00:00:00 | |
| DL1XH1-15 | 2026-08-31 12:58:55 | 53.36202 | 11.15955 | 48° | 47km/h | 2981m | -11.2m/s | -0.6°C | 84.7% | 707.3hPa | 2.6V | 02:49:25 | 02:50:07 | 00:00:00 | |
| DB0DAN | 2026-08-31 12:58:55 | 53.36240 | 11.16032 | 50° | 46km/h | 2928m | -11.4m/s | -0.2°C | 83.2% | 712.34hPa | 2.7V | 00:00:00 | 00:00:00 | 00:00:00 | |
| DM0DOS-11 | 2026-08-31 12:58:53 | 53.36187 | 11.15925 | 53° | 49km/h | 3003m | -12.2m/s | -0.6°C | 81.8% | 705.4hPa | 2.7V | 02:49:27 | 02:50:05 | 00:00:00 | |
| DL1XH-15 | 2026-08-31 12:58:52 | 53.36180 | 11.15909 | 53° | 49km/h | 3015m | -12.6m/s | -0.6°C | 79.4% | 704.3hPa | 2.7V | 02:49:28 | 02:50:04 | 00:00:00 | |
| DL1XH1-15 | 2026-08-31 12:58:50 | 53.36165 | 11.15877 | 53° | 47km/h | 3039m | -13m/s | -0.8°C | 79% | 702.5hPa | 2.7V | 02:49:30 | 02:50:02 | 00:00:00 | |
| AA1-15 | 2026-08-31 12:58:49 | 53.36194 | 11.15941 | 50° | 47km/h | 2992m | -11.6m/s | -0.6°C | 88.1% | 706.4hPa | 2.7V | 02:49:32 | 02:50:06 | 00:00:00 | |
| DL1XH-15 | 2026-08-31 12:58:47 | 53.36142 | 11.15830 | 52° | 47km/h | 3076m | -12.4m/s | -1°C | 75.9% | 699.4hPa | 2.7V | 02:49:33 | 02:49:59 | 00:00:00 | |
| DL1XH-west | 2026-08-31 12:58:46 | 53.36172 | 11.15893 | 52° | 49km/h | 3027m | -12.4m/s | -0.7°C | 84.9% | 703.4hPa | 2.7V | 02:49:32 | 02:50:03 | 00:00:00 | |
| DF8AY | 2026-08-31 12:58:44 | 53.36157 | 11.15861 | 50° | 49km/h | 3051m | -12.4m/s | -0.9°C | 85.3% | 701.4hPa | 2.6V | 02:49:32 | 02:50:01 | 00:00:00 | |
| DO2SHX-10 | 2026-08-31 12:58:43 | 53.36150 | 11.15845 | 53° | 47km/h | 3064m | -12.6m/s | -0.9°C | 78.7% | 700.3hPa | 2.6V | 00:00:00 | 02:50:00 | 00:00:00 | |
| DL1XH-15 | 2026-08-31 12:58:42 | 53.36104 | 11.15753 | 47° | 44km/h | 3133m | -10.9m/s | -1.6°C | 77.9% | 694.4hPa | 2.6V | 02:49:38 | 02:49:54 | 00:00:00 | |
| DL1XH1-15 | 2026-08-31 12:58:40 | 53.36089 | 11.15724 | 47° | 49km/h | 3155m | -10.9m/s | -1.8°C | 77.1% | 692.3hPa | 2.7V | 02:49:40 | 02:49:52 | 00:00:00 | |
| DB0DAN | 2026-08-31 12:58:40 | 53.36127 | 11.15799 | 50° | 46km/h | 3100m | -12.5m/s | -1.2°C | 75.5% | 697.25hPa | 2.7V | 00:00:00 | 00:00:00 | 00:00:00 | |
| AA1-15 | 2026-08-31 12:58:38 | 53.36111 | 11.15768 | 51° | 46km/h | 3123m | -10.6m/s | -1.5°C | 82.7% | 695.3hPa | 2.6V | 02:50:23 | 02:49:55 | 00:00:00 | |
| DM0DOS-11 | 2026-08-31 12:58:38 | 53.36072 | 11.15694 | 45° | 47km/h | 3176m | -10.9m/s | -1.9°C | 75.4% | 690.3hPa | 2.7V | 02:49:42 | 02:49:50 | 00:00:00 | |
| BIOWL1-15 | 2026-08-31 12:58:35 | 53.36088 | 11.15723 | 48° | 49km/h | 3155m | -10.9m/s | -1.8°C | 82.8% | 692.3hPa | 2.7V | 02:50:23 | 02:49:52 | 00:00:00 | |
| DO2SHX-10 | 2026-08-31 12:58:34 | 53.36080 | 11.15708 | 47° | 47km/h | 3166m | -11.1m/s | -1.8°C | 75.7% | 691.3hPa | 2.7V | 00:00:00 | 02:49:51 | 00:00:00 | |
| DM0DOS-11 | 2026-08-31 12:58:33 | 53.36028 | 11.15623 | 42° | 49km/h | 3235m | -12.4m/s | -2.3°C | 71.3% | 685.2hPa | 2.7V | 02:49:47 | 02:49:45 | 00:00:00 | |
| DF8AY | 2026-08-31 12:58:33 | 53.36072 | 11.15694 | 46° | 47km/h | 3176m | -10.9m/s | -1.9°C | 81.4% | 690.3hPa | 2.7V | 02:50:23 | 02:49:50 | 00:00:00 | |
| DO2SHX-10 | 2026-08-31 12:58:31 | 53.36054 | 11.15665 | 44° | 49km/h | 3199m | -12.8m/s | -2.0°C | 71.2% | 688.3hPa | 2.6V | 00:00:00 | 02:49:48 | 00:00:00 | |
| DL1XH1-15 | 2026-08-31 12:58:30 | 53.36002 | 11.15579 | 43° | 49km/h | 3269m | -10.7m/s | -2.5°C | 72.6% | 682.1hPa | 2.6V | 02:49:50 | 02:49:42 | 00:00:00 | |
| DM0DOS-11 | 2026-08-31 12:58:28 | 53.35985 | 11.15551 | 40° | 49km/h | 3289m | -10.3m/s | -2.7°C | 70.7% | 680.4hPa | 2.7V | 02:49:52 | 02:49:40 | 00:00:00 | |
| AA1-15 | 2026-08-31 12:58:28 | 53.36019 | 11.15609 | 45° | 49km/h | 3247m | -12.1m/s | -2.4°C | 77.8% | 684.1hPa | 2.7V | 02:50:23 | 02:49:44 | 00:00:00 | |
| BIOWL1-15 | 2026-08-31 12:58:27 | 53.36002 | 11.15579 | 44° | 49km/h | 3269m | -10.7m/s | -2.6°C | 77.5% | 682.1hPa | 2.6V | 02:50:23 | 02:49:42 | 00:00:00 | |
| DB0DAN | 2026-08-31 12:58:25 | 53.36002 | 11.15579 | 44° | 47km/h | 3269m | -10.7m/s | -2.6°C | 70.8% | 682.08hPa | 2.6V | 00:00:00 | 00:00:00 | 00:00:00 | |
| DL1XH-west | 2026-08-31 12:58:24 | 53.35993 | 11.15564 | 45° | 47km/h | 3280m | -10.3m/s | -2.6°C | 76.8% | 681.3hPa | 2.6V | 02:50:23 | 02:49:41 | 00:00:00 | |
| DF8AY-15 | 2026-08-31 12:58:24 | 53.35993 | 11.15564 | 45° | 47km/h | 3280m | -10.3m/s | -2.6°C | 72.0% | 681.3hPa | 2.6V | 00:00:00 | 02:49:41 | 00:00:00 | |
| DM0DOS-11 | 2026-08-31 12:58:23 | 53.35941 | 11.15480 | 42° | 49km/h | 3340m | -10.2m/s | -3°C | 58.6% | 676.1hPa | 2.6V | 02:49:57 | 02:49:35 | 00:00:00 | |
| DF8AY | 2026-08-31 12:58:23 | 53.35976 | 11.15536 | 47° | 49km/h | 3299m | -11.6m/s | -2.8°C | 74.9% | 679.5hPa | 2.7V | 02:50:23 | 02:49:39 | 00:00:00 | |
| DO2SHX-10 | 2026-08-31 12:58:22 | 53.35976 | 11.15536 | 47° | 47km/h | 3299m | -11.5m/s | -2.8°C | 70.6% | 679.5hPa | 2.7V | 00:00:00 | 02:49:39 | 00:00:00 | |
| DL1XH1-15 | 2026-08-31 12:58:20 | 53.35915 | 11.15437 | 46° | 49km/h | 3370m | -11.2m/s | -3.3°C | 59.1% | 673.3hPa | 2.7V | 02:50:00 | 02:49:32 | 00:00:00 | |
| DO2SHX-10 | 2026-08-31 12:58:19 | 53.35950 | 11.15494 | 43° | 49km/h | 3330m | -9.4m/s | -2.9°C | 60.6% | 676.7hPa | 2.6V | 02:49:00 | 02:49:36 | 00:00:00 | |
| DM0DOS-11 | 2026-08-31 12:58:18 | 53.35899 | 11.15408 | 46° | 49km/h | 3393m | -11.5m/s | -3.4°C | 59.7% | 671.5hPa | 2.6V | 02:50:02 | 02:49:30 | 00:00:00 | |
| AA1-15 | 2026-08-31 12:58:17 | 53.35923 | 11.15452 | 50° | 47km/h | 3360m | -11.4m/s | -3.2°C | 63.5% | 674.2hPa | 2.7V | 02:50:23 | 02:49:33 | 00:00:00 | |
| DL1XH-15 | 2026-08-31 12:58:17 | 53.35890 | 11.15393 | 49° | 47km/h | 3404m | -11.8m/s | -3.4°C | 58.1% | 670.6hPa | 2.6V | 02:50:03 | 02:49:29 | 00:00:00 | |
| DL1XH-west | 2026-08-31 12:58:14 | 53.35907 | 11.15422 | 46° | 49km/h | 3381m | -11.7m/s | -3.4°C | 63.8% | 672.4hPa | 2.7V | 02:50:23 | 02:49:31 | 00:00:00 | |
| AM1SDL-15 | 2026-08-31 12:58:14 | 53.35907 | 11.15422 | 47° | 47km/h | 3381m | -11.6m/s | -3.3°C | 59.6% | 672.3hPa | 2.7V | 02:50:00 | 02:49:31 | 00:00:00 | |
| DM0DOS-11 | 2026-08-31 12:58:13 | 53.35859 | 11.15332 | 51° | 49km/h | 3453m | -11.8m/s | -3.6°C | 57.6% | 666.7hPa | 2.7V | 02:50:07 | 02:49:25 | 00:00:00 | |
| DO2SHX-10 | 2026-08-31 12:58:13 | 53.35898 | 11.15408 | 47° | 47km/h | 3393m | -11.5m/s | -3.4°C | 59.7% | 671.4hPa | 2.6V | 00:00:00 | 02:49:30 | 00:00:00 | |
| DL1XH-15 | 2026-08-31 12:58:12 | 53.35851 | 11.15316 | 50° | 46km/h | 3465m | -11.4m/s | -3.7°C | 56.3% | 665.7hPa | 2.6V | 02:50:08 | 02:49:24 | 00:00:00 | |
| DF8AY | 2026-08-31 12:58:11 | 53.35882 | 11.15378 | 49° | 47km/h | 3415m | -12.2m/s | -3.4°C | 62% | 669.7hPa | 2.7V | 02:50:23 | 02:49:28 | 00:00:00 | |
| DB0DAN | 2026-08-31 12:58:10 | 53.35874 | 11.15363 | 48° | 47km/h | 3427m | -13.1m/s | -3.5°C | 56.3% | 668.76hPa | 2.7V | 00:00:00 | 00:00:00 | 00:00:00 | |
| DL1XH1-15 | 2026-08-31 12:58:10 | 53.35836 | 11.15287 | 49° | 46km/h | 3487m | -11.7m/s | -3.9°C | 59.2% | 663.8hPa | 2.7V | 02:50:10 | 02:49:22 | 00:00:00 | |
| DO2SHX-10 | 2026-08-31 12:58:10 | 53.35874 | 11.15363 | 48° | 47km/h | 3427m | -13.1m/s | -3.4°C | 57.8% | 668.7hPa | 2.7V | 02:50:00 | 02:49:27 | 00:00:00 | |
| DM0DOS-11 | 2026-08-31 12:58:08 | 53.35821 | 11.15257 | 53° | 47km/h | 3510m | -12.1m/s | -3.9°C | 58.5% | 661.8hPa | 2.7V | 02:50:12 | 02:49:20 | 00:00:00 | |
| AA1-15 | 2026-08-31 12:58:06 | 53.35844 | 11.15302 | 48° | 46km/h | 3476m | -11.6m/s | -3.8°C | 64.1% | 664.7hPa | 2.6V | 02:50:23 | 02:49:23 | 00:00:00 | |
| DL1XH-west | 2026-08-31 12:58:04 | 53.35828 | 11.15273 | 49° | 47km/h | 3499m | -11.9m/s | -3.9°C | 65.1% | 662.7hPa | 2.7V | 02:50:23 | 02:49:21 | 00:00:00 | |
| DM0DOS-11 | 2026-08-31 12:58:03 | 53.35786 | 11.15179 | 55° | 44km/h | 3564m | -11.7m/s | -4.1°C | 60.5% | 657.3hPa | 2.7V | 02:50:17 | 02:49:15 | 00:00:00 | |
| BIOWL9-15 | 2026-08-31 12:58:03 | 53.35821 | 11.15257 | 53° | 46km/h | 3510m | -12.1m/s | -3.9°C | 57.0% | 661.9hPa | 2.7V | 00:00:00 | 00:00:00 | 00:00:00 | |
| DL1XH-15 | 2026-08-31 12:58:02 | 53.35780 | 11.15164 | 55° | 46km/h | 3575m | -11.4m/s | -4°C | 59.2% | 656.3hPa | 2.7V | 02:50:18 | 02:49:14 | 00:00:00 | |
| DF8AY | 2026-08-31 12:58:01 | 53.35806 | 11.15227 | 51° | 46km/h | 3532m | -11.7m/s | -4°C | 62.6% | 659.9hPa | 2.6V | 02:50:23 | 02:49:18 | 00:00:00 | |
| DO2SHX-10 | 2026-08-31 12:58:01 | 53.35806 | 11.15227 | 51° | 47km/h | 3532m | -11.6m/s | -4.0°C | 57.5% | 659.9hPa | 2.6V | 02:50:00 | 02:49:18 | 00:00:00 | |
| DM0DOS-11 | 2026-08-31 12:57:58 | 53.35754 | 11.15095 | 57° | 49km/h | 3621m | -11.7m/s | -4.1°C | 55.3% | 652.5hPa | 2.7V | 02:50:22 | 02:49:10 | 00:00:00 | |
| DO2SHX-10 | 2026-08-31 12:57:58 | 53.35786 | 11.15179 | 56° | 46km/h | 3565m | -11.6m/s | -4.1°C | 60.5% | 657.3hPa | 2.7V | 00:00:00 | 02:49:15 | 00:00:00 | |
| DL1XH-15 | 2026-08-31 12:57:57 | 53.35747 | 11.15079 | 55° | 46km/h | 3633m | -10.8m/s | -4.2°C | 55.6% | 651.5hPa | 2.7V | 02:50:23 | 02:49:09 | 00:00:00 | |
| AA1-15 | 2026-08-31 12:57:55 | 53.35767 | 11.15130 | 57° | 49km/h | 3597m | -12.9m/s | -4°C | 61.9% | 654.5hPa | 2.6V | 02:50:23 | 02:49:12 | 00:00:00 | |
| DL1XH1-15 | 2026-08-31 12:57:55 | 53.35733 | 11.15046 | 56° | 49km/h | 3653m | -11.2m/s | -4.4°C | 55.3% | 649.7hPa | 2.7V | 02:50:25 | 02:49:07 | 00:00:00 | |
| DB0DAN | 2026-08-31 12:57:55 | 53.35767 | 11.15130 | 57° | 47km/h | 3597m | -12.9m/s | -4°C | 54.9% | 654.48hPa | 2.6V | 00:00:00 | 00:00:00 | 00:00:00 | |
| DL1XH-west | 2026-08-31 12:57:54 | 53.35760 | 11.15113 | 57° | 49km/h | 3609m | -12.1m/s | -4.1°C | 61.7% | 653.4hPa | 2.6V | 02:50:23 | 02:49:11 | 00:00:00 | |
| DM0DOS-11 | 2026-08-31 12:57:53 | 53.35720 | 11.15011 | 57° | 51km/h | 3676m | -12.7m/s | -4.6°C | 55% | 647.9hPa | 2.6V | 02:50:27 | 02:49:05 | 00:00:00 | |
| S3001 | 2026-08-31 12:57:53 | 53.35733 | 11.15046 | 56° | 47km/h | 3653m | -11.2m/s | -4.4°C | 53.8% | 649.7hPa | 2.7V | 00:00:00 | 00:00:00 | 00:00:00 | |
| DL1XH-15 | 2026-08-31 12:57:52 | 53.35713 | 11.14993 | 56° | 51km/h | 3688m | -12m/s | -4.7°C | 54.5% | 646.9hPa | 2.7V | 02:50:28 | 02:49:04 | 00:00:00 | |
| DF8AY | 2026-08-31 12:57:51 | 53.35733 | 11.15046 | 56° | 49km/h | 3653m | -11.2m/s | -4.4°C | 60.5% | 649.7hPa | 2.7V | 02:51:14 | 02:49:07 | 00:00:00 | |
| BIOWL1-15 | 2026-08-31 12:57:50 | 53.35706 | 11.14975 | 57° | 51km/h | 3700m | -11.1m/s | -4.7°C | 59.1% | 645.9hPa | 2.7V | 02:52:05 | 02:49:03 | 00:00:00 | |
| DO2SHX-10 | 2026-08-31 12:57:49 | 53.35727 | 11.15029 | 60° | 51km/h | 3664m | -12.6m/s | -4.5°C | 55.7% | 648.8hPa | 2.6V | 00:00:00 | 02:49:06 | 00:00:00 | |
| DM0DOS-11 | 2026-08-31 12:57:48 | 53.35685 | 11.14923 | 55° | 51km/h | 3733m | -12.2m/s | -4.9°C | 54.1% | 643.3hPa | 2.6V | 02:50:32 | 02:49:00 | 00:00:00 | |
| DL1XH-15 | 2026-08-31 12:57:47 | 53.35678 | 11.14905 | 59° | 53km/h | 3744m | -12.4m/s | -5°C | 53.5% | 642.2hPa | 2.6V | 02:50:33 | 02:48:59 | 00:00:00 | |
| AA1-15 | 2026-08-31 12:57:44 | 53.35692 | 11.14940 | 56° | 49km/h | 3721m | -12.3m/s | -4.9°C | 58.9% | 644.1hPa | 2.7V | 02:51:14 | 02:49:01 | 00:00:00 | |
| DL1XH-west | 2026-08-31 12:57:44 | 53.35685 | 11.14923 | 56° | 51km/h | 3733m | -12.2m/s | -4.9°C | 58.3% | 643.3hPa | 2.6V | 02:51:14 | 02:49:00 | 00:00:00 | |
| DO2SHX-10 | 2026-08-31 12:57:43 | 53.35685 | 11.14923 | 56° | 53km/h | 3733m | -12.2m/s | -4.9°C | 54.1% | 643.2hPa | 2.6V | 02:50:00 | 02:49:00 | 00:00:00 | |
| DL1XH-15 | 2026-08-31 12:57:42 | 53.35641 | 11.14810 | 56° | 55km/h | 3806m | -12.9m/s | -5.2°C | 57.2% | 637.6hPa | 2.6V | 02:50:38 | 02:48:54 | 00:00:00 | |
| DJ2DS-15 | 2026-08-31 12:57:41 | 53.35671 | 11.14886 | 59° | 53km/h | 3755m | -12.1m/s | -5.0°C | 51.3% | 641.3hPa | 2.7V | 00:00:00 | 00:00:00 | 00:00:00 | |
| DL1XH1-15 | 2026-08-31 12:57:40 | 53.35626 | 11.14770 | 52° | 55km/h | 3832m | -13.8m/s | -5.4°C | 57.9% | 635.6hPa | 2.7V | 02:50:40 | 02:48:52 | 00:00:00 | |
| BIOWL1-15 | 2026-08-31 12:57:40 | 53.35664 | 11.14867 | 58° | 55km/h | 3768m | -13.5m/s | -5°C | 58.1% | 640.3hPa | 2.7V | 02:52:05 | 02:48:57 | 00:00:00 | |
| DB0DAN | 2026-08-31 12:57:40 | 53.35664 | 11.14867 | 57° | 51km/h | 3768m | -13.5m/s | -5°C | 51.7% | 640.32hPa | 2.7V | 00:00:00 | 00:00:00 | 00:00:00 | |
| DF8AY | 2026-08-31 12:57:40 | 53.35657 | 11.14848 | 56° | 55km/h | 3781m | -13.2m/s | -5.1°C | 60% | 639.5hPa | 2.7V | 02:51:14 | 02:48:56 | 00:00:00 | |
| DO2SHX-10 | 2026-08-31 12:57:37 | 53.35641 | 11.14810 | 57° | 57km/h | 3806m | -12.9m/s | -5.2°C | 57.2% | 637.5hPa | 2.6V | 00:00:00 | 02:48:54 | 00:00:00 | |
| DL1XH1-15 | 2026-08-31 12:57:35 | 53.35586 | 11.14672 | 55° | 60km/h | 3895m | -11.4m/s | -5.7°C | 56.5% | 630.3hPa | 2.6V | 02:50:45 | 02:48:47 | 00:00:00 | |
| DL1XH-west | 2026-08-31 12:57:33 | 53.35610 | 11.14731 | 56° | 55km/h | 3860m | -13m/s | -5.7°C | 64.3% | 633.4hPa | 2.7V | 02:51:14 | 02:48:50 | 00:00:00 | |
| BIOWL9-15 | 2026-08-31 12:57:32 | 53.35602 | 11.14712 | 55° | 55km/h | 3872m | -12.3m/s | -5.8°C | 57.4% | 632.4hPa | 2.6V | 00:00:00 | 00:00:00 | 00:00:00 | |
| DO2SHX-10 | 2026-08-31 12:57:31 | 53.35594 | 11.14692 | 57° | 58km/h | 3884m | -11.5m/s | -5.7°C | 58.6% | 631.1hPa | 2.6V | 00:00:00 | 02:48:48 | 00:00:00 | |
| DL1XH1-15 | 2026-08-31 12:57:30 | 53.35542 | 11.14567 | 53° | 62km/h | 3950m | -10.8m/s | -5.8°C | 52.8% | 626hPa | 2.6V | 02:50:50 | 02:48:42 | 00:00:00 | |
| BIOWL1-15 | 2026-08-31 12:57:30 | 53.35533 | 11.14546 | 55° | 62km/h | 3961m | -10.5m/s | -5.9°C | 58.5% | 625.3hPa | 2.7V | 02:52:05 | 02:48:41 | 00:00:00 | |
| DF8AY | 2026-08-31 12:57:29 | 53.35577 | 11.14651 | 54° | 60km/h | 3906m | -11.7m/s | -5.7°C | 62.2% | 629.5hPa | 2.7V | 02:51:14 | 02:48:46 | 00:00:00 | |
| DO2SHX-10 | 2026-08-31 12:57:28 | 53.35568 | 11.14630 | 57° | 60km/h | 3918m | -10.9m/s | -5.8°C | 57.0% | 628.5hPa | 2.7V | 00:00:00 | 02:48:45 | 00:00:00 | |
| DL1XH-15 | 2026-08-31 12:57:27 | 53.35506 | 11.14480 | 55° | 64km/h | 3991m | -10.2m/s | -6.1°C | 51.7% | 622.8hPa | 2.7V | 02:50:54 | 02:48:38 | 00:00:00 | |
| DL1XH1-15 | 2026-08-31 12:57:25 | 53.35496 | 11.14458 | 53° | 64km/h | 4001m | -10.2m/s | -6.1°C | 51.1% | 621.9hPa | 2.6V | 02:50:55 | 02:48:37 | 00:00:00 | |
| DB0DAN | 2026-08-31 12:57:25 | 53.35542 | 11.14567 | 54° | 58km/h | 3950m | -10.8m/s | -5.8°C | 51.3% | 626.05hPa | 2.6V | 00:00:00 | 00:00:00 | 00:00:00 | |
| AA1-15 | 2026-08-31 12:57:23 | 53.35515 | 11.14502 | 54° | 64km/h | 3981m | -10.2m/s | -6°C | 57.6% | 623.6hPa | 2.7V | 02:51:14 | 02:48:39 | 00:00:00 | |
| DO2SHX-10 | 2026-08-31 12:57:22 | 53.35515 | 11.14502 | 55° | 64km/h | 3981m | -10.2m/s | -6.0°C | 52.1% | 623.5hPa | 2.7V | 00:00:00 | 02:48:39 | 00:00:00 | |
| DL1XH-15 | 2026-08-31 12:57:21 | 53.35458 | 11.14370 | 56° | 62km/h | 4042m | -9.8m/s | -6.5°C | 51.9% | 618.6hPa | 2.7V | 02:50:59 | 02:48:33 | 00:00:00 | |
| DL1XH1-15 | 2026-08-31 12:57:20 | 53.35450 | 11.14348 | 57° | 64km/h | 4051m | -10.3m/s | -6.6°C | 52% | 617.8hPa | 2.7V | 02:51:00 | 02:48:32 | 00:00:00 | |
| DF8AY | 2026-08-31 12:57:18 | 53.35477 | 11.14414 | 54° | 64km/h | 4022m | -10.3m/s | -6.3°C | 56.9% | 620.3hPa | 2.7V | 02:51:14 | 02:48:35 | 00:00:00 | |
| DL1XH-15 | 2026-08-31 12:57:16 | 53.35412 | 11.14259 | 54° | 62km/h | 4092m | -9.9m/s | -6.9°C | 52.7% | 614.7hPa | 2.7V | 02:51:04 | 02:48:28 | 00:00:00 | |
| BIOWL1-15 | 2026-08-31 12:57:16 | 53.35458 | 11.14370 | 57° | 62km/h | 4042m | -9.8m/s | -6.5°C | 57.4% | 618.6hPa | 2.7V | 02:52:05 | 02:48:33 | 00:00:00 | |
| DO2SHX-10 | 2026-08-31 12:57:16 | 53.35458 | 11.14370 | 57° | 64km/h | 4042m | -9.7m/s | -6.5°C | 51.9% | 618.6hPa | 2.7V | 02:50:00 | 02:48:33 | 00:00:00 | |
| DL1XH1-15 | 2026-08-31 12:57:15 | 53.35402 | 11.14238 | 53° | 64km/h | 4101m | -10.1m/s | -6.9°C | 50.7% | 613.9hPa | 2.7V | 02:51:05 | 02:48:27 | 00:00:00 | |
| DL1XH-west | 2026-08-31 12:57:11 | 53.35412 | 11.14259 | 54° | 62km/h | 4092m | -9.9m/s | -6.9°C | 58.1% | 614.7hPa | 2.7V | 02:51:14 | 02:48:28 | 00:00:00 | |
| DL1XH1-15 | 2026-08-31 12:57:10 | 53.35344 | 11.14108 | 55° | 62km/h | 4162m | -10.8m/s | -7.4°C | 50.3% | 609.2hPa | 2.7V | 02:51:11 | 02:48:21 | 00:00:00 | |
| DB0DAN | 2026-08-31 12:57:10 | 53.35402 | 11.14238 | 53° | 62km/h | 4101m | -10.1m/s | -6.9°C | 49.2% | 613.85hPa | 2.7V | 00:00:00 | 00:00:00 | 00:00:00 | |
| DF8AY | 2026-08-31 12:57:08 | 53.35383 | 11.14195 | 53° | 64km/h | 4122m | -10.5m/s | -7.1°C | 56.5% | 612.4hPa | 2.6V | 02:51:14 | 02:48:25 | 00:00:00 | |
| BIOWL1-15 | 2026-08-31 12:57:06 | 53.35363 | 11.14152 | 54° | 64km/h | 4141m | -10.5m/s | -7.3°C | 56% | 610.7hPa | 2.7V | 02:52:05 | 02:48:23 | 00:00:00 | |
| DM0DOS-11 | 2026-08-31 12:57:05 | 53.35301 | 11.14000 | 55° | 58km/h | 4211m | -8.9m/s | -7.8°C | 51% | 605.5hPa | 2.7V | 02:51:16 | 02:48:16 | 00:00:00 | |
| DL1XH-west | 2026-08-31 12:57:01 | 53.35318 | 11.14042 | 56° | 60km/h | 4192m | -9.7m/s | -7.6°C | 55.7% | 606.9hPa | 2.7V | 02:51:14 | 02:48:18 | 00:00:00 | |
| DF8AY | 2026-08-31 12:56:58 | 53.35293 | 11.13979 | 56° | 60km/h | 4219m | -8.8m/s | -7.8°C | 55.6% | 604.7hPa | 2.6V | 02:52:05 | 02:48:15 | 00:00:00 | |
| DO2SHX-10 | 2026-08-31 12:56:58 | 53.35292 | 11.13979 | 56° | 60km/h | 4219m | -8.8m/s | -7.8°C | 51.2% | 604.6hPa | 2.6V | 02:51:00 | 02:48:15 | 00:00:00 | |
| DB0DAN | 2026-08-31 12:56:55 | 53.35267 | 11.13915 | 59° | 58km/h | 4247m | -9.3m/s | -8°C | 50.3% | 602.61hPa | 2.7V | 00:00:00 | 00:00:00 | 00:00:00 | |
| DL1XH1-15 | 2026-08-31 12:56:54 | 53.35216 | 11.13785 | 55° | 62km/h | 4307m | -10.3m/s | -8.4°C | 46.6% | 598.2hPa | 2.7V | 02:51:26 | 02:48:06 | 00:00:00 | |
| DL1XH-west | 2026-08-31 12:56:50 | 53.35224 | 11.13806 | 56° | 60km/h | 4297m | -10.3m/s | -8.3°C | 53.2% | 598.9hPa | 2.7V | 02:52:05 | 02:48:07 | 00:00:00 | |
| DL1XH1-15 | 2026-08-31 12:56:49 | 53.35172 | 11.13680 | 55° | 60km/h | 4354m | -9.5m/s | -8.6°C | 47.1% | 594.4hPa | 2.7V | 02:51:31 | 02:48:01 | 00:00:00 | |
| DF8AY | 2026-08-31 12:56:47 | 53.35198 | 11.13743 | 55° | 60km/h | 4327m | -8.5m/s | -8.5°C | 50.3% | 596.5hPa | 2.6V | 02:52:05 | 02:48:04 | 00:00:00 | |
| DO2SHX-10 | 2026-08-31 12:56:46 | 53.35189 | 11.13722 | 56° | 60km/h | 4336m | -9.2m/s | -8.4°C | 46.4% | 595.8hPa | 2.7V | 00:00:00 | 02:48:03 | 00:00:00 | |
| DL1XH1-15 | 2026-08-31 12:56:44 | 53.35124 | 11.13551 | 59° | 60km/h | 4411m | -9.1m/s | -9.1°C | 48.7% | 590hPa | 2.7V | 02:51:37 | 02:47:55 | 00:00:00 | |
| DL1XH-west | 2026-08-31 12:56:40 | 53.35139 | 11.13595 | 60° | 60km/h | 4391m | -10.2m/s | -9°C | 53.5% | 591.5hPa | 2.6V | 02:52:05 | 02:47:57 | 00:00:00 | |
| AA1-15 | 2026-08-31 12:56:39 | 53.35124 | 11.13551 | 60° | 60km/h | 4411m | -9.1m/s | -9.1°C | 54% | 590hPa | 2.7V | 02:52:05 | 02:47:55 | 00:00:00 | |
| DL1XH1-15 | 2026-08-31 12:56:39 | 53.35083 | 11.13444 | 57° | 58km/h | 4461m | -9.6m/s | -9.6°C | 50.2% | 586.4hPa | 2.6V | 02:51:42 | 02:47:50 | 00:00:00 | |
| DF8AY | 2026-08-31 12:56:37 | 53.35116 | 11.13529 | 58° | 60km/h | 4420m | -9.4m/s | -9.2°C | 54.2% | 589.2hPa | 2.7V | 02:52:05 | 02:47:54 | 00:00:00 | |
| BIOWL1-15 | 2026-08-31 12:56:33 | 53.35075 | 11.13423 | 55° | 60km/h | 4470m | -8.6m/s | -9.7°C | 55.1% | 585.5hPa | 2.7V | 02:52:05 | 02:47:49 | 00:00:00 | |
| DL1XH1-15 | 2026-08-31 12:56:33 | 53.35043 | 11.13341 | 55° | 58km/h | 4506m | -9.2m/s | -9.9°C | 49.7% | 582.8hPa | 2.6V | 02:51:47 | 02:47:45 | 00:00:00 | |
| DM0DOS-11 | 2026-08-31 12:56:33 | 53.35035 | 11.13320 | 56° | 58km/h | 4515m | -9.9m/s | -10°C | 49% | 582.2hPa | 2.6V | 02:51:48 | 02:47:44 | 00:00:00 | |
| DL1XH-west | 2026-08-31 12:56:30 | 53.35059 | 11.13383 | 57° | 58km/h | 4488m | -9m/s | -9.7°C | 54.3% | 584.2hPa | 2.7V | 02:52:05 | 02:47:47 | 00:00:00 | |
| DJ2DS-15 | 2026-08-31 12:56:29 | 53.35051 | 11.13362 | 58° | 58km/h | 4497m | -8.9m/s | -9.8°C | 48.0% | 583.5hPa | 2.7V | 00:00:00 | 00:00:00 | 00:00:00 | |
| DL1XH1-15 | 2026-08-31 12:56:28 | 53.35002 | 11.13239 | 54° | 57km/h | 4552m | -8.7m/s | -10.2°C | 46.2% | 579.2hPa | 2.7V | 02:51:52 | 02:47:40 | 00:00:00 | |
| AA1-15 | 2026-08-31 12:56:27 | 53.35035 | 11.13320 | 57° | 58km/h | 4516m | -9.9m/s | -10°C | 53.6% | 582.2hPa | 2.6V | 02:52:05 | 02:47:44 | 00:00:00 | |
| DF8AY | 2026-08-31 12:56:27 | 53.35027 | 11.13300 | 57° | 58km/h | 4525m | -8.8m/s | -10°C | 53.2% | 581.4hPa | 2.7V | 02:52:05 | 02:47:43 | 00:00:00 | |
| DM0DOS-11 | 2026-08-31 12:56:27 | 53.34993 | 11.13219 | 53° | 57km/h | 4561m | -9.3m/s | -10.3°C | 46.4% | 578.5hPa | 2.6V | 02:51:53 | 02:47:39 | 00:00:00 | |
| BIOWL1-15 | 2026-08-31 12:56:25 | 53.34985 | 11.13200 | 55° | 57km/h | 4570m | -8.9m/s | -10.4°C | 51% | 578.1hPa | 2.6V | 02:52:05 | 02:47:38 | 00:00:00 | |
| DB0DAN | 2026-08-31 12:56:25 | 53.35018 | 11.13279 | 55° | 57km/h | 4534m | -9.1m/s | -10.1°C | 46.5% | 580.76hPa | 2.7V | 00:00:00 | 00:00:00 | 00:00:00 | |
| DO2SHX-10 | 2026-08-31 12:56:25 | 53.35018 | 11.13279 | 55° | 58km/h | 4534m | -9.1m/s | -10.1°C | 48.2% | 580.7hPa | 2.7V | 00:00:00 | 02:47:42 | 00:00:00 | |
| DF8AY-15 | 2026-08-31 12:56:24 | 53.35010 | 11.13259 | 57° | 57km/h | 4543m | -8.0m/s | -10.1°C | 47.2% | 580.0hPa | 2.7V | 00:00:00 | 02:47:41 | 00:00:00 | |
| AM1SDL-15 | 2026-08-31 12:56:23 | 53.35002 | 11.13239 | 55° | 57km/h | 4552m | -8.7m/s | -10.2°C | 46.2% | 579.2hPa | 2.7V | 02:51:00 | 02:47:40 | 00:00:00 | |
| DL1XH-15 | 2026-08-31 12:56:23 | 53.34959 | 11.13142 | 50° | 57km/h | 4597m | -8.9m/s | -10.7°C | 48.1% | 575.8hPa | 2.7V | 02:51:57 | 02:47:35 | 00:00:00 | |
| DM0DOS-11 | 2026-08-31 12:56:22 | 53.34950 | 11.13123 | 52° | 57km/h | 4606m | -9.4m/s | -10.8°C | 52.2% | 575.2hPa | 2.7V | 02:51:58 | 02:47:34 | 00:00:00 | |
| DL1XH-west | 2026-08-31 12:56:19 | 53.34968 | 11.13161 | 52° | 57km/h | 4588m | -9.2m/s | -10.6°C | 51.8% | 576.6hPa | 2.7V | 02:52:05 | 02:47:36 | 00:00:00 | |
| DO2SHX-10 | 2026-08-31 12:56:19 | 53.34968 | 11.13161 | 53° | 57km/h | 4588m | -9.1m/s | -10.6°C | 47.3% | 576.5hPa | 2.7V | 00:00:00 | 02:47:36 | 00:00:00 | |
| DM0DOS-11 | 2026-08-31 12:56:17 | 53.34905 | 11.13024 | 54° | 58km/h | 4653m | -8.7m/s | -11°C | 55.4% | 571.7hPa | 2.7V | 02:52:03 | 02:47:29 | 00:00:00 | |
| AA1-15 | 2026-08-31 12:56:16 | 53.34941 | 11.13104 | 52° | 58km/h | 4616m | -9.5m/s | -10.8°C | 61.1% | 574.5hPa | 2.7V | 02:52:05 | 02:47:33 | 00:00:00 | |
| DO2SHX-10 | 2026-08-31 12:56:16 | 53.34941 | 11.13104 | 52° | 60km/h | 4616m | -9.5m/s | -10.8°C | 56.9% | 574.4hPa | 2.7V | 00:00:00 | 02:47:33 | 00:00:00 | |
| DF8AY | 2026-08-31 12:56:16 | 53.34932 | 11.13084 | 53° | 58km/h | 4625m | -9.7m/s | -10.8°C | 61.4% | 573.7hPa | 2.6V | 02:52:05 | 02:47:32 | 00:00:00 | |
| DL1XH1-15 | 2026-08-31 12:56:13 | 53.34872 | 11.12947 | 53° | 55km/h | 4690m | -9.3m/s | -11.2°C | 56.7% | 569hPa | 2.7V | 02:52:07 | 02:47:25 | 00:00:00 | |
| DO2SHX-10 | 2026-08-31 12:56:13 | 53.34914 | 11.13044 | 55° | 58km/h | 4644m | -9.9m/s | -10.9°C | 55.5% | 572.3hPa | 2.7V | 02:52:00 | 02:47:30 | 00:00:00 | |
| DM0DOS-11 | 2026-08-31 12:56:12 | 53.34863 | 11.12929 | 49° | 57km/h | 4699m | -9.2m/s | -11.3°C | 57.4% | 568.2hPa | 2.7V | 02:52:08 | 02:47:24 | 00:00:00 | |
| DB0DAN | 2026-08-31 12:56:10 | 53.34889 | 11.12985 | 55° | 53km/h | 4671m | -9.2m/s | -11.1°C | 52.8% | 570.37hPa | 2.6V | 00:00:00 | 00:00:00 | 00:00:00 | |
| DO2SHX-10 | 2026-08-31 12:56:10 | 53.34888 | 11.12984 | 55° | 55km/h | 4671m | -9.2m/s | -11.0°C | 54.8% | 570.3hPa | 2.7V | 00:00:00 | 02:47:27 | 00:00:00 | |
| DL1XH-15 | 2026-08-31 12:56:08 | 53.34831 | 11.12856 | 54° | 53km/h | 4736m | -10m/s | -11.6°C | 57.9% | 565.6hPa | 2.7V | 02:52:12 | 02:47:20 | 00:00:00 | |
| DL1XH-west | 2026-08-31 12:56:08 | 53.34872 | 11.12947 | 53° | 55km/h | 4690m | -9.3m/s | -11.2°C | 60.9% | 569hPa | 2.7V | 02:52:56 | 02:47:25 | 00:00:00 | |
| AA1-15 | 2026-08-31 12:56:05 | 53.34847 | 11.12893 | 54° | 55km/h | 4718m | -8.8m/s | -11.4°C | 62.4% | 567hPa | 2.6V | 02:52:56 | 02:47:22 | 00:00:00 | |
| DF8AY | 2026-08-31 12:56:04 | 53.34839 | 11.12874 | 55° | 55km/h | 4727m | -9.2m/s | -11.5°C | 62.8% | 566.3hPa | 2.6V | 02:52:56 | 02:47:21 | 00:00:00 | |
| DF8AY-15 | 2026-08-31 12:56:04 | 53.34838 | 11.12874 | 56° | 55km/h | 4727m | -9.1m/s | -11.5°C | 58.3% | 566.3hPa | 2.6V | 02:52:00 | 02:47:21 | 00:00:00 | |
| DL1XH1-15 | 2026-08-31 12:56:03 | 53.34791 | 11.12761 | 55° | 57km/h | 4783m | -8.5m/s | -11.8°C | 46.7% | 562.1hPa | 2.7V | 02:52:17 | 02:47:15 | 00:00:00 | |
| SMARD9-15 | 2026-08-31 12:56:00 | 53.34807 | 11.12799 | 55° | 53km/h | 4766m | -9.7m/s | -11.6°C | 49.9% | 563.4hPa | 2.7V | 00:00:00 | 00:00:00 | 00:00:00 | |
| BIOWL9-15 | 2026-08-31 12:55:59 | 53.34791 | 11.12761 | 55° | 55km/h | 4783m | -8.5m/s | -11.8°C | 44.9% | 562.1hPa | 2.7V | 00:00:00 | 00:00:00 | 00:00:00 | |
| DL1XH1-15 | 2026-08-31 12:55:58 | 53.34753 | 11.12662 | 56° | 55km/h | 4827m | -8.2m/s | -12.1°C | 44.6% | 558.9hPa | 2.7V | 02:52:22 | 02:47:10 | 00:00:00 | |
| DL1XH-west | 2026-08-31 12:55:57 | 53.34783 | 11.12742 | 56° | 57km/h | 4792m | -8.1m/s | -11.8°C | 49.1% | 561.4hPa | 2.7V | 02:52:56 | 02:47:14 | 00:00:00 | |
| DM0DOS-11 | 2026-08-31 12:55:56 | 53.34738 | 11.12624 | 53° | 57km/h | 4844m | -8.6m/s | -12.3°C | 45.9% | 557.6hPa | 2.7V | 02:52:24 | 02:47:08 | 00:00:00 | |
| DB0DAN | 2026-08-31 12:55:55 | 53.34768 | 11.12702 | 57° | 53km/h | 4809m | -8.7m/s | -12°C | 40.5% | 560.21hPa | 2.6V | 00:00:00 | 00:00:00 | 00:00:00 | |
| AA1-15 | 2026-08-31 12:55:54 | 53.34760 | 11.12682 | 59° | 55km/h | 4818m | -8.8m/s | -12°C | 47.3% | 559.6hPa | 2.6V | 02:52:56 | 02:47:11 | 00:00:00 | |
| DF8AY | 2026-08-31 12:55:54 | 53.34753 | 11.12662 | 57° | 55km/h | 4827m | -8.3m/s | -12.1°C | 48.9% | 558.9hPa | 2.7V | 02:52:56 | 02:47:10 | 00:00:00 | |
| DL1XH1-15 | 2026-08-31 12:55:53 | 53.34714 | 11.12565 | 56° | 57km/h | 4871m | -9.6m/s | -12.5°C | 46.4% | 555.6hPa | 2.7V | 02:52:27 | 02:47:05 | 00:00:00 | |
| DJ2DS-15 | 2026-08-31 12:55:53 | 53.34753 | 11.12662 | 56° | 53km/h | 4827m | -8.3m/s | -12.1°C | 42.9% | 558.9hPa | 2.7V | 00:00:00 | 00:00:00 | 00:00:00 | |
| DO2SHX-10 | 2026-08-31 12:55:52 | 53.34746 | 11.12643 | 58° | 55km/h | 4835m | -8.7m/s | -12.1°C | 45.0% | 558.3hPa | 2.7V | 00:00:00 | 02:47:09 | 00:00:00 | |
| DM0DOS-11 | 2026-08-31 12:55:51 | 53.34698 | 11.12525 | 56° | 57km/h | 4890m | -10.3m/s | -12.6°C | 44.4% | 554.2hPa | 2.7V | 02:52:29 | 02:47:03 | 00:00:00 | |
| SONDE2-11 | 2026-08-31 12:55:51 | 53.34730 | 11.12604 | 57° | 53km/h | 4853m | -8.6m/s | -12.4°C | 44.2% | 557.0hPa | 2.6V | 00:00:00 | 00:00:00 | 00:00:00 | |
| S3001 | 2026-08-31 12:55:49 | 53.34714 | 11.12565 | 56° | 55km/h | 4871m | -9.6m/s | -12.5°C | 44.5% | 555.6hPa | 2.6V | 00:00:00 | 00:00:00 | 00:00:00 | |
| BIOWL1-15 | 2026-08-31 12:55:47 | 53.34653 | 11.12415 | 54° | 51km/h | 4944m | -9.3m/s | -13°C | 43.7% | 550.3hPa | 2.6V | 02:54:38 | 02:46:57 | 00:00:00 | |
| DL1XH-west | 2026-08-31 12:55:46 | 53.34698 | 11.12525 | 57° | 57km/h | 4891m | -10.3m/s | -12.6°C | 48.5% | 554.2hPa | 2.7V | 02:52:56 | 02:47:03 | 00:00:00 | |
| AA1-15 | 2026-08-31 12:55:43 | 53.34675 | 11.12468 | 56° | 53km/h | 4916m | -8.1m/s | -12.8°C | 46.8% | 552.2hPa | 2.7V | 02:52:56 | 02:47:00 | 00:00:00 | |
| DO2SHX-10 | 2026-08-31 12:55:43 | 53.34675 | 11.12468 | 57° | 51km/h | 4916m | -8.0m/s | -12.8°C | 42.9% | 552.2hPa | 2.7V | 00:00:00 | 02:47:00 | 00:00:00 | |
| AM1SDL-15 | 2026-08-31 12:55:42 | 53.34667 | 11.12450 | 56° | 51km/h | 4925m | -9.6m/s | -12.9°C | 42.1% | 551.6hPa | 2.7V | 02:52:00 | 02:46:59 | 00:00:00 | |
| DM0DOS-11 | 2026-08-31 12:55:41 | 53.34623 | 11.12344 | 54° | 51km/h | 4982m | -9.6m/s | -13.3°C | 41.5% | 547.6hPa | 2.7V | 02:52:39 | 02:46:53 | 00:00:00 | |
| DB0DAN | 2026-08-31 12:55:40 | 53.34653 | 11.12415 | 54° | 49km/h | 4944m | -9.3m/s | -13°C | 37.9% | 550.28hPa | 2.6V | 00:00:00 | 00:00:00 | 00:00:00 | |
| DO2SHX-10 | 2026-08-31 12:55:40 | 53.34653 | 11.12415 | 54° | 51km/h | 4944m | -9.3m/s | -13.0°C | 39.5% | 550.2hPa | 2.7V | 00:00:00 | 02:46:57 | 00:00:00 | |
| DO2SHX-10 | 2026-08-31 12:55:37 | 53.34630 | 11.12362 | 57° | 51km/h | 4973m | -9.7m/s | -13.2°C | 41.4% | 548.3hPa | 2.7V | 02:52:00 | 02:46:54 | 00:00:00 | |
| DM0DOS-11 | 2026-08-31 12:55:36 | 53.34587 | 11.12257 | 56° | 49km/h | 5032m | -8.6m/s | -13.7°C | 39.8% | 544.1hPa | 2.7V | 02:52:44 | 02:46:48 | 00:00:00 | |
| DL1XH-west | 2026-08-31 12:55:36 | 53.34623 | 11.12344 | 54° | 51km/h | 4982m | -9.6m/s | -13.3°C | 45.7% | 547.6hPa | 2.7V | 02:52:56 | 02:46:53 | 00:00:00 | |
| AA1-15 | 2026-08-31 12:55:33 | 53.34602 | 11.12291 | 55° | 51km/h | 5011m | -9.9m/s | -13.6°C | 44.8% | 545.5hPa | 2.6V | 02:52:56 | 02:46:50 | 00:00:00 | |
| BIOWL1-15 | 2026-08-31 12:55:30 | 53.34559 | 11.12187 | 58° | 51km/h | 5068m | -9.6m/s | -14°C | 45% | 541.5hPa | 2.6V | 02:54:38 | 02:46:44 | 00:00:00 | |
| SMARD9-15 | 2026-08-31 12:55:30 | 53.34574 | 11.12222 | 54° | 49km/h | 5051m | -9.0m/s | -13.9°C | 39.0% | 542.8hPa | 2.7V | 00:00:00 | 00:00:00 | 00:00:00 | |
| BIOWL9-15 | 2026-08-31 12:55:28 | 53.34559 | 11.12187 | 57° | 49km/h | 5068m | -9.6m/s | -14.0°C | 39.0% | 541.5hPa | 2.7V | 00:00:00 | 00:00:00 | 00:00:00 | |
| DM0DOS-11 | 2026-08-31 12:55:26 | 53.34515 | 11.12083 | 54° | 51km/h | 5126m | -9.5m/s | -14.5°C | 40.2% | 537.5hPa | 2.7V | 02:52:54 | 02:46:38 | 00:00:00 | |
| DL1XH-west | 2026-08-31 12:55:25 | 53.34545 | 11.12151 | 55° | 49km/h | 5089m | -8.8m/s | -14.2°C | 45.5% | 540hPa | 2.7V | 02:52:56 | 02:46:42 | 00:00:00 | |
| DB0DAN | 2026-08-31 12:55:25 | 53.34545 | 11.12151 | 55° | 47km/h | 5089m | -8.8m/s | -14.2°C | 39.8% | 540.03hPa | 2.7V | 00:00:00 | 00:00:00 | 00:00:00 | |
| DO2SHX-10 | 2026-08-31 12:55:25 | 53.34545 | 11.12151 | 55° | 49km/h | 5089m | -8.8m/s | -14.2°C | 41.6% | 540.0hPa | 2.6V | 00:00:00 | 02:46:42 | 00:00:00 | |
| DL1XH-15 | 2026-08-31 12:55:24 | 53.34530 | 11.12118 | 54° | 49km/h | 5107m | -9m/s | -14.3°C | 41.7% | 538.6hPa | 2.6V | 02:52:52 | 02:46:40 | 00:00:00 | |
| DF8AY | 2026-08-31 12:55:23 | 53.34530 | 11.12118 | 55° | 49km/h | 5107m | -9m/s | -14.3°C | 45.5% | 538.7hPa | 2.6V | 02:52:56 | 02:46:40 | 00:00:00 | |
| AA1-15 | 2026-08-31 12:55:23 | 53.34523 | 11.12100 | 54° | 51km/h | 5116m | -9.9m/s | -14.4°C | 44.6% | 538.1hPa | 2.6V | 02:52:56 | 02:46:39 | 00:00:00 | |
| BIOWL1-15 | 2026-08-31 12:55:19 | 53.34484 | 11.12008 | 55° | 55km/h | 5164m | -9.6m/s | -14.6°C | 44.7% | 534.7hPa | 2.6V | 02:54:38 | 02:46:34 | 00:00:00 | |
| DO2SHX-10 | 2026-08-31 12:55:19 | 53.34500 | 11.12046 | 55° | 55km/h | 5145m | -9.5m/s | -14.5°C | 41.2% | 536.1hPa | 2.7V | 02:52:00 | 02:46:36 | 00:00:00 | |
| DL1XH1-15 | 2026-08-31 12:55:18 | 53.34450 | 11.11931 | 52° | 55km/h | 5203m | -9.2m/s | -14.8°C | 43.3% | 532hPa | 2.7V | 02:53:02 | 02:46:30 | 00:00:00 | |
| DF8AY | 2026-08-31 12:55:18 | 53.34450 | 11.11931 | 53° | 55km/h | 5203m | -9.3m/s | -14.8°C | 47.1% | 532hPa | 2.7V | 02:53:47 | 02:46:30 | 00:00:00 | |
| DJ2DS-15 | 2026-08-31 12:55:17 | 53.34484 | 11.12008 | 54° | 55km/h | 5164m | -9.6m/s | -14.6°C | 39.0% | 534.7hPa | 2.7V | 00:00:00 | 00:00:00 | 00:00:00 | |
| DM0DOS-11 | 2026-08-31 12:55:16 | 53.34432 | 11.11893 | 50° | 57km/h | 5222m | -10.3m/s | -15°C | 43.2% | 530.7hPa | 2.7V | 02:53:04 | 02:46:28 | 00:00:00 | |
| DL1XH-west | 2026-08-31 12:55:14 | 53.34459 | 11.11950 | 53° | 58km/h | 5194m | -8.6m/s | -14.7°C | 46.9% | 532.6hPa | 2.7V | 02:53:47 | 02:46:31 | 00:00:00 | |
| AA1-15 | 2026-08-31 12:55:12 | 53.34432 | 11.11893 | 50° | 57km/h | 5222m | -10.3m/s | -15°C | 47.2% | 530.7hPa | 2.7V | 02:53:47 | 02:46:28 | 00:00:00 | |
| DB0DAN | 2026-08-31 12:55:10 | 53.34423 | 11.11874 | 50° | 55km/h | 5232m | -9.9m/s | -15.1°C | 41.1% | 529.85hPa | 2.6V | 00:00:00 | 00:00:00 | 00:00:00 | |
| BIOWL1-15 | 2026-08-31 12:55:07 | 53.34362 | 11.11754 | 51° | 62km/h | 5290m | -9.7m/s | -15.7°C | 61% | 525.9hPa | 2.6V | 02:54:38 | 02:46:21 | 00:00:00 | |
| DM0DOS-11 | 2026-08-31 12:55:06 | 53.34333 | 11.11691 | 54° | 64km/h | 5320m | -9m/s | -15.9°C | 63.4% | 523.7hPa | 2.6V | 02:53:14 | 02:46:18 | 00:00:00 | |
| DL1XH1-15 | 2026-08-31 12:55:04 | 53.34352 | 11.11733 | 52° | 62km/h | 5301m | -10.7m/s | -15.7°C | 59.6% | 525.1hPa | 2.6V | 02:53:12 | 02:46:20 | 00:00:00 | |
| DF8AY | 2026-08-31 12:55:03 | 53.34352 | 11.11733 | 52° | 62km/h | 5301m | -10.7m/s | -15.7°C | 62.1% | 525.1hPa | 2.6V | 02:53:47 | 02:46:20 | 00:00:00 | |
| AA1-15 | 2026-08-31 12:55:01 | 53.34333 | 11.11691 | 55° | 64km/h | 5320m | -9m/s | -15.9°C | 65.2% | 523.7hPa | 2.6V | 02:53:47 | 02:46:18 | 00:00:00 | |
| SMARD9-15 | 2026-08-31 12:54:59 | 53.34303 | 11.11626 | 52° | 64km/h | 5347m | -8.9m/s | -16.0°C | 71.5% | 521.7hPa | 2.7V | 00:00:00 | 00:00:00 | 00:00:00 | |
| DL1XH1-15 | 2026-08-31 12:54:58 | 53.34256 | 11.11518 | 53° | 64km/h | 5396m | -9m/s | -16.3°C | 70.8% | 518.4hPa | 2.7V | 02:53:22 | 02:46:10 | 00:00:00 | |
| BIOWL9-15 | 2026-08-31 12:54:57 | 53.34284 | 11.11582 | 53° | 62km/h | 5367m | -9.6m/s | -16.2°C | 70.8% | 520.3hPa | 2.7V | 00:00:00 | 00:00:00 | 00:00:00 | |
| DM0DOS-11 | 2026-08-31 12:54:56 | 53.34235 | 11.11475 | 53° | 66km/h | 5414m | -10.1m/s | -16.4°C | 69.2% | 517.2hPa | 2.7V | 02:53:24 | 02:46:08 | 00:00:00 | |
| DB0DAN | 2026-08-31 12:54:55 | 53.34274 | 11.11561 | 53° | 60km/h | 5376m | -9.4m/s | -16.2°C | 69.5% | 519.69hPa | 2.6V | 00:00:00 | 00:00:00 | 00:00:00 | |
| DF8AY | 2026-08-31 12:54:53 | 53.34256 | 11.11518 | 53° | 64km/h | 5396m | -9m/s | -16.3°C | 71.3% | 518.4hPa | 2.7V | 02:53:47 | 02:46:10 | 00:00:00 | |
| DL1XH-west | 2026-08-31 12:54:52 | 53.34246 | 11.11497 | 50° | 66km/h | 5405m | -9m/s | -16.4°C | 70.7% | 517.7hPa | 2.7V | 02:53:47 | 02:46:09 | 00:00:00 | |
| AA1-15 | 2026-08-31 12:54:51 | 53.34235 | 11.11475 | 54° | 66km/h | 5414m | -10.1m/s | -16.4°C | 70% | 517.2hPa | 2.7V | 02:53:47 | 02:46:08 | 00:00:00 | |
| SONDE2-11 | 2026-08-31 12:54:48 | 53.34205 | 11.11406 | 56° | 68km/h | 5443m | -9.6m/s | -16.6°C | 64.7% | 515.1hPa | 2.6V | 00:00:00 | 00:00:00 | 00:00:00 | |
| EDDB2-12 | 2026-08-31 12:54:47 | 53.34196 | 11.11382 | 57° | 66km/h | 5453m | -8.8m/s | -16.7°C | 65.8% | 514.4hPa | 2.6V | 00:00:00 | 00:00:00 | 00:00:00 | |
| DM0DOS-11 | 2026-08-31 12:54:46 | 53.34144 | 11.11239 | 61° | 66km/h | 5509m | -9.5m/s | -17.1°C | 69.1% | 510.6hPa | 2.6V | 02:53:34 | 02:45:58 | 00:00:00 | |
| DO2SHX-10 | 2026-08-31 12:54:46 | 53.34186 | 11.11358 | 58° | 66km/h | 5462m | -9.7m/s | -16.7°C | 68.5% | 513.8hPa | 2.6V | 00:00:00 | 02:46:03 | 00:00:00 | |
| DL1XH1-15 | 2026-08-31 12:54:44 | 53.34160 | 11.11286 | 60° | 66km/h | 5490m | -9.3m/s | -16.9°C | 68.8% | 511.8hPa | 2.6V | 02:53:32 | 02:46:00 | 00:00:00 | |
| BIOWL1-15 | 2026-08-31 12:54:43 | 53.34105 | 11.11120 | 61° | 62km/h | 5554m | -9.6m/s | -17.2°C | 62.3% | 507.5hPa | 2.7V | 02:54:38 | 02:45:53 | 00:00:00 | |
| DF8AY | 2026-08-31 12:54:42 | 53.34152 | 11.11262 | 60° | 64km/h | 5499m | -9.8m/s | -17°C | 69.7% | 511.3hPa | 2.6V | 02:53:47 | 02:45:59 | 00:00:00 | |
| AA1-15 | 2026-08-31 12:54:41 | 53.34144 | 11.11239 | 61° | 66km/h | 5509m | -9.5m/s | -17.1°C | 69.7% | 510.6hPa | 2.6V | 02:53:47 | 02:45:58 | 00:00:00 | |
| DB0DAN | 2026-08-31 12:54:40 | 53.34136 | 11.11215 | 60° | 60km/h | 5517m | -8.7m/s | -17.2°C | 66.1% | 509.97hPa | 2.6V | 00:00:00 | 00:00:00 | 00:00:00 | |
| DO2SHX-10 | 2026-08-31 12:54:40 | 53.34136 | 11.11215 | 61° | 64km/h | 5517m | -8.6m/s | -17.1°C | 69.1% | 509.9hPa | 2.6V | 00:00:00 | 02:45:57 | 00:00:00 | |
| DL1XH-15 | 2026-08-31 12:54:37 | 53.34083 | 11.11049 | 65° | 64km/h | 5581m | -9.6m/s | -17.1°C | 54.8% | 505.6hPa | 2.6V | 02:53:42 | 02:45:50 | 00:00:00 | |
| DO2SHX-10 | 2026-08-31 12:54:37 | 53.34112 | 11.11143 | 62° | 64km/h | 5544m | -9.5m/s | -17.2°C | 63.3% | 508.1hPa | 2.7V | 00:00:00 | 02:45:54 | 00:00:00 | |
| DM0DOS-11 | 2026-08-31 12:54:36 | 53.34069 | 11.11000 | 65° | 64km/h | 5600m | -9.2m/s | -17.2°C | 53.7% | 504.3hPa | 2.7V | 02:53:44 | 02:45:48 | 00:00:00 | |
| DL1XH-west | 2026-08-31 12:54:32 | 53.34076 | 11.11025 | 66° | 64km/h | 5591m | -9.2m/s | -17.2°C | 57.2% | 504.9hPa | 2.7V | 02:53:47 | 02:45:49 | 00:00:00 | |
| DF8AY | 2026-08-31 12:54:31 | 53.34069 | 11.11000 | 66° | 64km/h | 5600m | -9.2m/s | -17.2°C | 56.3% | 504.3hPa | 2.7V | 02:53:47 | 02:45:48 | 00:00:00 | |
| AA1-15 | 2026-08-31 12:54:31 | 53.34063 | 11.10976 | 67° | 62km/h | 5609m | -9.2m/s | -17.3°C | 55.9% | 503.8hPa | 2.7V | 02:53:47 | 02:45:47 | 00:00:00 | |
| BIOWL1-15 | 2026-08-31 12:54:30 | 53.34057 | 11.10952 | 69° | 60km/h | 5618m | -9.4m/s | -17.3°C | 55% | 503.2hPa | 2.6V | 02:54:38 | 02:45:46 | 00:00:00 | |
| SMARD9-15 | 2026-08-31 12:54:28 | 53.34046 | 11.10905 | 68° | 58km/h | 5636m | -9.0m/s | -17.4°C | 48.7% | 501.9hPa | 2.7V | 00:00:00 | 00:00:00 | 00:00:00 | |
| DM0DOS-11 | 2026-08-31 12:54:26 | 53.34011 | 11.10766 | 66° | 62km/h | 5687m | -8.7m/s | -17.8°C | 51% | 498.4hPa | 2.7V | 02:53:54 | 02:45:38 | 00:00:00 | |
| DB0DAN | 2026-08-31 12:54:25 | 53.34035 | 11.10858 | 69° | 57km/h | 5653m | -9.2m/s | -17.5°C | 48.1% | 500.71hPa | 2.6V | 00:00:00 | 00:00:00 | 00:00:00 | |
| DL1XH1-15 | 2026-08-31 12:54:24 | 53.34023 | 11.10812 | 65° | 58km/h | 5670m | -8.3m/s | -17.6°C | 50.7% | 499.6hPa | 2.6V | 02:53:52 | 02:45:40 | 00:00:00 | |
| DL1XH-west | 2026-08-31 12:54:22 | 53.34011 | 11.10766 | 66° | 62km/h | 5687m | -8.7m/s | -17.8°C | 53.6% | 498.4hPa | 2.7V | 02:54:38 | 02:45:38 | 00:00:00 | |
| DF8AY | 2026-08-31 12:54:20 | 53.33966 | 11.10592 | 68° | 64km/h | 5750m | -9.8m/s | -18.3°C | 54.2% | 494.4hPa | 2.7V | 02:54:38 | 02:45:31 | 00:00:00 | |
| AA1-15 | 2026-08-31 12:54:20 | 53.34005 | 11.10742 | 67° | 64km/h | 5695m | -9.4m/s | -17.9°C | 53.5% | 497.8hPa | 2.7V | 02:54:38 | 02:45:37 | 00:00:00 | |
| BIOWL1-15 | 2026-08-31 12:54:19 | 53.33998 | 11.10717 | 66° | 64km/h | 5705m | -9.6m/s | -17.9°C | 53.6% | 497.3hPa | 2.7V | 02:54:38 | 02:45:36 | 00:00:00 | |
| DO2SHX-10 | 2026-08-31 12:54:19 | 53.33998 | 11.10717 | 66° | 64km/h | 5705m | -9.6m/s | -17.9°C | 51.2% | 497.2hPa | 2.7V | 00:00:00 | 02:45:36 | 00:00:00 | |
| DL1XH-15 | 2026-08-31 12:54:17 | 53.33960 | 11.10567 | 68° | 64km/h | 5760m | -9.7m/s | -18.4°C | 51.7% | 493.8hPa | 2.7V | 02:54:02 | 02:45:30 | 00:00:00 | |
| DM0DOS-11 | 2026-08-31 12:54:16 | 53.33947 | 11.10518 | 68° | 62km/h | 5778m | -8.9m/s | -18.5°C | 51.2% | 492.6hPa | 2.6V | 02:54:04 | 02:45:28 | 00:00:00 | |
| DF8AY | 2026-08-31 12:54:10 | 53.33942 | 11.10493 | 72° | 64km/h | 5787m | -8.8m/s | -18.6°C | 53.1% | 492hPa | 2.6V | 02:54:38 | 02:45:27 | 00:00:00 | |
| DB0DAN | 2026-08-31 12:54:10 | 53.33942 | 11.10493 | 72° | 60km/h | 5787m | -8.8m/s | -18.6°C | 48% | 491.99hPa | 2.6V | 00:00:00 | 00:00:00 | 00:00:00 | |
| BIOWL1-15 | 2026-08-31 12:54:09 | 53.33937 | 11.10467 | 73° | 62km/h | 5796m | -9.6m/s | -18.7°C | 52.2% | 491.5hPa | 2.7V | 02:54:38 | 02:45:26 | 00:00:00 | |
| DK1YY | 2026-08-31 12:54:08 | 53.33928 | 11.10418 | 70° | 58km/h | 5818m | -10.5m/s | -18.8°C | 44.9% | 490.2hPa | 2.7V | 00:00:00 | 00:00:00 | 00:00:00 | |
| DO2SHX-10 | 2026-08-31 12:54:07 | 53.33927 | 11.10418 | 71° | 60km/h | 5818m | -10.5m/s | -18.8°C | 47.3% | 490.2hPa | 2.7V | 02:54:00 | 02:45:24 | 00:00:00 | |
| DM0DOS-11 | 2026-08-31 12:54:06 | 53.33896 | 11.10278 | 69° | 60km/h | 5876m | -10.4m/s | -19.3°C | 45.8% | 486.3hPa | 2.6V | 02:54:14 | 02:45:18 | 00:00:00 | |
| DJ2DS-15 | 2026-08-31 12:54:05 | 53.33917 | 11.10371 | 69° | 58km/h | 5837m | -10.2m/s | -18.9°C | 43.1% | 488.9hPa | 2.7V | 00:00:00 | 00:00:00 | 00:00:00 | |
| DL1XH1-15 | 2026-08-31 12:54:04 | 53.33907 | 11.10325 | 70° | 58km/h | 5857m | -10.3m/s | -19.1°C | 45.2% | 487.6hPa | 2.7V | 02:54:12 | 02:45:20 | 00:00:00 | |
| DL1XH-west | 2026-08-31 12:54:00 | 53.33891 | 11.10254 | 71° | 60km/h | 5886m | -8.9m/s | -19.4°C | 48.9% | 485.7hPa | 2.6V | 02:54:38 | 02:45:17 | 00:00:00 | |
| AA1-15 | 2026-08-31 12:53:59 | 53.33856 | 11.10083 | 71° | 62km/h | 5946m | -7.9m/s | -19.8°C | 41.6% | 481.6hPa | 2.6V | 02:54:38 | 02:45:10 | 00:00:00 | |
| DO2SHX-10 | 2026-08-31 12:53:58 | 53.33881 | 11.10206 | 72° | 60km/h | 5905m | -8.7m/s | -19.5°C | 44.9% | 484.4hPa | 2.7V | 02:54:00 | 02:45:15 | 00:00:00 | |
| DL1XH-15 | 2026-08-31 12:53:57 | 53.33856 | 11.10083 | 71° | 62km/h | 5946m | -7.9m/s | -19.8°C | 38.6% | 481.6hPa | 2.6V | 02:54:22 | 02:45:10 | 00:00:00 | |
| DM0DOS-11 | 2026-08-31 12:53:56 | 53.33847 | 11.10033 | 72° | 62km/h | 5962m | -7.6m/s | -20°C | 38.3% | 480.7hPa | 2.7V | 02:54:24 | 02:45:08 | 00:00:00 | |
| DB0DAN | 2026-08-31 12:53:55 | 53.33866 | 11.10133 | 71° | 58km/h | 5930m | -7.9m/s | -19.7°C | 37.2% | 482.77hPa | 2.6V | 00:00:00 | 00:00:00 | 00:00:00 | |
| DF8AY | 2026-08-31 12:53:49 | 53.33837 | 11.09982 | 74° | 64km/h | 5978m | -8.3m/s | -20.1°C | 41.3% | 479.6hPa | 2.6V | 02:54:38 | 02:45:06 | 00:00:00 | |
| SONDE2-11 | 2026-08-31 12:53:46 | 53.33825 | 11.09904 | 75° | 62km/h | 6001m | -6.9m/s | -20.3°C | 34.5% | 478.0hPa | 2.6V | 00:00:00 | 00:00:00 | 00:00:00 | |
| EDDB2-12 | 2026-08-31 12:53:45 | 53.33821 | 11.09878 | 76° | 64km/h | 6009m | -8.3m/s | -20.4°C | 32.7% | 477.5hPa | 2.6V | 00:00:00 | 00:00:00 | 00:00:00 | |
| DL1XH1-15 | 2026-08-31 12:53:44 | 53.33813 | 11.09826 | 75° | 64km/h | 6025m | -8.2m/s | -20.5°C | 33.5% | 476.4hPa | 2.6V | 02:54:32 | 02:45:00 | 00:00:00 | |
| AA1-15 | 2026-08-31 12:53:43 | 53.33813 | 11.09826 | 75° | 64km/h | 6026m | -8.2m/s | -20.5°C | 36.9% | 476.4hPa | 2.6V | 02:54:38 | 02:45:00 | 00:00:00 | |
| DO2SHX-10 | 2026-08-31 12:53:43 | 53.33813 | 11.09826 | 76° | 64km/h | 6026m | -8.1m/s | -20.4°C | 33.5% | 476.3hPa | 2.7V | 00:00:00 | 02:45:00 | 00:00:00 | |
| DM0DOS-11 | 2026-08-31 12:53:42 | 53.33804 | 11.09774 | 74° | 64km/h | 6043m | -8.5m/s | -20.6°C | 33.1% | 475.2hPa | 2.7V | 02:54:34 | 02:44:58 | 00:00:00 | |
| DB0DAN | 2026-08-31 12:53:40 | 53.33800 | 11.09747 | 75° | 62km/h | 6052m | -9.9m/s | -20.7°C | 31% | 474.69hPa | 2.7V | 00:00:00 | 00:00:00 | 00:00:00 | |
| DF8AY | 2026-08-31 12:53:39 | 53.33795 | 11.09721 | 74° | 66km/h | 6061m | -8.8m/s | -20.8°C | 36.6% | 474.1hPa | 2.7V | 02:54:38 | 02:44:56 | 00:00:00 | |
| BIOWL1-15 | 2026-08-31 12:53:38 | 53.33791 | 11.09694 | 74° | 66km/h | 6070m | -9.3m/s | -20.9°C | 37.3% | 473.6hPa | 2.6V | 02:54:38 | 02:44:55 | 00:00:00 | |
| DL1XH-15 | 2026-08-31 12:53:37 | 53.33771 | 11.09560 | 76° | 66km/h | 6113m | -7.7m/s | -21.3°C | 36.3% | 470.7hPa | 2.6V | 02:54:42 | 02:44:50 | 00:00:00 | |
| AA1-15 | 2026-08-31 12:53:33 | 53.33771 | 11.09560 | 76° | 66km/h | 6113m | -7.7m/s | -21.3°C | 39.8% | 470.7hPa | 2.6V | 02:55:29 | 02:44:50 | 00:00:00 | |
| DL1XH-west | 2026-08-31 12:53:28 | 53.33750 | 11.09424 | 75° | 66km/h | 6156m | -8.6m/s | -21.7°C | 40.6% | 468hPa | 2.6V | 02:55:29 | 02:44:45 | 00:00:00 | |
| DO2SHX-10 | 2026-08-31 12:53:28 | 53.33750 | 11.09424 | 76° | 68km/h | 6156m | -8.5m/s | -21.6°C | 37.9% | 468.0hPa | 2.7V | 00:00:00 | 02:44:45 | 00:00:00 | |
| DB0DAN | 2026-08-31 12:53:25 | 53.33737 | 11.09342 | 74° | 64km/h | 6181m | -8m/s | -22°C | 36.9% | 466.38hPa | 2.7V | 00:00:00 | 00:00:00 | 00:00:00 | |
| AA1-15 | 2026-08-31 12:53:23 | 53.33717 | 11.09234 | 73° | 68km/h | 6215m | -8.7m/s | -22.2°C | 43% | 464.2hPa | 2.7V | 02:55:29 | 02:44:38 | 00:00:00 | |
| DL1XH-west | 2026-08-31 12:53:18 | 53.33702 | 11.09152 | 73° | 69km/h | 6239m | -8.1m/s | -22.5°C | 44.6% | 462.7hPa | 2.6V | 02:55:29 | 02:44:35 | 00:00:00 | |
| BIOWL1-15 | 2026-08-31 12:53:17 | 53.33686 | 11.09067 | 72° | 69km/h | 6266m | -10m/s | -22.7°C | 45.4% | 461.2hPa | 2.7V | 02:55:29 | 02:44:32 | 00:00:00 | |
| DO2SHX-10 | 2026-08-31 12:53:16 | 53.33692 | 11.09095 | 73° | 69km/h | 6257m | -8.1m/s | -22.6°C | 41.9% | 461.6hPa | 2.7V | 00:00:00 | 02:44:33 | 00:00:00 | |
| SONDE2-11 | 2026-08-31 12:53:15 | 53.33686 | 11.09067 | 71° | 68km/h | 6265m | -10.0m/s | -22.7°C | 39.2% | 461.2hPa | 2.7V | 00:00:00 | 00:00:00 | 00:00:00 | |
| DM0DOS-11 | 2026-08-31 12:53:14 | 53.33665 | 11.08957 | 72° | 68km/h | 6302m | -10.2m/s | -23°C | 42.2% | 458.9hPa | 2.7V | 02:55:04 | 02:44:28 | 00:00:00 | |
| AA1-15 | 2026-08-31 12:53:13 | 53.33665 | 11.08957 | 73° | 68km/h | 6302m | -10.2m/s | -23°C | 46% | 459hPa | 2.7V | 02:55:29 | 02:44:28 | 00:00:00 | |
| DD8BA-10 | 2026-08-31 12:53:12 | 53.33670 | 11.08985 | 74° | 69km/h | 6293m | -8.3m/s | -22.9°C | 42.4% | 459.4hPa | 2.6V | 02:55:00 | 00:00:00 | 00:00:00 | |
| DB0DAN | 2026-08-31 12:53:10 | 53.33660 | 11.08930 | 72° | 66km/h | 6312m | -9.5m/s | -23°C | 39.3% | 458.24hPa | 2.7V | 00:00:00 | 00:00:00 | 00:00:00 | |
| DL1XH-west | 2026-08-31 12:53:08 | 53.33649 | 11.08874 | 70° | 71km/h | 6331m | -9.5m/s | -23.3°C | 45.7% | 457.2hPa | 2.6V | 02:55:29 | 02:44:25 | 00:00:00 | |
| DF8AY | 2026-08-31 12:53:07 | 53.33642 | 11.08846 | 69° | 71km/h | 6340m | -7.7m/s | -23.3°C | 45.8% | 456.6hPa | 2.6V | 02:55:29 | 02:44:24 | 00:00:00 | |
| DL1XH-15 | 2026-08-31 12:53:07 | 53.33617 | 11.08734 | 69° | 69km/h | 6372m | -7.9m/s | -23.6°C | 43.5% | 454.5hPa | 2.6V | 02:55:12 | 02:44:20 | 00:00:00 | |
| BIOWL1-15 | 2026-08-31 12:53:05 | 53.33630 | 11.08790 | 69° | 71km/h | 6356m | -7.6m/s | -23.5°C | 46.4% | 455.6hPa | 2.7V | 02:55:29 | 02:44:22 | 00:00:00 | |
| DO2SHX-10 | 2026-08-31 12:53:04 | 53.33623 | 11.08762 | 70° | 71km/h | 6364m | -8.8m/s | -23.5°C | 43.3% | 455.0hPa | 2.6V | 02:55:00 | 02:44:21 | 00:00:00 | |
| DM0DOS-11 | 2026-08-31 12:53:03 | 53.33604 | 11.08679 | 70° | 69km/h | 6388m | -8.7m/s | -23.8°C | 43.9% | 453.5hPa | 2.7V | 02:55:14 | 02:44:18 | 00:00:00 | |
| AA1-15 | 2026-08-31 12:53:03 | 53.33604 | 11.08679 | 70° | 69km/h | 6388m | -8.7m/s | -23.8°C | 47.4% | 453.5hPa | 2.7V | 02:55:29 | 02:44:18 | 00:00:00 | |
| DL1XH-west | 2026-08-31 12:52:57 | 53.33582 | 11.08567 | 72° | 69km/h | 6424m | -8.4m/s | -24.1°C | 48.5% | 451.2hPa | 2.6V | 02:55:29 | 02:44:14 | 00:00:00 | |
| DF8AY | 2026-08-31 12:52:56 | 53.33576 | 11.08539 | 72° | 71km/h | 6433m | -9.6m/s | -24.2°C | 48.9% | 450.7hPa | 2.7V | 02:55:29 | 02:44:13 | 00:00:00 | |
| DB0DAN | 2026-08-31 12:52:55 | 53.33570 | 11.08510 | 72° | 69km/h | 6442m | -9.1m/s | -24.3°C | 42.7% | 450.21hPa | 2.7V | 00:00:00 | 00:00:00 | 00:00:00 | |
| BIOWL1-15 | 2026-08-31 12:52:55 | 53.33565 | 11.08480 | 73° | 75km/h | 6451m | -8.7m/s | -24.4°C | 49.6% | 449.6hPa | 2.6V | 02:55:29 | 02:44:11 | 00:00:00 | |
| DL1XH1-15 | 2026-08-31 12:52:54 | 53.33559 | 11.08451 | 71° | 73km/h | 6460m | -8.9m/s | -24.5°C | 46.3% | 449hPa | 2.6V | 02:55:22 | 02:44:10 | 00:00:00 | |
| AA1-15 | 2026-08-31 12:52:52 | 53.33533 | 11.08334 | 68° | 75km/h | 6499m | -9.7m/s | -24.9°C | 51.2% | 446.6hPa | 2.7V | 02:55:29 | 02:44:06 | 00:00:00 | |
| DO2SHX-10 | 2026-08-31 12:52:52 | 53.33553 | 11.08422 | 70° | 73km/h | 6469m | -9.7m/s | -24.5°C | 46.1% | 448.4hPa | 2.6V | 00:00:00 | 02:44:09 | 00:00:00 | |
| DO2SHX-10 | 2026-08-31 12:52:50 | 53.33533 | 11.08334 | 69° | 73km/h | 6499m | -9.7m/s | -24.8°C | 47.4% | 446.5hPa | 2.6V | 00:00:00 | 02:44:06 | 00:00:00 | |
| DL1XH-15 | 2026-08-31 12:52:46 | 53.33494 | 11.08161 | 70° | 73km/h | 6559m | -9.4m/s | -25.5°C | 49.6% | 442.9hPa | 2.6V | 02:55:32 | 02:44:00 | 00:00:00 | |
| DL1XH-west | 2026-08-31 12:52:46 | 53.33514 | 11.08247 | 70° | 73km/h | 6530m | -10.7m/s | -25.2°C | 51.5% | 444.8hPa | 2.6V | 02:55:29 | 02:44:03 | 00:00:00 | |
| DF8AY | 2026-08-31 12:52:45 | 53.33476 | 11.08073 | 71° | 73km/h | 6588m | -11m/s | -25.7°C | 52.8% | 441.3hPa | 2.6V | 02:56:20 | 02:43:57 | 00:00:00 | |
| SONDE2-11 | 2026-08-31 12:52:44 | 53.33501 | 11.08190 | 70° | 71km/h | 6549m | -9.7m/s | -25.4°C | 46.1% | 443.5hPa | 2.7V | 00:00:00 | 00:00:00 | 00:00:00 | |
| BIOWL1-15 | 2026-08-31 12:52:43 | 53.33482 | 11.08102 | 71° | 73km/h | 6578m | -9.5m/s | -25.7°C | 52.9% | 441.8hPa | 2.7V | 02:56:20 | 02:43:58 | 00:00:00 | |
| EDDB2-12 | 2026-08-31 12:52:43 | 53.33488 | 11.08131 | 71° | 73km/h | 6568m | -9.6m/s | -25.6°C | 46.4% | 442.4hPa | 2.6V | 00:00:00 | 00:00:00 | 00:00:00 | |
| DD8BA-10 | 2026-08-31 12:52:42 | 53.33488 | 11.08131 | 72° | 73km/h | 6568m | -9.5m/s | -25.5°C | 49.5% | 442.4hPa | 2.6V | 02:55:00 | 00:00:00 | 00:00:00 | |
| DB0DAN | 2026-08-31 12:52:40 | 53.33476 | 11.08073 | 71° | 69km/h | 6588m | -11m/s | -25.7°C | 46.5% | 441.31hPa | 2.6V | 00:00:00 | 00:00:00 | 00:00:00 | |
| AA1-15 | 2026-08-31 12:52:40 | 53.33470 | 11.08044 | 71° | 73km/h | 6597m | -8.5m/s | -25.8°C | 53.1% | 440.6hPa | 2.6V | 02:56:20 | 02:43:56 | 00:00:00 | |
| DF8AY | 2026-08-31 12:52:35 | 53.33446 | 11.07929 | 71° | 73km/h | 6633m | -9.5m/s | -26.2°C | 54% | 438.4hPa | 2.7V | 02:56:20 | 02:43:52 | 00:00:00 | |
| BIOWL1-15 | 2026-08-31 12:52:31 | 53.33416 | 11.07788 | 68° | 71km/h | 6677m | -9.2m/s | -26.6°C | 56% | 435.7hPa | 2.6V | 02:56:20 | 02:43:47 | 00:00:00 | |
| AA1-15 | 2026-08-31 12:52:29 | 53.33409 | 11.07760 | 69° | 71km/h | 6686m | -9.3m/s | -26.7°C | 56.5% | 435.2hPa | 2.6V | 02:56:20 | 02:43:46 | 00:00:00 | |
| AM1SDL-15 | 2026-08-31 12:52:29 | 53.33409 | 11.07760 | 70° | 73km/h | 6686m | -9.2m/s | -26.6°C | 53.9% | 435.1hPa | 2.6V | 02:55:00 | 02:43:46 | 00:00:00 | |
| DO2SHX-10 | 2026-08-31 12:52:28 | 53.33403 | 11.07732 | 71° | 69km/h | 6695m | -9.9m/s | -26.7°C | 54.2% | 434.6hPa | 2.6V | 02:55:00 | 02:43:45 | 00:00:00 | |
| DM0DOS-11 | 2026-08-31 12:52:27 | 53.33350 | 11.07509 | 65° | 73km/h | 6771m | -10.2m/s | -27.5°C | 51.4% | 430hPa | 2.6V | 02:55:55 | 02:43:37 | 00:00:00 | |
| DL1XH-west | 2026-08-31 12:52:25 | 53.33385 | 11.07648 | 69° | 71km/h | 6723m | -10m/s | -27.1°C | 57.7% | 432.9hPa | 2.7V | 02:56:20 | 02:43:42 | 00:00:00 | |
| DB0DAN | 2026-08-31 12:52:25 | 53.33385 | 11.07648 | 69° | 68km/h | 6723m | -10m/s | -27.1°C | 51% | 432.92hPa | 2.7V | 00:00:00 | 00:00:00 | 00:00:00 | |
| DF8AY | 2026-08-31 12:52:24 | 53.33378 | 11.07621 | 69° | 71km/h | 6733m | -10.8m/s | -27.2°C | 57.9% | 432.5hPa | 2.7V | 02:56:20 | 02:43:41 | 00:00:00 | |
| DL1XH-15 | 2026-08-31 12:52:24 | 53.33372 | 11.07593 | 66° | 71km/h | 6743m | -9m/s | -27.2°C | 54.5% | 431.7hPa | 2.7V | 02:55:52 | 02:43:40 | 00:00:00 | |
| AA1-15 | 2026-08-31 12:52:18 | 53.33325 | 11.07426 | 62° | 73km/h | 6799m | -10m/s | -27.6°C | 44.1% | 428.3hPa | 2.7V | 02:56:20 | 02:43:34 | 00:00:00 | |
| DJ2DS-15 | 2026-08-31 12:52:18 | 53.33317 | 11.07398 | 62° | 73km/h | 6809m | -9.3m/s | -27.5°C | 32.2% | 427.9hPa | 2.6V | 00:00:00 | 00:00:00 | 00:00:00 | |
| DO2SHX-10 | 2026-08-31 12:52:17 | 53.33317 | 11.07398 | 63° | 75km/h | 6809m | -9.3m/s | -27.5°C | 34.8% | 427.9hPa | 2.6V | 00:00:00 | 02:43:33 | 00:00:00 | |
| DM0DOS-11 | 2026-08-31 12:52:15 | 53.33270 | 11.07263 | 59° | 75km/h | 6860m | -10m/s | -28°C | 32.4% | 424.7hPa | 2.6V | 02:56:04 | 02:43:28 | 00:00:00 | |
| DL1XH-west | 2026-08-31 12:52:15 | 53.33308 | 11.07370 | 61° | 75km/h | 6819m | -11.6m/s | -27.6°C | 37.6% | 427.2hPa | 2.6V | 02:56:20 | 02:43:32 | 00:00:00 | |
| DL1XH1-15 | 2026-08-31 12:52:14 | 53.33289 | 11.07316 | 59° | 75km/h | 6840m | -10m/s | -27.8°C | 34% | 426hPa | 2.7V | 02:56:02 | 02:43:30 | 00:00:00 | |
| DF8AY | 2026-08-31 12:52:13 | 53.33289 | 11.07316 | 59° | 75km/h | 6840m | -10m/s | -27.8°C | 37.9% | 426hPa | 2.7V | 02:56:20 | 02:43:30 | 00:00:00 | |
| BIOWL1-15 | 2026-08-31 12:52:12 | 53.33279 | 11.07290 | 59° | 75km/h | 6850m | -10.5m/s | -27.9°C | 37.7% | 425.3hPa | 2.7V | 02:56:20 | 02:43:29 | 00:00:00 | |
| DB0DAN | 2026-08-31 12:52:10 | 53.33260 | 11.07236 | 59° | 71km/h | 6870m | -9.7m/s | -28°C | 28.5% | 424.16hPa | 2.6V | 00:00:00 | 00:00:00 | 00:00:00 | |
| AA1-15 | 2026-08-31 12:52:07 | 53.33223 | 11.07127 | 59° | 73km/h | 6909m | -9m/s | -28.4°C | 32.8% | 421.8hPa | 2.6V | 02:56:20 | 02:43:23 | 00:00:00 | |
| DL1XH-15 | 2026-08-31 12:52:06 | 53.33194 | 11.07045 | 57° | 77km/h | 6937m | -10m/s | -28.6°C | 26.8% | 420.1hPa | 2.6V | 02:56:12 | 02:43:20 | 00:00:00 | |
| DL1XH-west | 2026-08-31 12:52:05 | 53.33204 | 11.07073 | 60° | 75km/h | 6927m | -10.2m/s | -28.6°C | 30.5% | 420.7hPa | 2.7V | 02:56:20 | 02:43:21 | 00:00:00 | |
| DM0DOS-11 | 2026-08-31 12:52:04 | 53.33174 | 11.06991 | 60° | 77km/h | 6957m | -10.5m/s | -28.8°C | 26% | 418.9hPa | 2.6V | 02:56:14 | 02:43:18 | 00:00:00 | |
| DF8AY | 2026-08-31 12:52:03 | 53.33184 | 11.07018 | 58° | 75km/h | 6947m | -10m/s | -28.7°C | 29.6% | 419.5hPa | 2.6V | 02:56:20 | 02:43:19 | 00:00:00 | |
| AA1-15 | 2026-08-31 12:51:56 | 53.33126 | 11.06853 | 60° | 75km/h | 7015m | -12.7m/s | -29.2°C | 29.2% | 415.9hPa | 2.7V | 02:56:20 | 02:43:13 | 00:00:00 | |
| DB0DAN | 2026-08-31 12:51:55 | 53.33117 | 11.06826 | 62° | 69km/h | 7027m | -13.4m/s | -29.3°C | 23.1% | 415.04hPa | 2.6V | 00:00:00 | 00:00:00 | 00:00:00 | |
| DO2SHX-10 | 2026-08-31 12:51:55 | 53.33117 | 11.06826 | 62° | 71km/h | 7027m | -13.3m/s | -29.3°C | 25.3% | 415.0hPa | 2.6V | 00:00:00 | 02:43:12 | 00:00:00 | |
| DL1XH1-15 | 2026-08-31 12:51:54 | 53.33100 | 11.06773 | 60° | 71km/h | 7050m | -10.4m/s | -29.5°C | 26.5% | 413.6hPa | 2.6V | 02:56:22 | 02:43:10 | 00:00:00 | |
| DL1XH-west | 2026-08-31 12:51:53 | 53.33100 | 11.06773 | 61° | 71km/h | 7050m | -10.4m/s | -29.5°C | 30.1% | 413.6hPa | 2.6V | 02:57:11 | 02:43:10 | 00:00:00 | |
| BIOWL1-15 | 2026-08-31 12:51:51 | 53.33081 | 11.06719 | 60° | 75km/h | 7070m | -10.3m/s | -29.7°C | 31.6% | 412.4hPa | 2.7V | 02:57:11 | 02:43:08 | 00:00:00 | |
| BIOWL9-15 | 2026-08-31 12:51:50 | 53.33052 | 11.06636 | 59° | 77km/h | 7100m | -11.7m/s | -29.9°C | 30.4% | 410.8hPa | 2.6V | 00:00:00 | 00:00:00 | 00:00:00 | |
| DO2SHX-10 | 2026-08-31 12:51:49 | 53.33061 | 11.06664 | 61° | 77km/h | 7089m | -10.5m/s | -29.8°C | 30.7% | 411.3hPa | 2.6V | 00:00:00 | 02:43:06 | 00:00:00 | |
| DL1XH-15 | 2026-08-31 12:51:47 | 53.33006 | 11.06493 | 60° | 77km/h | 7155m | -10.2m/s | -30.4°C | 36.4% | 407.6hPa | 2.6V | 02:56:32 | 02:43:00 | 00:00:00 | |
| AA1-15 | 2026-08-31 12:51:46 | 53.33015 | 11.06521 | 61° | 77km/h | 7145m | -10.9m/s | -30.3°C | 39.7% | 408.2hPa | 2.6V | 02:57:11 | 02:43:01 | 00:00:00 | |
| DL1XH-west | 2026-08-31 12:51:42 | 53.32996 | 11.06465 | 61° | 77km/h | 7164m | -9.2m/s | -30.4°C | 40.1% | 406.9hPa | 2.6V | 02:57:11 | 02:42:59 | 00:00:00 | |
| BIOWL1-15 | 2026-08-31 12:51:40 | 53.32979 | 11.06407 | 64° | 75km/h | 7183m | -10.5m/s | -30.6°C | 40.7% | 405.9hPa | 2.7V | 02:57:11 | 02:42:57 | 00:00:00 | |
| DB0DAN | 2026-08-31 12:51:40 | 53.32979 | 11.06407 | 64° | 71km/h | 7183m | -10.5m/s | -30.6°C | 34% | 405.88hPa | 2.7V | 00:00:00 | 00:00:00 | 00:00:00 | |
| AA1-15 | 2026-08-31 12:51:35 | 53.32935 | 11.06260 | 62° | 77km/h | 7239m | -13.5m/s | -31.1°C | 41.6% | 402.8hPa | 2.6V | 02:57:11 | 02:42:52 | 00:00:00 | |
| DL1XH1-15 | 2026-08-31 12:51:35 | 53.32916 | 11.06203 | 60° | 77km/h | 7263m | -12.7m/s | -31.4°C | 38.5% | 401.3hPa | 2.6V | 02:56:42 | 02:42:50 | 00:00:00 | |
| DO2SHX-10 | 2026-08-31 12:51:34 | 53.32925 | 11.06231 | 63° | 77km/h | 7251m | -13.2m/s | -31.2°C | 37.8% | 402.0hPa | 2.6V | 02:56:00 | 02:42:51 | 00:00:00 | |
| DM0DOS-11 | 2026-08-31 12:51:33 | 53.32898 | 11.06146 | 61° | 75km/h | 7287m | -12.8m/s | -31.6°C | 40.9% | 400hPa | 2.6V | 02:56:44 | 02:42:48 | 00:00:00 | |
| DL1XH-west | 2026-08-31 12:51:31 | 53.32898 | 11.06146 | 62° | 75km/h | 7287m | -12.8m/s | -31.6°C | 45.3% | 400hPa | 2.6V | 02:57:11 | 02:42:48 | 00:00:00 | |
| DF8AY | 2026-08-31 12:51:30 | 53.32824 | 11.05919 | 61° | 77km/h | 7380m | -11.9m/s | -32.3°C | 49.1% | 394.7hPa | 2.6V | 02:57:11 | 02:42:40 | 00:00:00 | |
| BIOWL1-15 | 2026-08-31 12:51:30 | 53.32843 | 11.05977 | 61° | 78km/h | 7358m | -11m/s | -32.1°C | 49.8% | 395.9hPa | 2.6V | 02:57:11 | 02:42:42 | 00:00:00 | |
| SONCRA | 2026-08-31 12:51:30 | 53.32880 | 11.06090 | 62° | 75km/h | 7312m | -12.9m/s | -31.7°C | 41.4% | 398.6hPa | 2.7V | 00:00:00 | 00:00:00 | 00:00:00 | |
| DL4BBY-15 | 2026-08-31 12:51:29 | 53.32880 | 11.06090 | 63° | 78km/h | 7312m | -12.8m/s | -30.5°C | 0% | 0hPa | 2.7V | 00:00:00 | 00:00:00 | 00:00:00 | |
| DO2SHX-10 | 2026-08-31 12:51:28 | 53.32871 | 11.06062 | 61° | 77km/h | 7324m | -12.0m/s | -31.8°C | 46.1% | 397.7hPa | 2.7V | 00:00:00 | 02:42:45 | 00:00:00 | |
| DM0DOS-11 | 2026-08-31 12:51:27 | 53.32795 | 11.05836 | 56° | 78km/h | 7416m | -12.4m/s | -32.5°C | 43.4% | 392.6hPa | 2.7V | 02:56:55 | 02:42:37 | 00:00:00 | |
| DL1LOL-11 | 2026-08-31 12:51:26 | 53.32862 | 11.06034 | 60° | 77km/h | 7335m | -12.6m/s | -31.9°C | 42.5% | 397.2hPa | 2.6V | 00:00:00 | 00:00:00 | 00:00:00 | |
| DB0DAN | 2026-08-31 12:51:25 | 53.32843 | 11.05977 | 61° | 75km/h | 7358m | -11m/s | -32.1°C | 42.2% | 395.89hPa | 2.6V | 00:00:00 | 00:00:00 | 00:00:00 | |
| AA1-15 | 2026-08-31 12:51:24 | 53.32833 | 11.05948 | 61° | 77km/h | 7369m | -12.1m/s | -32.2°C | 49.5% | 395.2hPa | 2.7V | 02:57:11 | 02:42:41 | 00:00:00 | |
| DL1XH-west | 2026-08-31 12:51:21 | 53.32795 | 11.05836 | 57° | 78km/h | 7416m | -12.4m/s | -32.5°C | 48.1% | 392.6hPa | 2.7V | 02:57:11 | 02:42:37 | 00:00:00 | |
| DF8AY | 2026-08-31 12:51:18 | 53.32774 | 11.05780 | 58° | 78km/h | 7440m | -12.1m/s | -32.7°C | 48.6% | 391.3hPa | 2.6V | 02:57:11 | 02:42:35 | 00:00:00 | |
| BIOWL1-15 | 2026-08-31 12:51:16 | 53.32642 | 11.05436 | 57° | 82km/h | 7580m | -13.8m/s | -34.1°C | 51.7% | 383.7hPa | 2.6V | 02:57:11 | 02:42:23 | 00:00:00 | |
| DL1XH1-15 | 2026-08-31 12:51:15 | 53.32720 | 11.05640 | 55° | 80km/h | 7500m | -13.3m/s | -33.3°C | 43.7% | 388hPa | 2.6V | 02:57:02 | 02:42:30 | 00:00:00 | |
| AA1-15 | 2026-08-31 12:51:14 | 53.32720 | 11.05640 | 56° | 80km/h | 7500m | -13.3m/s | -33.3°C | 48.5% | 388hPa | 2.6V | 02:57:11 | 02:42:30 | 00:00:00 | |
| DL1XH-west | 2026-08-31 12:51:11 | 53.32687 | 11.05553 | 58° | 80km/h | 7536m | -11.3m/s | -33.6°C | 49.5% | 386hPa | 2.6V | 02:57:11 | 02:42:27 | 00:00:00 | |
| DB0DAN | 2026-08-31 12:51:10 | 53.32687 | 11.05553 | 58° | 77km/h | 7536m | -11.3m/s | -33.6°C | 41.8% | 385.99hPa | 2.6V | 00:00:00 | 00:00:00 | 00:00:00 | |
| DF8AY | 2026-08-31 12:51:07 | 53.32653 | 11.05466 | 57° | 82km/h | 7568m | -10.8m/s | -34°C | 51.1% | 384.1hPa | 2.6V | 02:57:11 | 02:42:24 | 00:00:00 | |
| DO2SHX-10 | 2026-08-31 12:51:07 | 53.32653 | 11.05466 | 57° | 82km/h | 7569m | -10.7m/s | -33.9°C | 47.4% | 384.1hPa | 2.6V | 02:57:00 | 02:42:24 | 00:00:00 | |
| DL1XH-15 | 2026-08-31 12:51:06 | 53.32609 | 11.05349 | 55° | 80km/h | 7618m | -12.5m/s | -34.4°C | 50% | 381.6hPa | 2.7V | 02:57:12 | 02:42:20 | 00:00:00 | |
| AA1-15 | 2026-08-31 12:51:02 | 53.32597 | 11.05321 | 55° | 80km/h | 7630m | -12.1m/s | -34.5°C | 53.9% | 381hPa | 2.6V | 02:58:02 | 02:42:19 | 00:00:00 | |
| DL1XH-west | 2026-08-31 12:51:00 | 53.32574 | 11.05265 | 52° | 82km/h | 7654m | -12.5m/s | -34.8°C | 55.3% | 379.6hPa | 2.6V | 02:58:02 | 02:42:17 | 00:00:00 | |
| DF8AY | 2026-08-31 12:50:56 | 53.32528 | 11.05152 | 54° | 80km/h | 7700m | -12.5m/s | -35.2°C | 57.3% | 377.1hPa | 2.7V | 02:58:02 | 02:42:13 | 00:00:00 | |
| BIOWL1-15 | 2026-08-31 12:50:56 | 53.32517 | 11.05125 | 53° | 80km/h | 7712m | -11.9m/s | -35.3°C | 58.4% | 376.5hPa | 2.6V | 02:58:02 | 02:42:12 | 00:00:00 | |
| DB0DAN | 2026-08-31 12:50:55 | 53.32517 | 11.05125 | 53° | 77km/h | 7712m | -11.9m/s | -35.3°C | 51.1% | 376.5hPa | 2.6V | 00:00:00 | 00:00:00 | 00:00:00 | |
| DM0DOS-11 | 2026-08-31 12:50:54 | 53.32470 | 11.05017 | 54° | 78km/h | 7760m | -12m/s | -35.7°C | 57.9% | 373.9hPa | 2.7V | 02:57:24 | 02:42:08 | 00:00:00 | |
| DL1XH1-15 | 2026-08-31 12:50:54 | 53.32494 | 11.05070 | 53° | 80km/h | 7736m | -13.2m/s | -35.5°C | 56.9% | 375.4hPa | 2.6V | 02:57:22 | 02:42:10 | 00:00:00 | |
| AA1-15 | 2026-08-31 12:50:51 | 53.32470 | 11.05017 | 54° | 78km/h | 7760m | -12m/s | -35.7°C | 60.6% | 373.9hPa | 2.7V | 02:58:02 | 02:42:08 | 00:00:00 | |
| DL1XH-west | 2026-08-31 12:50:50 | 53.32448 | 11.04964 | 53° | 77km/h | 7784m | -11.8m/s | -35.9°C | 61.3% | 372.8hPa | 2.6V | 02:58:02 | 02:42:06 | 00:00:00 | |
| DF8AY | 2026-08-31 12:50:45 | 53.32403 | 11.04861 | 54° | 77km/h | 7832m | -11.7m/s | -36.2°C | 62.8% | 370.1hPa | 2.7V | 02:58:02 | 02:42:02 | 00:00:00 | |
| DM0DOS-11 | 2026-08-31 12:50:43 | 53.32356 | 11.04758 | 50° | 77km/h | 7883m | -12.7m/s | -36.6°C | 58.9% | 367.6hPa | 2.6V | 02:57:34 | 02:41:58 | 00:00:00 | |
| AA1-15 | 2026-08-31 12:50:41 | 53.32344 | 11.04733 | 48° | 78km/h | 7895m | -12.8m/s | -36.6°C | 60.7% | 366.9hPa | 2.6V | 02:58:02 | 02:41:57 | 00:00:00 | |
| DB0DAN | 2026-08-31 12:50:40 | 53.32344 | 11.04733 | 48° | 75km/h | 7895m | -12.8m/s | -36.6°C | 53.1% | 366.9hPa | 2.6V | 00:00:00 | 00:00:00 | 00:00:00 | |
| DL1XH-west | 2026-08-31 12:50:39 | 53.32318 | 11.04684 | 48° | 78km/h | 7919m | -12.9m/s | -36.8°C | 60.6% | 365.6hPa | 2.7V | 02:58:02 | 02:41:55 | 00:00:00 | |
| S3001 | 2026-08-31 12:50:38 | 53.32318 | 11.04684 | 47° | 77km/h | 7919m | -12.9m/s | -36.8°C | 52.7% | 365.6hPa | 2.7V | 00:00:00 | 00:00:00 | 00:00:00 | |
| DO2SHX-10 | 2026-08-31 12:50:37 | 53.32304 | 11.04659 | 48° | 78km/h | 7932m | -12.7m/s | -36.9°C | 57.9% | 364.8hPa | 2.7V | 00:00:00 | 02:41:54 | 00:00:00 | |
| DL1XH1-15 | 2026-08-31 12:50:34 | 53.32250 | 11.04561 | 48° | 78km/h | 7980m | -12.8m/s | -37.3°C | 57.2% | 362.3hPa | 2.7V | 02:57:42 | 02:41:50 | 00:00:00 | |
| DO2SHX-10 | 2026-08-31 12:50:34 | 53.32264 | 11.04586 | 47° | 78km/h | 7968m | -12.5m/s | -37.2°C | 57.7% | 362.8hPa | 2.6V | 00:00:00 | 02:41:51 | 00:00:00 | |
| DM0DOS-11 | 2026-08-31 12:50:33 | 53.32224 | 11.04512 | 49° | 78km/h | 8005m | -13.7m/s | -37.6°C | 56.2% | 361hPa | 2.6V | 02:57:44 | 02:41:48 | 00:00:00 | |
| AA1-15 | 2026-08-31 12:50:30 | 53.32198 | 11.04462 | 49° | 78km/h | 8031m | -12m/s | -37.7°C | 57% | 359.6hPa | 2.6V | 02:58:02 | 02:41:46 | 00:00:00 | |
| BIOWL1-15 | 2026-08-31 12:50:29 | 53.32170 | 11.04412 | 48° | 82km/h | 8055m | -13.2m/s | -37.8°C | 56.1% | 358.4hPa | 2.7V | 02:58:02 | 02:41:44 | 00:00:00 | |
| DL1XH-west | 2026-08-31 12:50:29 | 53.32184 | 11.04437 | 47° | 84km/h | 8042m | -12.9m/s | -37.7°C | 56.1% | 359.1hPa | 2.6V | 02:58:02 | 02:41:45 | 00:00:00 | |
| DJ2DS-15 | 2026-08-31 12:50:29 | 53.32184 | 11.04437 | 47° | 82km/h | 8042m | -12.9m/s | -37.7°C | 48.4% | 359.1hPa | 2.7V | 00:00:00 | 00:00:00 | 00:00:00 | |
| SONCRA | 2026-08-31 12:50:28 | 53.32170 | 11.04412 | 48° | 80km/h | 8055m | -13.2m/s | -37.8°C | 48.3% | 358.4hPa | 2.7V | 00:00:00 | 00:00:00 | 00:00:00 | |
| DL1XH-15 | 2026-08-31 12:50:26 | 53.32116 | 11.04311 | 48° | 80km/h | 8105m | -12.8m/s | -38.2°C | 54% | 355.8hPa | 2.7V | 02:57:52 | 02:41:40 | 00:00:00 | |
| DB0DAN | 2026-08-31 12:50:25 | 53.32143 | 11.04361 | 48° | 78km/h | 8080m | -13m/s | -38°C | 48.8% | 357.09hPa | 2.6V | 00:00:00 | 00:00:00 | 00:00:00 | |
| AA1-15 | 2026-08-31 12:50:19 | 53.32051 | 11.04179 | 52° | 82km/h | 8165m | -12.3m/s | -38.6°C | 55.3% | 352.8hPa | 2.6V | 02:58:02 | 02:41:35 | 00:00:00 | |
| DL1XH-west | 2026-08-31 12:50:18 | 53.31988 | 11.04043 | 53° | 84km/h | 8223m | -11.9m/s | -39.1°C | 59.6% | 349.7hPa | 2.7V | 02:58:02 | 02:41:30 | 00:00:00 | |
| BIOWL1-15 | 2026-08-31 12:50:17 | 53.32026 | 11.04125 | 53° | 80km/h | 8188m | -12m/s | -38.8°C | 57% | 351.5hPa | 2.6V | 02:58:02 | 02:41:33 | 00:00:00 | |
| DF8AY | 2026-08-31 12:50:12 | 53.31887 | 11.03817 | 53° | 86km/h | 8321m | -12.4m/s | -39.9°C | 68.8% | 344.8hPa | 2.6V | 02:59:44 | 02:41:22 | 00:00:00 | |
| DB0DAN | 2026-08-31 12:50:10 | 53.31951 | 11.03958 | 52° | 80km/h | 8259m | -13.1m/s | -39.4°C | 54.3% | 347.98hPa | 2.6V | 00:00:00 | 00:00:00 | 00:00:00 | |
| AA1-15 | 2026-08-31 12:50:08 | 53.31925 | 11.03903 | 52° | 84km/h | 8284m | -12.6m/s | -39.6°C | 64.4% | 346.7hPa | 2.7V | 02:58:53 | 02:41:25 | 00:00:00 | |
| DO2SHX-10 | 2026-08-31 12:50:07 | 53.31913 | 11.03875 | 54° | 86km/h | 8297m | -13.1m/s | -39.7°C | 64.3% | 346.0hPa | 2.6V | 00:00:00 | 02:41:24 | 00:00:00 | |
| DL1XH-15 | 2026-08-31 12:50:06 | 53.31861 | 11.03759 | 53° | 86km/h | 8346m | -13.4m/s | -40°C | 70% | 343.6hPa | 2.6V | 02:58:12 | 02:41:20 | 00:00:00 | |
| BIOWL1-15 | 2026-08-31 12:50:05 | 53.31874 | 11.03788 | 52° | 88km/h | 8334m | -13.1m/s | -39.9°C | 70.1% | 344.1hPa | 2.6V | 02:59:44 | 02:41:21 | 00:00:00 | |
| DL1XH-west | 2026-08-31 12:50:05 | 53.31848 | 11.03730 | 52° | 88km/h | 8359m | -13m/s | -40.1°C | 72.3% | 343hPa | 2.7V | 02:58:53 | 02:41:19 | 00:00:00 | |
| DO2SHX-10 | 2026-08-31 12:50:04 | 53.31874 | 11.03788 | 53° | 88km/h | 8334m | -13.1m/s | -39.9°C | 68.8% | 344.1hPa | 2.6V | 02:58:00 | 02:41:21 | 00:00:00 | |
| DM0DOS-11 | 2026-08-31 12:50:03 | 53.31834 | 11.03701 | 48° | 88km/h | 8372m | -12.4m/s | -40.1°C | 71.9% | 342.3hPa | 2.7V | 02:58:14 | 02:41:18 | 00:00:00 | |
| DF8AY | 2026-08-31 12:49:58 | 53.31777 | 11.03589 | 50° | 86km/h | 8420m | -12.6m/s | -40.5°C | 73.3% | 339.8hPa | 2.6V | 02:59:44 | 02:41:14 | 00:00:00 | |
| AA1-15 | 2026-08-31 12:49:58 | 53.31750 | 11.03533 | 51° | 86km/h | 8445m | -12.9m/s | -40.6°C | 73.3% | 338.6hPa | 2.7V | 02:58:53 | 02:41:12 | 00:00:00 | |
| DM0DOS-11 | 2026-08-31 12:49:57 | 53.31682 | 11.03390 | 52° | 88km/h | 8507m | -12.1m/s | -41.1°C | 71.8% | 335.5hPa | 2.7V | 02:58:25 | 02:41:07 | 00:00:00 | |
| BIOWL1-15 | 2026-08-31 12:49:55 | 53.31709 | 11.03447 | 52° | 88km/h | 8482m | -12.8m/s | -40.9°C | 72.9% | 336.8hPa | 2.6V | 02:59:44 | 02:41:09 | 00:00:00 | |
| DB0DAN | 2026-08-31 12:49:55 | 53.31750 | 11.03533 | 51° | 82km/h | 8445m | -12.9m/s | -40.6°C | 65.8% | 338.62hPa | 2.7V | 00:00:00 | 00:00:00 | 00:00:00 | |
| DL1XH1-15 | 2026-08-31 12:49:54 | 53.31723 | 11.03476 | 51° | 86km/h | 8470m | -12.9m/s | -40.8°C | 72.1% | 337.3hPa | 2.6V | 02:58:22 | 02:41:10 | 00:00:00 | |
| DL1XH-west | 2026-08-31 12:49:54 | 53.31736 | 11.03504 | 52° | 88km/h | 8457m | -13m/s | -40.7°C | 73.2% | 338hPa | 2.6V | 02:58:53 | 02:41:11 | 00:00:00 | |
| DJ2DS-15 | 2026-08-31 12:49:52 | 53.31709 | 11.03447 | 51° | 88km/h | 8482m | -12.8m/s | -40.9°C | 65.2% | 336.8hPa | 2.6V | 00:00:00 | 00:00:00 | 00:00:00 | |
| SMARD9-15 | 2026-08-31 12:49:48 | 53.31640 | 11.03304 | 50° | 88km/h | 8542m | -12.7m/s | -41.4°C | 64.8% | 333.7hPa | 2.6V | 00:00:00 | 00:00:00 | 00:00:00 | |
| DL1XH-15 | 2026-08-31 12:49:46 | 53.31586 | 11.03186 | 51° | 89km/h | 8587m | -11.9m/s | -41.8°C | 70% | 331.5hPa | 2.6V | 02:58:32 | 02:41:00 | 00:00:00 | |
| AA1-15 | 2026-08-31 12:49:44 | 53.31600 | 11.03215 | 52° | 89km/h | 8576m | -11.2m/s | -41.7°C | 71.5% | 332hPa | 2.6V | 02:58:53 | 02:41:01 | 00:00:00 | |
| DL1XH-west | 2026-08-31 12:49:44 | 53.31572 | 11.03156 | 52° | 91km/h | 8599m | -12.6m/s | -41.9°C | 70.3% | 331hPa | 2.6V | 02:58:53 | 02:40:59 | 00:00:00 | |
| DM0DOS-11 | 2026-08-31 12:49:43 | 53.31558 | 11.03126 | 53° | 91km/h | 8611m | -12.1m/s | -42°C | 69.3% | 330.3hPa | 2.6V | 02:58:34 | 02:40:58 | 00:00:00 | |
| BIOWL1-15 | 2026-08-31 12:49:42 | 53.31558 | 11.03126 | 53° | 91km/h | 8611m | -12.1m/s | -42°C | 70.1% | 330.3hPa | 2.6V | 02:59:44 | 02:40:58 | 00:00:00 | |
| DB0DAN | 2026-08-31 12:49:40 | 53.31545 | 11.03095 | 56° | 88km/h | 8623m | -12.2m/s | -42.2°C | 62.3% | 329.85hPa | 2.6V | 00:00:00 | 00:00:00 | 00:00:00 | |
| DO2SHX-10 | 2026-08-31 12:49:40 | 53.31545 | 11.03095 | 56° | 93km/h | 8623m | -12.1m/s | -42.1°C | 69.0% | 329.8hPa | 2.7V | 00:00:00 | 02:40:57 | 00:00:00 | |
| SONDE2-11 | 2026-08-31 12:49:38 | 53.31504 | 11.02998 | 54° | 95km/h | 8658m | -12.7m/s | -42.5°C | 60.9% | 328.1hPa | 2.7V | 00:00:00 | 00:00:00 | 00:00:00 | |
| DO2SHX-10 | 2026-08-31 12:49:37 | 53.31504 | 11.02998 | 55° | 97km/h | 8659m | -12.6m/s | -42.5°C | 67.5% | 328.1hPa | 2.7V | 02:58:00 | 02:40:54 | 00:00:00 | |
| DM0DOS-11 | 2026-08-31 12:49:36 | 53.31403 | 11.02761 | 55° | 102km/h | 8739m | -12.2m/s | -42.9°C | 65% | 324.2hPa | 2.7V | 02:58:45 | 02:40:47 | 00:00:00 | |
| DF8AY | 2026-08-31 12:49:35 | 53.31433 | 11.02830 | 56° | 100km/h | 8717m | -11m/s | -42.8°C | 66.4% | 325.3hPa | 2.6V | 02:59:44 | 02:40:49 | 00:00:00 | |
| DL1XH1-15 | 2026-08-31 12:49:35 | 53.31447 | 11.02865 | 54° | 100km/h | 8706m | -12.2m/s | -42.8°C | 66.6% | 325.9hPa | 2.6V | 02:58:42 | 02:40:50 | 00:00:00 | |
| AA1-15 | 2026-08-31 12:49:33 | 53.31447 | 11.02865 | 54° | 100km/h | 8706m | -12.3m/s | -42.8°C | 66.7% | 325.9hPa | 2.6V | 02:58:53 | 02:40:50 | 00:00:00 | |
| BIOWL1-15 | 2026-08-31 12:49:31 | 53.31403 | 11.02761 | 56° | 102km/h | 8740m | -12.3m/s | -42.9°C | 65.2% | 324.2hPa | 2.7V | 02:59:44 | 02:40:47 | 00:00:00 | |
| DD8BA-10 | 2026-08-31 12:49:31 | 53.31418 | 11.02795 | 55° | 104km/h | 8728m | -11.4m/s | -42.8°C | 65.5% | 324.7hPa | 2.6V | 00:00:00 | 00:00:00 | 00:00:00 | |
| DL1CLM-18 | 2026-08-31 12:49:29 | 53.31389 | 11.02725 | 55° | 100km/h | 8751m | -10.7m/s | -42.9°C | 57.8% | 323.6hPa | 2.6V | 00:00:00 | 00:00:00 | 00:00:00 | |
| DO2SHX-10 | 2026-08-31 12:49:28 | 53.31373 | 11.02691 | 53° | 104km/h | 8761m | -11.9m/s | -42.8°C | 63.0% | 323.1hPa | 2.6V | 02:58:00 | 02:40:45 | 00:00:00 | |
| TFSTFS | 2026-08-31 12:49:27 | 53.31373 | 11.02691 | 54° | 102km/h | 8761m | -11.9m/s | -42.9°C | 56.6% | 323.1hPa | 2.7V | 00:00:00 | 00:00:00 | 00:00:00 | |
| DL1XH-15 | 2026-08-31 12:49:26 | 53.31297 | 11.02513 | 53° | 106km/h | 8820m | -11.9m/s | -43.2°C | 60.2% | 320.2hPa | 2.7V | 02:58:52 | 02:40:40 | 00:00:00 | |
| DB0DAN | 2026-08-31 12:49:25 | 53.31328 | 11.02585 | 53° | 100km/h | 8797m | -12.3m/s | -43°C | 54.8% | 321.41hPa | 2.7V | 00:00:00 | 00:00:00 | 00:00:00 | |
| DM0DOS-11 | 2026-08-31 12:49:24 | 53.31266 | 11.02440 | 55° | 108km/h | 8842m | -12.7m/s | -43.3°C | 58.5% | 319.2hPa | 2.6V | 02:58:54 | 02:40:38 | 00:00:00 | |
| DF8AY | 2026-08-31 12:49:24 | 53.31297 | 11.02513 | 53° | 106km/h | 8820m | -11.9m/s | -43.2°C | 61.4% | 320.3hPa | 2.7V | 02:59:44 | 02:40:40 | 00:00:00 | |
| AA1-15 | 2026-08-31 12:49:22 | 53.31281 | 11.02477 | 55° | 108km/h | 8831m | -11.6m/s | -43.2°C | 60.8% | 319.7hPa | 2.6V | 02:58:53 | 02:40:39 | 00:00:00 | |
| DO2SHX-10 | 2026-08-31 12:49:22 | 53.31281 | 11.02477 | 56° | 108km/h | 8831m | -11.6m/s | -43.2°C | 59.3% | 319.7hPa | 2.7V | 00:00:00 | 02:40:39 | 00:00:00 | |
| DD8BA-10 | 2026-08-31 12:49:21 | 53.31266 | 11.02440 | 56° | 110km/h | 8842m | -12.7m/s | -43.3°C | 58.5% | 319.1hPa | 2.7V | 00:00:00 | 00:00:00 | 00:00:00 | |
| DO2SHX-10 | 2026-08-31 12:49:19 | 53.31235 | 11.02366 | 56° | 110km/h | 8866m | -13.4m/s | -43.4°C | 57.2% | 318.0hPa | 2.7V | 02:58:00 | 02:40:36 | 00:00:00 | |
| DJ2DS-15 | 2026-08-31 12:49:17 | 53.31188 | 11.02252 | 55° | 110km/h | 8904m | -12.6m/s | -43.7°C | 48.0% | 316.4hPa | 2.7V | 00:00:00 | 00:00:00 | 00:00:00 | |
| DM0DOS-11 | 2026-08-31 12:49:16 | 53.31093 | 11.02019 | 56° | 111km/h | 8979m | -13.6m/s | -44.1°C | 42.4% | 312.9hPa | 2.7V | 02:59:05 | 02:40:27 | 00:00:00 | |
| BIOWL1-15 | 2026-08-31 12:49:14 | 53.31062 | 11.01941 | 56° | 111km/h | 9003m | -12m/s | -44.2°C | 40.4% | 311.6hPa | 2.6V | 02:59:44 | 02:40:25 | 00:00:00 | |
| DF8AY | 2026-08-31 12:49:14 | 53.31140 | 11.02136 | 56° | 111km/h | 8941m | -13.7m/s | -44°C | 50.6% | 314.6hPa | 2.6V | 02:59:44 | 02:40:30 | 00:00:00 | |
| DL1XH-west | 2026-08-31 12:49:13 | 53.31093 | 11.02019 | 57° | 111km/h | 8979m | -13.6m/s | -44.1°C | 44.4% | 312.9hPa | 2.7V | 02:59:44 | 02:40:27 | 00:00:00 | |
| DO2SHX-10 | 2026-08-31 12:49:13 | 53.31140 | 11.02136 | 57° | 111km/h | 8942m | -13.7m/s | -43.9°C | 48.6% | 314.6hPa | 2.7V | 00:00:00 | 02:40:30 | 00:00:00 | |
| DL1LOL-11 | 2026-08-31 12:49:11 | 53.31124 | 11.02098 | 55° | 111km/h | 8954m | -12.2m/s | -44.0°C | 41.2% | 314.0hPa | 2.7V | 00:00:00 | 00:00:00 | 00:00:00 | |
| AA1-15 | 2026-08-31 12:49:11 | 53.31108 | 11.02059 | 57° | 113km/h | 8966m | -13m/s | -44.1°C | 46.6% | 313.5hPa | 2.6V | 02:59:44 | 02:40:28 | 00:00:00 | |
| DB0DAN | 2026-08-31 12:49:10 | 53.31093 | 11.02019 | 57° | 106km/h | 8979m | -13.6m/s | -44.1°C | 37.3% | 312.88hPa | 2.7V | 00:00:00 | 00:00:00 | 00:00:00 | |
| DO2SHX-10 | 2026-08-31 12:49:10 | 53.31093 | 11.02019 | 57° | 111km/h | 8979m | -13.6m/s | -44.1°C | 42.4% | 312.8hPa | 2.7V | 02:59:00 | 02:40:27 | 00:00:00 | |
| DG6HD-15 | 2026-08-31 12:49:09 | 53.31077 | 11.01980 | 57° | 111km/h | 8992m | -12.5m/s | -44.2°C | 35.5% | 312.2hPa | 2.6V | 00:00:00 | 00:00:00 | 00:00:00 | |
| DL1XH1-15 | 2026-08-31 12:49:08 | 53.30984 | 11.01741 | 59° | 113km/h | 9065m | -13.7m/s | -44.5°C | 28.6% | 308.9hPa | 2.6V | 02:59:12 | 02:40:20 | 00:00:00 | |
| SONDE2-11 | 2026-08-31 12:49:07 | 53.31030 | 11.01862 | 56° | 113km/h | 9027m | -13.1m/s | -44.3°C | 29.6% | 310.6hPa | 2.6V | 00:00:00 | 00:00:00 | 00:00:00 | |
| S3001 | 2026-08-31 12:49:05 | 53.30999 | 11.01782 | 56° | 111km/h | 9052m | -12.9m/s | -44.5°C | 26.3% | 309.5hPa | 2.6V | 00:00:00 | 00:00:00 | 00:00:00 | |
| DF8AY-15 | 2026-08-31 12:49:04 | 53.30999 | 11.01782 | 57° | 111km/h | 9053m | -12.9m/s | -44.4°C | 30.5% | 309.4hPa | 2.6V | 02:59:00 | 02:40:21 | 00:00:00 | |
| DM0DOS-11 | 2026-08-31 12:49:03 | 53.30955 | 11.01660 | 57° | 111km/h | 9091m | -13.3m/s | -44.7°C | 24.9% | 307.7hPa | 2.6V | 02:59:14 | 02:40:18 | 00:00:00 | |
| AA1-15 | 2026-08-31 12:49:01 | 53.30940 | 11.01620 | 58° | 113km/h | 9104m | -13.2m/s | -44.8°C | 25% | 307.1hPa | 2.7V | 02:59:44 | 02:40:17 | 00:00:00 | |
| BIOWL1-15 | 2026-08-31 12:48:58 | 53.30896 | 11.01498 | 60° | 110km/h | 9136m | -10.5m/s | -45°C | 22.4% | 305.5hPa | 2.6V | 02:59:44 | 02:40:14 | 00:00:00 | |
| DK1YY | 2026-08-31 12:48:57 | 53.30896 | 11.01498 | 60° | 110km/h | 9136m | -10.5m/s | -45.0°C | 17.3% | 305.5hPa | 2.6V | 00:00:00 | 00:00:00 | 00:00:00 | |
| DO2LYB-13 | 2026-08-31 12:48:56 | 53.30896 | 11.01498 | 61° | 110km/h | 9136m | -10.5m/s | -45.0°C | 17.4% | 305.5hPa | 2.6V | 00:00:00 | 00:00:00 | 00:00:00 | |
| DM0DOS-11 | 2026-08-31 12:48:56 | 53.30812 | 11.01256 | 60° | 110km/h | 9211m | -13.3m/s | -45.4°C | 20.7% | 302.2hPa | 2.6V | 02:59:24 | 02:40:08 | 00:00:00 | |
| DB0DAN | 2026-08-31 12:48:55 | 53.30867 | 11.01417 | 60° | 108km/h | 9160m | -14m/s | -45.2°C | 16.6% | 304.46hPa | 2.6V | 00:00:00 | 00:00:00 | 00:00:00 | |
| DF8AY | 2026-08-31 12:48:51 | 53.30798 | 11.01216 | 60° | 108km/h | 9224m | -13m/s | -45.5°C | 22.6% | 301.5hPa | 2.6V | 02:59:44 | 02:40:07 | 00:00:00 | |
| AA1-15 | 2026-08-31 12:48:50 | 53.30784 | 11.01176 | 59° | 110km/h | 9237m | -12.7m/s | -45.5°C | 22.8% | 301hPa | 2.6V | 02:59:44 | 02:40:06 | 00:00:00 | |
| BIOWL1-15 | 2026-08-31 12:48:48 | 53.30627 | 11.00751 | 56° | 106km/h | 9372m | -11.8m/s | -45.8°C | 23.2% | 294.9hPa | 2.6V | 02:59:44 | 02:39:55 | 00:00:00 | |
| DL1XH1-15 | 2026-08-31 12:48:47 | 53.30700 | 11.00940 | 57° | 110km/h | 9310m | -13.8m/s | -45.6°C | 21% | 297.7hPa | 2.7V | 02:59:32 | 02:40:00 | 00:00:00 | |
| SMARD9-15 | 2026-08-31 12:48:46 | 53.30728 | 11.01017 | 58° | 106km/h | 9285m | -12.9m/s | -45.5°C | 17.3% | 298.8hPa | 2.6V | 00:00:00 | 00:00:00 | 00:00:00 | |
| GOEST3-10 | 2026-08-31 12:48:45 | 53.30728 | 11.01017 | 59° | 108km/h | 9286m | -12.8m/s | -45.5°C | 20.8% | 298.8hPa | 2.6V | 00:00:00 | 02:40:02 | 00:00:00 | |
| DF8AY-15 | 2026-08-31 12:48:44 | 53.30714 | 11.00979 | 58° | 106km/h | 9298m | -12.1m/s | -45.5°C | 21.0% | 298.2hPa | 2.6V | 00:00:00 | 02:40:01 | 00:00:00 | |
| DM0DOS-11 | 2026-08-31 12:48:43 | 53.30671 | 11.00863 | 57° | 106km/h | 9336m | -13m/s | -45.6°C | 21% | 296.6hPa | 2.6V | 02:59:34 | 02:39:58 | 00:00:00 | |
| DF8AY | 2026-08-31 12:48:41 | 53.30598 | 11.00676 | 57° | 108km/h | 9393m | -9.4m/s | -45.8°C | 23.3% | 293.9hPa | 2.6V | 02:59:44 | 02:39:53 | 00:00:00 | |
| DB0DAN | 2026-08-31 12:48:40 | 53.30656 | 11.00826 | 57° | 100km/h | 9349m | -13.1m/s | -45.7°C | 17.6% | 296.02hPa | 2.7V | 00:00:00 | 00:00:00 | 00:00:00 | |
| BIOWL1-15 | 2026-08-31 12:48:40 | 53.30568 | 11.00600 | 55° | 106km/h | 9412m | -10.4m/s | -45.9°C | 23.4% | 293hPa | 2.7V | 02:59:44 | 02:39:51 | 00:00:00 | |
| AA1-15 | 2026-08-31 12:48:39 | 53.30612 | 11.00714 | 57° | 106km/h | 9383m | -11.3m/s | -45.8°C | 23.3% | 294.3hPa | 2.6V | 02:59:44 | 02:39:54 | 00:00:00 | |
| DO2SHX-10 | 2026-08-31 12:48:38 | 53.30612 | 11.00714 | 57° | 108km/h | 9383m | -11.2m/s | -45.7°C | 21.9% | 294.3hPa | 2.7V | 00:00:00 | 02:39:54 | 00:00:00 | |
| DL1XH1-15 | 2026-08-31 12:48:35 | 53.30553 | 11.00563 | 55° | 104km/h | 9424m | -14m/s | -45.9°C | 21.3% | 292.6hPa | 2.7V | 02:59:42 | 02:39:50 | 00:00:00 | |
| DL1XH-west | 2026-08-31 12:48:29 | 53.30479 | 11.00381 | 56° | 104km/h | 9489m | -13.1m/s | -46.4°C | 23.2% | 289.8hPa | 2.7V | 03:00:35 | 02:39:45 | 00:00:00 | |
| AA1-15 | 2026-08-31 12:48:26 | 53.30449 | 11.00309 | 55° | 104km/h | 9515m | -13.5m/s | -46.4°C | 22.9% | 288.7hPa | 2.6V | 03:00:35 | 02:39:43 | 00:00:00 | |
| DB0DAN | 2026-08-31 12:48:25 | 53.30434 | 11.00273 | 56° | 99km/h | 9527m | -12.5m/s | -46.3°C | 17.2% | 288.05hPa | 2.6V | 00:00:00 | 00:00:00 | 00:00:00 | |
| BIOWL1-15 | 2026-08-31 12:48:23 | 53.30377 | 11.00130 | 58° | 100km/h | 9577m | -14.8m/s | -46.5°C | 22.5% | 286hPa | 2.7V | 03:00:35 | 02:39:38 | 00:00:00 | |
| DM0DOS-11 | 2026-08-31 12:48:22 | 53.30377 | 11.00130 | 57° | 100km/h | 9577m | -14.8m/s | -46.5°C | 20.3% | 286hPa | 2.7V | 02:59:54 | 02:39:38 | 00:00:00 | |
| DL1XH-west | 2026-08-31 12:48:18 | 53.30335 | 11.00025 | 57° | 100km/h | 9617m | -13.1m/s | -46.8°C | 22.3% | 284.2hPa | 2.6V | 03:00:35 | 02:39:35 | 00:00:00 | |
| DM0DOS-11 | 2026-08-31 12:48:16 | 53.30224 | 10.99737 | 57° | 100km/h | 9720m | -13.5m/s | -47.3°C | 19.7% | 279.9hPa | 2.7V | 03:00:05 | 02:39:27 | 00:00:00 | |
| AA1-15 | 2026-08-31 12:48:15 | 53.30293 | 10.99917 | 58° | 102km/h | 9656m | -13.5m/s | -47°C | 22% | 282.6hPa | 2.7V | 03:00:35 | 02:39:32 | 00:00:00 | |
| GOEST3-10 | 2026-08-31 12:48:15 | 53.30293 | 10.99917 | 58° | 102km/h | 9656m | -13.4m/s | -46.9°C | 20.1% | 282.6hPa | 2.6V | 00:00:00 | 02:39:32 | 00:00:00 | |
| DL1XH1-15 | 2026-08-31 12:48:14 | 53.30265 | 10.99845 | 58° | 102km/h | 9681m | -13.4m/s | -47.1°C | 19.9% | 281.5hPa | 2.6V | 03:00:02 | 02:39:30 | 00:00:00 | |
| BIOWL1-15 | 2026-08-31 12:48:13 | 53.30210 | 10.99702 | 57° | 102km/h | 9733m | -14.3m/s | -47.4°C | 21.5% | 279.3hPa | 2.6V | 03:00:35 | 02:39:26 | 00:00:00 | |
| DO2SHX-10 | 2026-08-31 12:48:13 | 53.30266 | 10.99845 | 59° | 102km/h | 9682m | -13.4m/s | -47.1°C | 19.9% | 281.4hPa | 2.7V | 00:00:00 | 02:39:30 | 00:00:00 | |
| SMARD9-10 | 2026-08-31 12:48:11 | 53.30252 | 10.99809 | 59° | 102km/h | 9694m | -13.6m/s | -47.2°C | 16.2% | 281.0hPa | 2.7V | 00:00:00 | 00:00:00 | 00:00:00 | |
| DB0DAN | 2026-08-31 12:48:10 | 53.30224 | 10.99737 | 58° | 97km/h | 9720m | -13.5m/s | -47.3°C | 16% | 279.92hPa | 2.7V | 00:00:00 | 00:00:00 | 00:00:00 | |
| DL1XH-west | 2026-08-31 12:48:09 | 53.30196 | 10.99666 | 57° | 100km/h | 9746m | -13.4m/s | -47.4°C | 21.4% | 278.7hPa | 2.6V | 03:00:35 | 02:39:25 | 00:00:00 | |
| DF8AY | 2026-08-31 12:48:08 | 53.30182 | 10.99631 | 56° | 102km/h | 9760m | -14.6m/s | -47.5°C | 21.3% | 278.2hPa | 2.7V | 03:00:35 | 02:39:24 | 00:00:00 | |
| DL1XH1-15 | 2026-08-31 12:48:07 | 53.30123 | 10.99490 | 54° | 102km/h | 9814m | -13.8m/s | -47.7°C | 19.2% | 275.9hPa | 2.7V | 03:00:12 | 02:39:20 | 00:00:00 | |
| AA1-15 | 2026-08-31 12:48:06 | 53.30138 | 10.99525 | 55° | 102km/h | 9801m | -14.4m/s | -47.6°C | 21.2% | 276.6hPa | 2.6V | 03:00:35 | 02:39:21 | 00:00:00 | |
| DM0DOS-11 | 2026-08-31 12:48:05 | 53.30094 | 10.99421 | 53° | 100km/h | 9840m | -13.7m/s | -47.8°C | 19.2% | 274.9hPa | 2.6V | 03:00:14 | 02:39:18 | 00:00:00 | |
| BIOWL1-15 | 2026-08-31 12:48:03 | 53.30094 | 10.99421 | 54° | 102km/h | 9841m | -13.7m/s | -47.8°C | 21.2% | 274.9hPa | 2.6V | 03:00:35 | 02:39:18 | 00:00:00 | |
| DL1XH-west | 2026-08-31 12:47:58 | 53.30047 | 10.99320 | 52° | 100km/h | 9882m | -13.3m/s | -48°C | 21.1% | 273.2hPa | 2.7V | 03:00:35 | 02:39:15 | 00:00:00 | |
| DF8AY | 2026-08-31 12:47:57 | 53.30016 | 10.99256 | 48° | 99km/h | 9910m | -15.4m/s | -48.2°C | 21.2% | 272.1hPa | 2.6V | 03:00:35 | 02:39:13 | 00:00:00 | |
| DB0DAN | 2026-08-31 12:47:55 | 53.29999 | 10.99225 | 48° | 93km/h | 9924m | -14.2m/s | -48.2°C | 15.4% | 271.46hPa | 2.6V | 00:00:00 | 00:00:00 | 00:00:00 | |
| AA1-15 | 2026-08-31 12:47:53 | 53.29967 | 10.99165 | 48° | 97km/h | 9952m | -14.6m/s | -48.4°C | 21.2% | 270.3hPa | 2.7V | 03:00:35 | 02:39:10 | 00:00:00 | |
| DL1XH-west | 2026-08-31 12:47:48 | 53.29888 | 10.99012 | 49° | 99km/h | 10024m | -14.2m/s | -48.7°C | 21.1% | 267.4hPa | 2.7V | 03:00:35 | 02:39:05 | 00:00:00 | |
| DF8AY | 2026-08-31 12:47:46 | 53.29856 | 10.98950 | 48° | 99km/h | 10053m | -14.4m/s | -49°C | 21% | 266.2hPa | 2.7V | 03:00:35 | 02:39:03 | 00:00:00 | |
| DO2SHX-10 | 2026-08-31 12:47:46 | 53.29856 | 10.98950 | 49° | 97km/h | 10053m | -14.4m/s | -48.9°C | 19.1% | 266.2hPa | 2.7V | 00:00:00 | 02:39:03 | 00:00:00 | |
| GOEST3-10 | 2026-08-31 12:47:45 | 53.29840 | 10.98919 | 49° | 97km/h | 10067m | -14.8m/s | -49.0°C | 19.3% | 265.6hPa | 2.7V | 00:00:00 | 02:39:02 | 00:00:00 | |
| DM0DOS-11 | 2026-08-31 12:47:44 | 53.29774 | 10.98796 | 49° | 97km/h | 10121m | -14.9m/s | -49.6°C | 19.4% | 263.5hPa | 2.7V | 03:00:34 | 02:38:58 | 00:00:00 | |
| AA1-15 | 2026-08-31 12:47:43 | 53.29807 | 10.98858 | 48° | 99km/h | 10094m | -13.8m/s | -49.4°C | 21% | 264.5hPa | 2.6V | 03:00:35 | 02:39:00 | 00:00:00 | |
| DO2SHX-10 | 2026-08-31 12:47:43 | 53.29807 | 10.98858 | 49° | 97km/h | 10095m | -13.8m/s | -49.3°C | 19.5% | 264.4hPa | 2.7V | 00:00:00 | 02:39:00 | 00:00:00 | |
| BIOWL9-15 | 2026-08-31 12:47:42 | 53.29791 | 10.98827 | 47° | 97km/h | 10107m | -14.0m/s | -49.5°C | 15.6% | 263.9hPa | 2.7V | 00:00:00 | 00:00:00 | 00:00:00 | |
| DB0DAN | 2026-08-31 12:47:40 | 53.29759 | 10.98766 | 49° | 91km/h | 10136m | -14.7m/s | -49.7°C | 15.3% | 262.86hPa | 2.7V | 00:00:00 | 00:00:00 | 00:00:00 | |
| BIOWL1-15 | 2026-08-31 12:47:37 | 53.29711 | 10.98671 | 52° | 99km/h | 10179m | -14.8m/s | -49.9°C | 20.1% | 261.1hPa | 2.6V | 03:01:26 | 02:38:54 | 00:00:00 | |
| DF8AY | 2026-08-31 12:47:36 | 53.29679 | 10.98606 | 52° | 99km/h | 10207m | -13.6m/s | -50.2°C | 19.7% | 259.9hPa | 2.7V | 03:01:26 | 02:38:52 | 00:00:00 | |
| AA1-15 | 2026-08-31 12:47:34 | 53.29648 | 10.98542 | 50° | 99km/h | 10235m | -14.8m/s | -50.4°C | 19.3% | 258.9hPa | 2.6V | 03:01:26 | 02:38:50 | 00:00:00 | |
| DL1XH-west | 2026-08-31 12:47:27 | 53.29556 | 10.98349 | 52° | 99km/h | 10311m | -12.8m/s | -50.8°C | 17.8% | 255.8hPa | 2.6V | 03:01:26 | 02:38:44 | 00:00:00 | |
| BIOWL1-15 | 2026-08-31 12:47:26 | 53.29541 | 10.98316 | 51° | 100km/h | 10324m | -13.2m/s | -50.8°C | 17.5% | 255.3hPa | 2.6V | 03:01:26 | 02:38:43 | 00:00:00 | |
| DF8AY | 2026-08-31 12:47:25 | 53.29509 | 10.98250 | 52° | 100km/h | 10350m | -14.4m/s | -50.7°C | 16.9% | 254.2hPa | 2.7V | 03:01:26 | 02:38:41 | 00:00:00 | |
| DL1XH1-15 | 2026-08-31 12:47:25 | 53.29494 | 10.98217 | 52° | 100km/h | 10364m | -14.2m/s | -50.8°C | 17.3% | 253.7hPa | 2.6V | 03:00:52 | 02:38:40 | 00:00:00 | |
| DB0DAN | 2026-08-31 12:47:25 | 53.29525 | 10.98283 | 52° | 95km/h | 10337m | -13.6m/s | -50.7°C | 13.6% | 254.78hPa | 2.6V | 00:00:00 | 00:00:00 | 00:00:00 | |
| AA1-15 | 2026-08-31 12:47:22 | 53.29478 | 10.98184 | 52° | 100km/h | 10378m | -13.6m/s | -50.8°C | 16.5% | 253.2hPa | 2.6V | 03:01:26 | 02:38:39 | 00:00:00 | |
| DL1XH-west | 2026-08-31 12:47:17 | 53.29400 | 10.98020 | 52° | 100km/h | 10450m | -15.4m/s | -50.8°C | 14.5% | 250.5hPa | 2.6V | 03:01:26 | 02:38:34 | 00:00:00 | |
| BIOWL1-15 | 2026-08-31 12:47:15 | 53.29369 | 10.97953 | 51° | 100km/h | 10479m | -14.1m/s | -50.9°C | 14.1% | 249.4hPa | 2.6V | 03:01:26 | 02:38:32 | 00:00:00 | |
| DF8AY | 2026-08-31 12:47:15 | 53.29273 | 10.97756 | 52° | 100km/h | 10555m | -14.5m/s | -50.5°C | 11.4% | 246.4hPa | 2.6V | 03:01:26 | 02:38:26 | 00:00:00 | |
| DL1XH-15 | 2026-08-31 12:47:14 | 53.29337 | 10.97887 | 52° | 100km/h | 10505m | -13m/s | -50.6°C | 15% | 248.3hPa | 2.6V | 03:01:02 | 02:38:30 | 00:00:00 | |
| DO2SHX-10 | 2026-08-31 12:47:13 | 53.29337 | 10.97887 | 53° | 102km/h | 10505m | -12.9m/s | -50.6°C | 15.0% | 248.3hPa | 2.6V | 00:00:00 | 02:38:30 | 00:00:00 | |
| DM0DOS-11 | 2026-08-31 12:47:12 | 53.29305 | 10.97821 | 50° | 102km/h | 10531m | -12.9m/s | -50.7°C | 14.3% | 247.3hPa | 2.6V | 03:01:04 | 02:38:28 | 00:00:00 | |
| AA1-15 | 2026-08-31 12:47:12 | 53.29305 | 10.97821 | 50° | 102km/h | 10531m | -12.9m/s | -50.7°C | 12.4% | 247.3hPa | 2.6V | 03:01:26 | 02:38:28 | 00:00:00 | |
| DB0DAN | 2026-08-31 12:47:10 | 53.29289 | 10.97789 | 50° | 95km/h | 10543m | -11.5m/s | -50.7°C | 10.2% | 246.82hPa | 2.6V | 00:00:00 | 00:00:00 | 00:00:00 | |
| DL1XH-west | 2026-08-31 12:47:07 | 53.29226 | 10.97659 | 51° | 99km/h | 10599m | -14.9m/s | -50.6°C | 9.9% | 244.8hPa | 2.6V | 03:01:26 | 02:38:23 | 00:00:00 | |
| DM0DOS-11 | 2026-08-31 12:47:07 | 53.29152 | 10.97497 | 52° | 95km/h | 10671m | -14.8m/s | -48.7°C | 9.1% | 242hPa | 2.6V | 03:01:14 | 02:38:18 | 00:00:00 | |
| BIOWL1-15 | 2026-08-31 12:47:05 | 53.29211 | 10.97627 | 51° | 99km/h | 10613m | -15m/s | -50.6°C | 9.4% | 244.3hPa | 2.6V | 03:01:26 | 02:38:22 | 00:00:00 | |
| DF8AY | 2026-08-31 12:47:04 | 53.29195 | 10.97595 | 53° | 99km/h | 10628m | -15.3m/s | -50.5°C | 9% | 243.7hPa | 2.6V | 03:01:26 | 02:38:21 | 00:00:00 | |
| AA1-15 | 2026-08-31 12:47:02 | 53.29138 | 10.97465 | 52° | 97km/h | 10685m | -14.3m/s | -48.7°C | 7% | 241.5hPa | 2.6V | 03:01:26 | 02:38:17 | 00:00:00 | |
| DL1XH-west | 2026-08-31 12:46:56 | 53.29077 | 10.97344 | 49° | 93km/h | 10745m | -14.7m/s | -48.7°C | 5.7% | 239.4hPa | 2.7V | 03:01:26 | 02:38:13 | 00:00:00 | |
| DF7ER-10 | 2026-08-31 12:46:56 | 53.29077 | 10.97344 | 50° | 93km/h | 10745m | -14.7m/s | -48.7°C | 5.1% | 239.4hPa | 2.6V | 00:00:00 | 00:00:00 | 00:00:00 | |
| DO2SHX-10 | 2026-08-31 12:46:55 | 53.29062 | 10.97314 | 51° | 95km/h | 10759m | -15.0m/s | -48.6°C | 7.4% | 238.9hPa | 2.6V | 00:00:00 | 02:38:12 | 00:00:00 | |
| DL1XH-15 | 2026-08-31 12:46:54 | 53.29033 | 10.97253 | 51° | 95km/h | 10788m | -14.7m/s | -48.9°C | 6.9% | 237.8hPa | 2.6V | 03:01:22 | 02:38:10 | 00:00:00 | |
| BIOWL1-15 | 2026-08-31 12:46:54 | 53.28947 | 10.97045 | 59° | 104km/h | 10873m | -15.4m/s | -46.9°C | 2.1% | 234.8hPa | 2.6V | 03:03:08 | 02:38:04 | 00:00:00 | |
| DF8AY | 2026-08-31 12:46:53 | 53.29032 | 10.97253 | 52° | 97km/h | 10788m | -14.7m/s | -48.9°C | 4.6% | 237.8hPa | 2.6V | 03:01:26 | 02:38:10 | 00:00:00 | |
| DM0DOS-11 | 2026-08-31 12:46:53 | 53.29004 | 10.97187 | 54° | 99km/h | 10814m | -13.9m/s | -48.6°C | 6.3% | 236.8hPa | 2.7V | 03:01:24 | 02:38:08 | 00:00:00 | |
| AA1-15 | 2026-08-31 12:46:52 | 53.28975 | 10.97118 | 57° | 102km/h | 10843m | -14.2m/s | -47.6°C | 2.7% | 235.8hPa | 2.6V | 03:01:26 | 02:38:06 | 00:00:00 | |
| EDDB2-11 | 2026-08-31 12:46:48 | 53.28947 | 10.97045 | 58° | 102km/h | 10873m | -15.4m/s | -46.9°C | 2.5% | 234.8hPa | 2.6V | 00:00:00 | 00:00:00 | 00:00:00 | |
| DM0DOS-11 | 2026-08-31 12:46:46 | 53.28867 | 10.96821 | 59° | 100km/h | 10960m | -14.7m/s | -46.3°C | 3.7% | 231.7hPa | 2.6V | 03:01:34 | 02:37:58 | 00:00:00 | |
| DL1XH1-15 | 2026-08-31 12:46:46 | 53.28893 | 10.96895 | 60° | 104km/h | 10930m | -15.9m/s | -46.4°C | 4% | 232.8hPa | 2.7V | 03:01:32 | 02:38:00 | 00:00:00 | |
| DL1XH-west | 2026-08-31 12:46:46 | 53.28934 | 10.97008 | 59° | 106km/h | 10888m | -15.1m/s | -46.8°C | 1.9% | 234.3hPa | 2.6V | 03:02:17 | 02:38:03 | 00:00:00 | |
| DF8AY | 2026-08-31 12:46:45 | 53.28893 | 10.96895 | 61° | 104km/h | 10930m | -15.9m/s | -46.4°C | 1.4% | 232.8hPa | 2.7V | 03:02:17 | 02:38:00 | 00:00:00 | |
| AA1-15 | 2026-08-31 12:46:41 | 53.28842 | 10.96749 | 61° | 97km/h | 10987m | -14.5m/s | -46.2°C | 0.8% | 230.8hPa | 2.7V | 03:02:17 | 02:37:56 | 00:00:00 | |
| DL1XH-west | 2026-08-31 12:46:36 | 53.28806 | 10.96648 | 60° | 93km/h | 11031m | -14.6m/s | -45.8°C | 0.3% | 229.3hPa | 2.6V | 03:02:17 | 02:37:53 | 00:00:00 | |
| GOEST3-10 | 2026-08-31 12:46:35 | 53.28794 | 10.96614 | 59° | 93km/h | 11044m | -13.5m/s | -45.7°C | 3.1% | 228.7hPa | 2.7V | 00:00:00 | 02:37:52 | 00:00:00 | |
| DL1XH-15 | 2026-08-31 12:46:34 | 53.28769 | 10.96548 | 58° | 93km/h | 11071m | -14.2m/s | -45.8°C | 3.1% | 227.8hPa | 2.7V | 03:01:42 | 02:37:50 | 00:00:00 | |
| AA1-15 | 2026-08-31 12:46:31 | 53.28721 | 10.96416 | 61° | 93km/h | 11128m | -14.4m/s | -45.5°C | 0% | 225.9hPa | 2.7V | 03:02:17 | 02:37:46 | 00:00:00 | |
| DD8BA-10 | 2026-08-31 12:46:31 | 53.28745 | 10.96483 | 58° | 93km/h | 11100m | -15.1m/s | -45.5°C | 2.9% | 226.8hPa | 2.7V | 03:01:00 | 00:00:00 | 00:00:00 | |
| GOEST3-10 | 2026-08-31 12:46:30 | 53.28732 | 10.96450 | 61° | 93km/h | 11114m | -14.6m/s | -45.5°C | 2.9% | 226.3hPa | 2.7V | 00:00:00 | 00:00:00 | 00:00:00 | |
| DO2SHX-10 | 2026-08-31 12:46:29 | 53.28709 | 10.96382 | 61° | 93km/h | 11143m | -15.8m/s | -45.4°C | 2.9% | 225.4hPa | 2.7V | 03:01:00 | 02:37:45 | 00:00:00 | |
| DO9LL-15 | 2026-08-31 12:46:28 | 53.28709 | 10.96382 | 61° | 89km/h | 11143m | -15.8m/s | -45.4°C | 2.9% | 225.4hPa | 2.7V | 00:00:00 | 02:37:45 | 00:00:00 | |
| DM0DOS-11 | 2026-08-31 12:46:26 | 53.28629 | 10.96144 | 59° | 91km/h | 11243m | -14.8m/s | -45.6°C | 2.9% | 222hPa | 2.7V | 03:01:54 | 02:37:38 | 00:00:00 | |
| DL1XH-west | 2026-08-31 12:46:26 | 53.28686 | 10.96313 | 61° | 93km/h | 11172m | -14.4m/s | -45.5°C | 0% | 224.4hPa | 2.6V | 03:02:17 | 02:37:43 | 00:00:00 | |
| BIOWL1-15 | 2026-08-31 12:46:25 | 53.28641 | 10.96177 | 60° | 93km/h | 11229m | -14.3m/s | -45.6°C | 0% | 222.5hPa | 2.6V | 03:03:08 | 02:37:39 | 00:00:00 | |
| DL1XH1-15 | 2026-08-31 12:46:24 | 53.28652 | 10.96211 | 60° | 93km/h | 11215m | -15.2m/s | -45.6°C | 2.9% | 223hPa | 2.6V | 03:01:52 | 02:37:40 | 00:00:00 | |
| AA1-15 | 2026-08-31 12:46:21 | 53.28617 | 10.96111 | 58° | 91km/h | 11257m | -14.3m/s | -45.5°C | 0% | 221.5hPa | 2.7V | 03:02:17 | 02:37:37 | 00:00:00 | |
| DF8AY | 2026-08-31 12:46:19 | 53.28527 | 10.95882 | 54° | 93km/h | 11364m | -16.1m/s | -45.9°C | 0% | 218.1hPa | 2.6V | 03:02:17 | 02:37:30 | 00:00:00 | |
| DL1XH-west | 2026-08-31 12:46:15 | 53.28554 | 10.95945 | 54° | 93km/h | 11334m | -15.4m/s | -45.8°C | 0% | 219.1hPa | 2.7V | 03:02:17 | 02:37:32 | 00:00:00 | |
| GOEST3-10 | 2026-08-31 12:46:15 | 53.28554 | 10.95945 | 54° | 93km/h | 11334m | -15.4m/s | -45.8°C | 2.9% | 219.1hPa | 2.6V | 00:00:00 | 02:37:32 | 00:00:00 | |
| DL1XH1-15 | 2026-08-31 12:46:14 | 53.28527 | 10.95882 | 54° | 93km/h | 11364m | -16.1m/s | -45.9°C | 2.9% | 218.1hPa | 2.6V | 03:02:02 | 02:37:30 | 00:00:00 | |
| DM0DOS-11 | 2026-08-31 12:46:14 | 53.28500 | 10.95819 | 55° | 91km/h | 11393m | -14.7m/s | -45.9°C | 2.9% | 217.1hPa | 2.6V | 03:02:04 | 02:37:28 | 00:00:00 | |
| DF8AY | 2026-08-31 12:46:13 | 53.28465 | 10.95724 | 59° | 88km/h | 11439m | -15.2m/s | -46.1°C | 0% | 215.6hPa | 2.7V | 03:02:17 | 02:37:25 | 00:00:00 | |
| BIOWL1-15 | 2026-08-31 12:46:12 | 53.28500 | 10.95819 | 56° | 91km/h | 11393m | -14.7m/s | -45.9°C | 0% | 217.1hPa | 2.6V | 03:03:08 | 02:37:28 | 00:00:00 | |
| AA1-15 | 2026-08-31 12:46:10 | 53.28488 | 10.95787 | 58° | 88km/h | 11408m | -16.3m/s | -45.9°C | 0% | 216.6hPa | 2.7V | 03:02:17 | 02:37:27 | 00:00:00 | |
| DL1XH-west | 2026-08-31 12:46:04 | 53.28424 | 10.95598 | 62° | 82km/h | 11493m | -14.9m/s | -45.7°C | 0% | 213.8hPa | 2.7V | 03:02:17 | 02:37:21 | 00:00:00 | |
| DO2SHX-10 | 2026-08-31 12:46:04 | 53.28423 | 10.95598 | 62° | 80km/h | 11493m | -14.8m/s | -45.7°C | 2.9% | 213.7hPa | 2.6V | 03:02:00 | 02:37:21 | 00:00:00 | |
| DM0DOS-11 | 2026-08-31 12:46:03 | 53.28395 | 10.95509 | 60° | 78km/h | 11537m | -15.2m/s | -45.9°C | 2.9% | 212.4hPa | 2.6V | 03:02:14 | 02:37:18 | 00:00:00 | |
| AA1-15 | 2026-08-31 12:46:00 | 53.28385 | 10.95480 | 62° | 78km/h | 11551m | -14.6m/s | -46°C | 0% | 211.9hPa | 2.6V | 03:02:17 | 02:37:17 | 00:00:00 | |
| BIOWL1-15 | 2026-08-31 12:45:59 | 53.28376 | 10.95451 | 64° | 78km/h | 11565m | -14.8m/s | -46.1°C | 0% | 211.5hPa | 2.6V | 03:03:08 | 02:37:16 | 00:00:00 | |
| DF8AY | 2026-08-31 12:45:59 | 53.28367 | 10.95422 | 63° | 80km/h | 11578m | -13.7m/s | -46.2°C | 0% | 211hPa | 2.7V | 03:02:17 | 02:37:15 | 00:00:00 | |
| DL3AQ-11 | 2026-08-31 12:45:58 | 53.28358 | 10.95392 | 63° | 78km/h | 11592m | -14.9m/s | -46.3°C | 1.2% | 210.6hPa | 2.6V | 00:00:00 | 00:00:00 | 00:00:00 | |
| BUE01 | 2026-08-31 12:45:56 | 53.28349 | 10.95363 | 63° | 77km/h | 11606m | -14.6m/s | -46.3°C | 1.2% | 210.2hPa | 2.6V | 00:00:00 | 00:00:00 | 00:00:00 | |
| DO2SHX-10 | 2026-08-31 12:45:55 | 53.28340 | 10.95334 | 63° | 80km/h | 11621m | -14.4m/s | -46.2°C | 2.9% | 209.7hPa | 2.6V | 00:00:00 | 02:37:12 | 00:00:00 | |
| DL1XH-15 | 2026-08-31 12:45:54 | 53.28321 | 10.95275 | 62° | 80km/h | 11650m | -16.4m/s | -46.3°C | 2.9% | 208.8hPa | 2.6V | 03:02:22 | 02:37:10 | 00:00:00 | |
| DL1XH-west | 2026-08-31 12:45:53 | 53.28322 | 10.95275 | 63° | 80km/h | 11650m | -16.4m/s | -46.3°C | 0% | 208.9hPa | 2.6V | 03:03:08 | 02:37:10 | 00:00:00 | |
| DM0DOS-11 | 2026-08-31 12:45:52 | 53.28302 | 10.95216 | 60° | 80km/h | 11680m | -14.1m/s | -46.4°C | 3% | 207.9hPa | 2.7V | 03:02:24 | 02:37:08 | 00:00:00 | |
| AA1-15 | 2026-08-31 12:45:50 | 53.28292 | 10.95188 | 59° | 78km/h | 11693m | -14.1m/s | -46.5°C | 0% | 207.5hPa | 2.7V | 03:03:08 | 02:37:07 | 00:00:00 | |
| DF8AY | 2026-08-31 12:45:47 | 53.28261 | 10.95101 | 60° | 80km/h | 11733m | -13.5m/s | -46.6°C | 0% | 206.2hPa | 2.6V | 03:03:08 | 02:37:04 | 00:00:00 | |
| DL1XH1-15 | 2026-08-31 12:45:46 | 53.28217 | 10.94979 | 58° | 89km/h | 11791m | -16.3m/s | -47°C | 2.9% | 204.5hPa | 2.6V | 03:02:32 | 02:37:00 | 00:00:00 | |
| EDDB2-11 | 2026-08-31 12:45:46 | 53.28240 | 10.95041 | 57° | 86km/h | 11761m | -15.2m/s | -46.8°C | 1.2% | 205.4hPa | 2.6V | 00:00:00 | 00:00:00 | 00:00:00 | |
| GOEST3-10 | 2026-08-31 12:45:45 | 53.28240 | 10.95041 | 58° | 88km/h | 11761m | -15.1m/s | -46.8°C | 3.0% | 205.3hPa | 2.6V | 00:00:00 | 02:37:02 | 00:00:00 | |
| DF8AY-15 | 2026-08-31 12:45:44 | 53.28228 | 10.95010 | 59° | 82km/h | 11776m | -15.3m/s | -46.8°C | 2.9% | 204.9hPa | 2.6V | 00:00:00 | 02:37:01 | 00:00:00 | |
| DO2SHX-10 | 2026-08-31 12:45:43 | 53.28217 | 10.94979 | 59° | 89km/h | 11791m | -16.2m/s | -46.9°C | 2.9% | 204.4hPa | 2.6V | 00:00:00 | 02:37:00 | 00:00:00 | |
| DM0DOS-11 | 2026-08-31 12:45:42 | 53.28194 | 10.94915 | 58° | 89km/h | 11822m | -15.3m/s | -47°C | 3% | 203.5hPa | 2.6V | 03:02:34 | 02:36:58 | 00:00:00 | |
| DL1XH-west | 2026-08-31 12:45:42 | 53.28205 | 10.94947 | 58° | 89km/h | 11807m | -15.6m/s | -47°C | 0% | 203.9hPa | 2.6V | 03:03:08 | 02:36:59 | 00:00:00 | |
| AA1-15 | 2026-08-31 12:45:39 | 53.28170 | 10.94852 | 56° | 86km/h | 11852m | -15.6m/s | -46.8°C | 0% | 202.6hPa | 2.7V | 03:03:08 | 02:36:56 | 00:00:00 | |
| AM1SDL-15 | 2026-08-31 12:45:39 | 53.28170 | 10.94852 | 56° | 80km/h | 11852m | -15.5m/s | -46.7°C | 2.9% | 202.6hPa | 2.7V | 00:00:00 | 02:36:56 | 00:00:00 | |
| BIOWL9-15 | 2026-08-31 12:45:38 | 53.28147 | 10.94792 | 57° | 82km/h | 11882m | -15.6m/s | -46.5°C | 1.1% | 201.7hPa | 2.7V | 00:00:00 | 00:00:00 | 00:00:00 | |
| DM0DOS-11 | 2026-08-31 12:45:37 | 53.28084 | 10.94618 | 58° | 78km/h | 11970m | -14.4m/s | -46.9°C | 2.9% | 198.9hPa | 2.7V | 03:02:44 | 02:36:48 | 00:00:00 | |
| DB0UT-7 | 2026-08-31 12:45:37 | 53.28147 | 10.94792 | 58° | 77km/h | 11882m | -15.5m/s | -46.5°C | 2.8% | 201.6hPa | 2.6V | 03:02:00 | 02:36:54 | 00:00:00 | |
| DL1XH-15 | 2026-08-31 12:45:35 | 53.28105 | 10.94675 | 57° | 80km/h | 11942m | -14.6m/s | -46.7°C | 2.9% | 199.8hPa | 2.6V | 03:02:42 | 02:36:50 | 00:00:00 | |
| BIOWL1-15 | 2026-08-31 12:45:34 | 53.28073 | 10.94590 | 56° | 78km/h | 11984m | -15.5m/s | -46.8°C | 0% | 198.6hPa | 2.6V | 03:03:08 | 02:36:47 | 00:00:00 | |
| DL1XH-west | 2026-08-31 12:45:31 | 53.28084 | 10.94618 | 58° | 78km/h | 11970m | -14.4m/s | -46.9°C | 0% | 199hPa | 2.7V | 03:03:08 | 02:36:48 | 00:00:00 | |
| AA1-15 | 2026-08-31 12:45:29 | 53.28062 | 10.94563 | 56° | 78km/h | 11999m | -15.3m/s | -46.7°C | 0% | 198.1hPa | 2.6V | 03:03:08 | 02:36:46 | 00:00:00 | |
| BIOWL1-15 | 2026-08-31 12:45:24 | 53.27904 | 10.94166 | 55° | 77km/h | 12225m | -15.1m/s | -47.4°C | 0% | 191.5hPa | 2.6V | 03:03:08 | 02:36:31 | 00:00:00 | |
| DM0DOS-11 | 2026-08-31 12:45:24 | 53.27979 | 10.94351 | 56° | 71km/h | 12116m | -15m/s | -46.9°C | 2.9% | 194.6hPa | 2.6V | 03:02:54 | 02:36:38 | 00:00:00 | |
| DL1XH-west | 2026-08-31 12:45:21 | 53.27979 | 10.94351 | 56° | 71km/h | 12116m | -15m/s | -46.9°C | 0% | 194.7hPa | 2.6V | 03:03:08 | 02:36:38 | 00:00:00 | |
| DF8AY | 2026-08-31 12:45:20 | 53.27949 | 10.94274 | 56° | 77km/h | 12163m | -16.3m/s | -47.1°C | 0% | 193.4hPa | 2.7V | 03:03:08 | 02:36:35 | 00:00:00 | |
| AA1-15 | 2026-08-31 12:45:19 | 53.27927 | 10.94221 | 55° | 78km/h | 12195m | -16.3m/s | -47.3°C | 0% | 192.4hPa | 2.6V | 03:03:08 | 02:36:33 | 00:00:00 | |
| TFSTFS | 2026-08-31 12:45:18 | 53.27949 | 10.94273 | 57° | 77km/h | 12163m | -16.3m/s | -47.1°C | 1.1% | 193.4hPa | 2.6V | 00:00:00 | 00:00:00 | 00:00:00 | |
| DO2SHX-10 | 2026-08-31 12:45:16 | 53.27927 | 10.94221 | 55° | 78km/h | 12195m | -16.3m/s | -47.2°C | 2.9% | 192.3hPa | 2.6V | 03:02:00 | 02:36:33 | 00:00:00 | |
| GOEST3-10 | 2026-08-31 12:45:15 | 53.27915 | 10.94193 | 57° | 77km/h | 12210m | -16.1m/s | -47.3°C | 3.0% | 191.9hPa | 2.7V | 00:00:00 | 02:36:32 | 00:00:00 | |
| DL1XH-15 | 2026-08-31 12:45:14 | 53.27893 | 10.94140 | 52° | 75km/h | 12240m | -15.2m/s | -47.5°C | 3% | 191.1hPa | 2.7V | 03:03:02 | 02:36:30 | 00:00:00 | |
| BIOWL1-15 | 2026-08-31 12:45:14 | 53.27882 | 10.94114 | 53° | 77km/h | 12255m | -14.3m/s | -47.6°C | 0% | 190.6hPa | 2.7V | 03:03:08 | 02:36:29 | 00:00:00 | |
| DL1XH-west | 2026-08-31 12:45:10 | 53.27860 | 10.94063 | 50° | 73km/h | 12283m | -15.6m/s | -47.4°C | 0% | 189.9hPa | 2.6V | 03:03:08 | 02:36:27 | 00:00:00 | |
| AA1-15 | 2026-08-31 12:45:08 | 53.27837 | 10.94014 | 51° | 73km/h | 12313m | -15.1m/s | -47.2°C | 0% | 189hPa | 2.6V | 03:03:08 | 02:36:25 | 00:00:00 | |
| DF8AY | 2026-08-31 12:45:08 | 53.27825 | 10.93990 | 50° | 75km/h | 12328m | -15.6m/s | -47.3°C | 0% | 188.6hPa | 2.7V | 03:03:08 | 02:36:24 | 00:00:00 | |
| BIOWL1-15 | 2026-08-31 12:45:02 | 53.27684 | 10.93626 | 62° | 73km/h | 12536m | -16.2m/s | -47.6°C | 0% | 182.7hPa | 2.7V | 03:03:59 | 02:36:10 | 00:00:00 | |
| DL1XH-west | 2026-08-31 12:45:01 | 53.27750 | 10.93811 | 57° | 73km/h | 12431m | -15.7m/s | -47°C | 0% | 185.7hPa | 2.7V | 03:03:59 | 02:36:17 | 00:00:00 | |
| AA1-15 | 2026-08-31 12:44:57 | 53.27712 | 10.93705 | 61° | 73km/h | 12492m | -15.6m/s | -47.3°C | 0% | 183.9hPa | 2.6V | 03:03:59 | 02:36:13 | 00:00:00 | |
| EDDB2-12 | 2026-08-31 12:44:57 | 53.27721 | 10.93732 | 60° | 71km/h | 12478m | -16.3m/s | -47.2°C | 1.0% | 184.3hPa | 2.6V | 00:00:00 | 00:00:00 | 00:00:00 | |
| DM0DOS-11 | 2026-08-31 12:44:56 | 53.27667 | 10.93571 | 62° | 75km/h | 12568m | -15.8m/s | -47.9°C | 3% | 181.8hPa | 2.6V | 03:03:24 | 02:36:08 | 00:00:00 | |
| DF8AY | 2026-08-31 12:44:56 | 53.27703 | 10.93679 | 59° | 73km/h | 12507m | -15.2m/s | -47.4°C | 0% | 183.4hPa | 2.7V | 03:04:50 | 02:36:12 | 00:00:00 | |
| DB0DAN | 2026-08-31 12:44:55 | 53.27703 | 10.93679 | 59° | 69km/h | 12507m | -15.2m/s | -47.4°C | 1.1% | 183.45hPa | 2.7V | 00:00:00 | 00:00:00 | 00:00:00 | |
| DL1XH1-15 | 2026-08-31 12:44:55 | 53.27684 | 10.93626 | 62° | 73km/h | 12536m | -16.2m/s | -47.6°C | 2.9% | 182.7hPa | 2.7V | 03:03:22 | 02:36:10 | 00:00:00 | |
| DL1XH-west | 2026-08-31 12:44:50 | 53.27658 | 10.93542 | 64° | 75km/h | 12583m | -15.4m/s | -48°C | 0% | 181.4hPa | 2.6V | 03:03:59 | 02:36:07 | 00:00:00 | |
| GOEST3-10 | 2026-08-31 12:44:50 | 53.27658 | 10.93542 | 64° | 78km/h | 12583m | -15.4m/s | -48.0°C | 3.1% | 181.3hPa | 2.7V | 00:00:00 | 00:00:00 | 00:00:00 | |
| DO2SHX-10 | 2026-08-31 12:44:49 | 53.27650 | 10.93514 | 63° | 77km/h | 12598m | -13.9m/s | -48.1°C | 3.1% | 180.9hPa | 2.7V | 00:00:00 | 02:36:06 | 00:00:00 | |
| DL1XH1-15 | 2026-08-31 12:44:48 | 53.27596 | 10.93335 | 63° | 78km/h | 12687m | -16.2m/s | -48°C | 3% | 178.6hPa | 2.7V | 03:03:32 | 02:36:00 | 00:00:00 | |
| BIOWL1-15 | 2026-08-31 12:44:47 | 53.27632 | 10.93456 | 62° | 78km/h | 12627m | -15.8m/s | -48.1°C | 0% | 180.2hPa | 2.7V | 03:03:59 | 02:36:04 | 00:00:00 | |
| DM0DOS-11 | 2026-08-31 12:44:46 | 53.27571 | 10.93247 | 67° | 77km/h | 12733m | -15.1m/s | -48°C | 3.1% | 177.2hPa | 2.6V | 03:03:35 | 02:35:57 | 00:00:00 | |
| DF8AY | 2026-08-31 12:44:45 | 53.27614 | 10.93395 | 64° | 82km/h | 12657m | -15.5m/s | -48°C | 0% | 179.4hPa | 2.6V | 03:04:50 | 02:36:02 | 00:00:00 | |
| GOEST3-10 | 2026-08-31 12:44:45 | 53.27614 | 10.93395 | 64° | 78km/h | 12657m | -15.4m/s | -47.9°C | 3.0% | 179.3hPa | 2.6V | 00:00:00 | 02:36:02 | 00:00:00 | |
| DF8AY-15 | 2026-08-31 12:44:44 | 53.27605 | 10.93365 | 63° | 69km/h | 12672m | -15.9m/s | -47.9°C | 3.0% | 179.0hPa | 2.6V | 00:00:00 | 02:36:01 | 00:00:00 | |
| DO2SHX-10 | 2026-08-31 12:44:43 | 53.27596 | 10.93335 | 64° | 77km/h | 12688m | -16.2m/s | -47.9°C | 3.0% | 178.5hPa | 2.6V | 00:00:00 | 02:36:00 | 00:00:00 | |
| DB0DAN | 2026-08-31 12:44:40 | 53.27571 | 10.93247 | 68° | 73km/h | 12733m | -15.1m/s | -48°C | 1.1% | 177.25hPa | 2.6V | 00:00:00 | 00:00:00 | 00:00:00 | |
| DL1XH-west | 2026-08-31 12:44:39 | 53.27564 | 10.93219 | 67° | 73km/h | 12747m | -14.8m/s | -47.9°C | 0% | 176.9hPa | 2.6V | 03:03:59 | 02:35:56 | 00:00:00 | |
| AA1-15 | 2026-08-31 12:44:37 | 53.27543 | 10.93135 | 69° | 69km/h | 12789m | -15m/s | -47.8°C | 0% | 175.8hPa | 2.7V | 03:03:59 | 02:35:53 | 00:00:00 | |
| DF8AY | 2026-08-31 12:44:34 | 53.27530 | 10.93082 | 67° | 68km/h | 12820m | -16.4m/s | -47.8°C | 0% | 175hPa | 2.6V | 03:04:50 | 02:35:51 | 00:00:00 | |
| DL1XH1-15 | 2026-08-31 12:44:34 | 53.27523 | 10.93057 | 63° | 68km/h | 12835m | -16.1m/s | -47.9°C | 3% | 174.6hPa | 2.7V | 03:03:42 | 02:35:50 | 00:00:00 | |
| DL1XH-west | 2026-08-31 12:44:30 | 53.27492 | 10.92956 | 62° | 64km/h | 12894m | -14.8m/s | -47.9°C | 0% | 173.1hPa | 2.7V | 03:03:59 | 02:35:46 | 00:00:00 | |
| BIOWL1-15 | 2026-08-31 12:44:26 | 53.27469 | 10.92884 | 59° | 62km/h | 12934m | -14.4m/s | -47.9°C | 0% | 172hPa | 2.6V | 03:03:59 | 02:35:43 | 00:00:00 | |
| DB0DAN | 2026-08-31 12:44:25 | 53.27461 | 10.92862 | 58° | 60km/h | 12948m | -15.2m/s | -48°C | 1.1% | 171.67hPa | 2.7V | 00:00:00 | 00:00:00 | 00:00:00 | |
| DF8AY | 2026-08-31 12:44:25 | 53.27453 | 10.92840 | 57° | 64km/h | 12963m | -15.3m/s | -48.1°C | 0% | 171.3hPa | 2.7V | 03:04:50 | 02:35:41 | 00:00:00 | |
| DL1XH1-15 | 2026-08-31 12:44:24 | 53.27444 | 10.92817 | 55° | 68km/h | 12978m | -16.8m/s | -48.2°C | 3.1% | 170.9hPa | 2.6V | 03:03:52 | 02:35:40 | 00:00:00 | |
| DL1XH-west | 2026-08-31 12:44:18 | 53.27391 | 10.92704 | 48° | 69km/h | 13054m | -15.3m/s | -48.6°C | 0% | 168.9hPa | 2.6V | 03:03:59 | 02:35:35 | 00:00:00 | |
| BIOWL1-15 | 2026-08-31 12:44:16 | 53.27223 | 10.92441 | 39° | 82km/h | 13252m | -18m/s | -47.9°C | 0% | 164.1hPa | 2.6V | 03:04:50 | 02:35:23 | 00:00:00 | |
| AA1-15 | 2026-08-31 12:44:15 | 53.27354 | 10.92635 | 45° | 75km/h | 13101m | -17.3m/s | -47.8°C | 0% | 167.8hPa | 2.7V | 03:04:50 | 02:35:32 | 00:00:00 | |
| DF8AY | 2026-08-31 12:44:12 | 53.27313 | 10.92571 | 43° | 73km/h | 13151m | -18.2m/s | -47.3°C | 0% | 166.6hPa | 2.6V | 03:04:50 | 02:35:29 | 00:00:00 | |
| DM0DOS-11 | 2026-08-31 12:44:12 | 53.27299 | 10.92549 | 42° | 77km/h | 13168m | -17.5m/s | -47.3°C | 3% | 166.1hPa | 2.6V | 03:04:04 | 02:35:28 | 00:00:00 | |
| NBG1-10 | 2026-08-31 12:44:12 | 53.27313 | 10.92571 | 44° | 66km/h | 13151m | -18.2m/s | -47.2°C | 3.0% | 166.5hPa | 2.7V | 00:00:00 | 02:35:29 | 00:00:00 | |
| DB0DAN | 2026-08-31 12:44:10 | 53.27285 | 10.92528 | 41° | 75km/h | 13185m | -16.9m/s | -47.5°C | 1% | 165.69hPa | 2.7V | 00:00:00 | 00:00:00 | 00:00:00 | |
| DL1XH-west | 2026-08-31 12:44:08 | 53.27255 | 10.92484 | 40° | 80km/h | 13219m | -16.9m/s | -47.7°C | 0% | 164.8hPa | 2.7V | 03:04:50 | 02:35:25 | 00:00:00 | |
| AM1SDL-15 | 2026-08-31 12:44:08 | 53.27255 | 10.92484 | 41° | 82km/h | 13219m | -16.9m/s | -47.7°C | 3.0% | 164.8hPa | 2.6V | 00:00:00 | 02:35:25 | 00:00:00 | |
| DB0UT-7 | 2026-08-31 12:44:07 | 53.27239 | 10.92463 | 38° | 75km/h | 13235m | -16.6m/s | -47.8°C | 3.1% | 164.4hPa | 2.6V | 00:00:00 | 00:00:00 | 00:00:00 | |
| DM0DOS-11 | 2026-08-31 12:44:06 | 53.27144 | 10.92325 | 45° | 84km/h | 13332m | -15.9m/s | -48.3°C | 3.2% | 162hPa | 2.6V | 03:04:14 | 02:35:18 | 00:00:00 | |
| AA1-15 | 2026-08-31 12:44:05 | 53.27207 | 10.92419 | 40° | 82km/h | 13269m | -17.2m/s | -48°C | 0% | 163.6hPa | 2.6V | 03:04:50 | 02:35:22 | 00:00:00 | |
| GOEST3-10 | 2026-08-31 12:44:05 | 53.27207 | 10.92419 | 41° | 84km/h | 13270m | -17.2m/s | -48.0°C | 3.1% | 163.6hPa | 2.7V | 00:00:00 | 02:35:22 | 00:00:00 | |
| DL1XH1-15 | 2026-08-31 12:44:04 | 53.27175 | 10.92373 | 39° | 84km/h | 13301m | -15.2m/s | -48.2°C | 3.2% | 162.7hPa | 2.7V | 03:04:12 | 02:35:20 | 00:00:00 | |
| DF8AY | 2026-08-31 12:44:02 | 53.27159 | 10.92350 | 42° | 84km/h | 13316m | -16m/s | -48.3°C | 0% | 162.4hPa | 2.7V | 03:04:50 | 02:35:19 | 00:00:00 | |
| BIOWL1-15 | 2026-08-31 12:44:00 | 53.27129 | 10.92300 | 45° | 84km/h | 13347m | -13.7m/s | -48.1°C | 0% | 161.6hPa | 2.6V | 03:04:50 | 02:35:17 | 00:00:00 | |
| GOEST3-10 | 2026-08-31 12:44:00 | 53.27129 | 10.92300 | 46° | 80km/h | 13347m | -13.7m/s | -48.0°C | 3.1% | 161.5hPa | 2.7V | 03:04:00 | 00:00:00 | 00:00:00 | |
| DL1XH1-15 | 2026-08-31 12:43:58 | 53.27032 | 10.92092 | 53° | 75km/h | 13472m | -17.5m/s | -47.3°C | 2.9% | 158.6hPa | 2.7V | 03:04:23 | 02:35:09 | 00:00:00 | |
| DL1XH-west | 2026-08-31 12:43:58 | 53.27089 | 10.92223 | 50° | 77km/h | 13394m | -18.7m/s | -47.6°C | 0% | 160.6hPa | 2.7V | 03:04:50 | 02:35:14 | 00:00:00 | |
| DL3AQ-11 | 2026-08-31 12:43:58 | 53.27089 | 10.92223 | 50° | 77km/h | 13394m | -18.7m/s | -47.6°C | 1.0% | 160.6hPa | 2.6V | 00:00:00 | 00:00:00 | 00:00:00 | |
| SONDE2-11 | 2026-08-31 12:43:56 | 53.27077 | 10.92197 | 52° | 77km/h | 13412m | -17.4m/s | -47.5°C | 1.0% | 160.1hPa | 2.6V | 00:00:00 | 00:00:00 | 00:00:00 | |
| DB0DAN | 2026-08-31 12:43:55 | 53.27066 | 10.92171 | 54° | 75km/h | 13428m | -16.3m/s | -47.5°C | 1% | 159.65hPa | 2.6V | 00:00:00 | 00:00:00 | 00:00:00 | |
| BIOWL1-15 | 2026-08-31 12:43:55 | 53.26998 | 10.92015 | 53° | 73km/h | 13522m | -16.8m/s | -47.1°C | 0% | 157.4hPa | 2.6V | 03:04:50 | 02:35:06 | 00:00:00 | |
| AA1-15 | 2026-08-31 12:43:55 | 53.27009 | 10.92041 | 52° | 75km/h | 13505m | -17.2m/s | -47°C | 0% | 157.8hPa | 2.7V | 03:04:50 | 02:35:07 | 00:00:00 | |
| DM0DOS-11 | 2026-08-31 12:43:54 | 53.27020 | 10.92066 | 52° | 75km/h | 13489m | -16.6m/s | -47.2°C | 2.8% | 158.2hPa | 2.7V | 03:04:24 | 02:35:08 | 00:00:00 | |
| DF8AY | 2026-08-31 12:43:53 | 53.27032 | 10.92092 | 53° | 77km/h | 13472m | -17.5m/s | -47.3°C | 0% | 158.6hPa | 2.7V | 03:04:50 | 02:35:09 | 00:00:00 | |
| DL1XH-west | 2026-08-31 12:43:47 | 53.26966 | 10.91940 | 56° | 71km/h | 13570m | -15.9m/s | -47.4°C | 0% | 156.2hPa | 2.7V | 03:04:50 | 02:35:03 | 00:00:00 | |
| DL1XH1-15 | 2026-08-31 12:43:47 | 53.26929 | 10.91842 | 58° | 64km/h | 13640m | -18.1m/s | -47.2°C | 2.8% | 154.7hPa | 2.6V | 03:04:33 | 02:34:59 | 00:00:00 | |
| DL1XH-15 | 2026-08-31 12:43:46 | 53.26937 | 10.91866 | 57° | 66km/h | 13622m | -18.9m/s | -47.1°C | 2.8% | 155.2hPa | 2.6V | 03:04:32 | 02:35:00 | 00:00:00 | |
| DL3AQ-11 | 2026-08-31 12:43:45 | 53.26947 | 10.91890 | 54° | 68km/h | 13604m | -18.9m/s | -47.1°C | 0.9% | 155.6hPa | 2.6V | 00:00:00 | 00:00:00 | 00:00:00 | |
| SONCRA | 2026-08-31 12:43:44 | 53.26947 | 10.91890 | 54° | 68km/h | 13604m | -18.9m/s | -47.1°C | 0.9% | 155.6hPa | 2.6V | 00:00:00 | 00:00:00 | 00:00:00 | |
| AA1-15 | 2026-08-31 12:43:43 | 53.26937 | 10.91866 | 58° | 66km/h | 13622m | -18.9m/s | -47.1°C | 0% | 155.2hPa | 2.6V | 03:04:50 | 02:35:00 | 00:00:00 | |
| DF8AY | 2026-08-31 12:43:42 | 53.26920 | 10.91819 | 58° | 64km/h | 13657m | -17.8m/s | -47.3°C | 0% | 154.2hPa | 2.6V | 03:04:50 | 02:34:58 | 00:00:00 | |
| BIOWL1-15 | 2026-08-31 12:43:41 | 53.26903 | 10.91774 | 56° | 62km/h | 13689m | -16.5m/s | -47.6°C | 0% | 153.4hPa | 2.7V | 03:04:50 | 02:34:56 | 00:00:00 | |
| DB0DAN | 2026-08-31 12:43:40 | 53.26912 | 10.91796 | 57° | 60km/h | 13674m | -16.8m/s | -47.5°C | 0.9% | 153.82hPa | 2.7V | 00:00:00 | 00:00:00 | 00:00:00 | |
| DL1XH-west | 2026-08-31 12:43:36 | 53.26878 | 10.91711 | 53° | 58km/h | 13737m | -15.3m/s | -48°C | 0% | 152.3hPa | 2.6V | 03:04:50 | 02:34:53 | 00:00:00 | |
| GOEST3-10 | 2026-08-31 12:43:35 | 53.26868 | 10.91691 | 52° | 57km/h | 13752m | -15.4m/s | -48.1°C | 3.0% | 151.9hPa | 2.7V | 00:00:00 | 02:34:52 | 00:00:00 | |
| DL1XH-15 | 2026-08-31 12:43:34 | 53.26850 | 10.91654 | 47° | 57km/h | 13783m | -17.3m/s | -48.1°C | 3.1% | 151.2hPa | 2.7V | 03:04:42 | 02:34:50 | 00:00:00 | |
| AA1-15 | 2026-08-31 12:43:32 | 53.26840 | 10.91637 | 47° | 57km/h | 13800m | -17.2m/s | -48°C | 0% | 150.8hPa | 2.7V | 03:04:50 | 02:34:49 | 00:00:00 | |
| DM0DOS-11 | 2026-08-31 12:43:32 | 53.26831 | 10.91619 | 46° | 57km/h | 13816m | -16.3m/s | -48°C | 3% | 150.4hPa | 2.6V | 03:04:44 | 02:34:48 | 00:00:00 | |
| BIOWL1-15 | 2026-08-31 12:43:31 | 53.26812 | 10.91585 | 47° | 55km/h | 13848m | -16.4m/s | -48°C | 0% | 149.8hPa | 2.6V | 03:04:50 | 02:34:46 | 00:00:00 | |
| DF8AY | 2026-08-31 12:43:30 | 53.26821 | 10.91602 | 46° | 55km/h | 13833m | -17m/s | -48°C | 0% | 150.1hPa | 2.6V | 03:04:50 | 02:34:47 | 00:00:00 | |
| GOEST3-10 | 2026-08-31 12:43:30 | 53.26821 | 10.91602 | 47° | 57km/h | 13833m | -17.0m/s | -48.0°C | 3.0% | 150.1hPa | 2.6V | 00:00:00 | 00:00:00 | 00:00:00 | |
| DL1LOL-11 | 2026-08-31 12:43:29 | 53.26821 | 10.91602 | 47° | 55km/h | 13833m | -17.0m/s | -48.0°C | 0.9% | 150.1hPa | 2.6V | 00:00:00 | 00:00:00 | 00:00:00 | |
| DL1XH-15 | 2026-08-31 12:43:28 | 53.26749 | 10.91490 | 38° | 58km/h | 13945m | -17.8m/s | -48°C | 3% | 147.7hPa | 2.6V | 03:04:52 | 02:34:40 | 00:00:00 | |
| DO2SHX-10 | 2026-08-31 12:43:28 | 53.26802 | 10.91568 | 45° | 57km/h | 13864m | -16.3m/s | -47.9°C | 3.0% | 149.3hPa | 2.7V | 03:04:00 | 02:34:45 | 00:00:00 | |
| DL1XH1-15 | 2026-08-31 12:43:27 | 53.26738 | 10.91475 | 35° | 57km/h | 13961m | -16.3m/s | -48°C | 3% | 147.3hPa | 2.7V | 03:04:53 | 02:34:39 | 00:00:00 | |
| DL1XH-west | 2026-08-31 12:43:26 | 53.26771 | 10.91521 | 40° | 55km/h | 13910m | -16.9m/s | -47.9°C | 0% | 148.4hPa | 2.6V | 03:04:50 | 02:34:42 | 00:00:00 | |
| AA1-15 | 2026-08-31 12:43:22 | 53.26737 | 10.91475 | 36° | 57km/h | 13961m | -16.3m/s | -48°C | 0% | 147.3hPa | 2.7V | 03:05:41 | 02:34:39 | 00:00:00 | |
| DF8AY | 2026-08-31 12:43:21 | 53.26712 | 10.91447 | 33° | 64km/h | 13993m | -16.1m/s | -47.8°C | 0% | 146.5hPa | 2.7V | 03:08:14 | 02:34:37 | 00:00:00 | |
| BIOWL1-15 | 2026-08-31 12:43:18 | 53.26661 | 10.91384 | 36° | 66km/h | 14057m | -17.7m/s | -47.9°C | 0% | 145.1hPa | 2.7V | 03:05:41 | 02:34:33 | 00:00:00 | |
| DL1XH-west | 2026-08-31 12:43:15 | 53.26634 | 10.91353 | 34° | 64km/h | 14094m | -19.3m/s | -47.8°C | 0% | 144.3hPa | 2.7V | 03:05:41 | 02:34:31 | 00:00:00 | |
| GOEST3-10 | 2026-08-31 12:43:15 | 53.26647 | 10.91368 | 35° | 64km/h | 14075m | -19.6m/s | -47.7°C | 2.8% | 144.7hPa | 2.6V | 00:00:00 | 02:34:32 | 00:00:00 | |
| DL1XH1-15 | 2026-08-31 12:43:14 | 53.26608 | 10.91322 | 35° | 62km/h | 14131m | -19.1m/s | -47.9°C | 2.9% | 143.6hPa | 2.6V | 03:05:03 | 02:34:29 | 00:00:00 | |
| DL1XH-15 | 2026-08-31 12:43:14 | 53.26620 | 10.91337 | 34° | 64km/h | 14112m | -18.3m/s | -47.9°C | 2.9% | 144hPa | 2.6V | 03:05:02 | 02:34:30 | 00:00:00 | |
| AA1-15 | 2026-08-31 12:43:11 | 53.26594 | 10.91307 | 36° | 62km/h | 14149m | -18.4m/s | -47.8°C | 0% | 143.1hPa | 2.6V | 03:05:41 | 02:34:28 | 00:00:00 | |
| DB0DAN | 2026-08-31 12:43:10 | 53.26581 | 10.91291 | 38° | 64km/h | 14167m | -19m/s | -47.8°C | 0.9% | 142.78hPa | 2.7V | 00:00:00 | 00:00:00 | 00:00:00 | |
| GOEST3-10 | 2026-08-31 12:43:10 | 53.26581 | 10.91291 | 38° | 68km/h | 14167m | -19.0m/s | -47.7°C | 2.9% | 142.7hPa | 2.7V | 00:00:00 | 00:00:00 | 00:00:00 | |
| DL1XH-15 | 2026-08-31 12:43:08 | 53.26489 | 10.91154 | 43° | 75km/h | 14292m | -17.6m/s | -47.9°C | 3% | 140.1hPa | 2.7V | 03:05:12 | 02:34:20 | 00:00:00 | |
| DL1XH1-15 | 2026-08-31 12:43:07 | 53.26462 | 10.91109 | 46° | 78km/h | 14327m | -18.7m/s | -47.9°C | 3% | 139.4hPa | 2.6V | 03:05:14 | 02:34:18 | 00:00:00 | |
| BIOWL1-15 | 2026-08-31 12:43:06 | 53.26517 | 10.91196 | 42° | 71km/h | 14256m | -18.5m/s | -47.7°C | 0% | 140.9hPa | 2.6V | 03:05:41 | 02:34:22 | 00:00:00 | |
| DL1XH-west | 2026-08-31 12:43:04 | 53.26503 | 10.91176 | 42° | 73km/h | 14274m | -18.5m/s | -47.8°C | 0% | 140.6hPa | 2.7V | 03:05:41 | 02:34:21 | 00:00:00 | |
| AA1-15 | 2026-08-31 12:43:00 | 53.26448 | 10.91085 | 48° | 80km/h | 14346m | -18.7m/s | -47.9°C | 0% | 139hPa | 2.6V | 03:05:41 | 02:34:17 | 00:00:00 | |
| GOEST3-10 | 2026-08-31 12:43:00 | 53.26448 | 10.91085 | 48° | 84km/h | 14346m | -18.6m/s | -47.9°C | 3.0% | 139.0hPa | 2.6V | 03:05:00 | 00:00:00 | 00:00:00 | |
| AP2371 | 2026-08-31 12:42:59 | 53.26448 | 10.91085 | 49° | 80km/h | 14346m | -18.7m/s | -47.9°C | 0.9% | 139.0hPa | 2.6V | 00:00:00 | 00:00:00 | 00:00:00 | |
| DO2SHX-10 | 2026-08-31 12:42:58 | 53.26421 | 10.91032 | 50° | 86km/h | 14381m | -18.3m/s | -48.1°C | 3.0% | 138.2hPa | 2.6V | 00:00:00 | 02:34:15 | 00:00:00 | |
| DB0DAN | 2026-08-31 12:42:55 | 53.26381 | 10.90947 | 55° | 82km/h | 14435m | -16.8m/s | -48.4°C | 0.9% | 137.14hPa | 2.6V | 00:00:00 | 00:00:00 | 00:00:00 | |
| BIOWL1-15 | 2026-08-31 12:42:55 | 53.26381 | 10.90947 | 55° | 86km/h | 14435m | -16.8m/s | -48.4°C | 0% | 137.1hPa | 2.6V | 03:05:41 | 02:34:12 | 00:00:00 | |
| DO2SHX-10 | 2026-08-31 12:42:55 | 53.26381 | 10.90947 | 55° | 84km/h | 14435m | -16.8m/s | -48.4°C | 3.1% | 137.1hPa | 2.7V | 00:00:00 | 02:34:12 | 00:00:00 | |
| DL1XH1-15 | 2026-08-31 12:42:54 | 53.26334 | 10.90833 | 54° | 80km/h | 14501m | -17.7m/s | -47.7°C | 2.9% | 135.8hPa | 2.7V | 03:05:24 | 02:34:08 | 00:00:00 | |
| DL1XH-15 | 2026-08-31 12:42:54 | 53.26357 | 10.90890 | 55° | 82km/h | 14467m | -17.4m/s | -48.1°C | 3% | 136.4hPa | 2.6V | 03:05:22 | 02:34:10 | 00:00:00 | |
| DL1XH-west | 2026-08-31 12:42:54 | 53.26369 | 10.90918 | 54° | 84km/h | 14451m | -16.6m/s | -48.4°C | 0% | 136.8hPa | 2.6V | 03:05:41 | 02:34:11 | 00:00:00 | |
| DF8AY | 2026-08-31 12:42:52 | 53.26334 | 10.90833 | 55° | 80km/h | 14501m | -17.7m/s | -47.7°C | 0% | 135.8hPa | 2.7V | 03:08:14 | 02:34:08 | 00:00:00 | |
| AA1-15 | 2026-08-31 12:42:49 | 53.26312 | 10.90780 | 56° | 73km/h | 14537m | -17.7m/s | -47.4°C | 0% | 135hPa | 2.6V | 03:05:41 | 02:34:06 | 00:00:00 | |
| DL1XH-15 | 2026-08-31 12:42:49 | 53.26255 | 10.90611 | 68° | 62km/h | 14658m | -18.4m/s | -47.2°C | 2.8% | 132.5hPa | 2.6V | 03:05:33 | 02:33:59 | 00:00:00 | |
| BIOWL1-15 | 2026-08-31 12:42:45 | 53.26275 | 10.90683 | 61° | 64km/h | 14604m | -16.7m/s | -47.4°C | 0% | 133.6hPa | 2.7V | 03:05:41 | 02:34:02 | 00:00:00 | |
| DK1YY | 2026-08-31 12:42:45 | 53.26268 | 10.90659 | 66° | 62km/h | 14621m | -18.1m/s | -47.4°C | 0.7% | 133.3hPa | 2.6V | 00:00:00 | 00:00:00 | 00:00:00 | |
| DL1XH-west | 2026-08-31 12:42:44 | 53.26261 | 10.90635 | 67° | 64km/h | 14639m | -19.2m/s | -47.4°C | 0% | 132.9hPa | 2.6V | 03:05:41 | 02:34:00 | 00:00:00 | |
| DF8AY-15 | 2026-08-31 12:42:44 | 53.26268 | 10.90659 | 67° | 64km/h | 14622m | -18.0m/s | -47.4°C | 2.7% | 133.2hPa | 2.6V | 03:05:00 | 02:34:01 | 00:00:00 | |
| DM0DOS-11 | 2026-08-31 12:42:43 | 53.26250 | 10.90587 | 68° | 60km/h | 14675m | -17.8m/s | -47.2°C | 2.8% | 132.1hPa | 2.6V | 03:05:34 | 02:33:58 | 00:00:00 | |
| DF8AY | 2026-08-31 12:42:41 | 53.26232 | 10.90520 | 67° | 58km/h | 14724m | -16.3m/s | -47.2°C | 0% | 131.2hPa | 2.7V | 03:08:14 | 02:33:55 | 00:00:00 | |
| DF7ER-10 | 2026-08-31 12:42:41 | 53.26255 | 10.90611 | 69° | 62km/h | 14658m | -18.4m/s | -47.2°C | 0.8% | 132.5hPa | 2.7V | 03:05:00 | 00:00:00 | 00:00:00 | |
| DB0DAN | 2026-08-31 12:42:40 | 53.26244 | 10.90564 | 67° | 57km/h | 14692m | -16.2m/s | -47.3°C | 0.8% | 131.81hPa | 2.7V | 00:00:00 | 00:00:00 | 00:00:00 | |
| AA1-15 | 2026-08-31 12:42:39 | 53.26238 | 10.90542 | 67° | 58km/h | 14708m | -16.4m/s | -47.2°C | 0% | 131.5hPa | 2.7V | 03:05:41 | 02:33:56 | 00:00:00 | |
| DL1XH-west | 2026-08-31 12:42:32 | 53.26193 | 10.90380 | 64° | 66km/h | 14828m | -17.8m/s | -47.6°C | 0% | 129.2hPa | 2.7V | 03:06:32 | 02:33:49 | 00:00:00 | |
| DF8AY | 2026-08-31 12:42:31 | 53.26121 | 10.90036 | 81° | 64km/h | 15067m | -18.5m/s | -48°C | 0% | 124.7hPa | 2.6V | 03:08:14 | 02:33:36 | 00:00:00 | |
| AA1-15 | 2026-08-31 12:42:28 | 53.26164 | 10.90280 | 68° | 69km/h | 14901m | -20.7m/s | -47.8°C | 0% | 127.8hPa | 2.7V | 03:06:32 | 02:33:45 | 00:00:00 | |
| DO2SHX-10 | 2026-08-31 12:42:28 | 53.26164 | 10.90280 | 68° | 69km/h | 14901m | -20.7m/s | -47.8°C | 2.8% | 127.8hPa | 2.6V | 03:05:00 | 02:33:45 | 00:00:00 | |
| DB0DAN | 2026-08-31 12:42:25 | 53.26146 | 10.90199 | 74° | 66km/h | 14957m | -18.2m/s | -48°C | 0.8% | 126.68hPa | 2.6V | 00:00:00 | 00:00:00 | 00:00:00 | |
| BIOWL1-15 | 2026-08-31 12:42:24 | 53.26124 | 10.90063 | 76° | 66km/h | 15049m | -18.3m/s | -47.9°C | 0% | 125hPa | 2.7V | 03:06:32 | 02:33:37 | 00:00:00 | |
| DF8AY-15 | 2026-08-31 12:42:24 | 53.26141 | 10.90172 | 74° | 58km/h | 14976m | -18.7m/s | -48.0°C | 2.9% | 126.3hPa | 2.7V | 00:00:00 | 02:33:41 | 00:00:00 | |
| SONDE2-11 | 2026-08-31 12:42:23 | 53.26137 | 10.90145 | 73° | 66km/h | 14994m | -17.5m/s | -48.0°C | 0.8% | 126.0hPa | 2.7V | 00:00:00 | 00:00:00 | 00:00:00 | |
| DM0DOS-11 | 2026-08-31 12:42:22 | 53.26128 | 10.90090 | 75° | 68km/h | 15030m | -18.2m/s | -47.9°C | 2.9% | 125.3hPa | 2.7V | 03:05:54 | 02:33:38 | 00:00:00 | |
| DL1XH-west | 2026-08-31 12:42:21 | 53.26128 | 10.90090 | 76° | 68km/h | 15030m | -18.2m/s | -47.9°C | 0% | 125.4hPa | 2.7V | 03:06:32 | 02:33:38 | 00:00:00 | |
| DF8AY | 2026-08-31 12:42:18 | 53.26110 | 10.89932 | 82° | 62km/h | 15140m | -18.1m/s | -48.2°C | 0% | 123.3hPa | 2.7V | 03:08:14 | 02:33:32 | 00:00:00 | |
| DL1XH-15 | 2026-08-31 12:42:18 | 53.26106 | 10.89881 | 81° | 58km/h | 15177m | -20m/s | -47.9°C | 2.8% | 122.6hPa | 2.6V | 03:06:02 | 02:33:30 | 00:00:00 | |
| AA1-15 | 2026-08-31 12:42:17 | 53.26116 | 10.89983 | 80° | 66km/h | 15104m | -19.3m/s | -48.2°C | 0% | 123.9hPa | 2.6V | 03:06:32 | 02:33:34 | 00:00:00 | |
| DO2SHX-10 | 2026-08-31 12:42:17 | 53.26113 | 10.89957 | 81° | 62km/h | 15122m | -17.8m/s | -48.2°C | 2.9% | 123.5hPa | 2.7V | 03:05:00 | 02:33:33 | 00:00:00 | |
| DL1ZP-14 | 2026-08-31 12:42:16 | 53.26110 | 10.89932 | 82° | 60km/h | 15140m | -18.1m/s | -48.2°C | 0.8% | 123.3hPa | 2.7V | 00:00:00 | 00:00:00 | 00:00:00 | |
| GOEST3-10 | 2026-08-31 12:42:15 | 53.26110 | 10.89932 | 83° | 60km/h | 15140m | -18.0m/s | -48.1°C | 2.9% | 123.2hPa | 2.7V | 00:00:00 | 02:33:32 | 00:00:00 | |
| DB0NH | 2026-08-31 12:42:14 | 53.26108 | 10.89906 | 83° | 40km/h | 15158m | -19.2m/s | -47.9°C | 2.8% | 122.9hPa | 2.7V | 00:00:00 | 02:33:31 | 00:00:00 | |
| DL1XH1-15 | 2026-08-31 12:42:13 | 53.26103 | 10.89833 | 82° | 57km/h | 15213m | -17.8m/s | -48°C | 2.8% | 121.8hPa | 2.6V | 03:06:04 | 02:33:28 | 00:00:00 | |
| BIOWL1-15 | 2026-08-31 12:42:11 | 53.26103 | 10.89833 | 83° | 57km/h | 15213m | -17.8m/s | -48°C | 0% | 121.8hPa | 2.6V | 03:06:32 | 02:33:28 | 00:00:00 | |
| DL1XH-west | 2026-08-31 12:42:10 | 53.26101 | 10.89811 | 82° | 55km/h | 15231m | -17.8m/s | -48°C | 0% | 121.5hPa | 2.7V | 03:06:32 | 02:33:27 | 00:00:00 | |
| DB0DAN | 2026-08-31 12:42:10 | 53.26101 | 10.89811 | 82° | 51km/h | 15231m | -17.8m/s | -48°C | 0.8% | 121.48hPa | 2.7V | 00:00:00 | 00:00:00 | 00:00:00 | |
| DF8AY | 2026-08-31 12:42:07 | 53.26086 | 10.89656 | 83° | 35km/h | 15391m | -19.1m/s | -48.4°C | 0% | 118.6hPa | 2.6V | 03:08:14 | 02:33:18 | 00:00:00 | |
| DO2SHX-10 | 2026-08-31 12:42:07 | 53.26096 | 10.89749 | 78° | 40km/h | 15284m | -18.6m/s | -48.2°C | 2.8% | 120.5hPa | 2.6V | 00:00:00 | 02:33:24 | 00:00:00 | |
| AA1-15 | 2026-08-31 12:42:07 | 53.26096 | 10.89749 | 77° | 44km/h | 15284m | -18.7m/s | -48.3°C | 0% | 120.5hPa | 2.6V | 03:06:32 | 02:33:24 | 00:00:00 | |
| GOEST3-10 | 2026-08-31 12:42:05 | 53.26092 | 10.89716 | 80° | 37km/h | 15320m | -18.5m/s | -48.3°C | 2.8% | 119.8hPa | 2.7V | 00:00:00 | 02:33:22 | 00:00:00 | |
| DL1XH-15 | 2026-08-31 12:42:04 | 53.26089 | 10.89685 | 79° | 37km/h | 15355m | -17.6m/s | -48.5°C | 2.9% | 119.2hPa | 2.7V | 03:06:12 | 02:33:20 | 00:00:00 | |
| BIOWL1-15 | 2026-08-31 12:42:00 | 53.26085 | 10.89642 | 81° | 35km/h | 15409m | -18.6m/s | -48.6°C | 0% | 118.2hPa | 2.6V | 03:06:32 | 02:33:17 | 00:00:00 | |
| DL1XH-west | 2026-08-31 12:41:59 | 53.26081 | 10.89616 | 72° | 33km/h | 15444m | -17.9m/s | -48.8°C | 0% | 117.6hPa | 2.7V | 03:06:32 | 02:33:15 | 00:00:00 | |
| AA1-15 | 2026-08-31 12:41:56 | 53.26076 | 10.89592 | 66° | 27km/h | 15481m | -19m/s | -49°C | 0% | 117hPa | 2.7V | 03:06:32 | 02:33:13 | 00:00:00 | |
| DF8AY | 2026-08-31 12:41:56 | 53.26067 | 10.89559 | 59° | 29km/h | 15530m | -15.2m/s | -49.3°C | 0% | 116.1hPa | 2.6V | 03:08:14 | 02:33:10 | 00:00:00 | |
| DB0DAN | 2026-08-31 12:41:55 | 53.26073 | 10.89581 | 65° | 29km/h | 15498m | -17.4m/s | -49.1°C | 0.8% | 116.67hPa | 2.6V | 00:00:00 | 00:00:00 | 00:00:00 | |
| GOEST3-10 | 2026-08-31 12:41:55 | 53.26073 | 10.89581 | 66° | 33km/h | 15499m | -17.4m/s | -49.0°C | 3.0% | 116.6hPa | 2.6V | 00:00:00 | 02:33:12 | 00:00:00 | |
| DL1XH1-15 | 2026-08-31 12:41:53 | 53.26059 | 10.89535 | 54° | 38km/h | 15562m | -18.2m/s | -49.4°C | 3% | 115.6hPa | 2.7V | 03:06:24 | 02:33:08 | 00:00:00 | |
| SONDE2-11 | 2026-08-31 12:41:52 | 53.26063 | 10.89548 | 61° | 31km/h | 15545m | -16.4m/s | -49.3°C | 0.8% | 115.8hPa | 2.6V | 00:00:00 | 00:00:00 | 00:00:00 | |
| EDDB2-12 | 2026-08-31 12:41:51 | 53.26054 | 10.89522 | 59° | 37km/h | 15582m | -20.7m/s | -49.4°C | 0.9% | 115.3hPa | 2.6V | 00:00:00 | 00:00:00 | 00:00:00 | |
| BIOWL1-15 | 2026-08-31 12:41:50 | 53.26020 | 10.89425 | 66° | 38km/h | 15725m | -21.4m/s | -49.6°C | 0% | 112.8hPa | 2.6V | 03:06:32 | 02:33:00 | 00:00:00 | |
| DL1XH-west | 2026-08-31 12:41:48 | 53.26044 | 10.89495 | 56° | 40km/h | 15624m | -22.1m/s | -49.5°C | 0% | 114.6hPa | 2.6V | 03:06:32 | 02:33:05 | 00:00:00 | |
| DL1XH-15 | 2026-08-31 12:41:48 | 53.26020 | 10.89425 | 65° | 38km/h | 15725m | -21.4m/s | -49.5°C | 3.1% | 112.8hPa | 2.6V | 03:06:32 | 02:33:00 | 00:00:00 | |
| DF8AY | 2026-08-31 12:41:45 | 53.26024 | 10.89440 | 64° | 40km/h | 15704m | -20.5m/s | -49.7°C | 0% | 113.2hPa | 2.7V | 03:08:14 | 02:33:01 | 00:00:00 | |
| AA1-15 | 2026-08-31 12:41:45 | 53.26028 | 10.89454 | 64° | 37km/h | 15685m | -19.8m/s | -49.8°C | 0% | 113.5hPa | 2.7V | 03:06:32 | 02:33:02 | 00:00:00 | |
| DL1ZP-14 | 2026-08-31 12:41:45 | 53.26024 | 10.89440 | 63° | 38km/h | 15704m | -20.5m/s | -49.7°C | 0.8% | 113.2hPa | 2.7V | 00:00:00 | 00:00:00 | 00:00:00 | |
| DF8AY-15 | 2026-08-31 12:41:44 | 53.26023 | 10.89440 | 64° | 40km/h | 15704m | -20.5m/s | -49.7°C | 3.1% | 113.1hPa | 2.6V | 00:00:00 | 02:33:01 | 00:00:00 | |
| DO2SHX-10 | 2026-08-31 12:41:43 | 53.26019 | 10.89425 | 66° | 37km/h | 15725m | -21.4m/s | -49.5°C | 3.1% | 112.8hPa | 2.6V | 00:00:00 | 02:33:00 | 00:00:00 | |
| DL1XH1-15 | 2026-08-31 12:41:42 | 53.26012 | 10.89398 | 58° | 33km/h | 15766m | -20.2m/s | -49.6°C | 3% | 112.1hPa | 2.6V | 03:06:34 | 02:32:58 | 00:00:00 | |
| DB0DAN | 2026-08-31 12:41:40 | 53.26007 | 10.89387 | 57° | 33km/h | 15785m | -19.2m/s | -49.7°C | 0.8% | 111.75hPa | 2.7V | 00:00:00 | 00:00:00 | 00:00:00 | |
| DD8BA-10 | 2026-08-31 12:41:40 | 53.26007 | 10.89387 | 57° | 37km/h | 15785m | -19.2m/s | -49.6°C | 3.1% | 111.7hPa | 2.7V | 00:00:00 | 00:00:00 | 00:00:00 | |
| DF7ER-10 | 2026-08-31 12:41:39 | 53.26007 | 10.89386 | 58° | 35km/h | 15785m | -19.2m/s | -49.7°C | 0.9% | 111.8hPa | 2.7V | 03:07:00 | 00:00:00 | 00:00:00 | |
| DL1XH-15 | 2026-08-31 12:41:38 | 53.25974 | 10.89299 | 54° | 40km/h | 15916m | -19.8m/s | -50°C | 3.2% | 109.6hPa | 2.7V | 03:06:42 | 02:32:50 | 00:00:00 | |
| DL1XH-west | 2026-08-31 12:41:38 | 53.25994 | 10.89351 | 53° | 35km/h | 15839m | -18.7m/s | -49.8°C | 0% | 110.8hPa | 2.6V | 03:07:23 | 02:32:54 | 00:00:00 | |
| AP2371 | 2026-08-31 12:41:37 | 53.25994 | 10.89351 | 54° | 35km/h | 15839m | -18.7m/s | -49.8°C | 0.8% | 110.8hPa | 2.6V | 00:00:00 | 00:00:00 | 00:00:00 | |
| DM0DOS-11 | 2026-08-31 12:41:36 | 53.25960 | 10.89273 | 47° | 42km/h | 15955m | -19.8m/s | -50.1°C | 3.2% | 108.9hPa | 2.6V | 03:06:44 | 02:32:48 | 00:00:00 | |
| AA1-15 | 2026-08-31 12:41:34 | 53.25980 | 10.89313 | 58° | 38km/h | 15897m | -19.8m/s | -50°C | 0% | 109.8hPa | 2.7V | 03:07:23 | 02:32:51 | 00:00:00 | |
| DF8AY | 2026-08-31 12:41:32 | 53.25968 | 10.89286 | 45° | 44km/h | 15936m | -20.2m/s | -50°C | 0% | 109.3hPa | 2.7V | 03:08:14 | 02:32:49 | 00:00:00 | |
| BIOWL1-15 | 2026-08-31 12:41:26 | 53.25918 | 10.89200 | 45° | 49km/h | 16058m | -19.9m/s | -50.6°C | 0% | 107.2hPa | 2.7V | 03:07:23 | 02:32:43 | 00:00:00 | |
| DB0DAN | 2026-08-31 12:41:25 | 53.25909 | 10.89185 | 46° | 49km/h | 16078m | -20.1m/s | -50.6°C | 0.8% | 106.88hPa | 2.6V | 00:00:00 | 00:00:00 | 00:00:00 | |
| DL1XH-15 | 2026-08-31 12:41:25 | 53.25893 | 10.89155 | 53° | 46km/h | 16118m | -20m/s | -50.2°C | 3.2% | 106.3hPa | 2.6V | 03:06:52 | 02:32:40 | 00:00:00 | |
| AA1-15 | 2026-08-31 12:41:23 | 53.25893 | 10.89155 | 54° | 46km/h | 16118m | -20m/s | -50.2°C | 0% | 106.3hPa | 2.6V | 03:07:23 | 02:32:40 | 00:00:00 | |
| DL4BBY-15 | 2026-08-31 12:41:22 | 53.25887 | 10.89140 | 62° | 46km/h | 16138m | -19.9m/s | -49.1°C | 0% | 0hPa | 2.6V | 00:00:00 | 00:00:00 | 00:00:00 | |
| SONDE2-11 | 2026-08-31 12:41:21 | 53.25877 | 10.89110 | 62° | 37km/h | 16174m | -19.2m/s | -50.1°C | 0.9% | 105.2hPa | 2.6V | 00:00:00 | 00:00:00 | 00:00:00 | |
| EDDB2-12 | 2026-08-31 12:41:20 | 53.25872 | 10.89096 | 61° | 37km/h | 16193m | -20.3m/s | -50.0°C | 0.9% | 104.9hPa | 2.6V | 00:00:00 | 00:00:00 | 00:00:00 | |
| DO2SHX-10 | 2026-08-31 12:41:19 | 53.25872 | 10.89095 | 62° | 37km/h | 16193m | -20.2m/s | -49.9°C | 3.2% | 104.9hPa | 2.6V | 00:00:00 | 02:32:36 | 00:00:00 | |
| DL1XH-15 | 2026-08-31 12:41:18 | 53.25836 | 10.89014 | 48° | 38km/h | 16330m | -19.3m/s | -49.8°C | 3.2% | 102.9hPa | 2.6V | 03:07:03 | 02:32:29 | 00:00:00 | |
| DL1XH-west | 2026-08-31 12:41:17 | 53.25858 | 10.89058 | 56° | 35km/h | 16252m | -20.6m/s | -49.7°C | 0% | 104.1hPa | 2.7V | 03:07:23 | 02:32:33 | 00:00:00 | |
| DF8AY | 2026-08-31 12:41:16 | 53.25822 | 10.88989 | 46° | 44km/h | 16368m | -20.3m/s | -49.8°C | 0% | 102.2hPa | 2.7V | 03:08:14 | 02:32:27 | 00:00:00 | |
| BIOWL1-15 | 2026-08-31 12:41:16 | 53.25847 | 10.89036 | 51° | 31km/h | 16292m | -19.6m/s | -49.7°C | 0% | 103.4hPa | 2.7V | 03:07:23 | 02:32:31 | 00:00:00 | |
| GOEST3-10 | 2026-08-31 12:41:15 | 53.25853 | 10.89047 | 50° | 37km/h | 16272m | -20.2m/s | -49.6°C | 3.1% | 103.7hPa | 2.6V | 00:00:00 | 02:32:32 | 00:00:00 | |
| DO2SHX-10 | 2026-08-31 12:41:14 | 53.25842 | 10.89025 | 50° | 38km/h | 16311m | -19.2m/s | -49.7°C | 3.2% | 103.1hPa | 2.6V | 00:00:00 | 02:32:30 | 00:00:00 | |
| DK7RCA | 2026-08-31 12:41:13 | 53.25842 | 10.89025 | 51° | 35km/h | 16311m | -19.2m/s | -49.8°C | 0.9% | 103.1hPa | 2.7V | 00:00:00 | 00:00:00 | 00:00:00 | |
| AA1-15 | 2026-08-31 12:41:13 | 53.25842 | 10.89025 | 50° | 35km/h | 16311m | -19.2m/s | -49.8°C | 0% | 103.1hPa | 2.6V | 03:07:23 | 02:32:30 | 00:00:00 | |
| DB0DAN | 2026-08-31 12:41:10 | 53.25822 | 10.88989 | 46° | 42km/h | 16368m | -20.3m/s | -49.8°C | 0.8% | 102.22hPa | 2.7V | 00:00:00 | 00:00:00 | 00:00:00 | |
| DD8BA-10 | 2026-08-31 12:41:10 | 53.25822 | 10.88988 | 46° | 53km/h | 16368m | -20.2m/s | -49.7°C | 3.2% | 102.2hPa | 2.7V | 03:07:00 | 00:00:00 | 00:00:00 | |
| SONCRA | 2026-08-31 12:41:09 | 53.25807 | 10.88960 | 49° | 46km/h | 16407m | -19.2m/s | -49.6°C | 0.8% | 101.6hPa | 2.7V | 00:00:00 | 00:00:00 | 00:00:00 | |
| DL1XH-15 | 2026-08-31 12:41:07 | 53.25763 | 10.88875 | 50° | 58km/h | 16501m | -20.8m/s | -49.9°C | 3.2% | 100.2hPa | 2.7V | 03:07:12 | 02:32:20 | 00:00:00 | |
| BIOWL1-15 | 2026-08-31 12:41:06 | 53.25763 | 10.88875 | 51° | 58km/h | 16501m | -20.8m/s | -49.9°C | 0% | 100.2hPa | 2.7V | 03:07:23 | 02:32:20 | 00:00:00 | |
| DL1XH-west | 2026-08-31 12:41:05 | 53.25781 | 10.88912 | 49° | 55km/h | 16462m | -17.8m/s | -49.6°C | 0% | 100.7hPa | 2.6V | 03:07:23 | 02:32:22 | 00:00:00 | |
| DL3AQ-11 | 2026-08-31 12:41:05 | 53.25772 | 10.88894 | 50° | 57km/h | 16481m | -20.6m/s | -49.7°C | 0.9% | 100.5hPa | 2.6V | 00:00:00 | 00:00:00 | 00:00:00 | |
| DL1XH1-15 | 2026-08-31 12:41:04 | 53.25743 | 10.88838 | 50° | 57km/h | 16543m | -21.5m/s | -50.2°C | 3.4% | 99.6hPa | 2.6V | 03:07:14 | 02:32:18 | 00:00:00 | |
| AA1-15 | 2026-08-31 12:41:02 | 53.25753 | 10.88857 | 47° | 60km/h | 16522m | -21m/s | -50°C | 0% | 99.9hPa | 2.7V | 03:07:23 | 02:32:19 | 00:00:00 | |
| DF8AY | 2026-08-31 12:41:00 | 53.25725 | 10.88801 | 55° | 55km/h | 16583m | -19.2m/s | -50°C | 0% | 98.9hPa | 2.6V | 03:08:14 | 02:32:16 | 00:00:00 | |
| DD8BA-10 | 2026-08-31 12:41:00 | 53.25734 | 10.88819 | 52° | 47km/h | 16564m | -20.0m/s | -50.2°C | 3.4% | 99.2hPa | 2.6V | 00:00:00 | 00:00:00 | 00:00:00 | |
| DO2SHX-10 | 2026-08-31 12:40:58 | 53.25718 | 10.88782 | 60° | 49km/h | 16602m | -19.5m/s | -49.5°C | 3.2% | 98.6hPa | 2.6V | 00:00:00 | 02:32:15 | 00:00:00 | |
| DB0DAN | 2026-08-31 12:40:55 | 53.25698 | 10.88729 | 58° | 44km/h | 16659m | -20m/s | -49.4°C | 0.8% | 97.75hPa | 2.6V | 00:00:00 | 00:00:00 | 00:00:00 | |
| DL1XH-west | 2026-08-31 12:40:55 | 53.25698 | 10.88729 | 58° | 46km/h | 16659m | -20m/s | -49.4°C | 0% | 97.8hPa | 2.6V | 03:07:23 | 02:32:12 | 00:00:00 | |
| DL3AQ-11 | 2026-08-31 12:40:54 | 53.25687 | 10.88699 | 60° | 40km/h | 16697m | -19.6m/s | -48.8°C | 0.8% | 97.2hPa | 2.7V | 00:00:00 | 00:00:00 | 00:00:00 | |
| DL1XH1-15 | 2026-08-31 12:40:53 | 53.25676 | 10.88672 | 56° | 38km/h | 16736m | -21m/s | -48.2°C | 2.9% | 96.6hPa | 2.7V | 03:07:24 | 02:32:08 | 00:00:00 | |
| BIOWL1-15 | 2026-08-31 12:40:53 | 53.25660 | 10.88635 | 50° | 35km/h | 16794m | -18.8m/s | -48°C | 0% | 95.7hPa | 2.6V | 03:08:14 | 02:32:05 | 00:00:00 | |
| AA1-15 | 2026-08-31 12:40:51 | 53.25676 | 10.88672 | 56° | 38km/h | 16736m | -21m/s | -48.2°C | 0% | 96.6hPa | 2.7V | 03:08:14 | 02:32:08 | 00:00:00 | |
| SONDE2-11 | 2026-08-31 12:40:50 | 53.25666 | 10.88646 | 52° | 37km/h | 16776m | -18.7m/s | -48.0°C | 0.7% | 96.0hPa | 2.6V | 00:00:00 | 00:00:00 | 00:00:00 | |
| DF8AY | 2026-08-31 12:40:49 | 53.25618 | 10.88567 | 43° | 38km/h | 16933m | -22.8m/s | -48.6°C | 0% | 93.8hPa | 2.6V | 03:08:14 | 02:31:58 | 00:00:00 | |
| DL1XH-west | 2026-08-31 12:40:45 | 53.25636 | 10.88597 | 38° | 31km/h | 16871m | -20.1m/s | -48.4°C | 0% | 94.6hPa | 2.7V | 03:08:14 | 02:32:01 | 00:00:00 | |
| DL1XH-15 | 2026-08-31 12:40:44 | 53.25630 | 10.88588 | 39° | 33km/h | 16891m | -21m/s | -48.5°C | 2.9% | 94.3hPa | 2.6V | 03:07:32 | 02:32:00 | 00:00:00 | |
| DF8AY-15 | 2026-08-31 12:40:44 | 53.25636 | 10.88597 | 38° | 40km/h | 16871m | -20.0m/s | -48.4°C | 2.8% | 94.6hPa | 2.6V | 00:00:00 | 02:32:01 | 00:00:00 | |
| DL1XH1-15 | 2026-08-31 12:40:43 | 53.25618 | 10.88567 | 43° | 38km/h | 16933m | -22.8m/s | -48.6°C | 2.8% | 93.8hPa | 2.6V | 03:07:34 | 02:31:58 | 00:00:00 | |
| DL1ZP-14 | 2026-08-31 12:40:42 | 53.25624 | 10.88578 | 46° | 35km/h | 16912m | -21.4m/s | -48.5°C | 0.7% | 94.1hPa | 2.6V | 00:00:00 | 00:00:00 | 00:00:00 | |
| DB0DAN | 2026-08-31 12:40:40 | 53.25611 | 10.88556 | 43° | 37km/h | 16955m | -22.4m/s | -48.6°C | 0.7% | 93.5hPa | 2.7V | 00:00:00 | 00:00:00 | 00:00:00 | |
| AA1-15 | 2026-08-31 12:40:40 | 53.25611 | 10.88556 | 43° | 38km/h | 16955m | -22.4m/s | -48.6°C | 0% | 93.5hPa | 2.7V | 03:08:14 | 02:31:57 | 00:00:00 | |
| DF8AY | 2026-08-31 12:40:38 | 53.25597 | 10.88532 | 48° | 42km/h | 16999m | -21.4m/s | -48.6°C | 0% | 92.8hPa | 2.7V | 03:08:14 | 02:31:55 | 00:00:00 | |
| DL1XH-15 | 2026-08-31 12:40:38 | 53.25560 | 10.88437 | 62° | 47km/h | 17122m | -22m/s | -49.2°C | 3% | 91.1hPa | 2.7V | 03:07:43 | 02:31:49 | 00:00:00 | |
| BIOWL1-15 | 2026-08-31 12:40:38 | 53.25590 | 10.88519 | 51° | 44km/h | 17019m | -20.6m/s | -48.7°C | 0% | 92.6hPa | 2.6V | 03:08:14 | 02:31:54 | 00:00:00 | |
| DL1XH-west | 2026-08-31 12:40:34 | 53.25566 | 10.88455 | 62° | 47km/h | 17101m | -21.6m/s | -49°C | 0% | 91.4hPa | 2.7V | 03:08:14 | 02:31:50 | 00:00:00 | |
| AA1-15 | 2026-08-31 12:40:29 | 53.25546 | 10.88387 | 62° | 40km/h | 17184m | -19.3m/s | -49.3°C | 0% | 90.2hPa | 2.6V | 03:08:14 | 02:31:46 | 00:00:00 | |
| DF8AY | 2026-08-31 12:40:27 | 53.25532 | 10.88346 | 54° | 33km/h | 17239m | -18.8m/s | -49.3°C | 0% | 89.5hPa | 2.7V | 03:08:14 | 02:31:43 | 00:00:00 | |
| DK7RCA | 2026-08-31 12:40:26 | 53.25537 | 10.88358 | 58° | 37km/h | 17221m | -17.6m/s | -49.2°C | 0.8% | 89.7hPa | 2.6V | 00:00:00 | 00:00:00 | 00:00:00 | |
| DB0DAN | 2026-08-31 12:40:25 | 53.25528 | 10.88335 | 51° | 31km/h | 17257m | -18.2m/s | -49.3°C | 0.8% | 89.21hPa | 2.6V | 00:00:00 | 00:00:00 | 00:00:00 | |
| GOEST3-10 | 2026-08-31 12:40:25 | 53.25527 | 10.88335 | 51° | 33km/h | 17257m | -18.1m/s | -49.2°C | 3.0% | 89.2hPa | 2.6V | 00:00:00 | 02:31:42 | 00:00:00 | |
| DF8AY-15 | 2026-08-31 12:40:24 | 53.25522 | 10.88325 | 46° | 37km/h | 17275m | -18.6m/s | -49.2°C | 3.0% | 89.0hPa | 2.7V | 00:00:00 | 02:31:41 | 00:00:00 | |
| DF7ER-10 | 2026-08-31 12:40:23 | 53.25522 | 10.88325 | 47° | 33km/h | 17275m | -18.6m/s | -49.3°C | 0.8% | 89.0hPa | 2.7V | 03:08:00 | 00:00:00 | 00:00:00 | |
| DL1XH1-15 | 2026-08-31 12:40:22 | 53.25504 | 10.88299 | 34° | 33km/h | 17328m | -19.1m/s | -49.6°C | 3% | 88.3hPa | 2.7V | 03:07:54 | 02:31:38 | 00:00:00 | |
| DL1XH-west | 2026-08-31 12:40:22 | 53.25510 | 10.88306 | 36° | 33km/h | 17309m | -18.9m/s | -49.5°C | 0% | 88.5hPa | 2.7V | 03:08:14 | 02:31:39 | 00:00:00 | |
| AA1-15 | 2026-08-31 12:40:18 | 53.25485 | 10.88275 | 36° | 35km/h | 17387m | -22.5m/s | -49.8°C | 0% | 87.5hPa | 2.6V | 03:08:14 | 02:31:35 | 00:00:00 | |
| DL1XH-15 | 2026-08-31 12:40:18 | 53.25448 | 10.88233 | 27° | 37km/h | 17486m | -19.5m/s | -49.8°C | 3.1% | 86.1hPa | 2.6V | 03:08:02 | 02:31:30 | 00:00:00 | |
| BIOWL1-15 | 2026-08-31 12:40:15 | 53.25463 | 10.88249 | 38° | 35km/h | 17449m | -18.3m/s | -49.7°C | 0% | 86.6hPa | 2.7V | 03:08:14 | 02:31:32 | 00:00:00 | |
| DF8AY | 2026-08-31 12:40:14 | 53.25448 | 10.88233 | 28° | 37km/h | 17486m | -19.5m/s | -49.8°C | 0% | 86.1hPa | 2.6V | 03:08:14 | 02:31:30 | 00:00:00 | |
| DB0NH | 2026-08-31 12:40:13 | 53.25448 | 10.88233 | 28° | 42km/h | 17486m | -19.4m/s | -49.7°C | 3.1% | 86.1hPa | 2.6V | 00:00:00 | 02:31:30 | 00:00:00 | |
| DL1XH1-15 | 2026-08-31 12:40:12 | 53.25431 | 10.88219 | 27° | 38km/h | 17525m | -19.9m/s | -49.7°C | 3% | 85.6hPa | 2.6V | 03:08:04 | 02:31:28 | 00:00:00 | |
| DL1XH-west | 2026-08-31 12:40:12 | 53.25431 | 10.88219 | 27° | 38km/h | 17525m | -20m/s | -49.7°C | 0% | 85.6hPa | 2.6V | 03:08:14 | 02:31:28 | 00:00:00 | |
| AP2371 | 2026-08-31 12:40:11 | 53.25440 | 10.88226 | 27° | 37km/h | 17506m | -20.5m/s | -49.6°C | 0.8% | 85.9hPa | 2.7V | 00:00:00 | 00:00:00 | 00:00:00 | |
| DB0DAN | 2026-08-31 12:40:10 | 53.25423 | 10.88212 | 29° | 38km/h | 17545m | -20.7m/s | -49.8°C | 0.7% | 85.35hPa | 2.7V | 00:00:00 | 00:00:00 | 00:00:00 | |
| AA1-15 | 2026-08-31 12:40:08 | 53.25395 | 10.88188 | 25° | 42km/h | 17608m | -22.4m/s | -50.1°C | 0% | 84.6hPa | 2.6V | 03:08:14 | 02:31:24 | 00:00:00 | |
| SONCRA | 2026-08-31 12:40:07 | 53.25387 | 10.88181 | 31° | 37km/h | 17629m | -21.7m/s | -50.3°C | 0.8% | 84.3hPa | 2.6V | 00:00:00 | 00:00:00 | 00:00:00 | |
| DL1XH-15 | 2026-08-31 12:40:06 | 53.25362 | 10.88154 | 36° | 40km/h | 17695m | -21.8m/s | -50.6°C | 3.3% | 83.5hPa | 2.7V | 03:08:12 | 02:31:20 | 00:00:00 | |
| DM0DOS-11 | 2026-08-31 12:40:05 | 53.25338 | 10.88124 | 33° | 40km/h | 17753m | -18.1m/s | -50.6°C | 3.3% | 82.7hPa | 2.6V | 03:08:15 | 02:31:17 | 00:00:00 | |
| BIOWL1-15 | 2026-08-31 12:40:05 | 53.25321 | 10.88106 | 31° | 38km/h | 17788m | -17.8m/s | -50.8°C | 0% | 82.2hPa | 2.7V | 03:09:05 | 02:31:15 | 00:00:00 | |
| DF8AY | 2026-08-31 12:40:02 | 53.25354 | 10.88143 | 38° | 40km/h | 17716m | -20.5m/s | -50.6°C | 0% | 83.2hPa | 2.7V | 03:08:14 | 02:31:19 | 00:00:00 | |
| DL1XH-west | 2026-08-31 12:40:01 | 53.25346 | 10.88134 | 37° | 38km/h | 17735m | -19.4m/s | -50.5°C | 0% | 82.9hPa | 2.6V | 03:08:14 | 02:31:18 | 00:00:00 | |
| AA1-15 | 2026-08-31 12:39:56 | 53.25304 | 10.88092 | 23° | 40km/h | 17824m | -18.5m/s | -50.8°C | 0% | 81.8hPa | 2.6V | 03:09:05 | 02:31:13 | 00:00:00 | |
| DL1XH1-15 | 2026-08-31 12:39:56 | 53.25245 | 10.88046 | 28° | 47km/h | 17948m | -18.3m/s | -50.4°C | 3.2% | 80.3hPa | 2.7V | 03:08:25 | 02:31:07 | 00:00:00 | |
| DM0DOS-11 | 2026-08-31 12:39:55 | 53.25234 | 10.88037 | 28° | 49km/h | 17966m | -17.2m/s | -50.3°C | 3.2% | 80hPa | 2.6V | 03:08:26 | 02:31:06 | 00:00:00 | |
| DB0DAN | 2026-08-31 12:39:55 | 53.25294 | 10.88085 | 24° | 37km/h | 17844m | -20.7m/s | -50.8°C | 0.8% | 81.57hPa | 2.7V | 00:00:00 | 00:00:00 | 00:00:00 | |
| DO2SHX-10 | 2026-08-31 12:39:55 | 53.25294 | 10.88085 | 25° | 40km/h | 17844m | -20.7m/s | -50.7°C | 3.3% | 81.5hPa | 2.6V | 00:00:00 | 02:31:12 | 00:00:00 | |
| DL1XH-15 | 2026-08-31 12:39:54 | 53.25276 | 10.88072 | 22° | 46km/h | 17887m | -23.1m/s | -50.7°C | 3.3% | 81.1hPa | 2.6V | 03:08:22 | 02:31:10 | 00:00:00 | |
| BIOWL1-15 | 2026-08-31 12:39:54 | 53.25286 | 10.88079 | 26° | 40km/h | 17865m | -22.8m/s | -50.7°C | 0% | 81.4hPa | 2.7V | 03:09:05 | 02:31:11 | 00:00:00 | |
| DF8AY | 2026-08-31 12:39:53 | 53.25265 | 10.88064 | 25° | 44km/h | 17909m | -21m/s | -50.6°C | 0% | 80.8hPa | 2.6V | 03:12:29 | 02:31:09 | 00:00:00 | |
| DL1XH-west | 2026-08-31 12:39:51 | 53.25245 | 10.88046 | 28° | 47km/h | 17948m | -18.3m/s | -50.4°C | 0% | 80.3hPa | 2.7V | 03:09:05 | 02:31:07 | 00:00:00 | |
| DO2SHX-10 | 2026-08-31 12:39:50 | 53.25234 | 10.88037 | 29° | 51km/h | 17966m | -17.2m/s | -50.3°C | 3.2% | 80.0hPa | 2.6V | 00:00:00 | 02:31:06 | 00:00:00 | |
| DL1XH-15 | 2026-08-31 12:39:49 | 53.25156 | 10.87959 | 33° | 51km/h | 18092m | -19.2m/s | -50.8°C | 3.4% | 78.5hPa | 2.6V | 03:08:33 | 02:30:59 | 00:00:00 | |
| SONDE2-11 | 2026-08-31 12:39:48 | 53.25212 | 10.88016 | 27° | 51km/h | 18000m | -18.0m/s | -50.4°C | 0.8% | 79.6hPa | 2.6V | 00:00:00 | 00:00:00 | 00:00:00 | |
| BIOWL1-15 | 2026-08-31 12:39:47 | 53.25167 | 10.87971 | 34° | 53km/h | 18073m | -21m/s | -50.8°C | 0% | 78.8hPa | 2.6V | 03:09:05 | 02:31:00 | 00:00:00 | |
| AA1-15 | 2026-08-31 12:39:46 | 53.25190 | 10.87995 | 28° | 55km/h | 18036m | -17.8m/s | -50.7°C | 0% | 79.2hPa | 2.7V | 03:09:05 | 02:31:02 | 00:00:00 | |
| DL1XH1-15 | 2026-08-31 12:39:45 | 53.25145 | 10.87947 | 33° | 53km/h | 18110m | -17.3m/s | -50.6°C | 3.3% | 78.3hPa | 2.7V | 03:08:34 | 02:30:58 | 00:00:00 | |
| DL3AQ-11 | 2026-08-31 12:39:45 | 53.25178 | 10.87984 | 33° | 51km/h | 18053m | -17.9m/s | -50.8°C | 0.8% | 78.9hPa | 2.7V | 00:00:00 | 00:00:00 | 00:00:00 | |
| DM0DOS-11 | 2026-08-31 12:39:44 | 53.25125 | 10.87922 | 41° | 47km/h | 18149m | -21.6m/s | -50.5°C | 3.2% | 77.9hPa | 2.7V | 03:08:36 | 02:30:56 | 00:00:00 | |
| DF8AY-15 | 2026-08-31 12:39:44 | 53.25178 | 10.87984 | 34° | 46km/h | 18054m | -17.9m/s | -50.7°C | 3.3% | 78.9hPa | 2.7V | 00:00:00 | 02:31:01 | 00:00:00 | |
| DK7RCA | 2026-08-31 12:39:43 | 53.25178 | 10.87984 | 34° | 53km/h | 18054m | -17.9m/s | -50.8°C | 0.8% | 78.9hPa | 2.7V | 03:09:00 | 00:00:00 | 00:00:00 | |
| DG6HD-15 | 2026-08-31 12:39:41 | 53.25156 | 10.87959 | 35° | 51km/h | 18093m | -19.2m/s | -50.8°C | 0.8% | 78.5hPa | 2.7V | 03:09:00 | 00:00:00 | 00:00:00 | |
| DB0DAN | 2026-08-31 12:39:40 | 53.25135 | 10.87935 | 37° | 47km/h | 18129m | -19.3m/s | -50.5°C | 0.8% | 78.07hPa | 2.7V | 00:00:00 | 00:00:00 | 00:00:00 | |
| DL1XH-west | 2026-08-31 12:39:40 | 53.25135 | 10.87935 | 37° | 49km/h | 18129m | -19.3m/s | -50.5°C | 0% | 78.1hPa | 2.7V | 03:09:05 | 02:30:57 | 00:00:00 | |
| DF8AY | 2026-08-31 12:39:39 | 53.25125 | 10.87922 | 42° | 47km/h | 18149m | -21.6m/s | -50.5°C | 0% | 77.9hPa | 2.7V | 03:12:29 | 02:30:56 | 00:00:00 | |
| BIOWL1-15 | 2026-08-31 12:39:35 | 53.25072 | 10.87844 | 44° | 46km/h | 18275m | -23.9m/s | -50.2°C | 0% | 76.4hPa | 2.7V | 03:09:05 | 02:30:50 | 00:00:00 | |
| DL1XH-15 | 2026-08-31 12:39:35 | 53.25072 | 10.87844 | 43° | 46km/h | 18275m | -23.9m/s | -50.2°C | 3.1% | 76.4hPa | 2.7V | 03:08:42 | 02:30:50 | 00:00:00 | |
| AA1-15 | 2026-08-31 12:39:35 | 53.25064 | 10.87832 | 44° | 42km/h | 18297m | -22m/s | -50.3°C | 0% | 76.1hPa | 2.6V | 03:09:05 | 02:30:49 | 00:00:00 | |
| DL1XH1-15 | 2026-08-31 12:39:35 | 53.25056 | 10.87820 | 44° | 40km/h | 18318m | -21m/s | -50.3°C | 3.2% | 75.9hPa | 2.6V | 03:08:44 | 02:30:48 | 00:00:00 | |
| DM0DOS-11 | 2026-08-31 12:39:34 | 53.25041 | 10.87796 | 44° | 42km/h | 18357m | -18.8m/s | -50.3°C | 3.2% | 75.4hPa | 2.7V | 03:08:46 | 02:30:46 | 00:00:00 | |
| DL1XH-west | 2026-08-31 12:39:30 | 53.25041 | 10.87796 | 44° | 42km/h | 18357m | -18.8m/s | -50.3°C | 0% | 75.4hPa | 2.7V | 03:09:05 | 02:30:46 | 00:00:00 | |
| DF8AY | 2026-08-31 12:39:26 | 53.25007 | 10.87735 | 45° | 37km/h | 18451m | -18.8m/s | -50.3°C | 0% | 74.3hPa | 2.6V | 03:12:29 | 02:30:41 | 00:00:00 | |
| DB0DAN | 2026-08-31 12:39:25 | 53.25013 | 10.87746 | 49° | 37km/h | 18432m | -19.2m/s | -50.2°C | 0.8% | 74.55hPa | 2.6V | 00:00:00 | 00:00:00 | 00:00:00 | |
| DO2SHX-10 | 2026-08-31 12:39:25 | 53.25013 | 10.87746 | 49° | 37km/h | 18432m | -19.2m/s | -50.2°C | 3.2% | 74.5hPa | 2.6V | 00:00:00 | 02:30:42 | 00:00:00 | |
| DL1XH1-15 | 2026-08-31 12:39:24 | 53.24987 | 10.87700 | 43° | 42km/h | 18510m | -18.9m/s | -50.8°C | 3.3% | 73.6hPa | 2.7V | 03:08:54 | 02:30:38 | 00:00:00 | |
| BIOWL1-15 | 2026-08-31 12:39:23 | 53.24994 | 10.87712 | 45° | 40km/h | 18490m | -19.8m/s | -50.6°C | 0% | 73.9hPa | 2.7V | 03:09:05 | 02:30:39 | 00:00:00 | |
| DL1XH-west | 2026-08-31 12:39:19 | 53.24971 | 10.87673 | 48° | 46km/h | 18548m | -20m/s | -51°C | 0% | 73.3hPa | 2.6V | 03:09:05 | 02:30:36 | 00:00:00 | |
| DF8AY | 2026-08-31 12:39:15 | 53.24938 | 10.87602 | 54° | 42km/h | 18647m | -20.3m/s | -51.4°C | 0% | 72.2hPa | 2.7V | 03:12:29 | 02:30:31 | 00:00:00 | |
| S3001 | 2026-08-31 12:39:15 | 53.24938 | 10.87602 | 53° | 40km/h | 18647m | -20.3m/s | -51.4°C | 0.8% | 72.2hPa | 2.6V | 00:00:00 | 00:00:00 | 00:00:00 | |
| DL1XH1-15 | 2026-08-31 12:39:13 | 53.24922 | 10.87565 | 54° | 33km/h | 18710m | -20.5m/s | -50.6°C | 3.3% | 71.5hPa | 2.6V | 03:09:04 | 02:30:28 | 00:00:00 | |
| AA1-15 | 2026-08-31 12:39:12 | 53.24922 | 10.87565 | 54° | 33km/h | 18710m | -20.5m/s | -50.6°C | 0% | 71.5hPa | 2.6V | 03:09:05 | 02:30:28 | 00:00:00 | |
| BIOWL1-15 | 2026-08-31 12:39:12 | 53.24902 | 10.87487 | 76° | 20km/h | 18881m | -21.5m/s | -49.6°C | 0% | 69.7hPa | 2.7V | 03:09:56 | 02:30:20 | 00:00:00 | |
| DB0DAN | 2026-08-31 12:39:10 | 53.24918 | 10.87554 | 59° | 29km/h | 18730m | -21.5m/s | -50.5°C | 0.8% | 71.26hPa | 2.7V | 00:00:00 | 00:00:00 | 00:00:00 | |
| DM0DOS-11 | 2026-08-31 12:39:10 | 53.24914 | 10.87543 | 59° | 29km/h | 18750m | -20.1m/s | -50.5°C | 3.2% | 71hPa | 2.7V | 03:09:06 | 02:30:26 | 00:00:00 | |
| DO2SHX-10 | 2026-08-31 12:39:10 | 53.24918 | 10.87554 | 60° | 29km/h | 18731m | -21.4m/s | -50.4°C | 3.3% | 71.2hPa | 2.7V | 00:00:00 | 02:30:27 | 00:00:00 | |
| DL1XH-15 | 2026-08-31 12:39:09 | 53.24902 | 10.87487 | 76° | 20km/h | 18881m | -21.5m/s | -49.6°C | 3% | 69.7hPa | 2.7V | 03:09:12 | 02:30:20 | 00:00:00 | |
| DL1XH-west | 2026-08-31 12:39:08 | 53.24909 | 10.87523 | 70° | 26km/h | 18792m | -22.6m/s | -50.6°C | 0% | 70.6hPa | 2.6V | 03:09:56 | 02:30:24 | 00:00:00 | |
| DB0UT-7 | 2026-08-31 12:39:08 | 53.24909 | 10.87523 | 71° | 20km/h | 18793m | -22.6m/s | -50.5°C | 3.3% | 70.5hPa | 2.6V | 00:00:00 | 00:00:00 | 00:00:00 | |
| GOEST3-10 | 2026-08-31 12:39:05 | 53.24906 | 10.87503 | 70° | 20km/h | 18838m | -22.5m/s | -50.0°C | 3.1% | 70.1hPa | 2.6V | 00:00:00 | 02:30:22 | 00:00:00 | |
| DM0DOS-11 | 2026-08-31 12:39:04 | 53.24897 | 10.87461 | 65° | 16km/h | 18961m | -21.6m/s | -49.9°C | 3% | 68.8hPa | 2.6V | 03:09:16 | 02:30:16 | 00:00:00 | |
| AA1-15 | 2026-08-31 12:39:02 | 53.24899 | 10.87467 | 71° | 16km/h | 18941m | -19.9m/s | -49.8°C | 0% | 69hPa | 2.6V | 03:09:56 | 02:30:17 | 00:00:00 | |
| DL1XH1-15 | 2026-08-31 12:39:02 | 53.24900 | 10.87473 | 77° | 15km/h | 18922m | -19.3m/s | -49.7°C | 3% | 69.2hPa | 2.6V | 03:09:14 | 02:30:18 | 00:00:00 | |
| BIOWL1-15 | 2026-08-31 12:39:01 | 53.24900 | 10.87473 | 78° | 15km/h | 18922m | -19.3m/s | -49.7°C | 0% | 69.2hPa | 2.6V | 03:09:56 | 02:30:18 | 00:00:00 | |
| DF8AY | 2026-08-31 12:38:59 | 53.24897 | 10.87461 | 65° | 16km/h | 18961m | -21.6m/s | -49.9°C | 0% | 68.8hPa | 2.6V | 03:12:29 | 02:30:16 | 00:00:00 | |
| DL1XH-15 | 2026-08-31 12:38:58 | 53.24883 | 10.87420 | 67° | 18km/h | 19106m | -21.9m/s | -51°C | 3.3% | 67.3hPa | 2.7V | 03:09:23 | 02:30:09 | 00:00:00 | |
| DL1XH-west | 2026-08-31 12:38:57 | 53.24893 | 10.87449 | 52° | 16km/h | 19003m | -19.7m/s | -50.3°C | 0% | 68.3hPa | 2.7V | 03:09:56 | 02:30:14 | 00:00:00 | |
| HTAHTA | 2026-08-31 12:38:56 | 53.24891 | 10.87444 | 56° | 15km/h | 19023m | -19.8m/s | -50.4°C | 0.8% | 68.1hPa | 2.6V | 00:00:00 | 00:00:00 | 00:00:00 | |
| DB0DAN | 2026-08-31 12:38:55 | 53.24889 | 10.87438 | 58° | 16km/h | 19042m | -18.5m/s | -50.6°C | 0.8% | 67.93hPa | 2.6V | 00:00:00 | 00:00:00 | 00:00:00 | |
| AA1-15 | 2026-08-31 12:38:52 | 53.24882 | 10.87403 | 89° | 24km/h | 19146m | -19.6m/s | -50.7°C | 0% | 66.8hPa | 2.7V | 03:09:56 | 02:30:07 | 00:00:00 | |
| BIOWL1-15 | 2026-08-31 12:38:51 | 53.24883 | 10.87385 | 95° | 22km/h | 19186m | -21.2m/s | -50.7°C | 0% | 66.5hPa | 2.6V | 03:09:56 | 02:30:05 | 00:00:00 | |
| DM0DOS-11 | 2026-08-31 12:38:50 | 53.24883 | 10.87394 | 92° | 22km/h | 19166m | -20m/s | -50.7°C | 3.2% | 66.6hPa | 2.6V | 03:09:26 | 02:30:06 | 00:00:00 | |
| GOEST3-10 | 2026-08-31 12:38:50 | 53.24882 | 10.87403 | 90° | 22km/h | 19146m | -19.6m/s | -50.6°C | 3.2% | 66.8hPa | 2.6V | 00:00:00 | 00:00:00 | 00:00:00 | |
| DO2SHX-10 | 2026-08-31 12:38:49 | 53.24882 | 10.87394 | 93° | 22km/h | 19166m | -20.0m/s | -50.6°C | 3.2% | 66.6hPa | 2.6V | 00:00:00 | 02:30:06 | 00:00:00 | |
| DO2SHX-10 | 2026-08-31 12:38:47 | 53.24884 | 10.87366 | 103° | 22km/h | 19228m | -21.5m/s | -50.7°C | 3.2% | 66.0hPa | 2.7V | 00:00:00 | 02:30:03 | 00:00:00 | |
| DF8AY | 2026-08-31 12:38:47 | 53.24884 | 10.87366 | 103° | 22km/h | 19228m | -21.6m/s | -50.8°C | 0% | 66.1hPa | 2.7V | 03:12:29 | 02:30:03 | 00:00:00 | |
| DL1XH1-15 | 2026-08-31 12:38:46 | 53.24886 | 10.87322 | 91° | 22km/h | 19341m | -24.2m/s | -51.2°C | 3.3% | 64.9hPa | 2.7V | 03:09:34 | 02:29:58 | 00:00:00 | |
| SONDE2-11 | 2026-08-31 12:38:46 | 53.24886 | 10.87357 | 96° | 24km/h | 19250m | -22.4m/s | -50.8°C | 0.8% | 65.8hPa | 2.6V | 00:00:00 | 00:00:00 | 00:00:00 | |
| DM0DOS-11 | 2026-08-31 12:38:45 | 53.24886 | 10.87303 | 76° | 20km/h | 19389m | -24.4m/s | -51.2°C | 3.2% | 64.4hPa | 2.6V | 03:09:36 | 02:29:56 | 00:00:00 | |
| EDDB2-12 | 2026-08-31 12:38:45 | 53.24886 | 10.87347 | 87° | 20km/h | 19273m | -24.1m/s | -51.0°C | 0.8% | 65.6hPa | 2.7V | 00:00:00 | 00:00:00 | 00:00:00 | |
| AA1-15 | 2026-08-31 12:38:41 | 53.24886 | 10.87322 | 91° | 22km/h | 19341m | -24.2m/s | -51.2°C | 0% | 64.9hPa | 2.7V | 03:09:56 | 02:29:58 | 00:00:00 | |
| DB0DAN | 2026-08-31 12:38:40 | 53.24887 | 10.87312 | 90° | 22km/h | 19365m | -23.9m/s | -51.2°C | 0.8% | 64.7hPa | 2.6V | 00:00:00 | 00:00:00 | 00:00:00 | |
| BIOWL1-15 | 2026-08-31 12:38:40 | 53.24886 | 10.87303 | 77° | 20km/h | 19389m | -24.4m/s | -51.2°C | 0% | 64.4hPa | 2.6V | 03:09:56 | 02:29:56 | 00:00:00 | |
| DG6HD-15 | 2026-08-31 12:38:39 | 53.24887 | 10.87312 | 91° | 24km/h | 19365m | -23.9m/s | -51.2°C | 0.8% | 64.7hPa | 2.7V | 03:09:00 | 00:00:00 | 00:00:00 | |
| DL3AQ-11 | 2026-08-31 12:38:38 | 53.24884 | 10.87289 | 68° | 15km/h | 19436m | -23.6m/s | -51.5°C | 0.8% | 64.0hPa | 2.7V | 00:00:00 | 00:00:00 | 00:00:00 | |
| DB0UT-7 | 2026-08-31 12:38:37 | 53.24884 | 10.87289 | 69° | 22km/h | 19436m | -23.5m/s | -51.4°C | 3.3% | 63.9hPa | 2.7V | 00:00:00 | 02:29:54 | 00:00:00 | |
| DL1XH1-15 | 2026-08-31 12:38:36 | 53.24878 | 10.87260 | 59° | 13km/h | 19563m | -22.6m/s | -51.4°C | 3.2% | 62.7hPa | 2.7V | 03:09:44 | 02:29:48 | 00:00:00 | |
| DF8AY | 2026-08-31 12:38:36 | 53.24881 | 10.87279 | 83° | 13km/h | 19479m | -21.8m/s | -51.5°C | 0% | 63.5hPa | 2.7V | 03:12:29 | 02:29:52 | 00:00:00 | |
| AA1-15 | 2026-08-31 12:38:30 | 53.24873 | 10.87246 | 59° | 15km/h | 19629m | -22.3m/s | -51.6°C | 0% | 62.1hPa | 2.6V | 03:09:56 | 02:29:45 | 00:00:00 | |
| BIOWL1-15 | 2026-08-31 12:38:29 | 53.24868 | 10.87235 | 54° | 16km/h | 19673m | -21.7m/s | -52°C | 0% | 61.6hPa | 2.7V | 03:09:56 | 02:29:43 | 00:00:00 | |
| DO2SHX-10 | 2026-08-31 12:38:28 | 53.24873 | 10.87246 | 59° | 16km/h | 19629m | -22.3m/s | -51.6°C | 3.2% | 62.0hPa | 2.7V | 03:09:00 | 02:29:45 | 00:00:00 | |
| DL1XH-15 | 2026-08-31 12:38:27 | 53.24857 | 10.87215 | 41° | 18km/h | 19754m | -21.8m/s | -52.3°C | 3.5% | 60.9hPa | 2.7V | 03:09:53 | 02:29:39 | 00:00:00 | |
| DB0DAN | 2026-08-31 12:38:25 | 53.24866 | 10.87230 | 60° | 13km/h | 19694m | -21.1m/s | -52.1°C | 0.8% | 61.46hPa | 2.7V | 00:00:00 | 00:00:00 | 00:00:00 | |
| DL1XH-west | 2026-08-31 12:38:24 | 53.24864 | 10.87226 | 45° | 15km/h | 19714m | -19.8m/s | -52.1°C | 0% | 61.2hPa | 2.6V | 03:09:56 | 02:29:41 | 00:00:00 | |
| AA1-15 | 2026-08-31 12:38:20 | 53.24850 | 10.87205 | 50° | 18km/h | 19798m | -23.3m/s | -52.6°C | 0.1% | 60.5hPa | 2.7V | 03:09:56 | 02:29:37 | 00:00:00 | |
| DO2SHX-10 | 2026-08-31 12:38:19 | 53.24846 | 10.87199 | 46° | 22km/h | 19821m | -23.7m/s | -52.6°C | 3.7% | 60.3hPa | 2.6V | 00:00:00 | 02:29:36 | 00:00:00 | |
| DL1XH-15 | 2026-08-31 12:38:17 | 53.24807 | 10.87154 | 43° | 35km/h | 19988m | -24.1m/s | -53.8°C | 4.1% | 58.8hPa | 2.6V | 03:10:03 | 02:29:29 | 00:00:00 | |
| BIOWL1-15 | 2026-08-31 12:38:16 | 53.24831 | 10.87183 | 26° | 26km/h | 19891m | -24.6m/s | -53.2°C | 0.2% | 59.7hPa | 2.7V | 03:10:47 | 02:29:33 | 00:00:00 | |
| DO2SHX-10 | 2026-08-31 12:38:16 | 53.24831 | 10.87183 | 26° | 29km/h | 19891m | -24.6m/s | -53.1°C | 3.8% | 59.6hPa | 2.7V | 03:09:00 | 02:29:33 | 00:00:00 | |
| SONDE2-11 | 2026-08-31 12:38:15 | 53.24819 | 10.87171 | 35° | 31km/h | 19940m | -24.4m/s | -53.5°C | 0.9% | 59.2hPa | 2.7V | 00:00:00 | 00:00:00 | 00:00:00 | |
| DM0DOS-11 | 2026-08-31 12:38:13 | 53.24780 | 10.87109 | 53° | 37km/h | 20084m | -23.4m/s | -53.6°C | 4.1% | 57.9hPa | 2.7V | 03:10:07 | 02:29:25 | 00:00:00 | |
| DL1XH-west | 2026-08-31 12:38:13 | 53.24813 | 10.87163 | 43° | 31km/h | 19964m | -24.5m/s | -53.7°C | 0.3% | 59hPa | 2.6V | 03:10:47 | 02:29:30 | 00:00:00 | |
| DB0NH | 2026-08-31 12:38:13 | 53.24813 | 10.87163 | 43° | 31km/h | 19964m | -24.4m/s | -53.6°C | 4.0% | 59.0hPa | 2.6V | 00:00:00 | 02:29:30 | 00:00:00 | |
| DL1XH1-15 | 2026-08-31 12:38:12 | 53.24800 | 10.87143 | 39° | 38km/h | 20012m | -23.5m/s | -53.9°C | 4.1% | 58.5hPa | 2.6V | 03:10:04 | 02:29:28 | 00:00:00 | |
| DF8AY | 2026-08-31 12:38:11 | 53.24759 | 10.87038 | 78° | 37km/h | 20193m | -22m/s | -52.6°C | 0.2% | 56.9hPa | 2.7V | 03:12:29 | 02:29:20 | 00:00:00 | |
| DB0DAN | 2026-08-31 12:38:10 | 53.24793 | 10.87133 | 46° | 35km/h | 20036m | -25.3m/s | -53.8°C | 1% | 58.39hPa | 2.7V | 00:00:00 | 00:00:00 | 00:00:00 | |
| AA1-15 | 2026-08-31 12:38:10 | 53.24786 | 10.87121 | 49° | 37km/h | 20060m | -24.1m/s | -53.8°C | 0.4% | 58.2hPa | 2.7V | 03:10:47 | 02:29:26 | 00:00:00 | |
| DL1XH-15 | 2026-08-31 12:38:07 | 53.24758 | 10.87023 | 88° | 35km/h | 20215m | -22.1m/s | -52.6°C | 3.7% | 56.7hPa | 2.6V | 03:10:13 | 02:29:19 | 00:00:00 | |
| BIOWL1-15 | 2026-08-31 12:38:05 | 53.24765 | 10.87069 | 68° | 38km/h | 20150m | -21.3m/s | -52.7°C | 0.2% | 57.2hPa | 2.7V | 03:10:47 | 02:29:22 | 00:00:00 | |
| DF8AY-15 | 2026-08-31 12:38:05 | 53.24762 | 10.87053 | 70° | 27km/h | 20171m | -21.9m/s | -52.6°C | 3.7% | 57.0hPa | 2.7V | 00:00:00 | 02:29:21 | 00:00:00 | |
| DM0DOS-11 | 2026-08-31 12:38:03 | 53.24759 | 10.86975 | 99° | 26km/h | 20296m | -19m/s | -52.1°C | 3.6% | 55.9hPa | 2.7V | 03:10:17 | 02:29:15 | 00:00:00 | |
| DL1XH-west | 2026-08-31 12:38:03 | 53.24758 | 10.87023 | 88° | 35km/h | 20215m | -22.1m/s | -52.6°C | 0.2% | 56.7hPa | 2.6V | 03:10:47 | 02:29:19 | 00:00:00 | |
| DF8AY | 2026-08-31 12:37:59 | 53.24758 | 10.86985 | 98° | 26km/h | 20277m | -20.8m/s | -52.2°C | 0.1% | 56.1hPa | 2.7V | 03:12:29 | 02:29:16 | 00:00:00 | |
| AA1-15 | 2026-08-31 12:37:59 | 53.24759 | 10.86975 | 99° | 26km/h | 20296m | -19m/s | -52.1°C | 0.1% | 55.9hPa | 2.7V | 03:10:47 | 02:29:15 | 00:00:00 | |
| DO2SHX-10 | 2026-08-31 12:37:58 | 53.24759 | 10.86975 | 100° | 22km/h | 20296m | -18.9m/s | -52.0°C | 3.6% | 55.9hPa | 2.7V | 00:00:00 | 02:29:15 | 00:00:00 | |
| DL1XH-15 | 2026-08-31 12:37:57 | 53.24755 | 10.86918 | 64° | 29km/h | 20421m | -22.9m/s | -51.6°C | 3.4% | 54.9hPa | 2.7V | 03:10:23 | 02:29:09 | 00:00:00 | |
| DL3AQ-11 | 2026-08-31 12:37:57 | 53.24760 | 10.86965 | 101° | 22km/h | 20314m | -18.5m/s | -52.1°C | 0.9% | 55.7hPa | 2.7V | 00:00:00 | 00:00:00 | 00:00:00 | |
| DL1XH1-15 | 2026-08-31 12:37:55 | 53.24752 | 10.86908 | 58° | 29km/h | 20444m | -24.1m/s | -51.6°C | 3.3% | 54.7hPa | 2.7V | 03:10:24 | 02:29:08 | 00:00:00 | |
| DB0DAN | 2026-08-31 12:37:55 | 53.24760 | 10.86947 | 82° | 20km/h | 20356m | -23m/s | -52.2°C | 0.9% | 55.4hPa | 2.6V | 00:00:00 | 00:00:00 | 00:00:00 | |
| BIOWL1-15 | 2026-08-31 12:37:54 | 53.24759 | 10.86938 | 74° | 24km/h | 20378m | -21.4m/s | -52°C | 0.1% | 55.3hPa | 2.6V | 03:10:47 | 02:29:11 | 00:00:00 | |
| DL1XH-west | 2026-08-31 12:37:52 | 53.24752 | 10.86908 | 58° | 29km/h | 20444m | -24.1m/s | -51.6°C | 0% | 54.7hPa | 2.7V | 03:10:47 | 02:29:08 | 00:00:00 | |
| DF8AY | 2026-08-31 12:37:49 | 53.24737 | 10.86847 | 74° | 22km/h | 20578m | -23.6m/s | -51.6°C | 0% | 53.6hPa | 2.6V | 03:12:29 | 02:29:02 | 00:00:00 | |
| AA1-15 | 2026-08-31 12:37:48 | 53.24740 | 10.86867 | 72° | 27km/h | 20536m | -21.2m/s | -51.7°C | 0% | 53.9hPa | 2.7V | 03:10:47 | 02:29:04 | 00:00:00 | |
| DO2SHX-10 | 2026-08-31 12:37:46 | 53.24738 | 10.86856 | 74° | 24km/h | 20556m | -20.9m/s | -51.6°C | 3.4% | 53.7hPa | 2.6V | 00:00:00 | 02:29:03 | 00:00:00 | |
| DL1XH1-15 | 2026-08-31 12:37:45 | 53.24731 | 10.86809 | 76° | 20km/h | 20662m | -20m/s | -51.6°C | 3.3% | 52.9hPa | 2.6V | 03:10:34 | 02:28:58 | 00:00:00 | |
| DL3AQ-11 | 2026-08-31 12:37:45 | 53.24735 | 10.86837 | 73° | 22km/h | 20601m | -21.9m/s | -51.5°C | 0.8% | 53.4hPa | 2.7V | 00:00:00 | 00:00:00 | 00:00:00 | |
| BIOWL1-15 | 2026-08-31 12:37:43 | 53.24734 | 10.86828 | 75° | 24km/h | 20622m | -21.8m/s | -51.6°C | 0% | 53.2hPa | 2.7V | 03:10:47 | 02:29:00 | 00:00:00 | |
| DL1XH-west | 2026-08-31 12:37:41 | 53.24730 | 10.86801 | 81° | 18km/h | 20682m | -21.2m/s | -51.7°C | 0% | 52.7hPa | 2.6V | 03:10:47 | 02:28:57 | 00:00:00 | |
| DB0DAN | 2026-08-31 12:37:40 | 53.24730 | 10.86801 | 81° | 18km/h | 20682m | -21.2m/s | -51.7°C | 0.8% | 52.71hPa | 2.6V | 00:00:00 | 00:00:00 | 00:00:00 | |
| DO2SHX-10 | 2026-08-31 12:37:40 | 53.24730 | 10.86801 | 81° | 18km/h | 20682m | -21.1m/s | -51.6°C | 3.4% | 52.7hPa | 2.7V | 03:10:00 | 02:28:57 | 00:00:00 | |
| DM0DOS-11 | 2026-08-31 12:37:39 | 53.24728 | 10.86787 | 80° | 15km/h | 20726m | -24.6m/s | -51.9°C | 3.3% | 52.4hPa | 2.7V | 03:10:37 | 02:28:55 | 00:00:00 | |
| DF8AY | 2026-08-31 12:37:37 | 53.24728 | 10.86781 | 81° | 16km/h | 20750m | -27.1m/s | -52°C | 0% | 52.2hPa | 2.7V | 03:12:29 | 02:28:54 | 00:00:00 | |
| AA1-15 | 2026-08-31 12:37:37 | 53.24717 | 10.86757 | 48° | 16km/h | 20886m | -26.6m/s | -52.7°C | 0.1% | 51.2hPa | 2.7V | 03:10:47 | 02:28:49 | 00:00:00 | |
| DL1XH-15 | 2026-08-31 12:37:36 | 53.24717 | 10.86757 | 48° | 16km/h | 20886m | -26.6m/s | -52.7°C | 3.6% | 51.2hPa | 2.7V | 03:10:43 | 02:28:49 | 00:00:00 | |
| DL1ZP-14 | 2026-08-31 12:37:36 | 53.24726 | 10.86775 | 58° | 15km/h | 20778m | -27.5m/s | -52.2°C | 0.8% | 52.1hPa | 2.7V | 00:00:00 | 00:00:00 | 00:00:00 | |
| GOEST3-10 | 2026-08-31 12:37:35 | 53.24724 | 10.86770 | 49° | 15km/h | 20806m | -28.6m/s | -52.3°C | 3.5% | 51.8hPa | 2.6V | 00:00:00 | 02:28:52 | 00:00:00 | |
| DL1XH1-15 | 2026-08-31 12:37:34 | 53.24714 | 10.86752 | 37° | 16km/h | 20912m | -25.4m/s | -52.7°C | 3.6% | 50.9hPa | 2.6V | 03:10:44 | 02:28:48 | 00:00:00 | |
| BIOWL1-15 | 2026-08-31 12:37:33 | 53.24703 | 10.86740 | 45° | 16km/h | 20985m | -24.2m/s | -52.6°C | 0.1% | 50.3hPa | 2.7V | 03:10:47 | 02:28:45 | 00:00:00 | |
| DL1XH-west | 2026-08-31 12:37:29 | 53.24706 | 10.86745 | 36° | 16km/h | 20960m | -25.2m/s | -52.6°C | 0.1% | 50.6hPa | 2.7V | 03:10:47 | 02:28:46 | 00:00:00 | |
| DF8AY | 2026-08-31 12:37:26 | 53.24696 | 10.86728 | 58° | 22km/h | 21032m | -25.7m/s | -52.4°C | 0% | 50hPa | 2.6V | 03:12:29 | 02:28:43 | 00:00:00 | |
| DL1XH-15 | 2026-08-31 12:37:26 | 53.24684 | 10.86695 | 65° | 26km/h | 21133m | -27.3m/s | -52.8°C | 3.7% | 49.2hPa | 2.7V | 03:10:53 | 02:28:39 | 00:00:00 | |
| DB0DAN | 2026-08-31 12:37:25 | 53.24693 | 10.86721 | 57° | 22km/h | 21057m | -25.5m/s | -52.5°C | 0.8% | 49.77hPa | 2.6V | 00:00:00 | 00:00:00 | 00:00:00 | |
| AA1-15 | 2026-08-31 12:37:25 | 53.24690 | 10.86712 | 61° | 24km/h | 21082m | -24.8m/s | -52.6°C | 0.1% | 49.5hPa | 2.6V | 03:11:38 | 02:28:41 | 00:00:00 | |
| DF8AY-15 | 2026-08-31 12:37:24 | 53.24690 | 10.86712 | 62° | 18km/h | 21082m | -24.7m/s | -52.5°C | 3.6% | 49.5hPa | 2.7V | 03:10:00 | 02:28:41 | 00:00:00 | |
| HTAHTA | 2026-08-31 12:37:23 | 53.24687 | 10.86704 | 64° | 22km/h | 21107m | -26.5m/s | -52.7°C | 0.8% | 49.4hPa | 2.7V | 00:00:00 | 00:00:00 | 00:00:00 | |
| DL1XH1-15 | 2026-08-31 12:37:22 | 53.24681 | 10.86686 | 66° | 24km/h | 21159m | -26.8m/s | -52.8°C | 3.7% | 49hPa | 2.7V | 03:10:54 | 02:28:38 | 00:00:00 | |
| DL1XH-west | 2026-08-31 12:37:19 | 53.24673 | 10.86658 | 60° | 24km/h | 21234m | -24.6m/s | -52.8°C | 0% | 48.4hPa | 2.7V | 03:11:38 | 02:28:35 | 00:00:00 | |
| BIOWL1-15 | 2026-08-31 12:37:19 | 53.24661 | 10.86608 | 83° | 16km/h | 21380m | -25.3m/s | -53.2°C | 0.2% | 47.3hPa | 2.7V | 03:11:38 | 02:28:29 | 00:00:00 | |
| DK7RCA | 2026-08-31 12:37:19 | 53.24676 | 10.86668 | 66° | 26km/h | 21210m | -23.7m/s | -52.8°C | 0.9% | 48.6hPa | 2.7V | 03:11:00 | 00:00:00 | 00:00:00 | |
| DG6HD-15 | 2026-08-31 12:37:17 | 53.24673 | 10.86658 | 61° | 24km/h | 21234m | -24.6m/s | -52.8°C | 0.8% | 48.4hPa | 2.7V | 03:11:00 | 00:00:00 | 00:00:00 | |
| DL1XH-15 | 2026-08-31 12:37:16 | 53.24661 | 10.86608 | 82° | 16km/h | 21380m | -25.3m/s | -53.2°C | 3.8% | 47.3hPa | 2.7V | 03:11:03 | 02:28:29 | 00:00:00 | |
| DF8AY | 2026-08-31 12:37:15 | 53.24663 | 10.86624 | 77° | 22km/h | 21330m | -25.5m/s | -53.1°C | 0.1% | 47.7hPa | 2.6V | 03:12:29 | 02:28:31 | 00:00:00 | |
| DO2SHX-10 | 2026-08-31 12:37:13 | 53.24662 | 10.86615 | 81° | 16km/h | 21356m | -24.8m/s | -53.0°C | 3.7% | 47.5hPa | 2.7V | 00:00:00 | 02:28:30 | 00:00:00 | |
| TFSTFS | 2026-08-31 12:37:12 | 53.24661 | 10.86608 | 83° | 16km/h | 21380m | -25.3m/s | -53.2°C | 0.9% | 47.3hPa | 2.7V | 00:00:00 | 00:00:00 | 00:00:00 | |
| DB0DAN | 2026-08-31 12:37:10 | 53.24661 | 10.86595 | 95° | 13km/h | 21427m | -23.1m/s | -53.2°C | 0.9% | 46.95hPa | 2.7V | 00:00:00 | 00:00:00 | 00:00:00 | |
| DD8BA-10 | 2026-08-31 12:37:10 | 53.24660 | 10.86595 | 96° | 7km/h | 21427m | -23.1m/s | -53.2°C | 3.8% | 46.9hPa | 2.7V | 03:11:00 | 00:00:00 | 00:00:00 | |
| DL1NUX | 2026-08-31 12:37:09 | 53.24659 | 10.86584 | 119° | 2km/h | 21520m | -23.6m/s | -53.2°C | 3.8% | 46.3hPa | 2.7V | 03:11:09 | 02:28:23 | 00:00:00 | |
| BIOWL1-15 | 2026-08-31 12:37:08 | 53.24660 | 10.86587 | 79° | 7km/h | 21472m | -24.2m/s | -53.2°C | 0.1% | 46.7hPa | 2.6V | 03:11:38 | 02:28:25 | 00:00:00 | |
| DL1XH-west | 2026-08-31 12:37:08 | 53.24659 | 10.86585 | 103° | 5km/h | 21496m | -25.5m/s | -53.2°C | 0.2% | 46.5hPa | 2.7V | 03:11:38 | 02:28:24 | 00:00:00 | |
| AA1-15 | 2026-08-31 12:37:03 | 53.24658 | 10.86592 | 270° | 7km/h | 21617m | -24.5m/s | -52.9°C | 0.2% | 45.6hPa | 2.7V | 03:11:38 | 02:28:19 | 00:00:00 | |
| DL1XH1-15 | 2026-08-31 12:37:02 | 53.24658 | 10.86594 | 293° | 5km/h | 21640m | -23m/s | -53°C | 3.8% | 45.4hPa | 2.7V | 03:11:14 | 02:28:18 | 00:00:00 | |
| BIOWL1-15 | 2026-08-31 12:36:58 | 53.24648 | 10.86602 | 338° | 16km/h | 21773m | -24m/s | -52.5°C | 0.1% | 44.5hPa | 2.7V | 03:11:38 | 02:28:12 | 00:00:00 | |
| DL1XH-west | 2026-08-31 12:36:58 | 53.24654 | 10.86600 | 357° | 7km/h | 21727m | -22.4m/s | -52.7°C | 0.1% | 44.8hPa | 2.7V | 03:11:38 | 02:28:14 | 00:00:00 | |
| DF7ER-10 | 2026-08-31 12:36:57 | 53.24656 | 10.86599 | 338° | 5km/h | 21706m | -21.9m/s | -52.8°C | 0.9% | 45.0hPa | 2.6V | 03:11:00 | 00:00:00 | 00:00:00 | |
| DL1NUX | 2026-08-31 12:36:55 | 53.24643 | 10.86605 | 334° | 18km/h | 21796m | -23.7m/s | -52.5°C | 3.7% | 44.3hPa | 2.6V | 03:11:21 | 02:28:11 | 00:00:00 | |
| DB0DAN | 2026-08-31 12:36:55 | 53.24648 | 10.86602 | 338° | 16km/h | 21773m | -24m/s | -52.5°C | 0.8% | 44.5hPa | 2.7V | 00:00:00 | 00:00:00 | 00:00:00 | |
| TFSTFS | 2026-08-31 12:36:55 | 53.24647 | 10.86602 | 339° | 16km/h | 21773m | -24.0m/s | -52.5°C | 0.8% | 44.5hPa | 2.7V | 03:11:00 | 00:00:00 | 00:00:00 | |
| DL1XH-15 | 2026-08-31 12:36:53 | 53.24634 | 10.86614 | 336° | 20km/h | 21841m | -24.4m/s | -52.4°C | 3.6% | 44hPa | 2.7V | 03:11:23 | 02:28:09 | 00:00:00 | |
| DF8AY | 2026-08-31 12:36:53 | 53.24639 | 10.86609 | 332° | 22km/h | 21818m | -23.8m/s | -52.5°C | 0.1% | 44.2hPa | 2.6V | 03:12:29 | 02:28:10 | 00:00:00 | |
| AA1-15 | 2026-08-31 12:36:52 | 53.24634 | 10.86614 | 336° | 20km/h | 21841m | -24.4m/s | -52.4°C | 0.1% | 44hPa | 2.7V | 03:11:38 | 02:28:09 | 00:00:00 | |
| SMARD9-15 | 2026-08-31 12:36:52 | 53.24629 | 10.86617 | 339° | 20km/h | 21866m | -25.4m/s | -52.3°C | 0.8% | 43.9hPa | 2.7V | 00:00:00 | 00:00:00 | 00:00:00 | |
| BIOWL9-15 | 2026-08-31 12:36:50 | 53.24619 | 10.86623 | 346° | 18km/h | 21915m | -23.9m/s | -52.4°C | 0.8% | 43.5hPa | 2.7V | 00:00:00 | 00:00:00 | 00:00:00 | |
| DL1NUX | 2026-08-31 12:36:49 | 53.24593 | 10.86626 | 7° | 22km/h | 22034m | -23.8m/s | -52.1°C | 3.6% | 42.8hPa | 2.7V | 03:11:31 | 02:28:01 | 00:00:00 | |
| DL1XH-west | 2026-08-31 12:36:48 | 53.24604 | 10.86625 | 358° | 20km/h | 21986m | -24.8m/s | -52.1°C | 0.1% | 43.1hPa | 2.7V | 03:11:38 | 02:28:03 | 00:00:00 | |
| DL1XH-15 | 2026-08-31 12:36:47 | 53.24583 | 10.86625 | 358° | 20km/h | 22079m | -22.9m/s | -52.1°C | 3.5% | 42.4hPa | 2.6V | 03:11:33 | 02:27:59 | 00:00:00 | |
| DM0DOS-11 | 2026-08-31 12:36:47 | 53.24604 | 10.86625 | 357° | 20km/h | 21986m | -24.8m/s | -52.1°C | 3.6% | 43.1hPa | 2.7V | 03:11:29 | 02:28:03 | 00:00:00 | |
| BIOWL1-15 | 2026-08-31 12:36:46 | 53.24594 | 10.86626 | 7° | 22km/h | 22034m | -23.8m/s | -52.1°C | 0% | 42.8hPa | 2.7V | 03:11:38 | 02:28:01 | 00:00:00 | |
| DF8AY | 2026-08-31 12:36:42 | 53.24574 | 10.86624 | 15° | 18km/h | 22125m | -24.3m/s | -52.3°C | 0% | 42.2hPa | 2.7V | 03:12:29 | 02:27:57 | 00:00:00 | |
| AA1-15 | 2026-08-31 12:36:42 | 53.24578 | 10.86625 | 8° | 18km/h | 22102m | -24.4m/s | -52.2°C | 0.1% | 42.3hPa | 2.7V | 03:11:38 | 02:27:58 | 00:00:00 | |
| DM0DOS-11 | 2026-08-31 12:36:41 | 53.24559 | 10.86613 | 36° | 15km/h | 22220m | -25.7m/s | -52.2°C | 3.6% | 41.6hPa | 2.6V | 03:11:39 | 02:27:53 | 00:00:00 | |
| DB0DAN | 2026-08-31 12:36:40 | 53.24574 | 10.86624 | 15° | 16km/h | 22125m | -24.3m/s | -52.3°C | 0.8% | 42.19hPa | 2.7V | 00:00:00 | 00:00:00 | 00:00:00 | |
| DL1XH-west | 2026-08-31 12:36:36 | 53.24556 | 10.86609 | 54° | 13km/h | 22245m | -25.7m/s | -52.2°C | 0% | 41.4hPa | 2.7V | 03:12:29 | 02:27:52 | 00:00:00 | |
| DL1XH1-15 | 2026-08-31 12:36:35 | 53.24551 | 10.86593 | 45° | 11km/h | 22349m | -26.7m/s | -52°C | 3.5% | 40.8hPa | 2.6V | 03:11:44 | 02:27:48 | 00:00:00 | |
| BIOWL1-15 | 2026-08-31 12:36:35 | 53.24555 | 10.86605 | 66° | 11km/h | 22271m | -26.6m/s | -52.2°C | 0.1% | 41.3hPa | 2.7V | 03:12:29 | 02:27:51 | 00:00:00 | |
| DO2SHX-10 | 2026-08-31 12:36:34 | 53.24555 | 10.86605 | 67° | 11km/h | 22271m | -26.5m/s | -52.2°C | 3.6% | 41.2hPa | 2.7V | 00:00:00 | 02:27:51 | 00:00:00 | |
| DL1XH-15 | 2026-08-31 12:36:33 | 53.24553 | 10.86597 | 70° | 11km/h | 22322m | -26.2m/s | -52.1°C | 3.6% | 40.9hPa | 2.6V | 03:11:43 | 02:27:49 | 00:00:00 | |
| AA1-15 | 2026-08-31 12:36:31 | 53.24551 | 10.86593 | 46° | 11km/h | 22349m | -26.7m/s | -52°C | 0% | 40.8hPa | 2.6V | 03:12:29 | 02:27:48 | 00:00:00 | |
| DF8AY | 2026-08-31 12:36:30 | 53.24547 | 10.86590 | 40° | 7km/h | 22400m | -25.5m/s | -52°C | 0% | 40.5hPa | 2.7V | 03:12:29 | 02:27:46 | 00:00:00 | |
| DL1NUX | 2026-08-31 12:36:30 | 53.24538 | 10.86590 | 344° | 9km/h | 22504m | -27.3m/s | -52°C | 3.5% | 39.8hPa | 2.6V | 03:11:50 | 02:27:42 | 00:00:00 | |
| SONCRA | 2026-08-31 12:36:30 | 53.24547 | 10.86590 | 39° | 7km/h | 22401m | -25.5m/s | -52.0°C | 0.8% | 40.5hPa | 2.6V | 00:00:00 | 00:00:00 | 00:00:00 | |
| DL1XH-15 | 2026-08-31 12:36:28 | 53.24528 | 10.86594 | 357° | 13km/h | 22608m | -26.9m/s | -51.9°C | 3.5% | 39.2hPa | 2.6V | 03:11:54 | 02:27:38 | 00:00:00 | |
| DL1XH-west | 2026-08-31 12:36:26 | 53.24539 | 10.86590 | 345° | 9km/h | 22504m | -27.3m/s | -52.1°C | 0% | 39.8hPa | 2.6V | 03:12:29 | 02:27:42 | 00:00:00 | |
| DB0DAN | 2026-08-31 12:36:25 | 53.24539 | 10.86590 | 345° | 7km/h | 22504m | -27.3m/s | -52.1°C | 0.8% | 39.8hPa | 2.6V | 00:00:00 | 00:00:00 | 00:00:00 | |
| DL3AQ-11 | 2026-08-31 12:36:25 | 53.24536 | 10.86591 | 339° | 7km/h | 22531m | -27.2m/s | -52.0°C | 0.8% | 39.6hPa | 2.6V | 00:00:00 | 00:00:00 | 00:00:00 | |
| DL1XH1-15 | 2026-08-31 12:36:24 | 53.24528 | 10.86594 | 357° | 13km/h | 22608m | -26.9m/s | -51.9°C | 3.5% | 39.2hPa | 2.6V | 03:11:54 | 02:27:38 | 00:00:00 | |
| BIOWL1-15 | 2026-08-31 12:36:24 | 53.24515 | 10.86587 | 27° | 16km/h | 22711m | -26.5m/s | -51.8°C | 0% | 38.5hPa | 2.7V | 03:12:29 | 02:27:34 | 00:00:00 | |
| AA1-15 | 2026-08-31 12:36:21 | 53.24528 | 10.86594 | 358° | 13km/h | 22608m | -26.9m/s | -51.9°C | 0% | 39.2hPa | 2.6V | 03:12:29 | 02:27:38 | 00:00:00 | |
| DF8AY | 2026-08-31 12:36:21 | 53.24518 | 10.86590 | 33° | 15km/h | 22685m | -26.8m/s | -51.8°C | 0% | 38.7hPa | 2.7V | 03:12:29 | 02:27:35 | 00:00:00 | |
| DL1XH-west | 2026-08-31 12:36:15 | 53.24505 | 10.86578 | 20° | 18km/h | 22793m | -30.3m/s | -51.8°C | 0% | 38.1hPa | 2.6V | 03:12:29 | 02:27:31 | 00:00:00 | |
| DL1NUX | 2026-08-31 12:36:15 | 53.24505 | 10.86578 | 20° | 18km/h | 22793m | -30.3m/s | -51.8°C | 3.5% | 38.1hPa | 2.6V | 03:12:01 | 02:27:31 | 00:00:00 | |
| SMARD9-10 | 2026-08-31 12:36:15 | 53.24509 | 10.86581 | 32° | 15km/h | 22764m | -28.6m/s | -51.7°C | 0.8% | 38.3hPa | 2.7V | 00:00:00 | 00:00:00 | 00:00:00 | |
| DL1XH1-15 | 2026-08-31 12:36:14 | 53.24492 | 10.86570 | 19° | 18km/h | 22884m | -31.6m/s | -52.2°C | 3.6% | 37.6hPa | 2.7V | 03:12:04 | 02:27:28 | 00:00:00 | |
| BIOWL1-15 | 2026-08-31 12:36:13 | 53.24500 | 10.86576 | 23° | 18km/h | 22822m | -31.1m/s | -51.9°C | 0% | 38hPa | 2.7V | 03:12:29 | 02:27:30 | 00:00:00 | |
| AA1-15 | 2026-08-31 12:36:10 | 53.24487 | 10.86567 | 24° | 18km/h | 22913m | -29.3m/s | -52.4°C | 0.1% | 37.4hPa | 2.6V | 03:12:29 | 02:27:27 | 00:00:00 | |
| DB0DAN | 2026-08-31 12:36:10 | 53.24487 | 10.86567 | 24° | 16km/h | 22913m | -29.3m/s | -52.4°C | 0.8% | 37.39hPa | 2.6V | 00:00:00 | 00:00:00 | 00:00:00 | |
| DF8AY | 2026-08-31 12:36:09 | 53.24480 | 10.86560 | 37° | 15km/h | 22972m | -29.8m/s | -52.5°C | 0.1% | 37.1hPa | 2.7V | 03:12:29 | 02:27:25 | 00:00:00 | |
| S3001 | 2026-08-31 12:36:08 | 53.24480 | 10.86560 | 36° | 15km/h | 22972m | -29.8m/s | -52.5°C | 0.8% | 37.1hPa | 2.7V | 00:00:00 | 00:00:00 | 00:00:00 | |
| DM0DOS-11 | 2026-08-31 12:36:07 | 53.24474 | 10.86552 | 52° | 13km/h | 23030m | -28.9m/s | -52.3°C | 3.7% | 36.7hPa | 2.7V | 03:12:09 | 02:27:23 | 00:00:00 | |
| DO2SHX-10 | 2026-08-31 12:36:07 | 53.24477 | 10.86556 | 39° | 13km/h | 23001m | -30.1m/s | -52.3°C | 3.6% | 36.8hPa | 2.7V | 00:00:00 | 02:27:24 | 00:00:00 | |
| BUE01 | 2026-08-31 12:36:06 | 53.24474 | 10.86552 | 52° | 13km/h | 23031m | -28.9m/s | -52.3°C | 0.8% | 36.7hPa | 2.6V | 00:00:00 | 00:00:00 | 00:00:00 | |
| DL1NUX | 2026-08-31 12:36:05 | 53.24471 | 10.86545 | 90° | 7km/h | 23088m | -29.7m/s | -52.3°C | 3.6% | 36.4hPa | 2.6V | 03:12:11 | 02:27:21 | 00:00:00 | |
| DL1XH-west | 2026-08-31 12:36:04 | 53.24471 | 10.86545 | 90° | 7km/h | 23088m | -29.7m/s | -52.3°C | 0.1% | 36.4hPa | 2.6V | 03:12:29 | 02:27:21 | 00:00:00 | |
| DF8AY-15 | 2026-08-31 12:36:04 | 53.24471 | 10.86545 | 91° | 5km/h | 23089m | -29.6m/s | -52.3°C | 3.6% | 36.3hPa | 2.6V | 03:12:00 | 02:27:21 | 00:00:00 | |
| DL1XH1-15 | 2026-08-31 12:36:03 | 53.24471 | 10.86541 | 133° | 4km/h | 23179m | -31m/s | -52.2°C | 3.6% | 35.9hPa | 2.7V | 03:12:14 | 02:27:18 | 00:00:00 | |
| BIOWL1-15 | 2026-08-31 12:36:02 | 53.24472 | 10.86541 | 184° | 4km/h | 23210m | -30.2m/s | -52.1°C | 0% | 35.8hPa | 2.7V | 03:12:29 | 02:27:17 | 00:00:00 | |
| DM0DOS-11 | 2026-08-31 12:36:01 | 53.24471 | 10.86541 | 139° | 2km/h | 23327m | -29m/s | -52.1°C | 3.5% | 35.1hPa | 2.7V | 03:12:19 | 02:27:13 | 00:00:00 | |
| DF8AY | 2026-08-31 12:35:59 | 53.24471 | 10.86542 | 82° | 2km/h | 23299m | -29.4m/s | -52.1°C | 0% | 35.2hPa | 2.7V | 03:12:29 | 02:27:14 | 00:00:00 | |
| DK7RCA | 2026-08-31 12:35:59 | 53.24471 | 10.86542 | 0° | 0km/h | 23270m | -30.0m/s | -52.0°C | 0.8% | 35.4hPa | 2.7V | 03:12:00 | 00:00:00 | 00:00:00 | |
| DL1XH-15 | 2026-08-31 12:35:56 | 53.24467 | 10.86532 | 56° | 9km/h | 23472m | -29.7m/s | -52°C | 3.6% | 34.3hPa | 2.7V | 03:12:24 | 02:27:08 | 00:00:00 | |
| DL1NUX | 2026-08-31 12:35:56 | 53.24469 | 10.86539 | 37° | 5km/h | 23386m | -29.6m/s | -52.1°C | 3.6% | 34.8hPa | 2.6V | 03:12:21 | 02:27:11 | 00:00:00 | |
| DB0DAN | 2026-08-31 12:35:55 | 53.24471 | 10.86540 | 29° | 5km/h | 23357m | -30.3m/s | -52.1°C | 0.8% | 34.92hPa | 2.7V | 00:00:00 | 00:00:00 | 00:00:00 | |
| DL1XH-west | 2026-08-31 12:35:54 | 53.24469 | 10.86539 | 38° | 5km/h | 23386m | -29.6m/s | -52.1°C | 0% | 34.8hPa | 2.6V | 03:12:29 | 02:27:11 | 00:00:00 | |
| DL4BBY-15 | 2026-08-31 12:35:52 | 53.24467 | 10.86534 | 79° | 9km/h | 23443m | -29.1m/s | -50.9°C | 0% | 0hPa | 2.6V | 00:00:00 | 00:00:00 | 00:00:00 | |
| DD8BA-10 | 2026-08-31 12:35:50 | 53.24466 | 10.86529 | 105° | 5km/h | 23501m | -28.6m/s | -51.9°C | 3.6% | 34.1hPa | 2.6V | 03:12:00 | 00:00:00 | 00:00:00 | |
| DM0DOS-11 | 2026-08-31 12:35:49 | 53.24467 | 10.86518 | 110° | 4km/h | 23613m | -29.1m/s | -51.8°C | 3.5% | 33.5hPa | 2.6V | 03:12:29 | 02:27:03 | 00:00:00 | |
| DO2SHX-10 | 2026-08-31 12:35:49 | 53.24466 | 10.86525 | 93° | 7km/h | 23528m | -27.9m/s | -51.9°C | 3.6% | 33.9hPa | 2.7V | 00:00:00 | 02:27:06 | 00:00:00 | |
| DL1NUX | 2026-08-31 12:35:48 | 53.24467 | 10.86517 | 142° | 2km/h | 23667m | -27.1m/s | -51.8°C | 3.6% | 33.2hPa | 2.7V | 03:12:31 | 02:27:01 | 00:00:00 | |
| AA1-15 | 2026-08-31 12:35:47 | 53.24467 | 10.86517 | 142° | 2km/h | 23667m | -27.1m/s | -51.8°C | 0.1% | 33.2hPa | 2.7V | 03:13:20 | 02:27:01 | 00:00:00 | |
| DL3AQ-11 | 2026-08-31 12:35:45 | 53.24467 | 10.86517 | 142° | 0km/h | 23667m | -27.1m/s | 0°C | -1.0% | 33.2hPa | 2.6V | 00:00:00 | 00:00:00 | 00:00:00 | |
| DF8AY | 2026-08-31 12:35:42 | 53.24465 | 10.86518 | 328° | 4km/h | 23749m | -29.6m/s | -51.8°C | 0.1% | 32.8hPa | 2.6V | 03:13:20 | 02:26:58 | 00:00:00 | |
| DB0DAN | 2026-08-31 12:35:40 | 53.24463 | 10.86519 | 343° | 9km/h | 23778m | -30.1m/s | -51.9°C | 0.8% | 32.74hPa | 2.6V | 00:00:00 | 00:00:00 | 00:00:00 | |
| BIOWL1-15 | 2026-08-31 12:35:37 | 53.24442 | 10.86530 | 333° | 13km/h | 24038m | -28.2m/s | -51.5°C | 0% | 31.4hPa | 2.7V | 03:13:20 | 02:26:48 | 00:00:00 | |
| AA1-15 | 2026-08-31 12:35:35 | 53.24449 | 10.86525 | 339° | 9km/h | 23955m | -28.5m/s | -51.8°C | 0.1% | 31.8hPa | 2.6V | 03:13:20 | 02:26:51 | 00:00:00 | |
| DL1NUX | 2026-08-31 12:35:35 | 53.24449 | 10.86524 | 338° | 9km/h | 23955m | -28.4m/s | -51.8°C | 3.6% | 31.8hPa | 2.6V | 03:12:41 | 02:26:51 | 00:00:00 | |
| DL1XH-west | 2026-08-31 12:35:32 | 53.24444 | 10.86528 | 335° | 9km/h | 24010m | -28.8m/s | -51.7°C | 0.1% | 31.5hPa | 2.7V | 03:13:20 | 02:26:49 | 00:00:00 | |
| DF8AY | 2026-08-31 12:35:31 | 53.24409 | 10.86538 | 41° | 7km/h | 24379m | -31.8m/s | -50.2°C | 0% | 29.8hPa | 2.7V | 03:13:20 | 02:26:36 | 00:00:00 | |
| BIOWL1-15 | 2026-08-31 12:35:29 | 53.24429 | 10.86539 | 349° | 11km/h | 24146m | -27.1m/s | -51°C | 0% | 30.9hPa | 2.6V | 03:13:20 | 02:26:44 | 00:00:00 | |
| DL1NUX | 2026-08-31 12:35:28 | 53.24419 | 10.86541 | 351° | 13km/h | 24225m | -27.6m/s | -50.6°C | 3.3% | 30.5hPa | 2.7V | 03:12:51 | 02:26:41 | 00:00:00 | |
| DM0DOS-11 | 2026-08-31 12:35:28 | 53.24426 | 10.86540 | 355° | 13km/h | 24172m | -26.9m/s | -50.9°C | 3.4% | 30.8hPa | 2.7V | 03:12:49 | 02:26:43 | 00:00:00 | |
| AA1-15 | 2026-08-31 12:35:26 | 53.24422 | 10.86540 | 2° | 13km/h | 24198m | -27.1m/s | -50.8°C | 0% | 30.6hPa | 2.7V | 03:13:20 | 02:26:42 | 00:00:00 | |
| DL1XH-west | 2026-08-31 12:35:22 | 53.24411 | 10.86541 | 52° | 9km/h | 24347m | -33.8m/s | -50.4°C | 0% | 30hPa | 2.7V | 03:13:20 | 02:26:37 | 00:00:00 | |
| BIOWL1-15 | 2026-08-31 12:35:20 | 53.24410 | 10.86494 | 174° | 5km/h | 24863m | -30.8m/s | -50.7°C | 0% | 27.7hPa | 2.6V | 03:13:20 | 02:26:20 | 00:00:00 | |
| DD8BA-10 | 2026-08-31 12:35:20 | 53.24411 | 10.86541 | 52° | 11km/h | 24347m | -33.7m/s | -50.3°C | 3.2% | 29.9hPa | 2.6V | 00:00:00 | 00:00:00 | 00:00:00 | |
| DO2SHX-10 | 2026-08-31 12:35:19 | 53.24409 | 10.86538 | 42° | 9km/h | 24379m | -31.8m/s | -50.2°C | 3.2% | 29.8hPa | 2.6V | 00:00:00 | 02:26:36 | 00:00:00 | |
| DM0DOS-11 | 2026-08-31 12:35:18 | 53.24407 | 10.86528 | 86° | 13km/h | 24472m | -31.1m/s | -50.2°C | 3.1% | 29.4hPa | 2.6V | 03:12:59 | 02:26:33 | 00:00:00 | |
| DF8AY | 2026-08-31 12:35:16 | 53.24406 | 10.86523 | 84° | 13km/h | 24502m | -29.5m/s | -50.3°C | 0% | 29.2hPa | 2.7V | 03:13:20 | 02:26:32 | 00:00:00 | |
| DL1NUX | 2026-08-31 12:35:16 | 53.24406 | 10.86518 | 82° | 13km/h | 24530m | -28.1m/s | -50.5°C | 3.2% | 29.1hPa | 2.7V | 03:13:01 | 02:26:31 | 00:00:00 | |
| AA1-15 | 2026-08-31 12:35:15 | 53.24406 | 10.86518 | 82° | 13km/h | 24530m | -28.1m/s | -50.5°C | 0% | 29.1hPa | 2.7V | 03:13:20 | 02:26:31 | 00:00:00 | |
| DO2SHX-10 | 2026-08-31 12:35:13 | 53.24406 | 10.86513 | 103° | 13km/h | 24559m | -29.2m/s | -50.6°C | 3.3% | 28.9hPa | 2.7V | 00:00:00 | 02:26:30 | 00:00:00 | |
| DG6HD-15 | 2026-08-31 12:35:12 | 53.24406 | 10.86513 | 104° | 13km/h | 24559m | -29.2m/s | -50.7°C | 0.7% | 29.0hPa | 2.6V | 03:13:00 | 00:00:00 | 00:00:00 | |
| DO2LYB-13 | 2026-08-31 12:35:11 | 53.24406 | 10.86508 | 88° | 13km/h | 24588m | -29.8m/s | -50.8°C | 0.7% | 28.9hPa | 2.6V | 00:00:00 | 00:00:00 | 00:00:00 | |
| DB0DAN | 2026-08-31 12:35:10 | 53.24405 | 10.86499 | 99° | 9km/h | 24646m | -30.9m/s | -50.7°C | 0.7% | 28.61hPa | 2.6V | 00:00:00 | 00:00:00 | 00:00:00 | |
| DD8BA-10 | 2026-08-31 12:35:10 | 53.24405 | 10.86499 | 100° | 5km/h | 24647m | -30.8m/s | -50.7°C | 3.3% | 28.6hPa | 2.6V | 03:13:00 | 00:00:00 | 00:00:00 | |
| DL1XH-west | 2026-08-31 12:35:10 | 53.24405 | 10.86496 | 124° | 7km/h | 24678m | -32.6m/s | -50.7°C | 0% | 28.5hPa | 2.6V | 03:13:20 | 02:26:26 | 00:00:00 | |
| DL1NUX | 2026-08-31 12:35:08 | 53.24409 | 10.86494 | 201° | 5km/h | 24834m | -30.8m/s | -50.7°C | 3.4% | 27.8hPa | 2.6V | 03:13:11 | 02:26:21 | 00:00:00 | |
| DM0DOS-11 | 2026-08-31 12:35:07 | 53.24408 | 10.86493 | 156° | 4km/h | 24772m | -31.4m/s | -50.9°C | 3.4% | 28.1hPa | 2.7V | 03:13:09 | 02:26:23 | 00:00:00 | |
| DF8AY | 2026-08-31 12:35:05 | 53.24409 | 10.86493 | 220° | 2km/h | 24803m | -31.1m/s | -50.8°C | 0% | 27.9hPa | 2.7V | 03:13:20 | 02:26:22 | 00:00:00 | |
| AA1-15 | 2026-08-31 12:35:03 | 53.24411 | 10.86494 | 175° | 2km/h | 24894m | -31.9m/s | -50.7°C | 0% | 27.5hPa | 2.6V | 03:13:20 | 02:26:19 | 00:00:00 | |
| DL1XH-15 | 2026-08-31 12:35:02 | 53.24411 | 10.86495 | 264° | 4km/h | 24925m | -31.4m/s | -50.7°C | 3.4% | 27.4hPa | 2.7V | 03:13:14 | 02:26:18 | 00:00:00 | |
| DL1XH-west | 2026-08-31 12:34:59 | 53.24411 | 10.86500 | 282° | 7km/h | 24986m | -29.9m/s | -50.7°C | 0% | 27.1hPa | 2.7V | 03:13:20 | 02:26:16 | 00:00:00 | |
| HSKMA3-T | 2026-08-31 12:34:56 | 53.24405 | 10.86520 | 311° | 20km/h | 25101m | -30.8m/s | -50.6°C | 0% | 26.7hPa | 2.7V | 03:13:20 | 02:26:12 | 00:00:00 | |
| DF8AY | 2026-08-31 12:34:55 | 53.24397 | 10.86532 | 318° | 20km/h | 25160m | -30.1m/s | -50.6°C | 0% | 26.4hPa | 2.6V | 03:14:11 | 02:26:10 | 00:00:00 | |
| DB0DAN | 2026-08-31 12:34:55 | 53.24405 | 10.86520 | 310° | 20km/h | 25101m | -30.8m/s | -50.6°C | 0.7% | 26.67hPa | 2.7V | 00:00:00 | 00:00:00 | 00:00:00 | |
| AA1-15 | 2026-08-31 12:34:53 | 53.24388 | 10.86541 | 342° | 18km/h | 25219m | -31.1m/s | -50.7°C | 0% | 26.2hPa | 2.6V | 03:14:11 | 02:26:08 | 00:00:00 | |
| DL1XH-west | 2026-08-31 12:34:49 | 53.24378 | 10.86545 | 350° | 18km/h | 25279m | -31.3m/s | -50.5°C | 0% | 25.9hPa | 2.7V | 03:14:11 | 02:26:06 | 00:00:00 | |
| SMARD9-15 | 2026-08-31 12:34:47 | 53.24370 | 10.86547 | 6° | 11km/h | 25340m | -30.4m/s | -50.4°C | 0.7% | 25.7hPa | 2.7V | 00:00:00 | 00:00:00 | 00:00:00 | |
| BIOWL9-15 | 2026-08-31 12:34:45 | 53.24366 | 10.86543 | 51° | 9km/h | 25398m | -29.9m/s | -50.3°C | 0.7% | 25.5hPa | 2.7V | 00:00:00 | 00:00:00 | 00:00:00 | |
| DF8AY | 2026-08-31 12:34:43 | 53.24363 | 10.86528 | 108° | 13km/h | 25526m | -34.4m/s | -49.9°C | 0% | 25hPa | 2.7V | 03:14:11 | 02:25:58 | 00:00:00 | |
| BIOWL7-15 | 2026-08-31 12:34:41 | 53.24363 | 10.86532 | 91° | 9km/h | 25493m | -33.7m/s | -50.0°C | 0.6% | 25.2hPa | 2.6V | 00:00:00 | 00:00:00 | 00:00:00 | |
| DB0DAN | 2026-08-31 12:34:40 | 53.24364 | 10.86524 | 116° | 11km/h | 25560m | -34.3m/s | -49.9°C | 0.6% | 24.86hPa | 2.6V | 00:00:00 | 00:00:00 | 00:00:00 | |
| BIOWL1-15 | 2026-08-31 12:34:40 | 53.24364 | 10.86524 | 116° | 13km/h | 25560m | -34.3m/s | -49.9°C | 0% | 24.9hPa | 2.6V | 03:14:11 | 02:25:57 | 00:00:00 | |
| DL1XH-west | 2026-08-31 12:34:39 | 53.24368 | 10.86518 | 149° | 11km/h | 25625m | -34m/s | -50°C | 0% | 24.6hPa | 2.7V | 03:14:11 | 02:25:55 | 00:00:00 | |
| HSKMA3-T | 2026-08-31 12:34:36 | 53.24376 | 10.86517 | 204° | 13km/h | 25721m | -32.3m/s | -50°C | 0% | 24.2hPa | 2.6V | 03:14:11 | 02:25:52 | 00:00:00 | |
| DL1NUX | 2026-08-31 12:34:36 | 53.24379 | 10.86520 | 203° | 15km/h | 25754m | -34.8m/s | -50°C | 3.2% | 24.1hPa | 2.6V | 03:13:41 | 02:25:51 | 00:00:00 | |
| AA1-15 | 2026-08-31 12:34:31 | 53.24386 | 10.86530 | 247° | 9km/h | 25883m | -32m/s | -49.9°C | 0% | 23.7hPa | 2.6V | 03:14:11 | 02:25:47 | 00:00:00 | |
| BIOWL1-15 | 2026-08-31 12:34:30 | 53.24386 | 10.86533 | 250° | 4km/h | 25914m | -32.7m/s | -49.9°C | 0% | 23.5hPa | 2.7V | 03:14:11 | 02:25:46 | 00:00:00 | |
| DL1ZP-14 | 2026-08-31 12:34:30 | 53.24386 | 10.86533 | 249° | 4km/h | 25914m | -32.7m/s | -49.9°C | 0.6% | 23.5hPa | 2.7V | 00:00:00 | 00:00:00 | 00:00:00 | |
| DL1NUX | 2026-08-31 12:34:28 | 53.24377 | 10.86540 | 334° | 11km/h | 26077m | -33.8m/s | -49.8°C | 3.1% | 23hPa | 2.7V | 03:13:51 | 02:25:41 | 00:00:00 | |
| DL1XH-west | 2026-08-31 12:34:28 | 53.24386 | 10.86534 | 330° | 4km/h | 25946m | -32.8m/s | -49.9°C | 0% | 23.4hPa | 2.7V | 03:14:11 | 02:25:45 | 00:00:00 | |
| DO2SHX-10 | 2026-08-31 12:34:28 | 53.24386 | 10.86534 | 330° | 7km/h | 25946m | -32.7m/s | -49.8°C | 3.2% | 23.4hPa | 2.7V | 03:13:00 | 02:25:45 | 00:00:00 | |
| DM0DOS-11 | 2026-08-31 12:34:27 | 53.24382 | 10.86536 | 343° | 9km/h | 26010m | -34.1m/s | -49.8°C | 3.2% | 23.2hPa | 2.6V | 03:13:49 | 02:25:43 | 00:00:00 | |
| HSKMA3-T | 2026-08-31 12:34:25 | 53.24379 | 10.86538 | 342° | 11km/h | 26043m | -33.6m/s | -49.8°C | 0% | 23.1hPa | 2.6V | 03:14:11 | 02:25:42 | 00:00:00 | |
| DB0DAN | 2026-08-31 12:34:25 | 53.24379 | 10.86538 | 342° | 9km/h | 26044m | -33.6m/s | -49.8°C | 0.6% | 23.12hPa | 2.6V | 00:00:00 | 00:00:00 | 00:00:00 | |
| DO2SHX-10 | 2026-08-31 12:34:25 | 53.24379 | 10.86538 | 342° | 11km/h | 26044m | -33.6m/s | -49.8°C | 3.1% | 23.1hPa | 2.6V | 00:00:00 | 02:25:42 | 00:00:00 | |
| DF8AY-15 | 2026-08-31 12:34:24 | 53.24377 | 10.86540 | 335° | 7km/h | 26077m | -33.7m/s | -49.7°C | 3.1% | 23.0hPa | 2.6V | 00:00:00 | 02:25:41 | 00:00:00 | |
| DL1XH1-15 | 2026-08-31 12:34:23 | 53.24369 | 10.86546 | 331° | 11km/h | 26176m | -32.4m/s | -49.6°C | 3.1% | 22.6hPa | 2.6V | 03:13:54 | 02:25:38 | 00:00:00 | |
| AA1-15 | 2026-08-31 12:34:21 | 53.24367 | 10.86548 | 325° | 9km/h | 26208m | -32.7m/s | -49.7°C | 0% | 22.5hPa | 2.6V | 03:14:11 | 02:25:37 | 00:00:00 | |
| DL1XH-west | 2026-08-31 12:34:17 | 53.24361 | 10.86553 | 356° | 5km/h | 26299m | -29.7m/s | -50°C | 0% | 22.2hPa | 2.7V | 03:14:11 | 02:25:34 | 00:00:00 | |
| DM0DOS-11 | 2026-08-31 12:34:17 | 53.24360 | 10.86553 | 353° | 4km/h | 26328m | -30m/s | -50°C | 3.3% | 22.1hPa | 2.7V | 03:13:59 | 02:25:33 | 00:00:00 | |
| DF8AY | 2026-08-31 12:34:15 | 53.24359 | 10.86553 | 2° | 5km/h | 26358m | -31.7m/s | -50°C | 0% | 22hPa | 2.7V | 03:14:11 | 02:25:32 | 00:00:00 | |
| DL1NUX | 2026-08-31 12:34:15 | 53.24358 | 10.86553 | 85° | 2km/h | 26390m | -33.8m/s | -50.1°C | 3.3% | 21.9hPa | 2.6V | 03:14:01 | 02:25:31 | 00:00:00 | |
| HSKMA3-T | 2026-08-31 12:34:14 | 53.24357 | 10.86552 | 50° | 5km/h | 26423m | -33.2m/s | -50.1°C | 0% | 21.8hPa | 2.6V | 03:14:11 | 02:25:30 | 00:00:00 | |
| AA1-15 | 2026-08-31 12:34:11 | 53.24354 | 10.86541 | 120° | 7km/h | 26623m | -33.6m/s | -50°C | 0% | 21.1hPa | 2.6V | 03:14:11 | 02:25:24 | 00:00:00 | |
| DB0DAN | 2026-08-31 12:34:10 | 53.24354 | 10.86548 | 64° | 5km/h | 26521m | -34.7m/s | -50.1°C | 0.7% | 21.46hPa | 2.7V | 00:00:00 | 00:00:00 | 00:00:00 | |
| BIOWL1-15 | 2026-08-31 12:34:09 | 53.24356 | 10.86536 | 156° | 7km/h | 26722m | -34.9m/s | -49.6°C | 0% | 20.8hPa | 2.7V | 03:14:11 | 02:25:21 | 00:00:00 | |
| DL1NUX | 2026-08-31 12:34:09 | 53.24356 | 10.86536 | 155° | 7km/h | 26722m | -34.9m/s | -49.6°C | 3.2% | 20.8hPa | 2.7V | 03:14:11 | 02:25:21 | 00:00:00 | |
| DM0DOS-11 | 2026-08-31 12:34:07 | 53.24355 | 10.86539 | 125° | 5km/h | 26655m | -32.8m/s | -49.9°C | 3.3% | 21hPa | 2.6V | 03:14:09 | 02:25:23 | 00:00:00 | |
| DL1XH-west | 2026-08-31 12:34:07 | 53.24355 | 10.86539 | 126° | 5km/h | 26655m | -32.8m/s | -49.9°C | 0% | 21hPa | 2.6V | 03:14:11 | 02:25:23 | 00:00:00 | |
| HSKMA3-T | 2026-08-31 12:34:02 | 53.24359 | 10.86532 | 135° | 9km/h | 26789m | -33.5m/s | -49.4°C | 0% | 20.6hPa | 2.7V | 03:15:02 | 02:25:19 | 00:00:00 | |
| AA1-15 | 2026-08-31 12:33:58 | 53.24370 | 10.86516 | 158° | 13km/h | 26946m | -32.8m/s | -49.2°C | 0% | 20.1hPa | 2.7V | 03:15:02 | 02:25:14 | 00:00:00 | |
| DO2SHX-10 | 2026-08-31 12:33:58 | 53.24368 | 10.86519 | 143° | 13km/h | 26915m | -32.7m/s | -49.1°C | 3.1% | 20.1hPa | 2.6V | 00:00:00 | 02:25:15 | 00:00:00 | |
| DM0DOS-11 | 2026-08-31 12:33:57 | 53.24373 | 10.86514 | 148° | 11km/h | 26979m | -32.6m/s | -49.2°C | 3.2% | 20hPa | 2.6V | 03:14:19 | 02:25:13 | 00:00:00 | |
| DL1XH-west | 2026-08-31 12:33:56 | 53.24375 | 10.86512 | 158° | 9km/h | 27012m | -32.4m/s | -49.4°C | 0% | 19.9hPa | 2.6V | 03:15:02 | 02:25:12 | 00:00:00 | |
| BIOWL1-15 | 2026-08-31 12:33:56 | 53.24377 | 10.86509 | 100° | 5km/h | 27076m | -32.7m/s | -49.6°C | 0% | 19.7hPa | 2.7V | 03:15:02 | 02:25:10 | 00:00:00 | |
| DL1NUX | 2026-08-31 12:33:55 | 53.24377 | 10.86511 | 135° | 5km/h | 27044m | -32.8m/s | -49.5°C | 3.3% | 19.8hPa | 2.7V | 03:14:21 | 02:25:11 | 00:00:00 | |
| DB0DAN | 2026-08-31 12:33:55 | 53.24375 | 10.86512 | 157° | 9km/h | 27012m | -32.4m/s | -49.4°C | 0.7% | 19.88hPa | 2.6V | 00:00:00 | 00:00:00 | 00:00:00 | |
| HSKMA3-T | 2026-08-31 12:33:52 | 53.24376 | 10.86506 | 14° | 4km/h | 27143m | -36.1m/s | -49.2°C | 0% | 19.6hPa | 2.6V | 03:15:02 | 02:25:08 | 00:00:00 | |
| EDDB2-11 | 2026-08-31 12:33:52 | 53.24376 | 10.86506 | 14° | 4km/h | 27144m | -36.1m/s | -49.2°C | 0.6% | 19.6hPa | 2.7V | 00:00:00 | 00:00:00 | 00:00:00 | |
| DM0DOS-11 | 2026-08-31 12:33:51 | 53.24373 | 10.86511 | 271° | 7km/h | 27320m | -34.3m/s | -49.2°C | 3.3% | 19hPa | 2.7V | 03:14:29 | 02:25:03 | 00:00:00 | |
| DG6HD-15 | 2026-08-31 12:33:51 | 53.24377 | 10.86507 | 58° | 5km/h | 27110m | -34.0m/s | -49.5°C | 0.7% | 19.6hPa | 2.6V | 03:15:00 | 00:00:00 | 00:00:00 | |
| DD8BA-10 | 2026-08-31 12:33:50 | 53.24375 | 10.86505 | 56° | 7km/h | 27180m | -37.1m/s | -49.0°C | 3.2% | 19.4hPa | 2.6V | 03:14:00 | 00:00:00 | 00:00:00 | |
| DO2SHX-10 | 2026-08-31 12:33:49 | 53.24375 | 10.86504 | 334° | 5km/h | 27217m | -36.9m/s | -49.0°C | 3.2% | 19.3hPa | 2.6V | 00:00:00 | 02:25:06 | 00:00:00 | |
| DL1NUX | 2026-08-31 12:33:48 | 53.24372 | 10.86516 | 310° | 7km/h | 27387m | -34.4m/s | -49.1°C | 3.3% | 18.8hPa | 2.6V | 03:14:31 | 02:25:01 | 00:00:00 | |
| AA1-15 | 2026-08-31 12:33:47 | 53.24373 | 10.86511 | 272° | 7km/h | 27320m | -34.3m/s | -49.2°C | 0% | 19hPa | 2.7V | 03:15:02 | 02:25:03 | 00:00:00 | |
| DL1XH-west | 2026-08-31 12:33:46 | 53.24373 | 10.86514 | 281° | 5km/h | 27354m | -33.8m/s | -49.2°C | 0% | 18.9hPa | 2.7V | 03:15:02 | 02:25:02 | 00:00:00 | |
| DL1XH1-15 | 2026-08-31 12:33:45 | 53.24361 | 10.86520 | 358° | 20km/h | 27521m | -35.7m/s | -48.9°C | 3.2% | 18.4hPa | 2.7V | 03:14:35 | 02:24:57 | 00:00:00 | |
| SMARD9-15 | 2026-08-31 12:33:45 | 53.24373 | 10.86514 | 281° | 5km/h | 27354m | -33.8m/s | -49.2°C | 0.6% | 18.9hPa | 2.6V | 00:00:00 | 00:00:00 | 00:00:00 | |
| BIOWL1-15 | 2026-08-31 12:33:43 | 53.24369 | 10.86520 | 348° | 11km/h | 27454m | -34.3m/s | -49.1°C | 0% | 18.6hPa | 2.6V | 03:15:02 | 02:24:59 | 00:00:00 | |
| HSKMA3-T | 2026-08-31 12:33:42 | 53.24365 | 10.86520 | 9° | 15km/h | 27487m | -33.8m/s | -49°C | 0% | 18.5hPa | 2.7V | 03:15:02 | 02:24:58 | 00:00:00 | |
| DB0DAN | 2026-08-31 12:33:40 | 53.24361 | 10.86520 | 358° | 20km/h | 27521m | -35.7m/s | -48.9°C | 0.6% | 18.42hPa | 2.7V | 00:00:00 | 00:00:00 | 00:00:00 | |
| DD8BA-10 | 2026-08-31 12:33:40 | 53.24361 | 10.86520 | 359° | 16km/h | 27522m | -35.7m/s | -48.9°C | 3.2% | 18.4hPa | 2.7V | 00:00:00 | 00:00:00 | 00:00:00 | |
| DF7PN | 2026-08-31 12:33:39 | 53.24356 | 10.86520 | 7° | 20km/h | 27556m | -34.6m/s | -48.9°C | 0.6% | 18.3hPa | 2.6V | 00:00:00 | 00:00:00 | 00:00:00 | |
| DF7ER-10 | 2026-08-31 12:33:38 | 53.24356 | 10.86520 | 8° | 20km/h | 27556m | -34.6m/s | -48.9°C | 0.7% | 18.3hPa | 2.6V | 03:15:00 | 00:00:00 | 00:00:00 | |
| DB0UT-7 | 2026-08-31 12:33:37 | 53.24345 | 10.86517 | 12° | 18km/h | 27627m | -36.5m/s | -48.4°C | 3.1% | 18.1hPa | 2.6V | 03:14:00 | 02:24:54 | 00:00:00 | |
| AA1-15 | 2026-08-31 12:33:37 | 53.24336 | 10.86512 | 32° | 15km/h | 27701m | -39.1m/s | -48°C | 0% | 17.9hPa | 2.6V | 03:15:02 | 02:24:52 | 00:00:00 | |
| DL1XH1-15 | 2026-08-31 12:33:35 | 53.24327 | 10.86498 | 54° | 5km/h | 27887m | -36.1m/s | -48.1°C | 3% | 17.4hPa | 2.6V | 03:14:45 | 02:24:47 | 00:00:00 | |
| DL1XH-15 | 2026-08-31 12:33:35 | 53.24328 | 10.86501 | 54° | 7km/h | 27851m | -37.2m/s | -48°C | 3% | 17.5hPa | 2.7V | 03:14:44 | 02:24:48 | 00:00:00 | |
| DF8AY | 2026-08-31 12:33:35 | 53.24333 | 10.86509 | 30° | 13km/h | 27739m | -38.5m/s | -47.9°C | 0% | 17.9hPa | 2.7V | 03:15:02 | 02:24:51 | 00:00:00 | |
| HSKMA3-T | 2026-08-31 12:33:31 | 53.24328 | 10.86501 | 55° | 7km/h | 27851m | -37.2m/s | -48°C | 0% | 17.5hPa | 2.7V | 03:15:02 | 02:24:48 | 00:00:00 | |
| BIOWL1-15 | 2026-08-31 12:33:31 | 53.24326 | 10.86497 | 31° | 2km/h | 27923m | -37.4m/s | -48.1°C | 0% | 17.4hPa | 2.6V | 03:15:02 | 02:24:46 | 00:00:00 | |
| DO2SHX-10 | 2026-08-31 12:33:31 | 53.24328 | 10.86501 | 55° | 5km/h | 27851m | -37.2m/s | -47.9°C | 3.0% | 17.5hPa | 2.7V | 00:00:00 | 02:24:48 | 00:00:00 | |
| GOEST3-10 | 2026-08-31 12:33:30 | 53.24327 | 10.86498 | 55° | 4km/h | 27887m | -36.1m/s | -48.0°C | 3.0% | 17.4hPa | 2.7V | 00:00:00 | 00:00:00 | 00:00:00 | |
| DO2SHX-10 | 2026-08-31 12:33:28 | 53.24325 | 10.86497 | 30° | 4km/h | 27960m | -37.4m/s | -48.1°C | 3.1% | 17.2hPa | 2.7V | 03:14:00 | 02:24:45 | 00:00:00 | |
| DL1ZP-14 | 2026-08-31 12:33:27 | 53.24325 | 10.86497 | 327° | 4km/h | 27996m | -36.0m/s | -48.2°C | 0.6% | 17.1hPa | 2.7V | 00:00:00 | 00:00:00 | 00:00:00 | |
| DK1YY | 2026-08-31 12:33:26 | 53.24323 | 10.86498 | 329° | 4km/h | 28067m | -35.4m/s | -48.1°C | 0.6% | 17.0hPa | 2.6V | 00:00:00 | 00:00:00 | 00:00:00 | |
| DL1XH-15 | 2026-08-31 12:33:25 | 53.24312 | 10.86506 | 343° | 16km/h | 28206m | -32.2m/s | -48.1°C | 3.3% | 16.6hPa | 2.6V | 03:14:54 | 02:24:38 | 00:00:00 | |
| DB0DAN | 2026-08-31 12:33:25 | 53.24323 | 10.86498 | 330° | 5km/h | 28066m | -35.4m/s | -48.1°C | 0.6% | 16.96hPa | 2.7V | 00:00:00 | 00:00:00 | 00:00:00 | |
| DL1XH1-15 | 2026-08-31 12:33:25 | 53.24301 | 10.86508 | 10° | 27km/h | 28269m | -32.1m/s | -48°C | 3.3% | 16.4hPa | 2.7V | 03:14:56 | 02:24:36 | 00:00:00 | |
| AA1-15 | 2026-08-31 12:33:25 | 53.24323 | 10.86498 | 330° | 5km/h | 28066m | -35.4m/s | -48.1°C | 0% | 17hPa | 2.7V | 03:15:02 | 02:24:42 | 00:00:00 | |
| DL1NUX | 2026-08-31 12:33:25 | 53.24322 | 10.86500 | 328° | 7km/h | 28102m | -36.2m/s | -48°C | 3.2% | 16.9hPa | 2.7V | 03:14:51 | 02:24:41 | 00:00:00 | |
| DF8AY | 2026-08-31 12:33:24 | 53.24319 | 10.86502 | 336° | 13km/h | 28137m | -35.5m/s | -47.9°C | 0% | 16.8hPa | 2.6V | 03:15:02 | 02:24:40 | 00:00:00 | |
| HSKMA3-T | 2026-08-31 12:33:21 | 53.24307 | 10.86508 | 357° | 22km/h | 28237m | -33m/s | -48.1°C | 0% | 16.5hPa | 2.7V | 03:15:02 | 02:24:37 | 00:00:00 | |
| EDDB2-11 | 2026-08-31 12:33:21 | 53.24307 | 10.86508 | 356° | 20km/h | 28237m | -33.0m/s | -48.1°C | 0.6% | 16.5hPa | 2.6V | 00:00:00 | 00:00:00 | 00:00:00 | |
| DL1NUX | 2026-08-31 12:33:20 | 53.24266 | 10.86473 | 47° | 33km/h | 28441m | -37.8m/s | -47.3°C | 3% | 16hPa | 2.6V | 03:15:01 | 02:24:31 | 00:00:00 | |
| BIOWL1-15 | 2026-08-31 12:33:19 | 53.24294 | 10.86505 | 18° | 31km/h | 28301m | -32.6m/s | -47.9°C | 0% | 16.4hPa | 2.7V | 03:15:02 | 02:24:35 | 00:00:00 | |
| TFSTFS | 2026-08-31 12:33:18 | 53.24301 | 10.86508 | 12° | 27km/h | 28269m | -32.1m/s | -48.0°C | 0.6% | 16.4hPa | 2.7V | 03:15:00 | 00:00:00 | 00:00:00 | |
| DF7ER-10 | 2026-08-31 12:33:17 | 53.24286 | 10.86500 | 25° | 37km/h | 28334m | -34.2m/s | -47.7°C | 0.6% | 16.3hPa | 2.7V | 03:15:00 | 00:00:00 | 00:00:00 | |
| DL1XH-15 | 2026-08-31 12:33:16 | 53.24255 | 10.86441 | 76° | 29km/h | 28552m | -36.9m/s | -46.7°C | 3% | 15.7hPa | 2.7V | 03:15:04 | 02:24:28 | 00:00:00 | |
| DF8AY | 2026-08-31 12:33:15 | 53.24258 | 10.86452 | 65° | 29km/h | 28515m | -38.3m/s | -46.9°C | 0% | 15.8hPa | 2.7V | 03:15:53 | 02:24:29 | 00:00:00 | |
| DL1XH-west | 2026-08-31 12:33:13 | 53.24261 | 10.86463 | 59° | 31km/h | 28477m | -37.9m/s | -47.1°C | 0% | 16hPa | 2.7V | 03:15:02 | 02:24:30 | 00:00:00 | |
| BIOWL1-15 | 2026-08-31 12:33:11 | 53.24257 | 10.86400 | 116° | 24km/h | 28701m | -39.4m/s | -45.9°C | 0% | 15.4hPa | 2.6V | 03:15:53 | 02:24:24 | 00:00:00 | |
| DB0DAN | 2026-08-31 12:33:10 | 53.24254 | 10.86430 | 86° | 24km/h | 28589m | -37.3m/s | -46.4°C | 0.5% | 15.67hPa | 2.7V | 00:00:00 | 00:00:00 | 00:00:00 | |
| HSKMA3-T | 2026-08-31 12:33:10 | 53.24254 | 10.86430 | 87° | 26km/h | 28589m | -37.3m/s | -46.4°C | 0% | 15.7hPa | 2.7V | 03:15:53 | 02:24:27 | 00:00:00 | |
| DD8BA-10 | 2026-08-31 12:33:10 | 53.24254 | 10.86430 | 87° | 18km/h | 28589m | -37.2m/s | -46.4°C | 2.9% | 15.6hPa | 2.7V | 03:15:00 | 00:00:00 | 00:00:00 | |
| DL1NUX | 2026-08-31 12:33:09 | 53.24262 | 10.86379 | 109° | 15km/h | 28819m | -38.5m/s | -45.3°C | 2.6% | 15.2hPa | 2.7V | 03:15:11 | 02:24:21 | 00:00:00 | |
| DK7RCA | 2026-08-31 12:33:09 | 53.24254 | 10.86419 | 95° | 27km/h | 28626m | -38.0m/s | -46.2°C | 0.5% | 15.6hPa | 2.7V | 03:15:00 | 00:00:00 | 00:00:00 | |
| DM0DOS-11 | 2026-08-31 12:33:07 | 53.24259 | 10.86392 | 107° | 20km/h | 28740m | -40.1m/s | -45.7°C | 2.7% | 15.3hPa | 2.7V | 03:15:09 | 02:24:23 | 00:00:00 | |
| DL1XH-west | 2026-08-31 12:33:03 | 53.24263 | 10.86374 | 102° | 9km/h | 28858m | -38.5m/s | -45.3°C | 0% | 15.1hPa | 2.7V | 03:15:53 | 02:24:20 | 00:00:00 | |
| DJ2DS-15 | 2026-08-31 12:33:03 | 53.24264 | 10.86370 | 93° | 9km/h | 28896m | -39.1m/s | -45.3°C | 0.5% | 15.0hPa | 2.7V | 00:00:00 | 00:00:00 | 00:00:00 | |
| S3001 | 2026-08-31 12:33:02 | 53.24264 | 10.86370 | 93° | 9km/h | 28896m | -39.1m/s | -45.3°C | 0.5% | 15.0hPa | 2.7V | 00:00:00 | 00:00:00 | 00:00:00 | |
| DM0DOS-11 | 2026-08-31 12:33:01 | 53.24261 | 10.86354 | 81° | 9km/h | 29114m | -39.3m/s | -45.2°C | 2.7% | 14.5hPa | 2.7V | 03:15:19 | 02:24:13 | 00:00:00 | |
| HSKMA3-T | 2026-08-31 12:33:00 | 53.24263 | 10.86364 | 74° | 7km/h | 28970m | -36.9m/s | -45.5°C | 0% | 14.8hPa | 2.6V | 03:15:53 | 02:24:17 | 00:00:00 | |
| BUE01 | 2026-08-31 12:33:00 | 53.24263 | 10.86364 | 74° | 7km/h | 28970m | -36.9m/s | -45.5°C | 0.5% | 14.8hPa | 2.7V | 00:00:00 | 00:00:00 | 00:00:00 | |
| DL1ZP-14 | 2026-08-31 12:32:56 | 53.24261 | 10.86354 | 81° | 7km/h | 29115m | -39.3m/s | -45.2°C | 0.5% | 14.5hPa | 2.7V | 00:00:00 | 00:00:00 | 00:00:00 | |
| DB0DAN | 2026-08-31 12:32:55 | 53.24260 | 10.86351 | 57° | 7km/h | 29153m | -38.8m/s | -45.1°C | 0.5% | 14.39hPa | 2.6V | 00:00:00 | 00:00:00 | 00:00:00 | |
| DK1YY | 2026-08-31 12:32:55 | 53.24260 | 10.86348 | 65° | 7km/h | 29191m | -38.5m/s | -45.0°C | 0.5% | 14.3hPa | 2.7V | 00:00:00 | 00:00:00 | 00:00:00 | |
| DL1XH-15 | 2026-08-31 12:32:54 | 53.24256 | 10.86340 | 44° | 11km/h | 29310m | -39.1m/s | -44.9°C | 2.6% | 14.1hPa | 2.7V | 03:15:24 | 02:24:08 | 00:00:00 | |
| DO3MHA-11 | 2026-08-31 12:32:54 | 53.24260 | 10.86348 | 66° | 16km/h | 29192m | -38.5m/s | -44.9°C | 2.6% | 14.3hPa | 2.6V | 00:00:00 | 02:24:11 | 00:00:00 | |
| DL1XH1-15 | 2026-08-31 12:32:53 | 53.24239 | 10.86316 | 49° | 27km/h | 29510m | -41.7m/s | -44.5°C | 2.5% | 13.7hPa | 2.6V | 03:15:29 | 02:24:03 | 00:00:00 | |
| DL1XH-west | 2026-08-31 12:32:53 | 53.24259 | 10.86346 | 55° | 9km/h | 29230m | -41.7m/s | -44.9°C | 0% | 14.3hPa | 2.6V | 03:15:53 | 02:24:10 | 00:00:00 | |
| AA1-15 | 2026-08-31 12:32:53 | 53.24258 | 10.86343 | 62° | 7km/h | 29271m | -41.1m/s | -45°C | 0% | 14.2hPa | 2.7V | 03:15:53 | 02:24:09 | 00:00:00 | |
| HSKMA3-T | 2026-08-31 12:32:50 | 53.24243 | 10.86323 | 46° | 24km/h | 29470m | -40.3m/s | -44.3°C | 0% | 13.7hPa | 2.6V | 03:15:53 | 02:24:04 | 00:00:00 | |
| DF8AY | 2026-08-31 12:32:48 | 53.24234 | 10.86307 | 55° | 27km/h | 29552m | -42m/s | -44.7°C | 0% | 13.6hPa | 2.7V | 03:15:53 | 02:24:02 | 00:00:00 | |
| BIOWL1-15 | 2026-08-31 12:32:45 | 53.24226 | 10.86287 | 58° | 29km/h | 29635m | -40.5m/s | -44.9°C | 0% | 13.4hPa | 2.7V | 03:15:53 | 02:24:00 | 00:00:00 | |
| GOEST3-10 | 2026-08-31 12:32:45 | 53.24234 | 10.86307 | 56° | 27km/h | 29552m | -42.0m/s | -44.6°C | 2.6% | 13.5hPa | 2.6V | 00:00:00 | 02:24:02 | 00:00:00 | |
| DF8AY-15 | 2026-08-31 12:32:44 | 53.24230 | 10.86297 | 56° | 24km/h | 29594m | -42.1m/s | -44.8°C | 2.6% | 13.5hPa | 2.6V | 00:00:00 | 02:24:01 | 00:00:00 | |
| DL1XH-15 | 2026-08-31 12:32:43 | 53.24220 | 10.86267 | 74° | 29km/h | 29715m | -39m/s | -45°C | 2.7% | 13.2hPa | 2.6V | 03:15:34 | 02:23:58 | 00:00:00 | |
| DL1XH-west | 2026-08-31 12:32:43 | 53.24223 | 10.86277 | 64° | 26km/h | 29675m | -40m/s | -45°C | 0% | 13.3hPa | 2.7V | 03:15:53 | 02:23:59 | 00:00:00 | |
| AA1-15 | 2026-08-31 12:32:41 | 53.24220 | 10.86267 | 75° | 29km/h | 29715m | -39m/s | -45°C | 0% | 13.2hPa | 2.6V | 03:15:53 | 02:23:58 | 00:00:00 | |
| DL1XH1-15 | 2026-08-31 12:32:41 | 53.24216 | 10.86232 | 84° | 27km/h | 29836m | -40.9m/s | -45.1°C | 2.8% | 13hPa | 2.7V | 03:15:37 | 02:23:55 | 00:00:00 | |
| DB0DAN | 2026-08-31 12:32:40 | 53.24218 | 10.86255 | 73° | 26km/h | 29754m | -40.5m/s | -45°C | 0.5% | 13.16hPa | 2.6V | 00:00:00 | 00:00:00 | 00:00:00 | |
| DO2SHX-10 | 2026-08-31 12:32:40 | 53.24218 | 10.86255 | 73° | 27km/h | 29755m | -40.5m/s | -44.9°C | 2.7% | 13.1hPa | 2.6V | 03:15:00 | 02:23:57 | 00:00:00 | |
| DM0DOS-11 | 2026-08-31 12:32:37 | 53.24216 | 10.86210 | 96° | 26km/h | 29914m | -38.6m/s | -44.9°C | 2.8% | 12.9hPa | 2.7V | 03:15:39 | 02:23:53 | 00:00:00 | |
| DF8AY | 2026-08-31 12:32:37 | 53.24216 | 10.86221 | 92° | 27km/h | 29876m | -38m/s | -45°C | 0% | 12.9hPa | 2.7V | 03:15:53 | 02:23:54 | 00:00:00 | |
| BIOWL1-15 | 2026-08-31 12:32:36 | 53.24220 | 10.86157 | 94° | 20km/h | 30137m | -37.1m/s | -44.1°C | 0% | 12.4hPa | 2.7V | 03:15:53 | 02:23:47 | 00:00:00 | |
| DL1XH-west | 2026-08-31 12:32:31 | 53.24220 | 10.86165 | 94° | 20km/h | 30101m | -36.3m/s | -44.3°C | 0% | 12.5hPa | 2.7V | 03:15:53 | 02:23:48 | 00:00:00 | |
| DO2SHX-10 | 2026-08-31 12:32:31 | 53.24220 | 10.86165 | 95° | 20km/h | 30101m | -36.3m/s | -44.2°C | 2.6% | 12.4hPa | 2.7V | 00:00:00 | 02:23:48 | 00:00:00 | |
| DL1XH1-15 | 2026-08-31 12:32:30 | 53.24221 | 10.86139 | 96° | 24km/h | 30209m | -37.3m/s | -43.5°C | 2.5% | 12.3hPa | 2.7V | 03:15:47 | 02:23:45 | 00:00:00 | |
| HSKMA3-T | 2026-08-31 12:32:27 | 53.24221 | 10.86130 | 96° | 20km/h | 30247m | -39m/s | -43.4°C | 0% | 12.2hPa | 2.6V | 03:15:53 | 02:23:44 | 00:00:00 | |
| DF8AY | 2026-08-31 12:32:27 | 53.24222 | 10.86122 | 99° | 22km/h | 30285m | -37.7m/s | -43.2°C | 0% | 12.1hPa | 2.6V | 03:15:53 | 02:23:43 | 00:00:00 | |
| DB0DAN | 2026-08-31 12:32:25 | 53.24222 | 10.86113 | 92° | 22km/h | 30322m | -38m/s | -43°C | 0.4% | 12.04hPa | 2.6V | 00:00:00 | 00:00:00 | 00:00:00 | |
| GOEST3-10 | 2026-08-31 12:32:25 | 53.24222 | 10.86113 | 92° | 22km/h | 30323m | -37.9m/s | -43.0°C | 2.4% | 12.0hPa | 2.6V | 00:00:00 | 02:23:42 | 00:00:00 | |
| DK1YY | 2026-08-31 12:32:24 | 53.24223 | 10.86096 | 89° | 20km/h | 30398m | -38.0m/s | -43.0°C | 0.4% | 11.9hPa | 2.6V | 00:00:00 | 00:00:00 | 00:00:00 | |
| DL1XH1-15 | 2026-08-31 12:32:23 | 53.24229 | 10.86049 | 123° | 26km/h | 30594m | -40.6m/s | -42.9°C | 2.4% | 11.6hPa | 2.6V | 03:15:57 | 02:23:35 | 00:00:00 | |
| BIOWL1-15 | 2026-08-31 12:32:21 | 53.24223 | 10.86077 | 94° | 22km/h | 30473m | -38.7m/s | -43°C | 0% | 11.8hPa | 2.7V | 03:16:44 | 02:23:38 | 00:00:00 | |
| HSKMA3-T | 2026-08-31 12:32:17 | 53.24238 | 10.86033 | 142° | 24km/h | 30678m | -43.5m/s | -42.8°C | 0% | 11.5hPa | 2.7V | 03:16:44 | 02:23:33 | 00:00:00 | |
| DF8AY | 2026-08-31 12:32:16 | 53.24243 | 10.86028 | 149° | 24km/h | 30721m | -43.2m/s | -42.7°C | 0% | 11.4hPa | 2.7V | 03:16:44 | 02:23:32 | 00:00:00 | |
| DO2SHX-10 | 2026-08-31 12:32:16 | 53.24238 | 10.86033 | 143° | 24km/h | 30678m | -43.4m/s | -42.7°C | 2.4% | 11.5hPa | 2.6V | 03:15:00 | 02:23:33 | 00:00:00 | |
| GOEST3-10 | 2026-08-31 12:32:15 | 53.24242 | 10.86027 | 149° | 18km/h | 30721m | -43.1m/s | -42.7°C | 2.4% | 11.3hPa | 2.6V | 00:00:00 | 02:23:32 | 00:00:00 | |
| DF7ER-10 | 2026-08-31 12:32:14 | 53.24248 | 10.86023 | 154° | 24km/h | 30764m | -42.0m/s | -42.8°C | 0.4% | 11.3hPa | 2.6V | 00:00:00 | 00:00:00 | 00:00:00 | |
| DL1XH-15 | 2026-08-31 12:32:13 | 53.24259 | 10.86014 | 135° | 15km/h | 30887m | -43.3m/s | -42.9°C | 2.4% | 11.1hPa | 2.6V | 03:16:04 | 02:23:28 | 00:00:00 | |
| HTAHTA | 2026-08-31 12:32:13 | 53.24256 | 10.86017 | 155° | 15km/h | 30845m | -40.2m/s | -42.9°C | 0.4% | 11.2hPa | 2.7V | 00:00:00 | 00:00:00 | 00:00:00 | |
| SMARD9-15 | 2026-08-31 12:32:12 | 53.24256 | 10.86017 | 155° | 15km/h | 30845m | -40.2m/s | -42.9°C | 0.4% | 11.2hPa | 2.7V | 00:00:00 | 00:00:00 | 00:00:00 | |
| DL1XH1-15 | 2026-08-31 12:32:11 | 53.24262 | 10.86002 | 85° | 13km/h | 31011m | -40m/s | -42.9°C | 2.5% | 10.9hPa | 2.7V | 03:16:07 | 02:23:25 | 00:00:00 | |
| AA1-15 | 2026-08-31 12:32:11 | 53.24262 | 10.86006 | 105° | 11km/h | 30971m | -42m/s | -43°C | 0% | 11hPa | 2.7V | 03:16:44 | 02:23:26 | 00:00:00 | |
| BIOWL1-15 | 2026-08-31 12:32:11 | 53.24262 | 10.86002 | 86° | 13km/h | 31011m | -40m/s | -42.9°C | 0% | 10.9hPa | 2.7V | 03:16:44 | 02:23:25 | 00:00:00 | |
| DL1XH-west | 2026-08-31 12:32:10 | 53.24261 | 10.86010 | 120° | 9km/h | 30929m | -42.3m/s | -42.9°C | 0% | 11.1hPa | 2.7V | 03:16:44 | 02:23:27 | 00:00:00 | |
| DB0DAN | 2026-08-31 12:32:10 | 53.24261 | 10.86010 | 120° | 9km/h | 30929m | -42.3m/s | -42.9°C | 0.4% | 11.06hPa | 2.7V | 00:00:00 | 00:00:00 | 00:00:00 | |
| DF8AY | 2026-08-31 12:32:05 | 53.24261 | 10.85985 | 92° | 16km/h | 31127m | -39.2m/s | -42.5°C | 0% | 10.7hPa | 2.6V | 03:16:44 | 02:23:22 | 00:00:00 | |
| GOEST3-10 | 2026-08-31 12:32:05 | 53.24261 | 10.85984 | 92° | 15km/h | 31128m | -39.2m/s | -42.4°C | 2.4% | 10.6hPa | 2.6V | 00:00:00 | 02:23:22 | 00:00:00 | |
| DO2SHX-10 | 2026-08-31 12:32:04 | 53.24262 | 10.85978 | 107° | 15km/h | 31167m | -41.1m/s | -42.2°C | 2.3% | 10.6hPa | 2.6V | 03:16:00 | 02:23:21 | 00:00:00 | |
| DL1XH-15 | 2026-08-31 12:32:03 | 53.24264 | 10.85961 | 105° | 15km/h | 31293m | -41.7m/s | -42.4°C | 2.4% | 10.4hPa | 2.7V | 03:16:14 | 02:23:18 | 00:00:00 | |
| SONDE2-11 | 2026-08-31 12:32:02 | 53.24264 | 10.85961 | 105° | 13km/h | 31293m | -41.7m/s | -42.4°C | 0.4% | 10.4hPa | 2.6V | 00:00:00 | 00:00:00 | 00:00:00 | |
| DL1XH1-15 | 2026-08-31 12:32:01 | 53.24265 | 10.85946 | 82° | 15km/h | 31422m | -44.8m/s | -42.2°C | 2.4% | 10.2hPa | 2.6V | 03:16:17 | 02:23:15 | 00:00:00 | |
| DL1XH-west | 2026-08-31 12:32:00 | 53.24265 | 10.85956 | 95° | 13km/h | 31335m | -42.9m/s | -42.4°C | 0% | 10.4hPa | 2.7V | 03:16:44 | 02:23:17 | 00:00:00 | |
| BIOWL1-15 | 2026-08-31 12:31:59 | 53.24265 | 10.85951 | 91° | 11km/h | 31378m | -44.3m/s | -42.3°C | 0% | 10.3hPa | 2.6V | 03:16:44 | 02:23:16 | 00:00:00 | |
| DM0DOS-11 | 2026-08-31 12:31:59 | 53.24262 | 10.85931 | 67° | 11km/h | 31552m | -44.3m/s | -42.1°C | 2.4% | 10hPa | 2.7V | 03:16:20 | 02:23:12 | 00:00:00 | |
| DO2SHX-10 | 2026-08-31 12:31:58 | 53.24264 | 10.85945 | 83° | 13km/h | 31422m | -44.8m/s | -42.2°C | 2.4% | 10.2hPa | 2.7V | 00:00:00 | 02:23:15 | 00:00:00 | |
| DO3MHA-11 | 2026-08-31 12:31:57 | 53.24264 | 10.85940 | 78° | 11km/h | 31466m | -43.7m/s | -42.1°C | 2.4% | 10.1hPa | 2.7V | 03:16:00 | 02:23:14 | 00:00:00 | |
| DB0DAN | 2026-08-31 12:31:55 | 53.24262 | 10.85931 | 68° | 9km/h | 31552m | -44.3m/s | -42.1°C | 0.4% | 10.04hPa | 2.7V | 00:00:00 | 00:00:00 | 00:00:00 | |
| HSKMA3-T | 2026-08-31 12:31:55 | 53.24261 | 10.85927 | 71° | 9km/h | 31596m | -43.1m/s | -42.1°C | 0% | 10hPa | 2.7V | 03:16:44 | 02:23:11 | 00:00:00 | |
| DF8AY | 2026-08-31 12:31:53 | 53.24261 | 10.85924 | 74° | 5km/h | 31639m | -44.1m/s | -42.1°C | 0% | 9.9hPa | 2.6V | 03:16:44 | 02:23:10 | 00:00:00 | |
| DK1YY | 2026-08-31 12:31:53 | 53.24260 | 10.85921 | 79° | 7km/h | 31682m | -44.3m/s | -42.0°C | 0.4% | 9.9hPa | 2.7V | 00:00:00 | 00:00:00 | 00:00:00 | |
| DL1XH-15 | 2026-08-31 12:31:52 | 53.24259 | 10.85919 | 35° | 7km/h | 31726m | -45.3m/s | -42°C | 2.5% | 9.8hPa | 2.7V | 03:16:24 | 02:23:08 | 00:00:00 | |
| SP3WXH-11 | 2026-08-31 12:31:52 | 53.24260 | 10.85921 | 79° | 7km/h | 31682m | -44.3m/s | -42.0°C | 0.4% | 9.9hPa | 2.7V | 00:00:00 | 00:00:00 | 00:00:00 | |
| SONCRA | 2026-08-31 12:31:50 | 53.24256 | 10.85915 | 24° | 9km/h | 31816m | -45.7m/s | -41.9°C | 0.4% | 9.7hPa | 2.7V | 00:00:00 | 00:00:00 | 00:00:00 | |
| DM0DOS-11 | 2026-08-31 12:31:49 | 53.24243 | 10.85907 | 34° | 11km/h | 31987m | -41.7m/s | -40.9°C | 2.4% | 9.4hPa | 2.7V | 03:16:30 | 02:23:02 | 00:00:00 | |
| BIOWL1-15 | 2026-08-31 12:31:49 | 53.24256 | 10.85915 | 24° | 9km/h | 31816m | -45.7m/s | -41.9°C | 0% | 9.7hPa | 2.7V | 03:16:44 | 02:23:06 | 00:00:00 | |
| AA1-15 | 2026-08-31 12:31:49 | 53.24253 | 10.85913 | 21° | 13km/h | 31859m | -43.8m/s | -41.8°C | 0% | 9.6hPa | 2.6V | 03:16:44 | 02:23:05 | 00:00:00 | |
| EDDB2-11 | 2026-08-31 12:31:47 | 53.24249 | 10.85911 | 13° | 16km/h | 31903m | -43.6m/s | -41.6°C | 0.4% | 9.5hPa | 2.6V | 00:00:00 | 00:00:00 | 00:00:00 | |
| DL1XH-15 | 2026-08-31 12:31:46 | 53.24240 | 10.85892 | 113° | 16km/h | 32136m | -37.4m/s | -39.5°C | 2.1% | 9.2hPa | 2.6V | 03:16:34 | 02:22:58 | 00:00:00 | |
| HSKMA3-T | 2026-08-31 12:31:44 | 53.24240 | 10.85901 | 64° | 9km/h | 32063m | -36.6m/s | -40.1°C | 0% | 9.2hPa | 2.6V | 03:16:44 | 02:23:00 | 00:00:00 | |
| DF7ER-10 | 2026-08-31 12:31:43 | 53.24240 | 10.85901 | 65° | 9km/h | 32064m | -36.6m/s | -40.1°C | 0.4% | 9.3hPa | 2.7V | 00:00:00 | 00:00:00 | 00:00:00 | |
| DB0DAN | 2026-08-31 12:31:40 | 53.24242 | 10.85884 | 103° | 18km/h | 32173m | -39.1m/s | -39.3°C | 0.3% | 9.11hPa | 2.7V | 00:00:00 | 00:00:00 | 00:00:00 | |
| BIOWL1-15 | 2026-08-31 12:31:39 | 53.24228 | 10.85845 | 101° | 16km/h | 32464m | -29.9m/s | -38.7°C | 0% | 8.7hPa | 2.7V | 03:16:44 | 02:22:49 | 00:00:00 | |
| DL1XH-west | 2026-08-31 12:31:39 | 53.24241 | 10.85871 | 64° | 15km/h | 32250m | -40.2m/s | -39.1°C | 0% | 9hPa | 2.7V | 03:16:44 | 02:22:55 | 00:00:00 | |
| DM0DOS-11 | 2026-08-31 12:31:39 | 53.24232 | 10.85859 | 33° | 15km/h | 32365m | -38m/s | -38.8°C | 1.9% | 8.9hPa | 2.6V | 03:16:40 | 02:22:52 | 00:00:00 | |
| AA1-15 | 2026-08-31 12:31:38 | 53.24239 | 10.85867 | 39° | 15km/h | 32289m | -40.3m/s | -38.9°C | 0% | 9hPa | 2.7V | 03:16:44 | 02:22:54 | 00:00:00 | |
| HSKMA3-T | 2026-08-31 12:31:34 | 53.24229 | 10.85851 | 71° | 11km/h | 32434m | -31.3m/s | -38.7°C | 0% | 8.7hPa | 2.7V | 03:16:44 | 02:22:50 | 00:00:00 | |
| DL1XH1-15 | 2026-08-31 12:31:34 | 53.24242 | 10.85803 | 113° | 26km/h | 32575m | -28.3m/s | -38.7°C | 2% | 8.5hPa | 2.6V | 03:16:47 | 02:22:45 | 00:00:00 | |
| DL1XH-west | 2026-08-31 12:31:28 | 53.24242 | 10.85803 | 113° | 26km/h | 32575m | -28.3m/s | -38.7°C | 0% | 8.5hPa | 2.6V | 03:17:35 | 02:22:45 | 00:00:00 | |
| DM0DOS-11 | 2026-08-31 12:31:28 | 53.24242 | 10.85794 | 317° | 22km/h | 32651m | -22.3m/s | -38.7°C | 2% | 8.4hPa | 2.7V | 03:16:50 | 02:22:42 | 00:00:00 | |
| DF8AY | 2026-08-31 12:31:27 | 53.24243 | 10.85793 | 62° | 7km/h | 32629m | -23.7m/s | -38.7°C | 0% | 8.5hPa | 2.7V | 03:17:35 | 02:22:43 | 00:00:00 | |
| MECKS9 | 2026-08-31 12:31:26 | 53.24243 | 10.85796 | 94° | 11km/h | 32604m | -30.3m/s | -38.7°C | 0.3% | 8.5hPa | 2.7V | 00:00:00 | 00:00:00 | 00:00:00 | |
| DB0DAN | 2026-08-31 12:31:25 | 53.24241 | 10.85794 | 317° | 20km/h | 32651m | -22.3m/s | -38.7°C | 0.3% | 8.44hPa | 2.7V | 00:00:00 | 00:00:00 | 00:00:00 | |
| GOEST3-10 | 2026-08-31 12:31:25 | 53.24241 | 10.85794 | 318° | 27km/h | 32652m | -22.2m/s | -38.6°C | 2.0% | 8.4hPa | 2.7V | 00:00:00 | 02:22:42 | 00:00:00 | |
| DF8AY-15 | 2026-08-31 12:31:24 | 53.24238 | 10.85801 | 314° | 13km/h | 32671m | -17.9m/s | -38.6°C | 2.0% | 8.4hPa | 2.7V | 00:00:00 | 02:22:41 | 00:00:00 | |
| DL1ZP-14 | 2026-08-31 12:31:23 | 53.24235 | 10.85807 | 317° | 24km/h | 32684m | -3.3m/s | -38.6°C | 0.3% | 8.4hPa | 2.7V | 00:00:00 | 00:00:00 | 00:00:00 | |
| DL1XH-15 | 2026-08-31 12:31:22 | 53.24223 | 10.85824 | 320° | 16km/h | 32685m | 6.7m/s | -38.7°C | 2% | 8.4hPa | 2.6V | 03:16:54 | 02:22:38 | 00:00:00 | |
| HSKMA3-T | 2026-08-31 12:31:22 | 53.24229 | 10.85816 | 322° | 44km/h | 32687m | -2.5m/s | -38.5°C | 0% | 8.4hPa | 2.6V | 03:17:35 | 02:22:39 | 00:00:00 | |
| DO2SHX-10 | 2026-08-31 12:31:22 | 53.24229 | 10.85816 | 322° | 20km/h | 32688m | -2.4m/s | -38.5°C | 2.0% | 8.4hPa | 2.7V | 00:00:00 | 02:22:39 | 00:00:00 | |
| SP3WXH-11 | 2026-08-31 12:31:21 | 53.24220 | 10.85828 | 313° | 11km/h | 32679m | 5.4m/s | -38.7°C | 0.3% | 8.4hPa | 2.7V | 00:00:00 | 00:00:00 | 00:00:00 | |
| DL1XH1-15 | 2026-08-31 12:31:20 | 53.24218 | 10.85830 | 83° | 4km/h | 32668m | 4.8m/s | -38.8°C | 2% | 8.4hPa | 2.7V | 03:16:57 | 02:22:35 | 00:00:00 | |
| BIOWL1-15 | 2026-08-31 12:31:20 | 53.24218 | 10.85830 | 84° | 4km/h | 32668m | 4.8m/s | -38.8°C | 0% | 8.4hPa | 2.7V | 03:17:35 | 02:22:35 | 00:00:00 | |
| DD8BA-10 | 2026-08-31 12:31:20 | 53.24220 | 10.85828 | 314° | 9km/h | 32679m | 5.3m/s | -38.6°C | 2.0% | 8.4hPa | 2.6V | 00:00:00 | 00:00:00 | 00:00:00 | |
| SONCRA | 2026-08-31 12:31:19 | 53.24218 | 10.85830 | 83° | 2km/h | 32668m | 4.8m/s | -38.8°C | 0.3% | 8.4hPa | 2.6V | 00:00:00 | 00:00:00 | 00:00:00 | |
| DM0DOS-11 | 2026-08-31 12:31:18 | 53.24218 | 10.85819 | 87° | 11km/h | 32652m | 5.6m/s | -38.7°C | 2% | 8.5hPa | 2.6V | 03:17:00 | 02:22:32 | 00:00:00 | |
| DL1XH-west | 2026-08-31 12:31:18 | 53.24218 | 10.85828 | 98° | 9km/h | 32663m | 5m/s | -38.8°C | 0% | 8.4hPa | 2.7V | 03:17:35 | 02:22:34 | 00:00:00 | |
| AA1-15 | 2026-08-31 12:31:18 | 53.24218 | 10.85823 | 90° | 11km/h | 32658m | 5.7m/s | -38.8°C | 0% | 8.4hPa | 2.6V | 03:17:35 | 02:22:33 | 00:00:00 | |
| DF8AY | 2026-08-31 12:31:15 | 53.24218 | 10.85819 | 88° | 11km/h | 32652m | 5.6m/s | -38.7°C | 0% | 8.5hPa | 2.6V | 03:17:35 | 02:22:32 | 00:00:00 | |
| DO2SHX-10 | 2026-08-31 12:31:15 | 53.24218 | 10.85819 | 88° | 11km/h | 32652m | 5.5m/s | -38.6°C | 2.0% | 8.4hPa | 2.7V | 03:17:00 | 02:22:32 | 00:00:00 | |
| MECKS9 | 2026-08-31 12:31:14 | 53.24218 | 10.85819 | 89° | 11km/h | 32652m | 5.6m/s | -38.7°C | 0.3% | 8.5hPa | 2.7V | 00:00:00 | 00:00:00 | 00:00:00 | |
| DL1XH1-15 | 2026-08-31 12:31:13 | 53.24224 | 10.85798 | 8° | 2km/h | 32615m | 4.6m/s | -38.7°C | 2% | 8.5hPa | 2.7V | 03:17:07 | 02:22:25 | 00:00:00 | |
| HSKMA3-T | 2026-08-31 12:31:12 | 53.24220 | 10.85802 | 135° | 9km/h | 32630m | 6.6m/s | -38.7°C | 0% | 8.5hPa | 2.6V | 03:17:35 | 02:22:28 | 00:00:00 | |
| DL1XH-15 | 2026-08-31 12:31:12 | 53.24220 | 10.85802 | 135° | 9km/h | 32630m | 6.6m/s | -38.7°C | 2% | 8.5hPa | 2.6V | 03:17:04 | 02:22:28 | 00:00:00 | |
| DO2SHX-10 | 2026-08-31 12:31:12 | 53.24219 | 10.85805 | 109° | 9km/h | 32637m | 5.6m/s | -38.7°C | 2.0% | 8.4hPa | 2.6V | 00:00:00 | 02:22:29 | 00:00:00 | |
| DB0DAN | 2026-08-31 12:31:10 | 53.24222 | 10.85800 | 152° | 7km/h | 32624m | 5.6m/s | -38.7°C | 0.3% | 8.51hPa | 2.6V | 00:00:00 | 00:00:00 | 00:00:00 | |
| DD8BA-10 | 2026-08-31 12:31:10 | 53.24221 | 10.85800 | 153° | 15km/h | 32625m | 5.5m/s | -38.7°C | 2.0% | 8.5hPa | 2.6V | 03:17:00 | 00:00:00 | 00:00:00 | |
| DO2SHX-10 | 2026-08-31 12:31:09 | 53.24223 | 10.85799 | 164° | 5km/h | 32620m | 4.6m/s | -38.7°C | 2.0% | 8.4hPa | 2.7V | 00:00:00 | 02:22:26 | 00:00:00 | |
| DM0DOS-11 | 2026-08-31 12:31:08 | 53.24215 | 10.85797 | 14° | 22km/h | 32597m | 5.6m/s | -38.9°C | 2% | 8.5hPa | 2.7V | 03:17:10 | 02:22:22 | 00:00:00 | |
| BIOWL1-15 | 2026-08-31 12:31:07 | 53.24222 | 10.85798 | 1° | 7km/h | 32609m | 5.9m/s | -38.8°C | 0% | 8.5hPa | 2.6V | 03:17:35 | 02:22:24 | 00:00:00 | |
| DL1XH-west | 2026-08-31 12:31:07 | 53.24219 | 10.85798 | 6° | 16km/h | 32603m | 6.7m/s | -38.8°C | 0% | 8.5hPa | 2.6V | 03:17:35 | 02:22:23 | 00:00:00 | |
| DF8AY | 2026-08-31 12:31:05 | 53.24210 | 10.85793 | 26° | 24km/h | 32592m | 4.1m/s | -38.8°C | 0% | 8.5hPa | 2.7V | 03:17:35 | 02:22:21 | 00:00:00 | |
| HSKMA3-T | 2026-08-31 12:31:01 | 53.24201 | 10.85772 | 93° | 22km/h | 32577m | 7m/s | -38.7°C | 0% | 8.6hPa | 2.6V | 03:17:35 | 02:22:18 | 00:00:00 | |
| DL1XH1-15 | 2026-08-31 12:31:01 | 53.24210 | 10.85743 | 132° | 27km/h | 32559m | 4.2m/s | -38.7°C | 2% | 8.6hPa | 2.7V | 03:17:17 | 02:22:15 | 00:00:00 | |
| SONDE2-11 | 2026-08-31 12:31:00 | 53.24206 | 10.85752 | 127° | 29km/h | 32564m | 5.8m/s | -38.7°C | 0.3% | 8.6hPa | 2.6V | 00:00:00 | 00:00:00 | 00:00:00 | |
| EDDB2-12 | 2026-08-31 12:30:59 | 53.24206 | 10.85752 | 127° | 29km/h | 32564m | 5.8m/s | -38.7°C | 0.3% | 8.6hPa | 2.6V | 00:00:00 | 00:00:00 | 00:00:00 | |
| DM0DOS-11 | 2026-08-31 12:30:58 | 53.24217 | 10.85724 | 61° | 11km/h | 32543m | 5.8m/s | -39°C | 2% | 8.6hPa | 2.6V | 03:17:20 | 02:22:12 | 00:00:00 | |
| BIOWL1-15 | 2026-08-31 12:30:57 | 53.24196 | 10.85708 | 43° | 18km/h | 32516m | 5.8m/s | -38.7°C | 0% | 8.6hPa | 2.6V | 03:17:35 | 02:22:07 | 00:00:00 | |
| DL1XH-west | 2026-08-31 12:30:56 | 53.24217 | 10.85729 | 114° | 15km/h | 32549m | 5.8m/s | -38.9°C | 0% | 8.6hPa | 2.6V | 03:17:35 | 02:22:13 | 00:00:00 | |
| BUE01 | 2026-08-31 12:30:56 | 53.24217 | 10.85724 | 61° | 9km/h | 32543m | 5.9m/s | -39.0°C | 0.3% | 8.6hPa | 2.6V | 00:00:00 | 00:00:00 | 00:00:00 | |
| DB0DAN | 2026-08-31 12:30:55 | 53.24217 | 10.85724 | 61° | 11km/h | 32543m | 5.9m/s | -39°C | 0.3% | 8.6hPa | 2.6V | 00:00:00 | 00:00:00 | 00:00:00 | |
| DF8AY | 2026-08-31 12:30:54 | 53.24215 | 10.85720 | 26° | 16km/h | 32537m | 5.8m/s | -39.1°C | 0% | 8.6hPa | 2.7V | 03:17:35 | 02:22:11 | 00:00:00 | |
| DL1XH-15 | 2026-08-31 12:30:54 | 53.24200 | 10.85712 | 24° | 20km/h | 32521m | 5.7m/s | -38.8°C | 2% | 8.6hPa | 2.7V | 03:17:24 | 02:22:08 | 00:00:00 | |
| DL1XH1-15 | 2026-08-31 12:30:53 | 53.24192 | 10.85694 | 86° | 20km/h | 32504m | 5.5m/s | -38.9°C | 2% | 8.7hPa | 2.6V | 03:17:27 | 02:22:05 | 00:00:00 | |
| HSKMA3-T | 2026-08-31 12:30:51 | 53.24200 | 10.85712 | 25° | 20km/h | 32521m | 5.7m/s | -38.8°C | 0% | 8.6hPa | 2.7V | 03:17:35 | 02:22:08 | 00:00:00 | |
| AA1-15 | 2026-08-31 12:30:47 | 53.24193 | 10.85674 | 93° | 26km/h | 32493m | 6.6m/s | -39.2°C | 0% | 8.6hPa | 2.7V | 03:17:35 | 02:22:03 | 00:00:00 | |
| DM0DOS-11 | 2026-08-31 12:30:46 | 53.24193 | 10.85663 | 88° | 27km/h | 32486m | 6.3m/s | -39.2°C | 2% | 8.6hPa | 2.7V | 03:17:30 | 02:22:02 | 00:00:00 | |
| DL1XH-west | 2026-08-31 12:30:46 | 53.24193 | 10.85663 | 88° | 27km/h | 32486m | 6.3m/s | -39.2°C | 0% | 8.7hPa | 2.7V | 03:17:35 | 02:22:02 | 00:00:00 | |
| DF8AY | 2026-08-31 12:30:44 | 53.24192 | 10.85642 | 86° | 22km/h | 32476m | 5m/s | -39.1°C | 0% | 8.7hPa | 2.6V | 03:17:35 | 02:22:00 | 00:00:00 | |
| BIOWL1-15 | 2026-08-31 12:30:42 | 53.24189 | 10.85600 | 42° | 18km/h | 32436m | 6.9m/s | -39.4°C | 0% | 8.7hPa | 2.6V | 03:18:26 | 02:21:53 | 00:00:00 | |
| HSKMA3-T | 2026-08-31 12:30:40 | 53.24193 | 10.85619 | 102° | 15km/h | 32458m | 6.3m/s | -39.2°C | 0% | 8.7hPa | 2.7V | 03:17:35 | 02:21:57 | 00:00:00 | |
| DB0DAN | 2026-08-31 12:30:40 | 53.24193 | 10.85619 | 102° | 13km/h | 32458m | 6.3m/s | -39.2°C | 0.3% | 8.69hPa | 2.7V | 00:00:00 | 00:00:00 | 00:00:00 | |
| DL1XH1-15 | 2026-08-31 12:30:40 | 53.24193 | 10.85609 | 77° | 11km/h | 32447m | 4.7m/s | -39.3°C | 2.1% | 8.7hPa | 2.7V | 03:17:37 | 02:21:55 | 00:00:00 | |
| DL1XH-west | 2026-08-31 12:30:36 | 53.24180 | 10.85587 | 44° | 24km/h | 32424m | 5.1m/s | -39.2°C | 0% | 8.7hPa | 2.7V | 03:18:26 | 02:21:51 | 00:00:00 | |
| GOEST3-10 | 2026-08-31 12:30:35 | 53.24185 | 10.85594 | 40° | 15km/h | 32430m | 6.5m/s | -39.3°C | 2.1% | 8.7hPa | 2.6V | 00:00:00 | 02:21:52 | 00:00:00 | |
| DL1XH-15 | 2026-08-31 12:30:33 | 53.24174 | 10.85563 | 95° | 20km/h | 32406m | 6.7m/s | -38.8°C | 2.1% | 8.8hPa | 2.6V | 03:17:44 | 02:21:48 | 00:00:00 | |
| DF8AY | 2026-08-31 12:30:33 | 53.24180 | 10.85538 | 91° | 9km/h | 32383m | 6.8m/s | -38.8°C | 0% | 8.8hPa | 2.7V | 03:18:26 | 02:21:44 | 00:00:00 | |
| HSKMA3-T | 2026-08-31 12:30:30 | 53.24175 | 10.85555 | 112° | 20km/h | 32400m | 5.6m/s | -38.8°C | 0% | 8.8hPa | 2.6V | 03:18:26 | 02:21:47 | 00:00:00 | |
| DD8BA-10 | 2026-08-31 12:30:30 | 53.24175 | 10.85555 | 113° | 13km/h | 32401m | 5.6m/s | -38.8°C | 2.1% | 8.7hPa | 2.7V | 03:17:00 | 00:00:00 | 00:00:00 | |
| SONDE2-11 | 2026-08-31 12:30:29 | 53.24179 | 10.85543 | 115° | 13km/h | 32390m | 5.4m/s | -38.8°C | 0.3% | 8.8hPa | 2.7V | 00:00:00 | 00:00:00 | 00:00:00 | |
| DL1XH-15 | 2026-08-31 12:30:27 | 53.24164 | 10.85531 | 41° | 5km/h | 32347m | 6.5m/s | -39.1°C | 2% | 8.8hPa | 2.7V | 03:17:54 | 02:21:38 | 00:00:00 | |
| BIOWL1-15 | 2026-08-31 12:30:25 | 53.24176 | 10.85533 | 11° | 13km/h | 32370m | 6.1m/s | -38.8°C | 0% | 8.8hPa | 2.6V | 03:18:26 | 02:21:42 | 00:00:00 | |
| DB0DAN | 2026-08-31 12:30:25 | 53.24176 | 10.85533 | 11° | 13km/h | 32370m | 6.1m/s | -38.8°C | 0.3% | 8.84hPa | 2.6V | 00:00:00 | 00:00:00 | 00:00:00 | |
| AA1-15 | 2026-08-31 12:30:25 | 53.24173 | 10.85533 | 1° | 15km/h | 32365m | 5.5m/s | -38.8°C | 0% | 8.8hPa | 2.6V | 03:18:26 | 02:21:41 | 00:00:00 | |
| DL1XH-west | 2026-08-31 12:30:24 | 53.24169 | 10.85533 | 0° | 15km/h | 32359m | 5.6m/s | -38.9°C | 0% | 8.8hPa | 2.6V | 03:18:26 | 02:21:40 | 00:00:00 | |
| HSKMA3-T | 2026-08-31 12:30:19 | 53.24164 | 10.85525 | 103° | 13km/h | 32335m | 5.6m/s | -39.3°C | 0% | 8.9hPa | 2.7V | 03:18:26 | 02:21:36 | 00:00:00 | |
| DO2SHX-10 | 2026-08-31 12:30:18 | 53.24165 | 10.85519 | 97° | 20km/h | 32330m | 6.1m/s | -39.3°C | 2.0% | 8.8hPa | 2.7V | 00:00:00 | 02:21:35 | 00:00:00 | |
| DM0DOS-11 | 2026-08-31 12:30:17 | 53.24162 | 10.85492 | 72° | 26km/h | 32310m | 5.5m/s | -39.6°C | 2.1% | 8.9hPa | 2.7V | 03:18:00 | 02:21:32 | 00:00:00 | |
| AA1-15 | 2026-08-31 12:30:14 | 53.24160 | 10.85482 | 71° | 26km/h | 32305m | 5.2m/s | -39.6°C | 0% | 8.9hPa | 2.7V | 03:18:26 | 02:21:31 | 00:00:00 | |
| BIOWL1-15 | 2026-08-31 12:30:14 | 53.24146 | 10.85458 | 346° | 15km/h | 32255m | 5.1m/s | -39.7°C | 0% | 9hPa | 2.6V | 03:18:26 | 02:21:23 | 00:00:00 | |
| DL1XH-15 | 2026-08-31 12:30:13 | 53.24157 | 10.85459 | 82° | 11km/h | 32286m | 6.1m/s | -39.5°C | 2% | 8.9hPa | 2.6V | 03:18:04 | 02:21:28 | 00:00:00 | |
| DF8AY | 2026-08-31 12:30:12 | 53.24158 | 10.85465 | 78° | 16km/h | 32293m | 6.8m/s | -39.5°C | 0% | 8.9hPa | 2.6V | 03:18:26 | 02:21:29 | 00:00:00 | |
| DO2SHX-10 | 2026-08-31 12:30:12 | 53.24158 | 10.85464 | 78° | 11km/h | 32293m | 6.7m/s | -39.4°C | 2.1% | 8.9hPa | 2.7V | 00:00:00 | 02:21:29 | 00:00:00 | |
| DB0DAN | 2026-08-31 12:30:10 | 53.24156 | 10.85456 | 51° | 5km/h | 32280m | 5.6m/s | -39.5°C | 0.3% | 8.92hPa | 2.7V | 00:00:00 | 00:00:00 | 00:00:00 | |
| HSKMA3-T | 2026-08-31 12:30:09 | 53.24155 | 10.85455 | 6° | 5km/h | 32274m | 6.4m/s | -39.6°C | 0% | 8.9hPa | 2.7V | 03:18:26 | 02:21:26 | 00:00:00 | |
| AA1-15 | 2026-08-31 12:30:03 | 53.24140 | 10.85460 | 61° | 2km/h | 32237m | 7.4m/s | -39.4°C | 0% | 9hPa | 2.7V | 03:18:26 | 02:21:20 | 00:00:00 | |
| DL1XH-west | 2026-08-31 12:30:03 | 53.24140 | 10.85459 | 136° | 7km/h | 32230m | 6.5m/s | -39.4°C | 0% | 9hPa | 2.7V | 03:18:26 | 02:21:19 | 00:00:00 | |
| DL1XH-15 | 2026-08-31 12:30:02 | 53.24142 | 10.85456 | 120° | 9km/h | 32224m | 5.3m/s | -39.4°C | 2% | 9hPa | 2.7V | 03:18:14 | 02:21:18 | 00:00:00 | |
| GOEST3-10 | 2026-08-31 12:30:01 | 53.24142 | 10.85456 | 121° | 16km/h | 32225m | 5.3m/s | -39.4°C | 2.0% | 8.9hPa | 2.6V | 00:00:00 | 02:21:18 | 00:00:00 | |
| DL1XH1-15 | 2026-08-31 12:30:00 | 53.24140 | 10.85439 | 52° | 22km/h | 32205m | 7.1m/s | -39.7°C | 2% | 9.1hPa | 2.6V | 03:18:17 | 02:21:15 | 00:00:00 | |
| DD8BA-10 | 2026-08-31 12:30:00 | 53.24142 | 10.85452 | 97° | 18km/h | 32219m | 5.7m/s | -39.5°C | 2.0% | 9.0hPa | 2.6V | 00:00:00 | 00:00:00 | 00:00:00 | |
| DM0DOS-11 | 2026-08-31 12:29:59 | 53.24115 | 10.85423 | 338° | 15km/h | 32173m | 7m/s | -39.9°C | 2% | 9.1hPa | 2.6V | 03:18:22 | 02:21:10 | 00:00:00 | |
| HSKMA3-T | 2026-08-31 12:29:58 | 53.24140 | 10.85439 | 52° | 22km/h | 32205m | 7.1m/s | -39.7°C | 0% | 9.1hPa | 2.6V | 03:18:26 | 02:21:15 | 00:00:00 | |
| SONDE2-11 | 2026-08-31 12:29:58 | 53.24136 | 10.85433 | 36° | 24km/h | 32199m | 6.2m/s | -39.6°C | 0.3% | 9.1hPa | 2.7V | 00:00:00 | 00:00:00 | 00:00:00 | |
| DL1XH-15 | 2026-08-31 12:29:57 | 53.24110 | 10.85429 | 318° | 9km/h | 32161m | 5.5m/s | -40°C | 2.1% | 9.1hPa | 2.7V | 03:18:24 | 02:21:08 | 00:00:00 | |
| BIOWL1-15 | 2026-08-31 12:29:56 | 53.24106 | 10.85429 | 40° | 11km/h | 32149m | 6.9m/s | -40°C | 0% | 9.1hPa | 2.6V | 03:18:26 | 02:21:06 | 00:00:00 | |
| S3001 | 2026-08-31 12:29:56 | 53.24124 | 10.85424 | 14° | 22km/h | 32187m | 5.9m/s | -39.7°C | 0.3% | 9.1hPa | 2.7V | 00:00:00 | 00:00:00 | 00:00:00 | |
| DB0DAN | 2026-08-31 12:29:55 | 53.24124 | 10.85424 | 15° | 22km/h | 32187m | 5.9m/s | -39.7°C | 0.3% | 9.05hPa | 2.7V | 00:00:00 | 00:00:00 | 00:00:00 | |
| DF8AY | 2026-08-31 12:29:54 | 53.24099 | 10.85405 | 71° | 31km/h | 32129m | 6.2m/s | -40.1°C | 0% | 9.1hPa | 2.7V | 03:19:17 | 02:21:03 | 00:00:00 | |
| DL1XH1-15 | 2026-08-31 12:29:54 | 53.24104 | 10.85424 | 58° | 18km/h | 32142m | 6.9m/s | -39.9°C | 2.1% | 9.1hPa | 2.6V | 03:18:27 | 02:21:05 | 00:00:00 | |
| DL1XH-west | 2026-08-31 12:29:52 | 53.24112 | 10.85426 | 321° | 13km/h | 32167m | 6m/s | -40°C | 0% | 9.1hPa | 2.7V | 03:18:26 | 02:21:09 | 00:00:00 | |
| DO2SHX-10 | 2026-08-31 12:29:51 | 53.24110 | 10.85429 | 319° | 9km/h | 32162m | 5.4m/s | -39.9°C | 2.1% | 9.0hPa | 2.7V | 03:18:00 | 02:21:08 | 00:00:00 | |
| DD8BA-10 | 2026-08-31 12:29:50 | 53.24108 | 10.85430 | 354° | 20km/h | 32156m | 6.3m/s | -39.9°C | 2.1% | 9.0hPa | 2.7V | 03:18:00 | 00:00:00 | 00:00:00 | |
| TFSTFS | 2026-08-31 12:29:49 | 53.24108 | 10.85430 | 354° | 7km/h | 32156m | 6.3m/s | -40.0°C | 0.3% | 9.1hPa | 2.7V | 03:18:00 | 00:00:00 | 00:00:00 | |
| DM0DOS-11 | 2026-08-31 12:29:48 | 53.24092 | 10.85371 | 66° | 22km/h | 32110m | 5.7m/s | -40.1°C | 2.1% | 9.1hPa | 2.7V | 03:18:32 | 02:21:00 | 00:00:00 | |
| HSKMA3-T | 2026-08-31 12:29:47 | 53.24101 | 10.85416 | 67° | 26km/h | 32135m | 6.5m/s | -40°C | 0% | 9.1hPa | 2.6V | 03:19:17 | 02:21:04 | 00:00:00 | |
| SONCRA | 2026-08-31 12:29:46 | 53.24096 | 10.85393 | 74° | 29km/h | 32123m | 6.3m/s | -40.2°C | 0.3% | 9.1hPa | 2.6V | 00:00:00 | 00:00:00 | 00:00:00 | |
| AA1-15 | 2026-08-31 12:29:42 | 53.24086 | 10.85360 | 29° | 16km/h | 32099m | 6.1m/s | -40.2°C | 0% | 9.2hPa | 2.6V | 03:19:17 | 02:20:58 | 00:00:00 | |
| GOEST3-10 | 2026-08-31 12:29:41 | 53.24086 | 10.85360 | 29° | 22km/h | 32099m | 6.1m/s | -40.2°C | 2.1% | 9.1hPa | 2.7V | 00:00:00 | 02:20:58 | 00:00:00 | |
| DL1XH1-15 | 2026-08-31 12:29:40 | 53.24070 | 10.85357 | 350° | 26km/h | 32078m | 6.2m/s | -40.6°C | 2.2% | 9.2hPa | 2.7V | 03:18:37 | 02:20:55 | 00:00:00 | |
| DB0DAN | 2026-08-31 12:29:40 | 53.24082 | 10.85357 | 12° | 20km/h | 32092m | 7.4m/s | -40.4°C | 0.3% | 9.19hPa | 2.6V | 00:00:00 | 00:00:00 | 00:00:00 | |
| HSKMA3-T | 2026-08-31 12:29:37 | 53.24064 | 10.85360 | 341° | 26km/h | 32072m | 5.9m/s | -40.5°C | 0% | 9.2hPa | 2.7V | 03:19:17 | 02:20:54 | 00:00:00 | |
| DF8AY | 2026-08-31 12:29:37 | 53.24037 | 10.85365 | 40° | 27km/h | 32020m | 6.3m/s | -40.8°C | 0% | 9.3hPa | 2.6V | 03:19:17 | 02:20:46 | 00:00:00 | |
| DL1XH-west | 2026-08-31 12:29:31 | 53.24045 | 10.85377 | 37° | 13km/h | 32034m | 7.4m/s | -40.9°C | 0% | 9.2hPa | 2.7V | 03:19:17 | 02:20:48 | 00:00:00 | |
| BIOWL1-15 | 2026-08-31 12:29:27 | 53.24014 | 10.85348 | 349° | 16km/h | 31996m | 7.6m/s | -41.2°C | 0% | 9.3hPa | 2.7V | 03:19:17 | 02:20:42 | 00:00:00 | |
| HSKMA3-T | 2026-08-31 12:29:26 | 53.24019 | 10.85349 | 12° | 22km/h | 32003m | 6.7m/s | -41.2°C | 0% | 9.3hPa | 2.7V | 03:19:17 | 02:20:43 | 00:00:00 | |
| DB0DAN | 2026-08-31 12:29:25 | 53.24014 | 10.85348 | 349° | 16km/h | 31996m | 7.6m/s | -41.2°C | 0.4% | 9.3hPa | 2.7V | 00:00:00 | 00:00:00 | 00:00:00 | |
| AA1-15 | 2026-08-31 12:29:21 | 53.24007 | 10.85371 | 287° | 15km/h | 31971m | 5.7m/s | -41.3°C | 0% | 9.3hPa | 2.7V | 03:19:17 | 02:20:38 | 00:00:00 | |
| DL1XH-west | 2026-08-31 12:29:21 | 53.24005 | 10.85376 | 313° | 11km/h | 31965m | 6.6m/s | -41.4°C | 0% | 9.3hPa | 2.7V | 03:19:17 | 02:20:37 | 00:00:00 | |
| DL1XH1-15 | 2026-08-31 12:29:20 | 53.24000 | 10.85375 | 32° | 16km/h | 31951m | 7m/s | -41.7°C | 2.3% | 9.4hPa | 2.7V | 03:18:57 | 02:20:35 | 00:00:00 | |
| BIOWL1-15 | 2026-08-31 12:29:19 | 53.23996 | 10.85370 | 42° | 22km/h | 31944m | 6.6m/s | -41.8°C | 0% | 9.4hPa | 2.6V | 03:19:17 | 02:20:34 | 00:00:00 | |
| DF8AY | 2026-08-31 12:29:19 | 53.23981 | 10.85350 | 8° | 5km/h | 31911m | 6.6m/s | -41.7°C | 0% | 9.4hPa | 2.7V | 03:19:17 | 02:20:29 | 00:00:00 | |
| DL1ZP-14 | 2026-08-31 12:29:19 | 53.24000 | 10.85375 | 32° | 16km/h | 31951m | 7.0m/s | -41.7°C | 0.4% | 9.4hPa | 2.7V | 00:00:00 | 00:00:00 | 00:00:00 | |
| DM0DOS-11 | 2026-08-31 12:29:18 | 53.23983 | 10.85351 | 23° | 9km/h | 31917m | 6.8m/s | -41.7°C | 2.4% | 9.4hPa | 2.7V | 03:19:02 | 02:20:30 | 00:00:00 | |
| DO2SHX-10 | 2026-08-31 12:29:18 | 53.24000 | 10.85375 | 33° | 20km/h | 31951m | 7.0m/s | -41.7°C | 2.3% | 9.3hPa | 2.6V | 00:00:00 | 02:20:35 | 00:00:00 | |
| GOEST3-10 | 2026-08-31 12:29:16 | 53.23992 | 10.85364 | 46° | 13km/h | 31938m | 5.9m/s | -41.7°C | 2.3% | 9.3hPa | 2.6V | 03:18:00 | 00:00:00 | 00:00:00 | |
| DL1XH-15 | 2026-08-31 12:29:15 | 53.23980 | 10.85349 | 4° | 2km/h | 31904m | 6.7m/s | -41.7°C | 2.3% | 9.4hPa | 2.6V | 03:19:04 | 02:20:28 | 00:00:00 | |
| HSKMA3-T | 2026-08-31 12:29:15 | 53.23988 | 10.85358 | 45° | 18km/h | 31931m | 7.1m/s | -41.7°C | 0% | 9.4hPa | 2.6V | 03:19:17 | 02:20:32 | 00:00:00 | |
| AA1-15 | 2026-08-31 12:29:11 | 53.23980 | 10.85349 | 4° | 2km/h | 31904m | 6.7m/s | -41.7°C | 0% | 9.4hPa | 2.6V | 03:19:17 | 02:20:28 | 00:00:00 | |
| DB0DAN | 2026-08-31 12:29:10 | 53.23980 | 10.85349 | 37° | 2km/h | 31897m | 7.3m/s | -41.7°C | 0.4% | 9.45hPa | 2.6V | 00:00:00 | 00:00:00 | 00:00:00 | |
| DL1XH-west | 2026-08-31 12:29:10 | 53.23980 | 10.85349 | 37° | 2km/h | 31897m | 7.3m/s | -41.7°C | 0% | 9.4hPa | 2.6V | 03:19:17 | 02:20:27 | 00:00:00 | |
| DD8BA-10 | 2026-08-31 12:29:10 | 53.23980 | 10.85349 | 38° | 9km/h | 31897m | 7.3m/s | -41.7°C | 2.3% | 9.4hPa | 2.6V | 03:19:00 | 00:00:00 | 00:00:00 | |
| DL1XH1-15 | 2026-08-31 12:29:09 | 53.23978 | 10.85347 | 30° | 4km/h | 31883m | 6.2m/s | -41.8°C | 2.4% | 9.5hPa | 2.7V | 03:19:07 | 02:20:25 | 00:00:00 | |
| DO2SHX-10 | 2026-08-31 12:29:09 | 53.23979 | 10.85348 | 45° | 4km/h | 31890m | 6.6m/s | -41.7°C | 2.3% | 9.4hPa | 2.7V | 00:00:00 | 02:20:26 | 00:00:00 | |
| DM0DOS-11 | 2026-08-31 12:29:08 | 53.23968 | 10.85354 | 352° | 11km/h | 31851m | 5.6m/s | -41.8°C | 2.4% | 9.5hPa | 2.7V | 03:19:12 | 02:20:20 | 00:00:00 | |
| BIOWL1-15 | 2026-08-31 12:29:07 | 53.23977 | 10.85347 | 357° | 5km/h | 31877m | 6.5m/s | -41.8°C | 0% | 9.5hPa | 2.7V | 03:19:17 | 02:20:24 | 00:00:00 | |
| DB0UT-7 | 2026-08-31 12:29:07 | 53.23977 | 10.85347 | 357° | 9km/h | 31878m | 6.4m/s | -41.7°C | 2.3% | 9.4hPa | 2.7V | 00:00:00 | 00:00:00 | 00:00:00 | |
| SMARD9-15 | 2026-08-31 12:29:06 | 53.23973 | 10.85350 | 325° | 11km/h | 31863m | 7.0m/s | -41.9°C | 0.4% | 9.5hPa | 2.7V | 00:00:00 | 00:00:00 | 00:00:00 | |
| DL1XH-15 | 2026-08-31 12:29:05 | 53.23963 | 10.85350 | 49° | 13km/h | 31837m | 7.9m/s | -41.6°C | 2.3% | 9.6hPa | 2.7V | 03:19:14 | 02:20:18 | 00:00:00 | |
| HSKMA3-T | 2026-08-31 12:29:05 | 53.23973 | 10.85350 | 326° | 11km/h | 31863m | 7m/s | -41.9°C | 0% | 9.5hPa | 2.6V | 03:19:17 | 02:20:22 | 00:00:00 | |
| AA1-15 | 2026-08-31 12:29:01 | 53.23963 | 10.85350 | 49° | 13km/h | 31837m | 7.9m/s | -41.6°C | 0% | 9.6hPa | 2.7V | 03:19:17 | 02:20:18 | 00:00:00 | |
| DL1XH-west | 2026-08-31 12:28:59 | 53.23960 | 10.85339 | 78° | 15km/h | 31824m | 5.8m/s | -41.8°C | 0% | 9.5hPa | 2.6V | 03:19:17 | 02:20:16 | 00:00:00 | |
| DO3MHA-11 | 2026-08-31 12:28:59 | 53.23960 | 10.85339 | 78° | 11km/h | 31824m | 5.7m/s | -41.7°C | 2.4% | 9.5hPa | 2.6V | 00:00:00 | 02:20:16 | 00:00:00 | |
| DO2SHX-10 | 2026-08-31 12:28:57 | 53.23959 | 10.85331 | 71° | 7km/h | 31811m | 7.5m/s | -41.9°C | 2.4% | 9.5hPa | 2.6V | 00:00:00 | 02:20:14 | 00:00:00 | |
| DM0DOS-11 | 2026-08-31 12:28:56 | 53.23955 | 10.85342 | 307° | 9km/h | 31785m | 6.1m/s | -41.9°C | 2.4% | 9.6hPa | 2.6V | 03:19:22 | 02:20:10 | 00:00:00 | |
| BIOWL1-15 | 2026-08-31 12:28:56 | 53.23958 | 10.85331 | 303° | 4km/h | 31803m | 7.3m/s | -41.9°C | 0% | 9.6hPa | 2.7V | 03:20:08 | 02:20:13 | 00:00:00 | |
| DB0DAN | 2026-08-31 12:28:55 | 53.23957 | 10.85333 | 290° | 9km/h | 31797m | 6.3m/s | -41.8°C | 0.4% | 9.58hPa | 2.7V | 00:00:00 | 00:00:00 | 00:00:00 | |
| DL1XH-15 | 2026-08-31 12:28:55 | 53.23952 | 10.85342 | 36° | 11km/h | 31771m | 7.3m/s | -41.9°C | 2.4% | 9.6hPa | 2.7V | 03:19:24 | 02:20:08 | 00:00:00 | |
| HSKMA3-T | 2026-08-31 12:28:54 | 53.23956 | 10.85338 | 291° | 11km/h | 31791m | 5.5m/s | -41.8°C | 0% | 9.6hPa | 2.7V | 03:20:08 | 02:20:11 | 00:00:00 | |
| AA1-15 | 2026-08-31 12:28:51 | 53.23949 | 10.85339 | 53° | 15km/h | 31764m | 6.8m/s | -41.8°C | 0% | 9.6hPa | 2.7V | 03:20:08 | 02:20:07 | 00:00:00 | |
| DL1XH-west | 2026-08-31 12:28:48 | 53.23945 | 10.85328 | 59° | 15km/h | 31751m | 6.5m/s | -41.8°C | 0% | 9.7hPa | 2.6V | 03:20:08 | 02:20:05 | 00:00:00 | |
| DL1ZP-14 | 2026-08-31 12:28:48 | 53.23944 | 10.85323 | 55° | 9km/h | 31745m | 7.1m/s | -41.9°C | 0.4% | 9.7hPa | 2.6V | 00:00:00 | 00:00:00 | 00:00:00 | |
| BIOWL1-15 | 2026-08-31 12:28:46 | 53.23942 | 10.85318 | 112° | 4km/h | 31717m | 7.7m/s | -41.7°C | 0% | 9.7hPa | 2.7V | 03:20:08 | 02:20:00 | 00:00:00 | |
| GOEST3-10 | 2026-08-31 12:28:46 | 53.23942 | 10.85321 | 57° | 4km/h | 31738m | 6.6m/s | -41.9°C | 2.4% | 9.6hPa | 2.6V | 00:00:00 | 00:00:00 | 00:00:00 | |
| DL1XH-15 | 2026-08-31 12:28:45 | 53.23943 | 10.85312 | 95° | 9km/h | 31703m | 6.5m/s | -41.8°C | 2.4% | 9.7hPa | 2.6V | 03:19:34 | 02:19:58 | 00:00:00 | |
| HSKMA3-T | 2026-08-31 12:28:44 | 53.23942 | 10.85319 | 118° | 2km/h | 31724m | 6.6m/s | -41.7°C | 0% | 9.7hPa | 2.7V | 03:20:08 | 02:20:01 | 00:00:00 | |
| DF8AY-15 | 2026-08-31 12:28:44 | 53.23942 | 10.85319 | 118° | 11km/h | 31724m | 6.6m/s | -41.7°C | 2.4% | 9.6hPa | 2.7V | 00:00:00 | 02:20:01 | 00:00:00 | |
| DL1XH1-15 | 2026-08-31 12:28:43 | 53.23943 | 10.85303 | 84° | 4km/h | 31683m | 7.6m/s | -41.6°C | 2.3% | 9.8hPa | 2.7V | 03:19:37 | 02:19:55 | 00:00:00 | |
| DF8AY | 2026-08-31 12:28:43 | 53.23943 | 10.85316 | 101° | 7km/h | 31710m | 7.3m/s | -41.7°C | 0% | 9.7hPa | 2.7V | 03:20:08 | 02:19:59 | 00:00:00 | |
| AA1-15 | 2026-08-31 12:28:41 | 53.23943 | 10.85308 | 95° | 9km/h | 31696m | 6.2m/s | -41.7°C | 0% | 9.8hPa | 2.6V | 03:20:08 | 02:19:57 | 00:00:00 | |
| DB0DAN | 2026-08-31 12:28:40 | 53.23943 | 10.85308 | 95° | 9km/h | 31696m | 6.2m/s | -41.7°C | 0.4% | 9.75hPa | 2.6V | 00:00:00 | 00:00:00 | 00:00:00 | |
| DD8BA-10 | 2026-08-31 12:28:40 | 53.23943 | 10.85308 | 96° | 13km/h | 31697m | 6.1m/s | -41.6°C | 2.4% | 9.7hPa | 2.6V | 00:00:00 | 00:00:00 | 00:00:00 | |
| DM0DOS-11 | 2026-08-31 12:28:39 | 53.23937 | 10.85273 | 78° | 26km/h | 31643m | 6.5m/s | -41.7°C | 2.3% | 9.8hPa | 2.7V | 03:19:43 | 02:19:49 | 00:00:00 | |
| DL1XH-west | 2026-08-31 12:28:38 | 53.23943 | 10.85303 | 85° | 4km/h | 31683m | 7.6m/s | -41.7°C | 0% | 9.8hPa | 2.7V | 03:20:08 | 02:19:55 | 00:00:00 | |
| BIOWL1-15 | 2026-08-31 12:28:35 | 53.23937 | 10.85243 | 136° | 9km/h | 31616m | 6.9m/s | -41.6°C | 0% | 9.8hPa | 2.6V | 03:20:08 | 02:19:45 | 00:00:00 | |
| HSKMA3-T | 2026-08-31 12:28:34 | 53.23940 | 10.85291 | 69° | 16km/h | 31657m | 7.5m/s | -41.6°C | 0% | 9.8hPa | 2.6V | 03:20:08 | 02:19:51 | 00:00:00 | |
| DF8AY | 2026-08-31 12:28:33 | 53.23937 | 10.85273 | 79° | 26km/h | 31643m | 6.5m/s | -41.7°C | 0% | 9.8hPa | 2.7V | 03:20:08 | 02:19:49 | 00:00:00 | |
| DL1XH-15 | 2026-08-31 12:28:33 | 53.23936 | 10.85263 | 83° | 24km/h | 31636m | 5.7m/s | -41.8°C | 2.3% | 9.8hPa | 2.7V | 03:19:44 | 02:19:48 | 00:00:00 | |
| DO9LL-15 | 2026-08-31 12:28:32 | 53.23937 | 10.85273 | 79° | 16km/h | 31643m | 6.5m/s | -41.7°C | 2.3% | 9.8hPa | 2.6V | 00:00:00 | 02:19:49 | 00:00:00 | |
| GOEST3-10 | 2026-08-31 12:28:31 | 53.23936 | 10.85263 | 84° | 15km/h | 31637m | 5.7m/s | -41.7°C | 2.3% | 9.8hPa | 2.6V | 00:00:00 | 02:19:48 | 00:00:00 | |
| DL1XH1-15 | 2026-08-31 12:28:30 | 53.23937 | 10.85244 | 135° | 9km/h | 31616m | 6.9m/s | -41.6°C | 2.3% | 9.8hPa | 2.6V | 03:19:47 | 02:19:45 | 00:00:00 | |
| AA1-15 | 2026-08-31 12:28:30 | 53.23936 | 10.85247 | 103° | 13km/h | 31623m | 7.3m/s | -41.6°C | 0% | 9.9hPa | 2.6V | 03:20:08 | 02:19:46 | 00:00:00 | |
| DL1XH-west | 2026-08-31 12:28:27 | 53.23938 | 10.85242 | 164° | 7km/h | 31610m | 6.4m/s | -41.6°C | 0% | 9.8hPa | 2.7V | 03:20:08 | 02:19:44 | 00:00:00 | |
| DM0DOS-11 | 2026-08-31 12:28:27 | 53.23936 | 10.85233 | 38° | 11km/h | 31578m | 5.7m/s | -41.6°C | 2.3% | 9.9hPa | 2.6V | 03:19:53 | 02:19:39 | 00:00:00 | |
| DO2SHX-10 | 2026-08-31 12:28:27 | 53.23938 | 10.85242 | 164° | 5km/h | 31610m | 6.4m/s | -41.6°C | 2.3% | 9.8hPa | 2.7V | 03:19:00 | 02:19:44 | 00:00:00 | |
| DB0DAN | 2026-08-31 12:28:25 | 53.23940 | 10.85240 | 111° | 4km/h | 31596m | 6.8m/s | -41.6°C | 0.4% | 9.86hPa | 2.7V | 00:00:00 | 00:00:00 | 00:00:00 | |
| HSKMA3-T | 2026-08-31 12:28:23 | 53.23938 | 10.85236 | 42° | 11km/h | 31584m | 5.7m/s | -41.5°C | 0% | 9.9hPa | 2.6V | 03:20:08 | 02:19:40 | 00:00:00 | |
| AA1-15 | 2026-08-31 12:28:19 | 53.23930 | 10.85221 | 86° | 11km/h | 31551m | 6.2m/s | -41.6°C | 0% | 9.9hPa | 2.7V | 03:20:08 | 02:19:35 | 00:00:00 | |
| DO2SHX-10 | 2026-08-31 12:28:18 | 53.23930 | 10.85221 | 87° | 16km/h | 31552m | 6.2m/s | -41.5°C | 2.3% | 9.9hPa | 2.7V | 00:00:00 | 02:19:35 | 00:00:00 | |
| DM0DOS-11 | 2026-08-31 12:28:17 | 53.23939 | 10.85180 | 156° | 13km/h | 31513m | 7.9m/s | -41.4°C | 2.3% | 10hPa | 2.6V | 03:20:03 | 02:19:29 | 00:00:00 | |
| DL1XH-west | 2026-08-31 12:28:16 | 53.23931 | 10.85207 | 99° | 20km/h | 31537m | 7m/s | -41.4°C | 0% | 9.9hPa | 2.6V | 03:20:08 | 02:19:33 | 00:00:00 | |
| HSKMA3-T | 2026-08-31 12:28:13 | 53.23936 | 10.85184 | 129° | 16km/h | 31520m | 6.5m/s | -41.5°C | 0% | 10hPa | 2.7V | 03:20:08 | 02:19:30 | 00:00:00 | |
| BIOWL1-15 | 2026-08-31 12:28:12 | 53.23944 | 10.85181 | 218° | 11km/h | 31499m | 5.9m/s | -41.5°C | 0% | 10.1hPa | 2.6V | 03:20:08 | 02:19:27 | 00:00:00 | |
| DO3MHA-11 | 2026-08-31 12:28:12 | 53.23939 | 10.85180 | 157° | 13km/h | 31513m | 7.8m/s | -41.4°C | 2.3% | 10.0hPa | 2.7V | 00:00:00 | 02:19:29 | 00:00:00 | |
| DL1XH1-15 | 2026-08-31 12:28:11 | 53.23946 | 10.85185 | 212° | 0km/h | 31487m | 6.1m/s | -41.5°C | 2.3% | 10hPa | 2.7V | 03:20:07 | 02:19:25 | 00:00:00 | |
| DB0DAN | 2026-08-31 12:28:10 | 53.23944 | 10.85181 | 218° | 9km/h | 31499m | 5.9m/s | -41.5°C | 0.4% | 10.06hPa | 2.6V | 00:00:00 | 00:00:00 | 00:00:00 | |
| AA1-15 | 2026-08-31 12:28:08 | 53.23946 | 10.85184 | 66° | 7km/h | 31481m | 7.3m/s | -41.5°C | 0% | 10.1hPa | 2.7V | 03:20:08 | 02:19:24 | 00:00:00 | |
| DM0DOS-11 | 2026-08-31 12:28:07 | 53.23943 | 10.85145 | 109° | 18km/h | 31448m | 7.2m/s | -41.6°C | 2.3% | 10.1hPa | 2.7V | 03:20:13 | 02:19:19 | 00:00:00 | |
| DL1XH-west | 2026-08-31 12:28:05 | 53.23943 | 10.85171 | 75° | 22km/h | 31467m | 5.8m/s | -41.5°C | 0% | 10.1hPa | 2.6V | 03:20:59 | 02:19:22 | 00:00:00 | |
| SMARD9-15 | 2026-08-31 12:28:04 | 53.23942 | 10.85153 | 92° | 20km/h | 31455m | 7.1m/s | -41.7°C | 0.4% | 10.1hPa | 2.7V | 00:00:00 | 00:00:00 | 00:00:00 | |
| DL1XH1-15 | 2026-08-31 12:28:03 | 53.23953 | 10.85126 | 139° | 11km/h | 31421m | 6.8m/s | -41.5°C | 2.3% | 10.2hPa | 2.7V | 03:20:17 | 02:19:15 | 00:00:00 | |
| BIOWL1-15 | 2026-08-31 12:28:02 | 53.23943 | 10.85145 | 110° | 18km/h | 31448m | 7.2m/s | -41.6°C | 0% | 10.1hPa | 2.7V | 03:20:59 | 02:19:19 | 00:00:00 | |
| BIOWL9-15 | 2026-08-31 12:28:01 | 53.23945 | 10.85139 | 128° | 15km/h | 31441m | 6.6m/s | -41.5°C | 0.4% | 10.1hPa | 2.6V | 00:00:00 | 00:00:00 | 00:00:00 | |
| DF7PN | 2026-08-31 12:27:58 | 53.23955 | 10.85124 | 144° | 7km/h | 31415m | 5.6m/s | -41.5°C | 0.4% | 10.2hPa | 2.6V | 00:00:00 | 00:00:00 | 00:00:00 | |
| DM0DOS-11 | 2026-08-31 12:27:57 | 53.23963 | 10.85125 | 139° | 5km/h | 31384m | 5.2m/s | -41.5°C | 2.3% | 10.2hPa | 2.6V | 03:20:23 | 02:19:09 | 00:00:00 | |
| DF8AY | 2026-08-31 12:27:55 | 53.23958 | 10.85123 | 201° | 7km/h | 31403m | 7.1m/s | -41.6°C | 0% | 10.2hPa | 2.7V | 03:21:50 | 02:19:12 | 00:00:00 | |
| DB0DAN | 2026-08-31 12:27:55 | 53.23958 | 10.85123 | 201° | 7km/h | 31403m | 7.1m/s | -41.6°C | 0.4% | 10.17hPa | 2.7V | 00:00:00 | 00:00:00 | 00:00:00 | |
| DL1XH-west | 2026-08-31 12:27:54 | 53.23960 | 10.85124 | 207° | 9km/h | 31396m | 7.2m/s | -41.4°C | 0% | 10.2hPa | 2.6V | 03:20:59 | 02:19:11 | 00:00:00 | |
| BIOWL1-15 | 2026-08-31 12:27:51 | 53.23964 | 10.85122 | 102° | 11km/h | 31378m | 6.4m/s | -41.4°C | 0% | 10.2hPa | 2.7V | 03:20:59 | 02:19:08 | 00:00:00 | |
| DO3MHA-11 | 2026-08-31 12:27:51 | 53.23964 | 10.85121 | 103° | 22km/h | 31378m | 6.4m/s | -41.4°C | 2.2% | 10.2hPa | 2.7V | 00:00:00 | 02:19:08 | 00:00:00 | |
| DL1XH1-15 | 2026-08-31 12:27:50 | 53.23964 | 10.85095 | 88° | 27km/h | 31358m | 4.8m/s | -41.5°C | 2.3% | 10.2hPa | 2.6V | 03:20:27 | 02:19:05 | 00:00:00 | |
| DD8BA-10 | 2026-08-31 12:27:50 | 53.23964 | 10.85115 | 90° | 22km/h | 31371m | 7.9m/s | -41.4°C | 2.3% | 10.2hPa | 2.6V | 03:20:00 | 00:00:00 | 00:00:00 | |
| DF7ER-10 | 2026-08-31 12:27:49 | 53.23965 | 10.85115 | 90° | 18km/h | 31371m | 8.0m/s | -41.5°C | 0.4% | 10.2hPa | 2.6V | 03:20:00 | 00:00:00 | 00:00:00 | |
| DL1XH-15 | 2026-08-31 12:27:48 | 53.23978 | 10.85061 | 182° | 22km/h | 31328m | 5.8m/s | -41.6°C | 2.3% | 10.3hPa | 2.6V | 03:20:32 | 02:19:00 | 00:00:00 | |
| DO2SHX-10 | 2026-08-31 12:27:48 | 53.23964 | 10.85095 | 89° | 26km/h | 31358m | 4.7m/s | -41.4°C | 2.3% | 10.2hPa | 2.6V | 00:00:00 | 02:19:05 | 00:00:00 | |
| DM0DOS-11 | 2026-08-31 12:27:47 | 53.23983 | 10.85061 | 190° | 18km/h | 31323m | 4.5m/s | -41.6°C | 2.3% | 10.3hPa | 2.6V | 03:20:33 | 02:18:59 | 00:00:00 | |
| AA1-15 | 2026-08-31 12:27:46 | 53.23969 | 10.85066 | 136° | 20km/h | 31341m | 7.1m/s | -41.6°C | 0% | 10.3hPa | 2.7V | 03:20:59 | 02:19:02 | 00:00:00 | |
| DL1ZP-14 | 2026-08-31 12:27:46 | 53.23973 | 10.85062 | 164° | 20km/h | 31335m | 7.0m/s | -41.6°C | 0.4% | 10.3hPa | 2.7V | 00:00:00 | 00:00:00 | 00:00:00 | |
| DO2SHX-10 | 2026-08-31 12:27:45 | 53.23969 | 10.85066 | 136° | 20km/h | 31342m | 7.1m/s | -41.6°C | 2.3% | 10.2hPa | 2.7V | 00:00:00 | 02:19:02 | 00:00:00 | |
| DL1XH1-15 | 2026-08-31 12:27:44 | 53.23989 | 10.85057 | 54° | 16km/h | 31299m | 6.2m/s | -41.7°C | 2.3% | 10.3hPa | 2.7V | 03:20:37 | 02:18:55 | 00:00:00 | |
| DL1XH-west | 2026-08-31 12:27:43 | 53.23978 | 10.85061 | 182° | 22km/h | 31328m | 5.8m/s | -41.6°C | 0% | 10.3hPa | 2.6V | 03:20:59 | 02:19:00 | 00:00:00 | |
| BIOWL1-15 | 2026-08-31 12:27:41 | 53.23987 | 10.85063 | 190° | 13km/h | 31318m | 5m/s | -41.6°C | 0% | 10.3hPa | 2.6V | 03:20:59 | 02:18:58 | 00:00:00 | |
| DB0NH | 2026-08-31 12:27:41 | 53.23987 | 10.85063 | 190° | 15km/h | 31319m | 4.9m/s | -41.6°C | 2.3% | 10.3hPa | 2.7V | 03:20:00 | 02:18:58 | 00:00:00 | |
| DL1NUX | 2026-08-31 12:27:40 | 53.23990 | 10.85061 | 71° | 7km/h | 31305m | 7.1m/s | -41.7°C | 2.3% | 10.3hPa | 2.7V | 03:20:36 | 02:18:56 | 00:00:00 | |
| DB0DAN | 2026-08-31 12:27:40 | 53.23990 | 10.85063 | 167° | 5km/h | 31312m | 6.6m/s | -41.7°C | 0.4% | 10.32hPa | 2.7V | 00:00:00 | 00:00:00 | 00:00:00 | |
| DD8BA-10 | 2026-08-31 12:27:40 | 53.23990 | 10.85063 | 168° | 13km/h | 31313m | 6.6m/s | -41.6°C | 2.3% | 10.3hPa | 2.7V | 00:00:00 | 00:00:00 | 00:00:00 | |
| DF7ER-10 | 2026-08-31 12:27:39 | 53.23990 | 10.85061 | 72° | 7km/h | 31306m | 7.1m/s | -41.7°C | 0.4% | 10.3hPa | 2.6V | 03:20:00 | 00:00:00 | 00:00:00 | |
| DJ2DS-15 | 2026-08-31 12:27:38 | 53.23989 | 10.85057 | 54° | 16km/h | 31299m | 6.2m/s | -41.7°C | 0.4% | 10.3hPa | 2.6V | 00:00:00 | 00:00:00 | 00:00:00 | |
| DM0DOS-11 | 2026-08-31 12:27:37 | 53.23983 | 10.85021 | 161° | 11km/h | 31257m | 5.1m/s | -41.6°C | 2.3% | 10.4hPa | 2.6V | 03:20:44 | 02:18:48 | 00:00:00 | |
| AA1-15 | 2026-08-31 12:27:35 | 53.23980 | 10.85035 | 62° | 18km/h | 31282m | 6.2m/s | -41.7°C | 0% | 10.3hPa | 2.7V | 03:20:59 | 02:18:52 | 00:00:00 | |
| DF8AY | 2026-08-31 12:27:32 | 53.23983 | 10.85021 | 162° | 11km/h | 31257m | 5.1m/s | -41.6°C | 0% | 10.4hPa | 2.6V | 03:21:50 | 02:18:48 | 00:00:00 | |
| DL1XH1-15 | 2026-08-31 12:27:31 | 53.23988 | 10.85012 | 85° | 13km/h | 31240m | 6m/s | -41.6°C | 2.3% | 10.4hPa | 2.7V | 03:20:47 | 02:18:45 | 00:00:00 | |
| HSKMA3-T | 2026-08-31 12:27:31 | 53.23986 | 10.85019 | 150° | 11km/h | 31252m | 5.6m/s | -41.6°C | 0% | 10.4hPa | 2.6V | 03:20:59 | 02:18:47 | 00:00:00 | |
| DD8BA-10 | 2026-08-31 12:27:30 | 53.23986 | 10.85019 | 151° | 13km/h | 31252m | 5.5m/s | -41.6°C | 2.3% | 10.3hPa | 2.6V | 00:00:00 | 00:00:00 | 00:00:00 | |
| TFSTFS | 2026-08-31 12:27:29 | 53.23986 | 10.85019 | 151° | 11km/h | 31252m | 5.6m/s | -41.6°C | 0.4% | 10.4hPa | 2.6V | 00:00:00 | 00:00:00 | 00:00:00 | |
| DL1XH-15 | 2026-08-31 12:27:28 | 53.23977 | 10.84988 | 47° | 9km/h | 31210m | 6.2m/s | -41.5°C | 2.3% | 10.5hPa | 2.6V | 03:20:52 | 02:18:40 | 00:00:00 | |
| MECKS9 | 2026-08-31 12:27:28 | 53.23988 | 10.85012 | 87° | 13km/h | 31240m | 6.0m/s | -41.6°C | 0.4% | 10.4hPa | 2.7V | 03:20:00 | 00:00:00 | 00:00:00 | |
| DO2SHX-10 | 2026-08-31 12:27:27 | 53.23987 | 10.85007 | 64° | 16km/h | 31234m | 5.6m/s | -41.6°C | 2.3% | 10.4hPa | 2.7V | 03:20:00 | 02:18:44 | 00:00:00 | |
| DM0DOS-11 | 2026-08-31 12:27:26 | 53.23977 | 10.84981 | 100° | 11km/h | 31199m | 5.5m/s | -41.5°C | 2.3% | 10.5hPa | 2.7V | 03:20:54 | 02:18:38 | 00:00:00 | |
| DB0DAN | 2026-08-31 12:27:25 | 53.23982 | 10.84995 | 46° | 16km/h | 31223m | 5.9m/s | -41.6°C | 0.4% | 10.45hPa | 2.6V | 00:00:00 | 00:00:00 | 00:00:00 | |
| AA1-15 | 2026-08-31 12:27:25 | 53.23982 | 10.84995 | 47° | 16km/h | 31223m | 5.9m/s | -41.6°C | 0% | 10.4hPa | 2.6V | 03:20:59 | 02:18:42 | 00:00:00 | |
| DO2SHX-10 | 2026-08-31 12:27:24 | 53.23979 | 10.84991 | 42° | 11km/h | 31217m | 6.4m/s | -41.6°C | 2.3% | 10.4hPa | 2.6V | 00:00:00 | 02:18:41 | 00:00:00 | |
| DL1XH1-15 | 2026-08-31 12:27:23 | 53.23980 | 10.84958 | 100° | 27km/h | 31180m | 6.4m/s | -41.4°C | 2.2% | 10.5hPa | 2.6V | 03:20:57 | 02:18:35 | 00:00:00 | |
| DL1XH-west | 2026-08-31 12:27:21 | 53.23976 | 10.84981 | 100° | 11km/h | 31199m | 5.5m/s | -41.5°C | 0% | 10.5hPa | 2.7V | 03:20:59 | 02:18:38 | 00:00:00 | |
| HSKMA3-T | 2026-08-31 12:27:20 | 53.23977 | 10.84975 | 107° | 16km/h | 31193m | 5.9m/s | -41.5°C | 0% | 10.5hPa | 2.7V | 03:20:59 | 02:18:37 | 00:00:00 | |
| BIOWL1-15 | 2026-08-31 12:27:20 | 53.23981 | 10.84946 | 96° | 27km/h | 31174m | 5.3m/s | -41.4°C | 0% | 10.5hPa | 2.7V | 03:20:59 | 02:18:34 | 00:00:00 | |
| DO2SHX-10 | 2026-08-31 12:27:18 | 53.23980 | 10.84957 | 101° | 27km/h | 31180m | 6.3m/s | -41.4°C | 2.2% | 10.4hPa | 2.7V | 00:00:00 | 02:18:35 | 00:00:00 | |
| MECKS9 | 2026-08-31 12:27:17 | 53.23980 | 10.84958 | 101° | 27km/h | 31180m | 6.4m/s | -41.4°C | 0.4% | 10.5hPa | 2.7V | 03:20:00 | 00:00:00 | 00:00:00 | |
| DM0DOS-11 | 2026-08-31 12:27:16 | 53.23980 | 10.84912 | 34° | 5km/h | 31139m | 5.3m/s | -41.4°C | 2.3% | 10.6hPa | 2.7V | 03:21:04 | 02:18:28 | 00:00:00 | |
| AA1-15 | 2026-08-31 12:27:15 | 53.23982 | 10.84915 | 83° | 7km/h | 31151m | 6.5m/s | -41.5°C | 0% | 10.6hPa | 2.6V | 03:21:50 | 02:18:30 | 00:00:00 | |
| DO2SHX-10 | 2026-08-31 12:27:15 | 53.23982 | 10.84925 | 92° | 13km/h | 31164m | 5.9m/s | -41.4°C | 2.3% | 10.5hPa | 2.7V | 03:21:00 | 02:18:32 | 00:00:00 | |
| DL1XH-15 | 2026-08-31 12:27:14 | 53.23981 | 10.84914 | 83° | 7km/h | 31151m | 6.5m/s | -41.5°C | 2.3% | 10.6hPa | 2.6V | 03:21:02 | 02:18:30 | 00:00:00 | |
| DL1NUX | 2026-08-31 12:27:14 | 53.23978 | 10.84904 | 72° | 15km/h | 31127m | 6.5m/s | -41.4°C | 2.2% | 10.6hPa | 2.7V | 03:21:06 | 02:18:26 | 00:00:00 | |
| DF8AY | 2026-08-31 12:27:12 | 53.23979 | 10.84909 | 58° | 9km/h | 31133m | 6.2m/s | -41.5°C | 0% | 10.6hPa | 2.7V | 03:21:50 | 02:18:27 | 00:00:00 | |
| DL1XH-west | 2026-08-31 12:27:11 | 53.23980 | 10.84912 | 35° | 5km/h | 31139m | 5.3m/s | -41.4°C | 0% | 10.6hPa | 2.7V | 03:21:50 | 02:18:28 | 00:00:00 | |
| DB0DAN | 2026-08-31 12:27:10 | 53.23979 | 10.84909 | 58° | 9km/h | 31133m | 6.2m/s | -41.5°C | 0.4% | 10.59hPa | 2.7V | 00:00:00 | 00:00:00 | 00:00:00 | |
| HSKMA3-T | 2026-08-31 12:27:09 | 53.23978 | 10.84904 | 73° | 15km/h | 31127m | 6.6m/s | -41.4°C | 0% | 10.6hPa | 2.7V | 03:21:50 | 02:18:26 | 00:00:00 | |
| DO2SHX-10 | 2026-08-31 12:27:09 | 53.23978 | 10.84904 | 73° | 18km/h | 31127m | 6.5m/s | -41.3°C | 2.2% | 10.5hPa | 2.6V | 00:00:00 | 02:18:26 | 00:00:00 | |
| EDDB2-11 | 2026-08-31 12:27:08 | 53.23977 | 10.84897 | 82° | 18km/h | 31121m | 5.7m/s | -41.4°C | 0.4% | 10.6hPa | 2.6V | 00:00:00 | 00:00:00 | 00:00:00 | |
| DB0UT-7 | 2026-08-31 12:27:07 | 53.23977 | 10.84889 | 91° | 13km/h | 31116m | 5.4m/s | -41.4°C | 2.3% | 10.6hPa | 2.6V | 00:00:00 | 00:00:00 | 00:00:00 | |
| DM0DOS-11 | 2026-08-31 12:27:06 | 53.23988 | 10.84852 | 125° | 15km/h | 31080m | 6.2m/s | -41.5°C | 2.2% | 10.6hPa | 2.6V | 03:21:14 | 02:18:18 | 00:00:00 | |
| AA1-15 | 2026-08-31 12:27:04 | 53.23983 | 10.84861 | 135° | 15km/h | 31091m | 5m/s | -41.4°C | 0% | 10.7hPa | 2.6V | 03:21:50 | 02:18:20 | 00:00:00 | |
| DF8AY-15 | 2026-08-31 12:27:04 | 53.23980 | 10.84866 | 129° | 11km/h | 31097m | 5.9m/s | -41.4°C | 2.3% | 10.6hPa | 2.7V | 00:00:00 | 02:18:21 | 00:00:00 | |
| DL1XH1-15 | 2026-08-31 12:27:03 | 53.23991 | 10.84836 | 95° | 11km/h | 31063m | 5.2m/s | -41.5°C | 2.2% | 10.7hPa | 2.7V | 03:21:17 | 02:18:15 | 00:00:00 | |
| DO2SHX-10 | 2026-08-31 12:27:03 | 53.23983 | 10.84861 | 135° | 15km/h | 31091m | 5.0m/s | -41.3°C | 2.2% | 10.6hPa | 2.7V | 03:21:00 | 02:18:20 | 00:00:00 | |
| SMARD9-15 | 2026-08-31 12:27:02 | 53.23988 | 10.84852 | 125° | 13km/h | 31080m | 6.2m/s | -41.5°C | 0.4% | 10.7hPa | 2.7V | 00:00:00 | 00:00:00 | 00:00:00 | |
| DL1NUX | 2026-08-31 12:27:01 | 53.23990 | 10.84842 | 98° | 13km/h | 31068m | 5.3m/s | -41.5°C | 2.2% | 10.7hPa | 2.7V | 03:21:16 | 02:18:16 | 00:00:00 | |
| DL1XH-west | 2026-08-31 12:27:01 | 53.23989 | 10.84847 | 112° | 15km/h | 31074m | 6.3m/s | -41.4°C | 0% | 10.7hPa | 2.7V | 03:21:50 | 02:18:17 | 00:00:00 | |
| HSKMA3-T | 2026-08-31 12:26:59 | 53.23990 | 10.84842 | 99° | 13km/h | 31068m | 5.3m/s | -41.5°C | 0% | 10.7hPa | 2.7V | 03:21:50 | 02:18:16 | 00:00:00 | |
| DF8AY | 2026-08-31 12:26:59 | 53.23991 | 10.84837 | 96° | 11km/h | 31063m | 5.2m/s | -41.5°C | 0% | 10.7hPa | 2.7V | 03:21:50 | 02:18:15 | 00:00:00 | |
| BIOWL1-15 | 2026-08-31 12:26:59 | 53.23991 | 10.84831 | 123° | 4km/h | 31051m | 6.9m/s | -41.6°C | 0% | 10.8hPa | 2.6V | 03:21:50 | 02:18:13 | 00:00:00 | |
| DF7ER-10 | 2026-08-31 12:26:57 | 53.23991 | 10.84833 | 99° | 7km/h | 31058m | 5.7m/s | -41.6°C | 0.4% | 10.7hPa | 2.7V | 03:21:00 | 00:00:00 | 00:00:00 | |
| DB0DAN | 2026-08-31 12:26:55 | 53.23992 | 10.84830 | 216° | 4km/h | 31044m | 6.4m/s | -41.7°C | 0.4% | 10.74hPa | 2.7V | 00:00:00 | 00:00:00 | 00:00:00 | |
| DL1NUX | 2026-08-31 12:26:54 | 53.23996 | 10.84814 | 87° | 22km/h | 31010m | 5.3m/s | -41.8°C | 2.3% | 10.8hPa | 2.7V | 03:21:26 | 02:18:06 | 00:00:00 | |
| AA1-15 | 2026-08-31 12:26:52 | 53.23995 | 10.84832 | 126° | 5km/h | 31029m | 5.5m/s | -41.8°C | 0% | 10.8hPa | 2.6V | 03:21:50 | 02:18:09 | 00:00:00 | |
| NBG1-10 | 2026-08-31 12:26:52 | 53.23995 | 10.84832 | 127° | 13km/h | 31029m | 5.5m/s | -41.7°C | 2.3% | 10.7hPa | 2.6V | 00:00:00 | 02:18:09 | 00:00:00 | |
| GOEST3-10 | 2026-08-31 12:26:51 | 53.23995 | 10.84828 | 101° | 18km/h | 31023m | 6.9m/s | -41.7°C | 2.3% | 10.7hPa | 2.6V | 00:00:00 | 02:18:08 | 00:00:00 | |
| DL1XH1-15 | 2026-08-31 12:26:50 | 53.23995 | 10.84805 | 86° | 20km/h | 31005m | 5.1m/s | -41.9°C | 2.3% | 10.8hPa | 2.7V | 03:21:27 | 02:18:05 | 00:00:00 | |
| DL1XH-west | 2026-08-31 12:26:49 | 53.23996 | 10.84814 | 88° | 22km/h | 31010m | 5.3m/s | -41.8°C | 0% | 10.8hPa | 2.7V | 03:21:50 | 02:18:06 | 00:00:00 | |
| HSKMA3-T | 2026-08-31 12:26:48 | 53.23995 | 10.84805 | 87° | 20km/h | 31005m | 5.1m/s | -41.9°C | 0% | 10.8hPa | 2.7V | 03:21:50 | 02:18:05 | 00:00:00 | |
| DF8AY | 2026-08-31 12:26:48 | 53.23995 | 10.84798 | 87° | 15km/h | 30999m | 6.8m/s | -42°C | 0% | 10.8hPa | 2.7V | 03:21:50 | 02:18:04 | 00:00:00 | |
| BUE01 | 2026-08-31 12:26:47 | 53.23995 | 10.84798 | 87° | 15km/h | 30999m | 6.8m/s | -42.0°C | 0.4% | 10.8hPa | 2.6V | 00:00:00 | 00:00:00 | 00:00:00 | |
| GOEST3-10 | 2026-08-31 12:26:46 | 53.23995 | 10.84792 | 91° | 5km/h | 30993m | 6.4m/s | -41.9°C | 2.3% | 10.8hPa | 2.6V | 00:00:00 | 00:00:00 | 00:00:00 | |
| DO2SHX-10 | 2026-08-31 12:26:45 | 53.23995 | 10.84790 | 95° | 4km/h | 30986m | 5.6m/s | -41.9°C | 2.3% | 10.8hPa | 2.6V | 00:00:00 | 02:18:02 | 00:00:00 | |
| DL1NUX | 2026-08-31 12:26:44 | 53.24005 | 10.84781 | 179° | 15km/h | 30952m | 6.7m/s | -42.2°C | 2.4% | 10.9hPa | 2.6V | 03:21:36 | 02:17:56 | 00:00:00 | |
| DF8AY-15 | 2026-08-31 12:26:44 | 53.23995 | 10.84788 | 126° | 15km/h | 30981m | 5.3m/s | -42.1°C | 2.3% | 10.8hPa | 2.6V | 03:21:00 | 02:18:01 | 00:00:00 | |
| DL1XH1-15 | 2026-08-31 12:26:43 | 53.24009 | 10.84782 | 186° | 16km/h | 30945m | 6.5m/s | -42.2°C | 2.4% | 10.9hPa | 2.6V | 03:21:37 | 02:17:55 | 00:00:00 | |
| BIOWL1-15 | 2026-08-31 12:26:42 | 53.24020 | 10.84781 | 150° | 15km/h | 30929m | 5.8m/s | -42.3°C | 0% | 10.9hPa | 2.7V | 03:21:50 | 02:17:52 | 00:00:00 | |
| AA1-15 | 2026-08-31 12:26:41 | 53.23999 | 10.84784 | 152° | 11km/h | 30963m | 4.8m/s | -42.2°C | 0% | 10.8hPa | 2.7V | 03:21:50 | 02:17:58 | 00:00:00 | |
| DB0DAN | 2026-08-31 12:26:40 | 53.24002 | 10.84782 | 166° | 11km/h | 30958m | 5.3m/s | -42.2°C | 0.4% | 10.86hPa | 2.7V | 00:00:00 | 00:00:00 | 00:00:00 | |
| DL1XH-west | 2026-08-31 12:26:39 | 53.24009 | 10.84782 | 186° | 16km/h | 30945m | 6.5m/s | -42.2°C | 0% | 10.9hPa | 2.6V | 03:21:50 | 02:17:55 | 00:00:00 | |
| HSKMA3-T | 2026-08-31 12:26:38 | 53.24012 | 10.84783 | 188° | 16km/h | 30939m | 5.1m/s | -42.2°C | 0% | 10.9hPa | 2.7V | 03:21:50 | 02:17:54 | 00:00:00 | |
| DF8AY | 2026-08-31 12:26:37 | 53.24016 | 10.84783 | 174° | 15km/h | 30934m | 4.9m/s | -42.2°C | 0% | 10.9hPa | 2.7V | 03:21:50 | 02:17:53 | 00:00:00 | |
| AA1-15 | 2026-08-31 12:26:31 | 53.24030 | 10.84755 | 216° | 18km/h | 30892m | 6m/s | -42.4°C | 0% | 11hPa | 2.6V | 03:21:50 | 02:17:45 | 00:00:00 | |
| SMARD9-15 | 2026-08-31 12:26:31 | 53.24026 | 10.84753 | 109° | 5km/h | 30903m | 5.2m/s | -42.3°C | 0.4% | 10.9hPa | 2.6V | 00:00:00 | 00:00:00 | 00:00:00 | |
| DL1XH1-15 | 2026-08-31 12:26:30 | 53.24030 | 10.84755 | 215° | 18km/h | 30892m | 6m/s | -42.4°C | 2.4% | 11hPa | 2.6V | 03:21:47 | 02:17:45 | 00:00:00 | |
| DL1XH-west | 2026-08-31 12:26:29 | 53.24035 | 10.84760 | 211° | 26km/h | 30886m | 5.3m/s | -42.3°C | 0% | 11hPa | 2.6V | 03:21:50 | 02:17:44 | 00:00:00 | |
| DL1NUX | 2026-08-31 12:26:28 | 53.24035 | 10.84760 | 210° | 26km/h | 30886m | 5.3m/s | -42.2°C | 2.4% | 11hPa | 2.6V | 03:21:48 | 02:17:44 | 00:00:00 | |
| HSKMA3-T | 2026-08-31 12:26:28 | 53.24057 | 10.84770 | 177° | 31km/h | 30870m | 5.4m/s | -42.2°C | 0% | 11hPa | 2.7V | 03:22:41 | 02:17:41 | 00:00:00 | |
| BIOWL1-15 | 2026-08-31 12:26:27 | 53.24041 | 10.84765 | 202° | 33km/h | 30881m | 5.4m/s | -42.2°C | 0% | 11hPa | 2.7V | 03:21:50 | 02:17:43 | 00:00:00 | |
| DF8AY | 2026-08-31 12:26:27 | 53.24049 | 10.84769 | 190° | 35km/h | 30875m | 5.5m/s | -42.2°C | 0% | 11hPa | 2.7V | 03:21:50 | 02:17:42 | 00:00:00 | |
| GOEST3-10 | 2026-08-31 12:26:27 | 53.24041 | 10.84765 | 203° | 29km/h | 30881m | 5.4m/s | -42.2°C | 2.3% | 11.0hPa | 2.6V | 00:00:00 | 00:00:00 | 00:00:00 | |
| DF7ER-10 | 2026-08-31 12:26:26 | 53.24049 | 10.84769 | 191° | 35km/h | 30876m | 5.5m/s | -42.2°C | 0.4% | 11.0hPa | 2.6V | 03:21:00 | 00:00:00 | 00:00:00 | |
| DM0DOS-11 | 2026-08-31 12:26:25 | 53.24075 | 10.84756 | 135° | 22km/h | 30854m | 6m/s | -42.3°C | 2.3% | 11hPa | 2.6V | 03:21:54 | 02:17:38 | 00:00:00 | |
| DB0DAN | 2026-08-31 12:26:25 | 53.24049 | 10.84769 | 190° | 33km/h | 30875m | 5.5m/s | -42.2°C | 0.4% | 11.02hPa | 2.7V | 00:00:00 | 00:00:00 | 00:00:00 | |
| DO2SHX-10 | 2026-08-31 12:26:24 | 53.24057 | 10.84770 | 177° | 29km/h | 30870m | 5.4m/s | -42.1°C | 2.4% | 10.9hPa | 2.7V | 00:00:00 | 02:17:41 | 00:00:00 | |
| DL1XH1-15 | 2026-08-31 12:26:23 | 53.24084 | 10.84741 | 140° | 13km/h | 30836m | 5.2m/s | -42.4°C | 2.3% | 11.1hPa | 2.7V | 03:21:57 | 02:17:35 | 00:00:00 | |
| AA1-15 | 2026-08-31 12:26:20 | 53.24086 | 10.84738 | 153° | 13km/h | 30831m | 4.9m/s | -42.3°C | 0% | 11.1hPa | 2.6V | 03:22:41 | 02:17:34 | 00:00:00 | |
| DL1XH-west | 2026-08-31 12:26:19 | 53.24084 | 10.84741 | 141° | 13km/h | 30836m | 5.2m/s | -42.4°C | 0% | 11.1hPa | 2.7V | 03:22:41 | 02:17:35 | 00:00:00 | |
| DL1NUX | 2026-08-31 12:26:18 | 53.24086 | 10.84738 | 152° | 13km/h | 30831m | 4.9m/s | -42.3°C | 2.4% | 11.1hPa | 2.6V | 03:21:58 | 02:17:34 | 00:00:00 | |
| HSKMA3-T | 2026-08-31 12:26:17 | 53.24094 | 10.84733 | 160° | 22km/h | 30820m | 5.9m/s | -42.4°C | 0% | 11.1hPa | 2.7V | 03:22:41 | 02:17:32 | 00:00:00 | |
| BIOWL1-15 | 2026-08-31 12:26:16 | 53.24106 | 10.84725 | 158° | 29km/h | 30809m | 5.4m/s | -42.4°C | 0% | 11.1hPa | 2.7V | 03:22:41 | 02:17:30 | 00:00:00 | |
| DF8AY | 2026-08-31 12:26:16 | 53.24141 | 10.84717 | 185° | 27km/h | 30781m | 4.7m/s | -42.4°C | 0% | 11.1hPa | 2.7V | 03:23:32 | 02:17:25 | 00:00:00 | |
| GOEST3-10 | 2026-08-31 12:26:16 | 53.24090 | 10.84735 | 160° | 26km/h | 30826m | 5.2m/s | -42.2°C | 2.4% | 11.0hPa | 2.7V | 03:21:00 | 00:00:00 | 00:00:00 | |
| DO2SHX-10 | 2026-08-31 12:26:15 | 53.24094 | 10.84733 | 161° | 26km/h | 30821m | 5.9m/s | -42.3°C | 2.3% | 11.1hPa | 2.7V | 03:22:00 | 02:17:32 | 00:00:00 | |
| DL1XH-15 | 2026-08-31 12:26:14 | 53.24106 | 10.84725 | 158° | 29km/h | 30809m | 5.4m/s | -42.4°C | 2.4% | 11.1hPa | 2.7V | 03:22:02 | 02:17:30 | 00:00:00 | |
| DO2LYB-13 | 2026-08-31 12:26:13 | 53.24100 | 10.84729 | 159° | 26km/h | 30815m | 6.2m/s | -42.4°C | 0.4% | 11.1hPa | 2.6V | 00:00:00 | 00:00:00 | 00:00:00 | |
| DO3MHA-11 | 2026-08-31 12:26:12 | 53.24113 | 10.84721 | 162° | 29km/h | 30804m | 4.4m/s | -42.4°C | 2.4% | 11.0hPa | 2.6V | 00:00:00 | 02:17:29 | 00:00:00 | |
| DB0DAN | 2026-08-31 12:26:10 | 53.24127 | 10.84716 | 177° | 27km/h | 30793m | 6.3m/s | -42.5°C | 0.4% | 11.14hPa | 2.6V | 00:00:00 | 00:00:00 | 00:00:00 | |
| DL1XH1-15 | 2026-08-31 12:26:10 | 53.24141 | 10.84717 | 185° | 27km/h | 30781m | 4.7m/s | -42.4°C | 2.4% | 11.1hPa | 2.7V | 03:22:07 | 02:17:25 | 00:00:00 | |
| DL1XH-west | 2026-08-31 12:26:08 | 53.24148 | 10.84717 | 175° | 27km/h | 30777m | 4.4m/s | -42.4°C | 0% | 11.2hPa | 2.7V | 03:22:41 | 02:17:24 | 00:00:00 | |
| SONCRA | 2026-08-31 12:26:08 | 53.24141 | 10.84717 | 185° | 26km/h | 30782m | 4.7m/s | -42.4°C | 0.4% | 11.1hPa | 2.6V | 00:00:00 | 00:00:00 | 00:00:00 | |
| DB0UT-7 | 2026-08-31 12:26:07 | 53.24148 | 10.84717 | 176° | 24km/h | 30777m | 4.4m/s | -42.4°C | 2.4% | 11.1hPa | 2.6V | 00:00:00 | 00:00:00 | 00:00:00 | |
| DM0DOS-11 | 2026-08-31 12:26:06 | 53.24186 | 10.84672 | 134° | 27km/h | 30742m | 6.5m/s | -42.5°C | 2.4% | 11.2hPa | 2.6V | 03:22:14 | 02:17:18 | 00:00:00 | |
| HSKMA3-T | 2026-08-31 12:26:06 | 53.24155 | 10.84715 | 163° | 29km/h | 30772m | 6m/s | -42.5°C | 0% | 11.2hPa | 2.6V | 03:22:41 | 02:17:23 | 00:00:00 | |
| BIOWL1-15 | 2026-08-31 12:26:06 | 53.24190 | 10.84665 | 137° | 20km/h | 30736m | 5.4m/s | -42.4°C | 0% | 11.3hPa | 2.6V | 03:22:41 | 02:17:17 | 00:00:00 | |
| DL4XJ-10 | 2026-08-31 12:26:04 | 53.24168 | 10.84701 | 140° | 27km/h | 30759m | 5.7m/s | -41.2°C | 0% | 0hPa | 2.7V | 00:00:00 | 00:00:00 | 00:00:00 | |
| DL1XH1-15 | 2026-08-31 12:26:03 | 53.24197 | 10.84657 | 152° | 16km/h | 30726m | 5.2m/s | -42.5°C | 2.4% | 11.2hPa | 2.7V | 03:22:17 | 02:17:15 | 00:00:00 | |
| DF8AY | 2026-08-31 12:25:59 | 53.24193 | 10.84660 | 145° | 16km/h | 30731m | 5m/s | -42.4°C | 0% | 11.3hPa | 2.6V | 03:23:32 | 02:17:16 | 00:00:00 | |
| AA1-15 | 2026-08-31 12:25:58 | 53.24212 | 10.84644 | 155° | 29km/h | 30708m | 5.8m/s | -42.5°C | 0% | 11.3hPa | 2.6V | 03:22:41 | 02:17:12 | 00:00:00 | |
| HSKMA3-T | 2026-08-31 12:25:56 | 53.24226 | 10.84634 | 159° | 31km/h | 30697m | 5.8m/s | -42.6°C | 0% | 11.3hPa | 2.7V | 03:22:41 | 02:17:10 | 00:00:00 | |
| DB0DAN | 2026-08-31 12:25:55 | 53.24212 | 10.84644 | 155° | 27km/h | 30708m | 5.8m/s | -42.5°C | 0.4% | 11.3hPa | 2.6V | 00:00:00 | 00:00:00 | 00:00:00 | |
| DF7PN | 2026-08-31 12:25:55 | 53.24233 | 10.84630 | 163° | 27km/h | 30691m | 6.5m/s | -42.7°C | 0.4% | 11.3hPa | 2.7V | 00:00:00 | 00:00:00 | 00:00:00 | |
| AM1SDL-15 | 2026-08-31 12:25:54 | 53.24226 | 10.84634 | 160° | 22km/h | 30697m | 5.7m/s | -42.6°C | 2.4% | 11.3hPa | 2.7V | 00:00:00 | 02:17:10 | 00:00:00 | |
| DO3MHA-11 | 2026-08-31 12:25:52 | 53.24233 | 10.84630 | 164° | 26km/h | 30691m | 6.4m/s | -42.6°C | 2.4% | 11.2hPa | 2.7V | 03:22:00 | 02:17:09 | 00:00:00 | |
| DL1NUX | 2026-08-31 12:25:51 | 53.24262 | 10.84587 | 105° | 31km/h | 30656m | 5.3m/s | -42.5°C | 2.4% | 11.3hPa | 2.7V | 03:22:29 | 02:17:03 | 00:00:00 | |
| DO2SHX-10 | 2026-08-31 12:25:51 | 53.24240 | 10.84627 | 165° | 26km/h | 30685m | 5.5m/s | -42.6°C | 2.4% | 11.3hPa | 2.6V | 03:22:00 | 02:17:08 | 00:00:00 | |
| DL1XH1-15 | 2026-08-31 12:25:50 | 53.24255 | 10.84610 | 126° | 27km/h | 30670m | 7m/s | -42.5°C | 2.4% | 11.3hPa | 2.6V | 03:22:27 | 02:17:05 | 00:00:00 | |
| DJ2DS-15 | 2026-08-31 12:25:50 | 53.24251 | 10.84618 | 140° | 24km/h | 30676m | 4.9m/s | -42.5°C | 0.4% | 11.3hPa | 2.7V | 00:00:00 | 00:00:00 | 00:00:00 | |
| DL1XH-15 | 2026-08-31 12:25:49 | 53.24266 | 10.84551 | 105° | 9km/h | 30634m | 5.4m/s | -42.8°C | 2.4% | 11.4hPa | 2.7V | 03:22:33 | 02:16:59 | 00:00:00 | |
| DF8AY | 2026-08-31 12:25:48 | 53.24259 | 10.84600 | 115° | 31km/h | 30663m | 6.7m/s | -42.5°C | 0% | 11.3hPa | 2.7V | 03:23:32 | 02:17:04 | 00:00:00 | |
| AA1-15 | 2026-08-31 12:25:48 | 53.24256 | 10.84610 | 127° | 27km/h | 30670m | 7m/s | -42.5°C | 0% | 11.3hPa | 2.6V | 03:22:41 | 02:17:05 | 00:00:00 | |
| DL1XH-west | 2026-08-31 12:25:46 | 53.24262 | 10.84587 | 106° | 31km/h | 30656m | 5.3m/s | -42.6°C | 0% | 11.3hPa | 2.7V | 03:22:41 | 02:17:03 | 00:00:00 | |
| BUE01 | 2026-08-31 12:25:45 | 53.24264 | 10.84575 | 101° | 27km/h | 30652m | 4.7m/s | -42.7°C | 0.4% | 11.4hPa | 2.6V | 00:00:00 | 00:00:00 | 00:00:00 | |
| HSKMA3-T | 2026-08-31 12:25:44 | 53.24265 | 10.84556 | 96° | 16km/h | 30640m | 6.3m/s | -42.8°C | 0% | 11.4hPa | 2.6V | 03:22:41 | 02:17:00 | 00:00:00 | |
| BIOWL1-15 | 2026-08-31 12:25:41 | 53.24272 | 10.84543 | 154° | 16km/h | 30617m | 6.7m/s | -42.9°C | 0% | 11.4hPa | 2.6V | 03:22:41 | 02:16:56 | 00:00:00 | |
| DB0DAN | 2026-08-31 12:25:40 | 53.24269 | 10.84546 | 154° | 11km/h | 30623m | 6.4m/s | -42.9°C | 0.4% | 11.42hPa | 2.7V | 00:00:00 | 00:00:00 | 00:00:00 | |
| AP2371 | 2026-08-31 12:25:40 | 53.24269 | 10.84546 | 155° | 13km/h | 30623m | 6.4m/s | -42.9°C | 0.4% | 11.4hPa | 2.6V | 00:00:00 | 00:00:00 | 00:00:00 | |
| DL1XH1-15 | 2026-08-31 12:25:39 | 53.24276 | 10.84539 | 148° | 22km/h | 30610m | 5.9m/s | -42.9°C | 2.4% | 11.4hPa | 2.6V | 03:22:37 | 02:16:55 | 00:00:00 | |
| AA1-15 | 2026-08-31 12:25:38 | 53.24281 | 10.84534 | 142° | 24km/h | 30605m | 5.1m/s | -42.9°C | 0% | 11.5hPa | 2.6V | 03:22:41 | 02:16:54 | 00:00:00 | |
| DL1XH-15 | 2026-08-31 12:25:37 | 53.24291 | 10.84506 | 80° | 16km/h | 30582m | 5.8m/s | -42.9°C | 2.4% | 11.5hPa | 2.6V | 03:22:42 | 02:16:50 | 00:00:00 | |
| DF8AY | 2026-08-31 12:25:37 | 53.24286 | 10.84527 | 133° | 24km/h | 30599m | 5m/s | -42.9°C | 0% | 11.5hPa | 2.7V | 03:23:32 | 02:16:53 | 00:00:00 | |
| DL1XH-west | 2026-08-31 12:25:36 | 53.24289 | 10.84520 | 123° | 20km/h | 30594m | 5.8m/s | -42.9°C | 0% | 11.4hPa | 2.7V | 03:22:41 | 02:16:52 | 00:00:00 | |
| HSKMA3-T | 2026-08-31 12:25:34 | 53.24291 | 10.84506 | 80° | 16km/h | 30582m | 5.8m/s | -42.9°C | 0% | 11.5hPa | 2.6V | 03:23:32 | 02:16:50 | 00:00:00 | |
| DL3AQ-11 | 2026-08-31 12:25:34 | 53.24291 | 10.84506 | 80° | 16km/h | 30582m | 5.8m/s | -42.9°C | 0.4% | 11.5hPa | 2.6V | 00:00:00 | 00:00:00 | 00:00:00 | |
| DO2SHX-10 | 2026-08-31 12:25:33 | 53.24291 | 10.84506 | 81° | 22km/h | 30582m | 5.8m/s | -42.9°C | 2.4% | 11.5hPa | 2.6V | 00:00:00 | 02:16:50 | 00:00:00 | |
| DL1NUX | 2026-08-31 12:25:32 | 53.24281 | 10.84442 | 86° | 24km/h | 30548m | 4.6m/s | -43.1°C | 2.4% | 11.6hPa | 2.6V | 03:22:48 | 02:16:44 | 00:00:00 | |
| GOEST3-10 | 2026-08-31 12:25:31 | 53.24287 | 10.84489 | 67° | 27km/h | 30571m | 5.7m/s | -43.1°C | 2.4% | 11.5hPa | 2.7V | 00:00:00 | 02:16:48 | 00:00:00 | |
| DD8BA-10 | 2026-08-31 12:25:30 | 53.24285 | 10.84478 | 71° | 18km/h | 30565m | 6.9m/s | -43.2°C | 2.4% | 11.4hPa | 2.7V | 00:00:00 | 00:00:00 | 00:00:00 | |
| HTAHTA | 2026-08-31 12:25:29 | 53.24281 | 10.84453 | 83° | 29km/h | 30553m | 4.9m/s | -43.1°C | 0.4% | 11.6hPa | 2.7V | 00:00:00 | 00:00:00 | 00:00:00 | |
| SMARD9-15 | 2026-08-31 12:25:28 | 53.24281 | 10.84453 | 83° | 29km/h | 30553m | 4.9m/s | -43.1°C | 0.4% | 11.6hPa | 2.7V | 00:00:00 | 00:00:00 | 00:00:00 | |
| DL1XH-15 | 2026-08-31 12:25:27 | 53.24282 | 10.84423 | 125° | 4km/h | 30524m | 4.6m/s | -43.1°C | 2.4% | 11.6hPa | 2.7V | 03:22:52 | 02:16:40 | 00:00:00 | |
| DL1XH-west | 2026-08-31 12:25:26 | 53.24281 | 10.84427 | 98° | 9km/h | 30536m | 7m/s | -43.1°C | 0% | 11.6hPa | 2.7V | 03:23:32 | 02:16:42 | 00:00:00 | |
| DM0DOS-11 | 2026-08-31 12:25:25 | 53.24283 | 10.84416 | 101° | 15km/h | 30514m | 6.3m/s | -43.1°C | 2.4% | 11.6hPa | 2.6V | 03:22:54 | 02:16:38 | 00:00:00 | |
| DB0DAN | 2026-08-31 12:25:25 | 53.24281 | 10.84427 | 98° | 9km/h | 30536m | 7m/s | -43.1°C | 0.4% | 11.57hPa | 2.7V | 00:00:00 | 00:00:00 | 00:00:00 | |
| DF8AY | 2026-08-31 12:25:25 | 53.24282 | 10.84423 | 125° | 4km/h | 30524m | 4.6m/s | -43.1°C | 0% | 11.6hPa | 2.7V | 03:23:32 | 02:16:40 | 00:00:00 | |
| HSKMA3-T | 2026-08-31 12:25:23 | 53.24283 | 10.84416 | 101° | 15km/h | 30514m | 6.3m/s | -43.2°C | 0% | 11.6hPa | 2.6V | 03:23:32 | 02:16:38 | 00:00:00 | |
| SO1NDE-10 | 2026-08-31 12:25:23 | 53.24282 | 10.84423 | 126° | 20km/h | 30525m | 4.6m/s | -43.1°C | 2.4% | 11.6hPa | 2.7V | 03:22:00 | 02:16:40 | 00:00:00 | |
| DO2SHX-10 | 2026-08-31 12:25:22 | 53.24283 | 10.84416 | 102° | 24km/h | 30514m | 6.3m/s | -43.1°C | 2.4% | 11.6hPa | 2.7V | 00:00:00 | 02:16:38 | 00:00:00 | |
| DD8BA-10 | 2026-08-31 12:25:20 | 53.24284 | 10.84408 | 96° | 29km/h | 30508m | 6.3m/s | -43.1°C | 2.4% | 11.6hPa | 2.7V | 00:00:00 | 00:00:00 | 00:00:00 | |
| BIOWL1-15 | 2026-08-31 12:25:19 | 53.24277 | 10.84250 | 72° | 27km/h | 30403m | 7.4m/s | -43.3°C | 0% | 11.8hPa | 2.7V | 03:23:32 | 02:16:19 | 00:00:00 | |
| DL1XH-west | 2026-08-31 12:25:15 | 53.24283 | 10.84340 | 81° | 29km/h | 30478m | 5.4m/s | -43.2°C | 0% | 11.7hPa | 2.6V | 03:23:32 | 02:16:32 | 00:00:00 | |
| AA1-15 | 2026-08-31 12:25:15 | 53.24281 | 10.84319 | 84° | 24km/h | 30468m | 5.3m/s | -43°C | 0% | 11.7hPa | 2.7V | 03:23:32 | 02:16:30 | 00:00:00 | |
| DO2SHX-10 | 2026-08-31 12:25:15 | 53.24282 | 10.84340 | 81° | 27km/h | 30478m | 5.4m/s | -43.1°C | 2.5% | 11.6hPa | 2.7V | 03:23:00 | 02:16:32 | 00:00:00 | |
| DL1XH-15 | 2026-08-31 12:25:14 | 53.24281 | 10.84319 | 83° | 24km/h | 30467m | 5.3m/s | -43°C | 2.4% | 11.7hPa | 2.7V | 03:23:02 | 02:16:30 | 00:00:00 | |
| DF8AY | 2026-08-31 12:25:13 | 53.24280 | 10.84308 | 88° | 24km/h | 30461m | 6.7m/s | -43.1°C | 0% | 11.7hPa | 2.7V | 03:23:32 | 02:16:29 | 00:00:00 | |
| DL1NUX | 2026-08-31 12:25:12 | 53.24284 | 10.84270 | 99° | 7km/h | 30432m | 6.8m/s | -43.2°C | 2.4% | 11.8hPa | 2.7V | 03:23:08 | 02:16:24 | 00:00:00 | |
| DM0DOS-11 | 2026-08-31 12:25:12 | 53.24280 | 10.84299 | 96° | 24km/h | 30455m | 6.3m/s | -43°C | 2.4% | 11.7hPa | 2.6V | 03:23:04 | 02:16:28 | 00:00:00 | |
| HSKMA3-T | 2026-08-31 12:25:11 | 53.24281 | 10.84289 | 104° | 22km/h | 30449m | 5.2m/s | -43.1°C | 0% | 11.7hPa | 2.6V | 03:23:32 | 02:16:27 | 00:00:00 | |
| DB0DAN | 2026-08-31 12:25:10 | 53.24281 | 10.84289 | 104° | 22km/h | 30449m | 5.2m/s | -43.1°C | 0.4% | 11.68hPa | 2.6V | 00:00:00 | 00:00:00 | 00:00:00 | |
| DD8BA-10 | 2026-08-31 12:25:10 | 53.24281 | 10.84289 | 104° | 16km/h | 30450m | 5.2m/s | -43.0°C | 2.4% | 11.6hPa | 2.6V | 03:23:00 | 00:00:00 | 00:00:00 | |
| DO2SHX-10 | 2026-08-31 12:25:09 | 53.24282 | 10.84281 | 107° | 13km/h | 30444m | 4.8m/s | -43.1°C | 2.4% | 11.7hPa | 2.7V | 00:00:00 | 02:16:26 | 00:00:00 | |
| DL1XH-15 | 2026-08-31 12:25:08 | 53.24279 | 10.84259 | 62° | 18km/h | 30410m | 5.3m/s | -43.4°C | 2.4% | 11.8hPa | 2.7V | 03:23:12 | 02:16:20 | 00:00:00 | |
| BIOWL1-15 | 2026-08-31 12:25:08 | 53.24275 | 10.84237 | 79° | 37km/h | 30396m | 7m/s | -43.4°C | 0% | 11.8hPa | 2.7V | 03:23:32 | 02:16:18 | 00:00:00 | |
| DB0UT-7 | 2026-08-31 12:25:07 | 53.24284 | 10.84270 | 100° | 20km/h | 30433m | 6.8m/s | -43.2°C | 2.4% | 11.7hPa | 2.7V | 00:00:00 | 00:00:00 | 00:00:00 | |
| DO2SHX-10 | 2026-08-31 12:25:06 | 53.24284 | 10.84268 | 61° | 7km/h | 30426m | 6.5m/s | -43.2°C | 2.4% | 11.7hPa | 2.7V | 00:00:00 | 02:16:23 | 00:00:00 | |
| DM0DOS-11 | 2026-08-31 12:25:05 | 53.24275 | 10.84237 | 79° | 37km/h | 30396m | 7m/s | -43.4°C | 2.4% | 11.8hPa | 2.7V | 03:23:14 | 02:16:18 | 00:00:00 | |
| AA1-15 | 2026-08-31 12:25:04 | 53.24282 | 10.84264 | 47° | 13km/h | 30415m | 4.5m/s | -43.4°C | 0% | 11.8hPa | 2.6V | 03:23:32 | 02:16:21 | 00:00:00 | |
| DF8AY | 2026-08-31 12:25:01 | 53.24274 | 10.84220 | 85° | 42km/h | 30390m | 4.8m/s | -43.5°C | 0% | 11.8hPa | 2.6V | 03:23:32 | 02:16:17 | 00:00:00 | |
| HSKMA3-T | 2026-08-31 12:25:00 | 53.24273 | 10.84203 | 88° | 40km/h | 30386m | 3.8m/s | -43.5°C | 0% | 11.8hPa | 2.6V | 03:23:32 | 02:16:16 | 00:00:00 | |
| DF7ER-10 | 2026-08-31 12:24:59 | 53.24274 | 10.84220 | 86° | 42km/h | 30391m | 4.8m/s | -43.5°C | 0.5% | 11.8hPa | 2.7V | 03:23:00 | 00:00:00 | 00:00:00 | |
| DL1NUX | 2026-08-31 12:24:58 | 53.24273 | 10.84175 | 87° | 24km/h | 30376m | 6.3m/s | -43.4°C | 2.4% | 11.8hPa | 2.7V | 03:23:18 | 02:16:14 | 00:00:00 | |
| HTAHTA | 2026-08-31 12:24:58 | 53.24272 | 10.84164 | 26° | 4km/h | 30363m | 6.3m/s | -43.4°C | 0.4% | 11.9hPa | 2.6V | 00:00:00 | 00:00:00 | 00:00:00 | |
| DO2SHX-10 | 2026-08-31 12:24:57 | 53.24273 | 10.84175 | 88° | 15km/h | 30376m | 6.3m/s | -43.3°C | 2.4% | 11.8hPa | 2.6V | 00:00:00 | 02:16:14 | 00:00:00 | |
| DB0DAN | 2026-08-31 12:24:55 | 53.24272 | 10.84164 | 27° | 4km/h | 30363m | 6.3m/s | -43.4°C | 0.4% | 11.89hPa | 2.6V | 00:00:00 | 00:00:00 | 00:00:00 | |
| DL1XH-west | 2026-08-31 12:24:53 | 53.24267 | 10.84167 | 1° | 9km/h | 30346m | 5.9m/s | -43.5°C | 0% | 11.9hPa | 2.7V | 03:23:32 | 02:16:09 | 00:00:00 | |
| DL1XH1-15 | 2026-08-31 12:24:53 | 53.24260 | 10.84142 | 81° | 27km/h | 30321m | 6.4m/s | -43.8°C | 2.4% | 12hPa | 2.6V | 03:23:27 | 02:16:05 | 00:00:00 | |
| BIOWL1-15 | 2026-08-31 12:24:53 | 53.24269 | 10.84166 | 330° | 9km/h | 30351m | 5.7m/s | -43.6°C | 0% | 11.9hPa | 2.6V | 03:23:32 | 02:16:10 | 00:00:00 | |
| DM0DOS-11 | 2026-08-31 12:24:52 | 53.24265 | 10.84166 | 43° | 11km/h | 30339m | 5.8m/s | -43.5°C | 2.3% | 11.9hPa | 2.7V | 03:23:24 | 02:16:08 | 00:00:00 | |
| DF8AY | 2026-08-31 12:24:51 | 53.24262 | 10.84161 | 64° | 16km/h | 30334m | 5.9m/s | -43.5°C | 0% | 11.9hPa | 2.7V | 03:23:32 | 02:16:07 | 00:00:00 | |
| HSKMA3-T | 2026-08-31 12:24:50 | 53.24260 | 10.84142 | 81° | 27km/h | 30321m | 6.4m/s | -43.8°C | 0% | 12hPa | 2.6V | 03:23:32 | 02:16:05 | 00:00:00 | |
| DL1XH-15 | 2026-08-31 12:24:48 | 53.24253 | 10.84085 | 65° | 29km/h | 30291m | 6.8m/s | -44.1°C | 2.5% | 12hPa | 2.6V | 03:23:32 | 02:16:00 | 00:00:00 | |
| SONDE2-11 | 2026-08-31 12:24:47 | 53.24259 | 10.84131 | 85° | 27km/h | 30315m | 6.2m/s | -43.9°C | 0.4% | 11.9hPa | 2.7V | 00:00:00 | 00:00:00 | 00:00:00 | |
| GOEST3-10 | 2026-08-31 12:24:46 | 53.24258 | 10.84119 | 85° | 27km/h | 30309m | 5.9m/s | -44.0°C | 2.4% | 11.9hPa | 2.7V | 00:00:00 | 00:00:00 | 00:00:00 | |
| DM0DOS-11 | 2026-08-31 12:24:45 | 53.24246 | 10.84065 | 54° | 24km/h | 30279m | 4.3m/s | -44°C | 2.4% | 12hPa | 2.7V | 03:23:34 | 02:15:58 | 00:00:00 | |
| DL1XH-west | 2026-08-31 12:24:43 | 53.24249 | 10.84075 | 60° | 27km/h | 30285m | 5.7m/s | -44.1°C | 0% | 12hPa | 2.6V | 03:24:23 | 02:15:59 | 00:00:00 | |
| DL4BBY-15 | 2026-08-31 12:24:42 | 53.24249 | 10.84075 | 60° | 22km/h | 30285m | 5.6m/s | -42.9°C | 0% | 0hPa | 2.7V | 00:00:00 | 00:00:00 | 00:00:00 | |
| DB0DAN | 2026-08-31 12:24:40 | 53.24243 | 10.84059 | 51° | 15km/h | 30275m | 5m/s | -43.9°C | 0.5% | 12.01hPa | 2.7V | 00:00:00 | 00:00:00 | 00:00:00 | |
| DL1XH1-15 | 2026-08-31 12:24:40 | 53.24241 | 10.84055 | 219° | 4km/h | 30261m | 7.9m/s | -43.9°C | 2.4% | 12.1hPa | 2.6V | 03:23:37 | 02:15:55 | 00:00:00 | |
| DF8AY | 2026-08-31 12:24:39 | 53.24241 | 10.84055 | 49° | 7km/h | 30269m | 7.2m/s | -43.9°C | 0% | 12hPa | 2.7V | 03:24:23 | 02:15:56 | 00:00:00 | |
| DO2SHX-10 | 2026-08-31 12:24:39 | 53.24241 | 10.84055 | 50° | 7km/h | 30269m | 7.2m/s | -43.8°C | 2.5% | 12.0hPa | 2.6V | 03:23:00 | 02:15:56 | 00:00:00 | |
| DL1NUX | 2026-08-31 12:24:38 | 53.24243 | 10.84056 | 207° | 11km/h | 30254m | 5.7m/s | -43.9°C | 2.4% | 12.1hPa | 2.6V | 03:23:38 | 02:15:54 | 00:00:00 | |
| HSKMA3-T | 2026-08-31 12:24:37 | 53.24243 | 10.84056 | 208° | 11km/h | 30254m | 5.7m/s | -43.9°C | 0% | 12.1hPa | 2.6V | 03:24:23 | 02:15:54 | 00:00:00 | |
| DB0UT-7 | 2026-08-31 12:24:37 | 53.24242 | 10.84056 | 208° | 22km/h | 30254m | 5.6m/s | -43.8°C | 2.4% | 12.0hPa | 2.6V | 00:00:00 | 02:15:54 | 00:00:00 | |
| DO2SHX-10 | 2026-08-31 12:24:36 | 53.24245 | 10.84058 | 189° | 15km/h | 30250m | 4.4m/s | -43.9°C | 2.4% | 12.0hPa | 2.6V | 00:00:00 | 02:15:53 | 00:00:00 | |
| DL1XH-15 | 2026-08-31 12:24:34 | 53.24252 | 10.84046 | 95° | 24km/h | 30233m | 6.6m/s | -44.2°C | 2.4% | 12.1hPa | 2.6V | 03:23:42 | 02:15:50 | 00:00:00 | |
| DL1XH1-15 | 2026-08-31 12:24:33 | 53.24242 | 10.83985 | 61° | 22km/h | 30201m | 6.1m/s | -44.7°C | 2.6% | 12.2hPa | 2.7V | 03:23:47 | 02:15:45 | 00:00:00 | |
| DO2SHX-10 | 2026-08-31 12:24:33 | 53.24253 | 10.84046 | 96° | 29km/h | 30233m | 6.6m/s | -44.2°C | 2.4% | 12.1hPa | 2.6V | 00:00:00 | 02:15:50 | 00:00:00 | |
| DM0DOS-11 | 2026-08-31 12:24:32 | 53.24251 | 10.84021 | 74° | 37km/h | 30220m | 5.8m/s | -44.6°C | 2.5% | 12.2hPa | 2.6V | 03:23:44 | 02:15:48 | 00:00:00 | |
| BIOWL1-15 | 2026-08-31 12:24:31 | 53.24251 | 10.84021 | 75° | 37km/h | 30220m | 5.8m/s | -44.6°C | 0% | 12.2hPa | 2.6V | 03:24:23 | 02:15:48 | 00:00:00 | |
| DF8AY | 2026-08-31 12:24:29 | 53.24242 | 10.83985 | 61° | 22km/h | 30201m | 6.1m/s | -44.7°C | 0% | 12.2hPa | 2.7V | 03:24:23 | 02:15:45 | 00:00:00 | |
| DL1XH-15 | 2026-08-31 12:24:28 | 53.24239 | 10.83958 | 129° | 16km/h | 30170m | 6.2m/s | -44.5°C | 2.6% | 12.2hPa | 2.7V | 03:23:52 | 02:15:40 | 00:00:00 | |
| HSKMA3-T | 2026-08-31 12:24:27 | 53.24238 | 10.83973 | 67° | 13km/h | 30190m | 5.7m/s | -44.5°C | 0% | 12.2hPa | 2.6V | 03:24:23 | 02:15:43 | 00:00:00 | |
| DB0DAN | 2026-08-31 12:24:25 | 53.24237 | 10.83968 | 83° | 11km/h | 30183m | 7m/s | -44.5°C | 0.5% | 12.23hPa | 2.7V | 00:00:00 | 00:00:00 | 00:00:00 | |
| DM0DOS-11 | 2026-08-31 12:24:25 | 53.24245 | 10.83948 | 145° | 18km/h | 30158m | 7.2m/s | -44.6°C | 2.6% | 12.2hPa | 2.6V | 03:23:54 | 02:15:38 | 00:00:00 | |
| DL1XH-west | 2026-08-31 12:24:20 | 53.24253 | 10.83938 | 124° | 20km/h | 30146m | 4.3m/s | -44.8°C | 0% | 12.3hPa | 2.7V | 03:24:23 | 02:15:36 | 00:00:00 | |
| BIOWL1-15 | 2026-08-31 12:24:20 | 53.24249 | 10.83944 | 144° | 18km/h | 30151m | 5.8m/s | -44.7°C | 0% | 12.3hPa | 2.6V | 03:24:23 | 02:15:37 | 00:00:00 | |
| DD8BA-10 | 2026-08-31 12:24:20 | 53.24249 | 10.83944 | 145° | 29km/h | 30151m | 5.7m/s | -44.7°C | 2.6% | 12.2hPa | 2.7V | 00:00:00 | 00:00:00 | 00:00:00 | |
| DL1NUX | 2026-08-31 12:24:19 | 53.24256 | 10.83919 | 93° | 29km/h | 30135m | 7.6m/s | -44.9°C | 2.6% | 12.3hPa | 2.7V | 03:23:58 | 02:15:34 | 00:00:00 | |
| DF8AY | 2026-08-31 12:24:17 | 53.24242 | 10.83839 | 83° | 15km/h | 30098m | 5.9m/s | -44.8°C | 0% | 12.4hPa | 2.6V | 03:24:23 | 02:15:28 | 00:00:00 | |
| HSKMA3-T | 2026-08-31 12:24:16 | 53.24255 | 10.83905 | 83° | 37km/h | 30128m | 7.7m/s | -44.9°C | 0% | 12.3hPa | 2.6V | 03:24:23 | 02:15:33 | 00:00:00 | |
| SONDE2-11 | 2026-08-31 12:24:16 | 53.24255 | 10.83905 | 82° | 37km/h | 30128m | 7.7m/s | -44.9°C | 0.5% | 12.3hPa | 2.6V | 00:00:00 | 00:00:00 | 00:00:00 | |
| DO2SHX-10 | 2026-08-31 12:24:15 | 53.24253 | 10.83888 | 75° | 38km/h | 30121m | 5.9m/s | -44.9°C | 2.7% | 12.3hPa | 2.6V | 03:24:00 | 02:15:32 | 00:00:00 | |
| DL3AQ-11 | 2026-08-31 12:24:14 | 53.24247 | 10.83858 | 65° | 33km/h | 30110m | 5.9m/s | -44.8°C | 0.5% | 12.3hPa | 2.7V | 00:00:00 | 00:00:00 | 00:00:00 | |
| DL1XH1-15 | 2026-08-31 12:24:13 | 53.24250 | 10.83823 | 143° | 26km/h | 30079m | 6.8m/s | -44.9°C | 2.7% | 12.4hPa | 2.7V | 03:24:07 | 02:15:25 | 00:00:00 | |
| DM0DOS-11 | 2026-08-31 12:24:12 | 53.24242 | 10.83839 | 82° | 15km/h | 30098m | 5.9m/s | -44.8°C | 2.7% | 12.4hPa | 2.6V | 03:24:04 | 02:15:28 | 00:00:00 | |
| DL1NUX | 2026-08-31 12:24:12 | 53.24255 | 10.83816 | 136° | 31km/h | 30072m | 6.4m/s | -44.9°C | 2.7% | 12.4hPa | 2.7V | 03:24:08 | 02:15:24 | 00:00:00 | |
| DL1LOL-11 | 2026-08-31 12:24:11 | 53.24243 | 10.83847 | 68° | 26km/h | 30104m | 6.3m/s | -44.8°C | 0.5% | 12.3hPa | 2.6V | 00:00:00 | 00:00:00 | 00:00:00 | |
| DB0DAN | 2026-08-31 12:24:10 | 53.24243 | 10.83833 | 125° | 13km/h | 30092m | 5.9m/s | -44.8°C | 0.5% | 12.35hPa | 2.6V | 00:00:00 | 00:00:00 | 00:00:00 | |
| DL1XH-west | 2026-08-31 12:24:10 | 53.24246 | 10.83829 | 143° | 18km/h | 30086m | 6.1m/s | -44.9°C | 0% | 12.4hPa | 2.6V | 03:24:23 | 02:15:26 | 00:00:00 | |
| BIOWL1-15 | 2026-08-31 12:24:09 | 53.24270 | 10.83754 | 79° | 31km/h | 30043m | 6m/s | -44.9°C | 0% | 12.5hPa | 2.7V | 03:24:23 | 02:15:19 | 00:00:00 | |
| AA1-15 | 2026-08-31 12:24:08 | 53.24250 | 10.83824 | 143° | 26km/h | 30079m | 6.8m/s | -44.9°C | 0% | 12.4hPa | 2.7V | 03:24:23 | 02:15:25 | 00:00:00 | |
| HSKMA3-T | 2026-08-31 12:24:06 | 53.24261 | 10.83806 | 128° | 35km/h | 30066m | 5.6m/s | -44.9°C | 0% | 12.4hPa | 2.7V | 03:24:23 | 02:15:23 | 00:00:00 | |
| DF8AY | 2026-08-31 12:24:03 | 53.24265 | 10.83729 | 70° | 33km/h | 30031m | 6.6m/s | -45°C | 0% | 12.5hPa | 2.6V | 03:24:23 | 02:15:17 | 00:00:00 | |
| DO2SHX-10 | 2026-08-31 12:24:03 | 53.24270 | 10.83767 | 94° | 31km/h | 30050m | 6.5m/s | -44.8°C | 2.7% | 12.4hPa | 2.7V | 03:24:00 | 02:15:20 | 00:00:00 | |
| DJ2DS-15 | 2026-08-31 12:24:02 | 53.24268 | 10.83742 | 71° | 31km/h | 30037m | 5.5m/s | -44.9°C | 0.5% | 12.5hPa | 2.7V | 00:00:00 | 00:00:00 | 00:00:00 | |
| DL1NUX | 2026-08-31 12:24:01 | 53.24259 | 10.83692 | 78° | 26km/h | 30013m | 5.3m/s | -44.8°C | 2.7% | 12.5hPa | 2.7V | 03:24:18 | 02:15:14 | 00:00:00 | |
| DO9LL-15 | 2026-08-31 12:24:01 | 53.24268 | 10.83742 | 72° | 24km/h | 30038m | 5.4m/s | -44.9°C | 2.7% | 12.4hPa | 2.7V | 00:00:00 | 02:15:18 | 00:00:00 | |
| DL1XH1-15 | 2026-08-31 12:24:00 | 53.24261 | 10.83704 | 76° | 29km/h | 30018m | 5.5m/s | -44.8°C | 2.7% | 12.5hPa | 2.7V | 03:24:17 | 02:15:15 | 00:00:00 | |
| DL1XH-west | 2026-08-31 12:23:58 | 53.24261 | 10.83704 | 76° | 29km/h | 30018m | 5.5m/s | -44.8°C | 0% | 12.5hPa | 2.7V | 03:24:23 | 02:15:15 | 00:00:00 | |
| AA1-15 | 2026-08-31 12:23:57 | 53.24259 | 10.83692 | 79° | 26km/h | 30013m | 5.4m/s | -44.8°C | 0% | 12.5hPa | 2.7V | 03:24:23 | 02:15:14 | 00:00:00 | |
| HSKMA3-T | 2026-08-31 12:23:56 | 53.24258 | 10.83683 | 79° | 20km/h | 30008m | 6.2m/s | -44.9°C | 0% | 12.5hPa | 2.6V | 03:24:23 | 02:15:13 | 00:00:00 | |
| HTAHTA | 2026-08-31 12:23:56 | 53.24257 | 10.83676 | 80° | 13km/h | 30001m | 7.2m/s | -44.9°C | 0.5% | 12.6hPa | 2.6V | 00:00:00 | 00:00:00 | 00:00:00 | |
| SMARD9-15 | 2026-08-31 12:23:55 | 53.24257 | 10.83676 | 80° | 13km/h | 30001m | 7.2m/s | -44.9°C | 0.5% | 12.6hPa | 2.6V | 00:00:00 | 00:00:00 | 00:00:00 | |
| DB0DAN | 2026-08-31 12:23:55 | 53.24257 | 10.83676 | 80° | 13km/h | 30001m | 7.2m/s | -44.9°C | 0.5% | 12.55hPa | 2.6V | 00:00:00 | 00:00:00 | 00:00:00 | |
| DL1XH1-15 | 2026-08-31 12:23:53 | 53.24264 | 10.83618 | 85° | 33km/h | 29958m | 5.8m/s | -45.3°C | 2.8% | 12.6hPa | 2.7V | 03:24:27 | 02:15:05 | 00:00:00 | |
| BIOWL9-15 | 2026-08-31 12:23:53 | 53.24259 | 10.83662 | 113° | 15km/h | 29983m | 5.9m/s | -45.1°C | 0.5% | 12.6hPa | 2.7V | 00:00:00 | 00:00:00 | 00:00:00 | |
| DM0DOS-11 | 2026-08-31 12:23:52 | 53.24260 | 10.83655 | 110° | 22km/h | 29976m | 7m/s | -45.2°C | 2.8% | 12.6hPa | 2.7V | 03:24:24 | 02:15:08 | 00:00:00 | |
| DF8AY | 2026-08-31 12:23:50 | 53.24252 | 10.83573 | 56° | 26km/h | 29933m | 5.4m/s | -45.4°C | 0% | 12.7hPa | 2.6V | 03:25:14 | 02:15:01 | 00:00:00 | |
| BIOWL1-15 | 2026-08-31 12:23:49 | 53.24262 | 10.83605 | 76° | 31km/h | 29952m | 7.2m/s | -45.3°C | 0% | 12.7hPa | 2.7V | 03:25:14 | 02:15:04 | 00:00:00 | |
| DF7PN | 2026-08-31 12:23:49 | 53.24264 | 10.83632 | 95° | 33km/h | 29964m | 5.4m/s | -45.3°C | 0.5% | 12.6hPa | 2.7V | 00:00:00 | 00:00:00 | 00:00:00 | |
| DL1NUX | 2026-08-31 12:23:48 | 53.24262 | 10.83605 | 75° | 31km/h | 29952m | 7.2m/s | -45.2°C | 2.8% | 12.6hPa | 2.7V | 03:24:28 | 02:15:04 | 00:00:00 | |
| AA1-15 | 2026-08-31 12:23:47 | 53.24260 | 10.83593 | 62° | 29km/h | 29945m | 6.9m/s | -45.2°C | 0% | 12.7hPa | 2.7V | 03:25:14 | 02:15:03 | 00:00:00 | |
| DM0DOS-11 | 2026-08-31 12:23:47 | 53.24245 | 10.83545 | 77° | 22km/h | 29914m | 5.4m/s | -45.4°C | 2.8% | 12.7hPa | 2.7V | 03:24:34 | 02:14:58 | 00:00:00 | |
| HSKMA3-T | 2026-08-31 12:23:45 | 53.24256 | 10.83583 | 55° | 27km/h | 29939m | 5.4m/s | -45.3°C | 0% | 12.7hPa | 2.6V | 03:25:14 | 02:15:02 | 00:00:00 | |
| DL3AQ-11 | 2026-08-31 12:23:45 | 53.24252 | 10.83573 | 56° | 26km/h | 29933m | 5.4m/s | -45.4°C | 0.5% | 12.7hPa | 2.6V | 00:00:00 | 00:00:00 | 00:00:00 | |
| DF8AY | 2026-08-31 12:23:44 | 53.24241 | 10.83518 | 76° | 24km/h | 29896m | 5.9m/s | -45.5°C | 0% | 12.8hPa | 2.6V | 03:25:14 | 02:14:55 | 00:00:00 | |
| S3001 | 2026-08-31 12:23:43 | 53.24249 | 10.83564 | 62° | 24km/h | 29927m | 6.9m/s | -45.4°C | 0.5% | 12.7hPa | 2.7V | 00:00:00 | 00:00:00 | 00:00:00 | |
| DB0DAN | 2026-08-31 12:23:40 | 53.24244 | 10.83536 | 78° | 22km/h | 29909m | 6.1m/s | -45.4°C | 0.5% | 12.73hPa | 2.7V | 00:00:00 | 00:00:00 | 00:00:00 | |
| DL1XH1-15 | 2026-08-31 12:23:40 | 53.24241 | 10.83518 | 75° | 24km/h | 29895m | 5.9m/s | -45.5°C | 2.8% | 12.8hPa | 2.6V | 03:24:37 | 02:14:55 | 00:00:00 | |
| DD8BA-10 | 2026-08-31 12:23:40 | 53.24243 | 10.83536 | 79° | 29km/h | 29909m | 6.0m/s | -45.4°C | 2.8% | 12.7hPa | 2.7V | 00:00:00 | 00:00:00 | 00:00:00 | |
| DO2SHX-10 | 2026-08-31 12:23:39 | 53.24242 | 10.83527 | 75° | 24km/h | 29902m | 7.1m/s | -45.4°C | 2.8% | 12.7hPa | 2.6V | 03:24:00 | 02:14:56 | 00:00:00 | |
| DL1XH-15 | 2026-08-31 12:23:38 | 53.24237 | 10.83449 | 83° | 38km/h | 29866m | 4m/s | -45.3°C | 2.8% | 12.8hPa | 2.6V | 03:24:42 | 02:14:50 | 00:00:00 | |
| DL1NUX | 2026-08-31 12:23:38 | 53.24239 | 10.83508 | 80° | 27km/h | 29890m | 5.5m/s | -45.5°C | 2.8% | 12.8hPa | 2.7V | 03:24:38 | 02:14:54 | 00:00:00 | |
| AA1-15 | 2026-08-31 12:23:37 | 53.24239 | 10.83508 | 81° | 27km/h | 29890m | 5.5m/s | -45.5°C | 0% | 12.8hPa | 2.7V | 03:25:14 | 02:14:54 | 00:00:00 | |
| BIOWL1-15 | 2026-08-31 12:23:36 | 53.24239 | 10.83495 | 86° | 31km/h | 29884m | 7m/s | -45.5°C | 0% | 12.8hPa | 2.7V | 03:25:14 | 02:14:53 | 00:00:00 | |
| HSKMA3-T | 2026-08-31 12:23:35 | 53.24238 | 10.83465 | 88° | 38km/h | 29870m | 5.2m/s | -45.4°C | 0% | 12.8hPa | 2.6V | 03:25:14 | 02:14:51 | 00:00:00 | |
| SONCRA | 2026-08-31 12:23:33 | 53.24235 | 10.83434 | 73° | 35km/h | 29861m | 6.2m/s | -45.3°C | 0.5% | 12.8hPa | 2.6V | 00:00:00 | 00:00:00 | 00:00:00 | |
| EDDB2-11 | 2026-08-31 12:23:31 | 53.24227 | 10.83411 | 45° | 27km/h | 29847m | 6.9m/s | -45.2°C | 0.5% | 12.8hPa | 2.6V | 00:00:00 | 00:00:00 | 00:00:00 | |
| DD8BA-10 | 2026-08-31 12:23:30 | 53.24227 | 10.83411 | 46° | 29km/h | 29847m | 6.8m/s | -45.1°C | 2.7% | 12.8hPa | 2.6V | 00:00:00 | 00:00:00 | 00:00:00 | |
| DL1XH-15 | 2026-08-31 12:23:28 | 53.24197 | 10.83353 | 56° | 33km/h | 29802m | 6.4m/s | -45.2°C | 2.7% | 12.9hPa | 2.6V | 03:24:52 | 02:14:40 | 00:00:00 | |
| AA1-15 | 2026-08-31 12:23:27 | 53.24213 | 10.83390 | 47° | 24km/h | 29827m | 6.6m/s | -45.2°C | 0% | 12.9hPa | 2.6V | 03:25:14 | 02:14:44 | 00:00:00 | |
| DO2SHX-10 | 2026-08-31 12:23:27 | 53.24212 | 10.83390 | 47° | 26km/h | 29828m | 6.5m/s | -45.2°C | 2.7% | 12.8hPa | 2.7V | 03:24:00 | 02:14:44 | 00:00:00 | |
| DM0DOS-11 | 2026-08-31 12:23:26 | 53.24188 | 10.83326 | 65° | 38km/h | 29791m | 5.9m/s | -45.3°C | 2.7% | 13hPa | 2.7V | 03:24:54 | 02:14:38 | 00:00:00 | |
| DB0DAN | 2026-08-31 12:23:25 | 53.24205 | 10.83373 | 57° | 26km/h | 29816m | 5.7m/s | -45.2°C | 0.5% | 12.92hPa | 2.7V | 00:00:00 | 00:00:00 | 00:00:00 | |
| HSKMA3-T | 2026-08-31 12:23:23 | 53.24197 | 10.83353 | 56° | 33km/h | 29803m | 6.4m/s | -45.2°C | 0% | 12.9hPa | 2.6V | 03:25:14 | 02:14:40 | 00:00:00 | |
| BIOWL9-15 | 2026-08-31 12:23:22 | 53.24188 | 10.83326 | 65° | 38km/h | 29791m | 5.9m/s | -45.3°C | 0.5% | 13.0hPa | 2.7V | 00:00:00 | 00:00:00 | 00:00:00 | |
| DO3MHA-11 | 2026-08-31 12:23:21 | 53.24188 | 10.83326 | 66° | 29km/h | 29791m | 5.8m/s | -45.3°C | 2.7% | 12.9hPa | 2.7V | 00:00:00 | 02:14:38 | 00:00:00 | |
| SO1NDE-10 | 2026-08-31 12:23:20 | 53.24184 | 10.83311 | 72° | 31km/h | 29785m | 7.3m/s | -45.3°C | 2.7% | 12.9hPa | 2.6V | 03:24:00 | 02:14:37 | 00:00:00 | |
| DL1XH-15 | 2026-08-31 12:23:18 | 53.24153 | 10.83244 | 9° | 29km/h | 29741m | 5.5m/s | -45.5°C | 2.7% | 13.1hPa | 2.6V | 03:25:02 | 02:14:30 | 00:00:00 | |
| DL1XH-west | 2026-08-31 12:23:17 | 53.24153 | 10.83244 | 10° | 29km/h | 29741m | 5.5m/s | -45.5°C | 0% | 13.1hPa | 2.6V | 03:25:14 | 02:14:30 | 00:00:00 | |
| DF8AY | 2026-08-31 12:23:17 | 53.24160 | 10.83247 | 13° | 29km/h | 29747m | 6.2m/s | -45.5°C | 0% | 13hPa | 2.7V | 03:25:14 | 02:14:31 | 00:00:00 | |
| AA1-15 | 2026-08-31 12:23:17 | 53.24167 | 10.83251 | 27° | 27km/h | 29754m | 7.7m/s | -45.5°C | 0% | 13hPa | 2.7V | 03:25:14 | 02:14:32 | 00:00:00 | |
| GOEST3-10 | 2026-08-31 12:23:17 | 53.24172 | 10.83258 | 48° | 29km/h | 29762m | 7.0m/s | -45.4°C | 2.7% | 13.0hPa | 2.7V | 03:24:00 | 00:00:00 | 00:00:00 | |
| DM0DOS-11 | 2026-08-31 12:23:16 | 53.24140 | 10.83237 | 31° | 26km/h | 29730m | 6.2m/s | -45.3°C | 2.7% | 13.1hPa | 2.7V | 03:25:04 | 02:14:28 | 00:00:00 | |
| BIOWL1-15 | 2026-08-31 12:23:14 | 53.24140 | 10.83237 | 31° | 26km/h | 29730m | 6.2m/s | -45.3°C | 0% | 13.1hPa | 2.7V | 03:25:14 | 02:14:28 | 00:00:00 | |
| HSKMA3-T | 2026-08-31 12:23:13 | 53.24146 | 10.83242 | 16° | 27km/h | 29736m | 5.4m/s | -45.4°C | 0% | 13.1hPa | 2.6V | 03:25:14 | 02:14:29 | 00:00:00 | |
| DL4BBY-15 | 2026-08-31 12:23:12 | 53.24146 | 10.83242 | 16° | 29km/h | 29736m | 5.4m/s | -44.3°C | 0% | 0hPa | 2.7V | 00:00:00 | 00:00:00 | 00:00:00 | |
| DB0DAN | 2026-08-31 12:23:10 | 53.24135 | 10.83230 | 51° | 26km/h | 29723m | 6.6m/s | -45.3°C | 0.5% | 13.08hPa | 2.7V | 00:00:00 | 00:00:00 | 00:00:00 | |
| DD8BA-10 | 2026-08-31 12:23:10 | 53.24135 | 10.83230 | 51° | 35km/h | 29724m | 6.5m/s | -45.2°C | 2.7% | 13.0hPa | 2.7V | 03:25:00 | 00:00:00 | 00:00:00 | |
| DO3MHA-11 | 2026-08-31 12:23:09 | 53.24131 | 10.83219 | 65° | 35km/h | 29717m | 6.8m/s | -45.3°C | 2.7% | 13.0hPa | 2.7V | 00:00:00 | 02:14:26 | 00:00:00 | |
| DL1XH-15 | 2026-08-31 12:23:08 | 53.24100 | 10.83144 | 37° | 35km/h | 29681m | 6m/s | -45.5°C | 2.7% | 13.2hPa | 2.7V | 03:25:12 | 02:14:20 | 00:00:00 | |
| DB0UT-7 | 2026-08-31 12:23:07 | 53.24123 | 10.83192 | 66° | 27km/h | 29704m | 6.3m/s | -45.4°C | 2.7% | 13.1hPa | 2.6V | 00:00:00 | 00:00:00 | 00:00:00 | |
| DO2SHX-10 | 2026-08-31 12:23:06 | 53.24119 | 10.83178 | 59° | 37km/h | 29698m | 6.1m/s | -45.3°C | 2.7% | 13.1hPa | 2.6V | 00:00:00 | 02:14:23 | 00:00:00 | |
| DM0DOS-11 | 2026-08-31 12:23:05 | 53.24086 | 10.83130 | 27° | 31km/h | 29668m | 6.2m/s | -45.2°C | 2.7% | 13.2hPa | 2.6V | 03:25:14 | 02:14:18 | 00:00:00 | |
| AA1-15 | 2026-08-31 12:23:04 | 53.24100 | 10.83144 | 38° | 35km/h | 29681m | 6m/s | -45.5°C | 0% | 13.2hPa | 2.7V | 03:25:14 | 02:14:20 | 00:00:00 | |
| DL1XH-west | 2026-08-31 12:23:04 | 53.24093 | 10.83136 | 34° | 33km/h | 29674m | 6.8m/s | -45.4°C | 0% | 13.2hPa | 2.6V | 03:25:14 | 02:14:19 | 00:00:00 | |
| BIOWL1-15 | 2026-08-31 12:23:03 | 53.24072 | 10.83121 | 10° | 33km/h | 29656m | 6.4m/s | -45.2°C | 0% | 13.2hPa | 2.7V | 03:26:05 | 02:14:16 | 00:00:00 | |
| DO2SHX-10 | 2026-08-31 12:23:03 | 53.24100 | 10.83144 | 38° | 33km/h | 29681m | 5.9m/s | -45.4°C | 2.7% | 13.1hPa | 2.7V | 03:25:00 | 02:14:20 | 00:00:00 | |
| DL1XH1-15 | 2026-08-31 12:23:02 | 53.24063 | 10.83119 | 5° | 35km/h | 29649m | 7m/s | -45.3°C | 2.7% | 13.3hPa | 2.6V | 03:25:17 | 02:14:15 | 00:00:00 | |
| DF8AY | 2026-08-31 12:23:01 | 53.24086 | 10.83129 | 28° | 31km/h | 29668m | 6.2m/s | -45.2°C | 0% | 13.2hPa | 2.6V | 03:25:14 | 02:14:18 | 00:00:00 | |
| EDDB2-11 | 2026-08-31 12:23:00 | 53.24027 | 10.83074 | 61° | 18km/h | 29602m | 5.9m/s | -45.0°C | 0.5% | 13.3hPa | 2.6V | 00:00:00 | 00:00:00 | 00:00:00 | |
| DL1XH-15 | 2026-08-31 12:22:58 | 53.24031 | 10.83099 | 69° | 22km/h | 29618m | 6.8m/s | -44.9°C | 2.6% | 13.3hPa | 2.6V | 03:25:22 | 02:14:10 | 00:00:00 | |
| DO2SHX-10 | 2026-08-31 12:22:57 | 53.24054 | 10.83118 | 7° | 31km/h | 29643m | 4.7m/s | -45.1°C | 2.6% | 13.2hPa | 2.7V | 00:00:00 | 02:14:14 | 00:00:00 | |
| SMARD9-10 | 2026-08-31 12:22:56 | 53.24054 | 10.83118 | 7° | 35km/h | 29643m | 4.8m/s | -45.2°C | 0.5% | 13.2hPa | 2.7V | 00:00:00 | 00:00:00 | 00:00:00 | |
| DB0DAN | 2026-08-31 12:22:55 | 53.24039 | 10.83112 | 25° | 26km/h | 29633m | 5.9m/s | -45.1°C | 0.5% | 13.27hPa | 2.7V | 00:00:00 | 00:00:00 | 00:00:00 | |
| DM0DOS-11 | 2026-08-31 12:22:55 | 53.24029 | 10.83082 | 78° | 20km/h | 29607m | 4.6m/s | -44.9°C | 2.6% | 13.3hPa | 2.6V | 03:25:24 | 02:14:08 | 00:00:00 | |
| BIOWL1-15 | 2026-08-31 12:22:53 | 53.24031 | 10.83099 | 70° | 22km/h | 29618m | 6.9m/s | -44.9°C | 0% | 13.3hPa | 2.6V | 03:26:05 | 02:14:10 | 00:00:00 | |
| AA1-15 | 2026-08-31 12:22:53 | 53.24030 | 10.83090 | 82° | 22km/h | 29612m | 5.3m/s | -44.9°C | 0% | 13.3hPa | 2.6V | 03:26:05 | 02:14:09 | 00:00:00 | |
| DL1XH-west | 2026-08-31 12:22:53 | 53.24029 | 10.83082 | 79° | 20km/h | 29607m | 4.6m/s | -44.9°C | 0% | 13.3hPa | 2.6V | 03:26:05 | 02:14:08 | 00:00:00 | |
| DF8AY | 2026-08-31 12:22:51 | 53.24027 | 10.83074 | 62° | 18km/h | 29602m | 5.9m/s | -45°C | 0% | 13.3hPa | 2.7V | 03:26:05 | 02:14:07 | 00:00:00 | |
| BIOWL9-15 | 2026-08-31 12:22:51 | 53.24027 | 10.83074 | 61° | 18km/h | 29602m | 5.9m/s | -45.0°C | 0.5% | 13.3hPa | 2.6V | 00:00:00 | 00:00:00 | 00:00:00 | |
| DJ2DS-15 | 2026-08-31 12:22:49 | 53.24024 | 10.83068 | 38° | 18km/h | 29595m | 6.8m/s | -44.9°C | 0.5% | 13.3hPa | 2.6V | 00:00:00 | 00:00:00 | 00:00:00 | |
| DO2SHX-10 | 2026-08-31 12:22:48 | 53.24019 | 10.83064 | 16° | 27km/h | 29589m | 6.4m/s | -44.8°C | 2.6% | 13.3hPa | 2.6V | 00:00:00 | 02:14:05 | 00:00:00 | |
| DO3MHA-11 | 2026-08-31 12:22:47 | 53.24013 | 10.83062 | 5° | 20km/h | 29583m | 5.9m/s | -44.8°C | 2.5% | 13.3hPa | 2.6V | 00:00:00 | 02:14:04 | 00:00:00 | |
| GOEST3-10 | 2026-08-31 12:22:46 | 53.24006 | 10.83062 | 2° | 27km/h | 29577m | 6.1m/s | -45.0°C | 2.6% | 13.3hPa | 2.6V | 00:00:00 | 00:00:00 | 00:00:00 | |
| DM0DOS-11 | 2026-08-31 12:22:45 | 53.23975 | 10.83048 | 35° | 26km/h | 29546m | 6.7m/s | -44.8°C | 2.6% | 13.4hPa | 2.6V | 03:25:34 | 02:13:58 | 00:00:00 | |
| DL1XH1-15 | 2026-08-31 12:22:45 | 53.23961 | 10.83030 | 47° | 16km/h | 29527m | 4.8m/s | -44.8°C | 2.6% | 13.5hPa | 2.7V | 03:25:37 | 02:13:55 | 00:00:00 | |
| BIOWL1-15 | 2026-08-31 12:22:43 | 53.23959 | 10.83022 | 99° | 7km/h | 29515m | 8m/s | -44.8°C | 0% | 13.5hPa | 2.6V | 03:26:05 | 02:13:53 | 00:00:00 | |
| AA1-15 | 2026-08-31 12:22:42 | 53.23965 | 10.83035 | 41° | 24km/h | 29533m | 5.9m/s | -44.8°C | 0% | 13.5hPa | 2.7V | 03:26:05 | 02:13:56 | 00:00:00 | |
| DL1XH-west | 2026-08-31 12:22:42 | 53.23975 | 10.83048 | 35° | 26km/h | 29546m | 6.7m/s | -44.8°C | 0% | 13.5hPa | 2.6V | 03:26:05 | 02:13:58 | 00:00:00 | |
| DF7ER-10 | 2026-08-31 12:22:41 | 53.23980 | 10.83054 | 32° | 24km/h | 29552m | 5.7m/s | -44.9°C | 0.5% | 13.4hPa | 2.6V | 03:26:00 | 00:00:00 | 00:00:00 | |
| DB0DAN | 2026-08-31 12:22:40 | 53.23970 | 10.83042 | 39° | 24km/h | 29539m | 6.8m/s | -44.7°C | 0.5% | 13.46hPa | 2.6V | 00:00:00 | 00:00:00 | 00:00:00 | |
| HSKMA3-T | 2026-08-31 12:22:40 | 53.23961 | 10.83030 | 47° | 16km/h | 29527m | 4.8m/s | -44.8°C | 0% | 13.5hPa | 2.7V | 03:26:05 | 02:13:55 | 00:00:00 | |
| DF8AY | 2026-08-31 12:22:39 | 53.23963 | 10.83022 | 312° | 4km/h | 29490m | 6.5m/s | -44.7°C | 0% | 13.6hPa | 2.6V | 03:26:05 | 02:13:49 | 00:00:00 | |
| DL1XH-15 | 2026-08-31 12:22:39 | 53.23963 | 10.83020 | 228° | 4km/h | 29495m | 4.8m/s | -44.7°C | 2.5% | 13.5hPa | 2.7V | 03:25:42 | 02:13:50 | 00:00:00 | |
| DL1NUX | 2026-08-31 12:22:39 | 53.23959 | 10.83025 | 61° | 11km/h | 29521m | 5.8m/s | -44.7°C | 2.5% | 13.5hPa | 2.7V | 03:25:38 | 02:13:54 | 00:00:00 | |
| DB0UT-7 | 2026-08-31 12:22:37 | 53.23959 | 10.83025 | 62° | 13km/h | 29522m | 5.7m/s | -44.7°C | 2.5% | 13.4hPa | 2.7V | 00:00:00 | 02:13:54 | 00:00:00 | |
| DO2SHX-10 | 2026-08-31 12:22:36 | 53.23959 | 10.83021 | 99° | 7km/h | 29515m | 8.0m/s | -44.7°C | 2.6% | 13.4hPa | 2.6V | 00:00:00 | 02:13:53 | 00:00:00 | |
| DL1ZP-14 | 2026-08-31 12:22:35 | 53.23961 | 10.83019 | 189° | 7km/h | 29501m | 5.2m/s | -44.7°C | 0.5% | 13.5hPa | 2.7V | 00:00:00 | 00:00:00 | 00:00:00 | |
| DM0DOS-11 | 2026-08-31 12:22:33 | 53.23961 | 10.83023 | 351° | 13km/h | 29483m | 6.9m/s | -44.8°C | 2.5% | 13.5hPa | 2.6V | 03:25:44 | 02:13:48 | 00:00:00 | |
| DL1XH1-15 | 2026-08-31 12:22:33 | 53.23946 | 10.83019 | 22° | 24km/h | 29465m | 5.4m/s | -44.9°C | 2.5% | 13.6hPa | 2.7V | 03:25:47 | 02:13:45 | 00:00:00 | |
| BIOWL1-15 | 2026-08-31 12:22:31 | 53.23946 | 10.83019 | 23° | 24km/h | 29465m | 5.4m/s | -44.9°C | 0% | 13.6hPa | 2.7V | 03:26:05 | 02:13:45 | 00:00:00 | |
| DL1XH-west | 2026-08-31 12:22:31 | 53.23957 | 10.83023 | 4° | 20km/h | 29476m | 6.2m/s | -44.7°C | 0% | 13.6hPa | 2.7V | 03:26:05 | 02:13:47 | 00:00:00 | |
| AA1-15 | 2026-08-31 12:22:31 | 53.23961 | 10.83023 | 352° | 13km/h | 29483m | 6.9m/s | -44.8°C | 0% | 13.6hPa | 2.6V | 03:26:05 | 02:13:48 | 00:00:00 | |
| DD8BA-10 | 2026-08-31 12:22:30 | 53.23957 | 10.83023 | 4° | 15km/h | 29477m | 6.2m/s | -44.7°C | 2.5% | 13.5hPa | 2.7V | 03:25:00 | 00:00:00 | 00:00:00 | |
| EDDB2-11 | 2026-08-31 12:22:29 | 53.23946 | 10.83019 | 22° | 22km/h | 29465m | 5.4m/s | -44.9°C | 0.5% | 13.6hPa | 2.7V | 00:00:00 | 00:00:00 | 00:00:00 | |
| DL1XH-15 | 2026-08-31 12:22:28 | 53.23943 | 10.82999 | 167° | 13km/h | 29435m | 5.7m/s | -45.2°C | 2.6% | 13.7hPa | 2.7V | 03:25:52 | 02:13:40 | 00:00:00 | |
| HSKMA3-T | 2026-08-31 12:22:28 | 53.23941 | 10.83014 | 37° | 18km/h | 29460m | 6.2m/s | -45°C | 0% | 13.6hPa | 2.6V | 03:26:05 | 02:13:44 | 00:00:00 | |
| DG6HD-15 | 2026-08-31 12:22:28 | 53.23951 | 10.83022 | 14° | 24km/h | 29471m | 5.4m/s | -44.7°C | 0.5% | 13.6hPa | 2.6V | 03:26:00 | 00:00:00 | 00:00:00 | |
| DO2SHX-10 | 2026-08-31 12:22:27 | 53.23941 | 10.83014 | 37° | 15km/h | 29460m | 6.1m/s | -44.9°C | 2.5% | 13.6hPa | 2.6V | 03:25:00 | 02:13:44 | 00:00:00 | |
| DB0DAN | 2026-08-31 12:22:25 | 53.23939 | 10.83005 | 112° | 11km/h | 29447m | 5.9m/s | -45.1°C | 0.5% | 13.64hPa | 2.6V | 00:00:00 | 00:00:00 | 00:00:00 | |
| DL3AQ-11 | 2026-08-31 12:22:25 | 53.23940 | 10.83001 | 147° | 11km/h | 29441m | 5.5m/s | -45.2°C | 0.5% | 13.7hPa | 2.7V | 00:00:00 | 00:00:00 | 00:00:00 | |
| DF8AY-15 | 2026-08-31 12:22:24 | 53.23940 | 10.83001 | 148° | 11km/h | 29442m | 5.4m/s | -45.1°C | 2.6% | 13.6hPa | 2.7V | 00:00:00 | 02:13:41 | 00:00:00 | |
| DL1XH1-15 | 2026-08-31 12:22:23 | 53.23946 | 10.83001 | 11° | 9km/h | 29405m | 6.3m/s | -45.5°C | 2.7% | 13.7hPa | 2.7V | 03:25:57 | 02:13:35 | 00:00:00 | |
| AA1-15 | 2026-08-31 12:22:21 | 53.23946 | 10.83001 | 11° | 9km/h | 29405m | 6.3m/s | -45.5°C | 0% | 13.7hPa | 2.7V | 03:26:05 | 02:13:35 | 00:00:00 | |
| BIOWL1-15 | 2026-08-31 12:22:20 | 53.23926 | 10.82970 | 26° | 18km/h | 29360m | 6.8m/s | -45.7°C | 0% | 13.8hPa | 2.7V | 03:26:05 | 02:13:28 | 00:00:00 | |
| DL1XH-west | 2026-08-31 12:22:20 | 53.23948 | 10.83001 | 348° | 7km/h | 29411m | 5.5m/s | -45.4°C | 0% | 13.7hPa | 2.7V | 03:26:05 | 02:13:36 | 00:00:00 | |
| DD8BA-10 | 2026-08-31 12:22:20 | 53.23949 | 10.83000 | 293° | 13km/h | 29417m | 5.9m/s | -45.3°C | 2.6% | 13.6hPa | 2.7V | 00:00:00 | 00:00:00 | 00:00:00 | |
| AM1SDL-15 | 2026-08-31 12:22:19 | 53.23948 | 10.83001 | 349° | 13km/h | 29411m | 5.4m/s | -45.3°C | 2.6% | 13.7hPa | 2.7V | 00:00:00 | 02:13:36 | 00:00:00 | |
| DL1NUX | 2026-08-31 12:22:18 | 53.23943 | 10.83000 | 28° | 11km/h | 29399m | 7.2m/s | -45.6°C | 2.7% | 13.8hPa | 2.7V | 03:25:58 | 02:13:34 | 00:00:00 | |
| HSKMA3-T | 2026-08-31 12:22:18 | 53.23941 | 10.82997 | 42° | 15km/h | 29392m | 6.8m/s | -45.5°C | 0% | 13.7hPa | 2.6V | 03:26:05 | 02:13:33 | 00:00:00 | |
| BIOWL1-15 | 2026-08-31 12:22:14 | 53.23922 | 10.82968 | 9° | 16km/h | 29354m | 5.4m/s | -45.7°C | 0% | 13.8hPa | 2.6V | 03:26:05 | 02:13:27 | 00:00:00 | |
| DL3AQ-11 | 2026-08-31 12:22:14 | 53.23933 | 10.82980 | 52° | 16km/h | 29374m | 5.8m/s | -45.6°C | 0.5% | 13.8hPa | 2.6V | 00:00:00 | 00:00:00 | 00:00:00 | |
| DO2SHX-10 | 2026-08-31 12:22:13 | 53.23930 | 10.82975 | 42° | 16km/h | 29367m | 6.8m/s | -45.6°C | 2.7% | 13.8hPa | 2.6V | 00:00:00 | 02:13:29 | 00:00:00 | |
| DL8OAI-8 | 2026-08-31 12:22:11 | 53.23930 | 10.82975 | 43° | 18km/h | 29367m | 6.9m/s | -45.6°C | 0.5% | 13.8hPa | 2.6V | 00:00:00 | 00:00:00 | 00:00:00 | |
| DB0DAN | 2026-08-31 12:22:10 | 53.23922 | 10.82968 | 9° | 15km/h | 29354m | 5.4m/s | -45.7°C | 0.5% | 13.81hPa | 2.6V | 00:00:00 | 00:00:00 | 00:00:00 | |
| DL1XH1-15 | 2026-08-31 12:22:10 | 53.23917 | 10.82968 | 0° | 5km/h | 29344m | 4.9m/s | -45.6°C | 2.7% | 13.8hPa | 2.6V | 03:26:07 | 02:13:25 | 00:00:00 | |
| AA1-15 | 2026-08-31 12:22:09 | 53.23919 | 10.82968 | 1° | 11km/h | 29349m | 4.1m/s | -45.6°C | 0% | 13.8hPa | 2.6V | 03:26:56 | 02:13:26 | 00:00:00 | |
| DL1XH-west | 2026-08-31 12:22:09 | 53.23917 | 10.82968 | 0° | 5km/h | 29345m | 4.9m/s | -45.6°C | 0% | 13.8hPa | 2.6V | 03:26:56 | 02:13:25 | 00:00:00 | |
| DO2SHX-10 | 2026-08-31 12:22:09 | 53.23919 | 10.82968 | 1° | 7km/h | 29349m | 4.1m/s | -45.5°C | 2.7% | 13.8hPa | 2.6V | 00:00:00 | 02:13:26 | 00:00:00 | |
| DL1NUX | 2026-08-31 12:22:08 | 53.23916 | 10.82967 | 92° | 2km/h | 29338m | 7.1m/s | -45.7°C | 2.7% | 13.9hPa | 2.7V | 03:26:08 | 02:13:24 | 00:00:00 | |
| DL1XH-15 | 2026-08-31 12:22:08 | 53.23922 | 10.82954 | 109° | 11km/h | 29312m | 6.5m/s | -45.5°C | 2.7% | 13.9hPa | 2.6V | 03:26:12 | 02:13:20 | 00:00:00 | |
| HSKMA3-T | 2026-08-31 12:22:06 | 53.23919 | 10.82963 | 136° | 13km/h | 29324m | 6.2m/s | -45.6°C | 0% | 13.9hPa | 2.7V | 03:26:56 | 02:13:22 | 00:00:00 | |
| DF8AY | 2026-08-31 12:22:05 | 53.23916 | 10.82935 | 58° | 9km/h | 29280m | 6.9m/s | -45.6°C | 0% | 14hPa | 2.7V | 03:27:47 | 02:13:15 | 00:00:00 | |
| AM1SDL-15 | 2026-08-31 12:22:05 | 53.23919 | 10.82962 | 136° | 11km/h | 29325m | 6.2m/s | -45.6°C | 2.7% | 13.8hPa | 2.6V | 03:26:00 | 02:13:22 | 00:00:00 | |
| DL1ZP-14 | 2026-08-31 12:22:04 | 53.23922 | 10.82954 | 109° | 11km/h | 29312m | 6.5m/s | -45.5°C | 0.5% | 13.9hPa | 2.6V | 00:00:00 | 00:00:00 | 00:00:00 | |
| DK1YY | 2026-08-31 12:22:03 | 53.23916 | 10.82935 | 57° | 7km/h | 29281m | 6.9m/s | 0°C | -1.0% | -1.0hPa | 2.6V | 00:00:00 | 00:00:00 | 00:00:00 | |
| DL1NUX | 2026-08-31 12:22:02 | 53.23915 | 10.82932 | 77° | 7km/h | 29274m | 5.7m/s | -45.6°C | 2.7% | 14hPa | 2.6V | 03:26:18 | 02:13:14 | 00:00:00 | |
| GOEST3-10 | 2026-08-31 12:22:01 | 53.23921 | 10.82945 | 55° | 11km/h | 29299m | 5.4m/s | -45.6°C | 2.7% | 13.9hPa | 2.7V | 00:00:00 | 02:13:18 | 00:00:00 | |
| DL1XH1-15 | 2026-08-31 12:22:00 | 53.23916 | 10.82935 | 57° | 9km/h | 29280m | 6.9m/s | -45.6°C | 2.7% | 14hPa | 2.7V | 03:26:17 | 02:13:15 | 00:00:00 | |
| BIOWL1-15 | 2026-08-31 12:22:00 | 53.23920 | 10.82942 | 42° | 11km/h | 29293m | 5.4m/s | -45.6°C | 0% | 14hPa | 2.7V | 03:26:56 | 02:13:17 | 00:00:00 | |
| AA1-15 | 2026-08-31 12:21:59 | 53.23918 | 10.82939 | 45° | 11km/h | 29287m | 7.1m/s | -45.6°C | 0% | 14hPa | 2.7V | 03:26:56 | 02:13:16 | 00:00:00 | |
| DL1XH-west | 2026-08-31 12:21:58 | 53.23915 | 10.82932 | 78° | 7km/h | 29274m | 5.7m/s | -45.6°C | 0% | 14hPa | 2.6V | 03:26:56 | 02:13:14 | 00:00:00 | |
| DL1XH-15 | 2026-08-31 12:21:58 | 53.23914 | 10.82921 | 55° | 5km/h | 29249m | 7m/s | -45.6°C | 2.7% | 14.1hPa | 2.7V | 03:26:22 | 02:13:10 | 00:00:00 | |
| HSKMA3-T | 2026-08-31 12:21:55 | 53.23915 | 10.82926 | 90° | 7km/h | 29262m | 6m/s | -45.7°C | 0% | 14hPa | 2.6V | 03:26:56 | 02:13:12 | 00:00:00 | |
| DB0DAN | 2026-08-31 12:21:55 | 53.23915 | 10.82926 | 90° | 7km/h | 29262m | 6m/s | -45.7°C | 0.5% | 14.02hPa | 2.6V | 00:00:00 | 00:00:00 | 00:00:00 | |
| BIOWL1-15 | 2026-08-31 12:21:49 | 53.23913 | 10.82913 | 128° | 9km/h | 29225m | 7.3m/s | -45.8°C | 0% | 14.1hPa | 2.6V | 03:26:56 | 02:13:06 | 00:00:00 | |
| BIOWL9-15 | 2026-08-31 12:21:49 | 53.23915 | 10.82909 | 135° | 13km/h | 29219m | 6.3m/s | -45.9°C | 0.5% | 14.1hPa | 2.7V | 00:00:00 | 00:00:00 | 00:00:00 | |
| DL1NUX | 2026-08-31 12:21:48 | 53.23917 | 10.82906 | 132° | 11km/h | 29213m | 5.1m/s | -45.8°C | 2.7% | 14.1hPa | 2.7V | 03:26:28 | 02:13:04 | 00:00:00 | |
| DL1XH-west | 2026-08-31 12:21:47 | 53.23919 | 10.82902 | 118° | 7km/h | 29207m | 5.8m/s | -45.9°C | 0% | 14.1hPa | 2.7V | 03:26:56 | 02:13:03 | 00:00:00 | |
| HSKMA3-T | 2026-08-31 12:21:45 | 53.23919 | 10.82900 | 66° | 5km/h | 29200m | 7.7m/s | -45.9°C | 0% | 14.2hPa | 2.7V | 03:26:56 | 02:13:02 | 00:00:00 | |
| DL3AQ-11 | 2026-08-31 12:21:45 | 53.23917 | 10.82898 | 19° | 11km/h | 29193m | 7.2m/s | -45.9°C | 0.5% | 14.2hPa | 2.6V | 00:00:00 | 00:00:00 | 00:00:00 | |
| DO3MHA-11 | 2026-08-31 12:21:44 | 53.23917 | 10.82898 | 20° | 13km/h | 29194m | 7.1m/s | -45.9°C | 2.7% | 14.1hPa | 2.6V | 00:00:00 | 02:13:01 | 00:00:00 | |
| DL1XH1-15 | 2026-08-31 12:21:43 | 53.23902 | 10.82882 | 41° | 9km/h | 29156m | 7.2m/s | -46°C | 2.7% | 14.3hPa | 2.6V | 03:26:37 | 02:12:55 | 00:00:00 | |
| DL1NUX | 2026-08-31 12:21:42 | 53.23900 | 10.82879 | 35° | 9km/h | 29149m | 6.3m/s | -45.9°C | 2.7% | 14.3hPa | 2.6V | 03:26:38 | 02:12:54 | 00:00:00 | |
| DM0DOS-11 | 2026-08-31 12:21:42 | 53.23908 | 10.82892 | 35° | 13km/h | 29174m | 7.1m/s | -46°C | 2.7% | 14.2hPa | 2.7V | 03:26:34 | 02:12:58 | 00:00:00 | |
| DO2SHX-10 | 2026-08-31 12:21:42 | 53.23911 | 10.82894 | 25° | 13km/h | 29181m | 6.5m/s | -45.9°C | 2.7% | 14.2hPa | 2.6V | 00:00:00 | 02:12:59 | 00:00:00 | |
| DB0DAN | 2026-08-31 12:21:40 | 53.23905 | 10.82888 | 48° | 11km/h | 29168m | 5.4m/s | -45.9°C | 0.5% | 14.23hPa | 2.7V | 00:00:00 | 00:00:00 | 00:00:00 | |
| DF8AY | 2026-08-31 12:21:39 | 53.23901 | 10.82864 | 107° | 11km/h | 29118m | 5.4m/s | -46°C | 0% | 14.3hPa | 2.6V | 03:27:47 | 02:12:49 | 00:00:00 | |
| BIOWL1-15 | 2026-08-31 12:21:39 | 53.23902 | 10.82882 | 42° | 9km/h | 29156m | 7.2m/s | -46°C | 0% | 14.3hPa | 2.6V | 03:26:56 | 02:12:55 | 00:00:00 | |
| DL1XH-west | 2026-08-31 12:21:36 | 53.23898 | 10.82875 | 91° | 7km/h | 29138m | 5.5m/s | -46°C | 0% | 14.3hPa | 2.7V | 03:26:56 | 02:12:52 | 00:00:00 | |
| HSKMA3-T | 2026-08-31 12:21:34 | 53.23898 | 10.82872 | 110° | 7km/h | 29131m | 7.7m/s | -46°C | 0% | 14.3hPa | 2.7V | 03:26:56 | 02:12:51 | 00:00:00 | |
| DO2SHX-10 | 2026-08-31 12:21:33 | 53.23899 | 10.82868 | 121° | 11km/h | 29125m | 6.5m/s | -45.9°C | 2.8% | 14.3hPa | 2.6V | 00:00:00 | 02:12:50 | 00:00:00 | |
| DM0DOS-11 | 2026-08-31 12:21:32 | 53.23901 | 10.82860 | 83° | 9km/h | 29112m | 5.5m/s | -46.1°C | 2.8% | 14.3hPa | 2.6V | 03:26:44 | 02:12:48 | 00:00:00 | |
| GOEST3-10 | 2026-08-31 12:21:31 | 53.23901 | 10.82860 | 84° | 11km/h | 29113m | 5.5m/s | -46.1°C | 2.8% | 14.3hPa | 2.6V | 00:00:00 | 02:12:48 | 00:00:00 | |
| DD8BA-10 | 2026-08-31 12:21:30 | 53.23900 | 10.82856 | 57° | 11km/h | 29106m | 7.2m/s | -46.0°C | 2.7% | 14.3hPa | 2.6V | 00:00:00 | 00:00:00 | 00:00:00 | |
| DL1XH-15 | 2026-08-31 12:21:28 | 53.23894 | 10.82838 | 145° | 15km/h | 29065m | 5.5m/s | -46°C | 2.7% | 14.4hPa | 2.6V | 03:26:52 | 02:12:40 | 00:00:00 | |
| DL1NUX | 2026-08-31 12:21:28 | 53.23893 | 10.82848 | 28° | 11km/h | 29090m | 4.4m/s | -46.1°C | 2.7% | 14.4hPa | 2.6V | 03:26:48 | 02:12:44 | 00:00:00 | |
| BIOWL1-15 | 2026-08-31 12:21:27 | 53.23892 | 10.82848 | 28° | 11km/h | 29090m | 4.4m/s | -46.1°C | 0% | 14.4hPa | 2.6V | 03:26:56 | 02:12:44 | 00:00:00 | |
| DO2SHX-10 | 2026-08-31 12:21:27 | 53.23892 | 10.82847 | 29° | 7km/h | 29090m | 4.4m/s | -46.1°C | 2.7% | 14.4hPa | 2.7V | 03:26:00 | 02:12:44 | 00:00:00 | |
| DB0DAN | 2026-08-31 12:21:25 | 53.23890 | 10.82843 | 109° | 5km/h | 29078m | 7.1m/s | -46.1°C | 0.5% | 14.41hPa | 2.7V | 00:00:00 | 00:00:00 | 00:00:00 | |
| DL1XH-west | 2026-08-31 12:21:25 | 53.23891 | 10.82841 | 142° | 11km/h | 29071m | 6.4m/s | -46.1°C | 0% | 14.4hPa | 2.7V | 03:26:56 | 02:12:41 | 00:00:00 | |
| HSKMA3-T | 2026-08-31 12:21:24 | 53.23894 | 10.82838 | 146° | 15km/h | 29065m | 5.5m/s | -46°C | 0% | 14.4hPa | 2.6V | 03:26:56 | 02:12:40 | 00:00:00 | |
| DO2SHX-10 | 2026-08-31 12:21:24 | 53.23891 | 10.82841 | 142° | 13km/h | 29071m | 6.4m/s | -46.0°C | 2.8% | 14.4hPa | 2.7V | 00:00:00 | 02:12:41 | 00:00:00 | |
| DK7RCA | 2026-08-31 12:21:23 | 53.23891 | 10.82841 | 143° | 11km/h | 29071m | 6.4m/s | -46.1°C | 0.6% | 14.5hPa | 2.7V | 03:26:00 | 00:00:00 | 00:00:00 | |
| SMARD9-10 | 2026-08-31 12:21:22 | 53.23894 | 10.82838 | 146° | 15km/h | 29065m | 5.5m/s | -46.0°C | 0.5% | 14.4hPa | 2.7V | 00:00:00 | 00:00:00 | 00:00:00 | |
| GOEST3-10 | 2026-08-31 12:21:21 | 53.23899 | 10.82830 | 132° | 13km/h | 29054m | 5.5m/s | -46.0°C | 2.7% | 14.4hPa | 2.7V | 00:00:00 | 02:12:38 | 00:00:00 | |
| SO1NDE-10 | 2026-08-31 12:21:20 | 53.23901 | 10.82826 | 108° | 20km/h | 29048m | 6.9m/s | -46.0°C | 2.7% | 14.5hPa | 2.7V | 03:26:00 | 02:12:37 | 00:00:00 | |
| DL1XH-15 | 2026-08-31 12:21:18 | 53.23898 | 10.82797 | 122° | 18km/h | 29007m | 5.2m/s | -46°C | 2.7% | 14.6hPa | 2.7V | 03:27:02 | 02:12:30 | 00:00:00 | |
| DF8AY | 2026-08-31 12:21:18 | 53.23897 | 10.82815 | 46° | 11km/h | 29030m | 4.9m/s | -46.2°C | 0% | 14.5hPa | 2.6V | 03:27:47 | 02:12:34 | 00:00:00 | |
| BIOWL1-15 | 2026-08-31 12:21:16 | 53.23896 | 10.82812 | 62° | 9km/h | 29025m | 5.5m/s | -46.1°C | 0% | 14.5hPa | 2.6V | 03:27:47 | 02:12:33 | 00:00:00 | |
| DM0DOS-11 | 2026-08-31 12:21:15 | 53.23904 | 10.82782 | 116° | 22km/h | 28994m | 7.1m/s | -46°C | 2.6% | 14.6hPa | 2.6V | 03:27:04 | 02:12:28 | 00:00:00 | |
| DL1XH-west | 2026-08-31 12:21:14 | 53.23898 | 10.82797 | 122° | 18km/h | 29007m | 5.3m/s | -46°C | 0% | 14.6hPa | 2.7V | 03:27:47 | 02:12:30 | 00:00:00 | |
| HSKMA3-T | 2026-08-31 12:21:13 | 53.23901 | 10.82790 | 121° | 22km/h | 29001m | 6.5m/s | -45.9°C | 0% | 14.6hPa | 2.6V | 03:27:47 | 02:12:29 | 00:00:00 | |
| DL4BBY-15 | 2026-08-31 12:21:12 | 53.23901 | 10.82790 | 121° | 24km/h | 29000m | 6.4m/s | -44.8°C | 0% | 0hPa | 2.6V | 00:00:00 | 00:00:00 | 00:00:00 | |
| DO3MHA-11 | 2026-08-31 12:21:11 | 53.23903 | 10.82782 | 117° | 20km/h | 28994m | 7.0m/s | -45.9°C | 2.6% | 14.6hPa | 2.6V | 00:00:00 | 02:12:28 | 00:00:00 | |
| DL1XH1-15 | 2026-08-31 12:21:10 | 53.23914 | 10.82758 | 137° | 24km/h | 28976m | 7m/s | -45.9°C | 2.6% | 14.7hPa | 2.6V | 03:27:07 | 02:12:25 | 00:00:00 | |
| DB0DAN | 2026-08-31 12:21:10 | 53.23906 | 10.82773 | 119° | 22km/h | 28988m | 5.6m/s | -46°C | 0.5% | 14.63hPa | 2.7V | 00:00:00 | 00:00:00 | 00:00:00 | |
| DO2SHX-10 | 2026-08-31 12:21:10 | 53.23910 | 10.82765 | 127° | 24km/h | 28983m | 5.1m/s | -45.9°C | 2.7% | 14.6hPa | 2.6V | 00:00:00 | 02:12:26 | 00:00:00 | |
| DL1XH-15 | 2026-08-31 12:21:08 | 53.23930 | 10.82733 | 86° | 15km/h | 28945m | 6.6m/s | -46°C | 2.6% | 14.7hPa | 2.6V | 03:27:12 | 02:12:20 | 00:00:00 | |
| DF8AY | 2026-08-31 12:21:06 | 53.23923 | 10.82747 | 152° | 20km/h | 28963m | 5.1m/s | -46°C | 0% | 14.7hPa | 2.7V | 03:27:47 | 02:12:23 | 00:00:00 | |
| BIOWL1-15 | 2026-08-31 12:21:05 | 53.23927 | 10.82743 | 145° | 16km/h | 28958m | 5.3m/s | -46°C | 0% | 14.7hPa | 2.7V | 03:27:47 | 02:12:22 | 00:00:00 | |
| DL1XH-west | 2026-08-31 12:21:04 | 53.23928 | 10.82717 | 76° | 24km/h | 28933m | 5.3m/s | -46.1°C | 0% | 14.7hPa | 2.6V | 03:27:47 | 02:12:18 | 00:00:00 | |
| HSKMA3-T | 2026-08-31 12:21:03 | 53.23929 | 10.82726 | 74° | 20km/h | 28939m | 5.8m/s | -46.1°C | 0% | 14.7hPa | 2.6V | 03:27:47 | 02:12:19 | 00:00:00 | |
| DL1ZP-14 | 2026-08-31 12:21:02 | 53.23928 | 10.82717 | 76° | 22km/h | 28933m | 5.3m/s | -46.1°C | 0.5% | 14.7hPa | 2.6V | 00:00:00 | 00:00:00 | 00:00:00 | |
| DO3MHA-11 | 2026-08-31 12:21:01 | 53.23928 | 10.82717 | 77° | 24km/h | 28934m | 5.3m/s | -46.0°C | 2.7% | 14.7hPa | 2.7V | 03:27:00 | 02:12:18 | 00:00:00 | |
| DD8BA-10 | 2026-08-31 12:21:00 | 53.23927 | 10.82708 | 85° | 24km/h | 28927m | 6.9m/s | -46.1°C | 2.7% | 14.7hPa | 2.7V | 00:00:00 | 00:00:00 | 00:00:00 | |
| DL1XH1-15 | 2026-08-31 12:20:59 | 53.23928 | 10.82686 | 102° | 27km/h | 28915m | 5.4m/s | -46.2°C | 2.7% | 14.8hPa | 2.7V | 03:27:17 | 02:12:15 | 00:00:00 | |
| DL1XH-15 | 2026-08-31 12:20:58 | 53.23935 | 10.82635 | 102° | 20km/h | 28885m | 5.1m/s | -46.3°C | 2.7% | 14.9hPa | 2.7V | 03:27:22 | 02:12:10 | 00:00:00 | |
| DL1NUX | 2026-08-31 12:20:58 | 53.23930 | 10.82675 | 106° | 27km/h | 28909m | 5.3m/s | -46.2°C | 2.7% | 14.8hPa | 2.6V | 03:27:18 | 02:12:14 | 00:00:00 | |
| DF8AY | 2026-08-31 12:20:56 | 53.23931 | 10.82664 | 104° | 27km/h | 28903m | 6.7m/s | -46.3°C | 0% | 14.8hPa | 2.6V | 03:27:47 | 02:12:13 | 00:00:00 | |
| DB0DAN | 2026-08-31 12:20:55 | 53.23933 | 10.82654 | 100° | 24km/h | 28896m | 6.3m/s | -46.3°C | 0.5% | 14.85hPa | 2.7V | 00:00:00 | 00:00:00 | 00:00:00 | |
| BIOWL1-15 | 2026-08-31 12:20:54 | 53.23934 | 10.82644 | 98° | 22km/h | 28890m | 5.9m/s | -46.3°C | 0% | 14.8hPa | 2.7V | 03:27:47 | 02:12:11 | 00:00:00 | |
| HSKMA3-T | 2026-08-31 12:20:52 | 53.23938 | 10.82621 | 122° | 20km/h | 28873m | 7m/s | -46.5°C | 0% | 14.9hPa | 2.6V | 03:27:47 | 02:12:08 | 00:00:00 | |
| DL1XH-west | 2026-08-31 12:20:51 | 53.23941 | 10.82614 | 124° | 20km/h | 28866m | 6m/s | -46.6°C | 0% | 14.9hPa | 2.6V | 03:27:47 | 02:12:07 | 00:00:00 | |
| SMARD9-15 | 2026-08-31 12:20:49 | 53.23943 | 10.82607 | 115° | 18km/h | 28861m | 5.2m/s | -46.5°C | 0.5% | 14.9hPa | 2.7V | 00:00:00 | 00:00:00 | 00:00:00 | |
| DL1XH-15 | 2026-08-31 12:20:48 | 53.23938 | 10.82536 | 90° | 38km/h | 28826m | 6.2m/s | -47°C | 2.8% | 15hPa | 2.7V | 03:27:32 | 02:12:00 | 00:00:00 | |
| DL1NUX | 2026-08-31 12:20:48 | 53.23944 | 10.82590 | 81° | 24km/h | 28849m | 6.8m/s | -46.7°C | 2.8% | 14.9hPa | 2.7V | 03:27:28 | 02:12:04 | 00:00:00 | |
| DF8AY | 2026-08-31 12:20:46 | 53.23941 | 10.82567 | 75° | 35km/h | 28837m | 4.8m/s | -46.7°C | 0% | 15hPa | 2.6V | 03:27:47 | 02:12:02 | 00:00:00 | |
| AA1-15 | 2026-08-31 12:20:44 | 53.23943 | 10.82495 | 107° | 27km/h | 28808m | 6.1m/s | -47°C | 0% | 15hPa | 2.7V | 03:27:47 | 02:11:57 | 00:00:00 | |
| BIOWL1-15 | 2026-08-31 12:20:43 | 53.23938 | 10.82536 | 90° | 38km/h | 28826m | 6.2m/s | -47°C | 0% | 15hPa | 2.7V | 03:27:47 | 02:12:00 | 00:00:00 | |
| DL1XH1-15 | 2026-08-31 12:20:42 | 53.23945 | 10.82477 | 93° | 16km/h | 28795m | 5.9m/s | -47°C | 2.8% | 15.1hPa | 2.6V | 03:27:37 | 02:11:55 | 00:00:00 | |
| HSKMA3-T | 2026-08-31 12:20:41 | 53.23944 | 10.82485 | 106° | 22km/h | 28802m | 7.1m/s | -47.1°C | 0% | 15hPa | 2.6V | 03:27:47 | 02:11:56 | 00:00:00 | |
| DL1XH-west | 2026-08-31 12:20:41 | 53.23945 | 10.82477 | 94° | 16km/h | 28795m | 5.9m/s | -47.1°C | 0% | 15.1hPa | 2.6V | 03:27:47 | 02:11:55 | 00:00:00 | |
| DB0DAN | 2026-08-31 12:20:40 | 53.23943 | 10.82495 | 107° | 26km/h | 28808m | 6.1m/s | -47°C | 0.5% | 15.02hPa | 2.7V | 00:00:00 | 00:00:00 | 00:00:00 | |
| DD8BA-10 | 2026-08-31 12:20:40 | 53.23942 | 10.82495 | 107° | 26km/h | 28808m | 6.1m/s | -47.0°C | 2.8% | 15.0hPa | 2.7V | 00:00:00 | 00:00:00 | 00:00:00 | |
| DL1XH-15 | 2026-08-31 12:20:39 | 53.23943 | 10.82431 | 87° | 35km/h | 28767m | 5.4m/s | -47°C | 2.8% | 15.1hPa | 2.6V | 03:27:42 | 02:11:50 | 00:00:00 | |
| BIOWL1-15 | 2026-08-31 12:20:37 | 53.23943 | 10.82431 | 88° | 35km/h | 28767m | 5.4m/s | -47°C | 0% | 15.1hPa | 2.6V | 03:27:47 | 02:11:50 | 00:00:00 | |
| DF8AY | 2026-08-31 12:20:35 | 53.23944 | 10.82455 | 84° | 24km/h | 28779m | 6.3m/s | -47°C | 0% | 15.1hPa | 2.7V | 03:27:47 | 02:11:52 | 00:00:00 | |
| AA1-15 | 2026-08-31 12:20:32 | 53.23943 | 10.82415 | 84° | 38km/h | 28762m | 5.4m/s | -47.1°C | 0% | 15.2hPa | 2.6V | 03:27:47 | 02:11:49 | 00:00:00 | |
| DL1XH1-15 | 2026-08-31 12:20:32 | 53.23932 | 10.82354 | 65° | 38km/h | 28738m | 5.2m/s | -47.1°C | 2.8% | 15.2hPa | 2.7V | 03:27:47 | 02:11:45 | 00:00:00 | |
| DM0DOS-11 | 2026-08-31 12:20:32 | 53.23941 | 10.82399 | 78° | 38km/h | 28756m | 6.5m/s | -47.1°C | 2.8% | 15.2hPa | 2.6V | 03:27:44 | 02:11:48 | 00:00:00 | |
| DL1XH-west | 2026-08-31 12:20:29 | 53.23936 | 10.82369 | 67° | 38km/h | 28743m | 5.8m/s | -47.1°C | 0% | 15.2hPa | 2.7V | 03:27:47 | 02:11:46 | 00:00:00 | |
| DL1NUX | 2026-08-31 12:20:28 | 53.23928 | 10.82339 | 68° | 38km/h | 28731m | 6.6m/s | -47.2°C | 2.8% | 15.2hPa | 2.6V | 03:27:48 | 02:11:44 | 00:00:00 | |
| DO2SHX-10 | 2026-08-31 12:20:27 | 53.23928 | 10.82339 | 69° | 37km/h | 28732m | 6.5m/s | -47.2°C | 2.8% | 15.2hPa | 2.7V | 03:27:00 | 02:11:44 | 00:00:00 | |
| DG6HD-15 | 2026-08-31 12:20:26 | 53.23928 | 10.82339 | 69° | 38km/h | 28732m | 6.6m/s | -47.2°C | 0.5% | 15.2hPa | 2.7V | 03:28:00 | 00:00:00 | 00:00:00 | |
| DB0DAN | 2026-08-31 12:20:25 | 53.23922 | 10.82310 | 71° | 33km/h | 28719m | 4.9m/s | -47.2°C | 0.5% | 15.25hPa | 2.7V | 00:00:00 | 00:00:00 | 00:00:00 | |
| DF8AY | 2026-08-31 12:20:25 | 53.23922 | 10.82310 | 71° | 35km/h | 28719m | 4.9m/s | -47.2°C | 0% | 15.2hPa | 2.7V | 03:29:29 | 02:11:42 | 00:00:00 | |
| DL3AQ-11 | 2026-08-31 12:20:25 | 53.23919 | 10.82298 | 63° | 31km/h | 28715m | 5.1m/s | -47.3°C | 0.5% | 15.3hPa | 2.6V | 00:00:00 | 00:00:00 | 00:00:00 | |
| DF8AY-15 | 2026-08-31 12:20:24 | 53.23919 | 10.82298 | 64° | 37km/h | 28715m | 5.0m/s | -47.2°C | 2.8% | 15.2hPa | 2.6V | 00:00:00 | 02:11:41 | 00:00:00 | |
| DF7ER-10 | 2026-08-31 12:20:23 | 53.23919 | 10.82298 | 64° | 31km/h | 28715m | 5.1m/s | -47.3°C | 0.6% | 15.3hPa | 2.6V | 03:28:00 | 00:00:00 | 00:00:00 | |
| BIOWL1-15 | 2026-08-31 12:20:22 | 53.23795 | 10.82051 | 41° | 40km/h | 28591m | 6.1m/s | -47.8°C | 0% | 15.5hPa | 2.6V | 03:28:38 | 02:11:20 | 00:00:00 | |
| DM0DOS-11 | 2026-08-31 12:20:22 | 53.23905 | 10.82269 | 43° | 29km/h | 28696m | 5.1m/s | -47.3°C | 2.8% | 15.3hPa | 2.6V | 03:27:54 | 02:11:38 | 00:00:00 | |
| AA1-15 | 2026-08-31 12:20:21 | 53.23905 | 10.82269 | 43° | 29km/h | 28696m | 5.1m/s | -47.3°C | 0% | 15.3hPa | 2.6V | 03:28:38 | 02:11:38 | 00:00:00 | |
| DL1XH-west | 2026-08-31 12:20:19 | 53.23895 | 10.82250 | 56° | 31km/h | 28685m | 6.8m/s | -47.4°C | 0% | 15.3hPa | 2.7V | 03:28:38 | 02:11:36 | 00:00:00 | |
| DL1NUX | 2026-08-31 12:20:18 | 53.23888 | 10.82225 | 68° | 38km/h | 28673m | 5.4m/s | -47.5°C | 2.9% | 15.3hPa | 2.7V | 03:27:58 | 02:11:34 | 00:00:00 | |
| DF8AY | 2026-08-31 12:20:13 | 53.23868 | 10.82166 | 48° | 42km/h | 28650m | 5.9m/s | -47.8°C | 0% | 15.4hPa | 2.7V | 03:29:29 | 02:11:30 | 00:00:00 | |
| DL1XH1-15 | 2026-08-31 12:20:13 | 53.23834 | 10.82101 | 46° | 38km/h | 28620m | 5m/s | -47.7°C | 2.9% | 15.5hPa | 2.6V | 03:28:07 | 02:11:25 | 00:00:00 | |
| DM0DOS-11 | 2026-08-31 12:20:12 | 53.23854 | 10.82140 | 48° | 42km/h | 28638m | 6.5m/s | -47.7°C | 2.9% | 15.4hPa | 2.7V | 03:28:04 | 02:11:28 | 00:00:00 | |
| DL4BBY-15 | 2026-08-31 12:20:12 | 53.23861 | 10.82153 | 47° | 42km/h | 28645m | 5.4m/s | -46.6°C | 0% | 0hPa | 2.7V | 00:00:00 | 00:00:00 | 00:00:00 | |
| DB0DAN | 2026-08-31 12:20:10 | 53.23847 | 10.82126 | 50° | 40km/h | 28631m | 6.8m/s | -47.8°C | 0.6% | 15.44hPa | 2.7V | 00:00:00 | 00:00:00 | 00:00:00 | |
| DL1XH-west | 2026-08-31 12:20:09 | 53.23827 | 10.82090 | 42° | 38km/h | 28614m | 6.5m/s | -47.7°C | 0% | 15.5hPa | 2.6V | 03:28:38 | 02:11:24 | 00:00:00 | |
| DL1NUX | 2026-08-31 12:20:08 | 53.23827 | 10.82090 | 41° | 38km/h | 28614m | 6.5m/s | -47.7°C | 2.9% | 15.5hPa | 2.6V | 03:28:08 | 02:11:24 | 00:00:00 | |
| DF8AY | 2026-08-31 12:20:02 | 53.23788 | 10.82038 | 48° | 44km/h | 28584m | 7m/s | -47.7°C | 0% | 15.6hPa | 2.6V | 03:29:29 | 02:11:19 | 00:00:00 | |
| DM0DOS-11 | 2026-08-31 12:20:02 | 53.23780 | 10.82024 | 52° | 46km/h | 28578m | 5.5m/s | -47.7°C | 2.9% | 15.6hPa | 2.6V | 03:28:14 | 02:11:18 | 00:00:00 | |
| DO3MHA-11 | 2026-08-31 12:20:01 | 53.23780 | 10.82024 | 53° | 44km/h | 28578m | 5.5m/s | -47.7°C | 2.9% | 15.5hPa | 2.7V | 00:00:00 | 02:11:18 | 00:00:00 | |
| DO2SHX-10 | 2026-08-31 12:20:00 | 53.23773 | 10.82009 | 53° | 46km/h | 28573m | 5.2m/s | -47.8°C | 2.9% | 15.5hPa | 2.7V | 00:00:00 | 02:11:17 | 00:00:00 | |
| DL1XH1-15 | 2026-08-31 12:19:59 | 53.23757 | 10.81981 | 38° | 46km/h | 28561m | 6.6m/s | -47.8°C | 2.9% | 15.6hPa | 2.7V | 03:28:17 | 02:11:15 | 00:00:00 | |
| DL1XH-west | 2026-08-31 12:19:58 | 53.23757 | 10.81981 | 39° | 46km/h | 28561m | 6.6m/s | -47.8°C | 0% | 15.6hPa | 2.7V | 03:28:38 | 02:11:15 | 00:00:00 | |
| DL1XH-15 | 2026-08-31 12:19:58 | 53.23709 | 10.81940 | 29° | 40km/h | 28532m | 5.8m/s | -48°C | 3% | 15.7hPa | 2.7V | 03:28:22 | 02:11:10 | 00:00:00 | |
| AA1-15 | 2026-08-31 12:19:57 | 53.23748 | 10.81970 | 30° | 46km/h | 28555m | 5.8m/s | -47.9°C | 0% | 15.6hPa | 2.6V | 03:28:38 | 02:11:14 | 00:00:00 | |
| HSKMA3-T | 2026-08-31 12:19:56 | 53.23738 | 10.81962 | 23° | 44km/h | 28549m | 4.8m/s | -48°C | 0% | 15.7hPa | 2.6V | 03:28:38 | 02:11:13 | 00:00:00 | |
| DB0DAN | 2026-08-31 12:19:55 | 53.23728 | 10.81955 | 22° | 40km/h | 28544m | 5.4m/s | -47.9°C | 0.6% | 15.68hPa | 2.7V | 00:00:00 | 00:00:00 | 00:00:00 | |
| BIOWL1-15 | 2026-08-31 12:19:54 | 53.23718 | 10.81948 | 24° | 40km/h | 28538m | 6.6m/s | -48°C | 0% | 15.7hPa | 2.7V | 03:28:38 | 02:11:11 | 00:00:00 | |
| DO2SHX-10 | 2026-08-31 12:19:54 | 53.23718 | 10.81948 | 25° | 40km/h | 28538m | 6.5m/s | -47.9°C | 2.9% | 15.6hPa | 2.7V | 00:00:00 | 02:11:11 | 00:00:00 | |
| DL1XH1-15 | 2026-08-31 12:19:53 | 53.23661 | 10.81892 | 33° | 47km/h | 28504m | 4.9m/s | -48°C | 2.9% | 15.7hPa | 2.7V | 03:28:27 | 02:11:05 | 00:00:00 | |
| DF8AY | 2026-08-31 12:19:52 | 53.23619 | 10.81840 | 25° | 35km/h | 28475m | 6.7m/s | -48.1°C | 0% | 15.8hPa | 2.7V | 03:29:29 | 02:11:00 | 00:00:00 | |
| DO3MHA-11 | 2026-08-31 12:19:51 | 53.23691 | 10.81923 | 33° | 42km/h | 28521m | 5.2m/s | -48.0°C | 2.9% | 15.7hPa | 2.7V | 00:00:00 | 02:11:08 | 00:00:00 | |
| SO1NDE-10 | 2026-08-31 12:19:50 | 53.23681 | 10.81913 | 32° | 31km/h | 28515m | 6.9m/s | -48.1°C | 2.9% | 15.7hPa | 2.7V | 00:00:00 | 02:11:07 | 00:00:00 | |
| DD8BA-10 | 2026-08-31 12:19:49 | 53.23671 | 10.81902 | 32° | 40km/h | 28509m | 5.6m/s | -48.0°C | 2.9% | 15.7hPa | 2.7V | 03:28:00 | 00:00:00 | 00:00:00 | |
| DL1XH-15 | 2026-08-31 12:19:48 | 53.23619 | 10.81840 | 24° | 35km/h | 28475m | 6.7m/s | -48.1°C | 2.9% | 15.8hPa | 2.7V | 03:28:32 | 02:11:00 | 00:00:00 | |
| AA1-15 | 2026-08-31 12:19:48 | 53.23651 | 10.81880 | 38° | 46km/h | 28498m | 6.4m/s | -48.1°C | 0% | 15.8hPa | 2.7V | 03:28:38 | 02:11:04 | 00:00:00 | |
| HSKMA3-T | 2026-08-31 12:19:46 | 53.23642 | 10.81868 | 41° | 44km/h | 28492m | 6.5m/s | -48.1°C | 0% | 15.8hPa | 2.6V | 03:28:38 | 02:11:03 | 00:00:00 | |
| DO2SHX-10 | 2026-08-31 12:19:45 | 53.23634 | 10.81857 | 41° | 37km/h | 28486m | 5.0m/s | -48.0°C | 2.9% | 15.7hPa | 2.6V | 00:00:00 | 02:11:02 | 00:00:00 | |
| DM0DOS-11 | 2026-08-31 12:19:44 | 53.23602 | 10.81833 | 5° | 37km/h | 28462m | 4.9m/s | -48.1°C | 3% | 15.9hPa | 2.7V | 03:28:34 | 02:10:58 | 00:00:00 | |
| BIOWL1-15 | 2026-08-31 12:19:44 | 53.23627 | 10.81847 | 34° | 37km/h | 28481m | 4.9m/s | -48.1°C | 0% | 15.8hPa | 2.6V | 03:28:38 | 02:11:01 | 00:00:00 | |
| DF8AY | 2026-08-31 12:19:41 | 53.23602 | 10.81833 | 6° | 37km/h | 28462m | 4.9m/s | -48.1°C | 0% | 15.9hPa | 2.7V | 03:29:29 | 02:10:58 | 00:00:00 | |
| DB0DAN | 2026-08-31 12:19:40 | 53.23593 | 10.81832 | 4° | 33km/h | 28457m | 4.4m/s | -48.2°C | 0.6% | 15.83hPa | 2.6V | 00:00:00 | 00:00:00 | 00:00:00 | |
| DL1XH1-15 | 2026-08-31 12:19:40 | 53.23577 | 10.81828 | 13° | 29km/h | 28445m | 6.8m/s | -48.2°C | 3% | 15.9hPa | 2.7V | 03:28:37 | 02:10:55 | 00:00:00 | |
| DD8BA-10 | 2026-08-31 12:19:39 | 53.23584 | 10.81830 | 8° | 33km/h | 28452m | 6.4m/s | -48.1°C | 2.9% | 15.8hPa | 2.6V | 00:00:00 | 00:00:00 | 00:00:00 | |
| DL1XH-15 | 2026-08-31 12:19:38 | 53.23540 | 10.81801 | 18° | 38km/h | 28417m | 6.6m/s | -48.3°C | 3% | 15.9hPa | 2.6V | 03:28:42 | 02:10:50 | 00:00:00 | |
| DL1NUX | 2026-08-31 12:19:38 | 53.23570 | 10.81824 | 23° | 29km/h | 28439m | 5.5m/s | -48.2°C | 3% | 15.9hPa | 2.7V | 03:28:38 | 02:10:54 | 00:00:00 | |
| DL1XH-west | 2026-08-31 12:19:37 | 53.23556 | 10.81813 | 27° | 33km/h | 28429m | 5m/s | -48.3°C | 0% | 15.9hPa | 2.6V | 03:29:29 | 02:10:52 | 00:00:00 | |
| BIOWL1-15 | 2026-08-31 12:19:36 | 53.23521 | 10.81794 | 10° | 38km/h | 28404m | 5.2m/s | -48.6°C | 0% | 16hPa | 2.7V | 03:29:29 | 02:10:48 | 00:00:00 | |
| HSKMA3-T | 2026-08-31 12:19:36 | 53.23549 | 10.81807 | 24° | 35km/h | 28423m | 6.6m/s | -48.4°C | 0% | 15.9hPa | 2.6V | 03:29:29 | 02:10:51 | 00:00:00 | |
| S3001 | 2026-08-31 12:19:35 | 53.23549 | 10.81807 | 24° | 33km/h | 28424m | 6.6m/s | -48.4°C | 0.6% | 15.9hPa | 2.6V | 00:00:00 | 00:00:00 | 00:00:00 | |
| DL3AQ-11 | 2026-08-31 12:19:34 | 53.23540 | 10.81801 | 18° | 37km/h | 28417m | 6.6m/s | -48.3°C | 0.6% | 15.9hPa | 2.6V | 00:00:00 | 00:00:00 | 00:00:00 | |
| DL1NUX | 2026-08-31 12:19:33 | 53.23494 | 10.81783 | 25° | 16km/h | 28380m | 6.3m/s | -48.6°C | 3.1% | 16.1hPa | 2.6V | 03:28:48 | 02:10:44 | 00:00:00 | |
| DF8AY | 2026-08-31 12:19:30 | 53.23498 | 10.81786 | 18° | 22km/h | 28387m | 6.7m/s | -48.7°C | 0% | 16hPa | 2.6V | 03:29:29 | 02:10:45 | 00:00:00 | |
| DO2SHX-10 | 2026-08-31 12:19:30 | 53.23512 | 10.81791 | 10° | 27km/h | 28399m | 5.2m/s | -48.5°C | 3.0% | 15.9hPa | 2.7V | 00:00:00 | 02:10:47 | 00:00:00 | |
| DD8BA-10 | 2026-08-31 12:19:29 | 53.23505 | 10.81789 | 13° | 16km/h | 28394m | 6.1m/s | -48.5°C | 3.0% | 16.0hPa | 2.7V | 00:00:00 | 00:00:00 | 00:00:00 | |
| DL1XH-15 | 2026-08-31 12:19:28 | 53.23480 | 10.81778 | 359° | 16km/h | 28356m | 5m/s | -48.7°C | 3.1% | 16.1hPa | 2.7V | 03:28:52 | 02:10:40 | 00:00:00 | |
| DL1XH-west | 2026-08-31 12:19:27 | 53.23491 | 10.81781 | 24° | 13km/h | 28374m | 5.4m/s | -48.6°C | 0% | 16.1hPa | 2.7V | 03:29:29 | 02:10:43 | 00:00:00 | |
| GOEST3-10 | 2026-08-31 12:19:27 | 53.23494 | 10.81783 | 26° | 15km/h | 28381m | 6.3m/s | -48.5°C | 3.1% | 16.0hPa | 2.7V | 00:00:00 | 02:10:44 | 00:00:00 | |
| DL2RXE-15 | 2026-08-31 12:19:26 | 53.23494 | 10.81783 | 26° | 16km/h | 28381m | 6.3m/s | -48.6°C | 0.6% | 16.1hPa | 2.7V | 00:00:00 | 00:00:00 | 00:00:00 | |
| DB0DAN | 2026-08-31 12:19:25 | 53.23488 | 10.81779 | 15° | 13km/h | 28368m | 6.6m/s | -48.6°C | 0.6% | 16.07hPa | 2.7V | 00:00:00 | 00:00:00 | 00:00:00 | |
| AA1-15 | 2026-08-31 12:19:25 | 53.23484 | 10.81778 | 5° | 15km/h | 28362m | 6.4m/s | -48.6°C | 0% | 16.1hPa | 2.7V | 03:29:29 | 02:10:41 | 00:00:00 | |
| BIOWL1-15 | 2026-08-31 12:19:23 | 53.23480 | 10.81778 | 360° | 16km/h | 28356m | 5m/s | -48.7°C | 0% | 16.1hPa | 2.7V | 03:29:29 | 02:10:40 | 00:00:00 | |
| DM0DOS-11 | 2026-08-31 12:19:22 | 53.23472 | 10.81778 | 357° | 13km/h | 28344m | 7m/s | -48.6°C | 3.1% | 16.1hPa | 2.6V | 03:28:54 | 02:10:38 | 00:00:00 | |
| DF8AY | 2026-08-31 12:19:19 | 53.23463 | 10.81779 | 356° | 15km/h | 28327m | 5m/s | -48.7°C | 0% | 16.2hPa | 2.7V | 03:29:29 | 02:10:35 | 00:00:00 | |
| DL1XH-west | 2026-08-31 12:19:17 | 53.23450 | 10.81782 | 351° | 18km/h | 28309m | 4.5m/s | -48.7°C | 0% | 16.2hPa | 2.6V | 03:29:29 | 02:10:32 | 00:00:00 | |
| HSKMA3-T | 2026-08-31 12:19:14 | 53.23443 | 10.81785 | 335° | 7km/h | 28299m | 7m/s | -48.7°C | 0% | 16.3hPa | 2.7V | 03:29:29 | 02:10:30 | 00:00:00 | |
| BIOWL1-15 | 2026-08-31 12:19:12 | 53.23442 | 10.81786 | 252° | 4km/h | 28292m | 6.5m/s | -48.7°C | 0% | 16.2hPa | 2.7V | 03:29:29 | 02:10:29 | 00:00:00 | |
| DM0DOS-11 | 2026-08-31 12:19:12 | 53.23443 | 10.81788 | 209° | 7km/h | 28286m | 5.4m/s | -48.6°C | 3.1% | 16.3hPa | 2.7V | 03:29:04 | 02:10:28 | 00:00:00 | |
| DO2SHX-10 | 2026-08-31 12:19:12 | 53.23442 | 10.81786 | 253° | 5km/h | 28292m | 6.5m/s | -48.6°C | 3.1% | 16.2hPa | 2.6V | 00:00:00 | 02:10:29 | 00:00:00 | |
| DB0DAN | 2026-08-31 12:19:10 | 53.23444 | 10.81789 | 204° | 7km/h | 28281m | 4.6m/s | -48.6°C | 0.6% | 16.31hPa | 2.6V | 00:00:00 | 00:00:00 | 00:00:00 | |
| SP3BTT-10 | 2026-08-31 12:19:10 | 53.23444 | 10.81789 | 205° | 9km/h | 28281m | 4.6m/s | -48.5°C | 3.1% | 16.3hPa | 2.6V | 00:00:00 | 00:00:00 | 00:00:00 | |
| DL1XH1-15 | 2026-08-31 12:19:09 | 53.23446 | 10.81791 | 288° | 2km/h | 28269m | 6.5m/s | -48.5°C | 3% | 16.3hPa | 2.7V | 03:29:07 | 02:10:25 | 00:00:00 | |
| DO2SHX-10 | 2026-08-31 12:19:09 | 53.23446 | 10.81790 | 210° | 4km/h | 28276m | 5.8m/s | -48.5°C | 3.1% | 16.3hPa | 2.6V | 00:00:00 | 02:10:26 | 00:00:00 | |
| DL1XH-15 | 2026-08-31 12:19:08 | 53.23442 | 10.81789 | 93° | 4km/h | 28239m | 5.2m/s | -48.5°C | 3% | 16.4hPa | 2.6V | 03:29:12 | 02:10:20 | 00:00:00 | |
| DL1NUX | 2026-08-31 12:19:08 | 53.23446 | 10.81792 | 353° | 5km/h | 28263m | 5.8m/s | -48.5°C | 3% | 16.3hPa | 2.7V | 03:29:08 | 02:10:24 | 00:00:00 | |
| DM0DOS-11 | 2026-08-31 12:19:07 | 53.23442 | 10.81787 | 63° | 2km/h | 28229m | 6.3m/s | -48.5°C | 3% | 16.4hPa | 2.7V | 03:29:14 | 02:10:18 | 00:00:00 | |
| DL1XH-west | 2026-08-31 12:19:05 | 53.23442 | 10.81790 | 51° | 4km/h | 28245m | 6.1m/s | -48.5°C | 0% | 16.4hPa | 2.6V | 03:29:29 | 02:10:21 | 00:00:00 | |
| HSKMA3-T | 2026-08-31 12:19:05 | 53.23442 | 10.81788 | 113° | 4km/h | 28235m | 4.8m/s | -48.4°C | 0% | 16.4hPa | 2.7V | 03:29:29 | 02:10:19 | 00:00:00 | |
| BIOWL1-15 | 2026-08-31 12:19:01 | 53.23442 | 10.81787 | 63° | 2km/h | 28229m | 6.3m/s | -48.5°C | 0% | 16.4hPa | 2.7V | 03:29:29 | 02:10:18 | 00:00:00 | |
| DO3MHA-11 | 2026-08-31 12:19:01 | 53.23442 | 10.81787 | 64° | 7km/h | 28229m | 6.2m/s | -48.5°C | 3.0% | 16.4hPa | 2.7V | 03:29:00 | 02:10:18 | 00:00:00 | |
| DO2SHX-10 | 2026-08-31 12:19:00 | 53.23442 | 10.81786 | 15° | 2km/h | 28223m | 6.2m/s | -48.4°C | 3.0% | 16.4hPa | 2.7V | 00:00:00 | 02:10:17 | 00:00:00 | |
| DD8BA-10 | 2026-08-31 12:18:59 | 53.23441 | 10.81786 | 351° | 7km/h | 28217m | 4.9m/s | -48.4°C | 3.0% | 16.4hPa | 2.6V | 00:00:00 | 00:00:00 | 00:00:00 | |
| DL1XH-15 | 2026-08-31 12:18:58 | 53.23453 | 10.81799 | 227° | 9km/h | 28184m | 6.5m/s | -48.5°C | 3% | 16.5hPa | 2.6V | 03:29:22 | 02:10:10 | 00:00:00 | |
| DF8AY | 2026-08-31 12:18:57 | 53.23442 | 10.81788 | 210° | 9km/h | 28206m | 6.5m/s | -48.5°C | 0% | 16.5hPa | 2.6V | 03:29:29 | 02:10:14 | 00:00:00 | |
| DM0DOS-11 | 2026-08-31 12:18:56 | 53.23454 | 10.81804 | 310° | 5km/h | 28171m | 5.3m/s | -48.6°C | 3.1% | 16.6hPa | 2.7V | 03:29:24 | 02:10:08 | 00:00:00 | |
| DB0DAN | 2026-08-31 12:18:55 | 53.23448 | 10.81793 | 206° | 15km/h | 28194m | 4.4m/s | -48.5°C | 0.6% | 16.53hPa | 2.7V | 00:00:00 | 00:00:00 | 00:00:00 | |
| HSKMA3-T | 2026-08-31 12:18:54 | 53.23453 | 10.81799 | 227° | 9km/h | 28184m | 6.5m/s | -48.5°C | 0% | 16.6hPa | 2.6V | 03:29:29 | 02:10:10 | 00:00:00 | |
| DL3AQ-11 | 2026-08-31 12:18:54 | 53.23453 | 10.81799 | 227° | 9km/h | 28184m | 6.5m/s | -48.5°C | 0.6% | 16.6hPa | 2.6V | 00:00:00 | 00:00:00 | 00:00:00 | |
| SONCRA | 2026-08-31 12:18:53 | 53.23453 | 10.81799 | 227° | 9km/h | 28184m | 6.5m/s | -48.5°C | 0.6% | 16.6hPa | 2.6V | 00:00:00 | 00:00:00 | 00:00:00 | |
| DL1XH1-15 | 2026-08-31 12:18:52 | 53.23452 | 10.81804 | 98° | 4km/h | 28153m | 5.2m/s | -48.6°C | 3.1% | 16.6hPa | 2.6V | 03:29:27 | 02:10:05 | 00:00:00 | |
| BIOWL1-15 | 2026-08-31 12:18:50 | 53.23452 | 10.81804 | 99° | 4km/h | 28153m | 5.3m/s | -48.6°C | 0% | 16.6hPa | 2.6V | 03:29:29 | 02:10:05 | 00:00:00 | |
| AA1-15 | 2026-08-31 12:18:50 | 53.23453 | 10.81805 | 334° | 4km/h | 28165m | 6.3m/s | -48.6°C | 0% | 16.6hPa | 2.7V | 03:29:29 | 02:10:07 | 00:00:00 | |
| DL1XH-15 | 2026-08-31 12:18:48 | 53.23453 | 10.81797 | 172° | 7km/h | 28126m | 5.3m/s | -48.8°C | 3.1% | 16.7hPa | 2.7V | 03:29:32 | 02:10:00 | 00:00:00 | |
| DF8AY | 2026-08-31 12:18:47 | 53.23459 | 10.81797 | 182° | 16km/h | 28113m | 6.1m/s | -48.7°C | 0% | 16.7hPa | 2.6V | 03:31:11 | 02:09:58 | 00:00:00 | |
| DO9LL-15 | 2026-08-31 12:18:47 | 53.23452 | 10.81802 | 92° | 11km/h | 28148m | 4.8m/s | -48.6°C | 3.1% | 16.6hPa | 2.6V | 00:00:00 | 02:10:04 | 00:00:00 | |
| DM0DOS-11 | 2026-08-31 12:18:46 | 53.23459 | 10.81797 | 181° | 16km/h | 28113m | 6.1m/s | -48.7°C | 3.1% | 16.7hPa | 2.6V | 03:29:34 | 02:09:58 | 00:00:00 | |
| SMARD9-15 | 2026-08-31 12:18:45 | 53.23452 | 10.81799 | 63° | 2km/h | 28136m | 5.9m/s | -48.7°C | 0.6% | 16.6hPa | 2.7V | 00:00:00 | 00:00:00 | 00:00:00 | |
| HSKMA3-T | 2026-08-31 12:18:43 | 53.23453 | 10.81797 | 173° | 7km/h | 28126m | 5.3m/s | -48.8°C | 0% | 16.7hPa | 2.7V | 03:30:20 | 02:10:00 | 00:00:00 | |
| DL1XH1-15 | 2026-08-31 12:18:43 | 53.23471 | 10.81799 | 187° | 11km/h | 28097m | 6.4m/s | -48.6°C | 3.1% | 16.7hPa | 2.7V | 03:29:37 | 02:09:55 | 00:00:00 | |
| DL1XH-west | 2026-08-31 12:18:43 | 53.23455 | 10.81797 | 180° | 11km/h | 28120m | 7m/s | -48.7°C | 0% | 16.7hPa | 2.6V | 03:30:20 | 02:09:59 | 00:00:00 | |
| DG6HD-15 | 2026-08-31 12:18:43 | 53.23453 | 10.81797 | 173° | 7km/h | 28126m | 5.3m/s | -48.8°C | 0.6% | 16.7hPa | 2.6V | 03:30:00 | 00:00:00 | 00:00:00 | |
| DL4BBY-15 | 2026-08-31 12:18:42 | 53.23456 | 10.81797 | 181° | 15km/h | 28121m | 6.9m/s | -47.6°C | 0% | 0hPa | 2.6V | 00:00:00 | 00:00:00 | 00:00:00 | |
| DB0DAN | 2026-08-31 12:18:40 | 53.23463 | 10.81798 | 184° | 16km/h | 28108m | 4.5m/s | -48.7°C | 0.6% | 16.72hPa | 2.6V | 00:00:00 | 00:00:00 | 00:00:00 | |
| BIOWL1-15 | 2026-08-31 12:18:39 | 53.23467 | 10.81798 | 187° | 15km/h | 28103m | 4.7m/s | -48.7°C | 0% | 16.8hPa | 2.7V | 03:30:20 | 02:09:56 | 00:00:00 | |
| DO2SHX-10 | 2026-08-31 12:18:39 | 53.23467 | 10.81798 | 187° | 11km/h | 28103m | 4.6m/s | -48.6°C | 3.1% | 16.7hPa | 2.7V | 03:29:00 | 02:09:56 | 00:00:00 | |
| DL1NUX | 2026-08-31 12:18:38 | 53.23473 | 10.81799 | 182° | 5km/h | 28092m | 5.7m/s | -48.7°C | 3.1% | 16.8hPa | 2.7V | 03:29:38 | 02:09:54 | 00:00:00 | |
| DL3AQ-11 | 2026-08-31 12:18:38 | 53.23473 | 10.81799 | 182° | 4km/h | 28092m | 5.7m/s | -48.7°C | 0.6% | 16.8hPa | 2.6V | 00:00:00 | 00:00:00 | 00:00:00 | |
| DB0UT-7 | 2026-08-31 12:18:37 | 53.23473 | 10.81799 | 183° | 15km/h | 28092m | 5.7m/s | -48.7°C | 3.1% | 16.7hPa | 2.6V | 00:00:00 | 02:09:54 | 00:00:00 | |
| DO2SHX-10 | 2026-08-31 12:18:36 | 53.23473 | 10.81799 | 142° | 7km/h | 28087m | 4.2m/s | -48.6°C | 3.1% | 16.7hPa | 2.6V | 00:00:00 | 02:09:53 | 00:00:00 | |
| DM0DOS-11 | 2026-08-31 12:18:34 | 53.23484 | 10.81775 | 131° | 22km/h | 28058m | 4.8m/s | -48.6°C | 3.1% | 16.9hPa | 2.6V | 03:29:44 | 02:09:48 | 00:00:00 | |
| EDDB2-12 | 2026-08-31 12:18:34 | 53.23477 | 10.81789 | 125° | 16km/h | 28070m | 6.3m/s | -48.6°C | 0.6% | 16.8hPa | 2.7V | 00:00:00 | 00:00:00 | 00:00:00 | |
| DL1XH1-15 | 2026-08-31 12:18:33 | 53.23494 | 10.81759 | 138° | 13km/h | 28040m | 5.4m/s | -48.5°C | 3.1% | 16.9hPa | 2.7V | 03:29:47 | 02:09:45 | 00:00:00 | |
| HSKMA3-T | 2026-08-31 12:18:32 | 53.23484 | 10.81775 | 132° | 22km/h | 28058m | 4.9m/s | -48.6°C | 0% | 16.9hPa | 2.6V | 03:30:20 | 02:09:48 | 00:00:00 | |
| DL1NUX | 2026-08-31 12:18:32 | 53.23496 | 10.81756 | 139° | 13km/h | 28035m | 5.5m/s | -48.5°C | 3.1% | 16.9hPa | 2.7V | 03:29:48 | 02:09:44 | 00:00:00 | |
| BIOWL1-15 | 2026-08-31 12:18:29 | 53.23491 | 10.81763 | 140° | 16km/h | 28046m | 6.5m/s | -48.5°C | 0% | 16.9hPa | 2.6V | 03:30:20 | 02:09:46 | 00:00:00 | |
| AA1-15 | 2026-08-31 12:18:28 | 53.23494 | 10.81759 | 139° | 13km/h | 28040m | 5.4m/s | -48.5°C | 0% | 16.9hPa | 2.7V | 03:30:20 | 02:09:45 | 00:00:00 | |
| DO2SHX-10 | 2026-08-31 12:18:27 | 53.23496 | 10.81756 | 140° | 15km/h | 28035m | 5.5m/s | -48.5°C | 3.1% | 16.9hPa | 2.6V | 03:29:00 | 02:09:44 | 00:00:00 | |
| DB0DAN | 2026-08-31 12:18:25 | 53.23502 | 10.81747 | 131° | 16km/h | 28022m | 5.9m/s | -48.4°C | 0.6% | 16.95hPa | 2.6V | 00:00:00 | 00:00:00 | 00:00:00 | |
| DL3AQ-11 | 2026-08-31 12:18:25 | 53.23504 | 10.81741 | 124° | 15km/h | 28017m | 4.7m/s | -48.4°C | 0.6% | 17.0hPa | 2.6V | 00:00:00 | 00:00:00 | 00:00:00 | |
| DO2SHX-10 | 2026-08-31 12:18:24 | 53.23504 | 10.81741 | 125° | 13km/h | 28018m | 4.7m/s | -48.4°C | 3.1% | 16.9hPa | 2.6V | 00:00:00 | 02:09:41 | 00:00:00 | |
| DM0DOS-11 | 2026-08-31 12:18:23 | 53.23508 | 10.81728 | 94° | 7km/h | 27999m | 5.7m/s | -48.3°C | 3.1% | 17hPa | 2.7V | 03:29:54 | 02:09:38 | 00:00:00 | |
| HSKMA3-T | 2026-08-31 12:18:20 | 53.23508 | 10.81724 | 104° | 9km/h | 27994m | 4.6m/s | -48.4°C | 0% | 17.1hPa | 2.7V | 03:30:20 | 02:09:37 | 00:00:00 | |
| DF8AY | 2026-08-31 12:18:19 | 53.23509 | 10.81720 | 113° | 13km/h | 27989m | 5.5m/s | -48.4°C | 0% | 17hPa | 2.6V | 03:31:11 | 02:09:36 | 00:00:00 | |
| BIOWL1-15 | 2026-08-31 12:18:19 | 53.23511 | 10.81714 | 123° | 18km/h | 27983m | 7m/s | -48.3°C | 0% | 17.1hPa | 2.6V | 03:30:20 | 02:09:35 | 00:00:00 | |
| DL1NUX | 2026-08-31 12:18:18 | 53.23514 | 10.81708 | 128° | 22km/h | 27976m | 6.1m/s | -48.3°C | 3.1% | 17.1hPa | 2.7V | 03:29:58 | 02:09:34 | 00:00:00 | |
| AA1-15 | 2026-08-31 12:18:17 | 53.23514 | 10.81708 | 129° | 22km/h | 27976m | 6.1m/s | -48.3°C | 0% | 17.1hPa | 2.7V | 03:30:20 | 02:09:34 | 00:00:00 | |
| GOEST3-10 | 2026-08-31 12:18:17 | 53.23514 | 10.81708 | 129° | 20km/h | 27977m | 6.0m/s | -48.3°C | 3.1% | 17.0hPa | 2.7V | 00:00:00 | 02:09:34 | 00:00:00 | |
| DF7ER-10 | 2026-08-31 12:18:16 | 53.23514 | 10.81708 | 130° | 22km/h | 27977m | 6.1m/s | -48.3°C | 0.7% | 17.1hPa | 2.7V | 03:30:00 | 00:00:00 | 00:00:00 | |
| DO2SHX-10 | 2026-08-31 12:18:15 | 53.23522 | 10.81693 | 137° | 18km/h | 27967m | 5.0m/s | -48.3°C | 3.1% | 17.1hPa | 2.7V | 03:30:00 | 02:09:32 | 00:00:00 | |
| DL3AQ-11 | 2026-08-31 12:18:14 | 53.23529 | 10.81682 | 135° | 13km/h | 27954m | 6.3m/s | -48.3°C | 0.6% | 17.1hPa | 2.6V | 00:00:00 | 00:00:00 | 00:00:00 | |
| DL1XH1-15 | 2026-08-31 12:18:13 | 53.23532 | 10.81662 | 107° | 16km/h | 27925m | 6m/s | -48.2°C | 3% | 17.2hPa | 2.6V | 03:30:07 | 02:09:25 | 00:00:00 | |
| DL1NUX | 2026-08-31 12:18:12 | 53.23534 | 10.81656 | 106° | 18km/h | 27919m | 4.9m/s | -48.2°C | 3% | 17.2hPa | 2.6V | 03:30:08 | 02:09:24 | 00:00:00 | |
| DL4BBY-15 | 2026-08-31 12:18:12 | 53.23530 | 10.81679 | 122° | 13km/h | 27949m | 5.2m/s | -47.2°C | 0% | 0hPa | 2.7V | 00:00:00 | 00:00:00 | 00:00:00 | |
| DB0DAN | 2026-08-31 12:18:10 | 53.23531 | 10.81673 | 95° | 9km/h | 27937m | 6.3m/s | -48.3°C | 0.6% | 17.17hPa | 2.7V | 00:00:00 | 00:00:00 | 00:00:00 | |
| HSKMA3-T | 2026-08-31 12:18:10 | 53.23532 | 10.81668 | 103° | 13km/h | 27931m | 6.7m/s | -48.2°C | 0% | 17.2hPa | 2.7V | 03:30:20 | 02:09:26 | 00:00:00 | |
| BIOWL1-15 | 2026-08-31 12:18:09 | 53.23533 | 10.81662 | 108° | 16km/h | 27925m | 6m/s | -48.2°C | 0% | 17.2hPa | 2.6V | 03:30:20 | 02:09:25 | 00:00:00 | |
| DF8AY | 2026-08-31 12:18:08 | 53.23535 | 10.81630 | 94° | 9km/h | 27890m | 5.2m/s | -48.1°C | 0% | 17.3hPa | 2.6V | 03:31:11 | 02:09:19 | 00:00:00 | |
| AA1-15 | 2026-08-31 12:18:07 | 53.23534 | 10.81656 | 107° | 18km/h | 27919m | 4.9m/s | -48.2°C | 0% | 17.2hPa | 2.6V | 03:30:20 | 02:09:24 | 00:00:00 | |
| DL1XH-15 | 2026-08-31 12:18:07 | 53.23536 | 10.81633 | 84° | 9km/h | 27896m | 5.1m/s | -48.1°C | 3% | 17.3hPa | 2.7V | 03:30:12 | 02:09:20 | 00:00:00 | |
| DM0DOS-11 | 2026-08-31 12:18:07 | 53.23536 | 10.81626 | 110° | 9km/h | 27884m | 6.5m/s | -48.1°C | 3% | 17.3hPa | 2.6V | 03:30:14 | 02:09:18 | 00:00:00 | |
| DO2SHX-10 | 2026-08-31 12:18:06 | 53.23535 | 10.81649 | 103° | 15km/h | 27914m | 5.3m/s | -48.2°C | 3.0% | 17.2hPa | 2.6V | 00:00:00 | 02:09:23 | 00:00:00 | |
| DF7ER-10 | 2026-08-31 12:18:05 | 53.23535 | 10.81649 | 103° | 16km/h | 27914m | 5.3m/s | -48.3°C | 0.6% | 17.3hPa | 2.7V | 03:30:00 | 00:00:00 | 00:00:00 | |
| DF8AY-15 | 2026-08-31 12:18:04 | 53.23536 | 10.81637 | 84° | 13km/h | 27901m | 6.3m/s | -48.0°C | 3.0% | 17.2hPa | 2.7V | 00:00:00 | 02:09:21 | 00:00:00 | |
| DL1XH1-15 | 2026-08-31 12:18:03 | 53.23540 | 10.81614 | 112° | 9km/h | 27868m | 4.5m/s | -48°C | 3% | 17.3hPa | 2.7V | 03:30:17 | 02:09:15 | 00:00:00 | |
| DL1XH-west | 2026-08-31 12:17:59 | 53.23539 | 10.81618 | 122° | 13km/h | 27872m | 4.9m/s | -48°C | 0% | 17.3hPa | 2.7V | 03:30:20 | 02:09:16 | 00:00:00 | |
| BIOWL1-15 | 2026-08-31 12:17:59 | 53.23536 | 10.81607 | 14° | 16km/h | 27850m | 6.1m/s | -48.1°C | 0% | 17.4hPa | 2.6V | 03:30:20 | 02:09:12 | 00:00:00 | |
| DL1NUX | 2026-08-31 12:17:58 | 53.23540 | 10.81611 | 79° | 5km/h | 27862m | 6.3m/s | -48.1°C | 3% | 17.4hPa | 2.6V | 03:30:18 | 02:09:14 | 00:00:00 | |
| AA1-15 | 2026-08-31 12:17:58 | 53.23539 | 10.81608 | 30° | 9km/h | 27856m | 6.8m/s | -48.1°C | 0% | 17.4hPa | 2.6V | 03:30:20 | 02:09:13 | 00:00:00 | |
| DF8AY | 2026-08-31 12:17:58 | 53.23540 | 10.81611 | 80° | 5km/h | 27862m | 6.3m/s | -48.1°C | 0% | 17.4hPa | 2.6V | 03:31:11 | 02:09:14 | 00:00:00 | |
| DO2SHX-10 | 2026-08-31 12:17:57 | 53.23540 | 10.81610 | 80° | 11km/h | 27863m | 6.3m/s | -48.0°C | 3.0% | 17.3hPa | 2.6V | 00:00:00 | 02:09:14 | 00:00:00 | |
| DL1XH-15 | 2026-08-31 12:17:56 | 53.23527 | 10.81600 | 31° | 26km/h | 27838m | 5.8m/s | -48°C | 3% | 17.4hPa | 2.7V | 03:30:22 | 02:09:10 | 00:00:00 | |
| DL1ZP-14 | 2026-08-31 12:17:56 | 53.23512 | 10.81557 | 314° | 2km/h | 27796m | 5.2m/s | -48.0°C | 0.6% | 17.5hPa | 2.7V | 00:00:00 | 00:00:00 | 00:00:00 | |
| DB0DAN | 2026-08-31 12:17:55 | 53.23536 | 10.81607 | 14° | 15km/h | 27850m | 6.1m/s | -48.1°C | 0.6% | 17.4hPa | 2.6V | 00:00:00 | 00:00:00 | 00:00:00 | |
| SP3BTT-10 | 2026-08-31 12:17:54 | 53.23532 | 10.81604 | 22° | 16km/h | 27844m | 5.2m/s | -47.9°C | 3.0% | 17.4hPa | 2.7V | 00:00:00 | 00:00:00 | 00:00:00 | |
| DL1XH1-15 | 2026-08-31 12:17:53 | 53.23513 | 10.81561 | 80° | 13km/h | 27808m | 7m/s | -48°C | 3% | 17.5hPa | 2.7V | 03:30:27 | 02:09:05 | 00:00:00 | |
| DL1NUX | 2026-08-31 12:17:52 | 53.23512 | 10.81557 | 68° | 4km/h | 27801m | 5.9m/s | -48°C | 3% | 17.5hPa | 2.7V | 03:30:28 | 02:09:04 | 00:00:00 | |
| DL1XH-west | 2026-08-31 12:17:49 | 53.23514 | 10.81567 | 77° | 18km/h | 27815m | 5.6m/s | -48°C | 0% | 17.5hPa | 2.6V | 03:31:11 | 02:09:06 | 00:00:00 | |
| HSKMA3-T | 2026-08-31 12:17:49 | 53.23513 | 10.81561 | 81° | 13km/h | 27808m | 7m/s | -48°C | 0% | 17.5hPa | 2.7V | 03:31:11 | 02:09:05 | 00:00:00 | |
| AA1-15 | 2026-08-31 12:17:47 | 53.23512 | 10.81557 | 315° | 2km/h | 27796m | 5.2m/s | -48°C | 0% | 17.5hPa | 2.7V | 03:31:11 | 02:09:03 | 00:00:00 | |
| GOEST3-10 | 2026-08-31 12:17:47 | 53.23512 | 10.81557 | 69° | 5km/h | 27802m | 5.9m/s | -47.9°C | 3.0% | 17.5hPa | 2.7V | 00:00:00 | 02:09:04 | 00:00:00 | |
| DM0DOS-11 | 2026-08-31 12:17:46 | 53.23500 | 10.81556 | 12° | 22km/h | 27767m | 5.5m/s | -48.1°C | 3% | 17.6hPa | 2.7V | 03:30:34 | 02:08:58 | 00:00:00 | |
| DL1XH-15 | 2026-08-31 12:17:46 | 53.23508 | 10.81559 | 7° | 11km/h | 27779m | 6.3m/s | -48°C | 3% | 17.6hPa | 2.7V | 03:30:32 | 02:09:00 | 00:00:00 | |
| DF8AY | 2026-08-31 12:17:44 | 53.23510 | 10.81559 | 347° | 7km/h | 27785m | 5.9m/s | -48°C | 0% | 17.6hPa | 2.6V | 03:31:11 | 02:09:01 | 00:00:00 | |
| DF8AY-15 | 2026-08-31 12:17:44 | 53.23510 | 10.81559 | 347° | 20km/h | 27785m | 5.8m/s | -48.0°C | 3.0% | 17.5hPa | 2.6V | 00:00:00 | 02:09:01 | 00:00:00 | |
| DL1XH1-15 | 2026-08-31 12:17:43 | 53.23479 | 10.81550 | 13° | 31km/h | 27748m | 4.3m/s | -48.5°C | 2.9% | 17.7hPa | 2.6V | 03:30:37 | 02:08:55 | 00:00:00 | |
| SMARD9-15 | 2026-08-31 12:17:43 | 53.23508 | 10.81559 | 7° | 11km/h | 27779m | 6.3m/s | -48.0°C | 0.6% | 17.6hPa | 2.6V | 00:00:00 | 00:00:00 | 00:00:00 | |
| DL4BBY-15 | 2026-08-31 12:17:42 | 53.23505 | 10.81558 | 15° | 18km/h | 27773m | 5.8m/s | -46.9°C | 0% | 0hPa | 2.6V | 00:00:00 | 00:00:00 | 00:00:00 | |
| DB0DAN | 2026-08-31 12:17:40 | 53.23494 | 10.81554 | 9° | 26km/h | 27761m | 7.4m/s | -48.2°C | 0.6% | 17.64hPa | 2.6V | 00:00:00 | 00:00:00 | 00:00:00 | |
| HSKMA3-T | 2026-08-31 12:17:39 | 53.23479 | 10.81550 | 14° | 33km/h | 27748m | 4.3m/s | -48.5°C | 0% | 17.7hPa | 2.6V | 03:31:11 | 02:08:55 | 00:00:00 | |
| DL1NUX | 2026-08-31 12:17:38 | 53.23471 | 10.81546 | 22° | 31km/h | 27743m | 5.3m/s | -48.6°C | 2.9% | 17.7hPa | 2.7V | 03:30:38 | 02:08:54 | 00:00:00 | |
| AA1-15 | 2026-08-31 12:17:37 | 53.23459 | 10.81532 | 44° | 27km/h | 27730m | 5.9m/s | -48.6°C | 0% | 17.7hPa | 2.7V | 03:31:11 | 02:08:52 | 00:00:00 | |
| DB0UT-7 | 2026-08-31 12:17:37 | 53.23471 | 10.81546 | 23° | 18km/h | 27744m | 5.2m/s | -48.6°C | 2.9% | 17.6hPa | 2.7V | 03:30:00 | 02:08:54 | 00:00:00 | |
| DM0DOS-11 | 2026-08-31 12:17:36 | 53.23448 | 10.81513 | 20° | 5km/h | 27704m | 6.2m/s | -48.5°C | 3% | 17.8hPa | 2.7V | 03:30:44 | 02:08:48 | 00:00:00 | |
| DO2SHX-10 | 2026-08-31 12:17:36 | 53.23464 | 10.81540 | 33° | 27km/h | 27737m | 7.2m/s | -48.5°C | 2.9% | 17.6hPa | 2.6V | 00:00:00 | 02:08:53 | 00:00:00 | |
| DL1XH-15 | 2026-08-31 12:17:35 | 53.23452 | 10.81519 | 53° | 15km/h | 27719m | 7.2m/s | -48.6°C | 3% | 17.8hPa | 2.6V | 03:30:42 | 02:08:50 | 00:00:00 | |
| BIOWL1-15 | 2026-08-31 12:17:33 | 53.23447 | 10.81513 | 7° | 5km/h | 27698m | 6m/s | -48.5°C | 0% | 17.8hPa | 2.7V | 03:31:11 | 02:08:47 | 00:00:00 | |
| DO9LL-15 | 2026-08-31 12:17:33 | 53.23451 | 10.81519 | 54° | 15km/h | 27719m | 7.2m/s | -48.6°C | 3.0% | 17.7hPa | 2.6V | 00:00:00 | 02:08:50 | 00:00:00 | |
| EDDB2-12 | 2026-08-31 12:17:32 | 53.23448 | 10.81513 | 20° | 4km/h | 27704m | 6.2m/s | -48.5°C | 0.6% | 17.8hPa | 2.6V | 00:00:00 | 00:00:00 | 00:00:00 | |
| S3001 | 2026-08-31 12:17:31 | 53.23447 | 10.81513 | 6° | 4km/h | 27698m | 6.0m/s | -48.5°C | 0.6% | 17.8hPa | 2.6V | 00:00:00 | 00:00:00 | 00:00:00 | |
| DL1XH1-15 | 2026-08-31 12:17:30 | 53.23443 | 10.81511 | 14° | 13km/h | 27686m | 5.4m/s | -48.6°C | 3.1% | 17.9hPa | 2.6V | 03:30:47 | 02:08:45 | 00:00:00 | |
| DL1XH-west | 2026-08-31 12:17:30 | 53.23433 | 10.81509 | 3° | 26km/h | 27675m | 6.8m/s | -48.8°C | 0% | 17.9hPa | 2.7V | 03:31:11 | 02:08:43 | 00:00:00 | |
| HSKMA3-T | 2026-08-31 12:17:30 | 53.23443 | 10.81511 | 14° | 13km/h | 27686m | 5.4m/s | -48.6°C | 0% | 17.9hPa | 2.6V | 03:31:11 | 02:08:45 | 00:00:00 | |
| DD8BA-10 | 2026-08-31 12:17:30 | 53.23445 | 10.81512 | 16° | 24km/h | 27692m | 6.6m/s | -48.5°C | 3.1% | 17.8hPa | 2.6V | 00:00:00 | 00:00:00 | 00:00:00 | |
| DL1NUX | 2026-08-31 12:17:29 | 53.23439 | 10.81510 | 8° | 18km/h | 27681m | 4.7m/s | -48.8°C | 3.1% | 17.9hPa | 2.6V | 03:30:48 | 02:08:44 | 00:00:00 | |
| AA1-15 | 2026-08-31 12:17:25 | 53.23418 | 10.81509 | 1° | 37km/h | 27661m | 6.1m/s | -48.9°C | 0% | 17.9hPa | 2.7V | 03:31:11 | 02:08:41 | 00:00:00 | |
| DB0DAN | 2026-08-31 12:17:25 | 53.23426 | 10.81509 | 359° | 31km/h | 27668m | 7.9m/s | -48.9°C | 0.6% | 17.9hPa | 2.7V | 00:00:00 | 00:00:00 | 00:00:00 | |
| DJ2DS-15 | 2026-08-31 12:17:25 | 53.23418 | 10.81509 | 0° | 35km/h | 27661m | 6.1m/s | -48.9°C | 0.6% | 17.9hPa | 2.6V | 00:00:00 | 00:00:00 | 00:00:00 | |
| DF8AY-15 | 2026-08-31 12:17:24 | 53.23418 | 10.81509 | 1° | 16km/h | 27661m | 6.0m/s | -48.8°C | 3.0% | 17.8hPa | 2.6V | 03:30:00 | 02:08:41 | 00:00:00 | |
| DF7ER-10 | 2026-08-31 12:17:23 | 53.23409 | 10.81508 | 8° | 35km/h | 27656m | 4.8m/s | -48.8°C | 0.6% | 17.9hPa | 2.6V | 03:31:00 | 00:00:00 | 00:00:00 | |
| DL1NUX | 2026-08-31 12:17:22 | 53.23388 | 10.81483 | 166° | 4km/h | 27617m | 6.9m/s | -49°C | 3.2% | 18.1hPa | 2.6V | 03:30:58 | 02:08:34 | 00:00:00 | |
| HSKMA3-T | 2026-08-31 12:17:18 | 53.23388 | 10.81485 | 95° | 7km/h | 27625m | 7.7m/s | -49°C | 0% | 18hPa | 2.7V | 03:31:11 | 02:08:35 | 00:00:00 | |
| DL1XH-west | 2026-08-31 12:17:17 | 53.23390 | 10.81483 | 209° | 5km/h | 27611m | 5.6m/s | -49°C | 0% | 18.1hPa | 2.6V | 03:31:11 | 02:08:33 | 00:00:00 | |
| DL8OAI-8 | 2026-08-31 12:17:16 | 53.23388 | 10.81483 | 168° | 4km/h | 27618m | 6.9m/s | -49.0°C | 0.7% | 18.1hPa | 2.6V | 00:00:00 | 00:00:00 | 00:00:00 | |
| DO2SHX-10 | 2026-08-31 12:17:15 | 53.23390 | 10.81484 | 226° | 4km/h | 27606m | 5.7m/s | -49.0°C | 3.2% | 18.0hPa | 2.6V | 03:31:00 | 02:08:32 | 00:00:00 | |
| DM0DOS-11 | 2026-08-31 12:17:14 | 53.23384 | 10.81484 | 4° | 18km/h | 27581m | 6.1m/s | -49.2°C | 3.1% | 18.1hPa | 2.6V | 03:31:04 | 02:08:28 | 00:00:00 | |
| AA1-15 | 2026-08-31 12:17:13 | 53.23390 | 10.81485 | 12° | 5km/h | 27593m | 5.8m/s | -49.2°C | 0% | 18.1hPa | 2.7V | 03:31:11 | 02:08:30 | 00:00:00 | |
| DL1XH1-15 | 2026-08-31 12:17:13 | 53.23366 | 10.81486 | 351° | 26km/h | 27562m | 5.1m/s | -49.2°C | 3.2% | 18.2hPa | 2.7V | 03:31:07 | 02:08:25 | 00:00:00 | |
| DO2SHX-10 | 2026-08-31 12:17:12 | 53.23388 | 10.81485 | 9° | 18km/h | 27588m | 5.4m/s | -49.2°C | 3.2% | 18.1hPa | 2.7V | 00:00:00 | 02:08:29 | 00:00:00 | |
| DB0DAN | 2026-08-31 12:17:10 | 53.23379 | 10.81484 | 359° | 22km/h | 27574m | 7.5m/s | -49.3°C | 0.6% | 18.16hPa | 2.6V | 00:00:00 | 00:00:00 | 00:00:00 | |
| BIOWL1-15 | 2026-08-31 12:17:10 | 53.23379 | 10.81484 | 359° | 24km/h | 27574m | 7.5m/s | -49.3°C | 0% | 18.2hPa | 2.6V | 03:31:11 | 02:08:27 | 00:00:00 | |
| DF8AY | 2026-08-31 12:17:08 | 53.23356 | 10.81487 | 12° | 15km/h | 27551m | 6.2m/s | -48.9°C | 0% | 18.2hPa | 2.6V | 03:31:11 | 02:08:23 | 00:00:00 | |
| HSKMA3-T | 2026-08-31 12:17:07 | 53.23361 | 10.81487 | 355° | 20km/h | 27557m | 5m/s | -49°C | 0% | 18.2hPa | 2.7V | 03:31:11 | 02:08:24 | 00:00:00 | |
| DL1XH-west | 2026-08-31 12:17:06 | 53.23354 | 10.81485 | 66° | 9km/h | 27544m | 6.7m/s | -49°C | 0% | 18.2hPa | 2.6V | 03:31:11 | 02:08:22 | 00:00:00 | |
| DO2SHX-10 | 2026-08-31 12:17:06 | 53.23356 | 10.81487 | 13° | 13km/h | 27551m | 6.1m/s | -48.9°C | 3.1% | 18.2hPa | 2.7V | 00:00:00 | 02:08:23 | 00:00:00 | |
| DL1XH-15 | 2026-08-31 12:17:05 | 53.23357 | 10.81475 | 143° | 20km/h | 27531m | 5.5m/s | -49.1°C | 3.2% | 18.2hPa | 2.7V | 03:31:12 | 02:08:20 | 00:00:00 | |
| DL3AQ-11 | 2026-08-31 12:17:05 | 53.23354 | 10.81480 | 114° | 13km/h | 27538m | 6.7m/s | -49.1°C | 0.6% | 18.2hPa | 2.6V | 00:00:00 | 00:00:00 | 00:00:00 | |
| DM0DOS-11 | 2026-08-31 12:17:04 | 53.23375 | 10.81474 | 220° | 15km/h | 27507m | 5.1m/s | -49.2°C | 3.2% | 18.3hPa | 2.6V | 03:31:16 | 02:08:16 | 00:00:00 | |
| DF8AY-15 | 2026-08-31 12:17:04 | 53.23354 | 10.81480 | 115° | 16km/h | 27538m | 6.7m/s | -49.0°C | 3.2% | 18.2hPa | 2.6V | 00:00:00 | 02:08:21 | 00:00:00 | |
| DL1XH1-15 | 2026-08-31 12:17:03 | 53.23377 | 10.81480 | 304° | 7km/h | 27494m | 7.4m/s | -49.2°C | 3.2% | 18.4hPa | 2.7V | 03:31:18 | 02:08:14 | 00:00:00 | |
| AA1-15 | 2026-08-31 12:17:03 | 53.23362 | 10.81471 | 161° | 22km/h | 27526m | 5.9m/s | -49.2°C | 0% | 18.3hPa | 2.7V | 03:32:02 | 02:08:19 | 00:00:00 | |
| BIOWL1-15 | 2026-08-31 12:17:01 | 53.23377 | 10.81480 | 305° | 7km/h | 27494m | 7.4m/s | -49.2°C | 0% | 18.4hPa | 2.7V | 03:32:02 | 02:08:14 | 00:00:00 | |
| DL1XH-west | 2026-08-31 12:16:56 | 53.23375 | 10.81482 | 344° | 13km/h | 27487m | 6.6m/s | -49.2°C | 0% | 18.4hPa | 2.7V | 03:32:02 | 02:08:13 | 00:00:00 | |
| DB0DAN | 2026-08-31 12:16:55 | 53.23372 | 10.81483 | 352° | 16km/h | 27480m | 6.2m/s | -49.2°C | 0.7% | 18.43hPa | 2.7V | 00:00:00 | 00:00:00 | 00:00:00 | |
| DM0DOS-11 | 2026-08-31 12:16:54 | 53.23363 | 10.81477 | 146° | 18km/h | 27444m | 6.7m/s | -48.8°C | 3.2% | 18.5hPa | 2.6V | 03:31:26 | 02:08:06 | 00:00:00 | |
| AA1-15 | 2026-08-31 12:16:51 | 53.23360 | 10.81484 | 76° | 5km/h | 27458m | 6m/s | -48.9°C | 0% | 18.5hPa | 2.7V | 03:32:02 | 02:08:08 | 00:00:00 | |
| DO3MHA-11 | 2026-08-31 12:16:51 | 53.23360 | 10.81484 | 77° | 13km/h | 27458m | 5.9m/s | 0°C | 0% | 0hPa | 2.7V | 00:00:00 | 02:08:08 | 00:00:00 | |
| SO1NDE-10 | 2026-08-31 12:16:50 | 53.23361 | 10.81481 | 129° | 15km/h | 27451m | 7.3m/s | -48.8°C | 3.2% | 18.5hPa | 2.7V | 00:00:00 | 02:08:07 | 00:00:00 | |
| DD8BA-10 | 2026-08-31 12:16:49 | 53.23364 | 10.81477 | 147° | 18km/h | 27444m | 6.6m/s | -48.8°C | 3.2% | 18.5hPa | 2.7V | 00:00:00 | 00:00:00 | 00:00:00 | |
| DL1XH1-15 | 2026-08-31 12:16:48 | 53.23375 | 10.81471 | 175° | 27km/h | 27432m | 5.8m/s | -48.8°C | 3.1% | 18.6hPa | 2.7V | 03:31:28 | 02:08:04 | 00:00:00 | |
| BIOWL1-15 | 2026-08-31 12:16:47 | 53.23381 | 10.81472 | 193° | 26km/h | 27425m | 6.9m/s | -48.8°C | 0% | 18.6hPa | 2.7V | 03:32:02 | 02:08:03 | 00:00:00 | |
| HSKMA3-T | 2026-08-31 12:16:46 | 53.23387 | 10.81476 | 214° | 24km/h | 27419m | 6.2m/s | -48.7°C | 0% | 18.6hPa | 2.6V | 03:32:02 | 02:08:02 | 00:00:00 | |
| DL1XH-west | 2026-08-31 12:16:46 | 53.23391 | 10.81483 | 236° | 22km/h | 27413m | 4.8m/s | -48.8°C | 0% | 18.6hPa | 2.6V | 03:32:02 | 02:08:01 | 00:00:00 | |
| DF8AY | 2026-08-31 12:16:46 | 53.23393 | 10.81493 | 116° | 13km/h | 27377m | 6m/s | -48.5°C | 0% | 18.7hPa | 2.6V | 03:32:02 | 02:07:55 | 00:00:00 | |
| DO2SHX-10 | 2026-08-31 12:16:45 | 53.23387 | 10.81476 | 215° | 22km/h | 27419m | 6.1m/s | -48.7°C | 3.1% | 18.5hPa | 2.6V | 00:00:00 | 02:08:02 | 00:00:00 | |
| DF8AY-15 | 2026-08-31 12:16:44 | 53.23391 | 10.81482 | 236° | 13km/h | 27414m | 4.7m/s | -48.7°C | 3.1% | 18.6hPa | 2.6V | 00:00:00 | 02:08:01 | 00:00:00 | |
| DM0DOS-11 | 2026-08-31 12:16:43 | 53.23392 | 10.81497 | 88° | 9km/h | 27382m | 5.9m/s | -48.6°C | 3.1% | 18.7hPa | 2.6V | 03:31:36 | 02:07:56 | 00:00:00 | |
| DL1XH1-15 | 2026-08-31 12:16:42 | 53.23395 | 10.81489 | 139° | 15km/h | 27370m | 7.3m/s | -48.4°C | 3.1% | 18.7hPa | 2.6V | 03:31:38 | 02:07:54 | 00:00:00 | |
| AA1-15 | 2026-08-31 12:16:41 | 53.23393 | 10.81499 | 299° | 5km/h | 27395m | 7.2m/s | -48.8°C | 0% | 18.7hPa | 2.7V | 03:32:02 | 02:07:58 | 00:00:00 | |
| DB0DAN | 2026-08-31 12:16:40 | 53.23393 | 10.81500 | 53° | 4km/h | 27389m | 6.5m/s | -48.7°C | 0.6% | 18.68hPa | 2.7V | 00:00:00 | 00:00:00 | 00:00:00 | |
| BIOWL1-15 | 2026-08-31 12:16:39 | 53.23395 | 10.81489 | 139° | 15km/h | 27370m | 7.3m/s | -48.4°C | 0% | 18.7hPa | 2.6V | 03:32:02 | 02:07:54 | 00:00:00 | |
| DD8BA-10 | 2026-08-31 12:16:39 | 53.23392 | 10.81497 | 89° | 18km/h | 27383m | 5.9m/s | -48.5°C | 3.1% | 18.6hPa | 2.6V | 00:00:00 | 00:00:00 | 00:00:00 | |
| DL1XH-15 | 2026-08-31 12:16:38 | 53.23416 | 10.81487 | 187° | 26km/h | 27344m | 6m/s | -48.3°C | 3% | 18.8hPa | 2.6V | 03:31:42 | 02:07:50 | 00:00:00 | |
| HSKMA3-T | 2026-08-31 12:16:35 | 53.23410 | 10.81486 | 188° | 26km/h | 27350m | 5.7m/s | -48.3°C | 0% | 18.8hPa | 2.7V | 03:32:02 | 02:07:51 | 00:00:00 | |
| DL1XH-west | 2026-08-31 12:16:35 | 53.23404 | 10.81485 | 179° | 22km/h | 27356m | 6.5m/s | -48.4°C | 0% | 18.8hPa | 2.7V | 03:32:02 | 02:07:52 | 00:00:00 | |
| AA1-15 | 2026-08-31 12:16:30 | 53.23430 | 10.81488 | 180° | 9km/h | 27325m | 5.8m/s | -48.2°C | 0% | 18.8hPa | 2.7V | 03:32:02 | 02:07:47 | 00:00:00 | |
| DO2SHX-10 | 2026-08-31 12:16:30 | 53.23430 | 10.81488 | 180° | 7km/h | 27325m | 5.7m/s | -48.1°C | 3.0% | 18.8hPa | 2.6V | 00:00:00 | 02:07:47 | 00:00:00 | |
| DD8BA-10 | 2026-08-31 12:16:29 | 53.23432 | 10.81489 | 211° | 11km/h | 27319m | 6.3m/s | -48.1°C | 3.0% | 18.8hPa | 2.6V | 03:31:00 | 00:00:00 | 00:00:00 | |
| DL1NUX | 2026-08-31 12:16:28 | 53.23432 | 10.81493 | 296° | 9km/h | 27305m | 6.7m/s | -48.2°C | 3% | 18.9hPa | 2.6V | 03:31:48 | 02:07:44 | 00:00:00 | |
| BIOWL1-15 | 2026-08-31 12:16:27 | 53.23432 | 10.81493 | 297° | 9km/h | 27305m | 6.7m/s | -48.2°C | 0% | 18.9hPa | 2.6V | 03:32:02 | 02:07:44 | 00:00:00 | |
| GOEST3-10 | 2026-08-31 12:16:27 | 53.23432 | 10.81493 | 297° | 7km/h | 27305m | 6.6m/s | -48.1°C | 3.0% | 18.9hPa | 2.7V | 00:00:00 | 02:07:44 | 00:00:00 | |
| DB0DAN | 2026-08-31 12:16:25 | 53.23430 | 10.81497 | 347° | 4km/h | 27293m | 6.4m/s | -48.3°C | 0.6% | 18.97hPa | 2.7V | 00:00:00 | 00:00:00 | 00:00:00 | |
| DL1XH-15 | 2026-08-31 12:16:25 | 53.23430 | 10.81493 | 122° | 11km/h | 27279m | 6.1m/s | -48.4°C | 3% | 19hPa | 2.7V | 03:31:52 | 02:07:40 | 00:00:00 | |
| DL1XH-west | 2026-08-31 12:16:25 | 53.23430 | 10.81497 | 347° | 4km/h | 27293m | 6.4m/s | -48.3°C | 0% | 19hPa | 2.7V | 03:32:02 | 02:07:42 | 00:00:00 | |
| HSKMA3-T | 2026-08-31 12:16:25 | 53.23429 | 10.81496 | 97° | 5km/h | 27286m | 7.4m/s | -48.4°C | 0% | 19hPa | 2.7V | 03:32:02 | 02:07:41 | 00:00:00 | |
| AA1-15 | 2026-08-31 12:16:20 | 53.23442 | 10.81481 | 168° | 22km/h | 27261m | 7.4m/s | -48.5°C | 0% | 19.1hPa | 2.6V | 03:32:02 | 02:07:37 | 00:00:00 | |
| SO1NDE-10 | 2026-08-31 12:16:20 | 53.23442 | 10.81481 | 169° | 11km/h | 27261m | 7.4m/s | -48.4°C | 3.1% | 19.0hPa | 2.6V | 00:00:00 | 02:07:37 | 00:00:00 | |
| DD8BA-10 | 2026-08-31 12:16:19 | 53.23447 | 10.81481 | 185° | 11km/h | 27254m | 6.4m/s | -48.4°C | 3.0% | 19.0hPa | 2.7V | 00:00:00 | 00:00:00 | 00:00:00 | |
| DL1XH1-15 | 2026-08-31 12:16:18 | 53.23457 | 10.81484 | 198° | 15km/h | 27242m | 6m/s | -48.4°C | 3% | 19.1hPa | 2.7V | 03:31:58 | 02:07:34 | 00:00:00 | |
| BIOWL1-15 | 2026-08-31 12:16:16 | 53.23459 | 10.81486 | 194° | 9km/h | 27235m | 6.8m/s | -48.4°C | 0% | 19.1hPa | 2.6V | 03:32:02 | 02:07:33 | 00:00:00 | |
| DL1XH-west | 2026-08-31 12:16:15 | 53.23459 | 10.81477 | 51° | 9km/h | 27209m | 7.1m/s | -48.4°C | 0% | 19.2hPa | 2.7V | 03:32:53 | 02:07:29 | 00:00:00 | |
| DL1XH-15 | 2026-08-31 12:16:14 | 53.23460 | 10.81481 | 56° | 9km/h | 27216m | 6m/s | -48.6°C | 3% | 19.2hPa | 2.7V | 03:32:02 | 02:07:30 | 00:00:00 | |
| DF8AY | 2026-08-31 12:16:14 | 53.23460 | 10.81480 | 56° | 9km/h | 27216m | 6m/s | -48.6°C | 0% | 19.2hPa | 2.7V | 03:32:02 | 02:07:30 | 00:00:00 | |
| DL3AQ-11 | 2026-08-31 12:16:14 | 53.23460 | 10.81480 | 56° | 9km/h | 27216m | 6.0m/s | -48.6°C | 0.6% | 19.2hPa | 2.7V | 00:00:00 | 00:00:00 | 00:00:00 | |
| DJ2DS-15 | 2026-08-31 12:16:13 | 53.23459 | 10.81477 | 50° | 7km/h | 27210m | 7.1m/s | -48.4°C | 0.6% | 19.2hPa | 2.7V | 00:00:00 | 00:00:00 | 00:00:00 | |
| DL1NUX | 2026-08-31 12:16:12 | 53.23458 | 10.81460 | 113° | 15km/h | 27176m | 6.7m/s | -48.7°C | 3.1% | 19.3hPa | 2.7V | 03:32:08 | 02:07:24 | 00:00:00 | |
| DL4BBY-15 | 2026-08-31 12:16:12 | 53.23458 | 10.81477 | 51° | 11km/h | 27210m | 7.1m/s | -47.3°C | 0% | 0hPa | 2.6V | 00:00:00 | 00:00:00 | 00:00:00 | |
| DK7RCA | 2026-08-31 12:16:11 | 53.23459 | 10.81477 | 52° | 9km/h | 27210m | 7.1m/s | -48.4°C | 0.6% | 19.2hPa | 2.6V | 03:32:00 | 00:00:00 | 00:00:00 | |
| DB0DAN | 2026-08-31 12:16:10 | 53.23457 | 10.81472 | 82° | 5km/h | 27196m | 5.7m/s | -48.4°C | 0.6% | 19.24hPa | 2.6V | 00:00:00 | 00:00:00 | 00:00:00 | |
| HSKMA3-T | 2026-08-31 12:16:10 | 53.23457 | 10.81472 | 82° | 7km/h | 27196m | 5.7m/s | -48.4°C | 0% | 19.2hPa | 2.6V | 03:32:53 | 02:07:27 | 00:00:00 | |
| AA1-15 | 2026-08-31 12:16:09 | 53.23457 | 10.81469 | 96° | 9km/h | 27191m | 6.2m/s | -48.5°C | 0% | 19.3hPa | 2.6V | 03:32:53 | 02:07:26 | 00:00:00 | |
| DD8BA-10 | 2026-08-31 12:16:09 | 53.23457 | 10.81469 | 97° | 11km/h | 27191m | 6.2m/s | -48.5°C | 3.0% | 19.2hPa | 2.6V | 00:00:00 | 00:00:00 | 00:00:00 | |
| DL1XH-15 | 2026-08-31 12:16:08 | 53.23468 | 10.81449 | 197° | 11km/h | 27149m | 6.2m/s | -48.5°C | 3.1% | 19.4hPa | 2.6V | 03:32:12 | 02:07:20 | 00:00:00 | |
| BIOWL1-15 | 2026-08-31 12:16:06 | 53.23460 | 10.81454 | 126° | 15km/h | 27170m | 6.2m/s | -48.7°C | 0% | 19.3hPa | 2.7V | 03:32:53 | 02:07:23 | 00:00:00 | |
| DL1XH-west | 2026-08-31 12:16:04 | 53.23471 | 10.81451 | 211° | 9km/h | 27144m | 5m/s | -48.5°C | 0% | 19.4hPa | 2.7V | 03:32:53 | 02:07:19 | 00:00:00 | |
| DF8AY | 2026-08-31 12:16:03 | 53.23469 | 10.81449 | 198° | 11km/h | 27150m | 6.3m/s | -48.5°C | 0% | 19.4hPa | 2.6V | 03:35:26 | 02:07:20 | 00:00:00 | |
| DO3MHA-11 | 2026-08-31 12:16:03 | 53.23469 | 10.81449 | 198° | 7km/h | 27150m | 6.2m/s | 0°C | 0% | 0hPa | 2.7V | 00:00:00 | 02:07:20 | 00:00:00 | |
| DL1XH1-15 | 2026-08-31 12:16:02 | 53.23471 | 10.81436 | 82° | 15km/h | 27112m | 6.3m/s | -48.6°C | 3% | 19.5hPa | 2.7V | 03:32:18 | 02:07:14 | 00:00:00 | |
| AA1-15 | 2026-08-31 12:15:59 | 53.23472 | 10.81448 | 78° | 11km/h | 27125m | 6.2m/s | -48.7°C | 0% | 19.4hPa | 2.6V | 03:32:53 | 02:07:16 | 00:00:00 | |
| DL3AQ-11 | 2026-08-31 12:15:58 | 53.23471 | 10.81436 | 82° | 15km/h | 27113m | 6.3m/s | -48.6°C | 0.6% | 19.5hPa | 2.6V | 00:00:00 | 00:00:00 | 00:00:00 | |
| DO2SHX-10 | 2026-08-31 12:15:57 | 53.23471 | 10.81436 | 83° | 13km/h | 27113m | 6.3m/s | -48.6°C | 3.0% | 19.4hPa | 2.6V | 00:00:00 | 02:07:14 | 00:00:00 | |
| DB0DAN | 2026-08-31 12:15:55 | 53.23472 | 10.81426 | 116° | 9km/h | 27099m | 6.4m/s | -48.7°C | 0.6% | 19.52hPa | 2.6V | 00:00:00 | 00:00:00 | 00:00:00 | |
| DL1XH-15 | 2026-08-31 12:15:55 | 53.23475 | 10.81420 | 145° | 11km/h | 27086m | 6.8m/s | -48.5°C | 3.1% | 19.6hPa | 2.7V | 03:32:22 | 02:07:10 | 00:00:00 | |
| DM0DOS-11 | 2026-08-31 12:15:55 | 53.23485 | 10.81413 | 192° | 13km/h | 27062m | 5.8m/s | -48.5°C | 3.1% | 19.6hPa | 2.6V | 03:32:26 | 02:07:06 | 00:00:00 | |
| DF8AY | 2026-08-31 12:15:53 | 53.23475 | 10.81420 | 145° | 11km/h | 27086m | 6.8m/s | -48.5°C | 0% | 19.6hPa | 2.7V | 03:35:26 | 02:07:10 | 00:00:00 | |
| DL1XH1-15 | 2026-08-31 12:15:52 | 53.23492 | 10.81418 | 211° | 18km/h | 27048m | 6.8m/s | -48.7°C | 3.1% | 19.7hPa | 2.7V | 03:32:28 | 02:07:04 | 00:00:00 | |
| HSKMA3-T | 2026-08-31 12:15:48 | 53.23488 | 10.81415 | 207° | 15km/h | 27055m | 7.7m/s | -48.6°C | 0% | 19.7hPa | 2.6V | 03:32:53 | 02:07:05 | 00:00:00 | |
| DL3AQ-11 | 2026-08-31 12:15:45 | 53.23502 | 10.81423 | 156° | 11km/h | 27029m | 7.0m/s | -48.8°C | 0.7% | 19.8hPa | 2.7V | 00:00:00 | 00:00:00 | 00:00:00 | |
| DM0DOS-11 | 2026-08-31 12:15:44 | 53.23517 | 10.81396 | 140° | 22km/h | 26997m | 5.7m/s | -48.3°C | 3.1% | 19.9hPa | 2.7V | 03:32:36 | 02:06:56 | 00:00:00 | |
| DL1XH-west | 2026-08-31 12:15:43 | 53.23507 | 10.81415 | 123° | 18km/h | 27016m | 5.8m/s | -48.8°C | 0% | 19.8hPa | 2.6V | 03:32:53 | 02:06:59 | 00:00:00 | |
| BIOWL1-15 | 2026-08-31 12:15:43 | 53.23504 | 10.81420 | 130° | 15km/h | 27022m | 5.8m/s | -48.8°C | 0% | 19.8hPa | 2.6V | 03:32:53 | 02:07:00 | 00:00:00 | |
| DL4BBY-15 | 2026-08-31 12:15:42 | 53.23506 | 10.81414 | 123° | 20km/h | 27016m | 5.8m/s | -47.7°C | 0% | 0hPa | 2.7V | 00:00:00 | 00:00:00 | 00:00:00 | |
| DB0DAN | 2026-08-31 12:15:40 | 53.23513 | 10.81402 | 136° | 20km/h | 27003m | 6.8m/s | -48.4°C | 0.6% | 19.83hPa | 2.7V | 00:00:00 | 00:00:00 | 00:00:00 | |
| AA1-15 | 2026-08-31 12:15:38 | 53.23521 | 10.81390 | 141° | 20km/h | 26991m | 5.3m/s | -48.3°C | 0% | 19.9hPa | 2.6V | 03:32:53 | 02:06:55 | 00:00:00 | |
| DF7ER-10 | 2026-08-31 12:15:38 | 53.23521 | 10.81390 | 142° | 20km/h | 26992m | 5.3m/s | -48.3°C | 0.7% | 19.9hPa | 2.6V | 03:32:00 | 00:00:00 | 00:00:00 | |
| DB0UT-7 | 2026-08-31 12:15:37 | 53.23525 | 10.81384 | 139° | 20km/h | 26985m | 7.3m/s | -48.4°C | 3.1% | 19.8hPa | 2.6V | 03:32:00 | 02:06:54 | 00:00:00 | |
| DO2SHX-10 | 2026-08-31 12:15:36 | 53.23529 | 10.81380 | 140° | 15km/h | 26978m | 6.7m/s | -48.4°C | 3.1% | 19.9hPa | 2.6V | 00:00:00 | 02:06:53 | 00:00:00 | |
| DL3AQ-11 | 2026-08-31 12:15:34 | 53.23540 | 10.81374 | 185° | 16km/h | 26958m | 7.6m/s | -48.5°C | 0.6% | 20.0hPa | 2.6V | 00:00:00 | 00:00:00 | 00:00:00 | |
| DO2SHX-10 | 2026-08-31 12:15:33 | 53.23540 | 10.81374 | 186° | 18km/h | 26958m | 7.5m/s | -48.4°C | 3.1% | 19.9hPa | 2.6V | 00:00:00 | 02:06:50 | 00:00:00 | |
| DL1XH1-15 | 2026-08-31 12:15:32 | 53.23566 | 10.81353 | 118° | 31km/h | 26921m | 5.6m/s | -48.1°C | 3% | 20.1hPa | 2.6V | 03:32:48 | 02:06:44 | 00:00:00 | |
| DL1XH-west | 2026-08-31 12:15:31 | 53.23554 | 10.81375 | 164° | 18km/h | 26941m | 5.9m/s | -48.3°C | 0% | 20hPa | 2.7V | 03:32:53 | 02:06:47 | 00:00:00 | |
| DF8AY | 2026-08-31 12:15:29 | 53.23591 | 10.81291 | 116° | 13km/h | 26883m | 6.7m/s | -48.1°C | 0% | 20.2hPa | 2.6V | 03:35:26 | 02:06:38 | 00:00:00 | |
| HSKMA3-T | 2026-08-31 12:15:28 | 53.23562 | 10.81364 | 123° | 26km/h | 26927m | 6.6m/s | -48.2°C | 0% | 20.1hPa | 2.7V | 03:32:53 | 02:06:45 | 00:00:00 | |
| DL1XH-15 | 2026-08-31 12:15:28 | 53.23585 | 10.81306 | 126° | 29km/h | 26896m | 5.3m/s | -48°C | 3% | 20.1hPa | 2.7V | 03:32:52 | 02:06:40 | 00:00:00 | |
| AA1-15 | 2026-08-31 12:15:28 | 53.23566 | 10.81353 | 119° | 31km/h | 26921m | 5.6m/s | -48.1°C | 0% | 20.1hPa | 2.6V | 03:32:53 | 02:06:44 | 00:00:00 | |
| DO2SHX-10 | 2026-08-31 12:15:27 | 53.23566 | 10.81353 | 119° | 35km/h | 26921m | 5.6m/s | -48.0°C | 3.0% | 20.0hPa | 2.6V | 03:32:00 | 02:06:44 | 00:00:00 | |
| DB0DAN | 2026-08-31 12:15:25 | 53.23575 | 10.81328 | 125° | 35km/h | 26907m | 6.8m/s | -48.2°C | 0.6% | 20.12hPa | 2.6V | 00:00:00 | 00:00:00 | 00:00:00 | |
| BIOWL1-15 | 2026-08-31 12:15:23 | 53.23609 | 10.81273 | 121° | 20km/h | 26834m | 6m/s | -47.8°C | 0% | 20.4hPa | 2.7V | 03:33:44 | 02:06:30 | 00:00:00 | |
| DL1NUX | 2026-08-31 12:15:22 | 53.23597 | 10.81285 | 177° | 11km/h | 26858m | 5.5m/s | -47.9°C | 3% | 20.3hPa | 2.6V | 03:32:58 | 02:06:34 | 00:00:00 | |
| DL1XH-west | 2026-08-31 12:15:21 | 53.23597 | 10.81285 | 178° | 11km/h | 26858m | 5.6m/s | -47.9°C | 0% | 20.3hPa | 2.6V | 03:33:44 | 02:06:34 | 00:00:00 | |
| DF8AY | 2026-08-31 12:15:18 | 53.23603 | 10.81282 | 152° | 15km/h | 26847m | 6.1m/s | -47.8°C | 0% | 20.3hPa | 2.7V | 03:35:26 | 02:06:32 | 00:00:00 | |
| AA1-15 | 2026-08-31 12:15:18 | 53.23606 | 10.81279 | 134° | 16km/h | 26841m | 7.1m/s | -47.8°C | 0% | 20.3hPa | 2.7V | 03:33:44 | 02:06:31 | 00:00:00 | |
| DL1XH-15 | 2026-08-31 12:15:17 | 53.23609 | 10.81273 | 120° | 20km/h | 26834m | 6m/s | -47.8°C | 2.9% | 20.4hPa | 2.7V | 03:33:02 | 02:06:30 | 00:00:00 | |
| DM0DOS-11 | 2026-08-31 12:15:16 | 53.23624 | 10.81236 | 134° | 29km/h | 26810m | 6.5m/s | -47.9°C | 2.9% | 20.4hPa | 2.7V | 03:33:06 | 02:06:26 | 00:00:00 | |
| DL1XH-west | 2026-08-31 12:15:11 | 53.23619 | 10.81246 | 128° | 29km/h | 26816m | 6.7m/s | -47.9°C | 0% | 20.4hPa | 2.6V | 03:33:44 | 02:06:27 | 00:00:00 | |
| DB0DAN | 2026-08-31 12:15:10 | 53.23619 | 10.81246 | 128° | 27km/h | 26816m | 6.7m/s | -47.9°C | 0.6% | 20.4hPa | 2.6V | 00:00:00 | 00:00:00 | 00:00:00 | |
| DO3MHA-11 | 2026-08-31 12:15:10 | 53.23619 | 10.81246 | 128° | 15km/h | 26817m | 6.6m/s | 0°C | 0% | 0hPa | 2.7V | 00:00:00 | 02:06:27 | 00:00:00 | |
| DD8BA-10 | 2026-08-31 12:15:09 | 53.23623 | 10.81236 | 135° | 15km/h | 26810m | 6.5m/s | -47.9°C | 2.9% | 20.3hPa | 2.7V | 03:33:00 | 00:00:00 | 00:00:00 | |
| DL1XH1-15 | 2026-08-31 12:15:08 | 53.23634 | 10.81221 | 138° | 24km/h | 26798m | 5.3m/s | -47.8°C | 2.9% | 20.4hPa | 2.7V | 03:33:08 | 02:06:24 | 00:00:00 | |
| HSKMA3-T | 2026-08-31 12:15:05 | 53.23641 | 10.81206 | 112° | 7km/h | 26779m | 5.3m/s | -48°C | 0% | 20.5hPa | 2.6V | 03:33:44 | 02:06:21 | 00:00:00 | |
| DL1XH-15 | 2026-08-31 12:15:05 | 53.23642 | 10.81204 | 136° | 5km/h | 26773m | 6.6m/s | -47.9°C | 2.9% | 20.5hPa | 2.7V | 03:33:12 | 02:06:20 | 00:00:00 | |
| DF8AY | 2026-08-31 12:15:04 | 53.23642 | 10.81204 | 136° | 5km/h | 26773m | 6.6m/s | -47.9°C | 0% | 20.5hPa | 2.7V | 03:35:26 | 02:06:20 | 00:00:00 | |
| BIOWL1-15 | 2026-08-31 12:15:02 | 53.23647 | 10.81200 | 160° | 9km/h | 26755m | 5.4m/s | -48.1°C | 0% | 20.6hPa | 2.6V | 03:33:44 | 02:06:17 | 00:00:00 | |
| GOEST3-10 | 2026-08-31 12:15:02 | 53.23643 | 10.81202 | 161° | 9km/h | 26767m | 7.0m/s | -47.8°C | 2.9% | 20.5hPa | 2.7V | 00:00:00 | 00:00:00 | 00:00:00 | |
| DL1NUX | 2026-08-31 12:15:01 | 53.23653 | 10.81194 | 137° | 13km/h | 26736m | 5.4m/s | -48.2°C | 2.9% | 20.7hPa | 2.7V | 03:33:18 | 02:06:14 | 00:00:00 | |
| DL1XH-west | 2026-08-31 12:15:00 | 53.23649 | 10.81199 | 148° | 7km/h | 26749m | 7.2m/s | -48°C | 0% | 20.6hPa | 2.6V | 03:33:44 | 02:06:16 | 00:00:00 | |
| DO2SHX-10 | 2026-08-31 12:15:00 | 53.23647 | 10.81200 | 161° | 9km/h | 26755m | 5.3m/s | -48.0°C | 2.9% | 20.5hPa | 2.6V | 00:00:00 | 02:06:17 | 00:00:00 | |
| DO3MHA-11 | 2026-08-31 12:14:59 | 53.23649 | 10.81199 | 148° | 15km/h | 26749m | 7.1m/s | 0°C | 0% | 0hPa | 2.6V | 00:00:00 | 02:06:16 | 00:00:00 | |
| DL1XH-15 | 2026-08-31 12:14:58 | 53.23674 | 10.81167 | 120° | 9km/h | 26699m | 6m/s | -48.4°C | 3% | 20.8hPa | 2.6V | 03:33:24 | 02:06:08 | 00:00:00 | |
| SONDE2-11 | 2026-08-31 12:14:57 | 53.23653 | 10.81194 | 137° | 11km/h | 26736m | 5.4m/s | -48.2°C | 0.6% | 20.7hPa | 2.6V | 00:00:00 | 00:00:00 | 00:00:00 | |
| EDDB2-12 | 2026-08-31 12:14:56 | 53.23656 | 10.81190 | 144° | 16km/h | 26730m | 6.8m/s | -48.3°C | 0.6% | 20.7hPa | 2.6V | 00:00:00 | 00:00:00 | 00:00:00 | |
| DB0DAN | 2026-08-31 12:14:55 | 53.23659 | 10.81186 | 148° | 20km/h | 26723m | 7m/s | -48.2°C | 0.6% | 20.67hPa | 2.6V | 00:00:00 | 00:00:00 | 00:00:00 | |
| S3001 | 2026-08-31 12:14:55 | 53.23659 | 10.81186 | 147° | 20km/h | 26723m | 7.0m/s | -48.2°C | 0.6% | 20.7hPa | 2.6V | 00:00:00 | 00:00:00 | 00:00:00 | |
| DF8AY | 2026-08-31 12:14:54 | 53.23679 | 10.81143 | 97° | 13km/h | 26650m | 5.1m/s | -48.7°C | 0% | 20.9hPa | 2.6V | 03:35:26 | 02:06:00 | 00:00:00 | |
| AA1-15 | 2026-08-31 12:14:53 | 53.23672 | 10.81171 | 136° | 15km/h | 26705m | 7.2m/s | -48.4°C | 0% | 20.7hPa | 2.7V | 03:33:44 | 02:06:09 | 00:00:00 | |
| BIOWL1-15 | 2026-08-31 12:14:50 | 53.23675 | 10.81164 | 107° | 7km/h | 26693m | 4.7m/s | -48.5°C | 0% | 20.8hPa | 2.6V | 03:33:44 | 02:06:07 | 00:00:00 | |
| DL1ZP-14 | 2026-08-31 12:14:49 | 53.23676 | 10.81159 | 126° | 7km/h | 26681m | 6.8m/s | -48.6°C | 0.6% | 20.8hPa | 2.7V | 00:00:00 | 00:00:00 | 00:00:00 | |
| DO2SHX-10 | 2026-08-31 12:14:48 | 53.23676 | 10.81158 | 127° | 7km/h | 26681m | 6.7m/s | -48.5°C | 3.0% | 20.8hPa | 2.7V | 00:00:00 | 02:06:05 | 00:00:00 | |
| GOEST3-10 | 2026-08-31 12:14:47 | 53.23677 | 10.81156 | 134° | 9km/h | 26675m | 5.6m/s | -48.5°C | 3.0% | 20.8hPa | 2.7V | 00:00:00 | 02:06:04 | 00:00:00 | |
| DL1XH-15 | 2026-08-31 12:14:46 | 53.23682 | 10.81131 | 122° | 20km/h | 26638m | 6.8m/s | -48.8°C | 3% | 20.9hPa | 2.7V | 03:33:34 | 02:05:58 | 00:00:00 | |
| HSKMA3-T | 2026-08-31 12:14:44 | 53.23679 | 10.81148 | 86° | 9km/h | 26656m | 5.9m/s | -48.6°C | 0% | 20.9hPa | 2.6V | 03:33:44 | 02:06:01 | 00:00:00 | |
| DM0DOS-11 | 2026-08-31 12:14:44 | 53.23689 | 10.81115 | 127° | 24km/h | 26627m | 4.8m/s | -48.9°C | 3.1% | 21hPa | 2.6V | 03:33:36 | 02:05:56 | 00:00:00 | |
| DF8AY | 2026-08-31 12:14:43 | 53.23695 | 10.81095 | 94° | 11km/h | 26609m | 5.8m/s | -48.9°C | 0% | 21hPa | 2.7V | 03:35:26 | 02:05:53 | 00:00:00 | |
| AA1-15 | 2026-08-31 12:14:42 | 53.23680 | 10.81137 | 111° | 16km/h | 26645m | 6.2m/s | -48.9°C | 0% | 20.9hPa | 2.7V | 03:33:44 | 02:05:59 | 00:00:00 | |
| DL1XH-west | 2026-08-31 12:14:40 | 53.23686 | 10.81123 | 129° | 24km/h | 26633m | 5.7m/s | -48.8°C | 0% | 21hPa | 2.7V | 03:33:44 | 02:05:57 | 00:00:00 | |
| DB0DAN | 2026-08-31 12:14:40 | 53.23686 | 10.81123 | 129° | 22km/h | 26633m | 5.7m/s | -48.8°C | 0.6% | 20.96hPa | 2.7V | 00:00:00 | 00:00:00 | 00:00:00 | |
| BIOWL1-15 | 2026-08-31 12:14:39 | 53.23695 | 10.81091 | 84° | 7km/h | 26604m | 5.1m/s | -49.1°C | 0% | 21.1hPa | 2.6V | 03:33:44 | 02:05:52 | 00:00:00 | |
| DO2SHX-10 | 2026-08-31 12:14:39 | 53.23689 | 10.81115 | 128° | 20km/h | 26628m | 4.7m/s | -48.8°C | 3.1% | 21.0hPa | 2.6V | 03:33:00 | 02:05:56 | 00:00:00 | |
| DB0UT-7 | 2026-08-31 12:14:38 | 53.23694 | 10.81101 | 111° | 11km/h | 26616m | 6.5m/s | -48.8°C | 3.0% | 21.0hPa | 2.7V | 00:00:00 | 02:05:54 | 00:00:00 | |
| HTAHTA | 2026-08-31 12:14:37 | 53.23695 | 10.81095 | 93° | 11km/h | 26610m | 5.8m/s | -48.9°C | 0.6% | 21.0hPa | 2.7V | 00:00:00 | 00:00:00 | 00:00:00 | |
| DL1XH-15 | 2026-08-31 12:14:36 | 53.23698 | 10.81084 | 133° | 5km/h | 26581m | 5.4m/s | -49.2°C | 3.1% | 21.2hPa | 2.7V | 03:33:44 | 02:05:48 | 00:00:00 | |
| DF7ER-10 | 2026-08-31 12:14:36 | 53.23695 | 10.81095 | 95° | 11km/h | 26610m | 5.8m/s | -48.9°C | 0.7% | 21.0hPa | 2.6V | 03:33:00 | 00:00:00 | 00:00:00 | |
| DM0DOS-11 | 2026-08-31 12:14:34 | 53.23699 | 10.81078 | 87° | 9km/h | 26568m | 6.2m/s | -49.2°C | 3.1% | 21.2hPa | 2.6V | 03:33:46 | 02:05:46 | 00:00:00 | |
| HSKMA3-T | 2026-08-31 12:14:33 | 53.23696 | 10.81087 | 136° | 5km/h | 26592m | 6.2m/s | -49.1°C | 0% | 21.1hPa | 2.7V | 03:33:44 | 02:05:50 | 00:00:00 | |
| AA1-15 | 2026-08-31 12:14:31 | 53.23698 | 10.81084 | 133° | 5km/h | 26581m | 5.4m/s | -49.2°C | 0% | 21.2hPa | 2.7V | 03:33:44 | 02:05:48 | 00:00:00 | |
| DL1XH-west | 2026-08-31 12:14:29 | 53.23699 | 10.81078 | 88° | 11km/h | 26568m | 6.2m/s | -49.2°C | 0% | 21.2hPa | 2.6V | 03:34:35 | 02:05:46 | 00:00:00 | |
| DF8AY | 2026-08-31 12:14:28 | 53.23700 | 10.81001 | 96° | 9km/h | 26468m | 5.4m/s | -49.5°C | 0% | 21.5hPa | 2.7V | 03:35:26 | 02:05:28 | 00:00:00 | |
| BIOWL1-15 | 2026-08-31 12:14:26 | 53.23705 | 10.81050 | 123° | 16km/h | 26540m | 4.4m/s | -49.4°C | 0% | 21.3hPa | 2.6V | 03:34:35 | 02:05:41 | 00:00:00 | |
| DB0DAN | 2026-08-31 12:14:25 | 53.23702 | 10.81056 | 126° | 16km/h | 26545m | 5.9m/s | -49.3°C | 0.7% | 21.26hPa | 2.7V | 00:00:00 | 00:00:00 | 00:00:00 | |
| DL3AQ-11 | 2026-08-31 12:14:25 | 53.23705 | 10.81050 | 123° | 15km/h | 26540m | 4.4m/s | -49.4°C | 0.6% | 21.3hPa | 2.7V | 00:00:00 | 00:00:00 | 00:00:00 | |
| DL1XH-15 | 2026-08-31 12:14:24 | 53.23706 | 10.81033 | 66° | 15km/h | 26523m | 5.6m/s | -49.3°C | 3.1% | 21.4hPa | 2.7V | 03:33:54 | 02:05:38 | 00:00:00 | |
| DM0DOS-11 | 2026-08-31 12:14:24 | 53.23702 | 10.81022 | 52° | 15km/h | 26513m | 5.2m/s | -49.5°C | 3.2% | 21.4hPa | 2.7V | 03:33:56 | 02:05:36 | 00:00:00 | |
| HSKMA3-T | 2026-08-31 12:14:22 | 53.23706 | 10.81033 | 67° | 15km/h | 26523m | 5.6m/s | -49.3°C | 0% | 21.4hPa | 2.7V | 03:34:35 | 02:05:38 | 00:00:00 | |
| AA1-15 | 2026-08-31 12:14:21 | 53.23705 | 10.81027 | 54° | 16km/h | 26518m | 4.9m/s | -49.4°C | 0% | 21.3hPa | 2.7V | 03:34:35 | 02:05:37 | 00:00:00 | |
| DL1NUX | 2026-08-31 12:14:21 | 53.23700 | 10.81014 | 81° | 7km/h | 26501m | 6.3m/s | -49.4°C | 3.2% | 21.4hPa | 2.6V | 03:33:58 | 02:05:34 | 00:00:00 | |
| DL1XH-west | 2026-08-31 12:14:19 | 53.23701 | 10.81018 | 62° | 11km/h | 26508m | 5.9m/s | -49.4°C | 0% | 21.4hPa | 2.6V | 03:34:35 | 02:05:35 | 00:00:00 | |
| BIOWL1-15 | 2026-08-31 12:14:18 | 53.23700 | 10.81007 | 88° | 4km/h | 26484m | 6.7m/s | -49.4°C | 0% | 21.5hPa | 2.6V | 03:34:35 | 02:05:31 | 00:00:00 | |
| DO2SHX-10 | 2026-08-31 12:14:18 | 53.23701 | 10.81018 | 62° | 9km/h | 26508m | 5.8m/s | -49.3°C | 3.2% | 21.3hPa | 2.6V | 00:00:00 | 02:05:35 | 00:00:00 | |
| DD8BA-10 | 2026-08-31 12:14:17 | 53.23700 | 10.81014 | 82° | 7km/h | 26502m | 6.3m/s | -49.4°C | 3.2% | 21.3hPa | 2.6V | 00:00:00 | 00:00:00 | 00:00:00 | |
| DO2SHX-10 | 2026-08-31 12:14:15 | 53.23700 | 10.81009 | 116° | 4km/h | 26490m | 5.1m/s | -49.5°C | 3.2% | 21.4hPa | 2.6V | 03:34:00 | 02:05:32 | 00:00:00 | |
| DL3AQ-11 | 2026-08-31 12:14:14 | 53.23700 | 10.81006 | 69° | 4km/h | 26478m | 5.5m/s | -49.4°C | 0.7% | 21.5hPa | 2.6V | 00:00:00 | 00:00:00 | 00:00:00 | |
| AM1SDL-15 | 2026-08-31 12:14:13 | 53.23700 | 10.81006 | 70° | 9km/h | 26479m | 5.5m/s | -49.4°C | 3.2% | 21.4hPa | 2.6V | 00:00:00 | 02:05:30 | 00:00:00 | |
| DM0DOS-11 | 2026-08-31 12:14:12 | 53.23702 | 10.80992 | 118° | 13km/h | 26455m | 5.7m/s | -49.4°C | 3.2% | 21.5hPa | 2.6V | 03:34:06 | 02:05:26 | 00:00:00 | |
| HSKMA3-T | 2026-08-31 12:14:11 | 53.23700 | 10.80997 | 113° | 11km/h | 26462m | 7m/s | -49.4°C | 0% | 21.6hPa | 2.7V | 03:34:35 | 02:05:27 | 00:00:00 | |
| DB0DAN | 2026-08-31 12:14:10 | 53.23700 | 10.80997 | 113° | 11km/h | 26462m | 7m/s | -49.4°C | 0.7% | 21.55hPa | 2.7V | 00:00:00 | 00:00:00 | 00:00:00 | |
| AA1-15 | 2026-08-31 12:14:09 | 53.23702 | 10.80992 | 119° | 13km/h | 26455m | 5.7m/s | -49.4°C | 0% | 21.5hPa | 2.6V | 03:34:35 | 02:05:26 | 00:00:00 | |
| DL1XH-west | 2026-08-31 12:14:08 | 53.23704 | 10.80977 | 73° | 11km/h | 26438m | 6.4m/s | -49.4°C | 0% | 21.6hPa | 2.7V | 03:34:35 | 02:05:23 | 00:00:00 | |
| DF8AY | 2026-08-31 12:14:07 | 53.23701 | 10.80954 | 82° | 11km/h | 26380m | 5.6m/s | -49.4°C | 0% | 21.8hPa | 2.6V | 03:35:26 | 02:05:13 | 00:00:00 | |
| DD8BA-10 | 2026-08-31 12:14:07 | 53.23704 | 10.80982 | 97° | 7km/h | 26445m | 6.3m/s | -49.5°C | 3.3% | 21.5hPa | 2.6V | 00:00:00 | 00:00:00 | 00:00:00 | |
| DL1XH-15 | 2026-08-31 12:14:06 | 53.23701 | 10.80966 | 149° | 5km/h | 26409m | 5.4m/s | -49.4°C | 3.2% | 21.7hPa | 2.6V | 03:34:14 | 02:05:18 | 00:00:00 | |
| BIOWL1-15 | 2026-08-31 12:14:04 | 53.23701 | 10.80970 | 44° | 9km/h | 26427m | 5.4m/s | -49.5°C | 0% | 21.7hPa | 2.7V | 03:34:35 | 02:05:21 | 00:00:00 | |
| DF8AY-15 | 2026-08-31 12:14:04 | 53.23701 | 10.80970 | 44° | 9km/h | 26427m | 5.3m/s | -49.5°C | 3.2% | 21.6hPa | 2.7V | 00:00:00 | 02:05:21 | 00:00:00 | |
| BIOWL9-15 | 2026-08-31 12:14:03 | 53.23700 | 10.80967 | 124° | 2km/h | 26415m | 6.3m/s | -49.6°C | 0.7% | 21.7hPa | 2.6V | 00:00:00 | 00:00:00 | 00:00:00 | |
| GOEST3-10 | 2026-08-31 12:14:02 | 53.23700 | 10.80967 | 125° | 5km/h | 26415m | 6.2m/s | -49.5°C | 3.2% | 21.6hPa | 2.6V | 00:00:00 | 00:00:00 | 00:00:00 | |
| DM0DOS-11 | 2026-08-31 12:14:01 | 53.23702 | 10.80963 | 109° | 4km/h | 26398m | 6.6m/s | -49.5°C | 3.2% | 21.7hPa | 2.7V | 03:34:16 | 02:05:16 | 00:00:00 | |
| HSKMA3-T | 2026-08-31 12:14:00 | 53.23702 | 10.80965 | 143° | 5km/h | 26404m | 5.2m/s | -49.5°C | 0% | 21.7hPa | 2.7V | 03:34:35 | 02:05:17 | 00:00:00 | |
| AA1-15 | 2026-08-31 12:13:59 | 53.23702 | 10.80961 | 67° | 5km/h | 26391m | 5.9m/s | -49.5°C | 0% | 21.8hPa | 2.7V | 03:34:35 | 02:05:15 | 00:00:00 | |
| DL1XH1-15 | 2026-08-31 12:13:58 | 53.23702 | 10.80958 | 73° | 9km/h | 26386m | 5m/s | -49.3°C | 3.1% | 21.8hPa | 2.6V | 03:34:18 | 02:05:14 | 00:00:00 | |
| DL1XH-west | 2026-08-31 12:13:56 | 53.23701 | 10.80949 | 95° | 13km/h | 26374m | 6.7m/s | -49.4°C | 0% | 21.8hPa | 2.7V | 03:34:35 | 02:05:12 | 00:00:00 | |
| DL1XH-15 | 2026-08-31 12:13:55 | 53.23702 | 10.80930 | 42° | 7km/h | 26354m | 6.9m/s | -49.5°C | 3.2% | 21.9hPa | 2.7V | 03:34:24 | 02:05:08 | 00:00:00 | |
| DB0DAN | 2026-08-31 12:13:55 | 53.23701 | 10.80949 | 95° | 13km/h | 26375m | 6.7m/s | -49.4°C | 0.7% | 21.81hPa | 2.7V | 00:00:00 | 00:00:00 | 00:00:00 | |
| BIOWL1-15 | 2026-08-31 12:13:53 | 53.23702 | 10.80930 | 42° | 7km/h | 26354m | 6.9m/s | -49.5°C | 0% | 21.9hPa | 2.7V | 03:34:35 | 02:05:08 | 00:00:00 | |
| HSKMA3-T | 2026-08-31 12:13:50 | 53.23698 | 10.80931 | 326° | 11km/h | 26342m | 5.1m/s | -49.5°C | 0% | 21.9hPa | 2.7V | 03:34:35 | 02:05:06 | 00:00:00 | |
| AA1-15 | 2026-08-31 12:13:49 | 53.23696 | 10.80934 | 306° | 11km/h | 26337m | 4.9m/s | -49.5°C | 0% | 21.9hPa | 2.6V | 03:34:35 | 02:05:05 | 00:00:00 | |
| DL1XH-west | 2026-08-31 12:13:44 | 53.23697 | 10.80946 | 220° | 5km/h | 26315m | 5.7m/s | -49.5°C | 0% | 22hPa | 2.7V | 03:34:35 | 02:05:01 | 00:00:00 | |
| DL1XH-15 | 2026-08-31 12:13:44 | 53.23697 | 10.80943 | 54° | 9km/h | 26298m | 4.5m/s | -49.4°C | 3.2% | 22.1hPa | 2.6V | 03:34:34 | 02:04:58 | 00:00:00 | |
| DF8AY | 2026-08-31 12:13:42 | 53.23698 | 10.80946 | 43° | 5km/h | 26303m | 5.7m/s | -49.5°C | 0% | 22.1hPa | 2.6V | 03:35:26 | 02:04:59 | 00:00:00 | |
| DL4BBY-15 | 2026-08-31 12:13:42 | 53.23698 | 10.80946 | 43° | 9km/h | 26304m | 5.6m/s | -48.4°C | 0% | 0hPa | 2.6V | 00:00:00 | 00:00:00 | 00:00:00 | |
| DB0DAN | 2026-08-31 12:13:40 | 53.23695 | 10.80939 | 67° | 13km/h | 26294m | 4.8m/s | -49.5°C | 0.7% | 22.09hPa | 2.6V | 00:00:00 | 00:00:00 | 00:00:00 | |
| AA1-15 | 2026-08-31 12:13:38 | 53.23692 | 10.80921 | 66° | 13km/h | 26277m | 4.6m/s | -49.3°C | 0% | 22.2hPa | 2.7V | 03:35:26 | 02:04:54 | 00:00:00 | |
| DL1XH-west | 2026-08-31 12:13:33 | 53.23681 | 10.80920 | 319° | 16km/h | 26255m | 4.8m/s | -49.3°C | 0% | 22.2hPa | 2.7V | 03:35:26 | 02:04:50 | 00:00:00 | |
| DM0DOS-11 | 2026-08-31 12:13:33 | 53.23677 | 10.80942 | 279° | 4km/h | 26230m | 5.7m/s | -49.2°C | 3.1% | 22.3hPa | 2.7V | 03:34:47 | 02:04:45 | 00:00:00 | |
| BIOWL1-15 | 2026-08-31 12:13:32 | 53.23678 | 10.80925 | 302° | 16km/h | 26250m | 5.9m/s | -49.4°C | 0% | 22.2hPa | 2.6V | 03:35:26 | 02:04:49 | 00:00:00 | |
| DF8AY | 2026-08-31 12:13:31 | 53.23677 | 10.80931 | 283° | 15km/h | 26244m | 5.5m/s | -49.3°C | 0% | 22.3hPa | 2.6V | 03:35:26 | 02:04:48 | 00:00:00 | |
| HSKMA3-T | 2026-08-31 12:13:28 | 53.23676 | 10.80942 | 357° | 5km/h | 26224m | 6.4m/s | -49.2°C | 0% | 22.4hPa | 2.6V | 03:35:26 | 02:04:44 | 00:00:00 | |
| GOEST3-10 | 2026-08-31 12:13:27 | 53.23676 | 10.80942 | 357° | 7km/h | 26224m | 6.3m/s | -49.2°C | 3.1% | 22.3hPa | 2.6V | 00:00:00 | 02:04:44 | 00:00:00 | |
| AA1-15 | 2026-08-31 12:13:27 | 53.23674 | 10.80942 | 16° | 9km/h | 26218m | 5.2m/s | -49.2°C | 0% | 22.4hPa | 2.6V | 03:35:26 | 02:04:43 | 00:00:00 | |
| TFSTFS | 2026-08-31 12:13:26 | 53.23676 | 10.80942 | 358° | 5km/h | 26224m | 6.4m/s | -49.2°C | 0.7% | 22.4hPa | 2.6V | 00:00:00 | 00:00:00 | 00:00:00 | |
| DB0DAN | 2026-08-31 12:13:25 | 53.23672 | 10.80941 | 23° | 9km/h | 26213m | 4.1m/s | -49.1°C | 0.6% | 22.38hPa | 2.6V | 00:00:00 | 00:00:00 | 00:00:00 | |
| DL4XJ-10 | 2026-08-31 12:13:25 | 53.23672 | 10.80941 | 23° | 9km/h | 26214m | 4.0m/s | -48.0°C | 0% | 0hPa | 2.6V | 00:00:00 | 00:00:00 | 00:00:00 | |
| DL1XH-15 | 2026-08-31 12:13:24 | 53.23668 | 10.80936 | 185° | 4km/h | 26192m | 4.8m/s | -49.1°C | 3.1% | 22.4hPa | 2.6V | 03:34:54 | 02:04:38 | 00:00:00 | |
| DM0DOS-11 | 2026-08-31 12:13:23 | 53.23667 | 10.80943 | 327° | 11km/h | 26171m | 5.8m/s | -49.2°C | 3.1% | 22.5hPa | 2.7V | 03:34:58 | 02:04:34 | 00:00:00 | |
| DL1XH-west | 2026-08-31 12:13:22 | 53.23668 | 10.80936 | 92° | 2km/h | 26198m | 6.1m/s | -49.1°C | 0% | 22.4hPa | 2.7V | 03:35:26 | 02:04:39 | 00:00:00 | |
| BIOWL1-15 | 2026-08-31 12:13:21 | 53.23668 | 10.80936 | 185° | 4km/h | 26192m | 4.8m/s | -49.2°C | 0% | 22.4hPa | 2.6V | 03:35:26 | 02:04:38 | 00:00:00 | |
| DF8AY | 2026-08-31 12:13:18 | 53.23667 | 10.80943 | 328° | 11km/h | 26171m | 5.8m/s | -49.3°C | 0% | 22.5hPa | 2.7V | 03:35:26 | 02:04:34 | 00:00:00 | |
| HSKMA3-T | 2026-08-31 12:13:17 | 53.23665 | 10.80945 | 328° | 13km/h | 26166m | 5.2m/s | -49.2°C | 0% | 22.5hPa | 2.7V | 03:35:26 | 02:04:33 | 00:00:00 | |
| AA1-15 | 2026-08-31 12:13:16 | 53.23662 | 10.80948 | 320° | 11km/h | 26161m | 5.3m/s | -49.2°C | 0% | 22.5hPa | 2.6V | 03:35:26 | 02:04:32 | 00:00:00 | |
| DC4HF-4 | 2026-08-31 12:13:15 | 53.23660 | 10.80952 | 301° | 9km/h | 26155m | 6.5m/s | -49.3°C | 0.6% | 22.6hPa | 2.6V | 00:00:00 | 00:00:00 | 00:00:00 | |
| DL1XH-15 | 2026-08-31 12:13:14 | 53.23658 | 10.80961 | 306° | 7km/h | 26138m | 6.6m/s | -49.3°C | 3.1% | 22.6hPa | 2.6V | 03:35:04 | 02:04:28 | 00:00:00 | |
| DL1XH-west | 2026-08-31 12:13:12 | 53.23658 | 10.80961 | 306° | 7km/h | 26138m | 6.6m/s | -49.3°C | 0% | 22.6hPa | 2.6V | 03:35:26 | 02:04:28 | 00:00:00 | |
| BIOWL1-15 | 2026-08-31 12:13:11 | 53.23654 | 10.80963 | 110° | 2km/h | 26109m | 4.8m/s | -49.4°C | 0% | 22.7hPa | 2.6V | 03:35:26 | 02:04:23 | 00:00:00 | |
| DB0DAN | 2026-08-31 12:13:10 | 53.23657 | 10.80963 | 332° | 5km/h | 26132m | 5.8m/s | -49.2°C | 0.6% | 22.68hPa | 2.6V | 00:00:00 | 00:00:00 | 00:00:00 | |
| DB0NH | 2026-08-31 12:13:10 | 53.23656 | 10.80963 | 332° | 5km/h | 26132m | 5.8m/s | -49.2°C | 3.1% | 22.6hPa | 2.7V | 00:00:00 | 02:04:27 | 00:00:00 | |
| DL1XH1-15 | 2026-08-31 12:13:09 | 53.23654 | 10.80964 | 122° | 2km/h | 26115m | 6.6m/s | -49.3°C | 3.1% | 22.7hPa | 2.7V | 03:35:08 | 02:04:24 | 00:00:00 | |
| DF8AY | 2026-08-31 12:13:08 | 53.23654 | 10.80964 | 123° | 2km/h | 26115m | 6.6m/s | -49.3°C | 0% | 22.7hPa | 2.7V | 03:35:26 | 02:04:24 | 00:00:00 | |
| AA1-15 | 2026-08-31 12:13:05 | 53.23653 | 10.80960 | 29° | 7km/h | 26099m | 6.7m/s | -49.5°C | 0% | 22.8hPa | 2.6V | 03:35:26 | 02:04:21 | 00:00:00 | |
| DL3AQ-11 | 2026-08-31 12:13:05 | 53.23653 | 10.80960 | 28° | 7km/h | 26099m | 6.7m/s | -49.5°C | 0.7% | 22.8hPa | 2.7V | 00:00:00 | 00:00:00 | 00:00:00 | |
| DL1XH-15 | 2026-08-31 12:13:04 | 53.23645 | 10.80958 | 351° | 7km/h | 26081m | 6.5m/s | -49.6°C | 3.2% | 22.8hPa | 2.7V | 03:35:14 | 02:04:18 | 00:00:00 | |
| DL1XH-west | 2026-08-31 12:13:01 | 53.23645 | 10.80958 | 352° | 7km/h | 26081m | 6.5m/s | -49.6°C | 0% | 22.8hPa | 2.7V | 03:35:26 | 02:04:18 | 00:00:00 | |
| DO2SHX-10 | 2026-08-31 12:13:00 | 53.23643 | 10.80959 | 330° | 7km/h | 26076m | 5.6m/s | -49.6°C | 3.2% | 22.8hPa | 2.6V | 00:00:00 | 02:04:17 | 00:00:00 | |
| DL1XH1-15 | 2026-08-31 12:12:58 | 53.23639 | 10.80964 | 345° | 9km/h | 26059m | 6.2m/s | -49.8°C | 3.2% | 22.9hPa | 2.7V | 03:35:18 | 02:04:14 | 00:00:00 | |
| BIOWL1-15 | 2026-08-31 12:12:58 | 53.23640 | 10.80962 | 332° | 9km/h | 26066m | 5.8m/s | -49.7°C | 0% | 22.9hPa | 2.6V | 03:35:26 | 02:04:15 | 00:00:00 | |
| DF7PN | 2026-08-31 12:12:57 | 53.23635 | 10.80971 | 224° | 5km/h | 25989m | 5.2m/s | 0°C | -1.0% | -1.0hPa | 2.7V | 00:00:00 | 00:00:00 | 00:00:00 | |
| DB0DAN | 2026-08-31 12:12:55 | 53.23635 | 10.80965 | 2° | 5km/h | 26050m | 5.1m/s | -49.8°C | 0.7% | 22.93hPa | 2.7V | 00:00:00 | 00:00:00 | 00:00:00 | |
| HSKMA3-T | 2026-08-31 12:12:54 | 53.23634 | 10.80964 | 151° | 4km/h | 26037m | 5.8m/s | -49.8°C | 0% | 23hPa | 2.6V | 03:35:26 | 02:04:10 | 00:00:00 | |
| DF8AY | 2026-08-31 12:12:51 | 53.23633 | 10.80967 | 237° | 7km/h | 25999m | 5.5m/s | -49.8°C | 0% | 23.1hPa | 2.7V | 03:36:17 | 02:04:03 | 00:00:00 | |
| DL1XH-west | 2026-08-31 12:12:51 | 53.23635 | 10.80961 | 11° | 4km/h | 26020m | 5.6m/s | -49.8°C | 0% | 23.1hPa | 2.6V | 03:35:26 | 02:04:07 | 00:00:00 | |
| BIOWL1-15 | 2026-08-31 12:12:48 | 53.23633 | 10.80963 | 304° | 4km/h | 26010m | 5m/s | -49.9°C | 0% | 23.1hPa | 2.7V | 03:36:17 | 02:04:05 | 00:00:00 | |
| DL1ZP-14 | 2026-08-31 12:12:44 | 53.23635 | 10.80971 | 224° | 5km/h | 25989m | 5.2m/s | -49.7°C | 0.7% | 23.1hPa | 2.6V | 00:00:00 | 00:00:00 | 00:00:00 | |
| HSKMA3-T | 2026-08-31 12:12:43 | 53.23636 | 10.80973 | 241° | 2km/h | 25982m | 6.2m/s | -49.8°C | 0% | 23.1hPa | 2.6V | 03:36:17 | 02:04:00 | 00:00:00 | |
| AA1-15 | 2026-08-31 12:12:43 | 53.23636 | 10.80973 | 39° | 2km/h | 25977m | 5.5m/s | -49.8°C | 0% | 23.2hPa | 2.7V | 03:36:17 | 02:03:59 | 00:00:00 | |
| DL1XH-15 | 2026-08-31 12:12:42 | 53.23636 | 10.80972 | 90° | 4km/h | 25971m | 5.2m/s | -49.8°C | 3.2% | 23.2hPa | 2.7V | 03:35:34 | 02:03:58 | 00:00:00 | |
| DL1CLM-18 | 2026-08-31 12:12:42 | 53.23636 | 10.80973 | 0° | 0km/h | 25977m | 5.5m/s | -49.8°C | 0.7% | 23.2hPa | 2.7V | 00:00:00 | 00:00:00 | 00:00:00 | |
| DB0DAN | 2026-08-31 12:12:40 | 53.23636 | 10.80970 | 134° | 5km/h | 25966m | 5.6m/s | -49.9°C | 0.7% | 23.22hPa | 2.7V | 00:00:00 | 00:00:00 | 00:00:00 | |
| DL1XH-west | 2026-08-31 12:12:40 | 53.23638 | 10.80969 | 167° | 7km/h | 25960m | 5.9m/s | -49.8°C | 0% | 23.2hPa | 2.6V | 03:36:17 | 02:03:56 | 00:00:00 | |
| BIOWL1-15 | 2026-08-31 12:12:38 | 53.23646 | 10.80970 | 190° | 4km/h | 25939m | 5.8m/s | -49.8°C | 0% | 23.4hPa | 2.7V | 03:36:17 | 02:03:52 | 00:00:00 | |
| DF8AY | 2026-08-31 12:12:36 | 53.23647 | 10.80971 | 192° | 5km/h | 25934m | 4.6m/s | -49.9°C | 0% | 23.4hPa | 2.7V | 03:36:17 | 02:03:51 | 00:00:00 | |
| HSKMA3-T | 2026-08-31 12:12:33 | 53.23651 | 10.80972 | 190° | 13km/h | 25922m | 6.8m/s | -49.8°C | 0% | 23.4hPa | 2.6V | 03:36:17 | 02:03:49 | 00:00:00 | |
| DL1XH-15 | 2026-08-31 12:12:32 | 53.23655 | 10.80973 | 192° | 16km/h | 25916m | 5m/s | -49.9°C | 3.3% | 23.4hPa | 2.7V | 03:35:44 | 02:03:48 | 00:00:00 | |
| AA1-15 | 2026-08-31 12:12:31 | 53.23655 | 10.80973 | 192° | 16km/h | 25916m | 5m/s | -49.9°C | 0% | 23.4hPa | 2.7V | 03:36:17 | 02:03:48 | 00:00:00 | |
| DL1XH-west | 2026-08-31 12:12:29 | 53.23667 | 10.80981 | 219° | 13km/h | 25894m | 5.2m/s | -50°C | 0% | 23.5hPa | 2.7V | 03:36:17 | 02:03:44 | 00:00:00 | |
| DF7ER-10 | 2026-08-31 12:12:29 | 53.23658 | 10.80975 | 195° | 15km/h | 25912m | 4.7m/s | -49.9°C | 0.7% | 23.4hPa | 2.7V | 03:36:00 | 00:00:00 | 00:00:00 | |
| DG6HD-15 | 2026-08-31 12:12:28 | 53.23662 | 10.80976 | 201° | 13km/h | 25906m | 6.2m/s | -49.8°C | 0.7% | 23.4hPa | 2.7V | 03:36:00 | 00:00:00 | 00:00:00 | |
| DL1XH-15 | 2026-08-31 12:12:27 | 53.23685 | 10.81002 | 190° | 13km/h | 25861m | 5.6m/s | -49.9°C | 3.2% | 23.6hPa | 2.7V | 03:35:54 | 02:03:38 | 00:00:00 | |
| BIOWL1-15 | 2026-08-31 12:12:27 | 53.23670 | 10.80985 | 222° | 15km/h | 25888m | 6.6m/s | -49.8°C | 0% | 23.5hPa | 2.7V | 03:36:17 | 02:03:43 | 00:00:00 | |
| DF8AY | 2026-08-31 12:12:26 | 53.23683 | 10.81001 | 205° | 13km/h | 25867m | 6.2m/s | -49.8°C | 0% | 23.6hPa | 2.6V | 03:36:17 | 02:03:39 | 00:00:00 | |
| DB0DAN | 2026-08-31 12:12:25 | 53.23673 | 10.80989 | 221° | 16km/h | 25882m | 6m/s | -49.8°C | 0.7% | 23.51hPa | 2.7V | 00:00:00 | 00:00:00 | 00:00:00 | |
| HSKMA3-T | 2026-08-31 12:12:21 | 53.23686 | 10.81002 | 190° | 13km/h | 25861m | 5.6m/s | -49.9°C | 0% | 23.6hPa | 2.7V | 03:36:17 | 02:03:38 | 00:00:00 | |
| DM0DOS-11 | 2026-08-31 12:12:21 | 53.23711 | 10.81005 | 180° | 24km/h | 25834m | 5m/s | -49.8°C | 3.3% | 23.7hPa | 2.6V | 03:35:59 | 02:03:33 | 00:00:00 | |
| AA1-15 | 2026-08-31 12:12:20 | 53.23689 | 10.81003 | 182° | 15km/h | 25856m | 4.4m/s | -49.8°C | 0% | 23.6hPa | 2.7V | 03:36:17 | 02:03:37 | 00:00:00 | |
| DL1XH-west | 2026-08-31 12:12:19 | 53.23699 | 10.81004 | 184° | 24km/h | 25844m | 6.7m/s | -49.9°C | 0% | 23.7hPa | 2.6V | 03:36:17 | 02:03:35 | 00:00:00 | |
| BIOWL1-15 | 2026-08-31 12:12:16 | 53.23711 | 10.81005 | 181° | 24km/h | 25834m | 5m/s | -49.8°C | 0% | 23.7hPa | 2.6V | 03:36:17 | 02:03:33 | 00:00:00 | |
| DF8AY | 2026-08-31 12:12:15 | 53.23721 | 10.81004 | 179° | 13km/h | 25822m | 5.4m/s | -49.8°C | 0% | 23.8hPa | 2.7V | 03:36:17 | 02:03:31 | 00:00:00 | |
| HSKMA3-T | 2026-08-31 12:12:11 | 53.23727 | 10.81008 | 214° | 9km/h | 25804m | 5.4m/s | -49.6°C | 0% | 23.8hPa | 2.6V | 03:36:17 | 02:03:28 | 00:00:00 | |
| DB0DAN | 2026-08-31 12:12:10 | 53.23729 | 10.81010 | 202° | 7km/h | 25799m | 4.4m/s | -49.7°C | 0.7% | 23.85hPa | 2.7V | 00:00:00 | 00:00:00 | 00:00:00 | |
| AA1-15 | 2026-08-31 12:12:09 | 53.23731 | 10.81010 | 174° | 5km/h | 25794m | 6.3m/s | -49.7°C | 0% | 23.9hPa | 2.7V | 03:36:17 | 02:03:26 | 00:00:00 | |
| DO2SHX-10 | 2026-08-31 12:12:09 | 53.23731 | 10.81010 | 175° | 9km/h | 25795m | 6.2m/s | -49.6°C | 3.3% | 23.8hPa | 2.6V | 00:00:00 | 02:03:26 | 00:00:00 | |
| DL1NUX | 2026-08-31 12:12:08 | 53.23735 | 10.81007 | 153° | 15km/h | 25783m | 4.5m/s | -49.6°C | 3.2% | 23.9hPa | 2.6V | 03:36:08 | 02:03:24 | 00:00:00 | |
| BIOWL1-15 | 2026-08-31 12:12:06 | 53.23739 | 10.81004 | 165° | 18km/h | 25777m | 6.3m/s | -49.7°C | 0% | 23.9hPa | 2.7V | 03:36:17 | 02:03:23 | 00:00:00 | |
| DO2SHX-10 | 2026-08-31 12:12:06 | 53.23739 | 10.81004 | 166° | 20km/h | 25778m | 6.2m/s | -49.6°C | 3.2% | 23.8hPa | 2.7V | 00:00:00 | 02:03:23 | 00:00:00 | |
| DF8AY-15 | 2026-08-31 12:12:04 | 53.23749 | 10.81003 | 179° | 13km/h | 25765m | 5.2m/s | -49.7°C | 3.2% | 23.9hPa | 2.7V | 03:36:00 | 02:03:21 | 00:00:00 | |
| DC4HF-4 | 2026-08-31 12:12:03 | 53.23760 | 10.81002 | 172° | 18km/h | 25753m | 6.9m/s | -49.6°C | 0.7% | 24.0hPa | 2.6V | 00:00:00 | 00:00:00 | 00:00:00 | |
| GOEST3-10 | 2026-08-31 12:12:02 | 53.23760 | 10.81001 | 173° | 13km/h | 25753m | 6.9m/s | -49.5°C | 3.2% | 23.9hPa | 2.6V | 00:00:00 | 00:00:00 | 00:00:00 | |
| DL1XH1-15 | 2026-08-31 12:12:01 | 53.23774 | 10.80998 | 154° | 7km/h | 25724m | 4.3m/s | -49.4°C | 3.2% | 24.1hPa | 2.6V | 03:36:18 | 02:03:14 | 00:00:00 | |
| HSKMA3-T | 2026-08-31 12:12:01 | 53.23764 | 10.81000 | 167° | 15km/h | 25747m | 5.3m/s | -49.6°C | 0% | 24hPa | 2.6V | 03:36:17 | 02:03:18 | 00:00:00 | |
| DL1XH-west | 2026-08-31 12:11:58 | 53.23772 | 10.80998 | 177° | 9km/h | 25729m | 5.4m/s | -49.5°C | 0% | 24.1hPa | 2.7V | 03:36:17 | 02:03:15 | 00:00:00 | |
| BIOWL1-15 | 2026-08-31 12:11:55 | 53.23777 | 10.80992 | 115° | 13km/h | 25713m | 5.9m/s | -49.6°C | 0% | 24.1hPa | 2.6V | 03:37:08 | 02:03:12 | 00:00:00 | |
| DB0DAN | 2026-08-31 12:11:55 | 53.23777 | 10.80992 | 115° | 11km/h | 25713m | 5.9m/s | -49.6°C | 0.7% | 24.15hPa | 2.6V | 00:00:00 | 00:00:00 | 00:00:00 | |
| HSKMA3-T | 2026-08-31 12:11:50 | 53.23791 | 10.80973 | 160° | 15km/h | 25684m | 4.7m/s | -49.7°C | 0% | 24.3hPa | 2.6V | 03:37:59 | 02:03:07 | 00:00:00 | |
| SO1NDE-10 | 2026-08-31 12:11:50 | 53.23791 | 10.80973 | 161° | 16km/h | 25685m | 4.6m/s | -49.7°C | 3.2% | 24.2hPa | 2.6V | 00:00:00 | 02:03:07 | 00:00:00 | |
| DL1XH1-15 | 2026-08-31 12:11:49 | 53.23799 | 10.80963 | 127° | 11km/h | 25666m | 5.9m/s | -49.6°C | 3.2% | 24.3hPa | 2.6V | 03:36:28 | 02:03:04 | 00:00:00 | |
| AA1-15 | 2026-08-31 12:11:49 | 53.23797 | 10.80967 | 136° | 13km/h | 25672m | 6.1m/s | -49.7°C | 0% | 24.3hPa | 2.7V | 03:37:08 | 02:03:05 | 00:00:00 | |
| DL1XH-west | 2026-08-31 12:11:48 | 53.23799 | 10.80963 | 128° | 11km/h | 25666m | 5.9m/s | -49.6°C | 0% | 24.3hPa | 2.6V | 03:37:08 | 02:03:04 | 00:00:00 | |
| BIOWL1-15 | 2026-08-31 12:11:47 | 53.23802 | 10.80956 | 132° | 9km/h | 25653m | 6.4m/s | -49.6°C | 0% | 24.4hPa | 2.7V | 03:37:08 | 02:03:02 | 00:00:00 | |
| DF8AY | 2026-08-31 12:11:45 | 53.23804 | 10.80949 | 107° | 13km/h | 25643m | 4.8m/s | -49.7°C | 0% | 24.4hPa | 2.7V | 03:37:59 | 02:03:00 | 00:00:00 | |
| DL3AQ-11 | 2026-08-31 12:11:45 | 53.23803 | 10.80953 | 122° | 9km/h | 25648m | 4.9m/s | -49.7°C | 0.7% | 24.4hPa | 2.6V | 00:00:00 | 00:00:00 | 00:00:00 | |
| DF8AY-15 | 2026-08-31 12:11:44 | 53.23803 | 10.80953 | 123° | 16km/h | 25648m | 4.9m/s | -49.6°C | 3.3% | 24.3hPa | 2.6V | 00:00:00 | 02:03:01 | 00:00:00 | |
| DL1XH-15 | 2026-08-31 12:11:43 | 53.23805 | 10.80935 | 90° | 20km/h | 25630m | 6.4m/s | -49.6°C | 3.2% | 24.5hPa | 2.6V | 03:36:34 | 02:02:58 | 00:00:00 | |
| GOEST3-10 | 2026-08-31 12:11:42 | 53.23805 | 10.80943 | 97° | 20km/h | 25637m | 6.9m/s | -49.5°C | 3.3% | 24.4hPa | 2.7V | 00:00:00 | 00:00:00 | 00:00:00 | |
| DK7RCA | 2026-08-31 12:11:41 | 53.23805 | 10.80943 | 98° | 16km/h | 25637m | 6.9m/s | -49.6°C | 0.7% | 24.4hPa | 2.7V | 03:37:00 | 00:00:00 | 00:00:00 | |
| DL1XH1-15 | 2026-08-31 12:11:40 | 53.23808 | 10.80903 | 118° | 15km/h | 25606m | 6.2m/s | -49.8°C | 3.1% | 24.6hPa | 2.7V | 03:36:38 | 02:02:54 | 00:00:00 | |
| DB0DAN | 2026-08-31 12:11:40 | 53.23805 | 10.80926 | 91° | 22km/h | 25624m | 5m/s | -49.7°C | 0.7% | 24.48hPa | 2.6V | 00:00:00 | 00:00:00 | 00:00:00 | |
| HSKMA3-T | 2026-08-31 12:11:40 | 53.23805 | 10.80926 | 91° | 22km/h | 25625m | 5m/s | -49.7°C | 0% | 24.5hPa | 2.6V | 03:37:59 | 02:02:57 | 00:00:00 | |
| DO2SHX-10 | 2026-08-31 12:11:39 | 53.23806 | 10.80918 | 96° | 18km/h | 25619m | 5.5m/s | -49.7°C | 3.2% | 24.5hPa | 2.7V | 03:36:00 | 02:02:56 | 00:00:00 | |
| DM0DOS-11 | 2026-08-31 12:11:38 | 53.23810 | 10.80898 | 127° | 15km/h | 25601m | 5.3m/s | -49.8°C | 3.1% | 24.6hPa | 2.6V | 03:36:39 | 02:02:53 | 00:00:00 | |
| AA1-15 | 2026-08-31 12:11:38 | 53.23808 | 10.80903 | 119° | 15km/h | 25606m | 6.2m/s | -49.8°C | 0% | 24.6hPa | 2.7V | 03:37:08 | 02:02:54 | 00:00:00 | |
| DL1XH-west | 2026-08-31 12:11:37 | 53.23810 | 10.80898 | 128° | 15km/h | 25601m | 5.4m/s | -49.8°C | 0% | 24.6hPa | 2.6V | 03:37:08 | 02:02:53 | 00:00:00 | |
| BIOWL1-15 | 2026-08-31 12:11:35 | 53.23812 | 10.80893 | 122° | 15km/h | 25595m | 6.3m/s | -49.7°C | 0% | 24.6hPa | 2.6V | 03:37:08 | 02:02:52 | 00:00:00 | |
| DF8AY | 2026-08-31 12:11:32 | 53.23819 | 10.80868 | 110° | 9km/h | 25567m | 5.4m/s | -49.7°C | 0% | 24.7hPa | 2.6V | 03:37:59 | 02:02:47 | 00:00:00 | |
| HSKMA3-T | 2026-08-31 12:11:29 | 53.23819 | 10.80859 | 84° | 15km/h | 25556m | 5.9m/s | -49.8°C | 0% | 24.8hPa | 2.7V | 03:37:59 | 02:02:45 | 00:00:00 | |
| DL1XH1-15 | 2026-08-31 12:11:29 | 53.23818 | 10.80852 | 79° | 20km/h | 25550m | 6.8m/s | -49.7°C | 3.2% | 24.8hPa | 2.7V | 03:36:48 | 02:02:44 | 00:00:00 | |
| DM0DOS-11 | 2026-08-31 12:11:27 | 53.23817 | 10.80843 | 78° | 26km/h | 25543m | 5.7m/s | -49.6°C | 3.1% | 24.8hPa | 2.6V | 03:36:49 | 02:02:43 | 00:00:00 | |
| BIOWL1-15 | 2026-08-31 12:11:27 | 53.23814 | 10.80813 | 87° | 20km/h | 25526m | 6.1m/s | -49.9°C | 0% | 24.9hPa | 2.7V | 03:37:08 | 02:02:40 | 00:00:00 | |
| DL1XH-west | 2026-08-31 12:11:26 | 53.23817 | 10.80843 | 79° | 26km/h | 25543m | 5.7m/s | -49.6°C | 0% | 24.8hPa | 2.6V | 03:37:08 | 02:02:43 | 00:00:00 | |
| DB0DAN | 2026-08-31 12:11:25 | 53.23816 | 10.80832 | 78° | 26km/h | 25538m | 5m/s | -49.7°C | 0.7% | 24.8hPa | 2.6V | 00:00:00 | 00:00:00 | 00:00:00 | |
| DF8AY | 2026-08-31 12:11:20 | 53.23811 | 10.80775 | 64° | 20km/h | 25497m | 5.3m/s | -50°C | 0% | 25hPa | 2.7V | 03:37:59 | 02:02:35 | 00:00:00 | |
| SO1NDE-10 | 2026-08-31 12:11:20 | 53.23814 | 10.80790 | 84° | 20km/h | 25510m | 6.1m/s | -49.8°C | 3.2% | 24.8hPa | 2.6V | 03:36:00 | 02:02:37 | 00:00:00 | |
| EDDB2-12 | 2026-08-31 12:11:19 | 53.23813 | 10.80782 | 74° | 18km/h | 25504m | 6.5m/s | -49.9°C | 0.7% | 24.9hPa | 2.6V | 00:00:00 | 00:00:00 | 00:00:00 | |
| DO2SHX-10 | 2026-08-31 12:11:18 | 53.23811 | 10.80775 | 64° | 16km/h | 25498m | 5.3m/s | -50.0°C | 3.2% | 24.9hPa | 2.6V | 00:00:00 | 02:02:35 | 00:00:00 | |
| DM0DOS-11 | 2026-08-31 12:11:17 | 53.23806 | 10.80763 | 35° | 15km/h | 25486m | 6.9m/s | -50°C | 3.3% | 25hPa | 2.6V | 03:36:59 | 02:02:33 | 00:00:00 | |
| HSKMA3-T | 2026-08-31 12:11:16 | 53.23805 | 10.80763 | 36° | 15km/h | 25486m | 6.9m/s | -50°C | 0% | 25hPa | 2.6V | 03:37:59 | 02:02:33 | 00:00:00 | |
| DL1XH-15 | 2026-08-31 12:11:16 | 53.23788 | 10.80749 | 42° | 18km/h | 25456m | 5.7m/s | -50.1°C | 3.3% | 25.1hPa | 2.6V | 03:37:04 | 02:02:28 | 00:00:00 | |
| BIOWL1-15 | 2026-08-31 12:11:15 | 53.23781 | 10.80738 | 37° | 18km/h | 25444m | 6.6m/s | -50.1°C | 0% | 25.2hPa | 2.6V | 03:37:08 | 02:02:26 | 00:00:00 | |
| AA1-15 | 2026-08-31 12:11:15 | 53.23802 | 10.80761 | 20° | 15km/h | 25479m | 5.6m/s | -50°C | 0% | 25hPa | 2.6V | 03:37:08 | 02:02:32 | 00:00:00 | |
| DO2SHX-10 | 2026-08-31 12:11:15 | 53.23802 | 10.80760 | 20° | 15km/h | 25479m | 5.5m/s | -50.0°C | 3.3% | 25.0hPa | 2.7V | 03:37:00 | 02:02:32 | 00:00:00 | |
| DL1CLM-18 | 2026-08-31 12:11:14 | 53.23802 | 10.80760 | 21° | 15km/h | 25479m | 5.6m/s | -50.0°C | 0.7% | 25.0hPa | 2.7V | 03:37:00 | 00:00:00 | 00:00:00 | |
| DO2SHX-10 | 2026-08-31 12:11:12 | 53.23791 | 10.80753 | 35° | 18km/h | 25462m | 6.5m/s | -50.0°C | 3.3% | 25.0hPa | 2.7V | 00:00:00 | 02:02:29 | 00:00:00 | |
| DM0DOS-11 | 2026-08-31 12:11:11 | 53.23769 | 10.80727 | 32° | 18km/h | 25427m | 5.6m/s | -50.3°C | 3.3% | 25.2hPa | 2.7V | 03:37:09 | 02:02:23 | 00:00:00 | |
| DF8AY | 2026-08-31 12:11:07 | 53.23769 | 10.80727 | 32° | 18km/h | 25427m | 5.6m/s | -50.3°C | 0% | 25.2hPa | 2.7V | 03:37:59 | 02:02:23 | 00:00:00 | |
| DD8BA-10 | 2026-08-31 12:11:07 | 53.23773 | 10.80730 | 30° | 20km/h | 25432m | 5.1m/s | -50.1°C | 3.3% | 25.1hPa | 2.7V | 03:37:00 | 00:00:00 | 00:00:00 | |
| DL1XH-15 | 2026-08-31 12:11:06 | 53.23749 | 10.80701 | 17° | 20km/h | 25398m | 6.8m/s | -50.3°C | 3.3% | 25.4hPa | 2.6V | 03:37:14 | 02:02:18 | 00:00:00 | |
| AA1-15 | 2026-08-31 12:11:05 | 53.23766 | 10.80722 | 41° | 20km/h | 25421m | 6.7m/s | -50.2°C | 0% | 25.2hPa | 2.6V | 03:37:59 | 02:02:22 | 00:00:00 | |
| DL1XH-west | 2026-08-31 12:11:04 | 53.23762 | 10.80716 | 45° | 22km/h | 25415m | 5.3m/s | -50.2°C | 0% | 25.3hPa | 2.6V | 03:37:59 | 02:02:21 | 00:00:00 | |
| DF8AY-15 | 2026-08-31 12:11:04 | 53.23762 | 10.80716 | 45° | 22km/h | 25415m | 5.2m/s | -50.2°C | 3.3% | 25.2hPa | 2.6V | 00:00:00 | 02:02:21 | 00:00:00 | |
| DO2SHX-10 | 2026-08-31 12:11:03 | 53.23758 | 10.80710 | 43° | 20km/h | 25410m | 4.6m/s | -50.3°C | 3.3% | 25.3hPa | 2.7V | 03:37:00 | 02:02:20 | 00:00:00 | |
| DL1XH1-15 | 2026-08-31 12:11:02 | 53.23729 | 10.80698 | 11° | 22km/h | 25374m | 6.2m/s | -50.4°C | 3.3% | 25.4hPa | 2.6V | 03:37:18 | 02:02:14 | 00:00:00 | |
| BIOWL1-15 | 2026-08-31 12:11:01 | 53.23749 | 10.80701 | 17° | 20km/h | 25398m | 6.8m/s | -50.3°C | 0% | 25.4hPa | 2.6V | 03:37:59 | 02:02:18 | 00:00:00 | |
| HSKMA3-T | 2026-08-31 12:10:59 | 53.23734 | 10.80699 | 4° | 20km/h | 25381m | 6m/s | -50.3°C | 0% | 25.4hPa | 2.7V | 03:37:59 | 02:02:15 | 00:00:00 | |
| BIOWL9-15 | 2026-08-31 12:10:56 | 53.23724 | 10.80696 | 15° | 22km/h | 25369m | 5.2m/s | -50.5°C | 0.7% | 25.4hPa | 2.7V | 00:00:00 | 00:00:00 | 00:00:00 | |
| DB0DAN | 2026-08-31 12:10:55 | 53.23718 | 10.80694 | 13° | 22km/h | 25363m | 5.3m/s | -50.4°C | 0.7% | 25.47hPa | 2.7V | 00:00:00 | 00:00:00 | 00:00:00 | |
| AA1-15 | 2026-08-31 12:10:54 | 53.23712 | 10.80692 | 8° | 24km/h | 25357m | 6.9m/s | -50.4°C | 0% | 25.5hPa | 2.7V | 03:37:59 | 02:02:11 | 00:00:00 | |
| DL1XH-west | 2026-08-31 12:10:53 | 53.23706 | 10.80691 | 2° | 26km/h | 25350m | 6.1m/s | -50.5°C | 0% | 25.5hPa | 2.7V | 03:37:59 | 02:02:10 | 00:00:00 | |
| BIOWL1-15 | 2026-08-31 12:10:53 | 53.23693 | 10.80691 | 0° | 24km/h | 25340m | 4.7m/s | -50.4°C | 0% | 25.6hPa | 2.6V | 03:37:59 | 02:02:08 | 00:00:00 | |
| DL1XH-15 | 2026-08-31 12:10:52 | 53.23693 | 10.80691 | 0° | 24km/h | 25340m | 4.7m/s | -50.4°C | 3.3% | 25.6hPa | 2.6V | 03:37:24 | 02:02:08 | 00:00:00 | |
| DL1NUX | 2026-08-31 12:10:52 | 53.23672 | 10.80689 | 356° | 20km/h | 25318m | 5.8m/s | -50.4°C | 3.3% | 25.7hPa | 2.7V | 03:37:28 | 02:02:04 | 00:00:00 | |
| DC4HF-4 | 2026-08-31 12:10:50 | 53.23688 | 10.80691 | 5° | 20km/h | 25334m | 6.4m/s | -50.4°C | 0.7% | 25.6hPa | 2.7V | 00:00:00 | 00:00:00 | 00:00:00 | |
| DJ2DS-15 | 2026-08-31 12:10:48 | 53.23673 | 10.80689 | 356° | 20km/h | 25318m | 5.8m/s | -50.4°C | 0.7% | 25.7hPa | 2.7V | 00:00:00 | 00:00:00 | 00:00:00 | |
| S3001 | 2026-08-31 12:10:47 | 53.23667 | 10.80690 | 349° | 24km/h | 25312m | 6.8m/s | -50.3°C | 0.7% | 25.7hPa | 2.7V | 00:00:00 | 00:00:00 | 00:00:00 | |
| DL1XH-15 | 2026-08-31 12:10:46 | 53.23637 | 10.80704 | 352° | 18km/h | 25283m | 5.9m/s | -50.5°C | 3.4% | 25.8hPa | 2.7V | 03:37:34 | 02:01:58 | 00:00:00 | |
| DF8AY | 2026-08-31 12:10:45 | 53.23654 | 10.80696 | 341° | 27km/h | 25301m | 4.6m/s | -50.5°C | 0% | 25.7hPa | 2.6V | 03:37:59 | 02:02:01 | 00:00:00 | |
| HSKMA3-T | 2026-08-31 12:10:43 | 53.23648 | 10.80699 | 343° | 26km/h | 25295m | 5m/s | -50.4°C | 0% | 25.8hPa | 2.7V | 03:37:59 | 02:02:00 | 00:00:00 | |
| DL1XH-west | 2026-08-31 12:10:43 | 53.23642 | 10.80702 | 346° | 22km/h | 25290m | 6.8m/s | -50.4°C | 0% | 25.8hPa | 2.7V | 03:37:59 | 02:01:59 | 00:00:00 | |
| BIOWL1-15 | 2026-08-31 12:10:41 | 53.23632 | 10.80705 | 350° | 18km/h | 25278m | 5.2m/s | -50.4°C | 0% | 25.8hPa | 2.6V | 03:37:59 | 02:01:57 | 00:00:00 | |
| DB0DAN | 2026-08-31 12:10:40 | 53.23632 | 10.80705 | 350° | 16km/h | 25278m | 5.2m/s | -50.4°C | 0.7% | 25.84hPa | 2.6V | 00:00:00 | 00:00:00 | 00:00:00 | |
| DO2SHX-10 | 2026-08-31 12:10:40 | 53.23627 | 10.80706 | 345° | 20km/h | 25273m | 5.7m/s | -50.4°C | 3.3% | 25.8hPa | 2.7V | 03:37:00 | 02:01:56 | 00:00:00 | |
| DK7RCA | 2026-08-31 12:10:39 | 53.23627 | 10.80706 | 346° | 18km/h | 25273m | 5.7m/s | -50.4°C | 0.7% | 25.9hPa | 2.7V | 03:37:00 | 00:00:00 | 00:00:00 | |
| DL3AQ-11 | 2026-08-31 12:10:38 | 53.23618 | 10.80713 | 335° | 24km/h | 25260m | 5.2m/s | -50.5°C | 0.7% | 25.9hPa | 2.7V | 00:00:00 | 00:00:00 | 00:00:00 | |
| DD8BA-10 | 2026-08-31 12:10:37 | 53.23618 | 10.80713 | 336° | 24km/h | 25260m | 5.2m/s | -50.4°C | 3.3% | 25.8hPa | 2.7V | 00:00:00 | 00:00:00 | 00:00:00 | |
| DL1XH-15 | 2026-08-31 12:10:36 | 53.23587 | 10.80739 | 326° | 27km/h | 25224m | 7m/s | -50.5°C | 3.4% | 26hPa | 2.6V | 03:37:44 | 02:01:48 | 00:00:00 | |
| DF8AY | 2026-08-31 12:10:33 | 53.23563 | 10.80770 | 323° | 20km/h | 25195m | 4.8m/s | -50.5°C | 0% | 26.1hPa | 2.6V | 03:37:59 | 02:01:43 | 00:00:00 | |
| HSKMA3-T | 2026-08-31 12:10:32 | 53.23593 | 10.80734 | 330° | 26km/h | 25231m | 6.4m/s | -50.5°C | 0% | 26hPa | 2.6V | 03:37:59 | 02:01:49 | 00:00:00 | |
| DL1NUX | 2026-08-31 12:10:32 | 53.23566 | 10.80765 | 321° | 20km/h | 25200m | 5m/s | -50.5°C | 3.4% | 26.1hPa | 2.6V | 03:37:48 | 02:01:44 | 00:00:00 | |
| BIOWL1-15 | 2026-08-31 12:10:30 | 53.23581 | 10.80746 | 324° | 27km/h | 25218m | 5.2m/s | -50.5°C | 0% | 26.1hPa | 2.7V | 03:37:59 | 02:01:47 | 00:00:00 | |
| DO2SHX-10 | 2026-08-31 12:10:30 | 53.23581 | 10.80746 | 325° | 26km/h | 25219m | 5.1m/s | -50.4°C | 3.3% | 26.0hPa | 2.6V | 00:00:00 | 02:01:47 | 00:00:00 | |
| SMARD9-15 | 2026-08-31 12:10:28 | 53.23571 | 10.80759 | 321° | 22km/h | 25206m | 7.0m/s | -50.5°C | 0.7% | 26.1hPa | 2.6V | 00:00:00 | 00:00:00 | 00:00:00 | |
| DD8BA-10 | 2026-08-31 12:10:27 | 53.23566 | 10.80765 | 322° | 18km/h | 25201m | 5.0m/s | -50.4°C | 3.4% | 26.1hPa | 2.6V | 03:37:00 | 00:00:00 | 00:00:00 | |
| DF7ER-10 | 2026-08-31 12:10:26 | 53.23566 | 10.80765 | 322° | 20km/h | 25201m | 5.0m/s | -50.5°C | 0.8% | 26.1hPa | 2.6V | 03:37:00 | 00:00:00 | 00:00:00 | |
| DB0DAN | 2026-08-31 12:10:25 | 53.23558 | 10.80775 | 325° | 20km/h | 25190m | 6.8m/s | -50.4°C | 0.7% | 26.17hPa | 2.6V | 00:00:00 | 00:00:00 | 00:00:00 | |
| AA1-15 | 2026-08-31 12:10:23 | 53.23540 | 10.80797 | 315° | 13km/h | 25161m | 5.2m/s | -50.4°C | 0% | 26.3hPa | 2.6V | 03:37:59 | 02:01:37 | 00:00:00 | |
| SP3BTT-10 | 2026-08-31 12:10:23 | 53.23549 | 10.80785 | 328° | 13km/h | 25179m | 4.4m/s | -50.4°C | 3.3% | 26.2hPa | 2.7V | 00:00:00 | 00:00:00 | 00:00:00 | |
| DL1XH-15 | 2026-08-31 12:10:22 | 53.23542 | 10.80793 | 323° | 13km/h | 25167m | 6.8m/s | -50.4°C | 3.2% | 26.3hPa | 2.6V | 03:37:54 | 02:01:38 | 00:00:00 | |
| DL1XH1-15 | 2026-08-31 12:10:21 | 53.23531 | 10.80815 | 302° | 24km/h | 25143m | 5.5m/s | -50.5°C | 3.3% | 26.4hPa | 2.7V | 03:37:58 | 02:01:34 | 00:00:00 | |
| HSKMA3-T | 2026-08-31 12:10:21 | 53.23542 | 10.80793 | 324° | 13km/h | 25167m | 6.8m/s | -50.4°C | 0% | 26.3hPa | 2.6V | 03:37:59 | 02:01:38 | 00:00:00 | |
| DL1XH-west | 2026-08-31 12:10:20 | 53.23537 | 10.80801 | 308° | 16km/h | 25155m | 5.4m/s | -50.3°C | 0% | 26.3hPa | 2.6V | 03:37:59 | 02:01:36 | 00:00:00 | |
| BIOWL1-15 | 2026-08-31 12:10:20 | 53.23535 | 10.80808 | 305° | 20km/h | 25149m | 6.6m/s | -50.4°C | 0% | 26.3hPa | 2.7V | 03:37:59 | 02:01:35 | 00:00:00 | |
| DM0DOS-11 | 2026-08-31 12:10:19 | 53.23528 | 10.80824 | 297° | 24km/h | 25137m | 5.5m/s | -50.4°C | 3.3% | 26.4hPa | 2.7V | 03:37:59 | 02:01:33 | 00:00:00 | |
| DO2SHX-10 | 2026-08-31 12:10:18 | 53.23534 | 10.80808 | 306° | 24km/h | 25149m | 6.6m/s | -50.3°C | 3.2% | 26.3hPa | 2.7V | 00:00:00 | 02:01:35 | 00:00:00 | |
| DD8BA-10 | 2026-08-31 12:10:17 | 53.23531 | 10.80815 | 303° | 16km/h | 25144m | 5.4m/s | -50.4°C | 3.3% | 26.3hPa | 2.6V | 00:00:00 | 00:00:00 | 00:00:00 | |
| S3001 | 2026-08-31 12:10:16 | 53.23526 | 10.80833 | 296° | 22km/h | 25132m | 6.8m/s | -50.5°C | 0.7% | 26.4hPa | 2.6V | 00:00:00 | 00:00:00 | 00:00:00 | |
| DL1XH-15 | 2026-08-31 12:10:15 | 53.23515 | 10.80854 | 332° | 16km/h | 25109m | 6.4m/s | -50.5°C | 3.4% | 26.5hPa | 2.6V | 03:38:04 | 02:01:28 | 00:00:00 | |
| AA1-15 | 2026-08-31 12:10:12 | 53.23518 | 10.80851 | 323° | 15km/h | 25115m | 5.9m/s | -50.6°C | 0% | 26.5hPa | 2.7V | 03:38:50 | 02:01:29 | 00:00:00 | |
| DJ2DS-15 | 2026-08-31 12:10:12 | 53.23515 | 10.80854 | 332° | 16km/h | 25109m | 6.4m/s | -50.6°C | 0.7% | 26.5hPa | 2.7V | 00:00:00 | 00:00:00 | 00:00:00 | |
| DL1XH1-15 | 2026-08-31 12:10:11 | 53.23503 | 10.80860 | 348° | 4km/h | 25086m | 6.5m/s | -50.6°C | 3.3% | 26.6hPa | 2.7V | 03:38:08 | 02:01:24 | 00:00:00 | |
| HSKMA3-T | 2026-08-31 12:10:10 | 53.23511 | 10.80857 | 340° | 16km/h | 25103m | 4.8m/s | -50.5°C | 0% | 26.5hPa | 2.6V | 03:38:50 | 02:01:27 | 00:00:00 | |
| DB0DAN | 2026-08-31 12:10:10 | 53.23511 | 10.80857 | 340° | 16km/h | 25103m | 4.8m/s | -50.5°C | 0.7% | 26.53hPa | 2.6V | 00:00:00 | 00:00:00 | 00:00:00 | |
| DL1XH-west | 2026-08-31 12:10:10 | 53.23507 | 10.80859 | 346° | 13km/h | 25098m | 5m/s | -50.6°C | 0% | 26.6hPa | 2.7V | 03:38:50 | 02:01:26 | 00:00:00 | |
| BIOWL1-15 | 2026-08-31 12:10:10 | 53.23503 | 10.80860 | 348° | 4km/h | 25086m | 6.6m/s | -50.6°C | 0% | 26.6hPa | 2.7V | 03:38:50 | 02:01:24 | 00:00:00 | |
| DO2SHX-10 | 2026-08-31 12:10:09 | 53.23507 | 10.80859 | 346° | 9km/h | 25098m | 5.0m/s | -50.6°C | 3.4% | 26.5hPa | 2.7V | 00:00:00 | 02:01:26 | 00:00:00 | |
| DB0NH | 2026-08-31 12:10:08 | 53.23505 | 10.80860 | 353° | 7km/h | 25093m | 6.4m/s | -50.5°C | 3.3% | 26.5hPa | 2.7V | 00:00:00 | 02:01:25 | 00:00:00 | |
| DD8BA-10 | 2026-08-31 12:10:07 | 53.23503 | 10.80860 | 349° | 9km/h | 25086m | 6.5m/s | -50.5°C | 3.3% | 26.5hPa | 2.7V | 00:00:00 | 00:00:00 | 00:00:00 | |
| DO2SHX-10 | 2026-08-31 12:10:06 | 53.23503 | 10.80861 | 256° | 5km/h | 25080m | 5.0m/s | -50.5°C | 3.3% | 26.6hPa | 2.6V | 00:00:00 | 02:01:23 | 00:00:00 | |
| GOEST3-10 | 2026-08-31 12:10:05 | 53.23503 | 10.80862 | 258° | 11km/h | 25075m | 5.8m/s | -50.5°C | 3.3% | 26.6hPa | 2.6V | 00:00:00 | 02:01:22 | 00:00:00 | |
| DF8AY-15 | 2026-08-31 12:10:04 | 53.23503 | 10.80865 | 279° | 7km/h | 25069m | 6.0m/s | -50.5°C | 3.3% | 26.6hPa | 2.6V | 00:00:00 | 02:01:21 | 00:00:00 | |
| DO2SHX-10 | 2026-08-31 12:10:03 | 53.23503 | 10.80869 | 288° | 13km/h | 25063m | 5.2m/s | -50.5°C | 3.3% | 26.6hPa | 2.7V | 03:38:00 | 02:01:20 | 00:00:00 | |
| DL1XH-15 | 2026-08-31 12:10:02 | 53.23501 | 10.80880 | 283° | 15km/h | 25052m | 5.6m/s | -50.6°C | 3.3% | 26.8hPa | 2.7V | 03:38:14 | 02:01:18 | 00:00:00 | |
| DL1XH-west | 2026-08-31 12:10:00 | 53.23500 | 10.80892 | 289° | 5km/h | 25036m | 4.1m/s | -50.6°C | 0% | 26.8hPa | 2.6V | 03:38:50 | 02:01:15 | 00:00:00 | |
| HSKMA3-T | 2026-08-31 12:09:59 | 53.23500 | 10.80889 | 272° | 7km/h | 25041m | 5m/s | -50.5°C | 0% | 26.8hPa | 2.6V | 03:38:50 | 02:01:16 | 00:00:00 | |
| BIOWL1-15 | 2026-08-31 12:09:59 | 53.23498 | 10.80895 | 336° | 7km/h | 25025m | 6.3m/s | -50.7°C | 0% | 26.8hPa | 2.7V | 03:38:50 | 02:01:13 | 00:00:00 | |
| DL3AQ-11 | 2026-08-31 12:09:58 | 53.23499 | 10.80894 | 308° | 4km/h | 25031m | 6.3m/s | -50.6°C | 0.7% | 26.8hPa | 2.7V | 00:00:00 | 00:00:00 | 00:00:00 | |
| DL1NUX | 2026-08-31 12:09:57 | 53.23499 | 10.80894 | 308° | 5km/h | 25030m | 6.3m/s | -50.6°C | 3.4% | 26.8hPa | 2.7V | 03:38:18 | 02:01:14 | 00:00:00 | |
| DM0DOS-11 | 2026-08-31 12:09:57 | 53.23498 | 10.80895 | 335° | 7km/h | 25024m | 6.3m/s | -50.7°C | 3.4% | 26.8hPa | 2.7V | 03:38:19 | 02:01:13 | 00:00:00 | |
| DD8BA-10 | 2026-08-31 12:09:57 | 53.23499 | 10.80894 | 309° | 5km/h | 25031m | 6.3m/s | -50.5°C | 3.4% | 26.8hPa | 2.7V | 00:00:00 | 00:00:00 | 00:00:00 | |
| DB0DAN | 2026-08-31 12:09:55 | 53.23496 | 10.80896 | 351° | 5km/h | 25019m | 4.8m/s | -50.6°C | 0.7% | 26.88hPa | 2.7V | 00:00:00 | 00:00:00 | 00:00:00 | |
| AA1-15 | 2026-08-31 12:09:50 | 53.23496 | 10.80888 | 80° | 5km/h | 24992m | 6.7m/s | -50.8°C | 0% | 27hPa | 2.7V | 03:38:50 | 02:01:07 | 00:00:00 | |
| DF8AY | 2026-08-31 12:09:49 | 53.23495 | 10.80887 | 32° | 4km/h | 24986m | 5.7m/s | -50.8°C | 0% | 27hPa | 2.7V | 03:38:50 | 02:01:06 | 00:00:00 | |
| DL1XH1-15 | 2026-08-31 12:09:48 | 53.23494 | 10.80887 | 258° | 2km/h | 24975m | 5.8m/s | -50.8°C | 3.3% | 27hPa | 2.6V | 03:38:28 | 02:01:04 | 00:00:00 | |
| DO2SHX-10 | 2026-08-31 12:09:48 | 53.23494 | 10.80886 | 356° | 2km/h | 24981m | 4.9m/s | -50.8°C | 3.4% | 27.0hPa | 2.7V | 00:00:00 | 02:01:05 | 00:00:00 | |
| DM0DOS-11 | 2026-08-31 12:09:47 | 53.23495 | 10.80887 | 220° | 4km/h | 24969m | 6.2m/s | -50.9°C | 3.4% | 27.1hPa | 2.7V | 03:38:29 | 02:01:03 | 00:00:00 | |
| HSKMA3-T | 2026-08-31 12:09:46 | 53.23495 | 10.80887 | 220° | 4km/h | 24969m | 6.2m/s | -50.9°C | 0% | 27.1hPa | 2.7V | 03:38:50 | 02:01:03 | 00:00:00 | |
| EDDB2-12 | 2026-08-31 12:09:46 | 53.23495 | 10.80889 | 233° | 5km/h | 24964m | 5.1m/s | -50.8°C | 0.8% | 27.1hPa | 2.7V | 00:00:00 | 00:00:00 | 00:00:00 | |
| DL3AQ-11 | 2026-08-31 12:09:45 | 53.23496 | 10.80892 | 254° | 7km/h | 24959m | 5.3m/s | -50.9°C | 0.7% | 27.1hPa | 2.7V | 00:00:00 | 00:00:00 | 00:00:00 | |
| DF8AY-15 | 2026-08-31 12:09:44 | 53.23496 | 10.80892 | 255° | 5km/h | 24959m | 5.3m/s | -50.8°C | 3.4% | 27.1hPa | 2.7V | 00:00:00 | 02:01:01 | 00:00:00 | |
| DG6HD-15 | 2026-08-31 12:09:43 | 53.23496 | 10.80892 | 255° | 7km/h | 24959m | 5.3m/s | -50.9°C | 0.7% | 27.1hPa | 2.7V | 03:38:00 | 00:00:00 | 00:00:00 | |
| DL1XH-15 | 2026-08-31 12:09:42 | 53.23495 | 10.80904 | 289° | 11km/h | 24942m | 5.2m/s | -50.9°C | 3.5% | 27.2hPa | 2.7V | 03:38:34 | 02:00:58 | 00:00:00 | |
| DL1XH1-15 | 2026-08-31 12:09:42 | 53.23494 | 10.80912 | 31° | 4km/h | 24913m | 7m/s | -50.7°C | 3.4% | 27.3hPa | 2.7V | 03:38:39 | 02:00:53 | 00:00:00 | |
| DL4BBY-15 | 2026-08-31 12:09:42 | 53.23496 | 10.80899 | 290° | 5km/h | 24947m | 5.3m/s | -49.7°C | 0% | 0hPa | 2.7V | 00:00:00 | 00:00:00 | 00:00:00 | |
| TFSTFS | 2026-08-31 12:09:41 | 53.23495 | 10.80899 | 291° | 13km/h | 24947m | 5.3m/s | -50.8°C | 0.7% | 27.2hPa | 2.7V | 00:00:00 | 00:00:00 | 00:00:00 | |
| DB0DAN | 2026-08-31 12:09:40 | 53.23494 | 10.80908 | 281° | 7km/h | 24936m | 6.5m/s | -50.8°C | 0.7% | 27.23hPa | 2.7V | 00:00:00 | 00:00:00 | 00:00:00 | |
| AA1-15 | 2026-08-31 12:09:39 | 53.23494 | 10.80912 | 32° | 4km/h | 24914m | 7m/s | -50.7°C | 0% | 27.3hPa | 2.7V | 03:38:50 | 02:00:53 | 00:00:00 | |
| DL1XH-west | 2026-08-31 12:09:39 | 53.23494 | 10.80912 | 222° | 2km/h | 24924m | 4.7m/s | -50.8°C | 0% | 27.3hPa | 2.6V | 03:38:50 | 02:00:55 | 00:00:00 | |
| BIOWL1-15 | 2026-08-31 12:09:37 | 53.23493 | 10.80911 | 37° | 5km/h | 24907m | 5.3m/s | -50.8°C | 0% | 27.4hPa | 2.7V | 03:38:50 | 02:00:52 | 00:00:00 | |
| HSKMA3-T | 2026-08-31 12:09:34 | 53.23491 | 10.80908 | 93° | 5km/h | 24897m | 6.6m/s | -50.8°C | 0% | 27.4hPa | 2.6V | 03:38:50 | 02:00:50 | 00:00:00 | |
| DL3AQ-11 | 2026-08-31 12:09:34 | 53.23491 | 10.80908 | 93° | 4km/h | 24897m | 6.6m/s | -50.8°C | 0.7% | 27.4hPa | 2.6V | 00:00:00 | 00:00:00 | 00:00:00 | |
| DO2SHX-10 | 2026-08-31 12:09:33 | 53.23491 | 10.80908 | 94° | 7km/h | 24897m | 6.5m/s | -50.7°C | 3.3% | 27.4hPa | 2.6V | 00:00:00 | 02:00:50 | 00:00:00 | |
| DL1NUX | 2026-08-31 12:09:32 | 53.23497 | 10.80900 | 110° | 2km/h | 24864m | 4.6m/s | -50.7°C | 3.4% | 27.5hPa | 2.6V | 03:38:48 | 02:00:44 | 00:00:00 | |
| AA1-15 | 2026-08-31 12:09:28 | 53.23496 | 10.80901 | 152° | 0km/h | 24869m | 5.7m/s | -50.8°C | 0% | 27.5hPa | 2.7V | 03:38:50 | 02:00:45 | 00:00:00 | |
| DM0DOS-11 | 2026-08-31 12:09:27 | 53.23497 | 10.80900 | 124° | 2km/h | 24858m | 6m/s | -50.8°C | 3.4% | 27.5hPa | 2.6V | 03:38:49 | 02:00:43 | 00:00:00 | |
| DF8AY | 2026-08-31 12:09:27 | 53.23497 | 10.80900 | 110° | 2km/h | 24864m | 4.6m/s | -50.7°C | 0% | 27.5hPa | 2.6V | 03:38:50 | 02:00:44 | 00:00:00 | |
| DD8BA-10 | 2026-08-31 12:09:27 | 53.23497 | 10.80900 | 111° | 5km/h | 24864m | 4.6m/s | -50.7°C | 3.4% | 27.5hPa | 2.6V | 00:00:00 | 00:00:00 | 00:00:00 | |
| DB0DAN | 2026-08-31 12:09:25 | 53.23497 | 10.80899 | 128° | 5km/h | 24852m | 5.8m/s | -50.8°C | 0.7% | 27.61hPa | 2.6V | 00:00:00 | 00:00:00 | 00:00:00 | |
| BIOWL1-15 | 2026-08-31 12:09:25 | 53.23496 | 10.80891 | 27° | 7km/h | 24826m | 4.1m/s | -50.9°C | 0% | 27.7hPa | 2.6V | 03:39:41 | 02:00:37 | 00:00:00 | |
| HSKMA3-T | 2026-08-31 12:09:24 | 53.23499 | 10.80895 | 96° | 4km/h | 24842m | 5.4m/s | -50.9°C | 0% | 27.6hPa | 2.7V | 03:39:41 | 02:00:40 | 00:00:00 | |
| DO2SHX-10 | 2026-08-31 12:09:24 | 53.23498 | 10.80897 | 129° | 5km/h | 24847m | 4.3m/s | -50.8°C | 3.4% | 27.5hPa | 2.7V | 00:00:00 | 02:00:41 | 00:00:00 | |
| DG6HD-15 | 2026-08-31 12:09:23 | 53.23499 | 10.80895 | 97° | 4km/h | 24842m | 5.4m/s | -50.9°C | 0.7% | 27.6hPa | 2.6V | 03:39:00 | 00:00:00 | 00:00:00 | |
| DL1NUX | 2026-08-31 12:09:22 | 53.23493 | 10.80884 | 85° | 7km/h | 24809m | 4.5m/s | -50.9°C | 3.3% | 27.7hPa | 2.6V | 03:38:58 | 02:00:34 | 00:00:00 | |
| DL1XH1-15 | 2026-08-31 12:09:21 | 53.23493 | 10.80881 | 79° | 5km/h | 24804m | 5.3m/s | -51°C | 3.4% | 27.8hPa | 2.6V | 03:38:59 | 02:00:33 | 00:00:00 | |
| AA1-15 | 2026-08-31 12:09:18 | 53.23493 | 10.80881 | 80° | 5km/h | 24804m | 5.3m/s | -51°C | 0% | 27.8hPa | 2.6V | 03:39:41 | 02:00:33 | 00:00:00 | |
| DF8AY | 2026-08-31 12:09:17 | 53.23492 | 10.80879 | 41° | 2km/h | 24792m | 5.4m/s | -50.9°C | 0% | 27.9hPa | 2.7V | 03:39:41 | 02:00:31 | 00:00:00 | |
| BIOWL1-15 | 2026-08-31 12:09:15 | 53.23493 | 10.80880 | 63° | 4km/h | 24798m | 6.3m/s | -51°C | 0% | 27.8hPa | 2.7V | 03:39:41 | 02:00:32 | 00:00:00 | |
| HSKMA3-T | 2026-08-31 12:09:13 | 53.23492 | 10.80878 | 56° | 2km/h | 24787m | 5m/s | -51°C | 0% | 27.8hPa | 2.7V | 03:39:41 | 02:00:30 | 00:00:00 | |
| DO2SHX-10 | 2026-08-31 12:09:12 | 53.23492 | 10.80876 | 90° | 7km/h | 24782m | 6.1m/s | -50.9°C | 3.5% | 27.8hPa | 2.6V | 00:00:00 | 02:00:29 | 00:00:00 | |
| BIOWL7-15 | 2026-08-31 12:09:11 | 53.23492 | 10.80876 | 90° | 4km/h | 24782m | 6.2m/s | -51.0°C | 0.8% | 27.9hPa | 2.6V | 00:00:00 | 00:00:00 | 00:00:00 | |
| DM0DOS-11 | 2026-08-31 12:09:10 | 53.23481 | 10.80852 | 43° | 13km/h | 24745m | 5.3m/s | -50.9°C | 3.4% | 28hPa | 2.6V | 03:39:10 | 02:00:22 | 00:00:00 | |
| DB0DAN | 2026-08-31 12:09:10 | 53.23492 | 10.80870 | 85° | 9km/h | 24771m | 4.6m/s | -51°C | 0.7% | 27.92hPa | 2.6V | 00:00:00 | 00:00:00 | 00:00:00 | |
| GOEST3-10 | 2026-08-31 12:09:10 | 53.23492 | 10.80870 | 86° | 13km/h | 24771m | 4.5m/s | -50.9°C | 3.5% | 27.9hPa | 2.6V | 03:39:00 | 00:00:00 | 00:00:00 | |
| DO2SHX-10 | 2026-08-31 12:09:09 | 53.23491 | 10.80866 | 67° | 13km/h | 24767m | 5.2m/s | -50.9°C | 3.5% | 27.9hPa | 2.6V | 00:00:00 | 02:00:26 | 00:00:00 | |
| DL1XH1-15 | 2026-08-31 12:09:08 | 53.23484 | 10.80855 | 33° | 15km/h | 24749m | 3.9m/s | -51°C | 3.4% | 28hPa | 2.6V | 03:39:09 | 02:00:23 | 00:00:00 | |
| AA1-15 | 2026-08-31 12:09:07 | 53.23481 | 10.80852 | 43° | 13km/h | 24745m | 5.3m/s | -50.9°C | 0% | 28hPa | 2.6V | 03:39:41 | 02:00:22 | 00:00:00 | |
| DL1XH-15 | 2026-08-31 12:09:06 | 53.23478 | 10.80842 | 277° | 2km/h | 24722m | 6.5m/s | -50.8°C | 3.4% | 28.1hPa | 2.7V | 03:39:14 | 02:00:18 | 00:00:00 | |
| DF8AY | 2026-08-31 12:09:06 | 53.23479 | 10.80848 | 59° | 11km/h | 24739m | 6.2m/s | -50.9°C | 0% | 28.1hPa | 2.6V | 03:39:41 | 02:00:21 | 00:00:00 | |
| HSKMA3-T | 2026-08-31 12:09:04 | 53.23478 | 10.80842 | 83° | 4km/h | 24728m | 5.6m/s | -50.8°C | 0% | 28.1hPa | 2.7V | 03:39:41 | 02:00:19 | 00:00:00 | |
| DO2SHX-10 | 2026-08-31 12:09:04 | 53.23478 | 10.80844 | 73° | 4km/h | 24734m | 4.9m/s | -50.9°C | 3.4% | 28.0hPa | 2.7V | 03:39:00 | 02:00:20 | 00:00:00 | |
| DL1NUX | 2026-08-31 12:09:02 | 53.23479 | 10.80846 | 106° | 4km/h | 24700m | 5.1m/s | -50.7°C | 3.4% | 28.2hPa | 2.7V | 03:39:18 | 02:00:14 | 00:00:00 | |
| EDDB2-11 | 2026-08-31 12:09:01 | 53.23478 | 10.80842 | 277° | 0km/h | 24722m | 6.5m/s | -50.8°C | 0.8% | 28.1hPa | 2.7V | 00:00:00 | 00:00:00 | 00:00:00 | |
| DM0DOS-11 | 2026-08-31 12:09:00 | 53.23478 | 10.80840 | 54° | 11km/h | 24691m | 5.8m/s | -50.7°C | 3.4% | 28.2hPa | 2.7V | 03:39:20 | 02:00:12 | 00:00:00 | |
| AA1-15 | 2026-08-31 12:08:57 | 53.23479 | 10.80846 | 107° | 4km/h | 24700m | 5.1m/s | -50.7°C | 0% | 28.2hPa | 2.7V | 03:39:41 | 02:00:14 | 00:00:00 | |
| DF8AY | 2026-08-31 12:08:55 | 53.23478 | 10.80840 | 54° | 11km/h | 24691m | 5.8m/s | -50.7°C | 0% | 28.2hPa | 2.7V | 03:39:41 | 02:00:12 | 00:00:00 | |
| DB0DAN | 2026-08-31 12:08:55 | 53.23478 | 10.80840 | 54° | 11km/h | 24691m | 5.8m/s | -50.7°C | 0.7% | 28.24hPa | 2.7V | 00:00:00 | 00:00:00 | 00:00:00 | |
| BIOWL1-15 | 2026-08-31 12:08:54 | 53.23475 | 10.80836 | 42° | 15km/h | 24685m | 6.2m/s | -50.8°C | 0% | 28.3hPa | 2.6V | 03:39:41 | 02:00:11 | 00:00:00 | |
| HSKMA3-T | 2026-08-31 12:08:51 | 53.23466 | 10.80819 | 60° | 20km/h | 24669m | 6.2m/s | -50.8°C | 0% | 28.4hPa | 2.7V | 03:39:41 | 02:00:08 | 00:00:00 | |
| SO1NDE-10 | 2026-08-31 12:08:50 | 53.23464 | 10.80811 | 75° | 13km/h | 24664m | 4.9m/s | -50.8°C | 3.4% | 28.3hPa | 2.6V | 00:00:00 | 02:00:07 | 00:00:00 | |
| DL1XH1-15 | 2026-08-31 12:08:48 | 53.23461 | 10.80788 | 71° | 9km/h | 24643m | 5m/s | -50.9°C | 3.4% | 28.5hPa | 2.7V | 03:39:29 | 02:00:03 | 00:00:00 | |
| AA1-15 | 2026-08-31 12:08:46 | 53.23461 | 10.80788 | 72° | 9km/h | 24643m | 5m/s | -50.9°C | 0% | 28.5hPa | 2.7V | 03:39:41 | 02:00:03 | 00:00:00 | |
| DF8AY | 2026-08-31 12:08:44 | 53.23460 | 10.80782 | 97° | 7km/h | 24633m | 6m/s | -50.9°C | 0% | 28.5hPa | 2.6V | 03:39:41 | 02:00:01 | 00:00:00 | |
| EDDB2-12 | 2026-08-31 12:08:44 | 53.23461 | 10.80779 | 109° | 7km/h | 24627m | 5.1m/s | -50.8°C | 0.7% | 28.6hPa | 2.7V | 00:00:00 | 00:00:00 | 00:00:00 | |
| DL1XH-15 | 2026-08-31 12:08:42 | 53.23461 | 10.80772 | 72° | 7km/h | 24618m | 4.5m/s | -50.8°C | 3.5% | 28.6hPa | 2.7V | 03:39:34 | 01:59:58 | 00:00:00 | |
| DL1XH-west | 2026-08-31 12:08:41 | 53.23460 | 10.80769 | 47° | 11km/h | 24613m | 6.3m/s | -50.8°C | 0.1% | 28.6hPa | 2.7V | 03:39:41 | 01:59:57 | 00:00:00 | |
| DM0DOS-11 | 2026-08-31 12:08:40 | 53.23448 | 10.80749 | 69° | 13km/h | 24587m | 4.3m/s | -50.6°C | 3.4% | 28.7hPa | 2.7V | 03:39:40 | 01:59:52 | 00:00:00 | |
| DB0DAN | 2026-08-31 12:08:40 | 53.23460 | 10.80769 | 47° | 11km/h | 24613m | 6.3m/s | -50.8°C | 0.8% | 28.59hPa | 2.7V | 00:00:00 | 00:00:00 | 00:00:00 | |
| GOEST3-10 | 2026-08-31 12:08:40 | 53.23460 | 10.80769 | 47° | 13km/h | 24613m | 6.2m/s | -50.7°C | 3.5% | 28.5hPa | 2.6V | 00:00:00 | 00:00:00 | 00:00:00 | |
| DL1NUX | 2026-08-31 12:08:39 | 53.23452 | 10.80758 | 39° | 15km/h | 24598m | 5.4m/s | -50.7°C | 3.5% | 28.7hPa | 2.6V | 03:39:38 | 01:59:54 | 00:00:00 | |
| DL3AQ-11 | 2026-08-31 12:08:38 | 53.23452 | 10.80758 | 39° | 13km/h | 24598m | 5.4m/s | -50.7°C | 0.8% | 28.7hPa | 2.6V | 00:00:00 | 00:00:00 | 00:00:00 | |
| DL1LOL-11 | 2026-08-31 12:08:37 | 53.23451 | 10.80758 | 40° | 15km/h | 24598m | 5.4m/s | -50.7°C | 0.8% | 28.7hPa | 2.6V | 03:39:00 | 00:00:00 | 00:00:00 | |
| DL1XH-15 | 2026-08-31 12:08:36 | 53.23442 | 10.80721 | 72° | 16km/h | 24567m | 4.2m/s | -50.5°C | 3.4% | 28.8hPa | 2.6V | 03:39:44 | 01:59:48 | 00:00:00 | |
| AA1-15 | 2026-08-31 12:08:35 | 53.23448 | 10.80749 | 70° | 15km/h | 24587m | 4.3m/s | -50.7°C | 0.1% | 28.7hPa | 2.7V | 03:39:41 | 01:59:52 | 00:00:00 | |
| HSKMA3-T | 2026-08-31 12:08:34 | 53.23447 | 10.80743 | 75° | 16km/h | 24583m | 5.3m/s | -50.6°C | 0% | 28.7hPa | 2.7V | 03:39:41 | 01:59:51 | 00:00:00 | |
| DF8AY | 2026-08-31 12:08:31 | 53.23442 | 10.80721 | 72° | 16km/h | 24567m | 4.2m/s | -50.6°C | 0% | 28.8hPa | 2.6V | 03:40:32 | 01:59:48 | 00:00:00 | |
| DL1XH1-15 | 2026-08-31 12:08:31 | 53.23438 | 10.80708 | 15° | 9km/h | 24541m | 5.7m/s | -50.4°C | 3.3% | 28.9hPa | 2.6V | 03:39:49 | 01:59:43 | 00:00:00 | |
| DL1XH-west | 2026-08-31 12:08:29 | 53.23440 | 10.80711 | 71° | 7km/h | 24556m | 5.8m/s | -50.5°C | 0% | 28.9hPa | 2.7V | 03:40:32 | 01:59:46 | 00:00:00 | |
| AM1SDL-15 | 2026-08-31 12:08:29 | 53.23440 | 10.80711 | 71° | 11km/h | 24557m | 5.7m/s | -50.4°C | 3.3% | 28.8hPa | 2.7V | 00:00:00 | 01:59:46 | 00:00:00 | |
| DD8BA-10 | 2026-08-31 12:08:27 | 53.23439 | 10.80708 | 14° | 13km/h | 24547m | 4.6m/s | -50.3°C | 3.3% | 28.9hPa | 2.7V | 03:39:00 | 00:00:00 | 00:00:00 | |
| DB0DAN | 2026-08-31 12:08:25 | 53.23435 | 10.80706 | 23° | 13km/h | 24536m | 5.3m/s | -50.4°C | 0.7% | 28.99hPa | 2.7V | 00:00:00 | 00:00:00 | 00:00:00 | |
| AA1-15 | 2026-08-31 12:08:24 | 53.23432 | 10.80703 | 32° | 16km/h | 24531m | 4.2m/s | -50.3°C | 0% | 29hPa | 2.7V | 03:40:32 | 01:59:41 | 00:00:00 | |
| HSKMA3-T | 2026-08-31 12:08:22 | 53.23425 | 10.80695 | 46° | 15km/h | 24521m | 6.3m/s | -50.3°C | 0% | 29hPa | 2.6V | 03:40:32 | 01:59:39 | 00:00:00 | |
| DL1XH-15 | 2026-08-31 12:08:22 | 53.23423 | 10.80691 | 57° | 13km/h | 24516m | 5.6m/s | -50.3°C | 3.3% | 29hPa | 2.7V | 03:39:54 | 01:59:38 | 00:00:00 | |
| DF8AY | 2026-08-31 12:08:20 | 53.23422 | 10.80687 | 65° | 11km/h | 24511m | 4.3m/s | -50.3°C | 0% | 29.1hPa | 2.7V | 03:40:32 | 01:59:37 | 00:00:00 | |
| DL1XH-west | 2026-08-31 12:08:19 | 53.23419 | 10.80678 | 55° | 13km/h | 24501m | 5.9m/s | -50.3°C | 0% | 29.1hPa | 2.6V | 03:40:32 | 01:59:35 | 00:00:00 | |
| DL1XH1-15 | 2026-08-31 12:08:18 | 53.23413 | 10.80669 | 34° | 16km/h | 24490m | 4.3m/s | -50.3°C | 3.3% | 29.2hPa | 2.7V | 03:39:59 | 01:59:33 | 00:00:00 | |
| DO2SHX-10 | 2026-08-31 12:08:18 | 53.23419 | 10.80678 | 55° | 15km/h | 24502m | 5.9m/s | -50.3°C | 3.3% | 29.0hPa | 2.7V | 00:00:00 | 01:59:35 | 00:00:00 | |
| DD8BA-10 | 2026-08-31 12:08:17 | 53.23416 | 10.80673 | 43° | 9km/h | 24496m | 5.7m/s | -50.2°C | 3.3% | 29.1hPa | 2.7V | 00:00:00 | 00:00:00 | 00:00:00 | |
| DL1XH-15 | 2026-08-31 12:08:16 | 53.23404 | 10.80669 | 300° | 4km/h | 24464m | 4.5m/s | -50.2°C | 3.2% | 29.3hPa | 2.7V | 03:40:04 | 01:59:28 | 00:00:00 | |
| AA1-15 | 2026-08-31 12:08:14 | 53.23405 | 10.80666 | 331° | 5km/h | 24475m | 5.7m/s | -50.3°C | 0% | 29.2hPa | 2.6V | 03:40:32 | 01:59:30 | 00:00:00 | |
| BIOWL1-15 | 2026-08-31 12:08:12 | 53.23402 | 10.80670 | 13° | 5km/h | 24453m | 5m/s | -50.2°C | 0% | 29.3hPa | 2.7V | 03:40:32 | 01:59:26 | 00:00:00 | |
| HSKMA3-T | 2026-08-31 12:08:12 | 53.23404 | 10.80669 | 300° | 4km/h | 24464m | 4.5m/s | -50.2°C | 0% | 29.3hPa | 2.7V | 03:40:32 | 01:59:28 | 00:00:00 | |
| S3001 | 2026-08-31 12:08:11 | 53.23404 | 10.80669 | 300° | 4km/h | 24464m | 4.5m/s | -50.2°C | 0.7% | 29.3hPa | 2.7V | 00:00:00 | 00:00:00 | 00:00:00 | |
| DM0DOS-11 | 2026-08-31 12:08:10 | 53.23395 | 10.80669 | 332° | 7km/h | 24433m | 5.1m/s | -50.4°C | 3.3% | 29.4hPa | 2.7V | 03:40:10 | 01:59:22 | 00:00:00 | |
| DF8AY | 2026-08-31 12:08:08 | 53.23400 | 10.80669 | 18° | 7km/h | 24449m | 4.1m/s | -50.3°C | 0% | 29.4hPa | 2.6V | 03:40:32 | 01:59:25 | 00:00:00 | |
| DL1XH1-15 | 2026-08-31 12:08:08 | 53.23397 | 10.80668 | 349° | 7km/h | 24439m | 5.7m/s | -50.3°C | 3.3% | 29.4hPa | 2.6V | 03:40:09 | 01:59:23 | 00:00:00 | |
| DL1XH-west | 2026-08-31 12:08:07 | 53.23399 | 10.80668 | 8° | 7km/h | 24444m | 5m/s | -50.3°C | 0% | 29.4hPa | 2.6V | 03:40:32 | 01:59:24 | 00:00:00 | |
| AA1-15 | 2026-08-31 12:08:03 | 53.23377 | 10.80674 | 340° | 15km/h | 24402m | 6.2m/s | -50.5°C | 0% | 29.6hPa | 2.7V | 03:40:32 | 01:59:16 | 00:00:00 | |
| DL1NUX | 2026-08-31 12:08:02 | 53.23372 | 10.80680 | 316° | 11km/h | 24391m | 4.4m/s | -50.5°C | 0% | 0hPa | 2.7V | 03:40:18 | 01:59:14 | 00:00:00 | |
| HSKMA3-T | 2026-08-31 12:08:01 | 53.23384 | 10.80672 | 4° | 15km/h | 24412m | 4.8m/s | -50.5°C | 0% | 29.5hPa | 2.6V | 03:40:32 | 01:59:18 | 00:00:00 | |
| BIOWL1-15 | 2026-08-31 12:07:59 | 53.23374 | 10.80677 | 321° | 13km/h | 24396m | 5.8m/s | -50.5°C | 0% | 29.6hPa | 2.7V | 03:40:32 | 01:59:15 | 00:00:00 | |
| DM0DOS-11 | 2026-08-31 12:07:59 | 53.23367 | 10.80684 | 353° | 9km/h | 24380m | 5.8m/s | -50.6°C | 3.3% | 29.6hPa | 2.6V | 03:40:20 | 01:59:12 | 00:00:00 | |
| DL1XH-west | 2026-08-31 12:07:56 | 53.23369 | 10.80683 | 329° | 11km/h | 24386m | 5.7m/s | -50.6°C | 0% | 29.6hPa | 2.6V | 03:40:32 | 01:59:13 | 00:00:00 | |
| HTAHTA | 2026-08-31 12:07:53 | 53.23363 | 10.80683 | 9° | 7km/h | 24371m | 4.6m/s | -50.6°C | 0.7% | 29.7hPa | 2.6V | 00:00:00 | 00:00:00 | 00:00:00 | |
| DL1NUX | 2026-08-31 12:07:52 | 53.23346 | 10.80676 | 23° | 15km/h | 24339m | 3.5m/s | 0°C | 0% | 0hPa | 2.6V | 03:40:28 | 01:59:04 | 00:00:00 | |
| HSKMA3-T | 2026-08-31 12:07:51 | 53.23358 | 10.80683 | 2° | 9km/h | 24360m | 5m/s | -50.6°C | 0% | 29.7hPa | 2.6V | 03:40:32 | 01:59:08 | 00:00:00 | |
| AA1-15 | 2026-08-31 12:07:49 | 53.23350 | 10.80679 | 26° | 15km/h | 24343m | 5.4m/s | -50.8°C | 0% | 29.8hPa | 2.7V | 03:40:32 | 01:59:05 | 00:00:00 | |
| BIOWL1-15 | 2026-08-31 12:07:48 | 53.23339 | 10.80674 | 352° | 15km/h | 24330m | 5.5m/s | -50.8°C | 0% | 29.9hPa | 2.6V | 03:40:32 | 01:59:02 | 00:00:00 | |
| DO2SHX-10 | 2026-08-31 12:07:48 | 53.23349 | 10.80679 | 27° | 15km/h | 24344m | 5.4m/s | -50.7°C | 3.4% | 29.7hPa | 2.6V | 00:00:00 | 01:59:05 | 00:00:00 | |
| DM0DOS-11 | 2026-08-31 12:07:47 | 53.23339 | 10.80674 | 352° | 15km/h | 24330m | 5.5m/s | -50.8°C | 3.4% | 29.9hPa | 2.6V | 03:40:30 | 01:59:02 | 00:00:00 | |
| DF8AY | 2026-08-31 12:07:46 | 53.23342 | 10.80674 | 9° | 15km/h | 24335m | 4.7m/s | -50.8°C | 0% | 29.9hPa | 2.6V | 03:40:32 | 01:59:03 | 00:00:00 | |
| DL3AQ-11 | 2026-08-31 12:07:45 | 53.23335 | 10.80676 | 332° | 15km/h | 24324m | 5.7m/s | -50.8°C | 0.7% | 29.9hPa | 2.6V | 00:00:00 | 00:00:00 | 00:00:00 | |
| HSKMA3-T | 2026-08-31 12:07:40 | 53.23318 | 10.80690 | 348° | 20km/h | 24302m | 4.5m/s | -50.7°C | 0% | 30hPa | 2.6V | 03:41:23 | 01:58:57 | 00:00:00 | |
| DB0DAN | 2026-08-31 12:07:40 | 53.23318 | 10.80690 | 348° | 18km/h | 24302m | 4.5m/s | -50.7°C | 0.7% | 30hPa | 2.6V | 00:00:00 | 00:00:00 | 00:00:00 | |
| DM0DOS-11 | 2026-08-31 12:07:40 | 53.23298 | 10.80697 | 0° | 15km/h | 24276m | 5.6m/s | -51°C | 3.3% | 30.1hPa | 2.6V | 03:40:40 | 01:58:52 | 00:00:00 | |
| AA1-15 | 2026-08-31 12:07:39 | 53.23309 | 10.80693 | 345° | 16km/h | 24292m | 6.1m/s | -50.8°C | 0% | 30.1hPa | 2.7V | 03:41:23 | 01:58:55 | 00:00:00 | |
| DL1NUX | 2026-08-31 12:07:39 | 53.23305 | 10.80695 | 341° | 15km/h | 24286m | 5.6m/s | 0°C | 0% | 0hPa | 2.7V | 00:00:00 | 01:58:54 | 00:00:00 | |
| DO2SHX-10 | 2026-08-31 12:07:39 | 53.23313 | 10.80692 | 350° | 16km/h | 24298m | 4.3m/s | -50.7°C | 3.3% | 30.0hPa | 2.7V | 03:40:00 | 01:58:56 | 00:00:00 | |
| DL1XH1-15 | 2026-08-31 12:07:38 | 53.23301 | 10.80697 | 347° | 15km/h | 24281m | 4.8m/s | -50.8°C | 3.3% | 30.1hPa | 2.7V | 03:40:39 | 01:58:53 | 00:00:00 | |
| BIOWL1-15 | 2026-08-31 12:07:36 | 53.23301 | 10.80697 | 347° | 15km/h | 24281m | 4.8m/s | -50.8°C | 0% | 30.1hPa | 2.7V | 03:41:23 | 01:58:53 | 00:00:00 | |
| DL1XH-15 | 2026-08-31 12:07:36 | 53.23278 | 10.80697 | 344° | 18km/h | 24256m | 5.7m/s | -51.1°C | 3.4% | 30.2hPa | 2.7V | 03:40:44 | 01:58:48 | 00:00:00 | |
| DF8AY | 2026-08-31 12:07:35 | 53.23298 | 10.80697 | 1° | 15km/h | 24276m | 5.6m/s | -51°C | 0% | 30.1hPa | 2.6V | 03:41:23 | 01:58:52 | 00:00:00 | |
| GOEST3-10 | 2026-08-31 12:07:35 | 53.23298 | 10.80697 | 1° | 18km/h | 24276m | 5.6m/s | -50.9°C | 3.3% | 30.1hPa | 2.7V | 00:00:00 | 01:58:52 | 00:00:00 | |
| DL3AQ-11 | 2026-08-31 12:07:34 | 53.23289 | 10.80696 | 6° | 18km/h | 24265m | 4.3m/s | -51.0°C | 0.7% | 30.2hPa | 2.7V | 00:00:00 | 00:00:00 | 00:00:00 | |
| DO2SHX-10 | 2026-08-31 12:07:33 | 53.23288 | 10.80696 | 7° | 20km/h | 24265m | 4.2m/s | -50.9°C | 3.3% | 30.1hPa | 2.7V | 00:00:00 | 01:58:50 | 00:00:00 | |
| DL1NUX | 2026-08-31 12:07:32 | 53.23263 | 10.80715 | 327° | 18km/h | 24236m | 5.9m/s | 0°C | 0% | 0hPa | 2.7V | 00:00:00 | 01:58:44 | 00:00:00 | |
| HSKMA3-T | 2026-08-31 12:07:30 | 53.23274 | 10.80700 | 330° | 18km/h | 24250m | 5.3m/s | -51.1°C | 0% | 30.2hPa | 2.7V | 03:41:23 | 01:58:47 | 00:00:00 | |
| DM0DOS-11 | 2026-08-31 12:07:30 | 53.23254 | 10.80721 | 344° | 22km/h | 24225m | 5m/s | -51.2°C | 3.4% | 30.3hPa | 2.6V | 03:40:50 | 01:58:42 | 00:00:00 | |
| AA1-15 | 2026-08-31 12:07:28 | 53.23267 | 10.80710 | 318° | 18km/h | 24241m | 4.2m/s | -51.1°C | 0% | 30.3hPa | 2.6V | 03:41:23 | 01:58:45 | 00:00:00 | |
| EDDB2-11 | 2026-08-31 12:07:28 | 53.23267 | 10.80710 | 318° | 18km/h | 24241m | 4.2m/s | -51.1°C | 0.7% | 30.3hPa | 2.6V | 00:00:00 | 00:00:00 | 00:00:00 | |
| DD8BA-10 | 2026-08-31 12:07:27 | 53.23263 | 10.80714 | 328° | 22km/h | 24236m | 5.9m/s | -51.2°C | 3.4% | 30.3hPa | 2.6V | 00:00:00 | 00:00:00 | 00:00:00 | |
| DL1XH-15 | 2026-08-31 12:07:26 | 53.23232 | 10.80737 | 330° | 24km/h | 24204m | 3.9m/s | -51.3°C | 3.4% | 30.5hPa | 2.6V | 03:40:54 | 01:58:38 | 00:00:00 | |
| BIOWL1-15 | 2026-08-31 12:07:26 | 53.23259 | 10.80718 | 339° | 20km/h | 24230m | 5.4m/s | -51.3°C | 0% | 30.3hPa | 2.7V | 03:41:23 | 01:58:43 | 00:00:00 | |
| DL1XH-west | 2026-08-31 12:07:26 | 53.23254 | 10.80721 | 344° | 22km/h | 24225m | 5m/s | -51.2°C | 0% | 30.3hPa | 2.6V | 03:41:23 | 01:58:42 | 00:00:00 | |
| DB0DAN | 2026-08-31 12:07:25 | 53.23254 | 10.80721 | 344° | 20km/h | 24225m | 5m/s | -51.2°C | 0.7% | 30.34hPa | 2.6V | 00:00:00 | 00:00:00 | 00:00:00 | |
| DF8AY | 2026-08-31 12:07:24 | 53.23249 | 10.80724 | 343° | 24km/h | 24220m | 4.9m/s | -51.3°C | 0% | 30.4hPa | 2.6V | 03:41:23 | 01:58:41 | 00:00:00 | |
| DF8AY-15 | 2026-08-31 12:07:24 | 53.23249 | 10.80723 | 343° | 18km/h | 24220m | 4.8m/s | -51.2°C | 3.3% | 30.3hPa | 2.7V | 00:00:00 | 01:58:41 | 00:00:00 | |
| TFSTFS | 2026-08-31 12:07:23 | 53.23249 | 10.80723 | 344° | 24km/h | 24220m | 4.9m/s | -51.3°C | 0.7% | 30.4hPa | 2.7V | 00:00:00 | 00:00:00 | 00:00:00 | |
| DL1NUX | 2026-08-31 12:07:22 | 53.23212 | 10.80750 | 336° | 16km/h | 24183m | 5m/s | 0°C | 0% | 0hPa | 2.7V | 00:00:00 | 01:58:34 | 00:00:00 | |
| DO2SHX-10 | 2026-08-31 12:07:21 | 53.23232 | 10.80736 | 331° | 24km/h | 24204m | 3.8m/s | -51.3°C | 3.4% | 30.4hPa | 2.6V | 00:00:00 | 01:58:38 | 00:00:00 | |
| DM0DOS-11 | 2026-08-31 12:07:20 | 53.23206 | 10.80758 | 304° | 16km/h | 24171m | 5.6m/s | -51.6°C | 3.4% | 30.6hPa | 2.6V | 03:41:00 | 01:58:32 | 00:00:00 | |
| BIOWL1-15 | 2026-08-31 12:07:19 | 53.23196 | 10.80779 | 322° | 13km/h | 24144m | 5.5m/s | -51.7°C | 0.1% | 30.7hPa | 2.6V | 03:41:23 | 01:58:27 | 00:00:00 | |
| AA1-15 | 2026-08-31 12:07:18 | 53.23212 | 10.80750 | 336° | 16km/h | 24183m | 5m/s | -51.6°C | 0% | 30.6hPa | 2.7V | 03:41:23 | 01:58:34 | 00:00:00 | |
| HSKMA3-T | 2026-08-31 12:07:17 | 53.23209 | 10.80753 | 321° | 15km/h | 24177m | 6.4m/s | -51.6°C | 0% | 30.6hPa | 2.6V | 03:41:23 | 01:58:33 | 00:00:00 | |
| DL1XH-15 | 2026-08-31 12:07:16 | 53.23199 | 10.80776 | 319° | 11km/h | 24149m | 5.4m/s | -51.8°C | 3.5% | 30.7hPa | 2.7V | 03:41:04 | 01:58:28 | 00:00:00 | |
| DF8AY | 2026-08-31 12:07:14 | 53.23204 | 10.80764 | 298° | 15km/h | 24166m | 4m/s | -51.7°C | 0% | 30.6hPa | 2.6V | 03:41:23 | 01:58:31 | 00:00:00 | |
| GOEST3-10 | 2026-08-31 12:07:14 | 53.23204 | 10.80764 | 298° | 13km/h | 24166m | 3.9m/s | -51.7°C | 3.5% | 30.6hPa | 2.6V | 00:00:00 | 01:58:31 | 00:00:00 | |
| DO2SHX-10 | 2026-08-31 12:07:12 | 53.23200 | 10.80773 | 310° | 11km/h | 24155m | 6.3m/s | -51.7°C | 3.5% | 30.6hPa | 2.7V | 00:00:00 | 01:58:29 | 00:00:00 | |
| DL1XH1-15 | 2026-08-31 12:07:11 | 53.23179 | 10.80792 | 359° | 18km/h | 24117m | 5.2m/s | -52.1°C | 3.6% | 30.9hPa | 2.7V | 03:41:10 | 01:58:22 | 00:00:00 | |
| EDDB2-12 | 2026-08-31 12:07:11 | 53.23196 | 10.80779 | 321° | 11km/h | 24144m | 5.5m/s | -51.7°C | 0.8% | 30.7hPa | 2.7V | 00:00:00 | 00:00:00 | 00:00:00 | |
| DM0DOS-11 | 2026-08-31 12:07:10 | 53.23179 | 10.80792 | 359° | 18km/h | 24117m | 5.2m/s | -52.1°C | 3.6% | 30.9hPa | 2.7V | 03:41:10 | 01:58:22 | 00:00:00 | |
| AA1-15 | 2026-08-31 12:07:07 | 53.23183 | 10.80791 | 351° | 16km/h | 24123m | 6.6m/s | -52°C | 0.1% | 30.9hPa | 2.7V | 03:41:23 | 01:58:23 | 00:00:00 | |
| DL1XH-west | 2026-08-31 12:07:04 | 53.23169 | 10.80793 | 348° | 20km/h | 24108m | 4.9m/s | -52.1°C | 0.1% | 30.9hPa | 2.6V | 03:41:23 | 01:58:20 | 00:00:00 | |
| BIOWL1-15 | 2026-08-31 12:07:03 | 53.23155 | 10.80806 | 321° | 22km/h | 24091m | 5.1m/s | -52.2°C | 0.1% | 31hPa | 2.7V | 03:41:23 | 01:58:17 | 00:00:00 | |
| DF8AY | 2026-08-31 12:07:02 | 53.23164 | 10.80796 | 336° | 22km/h | 24102m | 6.4m/s | -52.2°C | 0.1% | 30.9hPa | 2.6V | 03:41:23 | 01:58:19 | 00:00:00 | |
| DM0DOS-11 | 2026-08-31 12:07:00 | 53.23132 | 10.80824 | 338° | 22km/h | 24065m | 6.1m/s | -52.2°C | 3.5% | 31.1hPa | 2.7V | 03:41:20 | 01:58:12 | 00:00:00 | |
| AA1-15 | 2026-08-31 12:06:56 | 53.23137 | 10.80822 | 342° | 20km/h | 24071m | 4.5m/s | -52.2°C | 0% | 31.1hPa | 2.7V | 03:41:23 | 01:58:13 | 00:00:00 | |
| DL1XH-15 | 2026-08-31 12:06:56 | 53.23115 | 10.80833 | 6° | 13km/h | 24042m | 6.8m/s | -52.2°C | 3.6% | 31.2hPa | 2.7V | 03:41:24 | 01:58:08 | 00:00:00 | |
| DB0DAN | 2026-08-31 12:06:55 | 53.23132 | 10.80824 | 339° | 20km/h | 24065m | 6.1m/s | -52.2°C | 0.8% | 31.12hPa | 2.7V | 00:00:00 | 00:00:00 | 00:00:00 | |
| DF8AY | 2026-08-31 12:06:52 | 53.23119 | 10.80833 | 350° | 15km/h | 24049m | 6.3m/s | -52.4°C | 0.1% | 31.2hPa | 2.7V | 03:41:23 | 01:58:09 | 00:00:00 | |
| AA1-15 | 2026-08-31 12:06:46 | 53.23090 | 10.80833 | 359° | 22km/h | 24008m | 6.7m/s | -52.7°C | 0.1% | 31.4hPa | 2.7V | 03:42:14 | 01:58:02 | 00:00:00 | |
| DO2SHX-10 | 2026-08-31 12:06:45 | 53.23090 | 10.80832 | 360° | 22km/h | 24008m | 6.7m/s | -52.7°C | 3.7% | 31.4hPa | 2.6V | 00:00:00 | 01:58:02 | 00:00:00 | |
| DF8AY-15 | 2026-08-31 12:06:44 | 53.23084 | 10.80832 | 1° | 15km/h | 24002m | 5.8m/s | -52.6°C | 3.6% | 31.4hPa | 2.6V | 03:41:00 | 01:58:01 | 00:00:00 | |
| DL1XH-15 | 2026-08-31 12:06:42 | 53.23069 | 10.80837 | 333° | 20km/h | 23985m | 5.8m/s | -52.8°C | 3.7% | 31.5hPa | 2.6V | 03:41:34 | 01:57:58 | 00:00:00 | |
| BIOWL1-15 | 2026-08-31 12:06:42 | 53.23065 | 10.80841 | 325° | 16km/h | 23980m | 3.5m/s | -52.7°C | 0.2% | 31.5hPa | 2.7V | 03:42:14 | 01:57:57 | 00:00:00 | |
| DF8AY | 2026-08-31 12:06:41 | 53.23069 | 10.80837 | 334° | 20km/h | 23985m | 5.8m/s | -52.8°C | 0.2% | 31.5hPa | 2.6V | 03:42:14 | 01:57:58 | 00:00:00 | |
| DB0DAN | 2026-08-31 12:06:40 | 53.23065 | 10.80841 | 325° | 16km/h | 23980m | 3.5m/s | -52.7°C | 0.8% | 31.54hPa | 2.7V | 00:00:00 | 00:00:00 | 00:00:00 | |
| AA1-15 | 2026-08-31 12:06:35 | 53.23049 | 10.80853 | 339° | 15km/h | 23946m | 6m/s | -52.8°C | 0.2% | 31.7hPa | 2.7V | 03:42:14 | 01:57:51 | 00:00:00 | |
| GOEST3-10 | 2026-08-31 12:06:34 | 53.23049 | 10.80853 | 339° | 13km/h | 23946m | 5.9m/s | -52.7°C | 3.8% | 31.6hPa | 2.6V | 00:00:00 | 01:57:51 | 00:00:00 | |
| DL1XH-15 | 2026-08-31 12:06:32 | 53.23040 | 10.80857 | 351° | 11km/h | 23928m | 5.6m/s | -52.7°C | 3.7% | 31.8hPa | 2.6V | 03:41:44 | 01:57:48 | 00:00:00 | |
| DL1XH-west | 2026-08-31 12:06:30 | 53.23037 | 10.80858 | 343° | 11km/h | 23922m | 5.1m/s | -52.8°C | 0.3% | 31.8hPa | 2.6V | 03:42:14 | 01:57:47 | 00:00:00 | |
| BIOWL1-15 | 2026-08-31 12:06:29 | 53.23034 | 10.80860 | 331° | 11km/h | 23917m | 5.5m/s | -52.9°C | 0.3% | 31.8hPa | 2.7V | 03:42:14 | 01:57:46 | 00:00:00 | |
| GOEST3-10 | 2026-08-31 12:06:29 | 53.23034 | 10.80860 | 331° | 15km/h | 23917m | 5.4m/s | -52.9°C | 3.8% | 31.8hPa | 2.7V | 03:41:00 | 00:00:00 | 00:00:00 | |
| DD8BA-10 | 2026-08-31 12:06:27 | 53.23029 | 10.80868 | 313° | 15km/h | 23905m | 5.4m/s | -52.8°C | 3.9% | 31.8hPa | 2.7V | 03:41:00 | 00:00:00 | 00:00:00 | |
| DB0DAN | 2026-08-31 12:06:25 | 53.23023 | 10.80877 | 321° | 13km/h | 23894m | 6.2m/s | -52.6°C | 0.8% | 31.94hPa | 2.7V | 00:00:00 | 00:00:00 | 00:00:00 | |
| AA1-15 | 2026-08-31 12:06:24 | 53.23018 | 10.80880 | 5° | 11km/h | 23883m | 5m/s | -52.6°C | 0.2% | 32hPa | 2.6V | 03:42:14 | 01:57:40 | 00:00:00 | |
| HSKMA3-T | 2026-08-31 12:06:21 | 53.23008 | 10.80878 | 8° | 15km/h | 23865m | 5.6m/s | -52.5°C | 0.1% | 32.1hPa | 2.7V | 03:42:14 | 01:57:37 | 00:00:00 | |
| DL1XH-west | 2026-08-31 12:06:20 | 53.23005 | 10.80877 | 13° | 15km/h | 23860m | 5.2m/s | -52.4°C | 0.1% | 32.1hPa | 2.7V | 03:42:14 | 01:57:36 | 00:00:00 | |
| DF8AY | 2026-08-31 12:06:19 | 53.22999 | 10.80873 | 31° | 11km/h | 23848m | 5.3m/s | -52.3°C | 0.1% | 32.2hPa | 2.6V | 03:42:14 | 01:57:34 | 00:00:00 | |
| BIOWL1-15 | 2026-08-31 12:06:18 | 53.22996 | 10.80871 | 23° | 9km/h | 23843m | 4.2m/s | -52.4°C | 0.1% | 32.2hPa | 2.6V | 03:42:14 | 01:57:33 | 00:00:00 | |
| DO2SHX-10 | 2026-08-31 12:06:18 | 53.23001 | 10.80875 | 24° | 11km/h | 23854m | 6.9m/s | -52.3°C | 3.6% | 32.1hPa | 2.6V | 00:00:00 | 01:57:35 | 00:00:00 | |
| BIOWL9-15 | 2026-08-31 12:06:17 | 53.22996 | 10.80871 | 23° | 7km/h | 23843m | 4.2m/s | -52.4°C | 0.8% | 32.2hPa | 2.6V | 00:00:00 | 00:00:00 | 00:00:00 | |
| DL1XH-15 | 2026-08-31 12:06:16 | 53.22987 | 10.80880 | 316° | 7km/h | 23814m | 6.4m/s | -52.3°C | 3.7% | 32.4hPa | 2.6V | 03:42:04 | 01:57:28 | 00:00:00 | |
| AA1-15 | 2026-08-31 12:06:14 | 53.22990 | 10.80874 | 319° | 11km/h | 23825m | 5.4m/s | -52.3°C | 0.2% | 32.3hPa | 2.7V | 03:42:14 | 01:57:30 | 00:00:00 | |
| HSKMA3-T | 2026-08-31 12:06:11 | 53.22985 | 10.80881 | 352° | 4km/h | 23809m | 5.6m/s | -52.3°C | 0.2% | 32.4hPa | 2.6V | 03:42:14 | 01:57:27 | 00:00:00 | |
| DB0DAN | 2026-08-31 12:06:10 | 53.22985 | 10.80881 | 352° | 4km/h | 23809m | 5.6m/s | -52.3°C | 0.8% | 32.41hPa | 2.6V | 00:00:00 | 00:00:00 | 00:00:00 | |
| DL1XH-west | 2026-08-31 12:06:09 | 53.22984 | 10.80881 | 22° | 5km/h | 23803m | 4.7m/s | -52.4°C | 0.2% | 32.4hPa | 2.7V | 03:42:14 | 01:57:26 | 00:00:00 | |
| DO2SHX-10 | 2026-08-31 12:06:09 | 53.22984 | 10.80881 | 22° | 9km/h | 23804m | 4.7m/s | -52.3°C | 3.7% | 32.4hPa | 2.7V | 00:00:00 | 01:57:26 | 00:00:00 | |
| SMARD9-10 | 2026-08-31 12:06:08 | 53.22984 | 10.80881 | 23° | 5km/h | 23804m | 4.7m/s | -52.4°C | 0.8% | 32.4hPa | 2.7V | 00:00:00 | 00:00:00 | 00:00:00 | |
| DD8BA-10 | 2026-08-31 12:06:07 | 53.22980 | 10.80878 | 13° | 7km/h | 23792m | 6.8m/s | -52.2°C | 3.7% | 32.4hPa | 2.7V | 00:00:00 | 00:00:00 | 00:00:00 | |
| DL1XH-15 | 2026-08-31 12:06:06 | 53.22968 | 10.80870 | 99° | 2km/h | 23756m | 5.5m/s | -52.3°C | 3.5% | 32.7hPa | 2.7V | 03:42:14 | 01:57:18 | 00:00:00 | |
| BIOWL1-15 | 2026-08-31 12:06:05 | 53.22973 | 10.80876 | 11° | 13km/h | 23780m | 4.8m/s | -52.1°C | 0.1% | 32.5hPa | 2.6V | 03:42:14 | 01:57:22 | 00:00:00 | |
| AA1-15 | 2026-08-31 12:06:03 | 53.22969 | 10.80873 | 42° | 7km/h | 23769m | 6.9m/s | -52.2°C | 0.1% | 32.6hPa | 2.7V | 03:42:14 | 01:57:20 | 00:00:00 | |
| HSKMA3-T | 2026-08-31 12:06:01 | 53.22968 | 10.80870 | 99° | 2km/h | 23756m | 5.5m/s | -52.3°C | 0.1% | 32.7hPa | 2.7V | 03:42:14 | 01:57:18 | 00:00:00 | |
| DL1XH-west | 2026-08-31 12:05:59 | 53.22967 | 10.80871 | 301° | 5km/h | 23744m | 5.8m/s | -52.3°C | 0.1% | 32.7hPa | 2.6V | 03:43:05 | 01:57:16 | 00:00:00 | |
| BIOWL1-15 | 2026-08-31 12:05:55 | 53.22962 | 10.80876 | 27° | 7km/h | 23716m | 5.4m/s | -52.3°C | 0.2% | 32.9hPa | 2.7V | 03:43:05 | 01:57:11 | 00:00:00 | |
| DB0DAN | 2026-08-31 12:05:55 | 53.22964 | 10.80877 | 19° | 4km/h | 23722m | 6.2m/s | -52.3°C | 0.8% | 32.83hPa | 2.6V | 00:00:00 | 00:00:00 | 00:00:00 | |
| AA1-15 | 2026-08-31 12:05:53 | 53.22957 | 10.80873 | 18° | 15km/h | 23704m | 6.2m/s | -52.3°C | 0.2% | 32.9hPa | 2.6V | 03:43:05 | 01:57:09 | 00:00:00 | |
| DL1XH-15 | 2026-08-31 12:05:52 | 53.22954 | 10.80871 | 20° | 16km/h | 23699m | 4.9m/s | -52.3°C | 3.6% | 33hPa | 2.6V | 03:42:24 | 01:57:08 | 00:00:00 | |
| HSKMA3-T | 2026-08-31 12:05:50 | 53.22950 | 10.80868 | 31° | 16km/h | 23693m | 5.6m/s | -52.3°C | 0.1% | 33hPa | 2.7V | 03:43:05 | 01:57:07 | 00:00:00 | |
| DL1XH-west | 2026-08-31 12:05:49 | 53.22947 | 10.80864 | 46° | 15km/h | 23687m | 7m/s | -52.4°C | 0.1% | 33hPa | 2.7V | 03:43:05 | 01:57:06 | 00:00:00 | |
| DF8AY | 2026-08-31 12:05:44 | 53.22939 | 10.80845 | 41° | 7km/h | 23658m | 5.4m/s | -52.5°C | 0.2% | 33.2hPa | 2.7V | 03:43:05 | 01:57:01 | 00:00:00 | |
| BIOWL1-15 | 2026-08-31 12:05:44 | 53.22937 | 10.80839 | 68° | 9km/h | 23645m | 6.3m/s | -52.5°C | 0.3% | 33.2hPa | 2.7V | 03:43:05 | 01:56:59 | 00:00:00 | |
| DF8AY-15 | 2026-08-31 12:05:44 | 53.22939 | 10.80845 | 41° | 11km/h | 23658m | 5.3m/s | -52.4°C | 3.7% | 33.1hPa | 2.6V | 00:00:00 | 01:57:01 | 00:00:00 | |
| DL1XH-15 | 2026-08-31 12:05:42 | 53.22936 | 10.80835 | 62° | 13km/h | 23640m | 4.6m/s | -52.5°C | 3.8% | 33.2hPa | 2.6V | 03:42:34 | 01:56:58 | 00:00:00 | |
| AA1-15 | 2026-08-31 12:05:42 | 53.22936 | 10.80835 | 62° | 13km/h | 23640m | 4.6m/s | -52.5°C | 0.2% | 33.2hPa | 2.6V | 03:43:05 | 01:56:58 | 00:00:00 | |
| DL4BBY-15 | 2026-08-31 12:05:42 | 53.22937 | 10.80839 | 69° | 13km/h | 23646m | 6.3m/s | -51.4°C | 0% | 0hPa | 2.6V | 00:00:00 | 00:00:00 | 00:00:00 | |
| DL8OAI-8 | 2026-08-31 12:05:41 | 53.22937 | 10.80839 | 69° | 9km/h | 23646m | 6.3m/s | -52.5°C | 0.9% | 33.2hPa | 2.6V | 03:43:00 | 00:00:00 | 00:00:00 | |
| DB0DAN | 2026-08-31 12:05:40 | 53.22934 | 10.80830 | 49° | 16km/h | 23635m | 5.5m/s | -52.6°C | 0.9% | 33.29hPa | 2.6V | 00:00:00 | 00:00:00 | 00:00:00 | |
| HSKMA3-T | 2026-08-31 12:05:40 | 53.22934 | 10.80830 | 49° | 16km/h | 23635m | 5.5m/s | -52.6°C | 0.3% | 33.3hPa | 2.6V | 03:43:05 | 01:56:57 | 00:00:00 | |
| DL1XH-west | 2026-08-31 12:05:39 | 53.22930 | 10.80825 | 39° | 20km/h | 23629m | 6.9m/s | -52.6°C | 0.2% | 33.3hPa | 2.6V | 03:43:05 | 01:56:56 | 00:00:00 | |
| BIOWL1-15 | 2026-08-31 12:05:35 | 53.22902 | 10.80785 | 148° | 2km/h | 23570m | 6.9m/s | -52.5°C | 0.2% | 33.6hPa | 2.6V | 03:43:05 | 01:56:46 | 00:00:00 | |
| DF8AY | 2026-08-31 12:05:34 | 53.22909 | 10.80795 | 50° | 16km/h | 23599m | 5.1m/s | -52.5°C | 0.1% | 33.5hPa | 2.6V | 03:43:05 | 01:56:51 | 00:00:00 | |
| DL3AQ-11 | 2026-08-31 12:05:34 | 53.22906 | 10.80791 | 45° | 13km/h | 23593m | 6.5m/s | -52.5°C | 0.8% | 33.5hPa | 2.7V | 00:00:00 | 00:00:00 | 00:00:00 | |
| DO2SHX-10 | 2026-08-31 12:05:33 | 53.22906 | 10.80791 | 46° | 9km/h | 23593m | 6.4m/s | -52.4°C | 3.6% | 33.4hPa | 2.7V | 00:00:00 | 01:56:50 | 00:00:00 | |
| DL1XH-15 | 2026-08-31 12:05:32 | 53.22902 | 10.80786 | 23° | 5km/h | 23581m | 4.8m/s | -52.5°C | 3.6% | 33.6hPa | 2.7V | 03:42:44 | 01:56:48 | 00:00:00 | |
| HSKMA3-T | 2026-08-31 12:05:30 | 53.22902 | 10.80785 | 49° | 2km/h | 23576m | 6.1m/s | -52.5°C | 0.2% | 33.6hPa | 2.7V | 03:43:05 | 01:56:47 | 00:00:00 | |
| DL1XH-west | 2026-08-31 12:05:28 | 53.22902 | 10.80784 | 146° | 2km/h | 23563m | 5.3m/s | -52.5°C | 0.1% | 33.7hPa | 2.6V | 03:43:05 | 01:56:45 | 00:00:00 | |
| DD8BA-10 | 2026-08-31 12:05:27 | 53.22902 | 10.80784 | 56° | 11km/h | 23559m | 4.8m/s | -52.5°C | 3.7% | 33.6hPa | 2.6V | 00:00:00 | 00:00:00 | 00:00:00 | |
| TFSTFS | 2026-08-31 12:05:26 | 53.22902 | 10.80784 | 0° | 0km/h | 23559m | 4.8m/s | -52.5°C | 0.8% | 33.7hPa | 2.6V | 00:00:00 | 00:00:00 | 00:00:00 | |
| DB0DAN | 2026-08-31 12:05:25 | 53.22899 | 10.80784 | 1° | 11km/h | 23546m | 5.9m/s | -52.5°C | 0.9% | 33.72hPa | 2.6V | 00:00:00 | 00:00:00 | 00:00:00 | |
| DF8AY | 2026-08-31 12:05:24 | 53.22889 | 10.80782 | 15° | 13km/h | 23529m | 5.7m/s | -52.6°C | 0.2% | 33.8hPa | 2.7V | 03:43:05 | 01:56:39 | 00:00:00 | |
| BIOWL1-15 | 2026-08-31 12:05:24 | 53.22886 | 10.80780 | 16° | 11km/h | 23524m | 5.1m/s | -52.7°C | 0.2% | 33.8hPa | 2.7V | 03:43:05 | 01:56:38 | 00:00:00 | |
| DL1XH-15 | 2026-08-31 12:05:22 | 53.22886 | 10.80780 | 16° | 11km/h | 23524m | 5.1m/s | -52.7°C | 3.7% | 33.8hPa | 2.7V | 03:42:54 | 01:56:38 | 00:00:00 | |
| AA1-15 | 2026-08-31 12:05:20 | 53.22884 | 10.80779 | 12° | 11km/h | 23519m | 4.7m/s | -52.8°C | 0.2% | 33.9hPa | 2.6V | 03:43:05 | 01:56:37 | 00:00:00 | |
| HSKMA3-T | 2026-08-31 12:05:19 | 53.22881 | 10.80778 | 4° | 13km/h | 23513m | 6.5m/s | -52.9°C | 0.2% | 33.9hPa | 2.6V | 03:43:05 | 01:56:36 | 00:00:00 | |
| DL1XH-west | 2026-08-31 12:05:18 | 53.22878 | 10.80778 | 1° | 13km/h | 23507m | 5.5m/s | -52.9°C | 0.2% | 33.9hPa | 2.6V | 03:43:05 | 01:56:35 | 00:00:00 | |
| DL3AQ-11 | 2026-08-31 12:05:18 | 53.22875 | 10.80778 | 12° | 11km/h | 23502m | 5.0m/s | -52.9°C | 0.9% | 34.0hPa | 2.7V | 00:00:00 | 00:00:00 | 00:00:00 | |
| DD8BA-10 | 2026-08-31 12:05:17 | 53.22875 | 10.80778 | 13° | 11km/h | 23502m | 4.9m/s | -52.9°C | 3.8% | 33.9hPa | 2.7V | 00:00:00 | 00:00:00 | 00:00:00 | |
| DL1XH1-15 | 2026-08-31 12:05:16 | 53.22870 | 10.80772 | 58° | 13km/h | 23489m | 6.3m/s | -52.7°C | 3.8% | 34hPa | 2.7V | 03:43:00 | 01:56:32 | 00:00:00 | |
| DF8AY | 2026-08-31 12:05:13 | 53.22864 | 10.80755 | 31° | 11km/h | 23467m | 5.2m/s | -52.8°C | 0.2% | 34.1hPa | 2.7V | 03:43:05 | 01:56:28 | 00:00:00 | |
| BIOWL1-15 | 2026-08-31 12:05:10 | 53.22854 | 10.80763 | 303° | 5km/h | 23422m | 5.1m/s | -52.5°C | 0.2% | 34.4hPa | 2.7V | 03:43:56 | 01:56:20 | 00:00:00 | |
| DB0DAN | 2026-08-31 12:05:10 | 53.22861 | 10.80753 | 21° | 9km/h | 23461m | 5.3m/s | -52.7°C | 0.8% | 34.16hPa | 2.7V | 00:00:00 | 00:00:00 | 00:00:00 | |
| AA1-15 | 2026-08-31 12:05:09 | 53.22860 | 10.80752 | 23° | 7km/h | 23455m | 6.6m/s | -52.6°C | 0.2% | 34.2hPa | 2.7V | 03:43:56 | 01:56:26 | 00:00:00 | |
| HSKMA3-T | 2026-08-31 12:05:08 | 53.22858 | 10.80751 | 20° | 4km/h | 23449m | 5.4m/s | -52.6°C | 0.1% | 34.2hPa | 2.6V | 03:43:56 | 01:56:25 | 00:00:00 | |
| DL1XH-west | 2026-08-31 12:05:07 | 53.22857 | 10.80751 | 324° | 4km/h | 23444m | 5m/s | -52.6°C | 0.1% | 34.3hPa | 2.6V | 03:43:56 | 01:56:24 | 00:00:00 | |
| SONDE2-11 | 2026-08-31 12:05:07 | 53.22856 | 10.80753 | 300° | 7km/h | 23438m | 6.6m/s | -52.7°C | 0.8% | 34.3hPa | 2.7V | 00:00:00 | 00:00:00 | 00:00:00 | |
| DB0NH | 2026-08-31 12:05:06 | 53.22856 | 10.80753 | 301° | 5km/h | 23439m | 6.6m/s | 0°C | 0% | 0hPa | 2.7V | 00:00:00 | 01:56:23 | 00:00:00 | |
| DL3AQ-11 | 2026-08-31 12:05:05 | 53.22854 | 10.80760 | 293° | 9km/h | 23427m | 4.5m/s | -52.5°C | 0.8% | 34.4hPa | 2.7V | 00:00:00 | 00:00:00 | 00:00:00 | |
| DF8AY-15 | 2026-08-31 12:05:04 | 53.22854 | 10.80760 | 294° | 7km/h | 23427m | 4.4m/s | -52.4°C | 3.7% | 34.3hPa | 2.7V | 00:00:00 | 01:56:21 | 00:00:00 | |
| DO2SHX-10 | 2026-08-31 12:05:03 | 53.22853 | 10.80763 | 304° | 5km/h | 23422m | 5.0m/s | -52.5°C | 3.7% | 34.3hPa | 2.7V | 03:43:00 | 01:56:20 | 00:00:00 | |
| DL1XH-15 | 2026-08-31 12:05:02 | 53.22852 | 10.80763 | 49° | 7km/h | 23410m | 5m/s | -52.6°C | 3.7% | 34.5hPa | 2.6V | 03:43:14 | 01:56:18 | 00:00:00 | |
| DF8AY | 2026-08-31 12:05:00 | 53.22850 | 10.80760 | 49° | 11km/h | 23406m | 4.5m/s | -52.5°C | 0.2% | 34.5hPa | 2.7V | 03:43:56 | 01:56:17 | 00:00:00 | |
| HSKMA3-T | 2026-08-31 12:04:58 | 53.22845 | 10.80754 | 29° | 13km/h | 23395m | 5.3m/s | -52.7°C | 0.2% | 34.5hPa | 2.6V | 03:43:56 | 01:56:15 | 00:00:00 | |
| DM0DOS-11 | 2026-08-31 12:04:58 | 53.22841 | 10.80747 | 179° | 7km/h | 23369m | 4.2m/s | -52.6°C | 3.8% | 34.7hPa | 2.6V | 03:43:22 | 01:56:10 | 00:00:00 | |
| DL1XH-west | 2026-08-31 12:04:57 | 53.22843 | 10.80751 | 22° | 11km/h | 23390m | 4.2m/s | -52.8°C | 0.2% | 0hPa | 2.6V | 03:43:56 | 01:56:14 | 00:00:00 | |
| BIOWL1-15 | 2026-08-31 12:04:55 | 53.22839 | 10.80749 | 51° | 4km/h | 23380m | 6m/s | -52.7°C | 0.2% | 34.6hPa | 2.7V | 03:43:56 | 01:56:12 | 00:00:00 | |
| DB0DAN | 2026-08-31 12:04:55 | 53.22839 | 10.80749 | 51° | 4km/h | 23380m | 6m/s | -52.7°C | 0.9% | 34.62hPa | 2.7V | 00:00:00 | 00:00:00 | 00:00:00 | |
| DF8AY | 2026-08-31 12:04:49 | 53.22847 | 10.80754 | 270° | 5km/h | 23349m | 4.8m/s | -52.5°C | 0.2% | 34.8hPa | 2.6V | 03:43:56 | 01:56:06 | 00:00:00 | |
| GOEST3-10 | 2026-08-31 12:04:49 | 53.22847 | 10.80754 | 271° | 4km/h | 23349m | 4.7m/s | -52.5°C | 3.7% | 34.7hPa | 2.6V | 03:43:00 | 00:00:00 | 00:00:00 | |
| DM0DOS-11 | 2026-08-31 12:04:48 | 53.22847 | 10.80752 | 199° | 2km/h | 23315m | 5.1m/s | -52.5°C | 3.7% | 34.9hPa | 2.6V | 03:43:32 | 01:56:00 | 00:00:00 | |
| AA1-15 | 2026-08-31 12:04:47 | 53.22846 | 10.80756 | 95° | 2km/h | 23338m | 5.8m/s | -52.6°C | 0.2% | 34.8hPa | 2.6V | 03:43:56 | 01:56:04 | 00:00:00 | |
| SMARD9-15 | 2026-08-31 12:04:47 | 53.22846 | 10.80754 | 112° | 4km/h | 23332m | 5.3m/s | -52.5°C | 0.8% | 34.9hPa | 2.7V | 00:00:00 | 00:00:00 | 00:00:00 | |
| DL1XH1-15 | 2026-08-31 12:04:46 | 53.22847 | 10.80753 | 107° | 4km/h | 23327m | 5.2m/s | -52.5°C | 3.7% | 34.9hPa | 2.7V | 03:43:30 | 01:56:02 | 00:00:00 | |
| DL1XH-west | 2026-08-31 12:04:46 | 53.22846 | 10.80754 | 112° | 4km/h | 23332m | 5.3m/s | -52.5°C | 0.1% | 0hPa | 2.7V | 03:43:56 | 01:56:03 | 00:00:00 | |
| BIOWL1-15 | 2026-08-31 12:04:44 | 53.22853 | 10.80751 | 181° | 7km/h | 23293m | 4.2m/s | -52.4°C | 0.2% | 35.1hPa | 2.7V | 03:43:56 | 01:55:56 | 00:00:00 | |
| DF8AY-15 | 2026-08-31 12:04:44 | 53.22847 | 10.80752 | 116° | 7km/h | 23321m | 6.4m/s | -52.5°C | 3.7% | 34.9hPa | 2.7V | 00:00:00 | 01:56:01 | 00:00:00 | |
| DF7ER-10 | 2026-08-31 12:04:43 | 53.22847 | 10.80752 | 116° | 2km/h | 23321m | 6.5m/s | -52.6°C | 0.9% | 34.9hPa | 2.7V | 03:43:00 | 00:00:00 | 00:00:00 | |
| DL4BBY-15 | 2026-08-31 12:04:42 | 53.22848 | 10.80751 | 186° | 9km/h | 23310m | 4.7m/s | -51.4°C | 0% | 0hPa | 2.7V | 00:00:00 | 00:00:00 | 00:00:00 | |
| DL1LOL-11 | 2026-08-31 12:04:41 | 53.22848 | 10.80752 | 186° | 4km/h | 23310m | 4.7m/s | -52.5°C | 0.8% | 35.0hPa | 2.7V | 00:00:00 | 00:00:00 | 00:00:00 | |
| DL2RXE-15 | 2026-08-31 12:04:40 | 53.22849 | 10.80751 | 176° | 7km/h | 23304m | 6.6m/s | -52.5°C | 0.8% | 35.0hPa | 2.7V | 00:00:00 | 00:00:00 | 00:00:00 | |
| DO2SHX-10 | 2026-08-31 12:04:39 | 53.22853 | 10.80751 | 182° | 5km/h | 23293m | 4.1m/s | -52.3°C | 3.7% | 35.0hPa | 2.7V | 03:43:00 | 01:55:56 | 00:00:00 | |
| DM0DOS-11 | 2026-08-31 12:04:38 | 53.22854 | 10.80748 | 59° | 11km/h | 23262m | 4.8m/s | -52.5°C | 3.7% | 35.3hPa | 2.7V | 03:43:42 | 01:55:50 | 00:00:00 | |
| DF8AY | 2026-08-31 12:04:37 | 53.22853 | 10.80744 | 47° | 11km/h | 23257m | 4.9m/s | -52.4°C | 0.2% | 35.3hPa | 2.7V | 03:43:56 | 01:55:49 | 00:00:00 | |
| HSKMA3-T | 2026-08-31 12:04:36 | 53.22856 | 10.80753 | 268° | 0km/h | 23278m | 3.9m/s | -52.4°C | 0.2% | 35.2hPa | 2.6V | 03:43:56 | 01:55:53 | 00:00:00 | |
| DL1XH1-15 | 2026-08-31 12:04:36 | 53.22856 | 10.80753 | 66° | 4km/h | 23273m | 5.8m/s | -52.4°C | 3.7% | 35.2hPa | 2.6V | 03:43:40 | 01:55:52 | 00:00:00 | |
| DL1XH-west | 2026-08-31 12:04:35 | 53.22856 | 10.80753 | 66° | 4km/h | 23273m | 5.8m/s | -52.4°C | 0.2% | 0hPa | 2.6V | 03:43:56 | 01:55:52 | 00:00:00 | |
| GOEST3-10 | 2026-08-31 12:04:34 | 53.22855 | 10.80751 | 67° | 11km/h | 23268m | 5.9m/s | -52.4°C | 3.7% | 35.2hPa | 2.7V | 00:00:00 | 01:55:51 | 00:00:00 | |
| DO2SHX-10 | 2026-08-31 12:04:33 | 53.22854 | 10.80747 | 60° | 11km/h | 23262m | 4.8m/s | -52.4°C | 3.7% | 35.2hPa | 2.7V | 00:00:00 | 01:55:50 | 00:00:00 | |
| DL4XJ-10 | 2026-08-31 12:04:32 | 53.22852 | 10.80744 | 47° | 11km/h | 23257m | 4.8m/s | -51.3°C | 0% | 0hPa | 2.7V | 00:00:00 | 00:00:00 | 00:00:00 | |
| DO2SHX-10 | 2026-08-31 12:04:30 | 53.22847 | 10.80739 | 16° | 11km/h | 23246m | 4.5m/s | -52.4°C | 3.7% | 35.3hPa | 2.7V | 00:00:00 | 01:55:47 | 00:00:00 | |
| GOEST3-10 | 2026-08-31 12:04:29 | 53.22844 | 10.80737 | 14° | 9km/h | 23242m | 4.3m/s | -52.4°C | 3.7% | 35.3hPa | 2.7V | 03:43:00 | 00:00:00 | 00:00:00 | |
| DM0DOS-11 | 2026-08-31 12:04:28 | 53.22840 | 10.80723 | 93° | 4km/h | 23211m | 4.8m/s | -52.5°C | 3.7% | 35.5hPa | 2.6V | 03:43:52 | 01:55:40 | 00:00:00 | |
| AA1-15 | 2026-08-31 12:04:26 | 53.22839 | 10.80731 | 83° | 7km/h | 23226m | 4.7m/s | -52.4°C | 0.2% | 35.5hPa | 2.6V | 03:43:56 | 01:55:43 | 00:00:00 | |
| DL1XH1-15 | 2026-08-31 12:04:26 | 53.22839 | 10.80728 | 97° | 7km/h | 23221m | 4.2m/s | -52.4°C | 3.7% | 35.5hPa | 2.7V | 03:43:50 | 01:55:42 | 00:00:00 | |
| DL1XH-west | 2026-08-31 12:04:25 | 53.22839 | 10.80728 | 97° | 7km/h | 23221m | 4.3m/s | 0°C | 0% | 0hPa | 2.7V | 03:43:56 | 01:55:42 | 00:00:00 | |
| DF8AY | 2026-08-31 12:04:22 | 53.22840 | 10.80720 | 92° | 7km/h | 23201m | 5.8m/s | -52.4°C | 0.2% | 35.6hPa | 2.7V | 03:43:56 | 01:55:38 | 00:00:00 | |
| DL1XH1-15 | 2026-08-31 12:04:21 | 53.22834 | 10.80694 | 50° | 13km/h | 23169m | 4.2m/s | -52.3°C | 3.6% | 35.8hPa | 2.7V | 03:44:00 | 01:55:32 | 00:00:00 | |
| BIOWL1-15 | 2026-08-31 12:04:18 | 53.22831 | 10.80683 | 69° | 16km/h | 23158m | 5.9m/s | -52.4°C | 0.2% | 35.8hPa | 2.7V | 03:44:47 | 01:55:30 | 00:00:00 | |
| DM0DOS-11 | 2026-08-31 12:04:18 | 53.22831 | 10.80683 | 69° | 16km/h | 23158m | 5.9m/s | -52.4°C | 3.7% | 35.8hPa | 2.7V | 03:44:02 | 01:55:30 | 00:00:00 | |
| DO2SHX-10 | 2026-08-31 12:04:18 | 53.22839 | 10.80706 | 76° | 11km/h | 23185m | 5.3m/s | -52.3°C | 3.6% | 35.6hPa | 2.6V | 00:00:00 | 01:55:35 | 00:00:00 | |
| DD8BA-10 | 2026-08-31 12:04:17 | 53.22838 | 10.80701 | 59° | 15km/h | 23179m | 6.0m/s | -52.3°C | 3.6% | 35.7hPa | 2.6V | 00:00:00 | 00:00:00 | 00:00:00 | |
| DL1XH-15 | 2026-08-31 12:04:16 | 53.22828 | 10.80670 | 64° | 16km/h | 23147m | 6.2m/s | -52.5°C | 3.7% | 35.9hPa | 2.6V | 03:44:04 | 01:55:28 | 00:00:00 | |
| HSKMA3-T | 2026-08-31 12:04:15 | 53.22834 | 10.80694 | 51° | 13km/h | 23169m | 4.2m/s | -52.3°C | 0.1% | 35.8hPa | 2.7V | 03:44:47 | 01:55:32 | 00:00:00 | |
| DL1XH-west | 2026-08-31 12:04:14 | 53.22832 | 10.80689 | 65° | 15km/h | 23164m | 6.3m/s | 0°C | 0% | 0hPa | 2.7V | 18:12:15 | 01:55:31 | 00:00:00 | |
| DF8AY | 2026-08-31 12:04:11 | 53.22828 | 10.80670 | 64° | 16km/h | 23147m | 6.2m/s | -52.5°C | 0.2% | 35.9hPa | 2.6V | 03:44:47 | 01:55:28 | 00:00:00 | |
| DL1XH1-15 | 2026-08-31 12:04:10 | 53.22816 | 10.80637 | 44° | 11km/h | 23116m | 5.8m/s | -52.5°C | 3.7% | 36.1hPa | 2.6V | 03:44:10 | 01:55:22 | 00:00:00 | |
| DB0DAN | 2026-08-31 12:04:10 | 53.22826 | 10.80664 | 57° | 16km/h | 23141m | 5.5m/s | -52.5°C | 0.9% | 35.95hPa | 2.6V | 00:00:00 | 00:00:00 | 00:00:00 | |
| DO2SHX-10 | 2026-08-31 12:04:09 | 53.22823 | 10.80658 | 58° | 16km/h | 23136m | 4.0m/s | -52.4°C | 3.7% | 35.9hPa | 2.7V | 00:00:00 | 01:55:26 | 00:00:00 | |
| DM0DOS-11 | 2026-08-31 12:04:08 | 53.22810 | 10.80633 | 14° | 13km/h | 23104m | 4.4m/s | -52.5°C | 3.7% | 36.1hPa | 2.7V | 03:44:12 | 01:55:20 | 00:00:00 | |
| HSKMA3-T | 2026-08-31 12:04:05 | 53.22816 | 10.80637 | 45° | 11km/h | 23116m | 5.8m/s | -52.5°C | 0.2% | 36.1hPa | 2.6V | 03:44:47 | 01:55:22 | 00:00:00 | |
| BIOWL1-15 | 2026-08-31 12:04:04 | 53.22813 | 10.80635 | 23° | 11km/h | 23110m | 5.9m/s | -52.5°C | 0.2% | 36.1hPa | 2.6V | 03:44:47 | 01:55:21 | 00:00:00 | |
| DF8AY-15 | 2026-08-31 12:04:04 | 53.22813 | 10.80634 | 23° | 18km/h | 23110m | 5.8m/s | -52.4°C | 3.7% | 36.1hPa | 2.6V | 03:44:00 | 01:55:21 | 00:00:00 | |
| DO2SHX-10 | 2026-08-31 12:04:03 | 53.22810 | 10.80633 | 15° | 15km/h | 23105m | 4.4m/s | -52.4°C | 3.7% | 36.1hPa | 2.7V | 03:44:00 | 01:55:20 | 00:00:00 | |
| DL1XH-15 | 2026-08-31 12:04:02 | 53.22804 | 10.80628 | 33° | 15km/h | 23095m | 5.7m/s | -52.5°C | 3.7% | 36.2hPa | 2.7V | 03:44:14 | 01:55:18 | 00:00:00 | |
| DF8AY | 2026-08-31 12:04:01 | 53.22801 | 10.80624 | 42° | 16km/h | 23090m | 4.7m/s | -52.4°C | 0.2% | 36.2hPa | 2.6V | 03:44:47 | 01:55:17 | 00:00:00 | |
| DO9LL-15 | 2026-08-31 12:04:00 | 53.22801 | 10.80624 | 43° | 18km/h | 23090m | 4.6m/s | -52.3°C | 3.7% | 36.2hPa | 2.6V | 00:00:00 | 01:55:17 | 00:00:00 | |
| GOEST3-10 | 2026-08-31 12:03:59 | 53.22797 | 10.80619 | 45° | 20km/h | 23085m | 4.9m/s | -52.4°C | 3.7% | 36.2hPa | 2.6V | 00:00:00 | 00:00:00 | 00:00:00 | |
| DM0DOS-11 | 2026-08-31 12:03:58 | 53.22774 | 10.80588 | 43° | 18km/h | 23054m | 4.2m/s | -52.5°C | 3.7% | 36.4hPa | 2.7V | 03:44:22 | 01:55:10 | 00:00:00 | |
| DL3AQ-11 | 2026-08-31 12:03:58 | 53.22790 | 10.80609 | 32° | 20km/h | 23074m | 5.4m/s | -52.4°C | 0.9% | 36.3hPa | 2.6V | 00:00:00 | 00:00:00 | 00:00:00 | |
| DO2SHX-10 | 2026-08-31 12:03:57 | 53.22790 | 10.80609 | 33° | 20km/h | 23074m | 5.4m/s | -52.4°C | 3.7% | 36.3hPa | 2.6V | 00:00:00 | 01:55:14 | 00:00:00 | |
| DL1XH-15 | 2026-08-31 12:03:56 | 53.22766 | 10.80580 | 20° | 18km/h | 23044m | 6.3m/s | -52.5°C | 3.7% | 36.4hPa | 2.6V | 03:44:24 | 01:55:08 | 00:00:00 | |
| DB0DAN | 2026-08-31 12:03:55 | 53.22781 | 10.80600 | 38° | 18km/h | 23064m | 5.6m/s | -52.5°C | 0.8% | 36.34hPa | 2.6V | 00:00:00 | 00:00:00 | 00:00:00 | |
| HSKMA3-T | 2026-08-31 12:03:54 | 53.22778 | 10.80594 | 45° | 20km/h | 23058m | 5.6m/s | -52.4°C | 0.1% | 36.4hPa | 2.7V | 03:44:47 | 01:55:11 | 00:00:00 | |
| SONCRA | 2026-08-31 12:03:52 | 53.22771 | 10.80584 | 33° | 16km/h | 23049m | 4.2m/s | -52.6°C | 0% | 36.4hPa | 2.7V | 00:00:00 | 00:00:00 | 00:00:00 | |
| EDDB2-11 | 2026-08-31 12:03:51 | 53.22762 | 10.80578 | 9° | 18km/h | 23038m | 5.2m/s | -52.6°C | 0.9% | 36.5hPa | 2.7V | 00:00:00 | 00:00:00 | 00:00:00 | |
| DF7ER-10 | 2026-08-31 12:03:50 | 53.22766 | 10.80580 | 22° | 18km/h | 23044m | 6.3m/s | -52.6°C | 0.9% | 36.4hPa | 2.7V | 03:44:00 | 00:00:00 | 00:00:00 | |
| DL2RXE-15 | 2026-08-31 12:03:49 | 53.22757 | 10.80577 | 6° | 18km/h | 23033m | 5.2m/s | -52.7°C | 0.9% | 36.5hPa | 2.7V | 00:00:00 | 00:00:00 | 00:00:00 | |
| DM0DOS-11 | 2026-08-31 12:03:48 | 53.22730 | 10.80571 | 16° | 22km/h | 23002m | 4.8m/s | -52.7°C | 3.7% | 36.7hPa | 2.7V | 03:44:32 | 01:55:00 | 00:00:00 | |
| HSKMA3-T | 2026-08-31 12:03:44 | 53.22735 | 10.80573 | 9° | 22km/h | 23008m | 5m/s | -52.8°C | 0.3% | 36.7hPa | 2.7V | 03:44:47 | 01:55:01 | 00:00:00 | |
| BIOWL1-15 | 2026-08-31 12:03:44 | 53.22713 | 10.80552 | 34° | 20km/h | 22982m | 5.5m/s | -52.8°C | 0.2% | 36.8hPa | 2.6V | 03:44:47 | 01:54:56 | 00:00:00 | |
| AA1-15 | 2026-08-31 12:03:44 | 53.22730 | 10.80571 | 16° | 22km/h | 23003m | 4.8m/s | -52.7°C | 0.2% | 36.7hPa | 2.7V | 03:44:47 | 01:55:00 | 00:00:00 | |
| NBG1-10 | 2026-08-31 12:03:43 | 53.22730 | 10.80571 | 17° | 20km/h | 23003m | 4.7m/s | -52.7°C | 3.7% | 36.6hPa | 2.6V | 03:44:00 | 01:55:00 | 00:00:00 | |
| DL1XH-15 | 2026-08-31 12:03:42 | 53.22721 | 10.80563 | 39° | 20km/h | 22991m | 5.1m/s | -52.7°C | 3.8% | 36.8hPa | 2.6V | 03:44:34 | 01:54:58 | 00:00:00 | |
| DL4BBY-15 | 2026-08-31 12:03:42 | 53.22725 | 10.80568 | 29° | 18km/h | 22998m | 6.3m/s | -51.7°C | 0% | 0hPa | 2.6V | 00:00:00 | 00:00:00 | 00:00:00 | |
| DB0DAN | 2026-08-31 12:03:40 | 53.22717 | 10.80557 | 41° | 18km/h | 22987m | 4.3m/s | -52.7°C | 0.9% | 36.82hPa | 2.6V | 00:00:00 | 00:00:00 | 00:00:00 | |
| DL1XH1-15 | 2026-08-31 12:03:40 | 53.22697 | 10.80543 | 11° | 13km/h | 22961m | 5.8m/s | -52.6°C | 3.8% | 36.9hPa | 2.6V | 03:44:40 | 01:54:52 | 00:00:00 | |
| DF8AY | 2026-08-31 12:03:34 | 53.22694 | 10.80542 | 10° | 13km/h | 22956m | 4.7m/s | -52.7°C | 0.3% | 37hPa | 2.6V | 03:44:47 | 01:54:51 | 00:00:00 | |
| AA1-15 | 2026-08-31 12:03:34 | 53.22685 | 10.80541 | 4° | 20km/h | 22946m | 5.9m/s | -52.7°C | 0.2% | 37hPa | 2.7V | 03:44:47 | 01:54:49 | 00:00:00 | |
| HSKMA3-T | 2026-08-31 12:03:33 | 53.22690 | 10.80542 | 3° | 16km/h | 22951m | 4.5m/s | -52.6°C | 0.3% | 37hPa | 2.7V | 03:44:47 | 01:54:50 | 00:00:00 | |
| DO2SHX-10 | 2026-08-31 12:03:33 | 53.22690 | 10.80542 | 3° | 20km/h | 22951m | 4.5m/s | -52.6°C | 3.8% | 37.0hPa | 2.7V | 00:00:00 | 01:54:50 | 00:00:00 | |
| DL1XH-15 | 2026-08-31 12:03:32 | 53.22680 | 10.80541 | 5° | 24km/h | 22940m | 4.3m/s | -52.6°C | 3.8% | 37.1hPa | 2.6V | 03:44:44 | 01:54:48 | 00:00:00 | |
| DG6HD-15 | 2026-08-31 12:03:31 | 53.22686 | 10.80541 | 5° | 20km/h | 22946m | 5.9m/s | -52.7°C | 0.9% | 37.0hPa | 2.7V | 03:44:00 | 00:00:00 | 00:00:00 | |
| DL1XH1-15 | 2026-08-31 12:03:30 | 53.22647 | 10.80516 | 24° | 22km/h | 22911m | 5.5m/s | -52.5°C | 3.7% | 37.2hPa | 2.7V | 03:44:50 | 01:54:42 | 00:00:00 | |
| BIOWL1-15 | 2026-08-31 12:03:30 | 53.22668 | 10.80536 | 20° | 26km/h | 22932m | 6m/s | -52.6°C | 0.2% | 37.1hPa | 2.7V | 03:44:47 | 01:54:46 | 00:00:00 | |
| GOEST3-10 | 2026-08-31 12:03:29 | 53.22668 | 10.80536 | 21° | 24km/h | 22932m | 6.0m/s | -52.6°C | 3.8% | 37.1hPa | 2.7V | 03:44:00 | 00:00:00 | 00:00:00 | |
| DM0DOS-11 | 2026-08-31 12:03:28 | 53.22638 | 10.80510 | 24° | 16km/h | 22900m | 6m/s | -52.4°C | 3.7% | 37.3hPa | 2.7V | 03:44:52 | 01:54:40 | 00:00:00 | |
| DD8BA-10 | 2026-08-31 12:03:27 | 53.22657 | 10.80526 | 33° | 16km/h | 22922m | 3.7m/s | -52.5°C | 3.7% | 37.1hPa | 2.7V | 00:00:00 | 00:00:00 | 00:00:00 | |
| DB0DAN | 2026-08-31 12:03:25 | 53.22647 | 10.80516 | 25° | 22km/h | 22911m | 5.5m/s | -52.5°C | 0.9% | 37.25hPa | 2.7V | 00:00:00 | 00:00:00 | 00:00:00 | |
| DL1XH-west | 2026-08-31 12:03:23 | 53.22635 | 10.80508 | 23° | 13km/h | 22894m | 5.2m/s | -52.4°C | 0.2% | 37.4hPa | 2.6V | 03:45:38 | 01:54:39 | 00:00:00 | |
| HSKMA3-T | 2026-08-31 12:03:23 | 53.22638 | 10.80510 | 24° | 16km/h | 22900m | 6m/s | -52.4°C | 0.2% | 37.3hPa | 2.7V | 03:45:38 | 01:54:40 | 00:00:00 | |
| DL1XH-15 | 2026-08-31 12:03:22 | 53.22632 | 10.80506 | 14° | 9km/h | 22890m | 3.8m/s | -52.4°C | 3.7% | 37.4hPa | 2.6V | 03:44:54 | 01:54:38 | 00:00:00 | |
| BIOWL1-15 | 2026-08-31 12:03:21 | 53.22617 | 10.80505 | 12° | 18km/h | 22872m | 3.6m/s | -52.3°C | 0.1% | 37.5hPa | 2.7V | 03:45:38 | 01:54:34 | 00:00:00 | |
| DO2SHX-10 | 2026-08-31 12:03:21 | 53.22632 | 10.80506 | 15° | 13km/h | 22890m | 3.8m/s | -52.3°C | 3.7% | 37.3hPa | 2.6V | 00:00:00 | 01:54:38 | 00:00:00 | |
| DL1XH1-15 | 2026-08-31 12:03:20 | 53.22609 | 10.80498 | 41° | 20km/h | 22862m | 5.5m/s | -52.3°C | 3.6% | 37.5hPa | 2.6V | 03:45:00 | 01:54:32 | 00:00:00 | |
| EDDB2-11 | 2026-08-31 12:03:20 | 53.22626 | 10.80506 | 357° | 15km/h | 22880m | 5.3m/s | -52.4°C | 0.9% | 37.4hPa | 2.7V | 00:00:00 | 00:00:00 | 00:00:00 | |
| GOEST3-10 | 2026-08-31 12:03:19 | 53.22626 | 10.80506 | 358° | 18km/h | 22881m | 5.3m/s | -52.3°C | 3.7% | 37.4hPa | 2.7V | 00:00:00 | 00:00:00 | 00:00:00 | |
| DM0DOS-11 | 2026-08-31 12:03:18 | 53.22602 | 10.80486 | 48° | 16km/h | 22853m | 4.3m/s | -52.3°C | 3.6% | 37.6hPa | 2.7V | 03:45:02 | 01:54:30 | 00:00:00 | |
| HSKMA3-T | 2026-08-31 12:03:13 | 53.22602 | 10.80486 | 49° | 16km/h | 22853m | 4.3m/s | -52.3°C | 0.2% | 37.6hPa | 2.7V | 03:45:38 | 01:54:30 | 00:00:00 | |
| DF8AY | 2026-08-31 12:03:13 | 53.22600 | 10.80482 | 41° | 15km/h | 22848m | 6m/s | -52.3°C | 0.3% | 37.6hPa | 2.7V | 03:45:38 | 01:54:29 | 00:00:00 | |
| DL1XH-west | 2026-08-31 12:03:12 | 53.22596 | 10.80478 | 23° | 13km/h | 22843m | 4.7m/s | -52.3°C | 0.2% | 37.6hPa | 2.7V | 03:45:38 | 01:54:28 | 00:00:00 | |
| DO2SHX-10 | 2026-08-31 12:03:12 | 53.22599 | 10.80482 | 41° | 13km/h | 22848m | 5.9m/s | -52.3°C | 3.7% | 37.5hPa | 2.6V | 00:00:00 | 01:54:29 | 00:00:00 | |
| DG6HD-15 | 2026-08-31 12:03:11 | 53.22599 | 10.80482 | 42° | 15km/h | 22848m | 6.0m/s | -52.3°C | 0.9% | 37.6hPa | 2.6V | 03:45:00 | 00:00:00 | 00:00:00 | |
| DB0DAN | 2026-08-31 12:03:10 | 53.22593 | 10.80477 | 11° | 11km/h | 22838m | 4.1m/s | -52.2°C | 0.9% | 37.7hPa | 2.6V | 00:00:00 | 00:00:00 | 00:00:00 | |
| BIOWL1-15 | 2026-08-31 12:03:08 | 53.22588 | 10.80475 | 16° | 11km/h | 22828m | 5.4m/s | -52.2°C | 0.2% | 37.7hPa | 2.6V | 03:45:38 | 01:54:25 | 00:00:00 | |
| DM0DOS-11 | 2026-08-31 12:03:07 | 53.22567 | 10.80469 | 7° | 24km/h | 22803m | 4.3m/s | -52.1°C | 3.5% | 37.9hPa | 2.6V | 03:45:12 | 01:54:20 | 00:00:00 | |
| DB0NH | 2026-08-31 12:03:06 | 53.22582 | 10.80472 | 14° | 15km/h | 22819m | 4.2m/s | !°C | 3.6% | 37.7hPa | 2.7V | 00:00:00 | 01:54:23 | 00:00:00 | |
| DL3AQ-11 | 2026-08-31 12:03:05 | 53.22573 | 10.80470 | 2° | 22km/h | 22808m | 5.2m/s | -52.2°C | 0.8% | 37.8hPa | 2.6V | 00:00:00 | 00:00:00 | 00:00:00 | |
| DF8AY-15 | 2026-08-31 12:03:04 | 53.22573 | 10.80470 | 3° | 15km/h | 22808m | 5.2m/s | -52.1°C | 3.6% | 37.8hPa | 2.6V | 00:00:00 | 01:54:21 | 00:00:00 | |
| DO2SHX-10 | 2026-08-31 12:03:03 | 53.22567 | 10.80469 | 8° | 22km/h | 22803m | 4.3m/s | -52.0°C | 3.5% | 37.8hPa | 2.7V | 03:45:00 | 01:54:20 | 00:00:00 | |
| DL1XH-15 | 2026-08-31 12:03:02 | 53.22556 | 10.80464 | 29° | 20km/h | 22793m | 5.8m/s | -52.1°C | 3.6% | 37.9hPa | 2.7V | 03:45:14 | 01:54:18 | 00:00:00 | |
| HSKMA3-T | 2026-08-31 12:03:02 | 53.22561 | 10.80467 | 17° | 22km/h | 22798m | 5.1m/s | -52.2°C | 0.1% | 37.9hPa | 2.7V | 03:45:38 | 01:54:19 | 00:00:00 | |
| DL1XH-west | 2026-08-31 12:03:02 | 53.22556 | 10.80464 | 29° | 20km/h | 22793m | 5.8m/s | -52.2°C | 0.2% | 37.9hPa | 2.7V | 03:45:38 | 01:54:18 | 00:00:00 | |
| BIOWL1-15 | 2026-08-31 12:03:00 | 53.22541 | 10.80442 | 24° | 7km/h | 22764m | 4.3m/s | -52.3°C | 0.2% | 38.1hPa | 2.6V | 03:45:38 | 01:54:12 | 00:00:00 | |
| DF8AY | 2026-08-31 12:02:59 | 53.22539 | 10.80441 | 34° | 7km/h | 22759m | 5.6m/s | -52.2°C | 0.2% | 38.1hPa | 2.7V | 03:45:38 | 01:54:11 | 00:00:00 | |
| BUE01 | 2026-08-31 12:02:59 | 53.22547 | 10.80450 | 47° | 13km/h | 22778m | 5.5m/s | -52.2°C | 0.8% | 38.0hPa | 2.6V | 00:00:00 | 00:00:00 | 00:00:00 | |
| DD8BA-10 | 2026-08-31 12:02:57 | 53.22545 | 10.80446 | 37° | 11km/h | 22773m | 4.4m/s | -52.2°C | 3.6% | 38.0hPa | 2.6V | 00:00:00 | 00:00:00 | 00:00:00 | |
| DF7ER-10 | 2026-08-31 12:02:56 | 53.22545 | 10.80446 | 38° | 11km/h | 22773m | 4.5m/s | -52.2°C | 0.9% | 38.0hPa | 2.6V | 03:45:00 | 00:00:00 | 00:00:00 | |
| DB0DAN | 2026-08-31 12:02:55 | 53.22541 | 10.80442 | 24° | 7km/h | 22764m | 4.3m/s | -52.3°C | 0.8% | 38.1hPa | 2.6V | 00:00:00 | 00:00:00 | 00:00:00 | |
| DF8AY | 2026-08-31 12:02:54 | 53.22528 | 10.80442 | 339° | 16km/h | 22734m | 4.9m/s | -52.2°C | 0.2% | 38.3hPa | 2.6V | 03:45:38 | 01:54:06 | 00:00:00 | |
| DM0DOS-11 | 2026-08-31 12:02:54 | 53.22538 | 10.80439 | 32° | 7km/h | 22754m | 4.8m/s | -52.3°C | 3.7% | 38.1hPa | 2.7V | 03:45:22 | 01:54:10 | 00:00:00 | |
| AA1-15 | 2026-08-31 12:02:52 | 53.22536 | 10.80438 | 9° | 7km/h | 22750m | 3.9m/s | -52.2°C | 0.2% | 38.2hPa | 2.7V | 03:45:38 | 01:54:09 | 00:00:00 | |
| DL1XH-15 | 2026-08-31 12:02:52 | 53.22534 | 10.80438 | 349° | 9km/h | 22745m | 5.2m/s | -52.3°C | 3.7% | 38.2hPa | 2.6V | 03:45:24 | 01:54:08 | 00:00:00 | |
| DL1XH-west | 2026-08-31 12:02:51 | 53.22531 | 10.80440 | 338° | 13km/h | 22740m | 6m/s | -52.3°C | 0.1% | 38.2hPa | 2.6V | 03:45:38 | 01:54:07 | 00:00:00 | |
| HSKMA3-T | 2026-08-31 12:02:51 | 53.22534 | 10.80438 | 350° | 9km/h | 22746m | 5.2m/s | -52.3°C | 0.2% | 38.2hPa | 2.6V | 03:45:38 | 01:54:08 | 00:00:00 | |
| DO2SHX-10 | 2026-08-31 12:02:51 | 53.22534 | 10.80438 | 350° | 13km/h | 22746m | 5.1m/s | -52.2°C | 3.7% | 38.2hPa | 2.6V | 03:45:00 | 01:54:08 | 00:00:00 | |
| DL1XH1-15 | 2026-08-31 12:02:50 | 53.22511 | 10.80443 | 18° | 16km/h | 22715m | 3.9m/s | -52.3°C | 3.6% | 38.4hPa | 2.6V | 03:45:30 | 01:54:02 | 00:00:00 | |
| BIOWL1-15 | 2026-08-31 12:02:47 | 53.22515 | 10.80445 | 11° | 16km/h | 22719m | 4.7m/s | -52.3°C | 0.1% | 38.4hPa | 2.7V | 03:45:38 | 01:54:03 | 00:00:00 | |
| DF7ER-10 | 2026-08-31 12:02:47 | 53.22519 | 10.80445 | 359° | 16km/h | 22724m | 5.9m/s | -52.2°C | 0.9% | 38.4hPa | 2.6V | 03:45:00 | 00:00:00 | 00:00:00 | |
| DO2SHX-10 | 2026-08-31 12:02:45 | 53.22511 | 10.80443 | 19° | 15km/h | 22715m | 3.9m/s | -52.2°C | 3.6% | 38.3hPa | 2.6V | 00:00:00 | 01:54:02 | 00:00:00 | |
| GOEST3-10 | 2026-08-31 12:02:44 | 53.22508 | 10.80441 | 19° | 13km/h | 22710m | 4.9m/s | -52.3°C | 3.6% | 38.4hPa | 2.6V | 00:00:00 | 01:54:01 | 00:00:00 | |
| DL1XH-15 | 2026-08-31 12:02:43 | 53.22497 | 10.80437 | 14° | 13km/h | 22696m | 4.3m/s | -52.3°C | 3.6% | 38.5hPa | 2.7V | 03:45:34 | 01:53:58 | 00:00:00 | |
| AA1-15 | 2026-08-31 12:02:42 | 53.22501 | 10.80438 | 10° | 13km/h | 22700m | 3.9m/s | -52.4°C | 0.1% | 38.5hPa | 2.7V | 03:45:38 | 01:53:59 | 00:00:00 | |
| DL4BBY-15 | 2026-08-31 12:02:42 | 53.22501 | 10.80438 | 10° | 9km/h | 22700m | 3.8m/s | -51.3°C | 0% | 0hPa | 2.7V | 00:00:00 | 00:00:00 | 00:00:00 | |
| DL1LOL-11 | 2026-08-31 12:02:41 | 53.22501 | 10.80438 | 10° | 13km/h | 22700m | 3.9m/s | -52.4°C | 0.8% | 38.5hPa | 2.7V | 03:45:00 | 00:00:00 | 00:00:00 | |
| DL1XH1-15 | 2026-08-31 12:02:40 | 53.22482 | 10.80435 | 329° | 15km/h | 22667m | 4.8m/s | -52.5°C | 3.7% | 38.7hPa | 2.7V | 03:45:40 | 01:53:52 | 00:00:00 | |
| DB0DAN | 2026-08-31 12:02:40 | 53.22494 | 10.80435 | 24° | 11km/h | 22691m | 5.6m/s | -52.4°C | 0.8% | 38.54hPa | 2.7V | 00:00:00 | 00:00:00 | 00:00:00 | |
| DL1XH-west | 2026-08-31 12:02:40 | 53.22492 | 10.80433 | 30° | 11km/h | 22686m | 4.7m/s | -52.4°C | 0.2% | 38.6hPa | 2.6V | 03:45:38 | 01:53:56 | 00:00:00 | |
| HSKMA3-T | 2026-08-31 12:02:38 | 53.22490 | 10.80432 | 20° | 9km/h | 22682m | 3.7m/s | 0°C | 0% | 38.6hPa | 2.6V | 03:45:38 | 01:53:55 | 00:00:00 | |
| DL3AQ-11 | 2026-08-31 12:02:38 | 53.22488 | 10.80431 | 354° | 7km/h | 22678m | 4.6m/s | -52.4°C | 0.8% | 38.6hPa | 2.6V | 00:00:00 | 00:00:00 | 00:00:00 | |
| DM0DOS-11 | 2026-08-31 12:02:37 | 53.22475 | 10.80441 | 338° | 16km/h | 22658m | 4.8m/s | -52.5°C | 3.7% | 38.7hPa | 2.6V | 03:45:42 | 01:53:50 | 00:00:00 | |
| BIOWL1-15 | 2026-08-31 12:02:36 | 53.22475 | 10.80441 | 339° | 16km/h | 22658m | 4.8m/s | -52.5°C | 0.2% | 38.7hPa | 2.6V | 03:46:29 | 01:53:50 | 00:00:00 | |
| AA1-15 | 2026-08-31 12:02:31 | 53.22468 | 10.80444 | 356° | 11km/h | 22648m | 3.7m/s | -52.5°C | 0.2% | 38.8hPa | 2.7V | 03:46:29 | 01:53:48 | 00:00:00 | |
| DL1XH-west | 2026-08-31 12:02:29 | 53.22462 | 10.80446 | 1° | 4km/h | 22629m | 4.4m/s | -52.5°C | 0.2% | 38.9hPa | 2.7V | 03:46:29 | 01:53:44 | 00:00:00 | |
| HSKMA3-T | 2026-08-31 12:02:28 | 53.22460 | 10.80446 | 17° | 7km/h | 22623m | 5.8m/s | 0°C | 0% | 0hPa | 2.7V | 18:12:15 | 01:53:43 | 00:00:00 | |
| DM0DOS-11 | 2026-08-31 12:02:27 | 53.22452 | 10.80444 | 354° | 13km/h | 22610m | 5.6m/s | -52.7°C | 3.7% | 39hPa | 2.7V | 03:45:52 | 01:53:40 | 00:00:00 | |
| DD8BA-10 | 2026-08-31 12:02:27 | 53.22462 | 10.80446 | 2° | 9km/h | 22629m | 4.4m/s | -52.5°C | 3.7% | 38.9hPa | 2.6V | 03:45:00 | 00:00:00 | 00:00:00 | |
| DB0DAN | 2026-08-31 12:02:25 | 53.22458 | 10.80445 | 16° | 11km/h | 22618m | 4.5m/s | -52.6°C | 0.9% | 38.96hPa | 2.6V | 00:00:00 | 00:00:00 | 00:00:00 | |
| BIOWL1-15 | 2026-08-31 12:02:23 | 53.22446 | 10.80447 | 336° | 13km/h | 22600m | 3.7m/s | -52.8°C | 0.3% | 39.1hPa | 2.7V | 03:46:29 | 01:53:38 | 00:00:00 | |
| AA1-15 | 2026-08-31 12:02:20 | 53.22443 | 10.80448 | 341° | 11km/h | 22595m | 4.9m/s | -52.7°C | 0.2% | 39.1hPa | 2.6V | 03:46:29 | 01:53:37 | 00:00:00 | |
| DL1XH1-15 | 2026-08-31 12:02:20 | 53.22437 | 10.80446 | 357° | 0km/h | 22570m | 4.9m/s | -52.7°C | 3.7% | 39.2hPa | 2.7V | 03:46:00 | 01:53:32 | 00:00:00 | |
| DL1XH-west | 2026-08-31 12:02:18 | 53.22439 | 10.80448 | 25° | 7km/h | 22585m | 4.8m/s | -52.7°C | 0.2% | 39.2hPa | 2.6V | 03:46:29 | 01:53:35 | 00:00:00 | |
| DF8AY | 2026-08-31 12:02:17 | 53.22436 | 10.80445 | 55° | 5km/h | 22561m | 5.4m/s | -52.7°C | 0.2% | 39.4hPa | 2.6V | 03:47:20 | 01:53:30 | 00:00:00 | |
| HSKMA3-T | 2026-08-31 12:02:16 | 53.22437 | 10.80446 | 357° | 0km/h | 22570m | 4.9m/s | 0°C | 0% | 0hPa | 2.7V | 18:12:15 | 01:53:32 | 00:00:00 | |
| BIOWL1-15 | 2026-08-31 12:02:14 | 53.22431 | 10.80437 | 31° | 13km/h | 22545m | 5.4m/s | -52.7°C | 0.1% | 39.4hPa | 2.7V | 03:46:29 | 01:53:27 | 00:00:00 | |
| GOEST3-10 | 2026-08-31 12:02:14 | 53.22437 | 10.80446 | 33° | 7km/h | 22566m | 4.0m/s | -52.7°C | 3.7% | 39.2hPa | 2.6V | 00:00:00 | 01:53:31 | 00:00:00 | |
| AM1SDL-15 | 2026-08-31 12:02:13 | 53.22436 | 10.80445 | 56° | 9km/h | 22561m | 5.4m/s | -52.6°C | 3.7% | 39.3hPa | 2.7V | 00:00:00 | 01:53:30 | 00:00:00 | |
| DL1XH-15 | 2026-08-31 12:02:12 | 53.22433 | 10.80440 | 42° | 11km/h | 22549m | 5m/s | -52.6°C | 3.7% | 39.4hPa | 2.7V | 03:46:04 | 01:53:28 | 00:00:00 | |
| DL4BBY-15 | 2026-08-31 12:02:12 | 53.22435 | 10.80443 | 49° | 13km/h | 22555m | 5.4m/s | -51.6°C | 0% | 0hPa | 2.7V | 00:00:00 | 00:00:00 | 00:00:00 | |
| DB0DAN | 2026-08-31 12:02:10 | 53.22431 | 10.80437 | 31° | 13km/h | 22545m | 5.4m/s | -52.7°C | 0.8% | 39.4hPa | 2.7V | 00:00:00 | 00:00:00 | 00:00:00 | |
| DL1XH1-15 | 2026-08-31 12:02:10 | 53.22417 | 10.80430 | 36° | 11km/h | 22519m | 5.4m/s | -52.8°C | 3.7% | 39.5hPa | 2.7V | 03:46:10 | 01:53:22 | 00:00:00 | |
| AA1-15 | 2026-08-31 12:02:09 | 53.22428 | 10.80435 | 17° | 11km/h | 22539m | 5.7m/s | -52.7°C | 0.2% | 39.5hPa | 2.7V | 03:46:29 | 01:53:26 | 00:00:00 | |
| DL1XH-west | 2026-08-31 12:02:08 | 53.22425 | 10.80434 | 6° | 11km/h | 22534m | 4.6m/s | -52.7°C | 0.2% | 39.5hPa | 2.6V | 03:46:29 | 01:53:25 | 00:00:00 | |
| DM0DOS-11 | 2026-08-31 12:02:07 | 53.22414 | 10.80424 | 57° | 7km/h | 22509m | 5.3m/s | -52.8°C | 3.8% | 39.6hPa | 2.7V | 03:46:12 | 01:53:20 | 00:00:00 | |
| HSKMA3-T | 2026-08-31 12:02:05 | 53.22417 | 10.80430 | 37° | 11km/h | 22519m | 5.4m/s | 0°C | 0% | 0hPa | 2.7V | 18:12:15 | 01:53:22 | 00:00:00 | |
| DF8AY | 2026-08-31 12:02:01 | 53.22413 | 10.80420 | 105° | 5km/h | 22499m | 4.1m/s | -52.7°C | 0.2% | 39.7hPa | 2.6V | 03:47:20 | 01:53:18 | 00:00:00 | |
| BIOWL1-15 | 2026-08-31 12:01:59 | 53.22395 | 10.80370 | 54° | 22km/h | 22450m | 5.4m/s | -52.7°C | 0.2% | 40hPa | 2.6V | 03:46:29 | 01:53:09 | 00:00:00 | |
| AA1-15 | 2026-08-31 12:01:59 | 53.22411 | 10.80401 | 64° | 18km/h | 22478m | 4.1m/s | -52.7°C | 0.2% | 39.8hPa | 2.6V | 03:46:29 | 01:53:14 | 00:00:00 | |
| DL1XH-west | 2026-08-31 12:01:58 | 53.22408 | 10.80395 | 56° | 18km/h | 22473m | 6m/s | -52.6°C | 0.2% | 39.9hPa | 2.7V | 03:46:29 | 01:53:13 | 00:00:00 | |
| DL3AQ-11 | 2026-08-31 12:01:58 | 53.22411 | 10.80401 | 63° | 16km/h | 22478m | 4.1m/s | -52.7°C | 0.9% | 39.8hPa | 2.6V | 00:00:00 | 00:00:00 | 00:00:00 | |
| DL1XH-15 | 2026-08-31 12:01:57 | 53.22392 | 10.80363 | 61° | 20km/h | 22445m | 3.6m/s | -52.6°C | 3.6% | 40hPa | 2.6V | 03:46:24 | 01:53:08 | 00:00:00 | |
| BUE01 | 2026-08-31 12:01:56 | 53.22408 | 10.80395 | 55° | 16km/h | 22473m | 6.0m/s | -52.6°C | 0.9% | 39.9hPa | 2.7V | 00:00:00 | 00:00:00 | 00:00:00 | |
| DB0DAN | 2026-08-31 12:01:55 | 53.22406 | 10.80389 | 47° | 16km/h | 22467m | 5.6m/s | -52.7°C | 0.9% | 39.87hPa | 2.7V | 00:00:00 | 00:00:00 | 00:00:00 | |
| HSKMA3-T | 2026-08-31 12:01:54 | 53.22402 | 10.80383 | 45° | 20km/h | 22461m | 5.3m/s | 0°C | 0% | 0hPa | 2.7V | 18:12:15 | 01:53:11 | 00:00:00 | |
| DM0DOS-11 | 2026-08-31 12:01:54 | 53.22399 | 10.80377 | 47° | 22km/h | 22456m | 6.2m/s | -52.6°C | 3.7% | 40hPa | 2.6V | 03:46:22 | 01:53:10 | 00:00:00 | |
| DF8AY | 2026-08-31 12:01:51 | 53.22391 | 10.80356 | 71° | 15km/h | 22441m | 4.9m/s | -52.7°C | 0.2% | 40hPa | 2.7V | 03:47:20 | 01:53:07 | 00:00:00 | |
| DO2SHX-10 | 2026-08-31 12:01:51 | 53.22392 | 10.80362 | 62° | 15km/h | 22445m | 3.5m/s | -52.6°C | 3.6% | 40.0hPa | 2.7V | 03:46:00 | 01:53:08 | 00:00:00 | |
| DL1XH1-15 | 2026-08-31 12:01:50 | 53.22395 | 10.80329 | 83° | 15km/h | 22410m | 4.5m/s | -52.8°C | 3.8% | 40.3hPa | 2.7V | 03:46:31 | 01:53:01 | 00:00:00 | |
| BIOWL1-15 | 2026-08-31 12:01:49 | 53.22390 | 10.80347 | 117° | 9km/h | 22430m | 4.8m/s | -52.7°C | 0.2% | 40.1hPa | 2.7V | 03:46:29 | 01:53:05 | 00:00:00 | |
| DL1XH-west | 2026-08-31 12:01:47 | 53.22394 | 10.80335 | 103° | 13km/h | 22415m | 5.3m/s | -52.8°C | 0.2% | 40.2hPa | 2.6V | 03:47:20 | 01:53:02 | 00:00:00 | |
| DM0DOS-11 | 2026-08-31 12:01:47 | 53.22393 | 10.80323 | 67° | 16km/h | 22406m | 4.3m/s | -52.8°C | 3.8% | 40.3hPa | 2.7V | 03:46:32 | 01:53:00 | 00:00:00 | |
| DD8BA-10 | 2026-08-31 12:01:47 | 53.22392 | 10.80343 | 128° | 15km/h | 22426m | 4.4m/s | -52.7°C | 3.7% | 40.1hPa | 2.6V | 03:46:00 | 00:00:00 | 00:00:00 | |
| DL1XH-15 | 2026-08-31 12:01:46 | 53.22389 | 10.80313 | 37° | 16km/h | 22395m | 5.8m/s | -52.8°C | 3.8% | 40.3hPa | 2.6V | 03:46:34 | 01:52:58 | 00:00:00 | |
| DF8AY-15 | 2026-08-31 12:01:45 | 53.22395 | 10.80329 | 84° | 16km/h | 22410m | 4.5m/s | -52.7°C | 3.8% | 40.2hPa | 2.6V | 00:00:00 | 01:53:01 | 00:00:00 | |
| DF7ER-10 | 2026-08-31 12:01:44 | 53.22395 | 10.80329 | 85° | 15km/h | 22410m | 4.5m/s | -52.8°C | 1.0% | 40.3hPa | 2.6V | 03:47:00 | 00:00:00 | 00:00:00 | |
| DL4BBY-15 | 2026-08-31 12:01:42 | 53.22391 | 10.80317 | 53° | 15km/h | 22401m | 5.4m/s | -51.7°C | 0% | 0hPa | 2.6V | 00:00:00 | 00:00:00 | 00:00:00 | |
| DB0DAN | 2026-08-31 12:01:40 | 53.22385 | 10.80309 | 28° | 15km/h | 22390m | 5.1m/s | -52.8°C | 0.9% | 40.4hPa | 2.6V | 00:00:00 | 00:00:00 | 00:00:00 | |
| BIOWL1-15 | 2026-08-31 12:01:40 | 53.22378 | 10.80302 | 34° | 16km/h | 22380m | 5.5m/s | -52.8°C | 0.3% | 40.5hPa | 2.7V | 03:47:20 | 01:52:55 | 00:00:00 | |
| DF8AY | 2026-08-31 12:01:39 | 53.22382 | 10.80306 | 28° | 16km/h | 22385m | 4.6m/s | -52.7°C | 0.2% | 40.4hPa | 2.6V | 03:47:20 | 01:52:56 | 00:00:00 | |
| DL1XH1-15 | 2026-08-31 12:01:39 | 53.22366 | 10.80280 | 48° | 18km/h | 22358m | 6m/s | -52.7°C | 3.8% | 40.6hPa | 2.6V | 03:46:41 | 01:52:51 | 00:00:00 | |
| DL1XH-west | 2026-08-31 12:01:37 | 53.22372 | 10.80292 | 50° | 20km/h | 22368m | 5.4m/s | -52.7°C | 0.3% | 40.5hPa | 2.7V | 03:47:20 | 01:52:53 | 00:00:00 | |
| AA1-15 | 2026-08-31 12:01:36 | 53.22362 | 10.80274 | 43° | 16km/h | 22352m | 6m/s | -52.7°C | 0.3% | 40.6hPa | 2.7V | 03:47:20 | 01:52:50 | 00:00:00 | |
| DL1XH-15 | 2026-08-31 12:01:36 | 53.22357 | 10.80264 | 57° | 16km/h | 22341m | 5.3m/s | -52.7°C | 3.7% | 40.7hPa | 2.6V | 03:46:44 | 01:52:48 | 00:00:00 | |
| DF8AY | 2026-08-31 12:01:29 | 53.22352 | 10.80245 | 61° | 16km/h | 22325m | 4.9m/s | -52.7°C | 0.2% | 40.8hPa | 2.7V | 03:47:20 | 01:52:45 | 00:00:00 | |
| DL1XH-west | 2026-08-31 12:01:27 | 53.22347 | 10.80237 | 28° | 15km/h | 22313m | 5.3m/s | -52.5°C | 0.2% | 40.9hPa | 2.6V | 03:47:20 | 01:52:43 | 00:00:00 | |
| BUE01 | 2026-08-31 12:01:26 | 53.22343 | 10.80234 | 24° | 15km/h | 22309m | 5.0m/s | -52.6°C | 0.9% | 40.9hPa | 2.6V | 00:00:00 | 00:00:00 | 00:00:00 | |
| AM1SDL-15 | 2026-08-31 12:01:25 | 53.22343 | 10.80234 | 25° | 15km/h | 22309m | 4.9m/s | -52.5°C | 3.7% | 40.9hPa | 2.6V | 00:00:00 | 01:52:42 | 00:00:00 | |
| DB0DAN | 2026-08-31 12:01:25 | 53.22343 | 10.80234 | 24° | 15km/h | 22309m | 5m/s | -52.6°C | 0.9% | 40.9hPa | 2.6V | 00:00:00 | 00:00:00 | 00:00:00 | |
| DM0DOS-11 | 2026-08-31 12:01:24 | 53.22336 | 10.80228 | 24° | 16km/h | 22297m | 5.2m/s | -52.5°C | 3.7% | 41hPa | 2.7V | 03:46:52 | 01:52:40 | 00:00:00 | |
| AA1-15 | 2026-08-31 12:01:22 | 53.22332 | 10.80226 | 21° | 15km/h | 22292m | 5.1m/s | -52.5°C | 0.2% | 41hPa | 2.7V | 03:47:20 | 01:52:39 | 00:00:00 | |
| DK1YY | 2026-08-31 12:01:21 | 53.22323 | 10.80223 | 15° | 9km/h | 22276m | 4.3m/s | -52.5°C | 0.9% | 41.1hPa | 2.6V | 00:00:00 | 00:00:00 | 00:00:00 | |
| DL1XH1-15 | 2026-08-31 12:01:19 | 53.22313 | 10.80208 | 20° | 15km/h | 22249m | 5.9m/s | -52.4°C | 3.7% | 41.3hPa | 2.6V | 03:47:01 | 01:52:31 | 00:00:00 | |
| DF8AY | 2026-08-31 12:01:18 | 53.22319 | 10.80218 | 56° | 9km/h | 22264m | 5.2m/s | -52.5°C | 0.3% | 41.2hPa | 2.7V | 03:47:20 | 01:52:34 | 00:00:00 | |
| DL1XH-west | 2026-08-31 12:01:16 | 53.22318 | 10.80215 | 53° | 11km/h | 22260m | 4m/s | -52.5°C | 0.3% | 41.2hPa | 2.7V | 03:47:20 | 01:52:33 | 00:00:00 | |
| BIOWL1-15 | 2026-08-31 12:01:15 | 53.22293 | 10.80203 | 14° | 22km/h | 22227m | 6.2m/s | -52.4°C | 0.2% | 41.4hPa | 2.7V | 03:47:20 | 01:52:27 | 00:00:00 | |
| AA1-15 | 2026-08-31 12:01:11 | 53.22299 | 10.80205 | 8° | 22km/h | 22233m | 5.7m/s | -52.5°C | 0.2% | 41.4hPa | 2.7V | 03:47:20 | 01:52:28 | 00:00:00 | |
| DB0DAN | 2026-08-31 12:01:10 | 53.22293 | 10.80203 | 14° | 20km/h | 22227m | 6.2m/s | -52.4°C | 0.9% | 41.38hPa | 2.7V | 00:00:00 | 00:00:00 | 00:00:00 | |
| DL1XH1-15 | 2026-08-31 12:01:09 | 53.22271 | 10.80194 | 26° | 9km/h | 22196m | 6.1m/s | -52.4°C | 3.8% | 41.6hPa | 2.6V | 03:47:11 | 01:52:21 | 00:00:00 | |
| DF8AY | 2026-08-31 12:01:08 | 53.22284 | 10.80198 | 17° | 18km/h | 22217m | 4.5m/s | -52.6°C | 0.2% | 41.5hPa | 2.6V | 03:47:20 | 01:52:25 | 00:00:00 | |
| DL1XH-west | 2026-08-31 12:01:05 | 53.22273 | 10.80196 | 10° | 9km/h | 22201m | 4.3m/s | -52.4°C | 0.2% | 41.5hPa | 2.7V | 03:47:20 | 01:52:22 | 00:00:00 | |
| DM0DOS-11 | 2026-08-31 12:01:05 | 53.22269 | 10.80192 | 44° | 9km/h | 22189m | 5.3m/s | -52.4°C | 3.8% | 41.6hPa | 2.6V | 03:47:12 | 01:52:20 | 00:00:00 | |
| DL3AQ-11 | 2026-08-31 12:01:05 | 53.22271 | 10.80194 | 26° | 7km/h | 22196m | 6.1m/s | -52.4°C | 0.9% | 41.6hPa | 2.7V | 00:00:00 | 00:00:00 | 00:00:00 | |
| DL1XH-15 | 2026-08-31 12:01:04 | 53.22265 | 10.80187 | 24° | 11km/h | 22179m | 6.2m/s | -52.2°C | 3.8% | 41.7hPa | 2.7V | 03:47:14 | 01:52:18 | 00:00:00 | |
| BIOWL1-15 | 2026-08-31 12:01:02 | 53.22223 | 10.80168 | 7° | 22km/h | 22136m | 4.1m/s | -52.2°C | 0.2% | 42hPa | 2.6V | 03:48:11 | 01:52:10 | 00:00:00 | |
| AA1-15 | 2026-08-31 12:01:00 | 53.22262 | 10.80186 | 14° | 15km/h | 22173m | 5.5m/s | -52.2°C | 0.3% | 41.7hPa | 2.7V | 03:47:20 | 01:52:17 | 00:00:00 | |
| DO2SHX-10 | 2026-08-31 12:01:00 | 53.22262 | 10.80186 | 14° | 18km/h | 22174m | 5.5m/s | -52.2°C | 3.8% | 41.7hPa | 2.7V | 00:00:00 | 01:52:17 | 00:00:00 | |
| DL1XH1-15 | 2026-08-31 12:00:59 | 53.22229 | 10.80169 | 8° | 26km/h | 22141m | 5.7m/s | -52.2°C | 3.6% | 42hPa | 2.7V | 03:47:21 | 01:52:11 | 00:00:00 | |
| DF8AY | 2026-08-31 12:00:58 | 53.22248 | 10.80179 | 20° | 26km/h | 22157m | 6.1m/s | -52.4°C | 0.2% | 41.9hPa | 2.6V | 03:47:20 | 01:52:14 | 00:00:00 | |
| S3001 | 2026-08-31 12:00:57 | 53.22242 | 10.80175 | 19° | 26km/h | 22152m | 4.7m/s | -52.3°C | 0.9% | 41.9hPa | 2.6V | 00:00:00 | 00:00:00 | 00:00:00 | |
| DL1XH-15 | 2026-08-31 12:00:56 | 53.22213 | 10.80165 | 16° | 18km/h | 22125m | 6m/s | -51.9°C | 3.6% | 42hPa | 2.6V | 03:47:24 | 01:52:08 | 00:00:00 | |
| DL1XH-west | 2026-08-31 12:00:55 | 53.22235 | 10.80172 | 15° | 26km/h | 22146m | 5.8m/s | -52.3°C | 0.1% | 41.9hPa | 2.7V | 03:47:20 | 01:52:12 | 00:00:00 | |
| DB0DAN | 2026-08-31 12:00:55 | 53.22235 | 10.80172 | 15° | 26km/h | 22146m | 5.8m/s | -52.3°C | 0.8% | 41.94hPa | 2.7V | 00:00:00 | 00:00:00 | 00:00:00 | |
| DM0DOS-11 | 2026-08-31 12:00:54 | 53.22223 | 10.80168 | 7° | 22km/h | 22136m | 4.1m/s | -52.2°C | 3.7% | 42hPa | 2.6V | 03:47:22 | 01:52:10 | 00:00:00 | |
| AA1-15 | 2026-08-31 12:00:50 | 53.22209 | 10.80163 | 17° | 16km/h | 22120m | 5m/s | -51.9°C | 0.2% | 42.1hPa | 2.7V | 03:48:11 | 01:52:07 | 00:00:00 | |
| DL1ZP-14 | 2026-08-31 12:00:50 | 53.22205 | 10.80161 | 11° | 13km/h | 22115m | 6.0m/s | -51.9°C | 0.9% | 42.2hPa | 2.7V | 00:00:00 | 00:00:00 | 00:00:00 | |
| DL1XH1-15 | 2026-08-31 12:00:49 | 53.22189 | 10.80153 | 29° | 18km/h | 22086m | 4.7m/s | -51.9°C | 3.5% | 42.3hPa | 2.7V | 03:47:31 | 01:52:01 | 00:00:00 | |
| GOEST3-10 | 2026-08-31 12:00:49 | 53.22205 | 10.80161 | 12° | 15km/h | 22115m | 5.9m/s | -51.9°C | 3.6% | 42.1hPa | 2.7V | 03:47:00 | 00:00:00 | 00:00:00 | |
| DM0DOS-11 | 2026-08-31 12:00:48 | 53.22184 | 10.80150 | 22° | 20km/h | 22081m | 6m/s | -52°C | 3.5% | 42.4hPa | 2.7V | 03:47:32 | 01:52:00 | 00:00:00 | |
| DL1XH-west | 2026-08-31 12:00:45 | 53.22189 | 10.80153 | 30° | 18km/h | 22086m | 4.7m/s | -51.9°C | 0.1% | 42.3hPa | 2.7V | 03:48:11 | 01:52:01 | 00:00:00 | |
| DL1XH-15 | 2026-08-31 12:00:44 | 53.22174 | 10.80145 | 12° | 22km/h | 22070m | 4.7m/s | -52°C | 3.6% | 42.4hPa | 2.6V | 03:47:34 | 01:51:58 | 00:00:00 | |
| AA1-15 | 2026-08-31 12:00:41 | 53.22169 | 10.80143 | 14° | 22km/h | 22064m | 5.9m/s | -51.9°C | 0.1% | 42.5hPa | 2.6V | 03:48:11 | 01:51:57 | 00:00:00 | |
| DB0DAN | 2026-08-31 12:00:40 | 53.22169 | 10.80143 | 14° | 22km/h | 22064m | 5.9m/s | -51.9°C | 0.9% | 42.45hPa | 2.6V | 00:00:00 | 00:00:00 | 00:00:00 | |
| BIOWL1-15 | 2026-08-31 12:00:39 | 53.22164 | 10.80140 | 19° | 22km/h | 22058m | 5.6m/s | -51.9°C | 0.1% | 42.5hPa | 2.7V | 03:48:11 | 01:51:56 | 00:00:00 | |
| DL1XH1-15 | 2026-08-31 12:00:39 | 53.22147 | 10.80137 | 339° | 9km/h | 22031m | 4.8m/s | -52.4°C | 3.6% | 42.7hPa | 2.7V | 03:47:41 | 01:51:51 | 00:00:00 | |
| GOEST3-10 | 2026-08-31 12:00:39 | 53.22164 | 10.80140 | 20° | 15km/h | 22059m | 5.5m/s | -51.8°C | 3.6% | 42.4hPa | 2.7V | 00:00:00 | 00:00:00 | 00:00:00 | |
| DM0DOS-11 | 2026-08-31 12:00:38 | 53.22145 | 10.80138 | 354° | 7km/h | 22026m | 6.5m/s | -52.5°C | 3.7% | 42.7hPa | 2.7V | 03:47:42 | 01:51:50 | 00:00:00 | |
| DF8AY | 2026-08-31 12:00:38 | 53.22143 | 10.80137 | 19° | 7km/h | 22020m | 4.8m/s | -52.5°C | 0.2% | 42.8hPa | 2.6V | 03:48:11 | 01:51:49 | 00:00:00 | |
| DL1XH-west | 2026-08-31 12:00:33 | 53.22145 | 10.80138 | 355° | 7km/h | 22026m | 6.5m/s | -52.5°C | 0.2% | 42.7hPa | 2.7V | 03:48:11 | 01:51:50 | 00:00:00 | |
| AA1-15 | 2026-08-31 12:00:30 | 53.22136 | 10.80135 | 1° | 15km/h | 22004m | 5.3m/s | -52.5°C | 0.1% | 42.9hPa | 2.7V | 03:48:11 | 01:51:46 | 00:00:00 | |
| BIOWL1-15 | 2026-08-31 12:00:28 | 53.22123 | 10.80133 | 9° | 20km/h | 21988m | 5.2m/s | -52.8°C | 0.2% | 43hPa | 2.6V | 03:48:11 | 01:51:43 | 00:00:00 | |
| DM0DOS-11 | 2026-08-31 12:00:28 | 53.22108 | 10.80136 | 332° | 20km/h | 21971m | 5.8m/s | -52.7°C | 3.7% | 43.1hPa | 2.7V | 03:47:52 | 01:51:40 | 00:00:00 | |
| DL2RXE-15 | 2026-08-31 12:00:27 | 53.22127 | 10.80134 | 10° | 18km/h | 21994m | 6.5m/s | -52.7°C | 0.9% | 42.9hPa | 2.6V | 00:00:00 | 00:00:00 | 00:00:00 | |
| DB0DAN | 2026-08-31 12:00:25 | 53.22118 | 10.80132 | 1° | 20km/h | 21983m | 4.6m/s | -52.8°C | 0.9% | 43hPa | 2.6V | 00:00:00 | 00:00:00 | 00:00:00 | |
| DL1XH-15 | 2026-08-31 12:00:25 | 53.22100 | 10.80145 | 319° | 16km/h | 21960m | 6.5m/s | -52.6°C | 3.8% | 43.1hPa | 2.7V | 03:47:54 | 01:51:38 | 00:00:00 | |
| DF8AY | 2026-08-31 12:00:22 | 53.22104 | 10.80140 | 322° | 18km/h | 21966m | 4.7m/s | -52.6°C | 0.3% | 43.1hPa | 2.7V | 03:48:11 | 01:51:39 | 00:00:00 | |
| AA1-15 | 2026-08-31 12:00:19 | 53.22095 | 10.80153 | 314° | 13km/h | 21949m | 4.7m/s | -52.7°C | 0.2% | 43.2hPa | 2.6V | 03:48:11 | 01:51:36 | 00:00:00 | |
| DL1XH1-15 | 2026-08-31 12:00:19 | 53.22080 | 10.80169 | 355° | 15km/h | 21921m | 6.3m/s | -53°C | 3.8% | 43.4hPa | 2.7V | 03:48:01 | 01:51:31 | 00:00:00 | |
| BIOWL1-15 | 2026-08-31 12:00:15 | 53.22084 | 10.80168 | 340° | 15km/h | 21927m | 5.9m/s | -52.9°C | 0.3% | 43.4hPa | 2.6V | 03:48:11 | 01:51:32 | 00:00:00 | |
| DL1XH-15 | 2026-08-31 12:00:15 | 53.22067 | 10.80168 | 0° | 18km/h | 21904m | 5.7m/s | -52.9°C | 3.8% | 43.5hPa | 2.6V | 03:48:04 | 01:51:28 | 00:00:00 | |
| DF8AY | 2026-08-31 12:00:12 | 53.22058 | 10.80168 | 5° | 16km/h | 21895m | 4.4m/s | -52.8°C | 0.2% | 43.6hPa | 2.6V | 03:48:11 | 01:51:26 | 00:00:00 | |
| DL1XH-west | 2026-08-31 12:00:12 | 53.22067 | 10.80168 | 0° | 18km/h | 21904m | 5.7m/s | -52.9°C | 0.3% | 43.5hPa | 2.6V | 03:48:11 | 01:51:28 | 00:00:00 | |
| DB0DAN | 2026-08-31 12:00:10 | 53.22062 | 10.80168 | 359° | 18km/h | 21899m | 4.3m/s | -52.8°C | 0.9% | 43.53hPa | 2.6V | 00:00:00 | 00:00:00 | 00:00:00 | |
| AA1-15 | 2026-08-31 12:00:09 | 53.22054 | 10.80167 | 16° | 13km/h | 21889m | 6.3m/s | -52.8°C | 0.1% | 43.6hPa | 2.7V | 03:48:11 | 01:51:25 | 00:00:00 | |
| DL1XH1-15 | 2026-08-31 12:00:09 | 53.22047 | 10.80161 | 16° | 5km/h | 21867m | 4.8m/s | -52.7°C | 3.8% | 43.8hPa | 2.6V | 03:48:11 | 01:51:21 | 00:00:00 | |
| DL8OAI-8 | 2026-08-31 12:00:08 | 53.22054 | 10.80167 | 17° | 13km/h | 21890m | 6.3m/s | -52.8°C | 0.9% | 43.6hPa | 2.7V | 03:48:00 | 00:00:00 | 00:00:00 | |
| DD8BA-10 | 2026-08-31 12:00:07 | 53.22051 | 10.80165 | 30° | 9km/h | 21884m | 5.3m/s | -52.8°C | 3.7% | 43.6hPa | 2.7V | 00:00:00 | 00:00:00 | 00:00:00 | |
| DO2SHX-10 | 2026-08-31 12:00:06 | 53.22049 | 10.80163 | 34° | 5km/h | 21879m | 5.1m/s | -52.8°C | 3.7% | 43.6hPa | 2.7V | 00:00:00 | 01:51:23 | 00:00:00 | |
| DL1XH-15 | 2026-08-31 12:00:05 | 53.22042 | 10.80157 | 35° | 9km/h | 21851m | 4.3m/s | -52.6°C | 3.7% | 43.9hPa | 2.7V | 03:48:14 | 01:51:18 | 00:00:00 | |
| BIOWL1-15 | 2026-08-31 12:00:04 | 53.22044 | 10.80159 | 33° | 7km/h | 21856m | 6.1m/s | -52.6°C | 0.2% | 43.8hPa | 2.7V | 03:49:02 | 01:51:19 | 00:00:00 | |
| DF8AY-15 | 2026-08-31 12:00:04 | 53.22047 | 10.80161 | 17° | 9km/h | 21868m | 4.8m/s | -52.6°C | 3.8% | 43.7hPa | 2.6V | 03:48:00 | 01:51:21 | 00:00:00 | |
| TFSTFS | 2026-08-31 12:00:02 | 53.22044 | 10.80159 | 34° | 7km/h | 21857m | 6.1m/s | -52.6°C | 0.9% | 43.8hPa | 2.7V | 00:00:00 | 00:00:00 | 00:00:00 | |
| DL1XH-west | 2026-08-31 12:00:02 | 53.22042 | 10.80157 | 36° | 9km/h | 21851m | 4.3m/s | -52.6°C | 0.2% | 43.9hPa | 2.7V | 03:49:02 | 01:51:18 | 00:00:00 | |
| DJ2DS-15 | 2026-08-31 11:59:59 | 53.22034 | 10.80153 | 3° | 11km/h | 21836m | 5.4m/s | -52.7°C | 0.9% | 44.0hPa | 2.7V | 00:00:00 | 00:00:00 | 00:00:00 | |
| DM0DOS-11 | 2026-08-31 11:59:58 | 53.22017 | 10.80147 | 343° | 7km/h | 21804m | 5.5m/s | -52.6°C | 3.8% | 44.2hPa | 2.7V | 03:48:23 | 01:51:09 | 00:00:00 | |
| AA1-15 | 2026-08-31 11:59:57 | 53.22031 | 10.80153 | 4° | 15km/h | 21831m | 4.3m/s | -52.6°C | 0.2% | 44hPa | 2.7V | 03:49:02 | 01:51:14 | 00:00:00 | |
| EDDB2-12 | 2026-08-31 11:59:56 | 53.22028 | 10.80152 | 13° | 13km/h | 21826m | 6.0m/s | -52.7°C | 0.9% | 44.1hPa | 2.6V | 00:00:00 | 00:00:00 | 00:00:00 | |
| DB0DAN | 2026-08-31 11:59:55 | 53.22024 | 10.80150 | 21° | 13km/h | 21820m | 5.1m/s | -52.8°C | 0.9% | 44.1hPa | 2.6V | 00:00:00 | 00:00:00 | 00:00:00 | |
| BIOWL1-15 | 2026-08-31 11:59:54 | 53.22021 | 10.80148 | 20° | 13km/h | 21815m | 5.1m/s | -52.8°C | 0.3% | 44.1hPa | 2.6V | 03:49:02 | 01:51:11 | 00:00:00 | |
| DL1XH-15 | 2026-08-31 11:59:54 | 53.22015 | 10.80148 | 337° | 7km/h | 21799m | 4.5m/s | -52.6°C | 3.7% | 44.2hPa | 2.7V | 03:48:24 | 01:51:08 | 00:00:00 | |
| DL1XH-west | 2026-08-31 11:59:51 | 53.22015 | 10.80148 | 337° | 7km/h | 21799m | 4.5m/s | -52.6°C | 0.2% | 44.2hPa | 2.7V | 03:49:02 | 01:51:08 | 00:00:00 | |
| AA1-15 | 2026-08-31 11:59:47 | 53.22008 | 10.80148 | 356° | 7km/h | 21778m | 6.4m/s | -52.8°C | 0.2% | 44.4hPa | 2.7V | 03:49:02 | 01:51:04 | 00:00:00 | |
| DM0DOS-11 | 2026-08-31 11:59:47 | 53.21998 | 10.80149 | 9° | 9km/h | 21750m | 4.1m/s | -52.6°C | 3.7% | 44.6hPa | 2.6V | 03:48:33 | 01:50:59 | 00:00:00 | |
| DL3AQ-11 | 2026-08-31 11:59:45 | 53.22003 | 10.80150 | 356° | 7km/h | 21761m | 5.8m/s | -52.7°C | 0.9% | 44.5hPa | 2.6V | 00:00:00 | 00:00:00 | 00:00:00 | |
| BIOWL1-15 | 2026-08-31 11:59:43 | 53.22000 | 10.80150 | 7° | 9km/h | 21755m | 5.3m/s | -52.7°C | 0.2% | 44.5hPa | 2.6V | 03:49:02 | 01:51:00 | 00:00:00 | |
| DL1XH-west | 2026-08-31 11:59:40 | 53.21993 | 10.80150 | 335° | 9km/h | 21740m | 5.8m/s | -52.6°C | 0.2% | 44.6hPa | 2.7V | 03:49:02 | 01:50:57 | 00:00:00 | |
| DB0DAN | 2026-08-31 11:59:40 | 53.21993 | 10.80150 | 335° | 7km/h | 21740m | 5.8m/s | -52.6°C | 0.9% | 44.63hPa | 2.7V | 00:00:00 | 00:00:00 | 00:00:00 | |
| DF8AY | 2026-08-31 11:59:38 | 53.21990 | 10.80154 | 317° | 7km/h | 21730m | 3.8m/s | -52.7°C | 0.2% | 44.7hPa | 2.6V | 03:49:02 | 01:50:55 | 00:00:00 | |
| DL1XH1-15 | 2026-08-31 11:59:38 | 53.21989 | 10.80149 | 123° | 7km/h | 21709m | 5m/s | -52.9°C | 3.8% | 44.9hPa | 2.6V | 03:48:41 | 01:50:51 | 00:00:00 | |
| DM0DOS-11 | 2026-08-31 11:59:37 | 53.21993 | 10.80145 | 156° | 9km/h | 21698m | 4.5m/s | -52.8°C | 3.8% | 44.9hPa | 2.7V | 03:48:43 | 01:50:49 | 00:00:00 | |
| AA1-15 | 2026-08-31 11:59:37 | 53.21989 | 10.80154 | 63° | 4km/h | 21719m | 5.7m/s | -52.9°C | 0.2% | 44.8hPa | 2.7V | 03:49:02 | 01:50:53 | 00:00:00 | |
| DO2SHX-10 | 2026-08-31 11:59:37 | 53.21989 | 10.80154 | 63° | 5km/h | 21720m | 5.7m/s | -52.8°C | 3.7% | 44.7hPa | 2.7V | 00:00:00 | 01:50:53 | 00:00:00 | |
| DL3AQ-11 | 2026-08-31 11:59:34 | 53.21991 | 10.80147 | 145° | 7km/h | 21703m | 5.9m/s | -52.8°C | 0.9% | 44.9hPa | 2.7V | 00:00:00 | 00:00:00 | 00:00:00 | |
| DL1XH-15 | 2026-08-31 11:59:33 | 53.21995 | 10.80144 | 162° | 7km/h | 21694m | 4.2m/s | -52.9°C | 3.8% | 45hPa | 2.7V | 03:48:44 | 01:50:48 | 00:00:00 | |
| BIOWL1-15 | 2026-08-31 11:59:33 | 53.21996 | 10.80143 | 160° | 5km/h | 21689m | 6.2m/s | -52.8°C | 0.3% | 45hPa | 2.7V | 03:49:02 | 01:50:47 | 00:00:00 | |
| DL1XH-west | 2026-08-31 11:59:30 | 53.21997 | 10.80143 | 298° | 2km/h | 21678m | 5.4m/s | -52.8°C | 0.3% | 45hPa | 2.6V | 03:49:02 | 01:50:45 | 00:00:00 | |
| DF7ER-10 | 2026-08-31 11:59:30 | 53.21996 | 10.80143 | 161° | 5km/h | 21689m | 6.2m/s | -52.8°C | 1.0% | 45.0hPa | 2.6V | 03:49:00 | 00:00:00 | 00:00:00 | |
| GOEST3-10 | 2026-08-31 11:59:29 | 53.21997 | 10.80142 | 163° | 5km/h | 21683m | 5.1m/s | -52.7°C | 3.8% | 45.0hPa | 2.6V | 03:48:00 | 00:00:00 | 00:00:00 | |
| DL1XH1-15 | 2026-08-31 11:59:28 | 53.21991 | 10.80151 | 351° | 13km/h | 21655m | 6.1m/s | -52.7°C | 3.6% | 45.2hPa | 2.7V | 03:48:51 | 01:50:41 | 00:00:00 | |
| DF8AY | 2026-08-31 11:59:28 | 53.21997 | 10.80144 | 300° | 7km/h | 21672m | 6.5m/s | -52.8°C | 0.3% | 45.1hPa | 2.6V | 03:49:02 | 01:50:44 | 00:00:00 | |
| DM0DOS-11 | 2026-08-31 11:59:27 | 53.21984 | 10.80151 | 3° | 11km/h | 21645m | 4.7m/s | -52.7°C | 3.7% | 45.3hPa | 2.6V | 03:48:53 | 01:50:39 | 00:00:00 | |
| DD8BA-10 | 2026-08-31 11:59:27 | 53.21997 | 10.80144 | 300° | 9km/h | 21672m | 6.4m/s | -52.8°C | 3.8% | 45.1hPa | 2.7V | 00:00:00 | 00:00:00 | 00:00:00 | |
| DL1XH-15 | 2026-08-31 11:59:26 | 53.21982 | 10.80151 | 355° | 9km/h | 21640m | 5.9m/s | -52.6°C | 3.7% | 45.3hPa | 2.7V | 03:48:54 | 01:50:38 | 00:00:00 | |
| AA1-15 | 2026-08-31 11:59:25 | 53.21993 | 10.80149 | 332° | 11km/h | 21661m | 5.3m/s | -52.7°C | 0.2% | 45.2hPa | 2.7V | 03:49:02 | 01:50:42 | 00:00:00 | |
| DB0DAN | 2026-08-31 11:59:25 | 53.21993 | 10.80149 | 332° | 11km/h | 21661m | 5.3m/s | -52.7°C | 0.9% | 45.16hPa | 2.7V | 00:00:00 | 00:00:00 | 00:00:00 | |
| BIOWL1-15 | 2026-08-31 11:59:20 | 53.21980 | 10.80151 | 352° | 7km/h | 21635m | 4.6m/s | -52.6°C | 0.2% | 45.4hPa | 2.7V | 03:49:02 | 01:50:37 | 00:00:00 | |
| DL1XH-west | 2026-08-31 11:59:18 | 53.21977 | 10.80149 | 85° | 4km/h | 21619m | 4.9m/s | -52.7°C | 0.3% | 45.5hPa | 2.6V | 03:49:02 | 01:50:34 | 00:00:00 | |
| DF8AY | 2026-08-31 11:59:17 | 53.21984 | 10.80153 | 173° | 4km/h | 21588m | 5.8m/s | -52.5°C | 0.3% | 45.7hPa | 2.7V | 03:49:53 | 01:50:28 | 00:00:00 | |
| DL1ZP-14 | 2026-08-31 11:59:17 | 53.21978 | 10.80148 | 124° | 2km/h | 21614m | 4.2m/s | -52.7°C | 0.9% | 45.5hPa | 2.6V | 00:00:00 | 00:00:00 | 00:00:00 | |
| DL1XH-15 | 2026-08-31 11:59:16 | 53.21984 | 10.80153 | 172° | 4km/h | 21588m | 5.8m/s | -52.5°C | 3.7% | 45.7hPa | 2.7V | 03:49:04 | 01:50:28 | 00:00:00 | |
| AA1-15 | 2026-08-31 11:59:14 | 53.21980 | 10.80148 | 209° | 7km/h | 21603m | 5.9m/s | -52.7°C | 0.3% | 45.6hPa | 2.7V | 03:49:02 | 01:50:31 | 00:00:00 | |
| GOEST3-10 | 2026-08-31 11:59:14 | 53.21980 | 10.80148 | 210° | 7km/h | 21603m | 5.8m/s | -52.6°C | 3.8% | 45.6hPa | 2.7V | 00:00:00 | 01:50:31 | 00:00:00 | |
| SONCRA | 2026-08-31 11:59:13 | 53.21983 | 10.80152 | 211° | 5km/h | 21593m | 4.8m/s | 0°C | -1.0% | 45.7hPa | 2.6V | 00:00:00 | 00:00:00 | 00:00:00 | |
| DO2SHX-10 | 2026-08-31 11:59:12 | 53.21983 | 10.80152 | 212° | 5km/h | 21593m | 4.7m/s | -52.5°C | 3.7% | 45.6hPa | 2.6V | 00:00:00 | 01:50:29 | 00:00:00 | |
| DB0DAN | 2026-08-31 11:59:10 | 53.21985 | 10.80151 | 113° | 5km/h | 21582m | 5.3m/s | -52.5°C | 0.9% | 45.73hPa | 2.7V | 00:00:00 | 00:00:00 | 00:00:00 | |
| BIOWL1-15 | 2026-08-31 11:59:09 | 53.21986 | 10.80149 | 103° | 7km/h | 21577m | 5.2m/s | -52.6°C | 0.2% | 45.8hPa | 2.7V | 03:49:53 | 01:50:26 | 00:00:00 | |
| DK7RCA | 2026-08-31 11:59:09 | 53.21986 | 10.80149 | 104° | 7km/h | 21577m | 5.2m/s | -52.6°C | 0.9% | 45.8hPa | 2.7V | 03:49:00 | 00:00:00 | 00:00:00 | |
| DL1XH1-15 | 2026-08-31 11:59:08 | 53.21992 | 10.80136 | 129° | 9km/h | 21550m | 6.2m/s | -52.7°C | 3.8% | 46hPa | 2.7V | 03:49:11 | 01:50:21 | 00:00:00 | |
| DL1XH-west | 2026-08-31 11:59:08 | 53.21987 | 10.80143 | 131° | 7km/h | 21566m | 5.6m/s | -52.6°C | 0.2% | 45.9hPa | 2.6V | 03:49:53 | 01:50:24 | 00:00:00 | |
| AA1-15 | 2026-08-31 11:59:03 | 53.21993 | 10.80133 | 117° | 7km/h | 21544m | 4.6m/s | -52.7°C | 0.3% | 46hPa | 2.7V | 03:49:53 | 01:50:20 | 00:00:00 | |
| DM0DOS-11 | 2026-08-31 11:59:03 | 53.21994 | 10.80131 | 138° | 5km/h | 21540m | 4.7m/s | -52.7°C | 3.9% | 46hPa | 2.6V | 03:49:13 | 01:50:19 | 00:00:00 | |
| DF8AY | 2026-08-31 11:59:00 | 53.21993 | 10.80121 | 102° | 11km/h | 21498m | 6.1m/s | -52.8°C | 0.3% | 46.4hPa | 2.7V | 03:49:53 | 01:50:11 | 00:00:00 | |
| BIOWL1-15 | 2026-08-31 11:58:58 | 53.21995 | 10.80133 | 357° | 4km/h | 21518m | 6.3m/s | -52.7°C | 0.3% | 46.2hPa | 2.7V | 03:49:53 | 01:50:15 | 00:00:00 | |
| DL1XH1-15 | 2026-08-31 11:58:58 | 53.21993 | 10.80121 | 101° | 11km/h | 21498m | 6m/s | -52.8°C | 3.8% | 46.4hPa | 2.7V | 03:49:21 | 01:50:11 | 00:00:00 | |
| DL1XH-west | 2026-08-31 11:58:57 | 53.21993 | 10.80129 | 71° | 9km/h | 21508m | 4.3m/s | -52.8°C | 0.3% | 46.3hPa | 2.6V | 03:49:53 | 01:50:13 | 00:00:00 | |
| DM0DOS-11 | 2026-08-31 11:58:57 | 53.21995 | 10.80112 | 109° | 11km/h | 21487m | 4m/s | -52.6°C | 3.8% | 46.4hPa | 2.6V | 03:49:23 | 01:50:09 | 00:00:00 | |
| DD8BA-10 | 2026-08-31 11:58:57 | 53.21994 | 10.80132 | 44° | 11km/h | 21513m | 4.9m/s | -52.7°C | 3.7% | 46.2hPa | 2.6V | 00:00:00 | 00:00:00 | 00:00:00 | |
| DB0DAN | 2026-08-31 11:58:55 | 53.21993 | 10.80125 | 87° | 9km/h | 21503m | 5.3m/s | -52.8°C | 0.9% | 46.31hPa | 2.6V | 00:00:00 | 00:00:00 | 00:00:00 | |
| AA1-15 | 2026-08-31 11:58:52 | 53.21995 | 10.80112 | 110° | 11km/h | 21487m | 4m/s | -52.6°C | 0.3% | 46.4hPa | 2.6V | 03:49:53 | 01:50:09 | 00:00:00 | |
| DC4HF-4 | 2026-08-31 11:58:50 | 53.21995 | 10.80098 | 73° | 9km/h | 21471m | 4.6m/s | -52.6°C | 0.9% | 46.5hPa | 2.7V | 00:00:00 | 00:00:00 | 00:00:00 | |
| GOEST3-10 | 2026-08-31 11:58:49 | 53.21995 | 10.80097 | 74° | 7km/h | 21471m | 4.6m/s | -52.5°C | 3.7% | 46.5hPa | 2.7V | 03:49:00 | 00:00:00 | 00:00:00 | |
| DL1XH1-15 | 2026-08-31 11:58:48 | 53.21991 | 10.80082 | 80° | 13km/h | 21444m | 5.4m/s | -52.5°C | 3.7% | 46.7hPa | 2.7V | 03:49:31 | 01:50:01 | 00:00:00 | |
| BIOWL1-15 | 2026-08-31 11:58:47 | 53.21994 | 10.80092 | 56° | 5km/h | 21460m | 4.8m/s | -52.5°C | 0.2% | 46.6hPa | 2.6V | 03:49:53 | 01:50:04 | 00:00:00 | |
| DL1XH-west | 2026-08-31 11:58:45 | 53.21992 | 10.80087 | 66° | 9km/h | 21450m | 6m/s | -52.6°C | 0.2% | 46.7hPa | 2.6V | 03:49:53 | 01:50:02 | 00:00:00 | |
| DM0DOS-11 | 2026-08-31 11:58:45 | 53.21992 | 10.80071 | 107° | 16km/h | 21433m | 6.3m/s | -52.4°C | 3.7% | 46.8hPa | 2.7V | 03:49:33 | 01:49:59 | 00:00:00 | |
| DF8AY | 2026-08-31 11:58:43 | 53.21996 | 10.80021 | 91° | 11km/h | 21396m | 5.8m/s | -52.3°C | 0.2% | 47.1hPa | 2.6V | 03:49:53 | 01:49:52 | 00:00:00 | |
| AA1-15 | 2026-08-31 11:58:41 | 53.21994 | 10.80064 | 113° | 18km/h | 21428m | 4.5m/s | -52.4°C | 0.2% | 46.9hPa | 2.6V | 03:49:53 | 01:49:58 | 00:00:00 | |
| DB0DAN | 2026-08-31 11:58:40 | 53.21995 | 10.80057 | 109° | 18km/h | 21423m | 4.5m/s | -52.4°C | 0.9% | 46.89hPa | 2.6V | 00:00:00 | 00:00:00 | 00:00:00 | |
| GOEST3-10 | 2026-08-31 11:58:39 | 53.21996 | 10.80049 | 101° | 16km/h | 21418m | 6.0m/s | -52.4°C | 3.7% | 46.9hPa | 2.6V | 00:00:00 | 00:00:00 | 00:00:00 | |
| DL1XH1-15 | 2026-08-31 11:58:38 | 53.21996 | 10.80017 | 84° | 9km/h | 21390m | 5.3m/s | -52.4°C | 3.6% | 47.1hPa | 2.6V | 03:49:41 | 01:49:51 | 00:00:00 | |
| BIOWL1-15 | 2026-08-31 11:58:37 | 53.21995 | 10.80010 | 66° | 11km/h | 21379m | 5.2m/s | -52.2°C | 0.2% | 47.2hPa | 2.7V | 03:49:53 | 01:49:49 | 00:00:00 | |
| TFSTFS | 2026-08-31 11:58:37 | 53.21997 | 10.80033 | 85° | 16km/h | 21408m | 5.0m/s | -52.4°C | 0.9% | 47.0hPa | 2.6V | 00:00:00 | 00:00:00 | 00:00:00 | |
| DL1XH-15 | 2026-08-31 11:58:36 | 53.21994 | 10.80005 | 68° | 15km/h | 21374m | 3.4m/s | -52.2°C | 3.6% | 47.2hPa | 2.6V | 03:49:44 | 01:49:48 | 00:00:00 | |
| DL1XH-west | 2026-08-31 11:58:35 | 53.21996 | 10.80014 | 68° | 9km/h | 21385m | 6.3m/s | -52.4°C | 0.2% | 47.2hPa | 2.7V | 03:49:53 | 01:49:50 | 00:00:00 | |
| DF8AY | 2026-08-31 11:58:33 | 53.21983 | 10.79931 | 76° | 20km/h | 21328m | 5.2m/s | -52.2°C | 0.3% | 47.6hPa | 2.7V | 03:49:53 | 01:49:39 | 00:00:00 | |
| AA1-15 | 2026-08-31 11:58:31 | 53.21994 | 10.80005 | 69° | 15km/h | 21374m | 3.4m/s | -52.2°C | 0.2% | 47.2hPa | 2.6V | 03:49:53 | 01:49:48 | 00:00:00 | |
| BIOWL9-15 | 2026-08-31 11:58:31 | 53.21993 | 10.79999 | 78° | 13km/h | 21370m | 5.4m/s | -52.3°C | 0.9% | 47.3hPa | 2.7V | 00:00:00 | 00:00:00 | 00:00:00 | |
| DO2SHX-10 | 2026-08-31 11:58:30 | 53.21992 | 10.79999 | 79° | 16km/h | 21370m | 5.3m/s | -52.3°C | 3.7% | 47.2hPa | 2.7V | 00:00:00 | 01:49:47 | 00:00:00 | |
| GOEST3-10 | 2026-08-31 11:58:29 | 53.21992 | 10.79993 | 87° | 20km/h | 21365m | 5.7m/s | -52.2°C | 3.7% | 47.3hPa | 2.7V | 03:49:00 | 00:00:00 | 00:00:00 | |
| DK7RCA | 2026-08-31 11:58:27 | 53.21992 | 10.79978 | 84° | 20km/h | 21355m | 5.0m/s | -52.3°C | 0.9% | 47.4hPa | 2.7V | 03:49:00 | 00:00:00 | 00:00:00 | |
| DL1XH-15 | 2026-08-31 11:58:26 | 53.21982 | 10.79923 | 74° | 20km/h | 21323m | 4.3m/s | -52.1°C | 3.7% | 47.6hPa | 2.7V | 03:49:54 | 01:49:38 | 00:00:00 | |
| DL1XH1-15 | 2026-08-31 11:58:26 | 53.21987 | 10.79950 | 69° | 24km/h | 21339m | 4.9m/s | -52.2°C | 3.7% | 47.5hPa | 2.6V | 03:49:51 | 01:49:41 | 00:00:00 | |
| DL1XH-west | 2026-08-31 11:58:25 | 53.21989 | 10.79959 | 70° | 26km/h | 21344m | 4.7m/s | -52.3°C | 0.3% | 47.5hPa | 2.6V | 03:49:53 | 01:49:42 | 00:00:00 | |
| AA1-15 | 2026-08-31 11:58:21 | 53.21980 | 10.79915 | 70° | 22km/h | 21318m | 5.8m/s | -52.1°C | 0.2% | 47.6hPa | 2.6V | 03:50:44 | 01:49:37 | 00:00:00 | |
| DF8AY | 2026-08-31 11:58:17 | 53.21971 | 10.79882 | 71° | 20km/h | 21295m | 5.3m/s | -52°C | 0.2% | 47.8hPa | 2.7V | 03:50:44 | 01:49:33 | 00:00:00 | |
| DL1XH-15 | 2026-08-31 11:58:16 | 53.21960 | 10.79832 | 72° | 27km/h | 21269m | 5.4m/s | -52°C | 3.6% | 48hPa | 2.7V | 03:50:04 | 01:49:28 | 00:00:00 | |
| DL1XH1-15 | 2026-08-31 11:58:15 | 53.21967 | 10.79864 | 70° | 26km/h | 21285m | 5.7m/s | -52°C | 3.6% | 47.9hPa | 2.6V | 03:50:01 | 01:49:31 | 00:00:00 | |
| DL1XH-west | 2026-08-31 11:58:14 | 53.21968 | 10.79864 | 71° | 26km/h | 21286m | 5.7m/s | -52°C | 0.1% | 47.9hPa | 2.6V | 03:50:44 | 01:49:31 | 00:00:00 | |
| AA1-15 | 2026-08-31 11:58:11 | 53.21958 | 10.79821 | 76° | 26km/h | 21263m | 6m/s | -51.9°C | 0.2% | 48.1hPa | 2.6V | 03:50:44 | 01:49:27 | 00:00:00 | |
| DB0DAN | 2026-08-31 11:58:10 | 53.21958 | 10.79821 | 76° | 24km/h | 21263m | 6m/s | -51.9°C | 0.9% | 48.06hPa | 2.6V | 00:00:00 | 00:00:00 | 00:00:00 | |
| DF8AY | 2026-08-31 11:58:06 | 53.21952 | 10.79785 | 62° | 24km/h | 21243m | 5.7m/s | -51.8°C | 0.2% | 48.2hPa | 2.7V | 03:50:44 | 01:49:23 | 00:00:00 | |
| DL1XH-west | 2026-08-31 11:58:04 | 53.21938 | 10.79751 | 57° | 24km/h | 21222m | 4.8m/s | -51.9°C | 0.2% | 48.4hPa | 2.7V | 03:50:44 | 01:49:19 | 00:00:00 | |
| DM0DOS-11 | 2026-08-31 11:58:03 | 53.21938 | 10.79751 | 56° | 24km/h | 21222m | 4.8m/s | -51.9°C | 3.6% | 48.4hPa | 2.7V | 03:50:13 | 01:49:19 | 00:00:00 | |
| AA1-15 | 2026-08-31 11:57:59 | 53.21928 | 10.79721 | 62° | 29km/h | 21206m | 4.4m/s | -51.9°C | 0.2% | 48.5hPa | 2.6V | 03:50:44 | 01:49:16 | 00:00:00 | |
| DL3AQ-11 | 2026-08-31 11:57:58 | 53.21922 | 10.79700 | 69° | 26km/h | 21195m | 5.4m/s | -51.9°C | 0.9% | 48.6hPa | 2.6V | 00:00:00 | 00:00:00 | 00:00:00 | |
| DM0DOS-11 | 2026-08-31 11:57:57 | 53.21904 | 10.79652 | 42° | 29km/h | 21169m | 4.7m/s | -51.9°C | 3.6% | 48.8hPa | 2.6V | 03:50:23 | 01:49:09 | 00:00:00 | |
| DF8AY | 2026-08-31 11:57:56 | 53.21919 | 10.79689 | 69° | 26km/h | 21190m | 4.4m/s | -51.8°C | 0.1% | 48.6hPa | 2.7V | 03:50:44 | 01:49:13 | 00:00:00 | |
| DL1XH-15 | 2026-08-31 11:57:56 | 53.21899 | 10.79644 | 39° | 27km/h | 21164m | 5.9m/s | -51.9°C | 3.6% | 48.8hPa | 2.7V | 03:50:24 | 01:49:08 | 00:00:00 | |
| DB0DAN | 2026-08-31 11:57:55 | 53.21917 | 10.79680 | 64° | 24km/h | 21185m | 5m/s | -51.9°C | 0.9% | 48.63hPa | 2.7V | 00:00:00 | 00:00:00 | 00:00:00 | |
| DL1XH1-15 | 2026-08-31 11:57:55 | 53.21914 | 10.79670 | 56° | 27km/h | 21180m | 5.6m/s | -51.9°C | 3.6% | 48.7hPa | 2.7V | 03:50:21 | 01:49:11 | 00:00:00 | |
| DL1XH-west | 2026-08-31 11:57:53 | 53.21910 | 10.79661 | 50° | 29km/h | 21174m | 5.1m/s | -51.8°C | 0.1% | 48.7hPa | 2.6V | 03:50:44 | 01:49:10 | 00:00:00 | |
| BIOWL1-15 | 2026-08-31 11:57:49 | 53.21881 | 10.79613 | 53° | 27km/h | 21142m | 5.5m/s | -51.9°C | 0.2% | 49hPa | 2.7V | 03:50:44 | 01:49:04 | 00:00:00 | |
| AA1-15 | 2026-08-31 11:57:49 | 53.21885 | 10.79622 | 48° | 27km/h | 21148m | 5.9m/s | -51.9°C | 0.1% | 48.9hPa | 2.6V | 03:50:44 | 01:49:05 | 00:00:00 | |
| DF8AY | 2026-08-31 11:57:45 | 53.21873 | 10.79594 | 60° | 26km/h | 21131m | 6.2m/s | -51.8°C | 0.2% | 49.1hPa | 2.7V | 03:50:44 | 01:49:02 | 00:00:00 | |
| DL1XH1-15 | 2026-08-31 11:57:45 | 53.21870 | 10.79585 | 62° | 24km/h | 21126m | 4.8m/s | -51.8°C | 3.7% | 49.1hPa | 2.6V | 03:50:31 | 01:49:01 | 00:00:00 | |
| DL3AQ-11 | 2026-08-31 11:57:45 | 53.21870 | 10.79585 | 62° | 24km/h | 21126m | 4.8m/s | -51.8°C | 0.9% | 49.1hPa | 2.6V | 00:00:00 | 00:00:00 | 00:00:00 | |
| DL1XH-west | 2026-08-31 11:57:43 | 53.21865 | 10.79567 | 61° | 26km/h | 21117m | 5.3m/s | -51.8°C | 0.2% | 49.1hPa | 2.6V | 03:50:44 | 01:48:59 | 00:00:00 | |
| DL4XJ-10 | 2026-08-31 11:57:42 | 53.21864 | 10.79567 | 61° | 26km/h | 21117m | 5.2m/s | -50.8°C | 0% | 0hPa | 2.7V | 00:00:00 | 00:00:00 | 00:00:00 | |
| DB0DAN | 2026-08-31 11:57:40 | 53.21857 | 10.79549 | 45° | 26km/h | 21106m | 4.5m/s | -51.8°C | 0.9% | 49.26hPa | 2.7V | 00:00:00 | 00:00:00 | 00:00:00 | |
| AA1-15 | 2026-08-31 11:57:37 | 53.21842 | 10.79532 | 27° | 24km/h | 21090m | 4.2m/s | -51.7°C | 0.2% | 49.4hPa | 2.6V | 03:50:44 | 01:48:54 | 00:00:00 | |
| BIOWL1-15 | 2026-08-31 11:57:36 | 53.21811 | 10.79492 | 58° | 24km/h | 21054m | 6.1m/s | -51.8°C | 0.2% | 49.6hPa | 2.7V | 03:51:35 | 01:48:47 | 00:00:00 | |
| DO2SHX-10 | 2026-08-31 11:57:36 | 53.21836 | 10.79527 | 28° | 24km/h | 21085m | 5.9m/s | -51.8°C | 3.6% | 49.4hPa | 2.7V | 00:00:00 | 01:48:53 | 00:00:00 | |
| DL1XH1-15 | 2026-08-31 11:57:35 | 53.21825 | 10.79516 | 33° | 24km/h | 21075m | 4.1m/s | -51.8°C | 3.6% | 49.5hPa | 2.7V | 03:50:41 | 01:48:51 | 00:00:00 | |
| DM0DOS-11 | 2026-08-31 11:57:35 | 53.21817 | 10.79506 | 43° | 18km/h | 21064m | 5m/s | -51.8°C | 3.6% | 49.6hPa | 2.6V | 03:50:43 | 01:48:49 | 00:00:00 | |
| DF8AY | 2026-08-31 11:57:34 | 53.21817 | 10.79506 | 44° | 18km/h | 21064m | 5m/s | -51.8°C | 0.2% | 49.6hPa | 2.6V | 03:50:44 | 01:48:49 | 00:00:00 | |
| DL1XH-west | 2026-08-31 11:57:32 | 53.21814 | 10.79500 | 52° | 20km/h | 21059m | 4.4m/s | -51.7°C | 0.2% | 49.6hPa | 2.6V | 03:50:44 | 01:48:48 | 00:00:00 | |
| SMARD9-15 | 2026-08-31 11:57:32 | 53.21814 | 10.79500 | 51° | 20km/h | 21059m | 4.4m/s | -51.7°C | 0.9% | 49.6hPa | 2.7V | 00:00:00 | 00:00:00 | 00:00:00 | |
| DO2SHX-10 | 2026-08-31 11:57:31 | 53.21811 | 10.79492 | 58° | 27km/h | 21054m | 6.1m/s | -51.7°C | 3.6% | 49.6hPa | 2.7V | 00:00:00 | 01:48:47 | 00:00:00 | |
| BIOWL9-15 | 2026-08-31 11:57:29 | 53.21804 | 10.79473 | 62° | 27km/h | 21044m | 4.6m/s | -51.7°C | 0.9% | 49.7hPa | 2.7V | 00:00:00 | 00:00:00 | 00:00:00 | |
| DL1XH1-15 | 2026-08-31 11:57:28 | 53.21792 | 10.79438 | 49° | 20km/h | 21023m | 4.8m/s | -51.5°C | 3.6% | 49.9hPa | 2.7V | 03:50:51 | 01:48:41 | 00:00:00 | |
| BIOWL1-15 | 2026-08-31 11:57:27 | 53.21795 | 10.79445 | 56° | 20km/h | 21028m | 5m/s | -51.5°C | 0.2% | 49.9hPa | 2.7V | 03:51:35 | 01:48:42 | 00:00:00 | |
| AA1-15 | 2026-08-31 11:57:26 | 53.21798 | 10.79453 | 61° | 24km/h | 21033m | 5.5m/s | -51.6°C | 0.1% | 49.8hPa | 2.7V | 03:51:35 | 01:48:43 | 00:00:00 | |
| DL1XH-15 | 2026-08-31 11:57:26 | 53.21779 | 10.79420 | 28° | 22km/h | 21008m | 4.1m/s | -51.3°C | 3.5% | 50hPa | 2.6V | 03:50:54 | 01:48:38 | 00:00:00 | |
| DD8BA-10 | 2026-08-31 11:57:26 | 53.21798 | 10.79453 | 62° | 20km/h | 21033m | 5.5m/s | -51.5°C | 3.6% | 49.7hPa | 2.7V | 00:00:00 | 00:00:00 | 00:00:00 | |
| DO2SHX-10 | 2026-08-31 11:57:24 | 53.21792 | 10.79438 | 50° | 22km/h | 21023m | 4.7m/s | -51.4°C | 3.6% | 49.8hPa | 2.7V | 00:00:00 | 01:48:41 | 00:00:00 | |
| DM0DOS-11 | 2026-08-31 11:57:23 | 53.21784 | 10.79425 | 34° | 22km/h | 21012m | 4.2m/s | -51.4°C | 3.6% | 50hPa | 2.6V | 03:50:53 | 01:48:39 | 00:00:00 | |
| DF8AY | 2026-08-31 11:57:23 | 53.21761 | 10.79409 | 25° | 20km/h | 20988m | 5.5m/s | -51.3°C | 0.1% | 50.1hPa | 2.6V | 03:51:35 | 01:48:34 | 00:00:00 | |
| DL1XH-west | 2026-08-31 11:57:22 | 53.21779 | 10.79420 | 28° | 22km/h | 21008m | 4.1m/s | -51.3°C | 0.1% | 50hPa | 2.6V | 03:51:35 | 01:48:38 | 00:00:00 | |
| DL8OAI-8 | 2026-08-31 11:57:22 | 53.21784 | 10.79425 | 36° | 22km/h | 21013m | 4.2m/s | -51.4°C | 0.9% | 50.0hPa | 2.7V | 03:51:00 | 00:00:00 | 00:00:00 | |
| EDDB2-12 | 2026-08-31 11:57:21 | 53.21774 | 10.79417 | 20° | 18km/h | 21003m | 6.2m/s | -51.3°C | 0.9% | 50.0hPa | 2.7V | 00:00:00 | 00:00:00 | 00:00:00 | |
| S3001 | 2026-08-31 11:57:19 | 53.21770 | 10.79414 | 16° | 16km/h | 20997m | 5.2m/s | -51.3°C | 0.8% | 50.0hPa | 2.7V | 00:00:00 | 00:00:00 | 00:00:00 | |
| AP2371 | 2026-08-31 11:57:18 | 53.21766 | 10.79412 | 19° | 18km/h | 20993m | 4.0m/s | -51.3°C | 0.9% | 50.1hPa | 2.7V | 03:51:00 | 00:00:00 | 00:00:00 | |
| DM0DOS-11 | 2026-08-31 11:57:17 | 53.21741 | 10.79378 | 54° | 18km/h | 20963m | 5.3m/s | -51.3°C | 3.5% | 50.3hPa | 2.7V | 03:51:03 | 01:48:29 | 00:00:00 | |
| AA1-15 | 2026-08-31 11:57:16 | 53.21752 | 10.79399 | 42° | 24km/h | 20978m | 4.3m/s | -51.3°C | 0.1% | 50.2hPa | 2.6V | 03:51:35 | 01:48:32 | 00:00:00 | |
| BIOWL1-15 | 2026-08-31 11:57:14 | 53.21748 | 10.79392 | 47° | 24km/h | 20974m | 4.2m/s | -51.3°C | 0.1% | 50.2hPa | 2.7V | 03:51:35 | 01:48:31 | 00:00:00 | |
| DL1XH-15 | 2026-08-31 11:57:13 | 53.21738 | 10.79372 | 57° | 15km/h | 20958m | 4.6m/s | -51.2°C | 3.5% | 50.4hPa | 2.6V | 03:51:04 | 01:48:28 | 00:00:00 | |
| DL1XH-west | 2026-08-31 11:57:11 | 53.21738 | 10.79372 | 58° | 16km/h | 20958m | 4.6m/s | -51.2°C | 0.1% | 50.4hPa | 2.6V | 03:51:35 | 01:48:28 | 00:00:00 | |
| DB0DAN | 2026-08-31 11:57:10 | 53.21736 | 10.79366 | 60° | 15km/h | 20953m | 4.9m/s | -51.3°C | 0.9% | 50.41hPa | 2.6V | 00:00:00 | 00:00:00 | 00:00:00 | |
| DF8AY | 2026-08-31 11:57:07 | 53.21728 | 10.79350 | 36° | 16km/h | 20939m | 4.4m/s | -51.3°C | 0% | 50.5hPa | 2.6V | 03:51:35 | 01:48:24 | 00:00:00 | |
| EDDB2-11 | 2026-08-31 11:57:07 | 53.21728 | 10.79350 | 35° | 16km/h | 20939m | 4.4m/s | -51.3°C | 0.8% | 50.5hPa | 2.6V | 00:00:00 | 00:00:00 | 00:00:00 | |
| DD8BA-10 | 2026-08-31 11:57:06 | 53.21724 | 10.79346 | 26° | 22km/h | 20933m | 6.1m/s | -51.3°C | 3.5% | 50.5hPa | 2.6V | 03:51:00 | 00:00:00 | 00:00:00 | |
| DM0DOS-11 | 2026-08-31 11:57:05 | 53.21705 | 10.79341 | 11° | 26km/h | 20911m | 4.6m/s | -51.4°C | 3.5% | 50.8hPa | 2.6V | 03:51:13 | 01:48:19 | 00:00:00 | |
| AA1-15 | 2026-08-31 11:57:04 | 53.21716 | 10.79344 | 4° | 20km/h | 20922m | 5.4m/s | -51.3°C | 0.1% | 50.6hPa | 2.7V | 03:51:35 | 01:48:21 | 00:00:00 | |
| BIOWL1-15 | 2026-08-31 11:57:04 | 53.21711 | 10.79343 | 7° | 24km/h | 20917m | 6.3m/s | -51.4°C | 0.1% | 50.7hPa | 2.7V | 03:51:35 | 01:48:20 | 00:00:00 | |
| DL1XH-west | 2026-08-31 11:57:01 | 53.21682 | 10.79331 | 20° | 20km/h | 20892m | 4.3m/s | -51.5°C | 0.2% | 50.9hPa | 2.7V | 03:51:35 | 01:48:15 | 00:00:00 | |
| HTAHTA | 2026-08-31 11:57:01 | 53.21692 | 10.79336 | 14° | 24km/h | 20902m | 5.1m/s | -51.5°C | 0.8% | 50.8hPa | 2.7V | 00:00:00 | 00:00:00 | 00:00:00 | |
| DO2SHX-10 | 2026-08-31 11:57:00 | 53.21692 | 10.79336 | 15° | 22km/h | 20902m | 5.0m/s | -51.5°C | 3.5% | 50.8hPa | 2.7V | 00:00:00 | 01:48:17 | 00:00:00 | |
| DL1XH1-15 | 2026-08-31 11:56:59 | 53.21663 | 10.79312 | 40° | 22km/h | 20872m | 4.9m/s | -51.4°C | 3.5% | 51hPa | 2.7V | 03:51:21 | 01:48:11 | 00:00:00 | |
| DF8AY | 2026-08-31 11:56:57 | 53.21677 | 10.79328 | 26° | 20km/h | 20887m | 4.5m/s | -51.4°C | 0.1% | 51hPa | 2.7V | 03:51:35 | 01:48:14 | 00:00:00 | |
| DO2SHX-10 | 2026-08-31 11:56:57 | 53.21677 | 10.79328 | 27° | 22km/h | 20888m | 4.4m/s | -51.4°C | 3.5% | 50.9hPa | 2.7V | 00:00:00 | 01:48:14 | 00:00:00 | |
| DL1XH-15 | 2026-08-31 11:56:56 | 53.21653 | 10.79296 | 40° | 18km/h | 20857m | 3.6m/s | -51.4°C | 3.5% | 51.2hPa | 2.7V | 03:51:24 | 01:48:08 | 00:00:00 | |
| AA1-15 | 2026-08-31 11:56:53 | 53.21660 | 10.79307 | 43° | 18km/h | 20867m | 5.6m/s | -51.4°C | 0.1% | 51.1hPa | 2.7V | 03:51:35 | 01:48:10 | 00:00:00 | |
| DM0DOS-11 | 2026-08-31 11:56:53 | 53.21656 | 10.79301 | 42° | 18km/h | 20861m | 4.5m/s | -51.4°C | 3.5% | 51.2hPa | 2.7V | 03:51:23 | 01:48:09 | 00:00:00 | |
| BIOWL1-15 | 2026-08-31 11:56:52 | 53.21639 | 10.79280 | 29° | 26km/h | 20843m | 4.5m/s | -51.5°C | 0.1% | 51.3hPa | 2.7V | 03:51:35 | 01:48:05 | 00:00:00 | |
| EDDB2-12 | 2026-08-31 11:56:50 | 53.21644 | 10.79286 | 33° | 24km/h | 20848m | 5.0m/s | -51.4°C | 0.9% | 51.3hPa | 2.7V | 00:00:00 | 00:00:00 | 00:00:00 | |
| DO2SHX-10 | 2026-08-31 11:56:48 | 53.21639 | 10.79280 | 30° | 24km/h | 20843m | 4.4m/s | -51.4°C | 3.5% | 51.2hPa | 2.7V | 00:00:00 | 01:48:05 | 00:00:00 | |
| DM0DOS-11 | 2026-08-31 11:56:47 | 53.21611 | 10.79264 | 13° | 20km/h | 20813m | 5.4m/s | -51.6°C | 3.6% | 51.5hPa | 2.7V | 03:51:33 | 01:47:59 | 00:00:00 | |
| DO2LYB-13 | 2026-08-31 11:56:47 | 53.21634 | 10.79275 | 29° | 24km/h | 20839m | 4.9m/s | -51.5°C | 0.9% | 51.3hPa | 2.6V | 03:51:00 | 00:00:00 | 00:00:00 | |
| DF8AY | 2026-08-31 11:56:47 | 53.21624 | 10.79269 | 15° | 18km/h | 20828m | 4.9m/s | -51.5°C | 0.1% | 51.4hPa | 2.6V | 03:51:35 | 01:48:02 | 00:00:00 | |
| DO2SHX-10 | 2026-08-31 11:56:46 | 53.21624 | 10.79269 | 16° | 16km/h | 20828m | 4.8m/s | -51.5°C | 3.6% | 51.4hPa | 2.6V | 00:00:00 | 01:48:02 | 00:00:00 | |
| DL1XH-15 | 2026-08-31 11:56:44 | 53.21606 | 10.79262 | 14° | 20km/h | 20808m | 4.8m/s | -51.4°C | 3.5% | 51.5hPa | 2.6V | 03:51:34 | 01:47:58 | 00:00:00 | |
| AA1-15 | 2026-08-31 11:56:43 | 53.21615 | 10.79266 | 13° | 16km/h | 20818m | 5.2m/s | -51.5°C | 0.1% | 51.5hPa | 2.7V | 03:51:35 | 01:48:00 | 00:00:00 | |
| GOEST3-10 | 2026-08-31 11:56:43 | 53.21615 | 10.79266 | 13° | 18km/h | 20819m | 5.1m/s | -51.5°C | 3.6% | 51.4hPa | 2.7V | 00:00:00 | 01:48:00 | 00:00:00 | |
| DL8OAI-8 | 2026-08-31 11:56:42 | 53.21611 | 10.79264 | 15° | 20km/h | 20813m | 5.4m/s | -51.6°C | 0.9% | 51.5hPa | 2.6V | 03:51:00 | 00:00:00 | 00:00:00 | |
| DK7RCA | 2026-08-31 11:56:41 | 53.21611 | 10.79264 | 15° | 20km/h | 20813m | 5.4m/s | -51.6°C | 0.9% | 51.5hPa | 2.6V | 03:51:00 | 00:00:00 | 00:00:00 | |
| DB0DAN | 2026-08-31 11:56:40 | 53.21601 | 10.79260 | 11° | 18km/h | 20803m | 4.6m/s | -51.5°C | 0.9% | 51.59hPa | 2.6V | 00:00:00 | 00:00:00 | 00:00:00 | |
| DF7ER-10 | 2026-08-31 11:56:40 | 53.21601 | 10.79260 | 12° | 20km/h | 20804m | 4.6m/s | -51.5°C | 0.9% | 51.6hPa | 2.6V | 03:51:00 | 00:00:00 | 00:00:00 | |
| DO2SHX-10 | 2026-08-31 11:56:39 | 53.21596 | 10.79258 | 9° | 16km/h | 20798m | 5.6m/s | -51.4°C | 3.6% | 51.6hPa | 2.6V | 03:51:00 | 01:47:56 | 00:00:00 | |
| DL1XH1-15 | 2026-08-31 11:56:38 | 53.21577 | 10.79243 | 48° | 16km/h | 20772m | 5.5m/s | -51.5°C | 3.6% | 51.8hPa | 2.6V | 03:51:41 | 01:47:51 | 00:00:00 | |
| DL3AQ-11 | 2026-08-31 11:56:38 | 53.21588 | 10.79256 | 17° | 16km/h | 20788m | 5.1m/s | -51.4°C | 0.9% | 51.7hPa | 2.7V | 00:00:00 | 00:00:00 | 00:00:00 | |
| DG6HD-15 | 2026-08-31 11:56:37 | 53.21588 | 10.79256 | 18° | 16km/h | 20788m | 5.1m/s | -51.4°C | 0.9% | 51.7hPa | 2.7V | 03:52:00 | 00:00:00 | 00:00:00 | |
| DL1XH-15 | 2026-08-31 11:56:36 | 53.21572 | 10.79227 | 66° | 15km/h | 20758m | 5.5m/s | -51.4°C | 3.5% | 52hPa | 2.7V | 03:51:44 | 01:47:48 | 00:00:00 | |
| DL1LOL-11 | 2026-08-31 11:56:36 | 53.21584 | 10.79253 | 28° | 18km/h | 20783m | 5.7m/s | -51.5°C | 0.9% | 51.7hPa | 2.7V | 03:52:00 | 00:00:00 | 00:00:00 | |
| DM0DOS-11 | 2026-08-31 11:56:35 | 53.21573 | 10.79232 | 68° | 15km/h | 20762m | 3.6m/s | -51.4°C | 3.6% | 51.9hPa | 2.7V | 03:51:43 | 01:47:49 | 00:00:00 | |
| DL1XH-west | 2026-08-31 11:56:35 | 53.21577 | 10.79243 | 48° | 16km/h | 20773m | 5.5m/s | -51.5°C | 0.2% | 51.8hPa | 2.6V | 03:52:26 | 01:47:51 | 00:00:00 | |
| DF8AY | 2026-08-31 11:56:34 | 53.21575 | 10.79238 | 60° | 15km/h | 20767m | 5.5m/s | -51.4°C | 0.2% | 51.9hPa | 2.6V | 03:52:26 | 01:47:50 | 00:00:00 | |
| AA1-15 | 2026-08-31 11:56:32 | 53.21573 | 10.79232 | 69° | 15km/h | 20762m | 3.6m/s | -51.4°C | 0.2% | 51.9hPa | 2.7V | 03:52:26 | 01:47:49 | 00:00:00 | |
| BIOWL1-15 | 2026-08-31 11:56:30 | 53.21568 | 10.79213 | 65° | 9km/h | 20742m | 6.1m/s | -51.3°C | 0.1% | 52hPa | 2.6V | 03:52:26 | 01:47:45 | 00:00:00 | |
| HTAHTA | 2026-08-31 11:56:30 | 53.21569 | 10.79217 | 65° | 11km/h | 20747m | 4.9m/s | -51.3°C | 0.9% | 52.0hPa | 2.6V | 00:00:00 | 00:00:00 | 00:00:00 | |
| DF7ER-10 | 2026-08-31 11:56:29 | 53.21569 | 10.79217 | 67° | 11km/h | 20747m | 4.9m/s | -51.3°C | 0.9% | 52.0hPa | 2.6V | 03:52:00 | 00:00:00 | 00:00:00 | |
| DL1XH1-15 | 2026-08-31 11:56:28 | 53.21562 | 10.79204 | 29° | 13km/h | 20722m | 5m/s | -51.2°C | 3.5% | 52.2hPa | 2.6V | 03:51:51 | 01:47:41 | 00:00:00 | |
| GOEST3-10 | 2026-08-31 11:56:28 | 53.21568 | 10.79213 | 66° | 9km/h | 20742m | 6.0m/s | -51.3°C | 3.5% | 52.0hPa | 2.6V | 03:51:00 | 00:00:00 | 00:00:00 | |
| DO2SHX-10 | 2026-08-31 11:56:27 | 53.21567 | 10.79210 | 56° | 7km/h | 20737m | 4.5m/s | -51.3°C | 3.6% | 52.1hPa | 2.6V | 03:51:00 | 01:47:44 | 00:00:00 | |
| DB0DAN | 2026-08-31 11:56:25 | 53.21564 | 10.79206 | 30° | 9km/h | 20727m | 5.7m/s | -51.3°C | 0.9% | 52.23hPa | 2.6V | 00:00:00 | 00:00:00 | 00:00:00 | |
| DL1XH-west | 2026-08-31 11:56:24 | 53.21559 | 10.79201 | 29° | 13km/h | 20717m | 3.7m/s | -51.2°C | 0.2% | 52.3hPa | 2.7V | 03:52:26 | 01:47:40 | 00:00:00 | |
| DL1XH-15 | 2026-08-31 11:56:24 | 53.21555 | 10.79196 | 48° | 9km/h | 20707m | 4.8m/s | -51.1°C | 3.6% | 52.4hPa | 2.7V | 03:51:54 | 01:47:38 | 00:00:00 | |
| DO2SHX-10 | 2026-08-31 11:56:24 | 53.21562 | 10.79204 | 30° | 11km/h | 20722m | 4.9m/s | -51.1°C | 3.5% | 52.2hPa | 2.7V | 00:00:00 | 01:47:41 | 00:00:00 | |
| DM0DOS-11 | 2026-08-31 11:56:23 | 53.21557 | 10.79199 | 32° | 9km/h | 20712m | 5.9m/s | -51.1°C | 3.6% | 52.3hPa | 2.7V | 03:51:53 | 01:47:39 | 00:00:00 | |
| DF8AY | 2026-08-31 11:56:23 | 53.21557 | 10.79199 | 32° | 11km/h | 20712m | 5.9m/s | -51.1°C | 0.2% | 52.3hPa | 2.7V | 03:52:26 | 01:47:39 | 00:00:00 | |
| AA1-15 | 2026-08-31 11:56:21 | 53.21555 | 10.79196 | 49° | 9km/h | 20707m | 4.8m/s | -51.1°C | 0.2% | 52.4hPa | 2.7V | 03:52:26 | 01:47:38 | 00:00:00 | |
| BIOWL1-15 | 2026-08-31 11:56:20 | 53.21554 | 10.79193 | 64° | 11km/h | 20703m | 4m/s | -51.1°C | 0.2% | 52.4hPa | 2.6V | 03:52:26 | 01:47:37 | 00:00:00 | |
| EDDB2-12 | 2026-08-31 11:56:19 | 53.21551 | 10.79182 | 70° | 15km/h | 20692m | 5.0m/s | -51.0°C | 0.9% | 52.5hPa | 2.6V | 00:00:00 | 00:00:00 | 00:00:00 | |
| DL1XH1-15 | 2026-08-31 11:56:18 | 53.21547 | 10.79159 | 63° | 15km/h | 20673m | 5.4m/s | -50.9°C | 3.5% | 52.6hPa | 2.6V | 03:52:01 | 01:47:31 | 00:00:00 | |
| GOEST3-10 | 2026-08-31 11:56:18 | 53.21551 | 10.79182 | 71° | 15km/h | 20693m | 4.9m/s | -51.0°C | 3.6% | 52.5hPa | 2.7V | 00:00:00 | 00:00:00 | 00:00:00 | |
| DM0DOS-11 | 2026-08-31 11:56:17 | 53.21542 | 10.79148 | 53° | 15km/h | 20663m | 4.5m/s | -50.8°C | 3.4% | 52.8hPa | 2.7V | 03:52:03 | 01:47:29 | 00:00:00 | |
| S3001 | 2026-08-31 11:56:17 | 53.21550 | 10.79176 | 72° | 15km/h | 20687m | 5.2m/s | -51.0°C | 0.8% | 52.5hPa | 2.7V | 00:00:00 | 00:00:00 | 00:00:00 | |
| DL1XH-15 | 2026-08-31 11:56:16 | 53.21540 | 10.79144 | 50° | 13km/h | 20657m | 5.9m/s | -50.9°C | 3.4% | 52.7hPa | 2.7V | 03:52:04 | 01:47:28 | 00:00:00 | |
| DL1XH-west | 2026-08-31 11:56:14 | 53.21545 | 10.79154 | 57° | 16km/h | 20668m | 5.4m/s | -50.9°C | 0.1% | 52.7hPa | 2.6V | 03:52:26 | 01:47:30 | 00:00:00 | |
| DF8AY | 2026-08-31 11:56:13 | 53.21526 | 10.79086 | 76° | 24km/h | 20607m | 4.5m/s | -50.5°C | 0.1% | 53.2hPa | 2.6V | 03:52:26 | 01:47:18 | 00:00:00 | |
| DL4BBY-15 | 2026-08-31 11:56:12 | 53.21542 | 10.79148 | 54° | 18km/h | 20663m | 4.5m/s | -49.7°C | 0% | 0hPa | 2.7V | 00:00:00 | 00:00:00 | 00:00:00 | |
| DB0DAN | 2026-08-31 11:56:10 | 53.21538 | 10.79140 | 51° | 9km/h | 20651m | 5.3m/s | -50.7°C | 0.8% | 52.83hPa | 2.7V | 00:00:00 | 00:00:00 | 00:00:00 | |
| BIOWL1-15 | 2026-08-31 11:56:10 | 53.21538 | 10.79140 | 51° | 9km/h | 20651m | 5.3m/s | -50.7°C | 0% | 52.8hPa | 2.7V | 03:52:26 | 01:47:27 | 00:00:00 | |
| DL1LOL-11 | 2026-08-31 11:56:09 | 53.21537 | 10.79137 | 52° | 9km/h | 20647m | 4.1m/s | -50.7°C | 0.8% | 52.9hPa | 2.6V | 03:52:00 | 00:00:00 | 00:00:00 | |
| GOEST3-10 | 2026-08-31 11:56:08 | 53.21535 | 10.79134 | 53° | 15km/h | 20642m | 5.6m/s | -50.6°C | 3.4% | 52.9hPa | 2.6V | 03:52:00 | 00:00:00 | 00:00:00 | |
| DL1XH-15 | 2026-08-31 11:56:06 | 53.21526 | 10.79086 | 75° | 24km/h | 20607m | 4.5m/s | -50.5°C | 3.4% | 53.2hPa | 2.6V | 03:52:14 | 01:47:18 | 00:00:00 | |
| DL1XH-west | 2026-08-31 11:56:03 | 53.21529 | 10.79105 | 79° | 20km/h | 20617m | 4.5m/s | -50.6°C | 0.1% | 53.1hPa | 2.6V | 03:52:26 | 01:47:20 | 00:00:00 | |
| BIOWL1-15 | 2026-08-31 11:55:59 | 53.21524 | 10.79068 | 74° | 18km/h | 20597m | 5.9m/s | -50.6°C | 0% | 53.3hPa | 2.7V | 03:52:26 | 01:47:16 | 00:00:00 | |
| DF7ER-10 | 2026-08-31 11:55:59 | 53.21523 | 10.79068 | 75° | 18km/h | 20597m | 5.9m/s | -50.6°C | 0.8% | 53.3hPa | 2.7V | 03:52:00 | 00:00:00 | 00:00:00 | |
| DL1XH1-15 | 2026-08-31 11:55:58 | 53.21515 | 10.79043 | 46° | 18km/h | 20571m | 4.7m/s | -50.7°C | 3.3% | 53.5hPa | 2.7V | 03:52:21 | 01:47:11 | 00:00:00 | |
| DL3AQ-11 | 2026-08-31 11:55:58 | 53.21521 | 10.79057 | 63° | 11km/h | 20587m | 4.6m/s | -50.6°C | 0.8% | 53.4hPa | 2.6V | 00:00:00 | 00:00:00 | 00:00:00 | |
| DO2SHX-10 | 2026-08-31 11:55:57 | 53.21521 | 10.79057 | 64° | 13km/h | 20587m | 4.5m/s | -50.5°C | 3.4% | 53.3hPa | 2.6V | 00:00:00 | 01:47:14 | 00:00:00 | |
| DO9LL-15 | 2026-08-31 11:55:56 | 53.21517 | 10.79048 | 45° | 24km/h | 20577m | 5.8m/s | -50.5°C | 3.3% | 53.4hPa | 2.6V | 00:00:00 | 01:47:12 | 00:00:00 | |
| AP2371 | 2026-08-31 11:55:55 | 53.21517 | 10.79048 | 45° | 16km/h | 20577m | 5.9m/s | -50.6°C | 0.8% | 53.4hPa | 2.6V | 00:00:00 | 00:00:00 | 00:00:00 | |
| DL1XH-15 | 2026-08-31 11:55:54 | 53.21507 | 10.79024 | 66° | 22km/h | 20555m | 4.3m/s | -50.6°C | 3.3% | 53.6hPa | 2.6V | 03:52:24 | 01:47:08 | 00:00:00 | |
| DL1XH-west | 2026-08-31 11:55:53 | 53.21509 | 10.79031 | 60° | 18km/h | 20560m | 5.6m/s | -50.7°C | 0% | 53.6hPa | 2.7V | 03:52:26 | 01:47:09 | 00:00:00 | |
| BIOWL1-15 | 2026-08-31 11:55:51 | 53.21502 | 10.79005 | 69° | 27km/h | 20544m | 5m/s | -50.7°C | 0% | 53.7hPa | 2.7V | 03:52:26 | 01:47:06 | 00:00:00 | |
| DF8AY | 2026-08-31 11:55:50 | 53.21495 | 10.78973 | 71° | 24km/h | 20529m | 4.6m/s | -50.7°C | 0.1% | 53.8hPa | 2.6V | 03:53:17 | 01:47:03 | 00:00:00 | |
| AA1-15 | 2026-08-31 11:55:48 | 53.21499 | 10.78994 | 71° | 27km/h | 20539m | 4.5m/s | -50.7°C | 0% | 53.7hPa | 2.7V | 03:53:17 | 01:47:05 | 00:00:00 | |
| DL1XH1-15 | 2026-08-31 11:55:48 | 53.21491 | 10.78957 | 55° | 20km/h | 20520m | 5.8m/s | -50.8°C | 3.4% | 53.9hPa | 2.7V | 03:52:31 | 01:47:01 | 00:00:00 | |
| EDDB2-12 | 2026-08-31 11:55:48 | 53.21497 | 10.78983 | 72° | 26km/h | 20534m | 5.6m/s | -50.7°C | 0.8% | 53.8hPa | 2.6V | 00:00:00 | 00:00:00 | 00:00:00 | |
| S3001 | 2026-08-31 11:55:46 | 53.21495 | 10.78973 | 70° | 22km/h | 20529m | 4.6m/s | -50.7°C | 0.8% | 53.8hPa | 2.6V | 00:00:00 | 00:00:00 | 00:00:00 | |
| DL3AQ-11 | 2026-08-31 11:55:45 | 53.21493 | 10.78965 | 63° | 20km/h | 20525m | 4.1m/s | -50.7°C | 0.8% | 53.9hPa | 2.6V | 00:00:00 | 00:00:00 | 00:00:00 | |
| DL1XH-west | 2026-08-31 11:55:42 | 53.21478 | 10.78936 | 45° | 15km/h | 20499m | 4.1m/s | -50.9°C | 0% | 54hPa | 2.6V | 03:53:17 | 01:46:57 | 00:00:00 | |
| AA1-15 | 2026-08-31 11:55:38 | 53.21469 | 10.78920 | 47° | 22km/h | 20484m | 4.3m/s | -51°C | 0% | 54.2hPa | 2.7V | 03:53:17 | 01:46:54 | 00:00:00 | |
| DF8AY | 2026-08-31 11:55:37 | 53.21465 | 10.78913 | 51° | 22km/h | 20480m | 5.5m/s | -51°C | 0% | 54.2hPa | 2.6V | 03:53:17 | 01:46:53 | 00:00:00 | |
| DG6HD-15 | 2026-08-31 11:55:36 | 53.21465 | 10.78913 | 52° | 22km/h | 20480m | 5.5m/s | -51.0°C | 0.8% | 54.2hPa | 2.6V | 03:53:00 | 00:00:00 | 00:00:00 | |
| DD8BA-10 | 2026-08-31 11:55:35 | 53.21462 | 10.78905 | 57° | 26km/h | 20474m | 5.3m/s | -50.9°C | 3.4% | 54.2hPa | 2.6V | 00:00:00 | 00:00:00 | 00:00:00 | |
| DB0NH | 2026-08-31 11:55:34 | 53.21458 | 10.78896 | 57° | 24km/h | 20470m | 3.6m/s | -51.0°C | 3.4% | 54.3hPa | 2.7V | 03:52:00 | 01:46:51 | 00:00:00 | |
| GOEST3-10 | 2026-08-31 11:55:33 | 53.21455 | 10.78887 | 56° | 29km/h | 20465m | 5.4m/s | -51.0°C | 3.4% | 54.3hPa | 2.7V | 00:00:00 | 01:46:50 | 00:00:00 | |
| SP3BTT-10 | 2026-08-31 11:55:31 | 53.21446 | 10.78867 | 52° | 31km/h | 20455m | 4.3m/s | -50.9°C | 3.5% | 54.4hPa | 2.7V | 00:00:00 | 00:00:00 | 00:00:00 | |
| DO2LYB-13 | 2026-08-31 11:55:30 | 53.21442 | 10.78857 | 55° | 29km/h | 20451m | 4.5m/s | -51.0°C | 0.9% | 54.5hPa | 2.7V | 00:00:00 | 00:00:00 | 00:00:00 | |
| DL1XH-west | 2026-08-31 11:55:29 | 53.21438 | 10.78848 | 57° | 26km/h | 20446m | 5.4m/s | -51.1°C | 0.1% | 54.5hPa | 2.6V | 03:53:17 | 01:46:46 | 00:00:00 | |
| DL1CLM-18 | 2026-08-31 11:55:28 | 53.21434 | 10.78839 | 61° | 24km/h | 20441m | 4.4m/s | -51.1°C | 0.9% | 54.5hPa | 2.7V | 00:00:00 | 00:00:00 | 00:00:00 | |
| DM0DOS-11 | 2026-08-31 11:55:27 | 53.21410 | 10.78789 | 43° | 24km/h | 20415m | 6m/s | -51.3°C | 3.6% | 54.8hPa | 2.7V | 03:52:53 | 01:46:39 | 00:00:00 | |
| AA1-15 | 2026-08-31 11:55:26 | 53.21428 | 10.78822 | 55° | 26km/h | 20432m | 5.5m/s | -51.3°C | 0.2% | 54.6hPa | 2.6V | 03:53:17 | 01:46:43 | 00:00:00 | |
| DF8AY | 2026-08-31 11:55:26 | 53.21424 | 10.78813 | 49° | 29km/h | 20427m | 4.9m/s | -51.4°C | 0.2% | 54.7hPa | 2.6V | 03:53:17 | 01:46:42 | 00:00:00 | |
| DB0DAN | 2026-08-31 11:55:25 | 53.21424 | 10.78813 | 49° | 27km/h | 20427m | 4.9m/s | -51.4°C | 0.9% | 54.69hPa | 2.6V | 00:00:00 | 00:00:00 | 00:00:00 | |
| DL1XH-west | 2026-08-31 11:55:18 | 53.21399 | 10.78767 | 57° | 18km/h | 20394m | 5.2m/s | -51.2°C | 0.1% | 55hPa | 2.7V | 03:53:17 | 01:46:35 | 00:00:00 | |
| DL1XH1-15 | 2026-08-31 11:55:18 | 53.21386 | 10.78741 | 51° | 18km/h | 20374m | 5.5m/s | -51.1°C | 3.4% | 55.1hPa | 2.6V | 03:53:01 | 01:46:31 | 00:00:00 | |
| BIOWL1-15 | 2026-08-31 11:55:18 | 53.21386 | 10.78741 | 52° | 18km/h | 20374m | 5.5m/s | -51.1°C | 0.1% | 55.1hPa | 2.6V | 03:53:17 | 01:46:31 | 00:00:00 | |
| AA1-15 | 2026-08-31 11:55:16 | 53.21393 | 10.78754 | 49° | 20km/h | 20385m | 4.3m/s | -51.1°C | 0.1% | 55hPa | 2.7V | 03:53:17 | 01:46:33 | 00:00:00 | |
| DL1XH-15 | 2026-08-31 11:55:16 | 53.21380 | 10.78717 | 79° | 26km/h | 20360m | 5.3m/s | -50.9°C | 3.4% | 55.2hPa | 2.6V | 03:53:04 | 01:46:28 | 00:00:00 | |
| DF8AY | 2026-08-31 11:55:15 | 53.21389 | 10.78747 | 48° | 20km/h | 20380m | 5.6m/s | -51.1°C | 0.1% | 55hPa | 2.6V | 03:53:17 | 01:46:32 | 00:00:00 | |
| DD8BA-10 | 2026-08-31 11:55:15 | 53.21389 | 10.78747 | 49° | 20km/h | 20380m | 5.5m/s | -51.0°C | 3.4% | 55.0hPa | 2.7V | 00:00:00 | 00:00:00 | 00:00:00 | |
| DM0DOS-11 | 2026-08-31 11:55:13 | 53.21382 | 10.78727 | 71° | 22km/h | 20365m | 5.2m/s | -51°C | 3.4% | 55.2hPa | 2.7V | 03:53:03 | 01:46:29 | 00:00:00 | |
| BUE01 | 2026-08-31 11:55:13 | 53.21382 | 10.78727 | 71° | 20km/h | 20366m | 5.2m/s | -51.0°C | 0.8% | 55.2hPa | 2.7V | 00:00:00 | 00:00:00 | 00:00:00 | |
| BIOWL7-15 | 2026-08-31 11:55:12 | 53.21382 | 10.78727 | 73° | 22km/h | 20366m | 5.2m/s | -51.0°C | 0.8% | 55.2hPa | 2.7V | 00:00:00 | 00:00:00 | 00:00:00 | |
| DB0DAN | 2026-08-31 11:55:10 | 53.21380 | 10.78707 | 86° | 26km/h | 20355m | 3.8m/s | -50.9°C | 0.8% | 55.29hPa | 2.7V | 00:00:00 | 00:00:00 | 00:00:00 | |
| DL1XH-west | 2026-08-31 11:55:08 | 53.21380 | 10.78687 | 94° | 20km/h | 20346m | 5.6m/s | -50.9°C | 0.1% | 55.3hPa | 2.7V | 03:53:17 | 01:46:25 | 00:00:00 | |
| GOEST3-10 | 2026-08-31 11:55:08 | 53.21380 | 10.78686 | 94° | 16km/h | 20346m | 5.5m/s | -50.9°C | 3.5% | 55.3hPa | 2.7V | 03:53:00 | 00:00:00 | 00:00:00 | |
| DL1XH1-15 | 2026-08-31 11:55:07 | 53.21378 | 10.78661 | 58° | 16km/h | 20327m | 5.3m/s | -50.8°C | 3.5% | 55.5hPa | 2.7V | 03:53:11 | 01:46:21 | 00:00:00 | |
| DL1LOL-11 | 2026-08-31 11:55:07 | 53.21380 | 10.78679 | 95° | 16km/h | 20341m | 4.8m/s | -50.9°C | 0.8% | 55.4hPa | 2.7V | 00:00:00 | 00:00:00 | 00:00:00 | |
| DL1XH-15 | 2026-08-31 11:55:06 | 53.21370 | 10.78644 | 51° | 15km/h | 20312m | 5.6m/s | -51°C | 3.5% | 55.6hPa | 2.7V | 03:53:14 | 01:46:18 | 00:00:00 | |
| BIOWL1-15 | 2026-08-31 11:55:06 | 53.21378 | 10.78661 | 59° | 16km/h | 20327m | 5.3m/s | -50.8°C | 0.1% | 55.5hPa | 2.7V | 03:53:17 | 01:46:21 | 00:00:00 | |
| AA1-15 | 2026-08-31 11:55:05 | 53.21379 | 10.78667 | 71° | 15km/h | 20332m | 5.8m/s | -50.9°C | 0.1% | 55.5hPa | 2.6V | 03:53:17 | 01:46:22 | 00:00:00 | |
| DF8AY | 2026-08-31 11:55:04 | 53.21373 | 10.78649 | 50° | 18km/h | 20317m | 4.3m/s | -50.9°C | 0.1% | 55.6hPa | 2.7V | 03:53:17 | 01:46:19 | 00:00:00 | |
| DB0NH | 2026-08-31 11:55:04 | 53.21378 | 10.78661 | 59° | 22km/h | 20327m | 5.3m/s | -50.8°C | 3.5% | 55.5hPa | 2.6V | 00:00:00 | 01:46:21 | 00:00:00 | |
| DO2SHX-10 | 2026-08-31 11:55:03 | 53.21375 | 10.78655 | 53° | 16km/h | 20322m | 4.3m/s | -50.8°C | 3.4% | 55.5hPa | 2.6V | 03:53:00 | 01:46:20 | 00:00:00 | |
| DO2SHX-10 | 2026-08-31 11:55:00 | 53.21368 | 10.78639 | 61° | 15km/h | 20307m | 5.0m/s | -51.0°C | 3.5% | 55.6hPa | 2.6V | 00:00:00 | 01:46:17 | 00:00:00 | |
| DL1XH1-15 | 2026-08-31 11:54:59 | 53.21369 | 10.78585 | 106° | 20km/h | 20273m | 4.5m/s | -51°C | 3.5% | 56hPa | 2.7V | 03:53:22 | 01:46:10 | 00:00:00 | |
| DL1XH-west | 2026-08-31 11:54:58 | 53.21366 | 10.78620 | 88° | 20km/h | 20294m | 5.1m/s | -51.2°C | 0.1% | 55.8hPa | 2.7V | 03:54:08 | 01:46:14 | 00:00:00 | |
| HTAHTA | 2026-08-31 11:54:57 | 53.21366 | 10.78602 | 97° | 22km/h | 20284m | 5.1m/s | -51.2°C | 0.9% | 55.9hPa | 2.7V | 00:00:00 | 00:00:00 | 00:00:00 | |
| DL1XH-15 | 2026-08-31 11:54:56 | 53.21372 | 10.78567 | 106° | 24km/h | 20263m | 6m/s | -51°C | 3.5% | 56.1hPa | 2.7V | 03:53:24 | 01:46:08 | 00:00:00 | |
| DB0DAN | 2026-08-31 11:54:55 | 53.21366 | 10.78602 | 97° | 22km/h | 20284m | 5.1m/s | -51.2°C | 0.9% | 55.87hPa | 2.7V | 00:00:00 | 00:00:00 | 00:00:00 | |
| AA1-15 | 2026-08-31 11:54:55 | 53.21367 | 10.78593 | 104° | 22km/h | 20278m | 5.3m/s | -51.1°C | 0.1% | 55.9hPa | 2.6V | 03:54:08 | 01:46:11 | 00:00:00 | |
| DF8AY | 2026-08-31 11:54:54 | 53.21370 | 10.78576 | 108° | 22km/h | 20269m | 4.5m/s | -51°C | 0.1% | 56hPa | 2.7V | 03:54:08 | 01:46:09 | 00:00:00 | |
| BIOWL1-15 | 2026-08-31 11:54:54 | 53.21375 | 10.78547 | 107° | 24km/h | 20253m | 4.8m/s | -51°C | 0.2% | 56.2hPa | 2.6V | 03:54:08 | 01:46:06 | 00:00:00 | |
| SMARD9-10 | 2026-08-31 11:54:54 | 53.21367 | 10.78593 | 105° | 22km/h | 20278m | 5.3m/s | -51.1°C | 0.9% | 55.9hPa | 2.7V | 00:00:00 | 00:00:00 | 00:00:00 | |
| GOEST3-10 | 2026-08-31 11:54:53 | 53.21369 | 10.78584 | 107° | 24km/h | 20273m | 4.5m/s | -50.9°C | 3.5% | 56.0hPa | 2.7V | 00:00:00 | 01:46:10 | 00:00:00 | |
| DO9LL-15 | 2026-08-31 11:54:52 | 53.21370 | 10.78576 | 108° | 22km/h | 20269m | 4.5m/s | -50.9°C | 3.5% | 56.0hPa | 2.7V | 00:00:00 | 01:46:09 | 00:00:00 | |
| DO2SHX-10 | 2026-08-31 11:54:51 | 53.21372 | 10.78567 | 107° | 24km/h | 20264m | 6.0m/s | -50.9°C | 3.5% | 56.0hPa | 2.7V | 03:53:00 | 01:46:08 | 00:00:00 | |
| DL1XH1-15 | 2026-08-31 11:54:48 | 53.21381 | 10.78495 | 96° | 24km/h | 20223m | 4.9m/s | -50.9°C | 3.4% | 56.4hPa | 2.6V | 03:53:32 | 01:46:00 | 00:00:00 | |
| DL1XH-west | 2026-08-31 11:54:48 | 53.21379 | 10.78523 | 100° | 18km/h | 20238m | 3.8m/s | -50.9°C | 0.1% | 56.3hPa | 2.7V | 03:54:08 | 01:46:03 | 00:00:00 | |
| DM0DOS-11 | 2026-08-31 11:54:48 | 53.21382 | 10.78485 | 97° | 22km/h | 20218m | 5.6m/s | -50.9°C | 3.4% | 56.5hPa | 2.6V | 03:53:33 | 01:45:59 | 00:00:00 | |
| AA1-15 | 2026-08-31 11:54:44 | 53.21381 | 10.78505 | 96° | 24km/h | 20228m | 4.5m/s | -50.9°C | 0.1% | 56.4hPa | 2.7V | 03:54:08 | 01:46:01 | 00:00:00 | |
| S3001 | 2026-08-31 11:54:44 | 53.21381 | 10.78505 | 96° | 22km/h | 20228m | 4.5m/s | -50.9°C | 0.9% | 56.4hPa | 2.6V | 00:00:00 | 00:00:00 | 00:00:00 | |
| DF8AY | 2026-08-31 11:54:43 | 53.21381 | 10.78495 | 97° | 24km/h | 20223m | 4.9m/s | -50.9°C | 0% | 56.4hPa | 2.6V | 03:54:08 | 01:46:00 | 00:00:00 | |
| BIOWL1-15 | 2026-08-31 11:54:41 | 53.21388 | 10.78432 | 102° | 27km/h | 20193m | 4.5m/s | -50.9°C | 0% | 56.7hPa | 2.6V | 03:54:08 | 01:45:54 | 00:00:00 | |
| TFSTFS | 2026-08-31 11:54:41 | 53.21383 | 10.78476 | 100° | 24km/h | 20213m | 4.5m/s | -50.9°C | 0.8% | 56.5hPa | 2.6V | 00:00:00 | 00:00:00 | 00:00:00 | |
| DO2SHX-10 | 2026-08-31 11:54:39 | 53.21385 | 10.78455 | 101° | 27km/h | 20203m | 5.4m/s | -50.8°C | 3.4% | 56.5hPa | 2.6V | 03:53:00 | 01:45:56 | 00:00:00 | |
| DL1XH1-15 | 2026-08-31 11:54:38 | 53.21391 | 10.78397 | 94° | 20km/h | 20174m | 5.3m/s | -50.9°C | 3.4% | 56.8hPa | 2.6V | 03:53:42 | 01:45:50 | 00:00:00 | |
| DL8OAI-8 | 2026-08-31 11:54:38 | 53.21386 | 10.78443 | 101° | 27km/h | 20198m | 4.1m/s | -50.8°C | 0.9% | 56.6hPa | 2.7V | 03:54:00 | 00:00:00 | 00:00:00 | |
| DM0DOS-11 | 2026-08-31 11:54:37 | 53.21392 | 10.78388 | 89° | 22km/h | 20169m | 4.2m/s | -50.8°C | 3.3% | 56.9hPa | 2.7V | 03:53:43 | 01:45:49 | 00:00:00 | |
| DL1XH-west | 2026-08-31 11:54:37 | 53.21389 | 10.78422 | 102° | 22km/h | 20188m | 5.6m/s | -50.9°C | 0.1% | 56.7hPa | 2.7V | 03:54:08 | 01:45:53 | 00:00:00 | |
| DF8AY | 2026-08-31 11:54:33 | 53.21391 | 10.78397 | 95° | 20km/h | 20174m | 5.3m/s | -50.9°C | 0.1% | 56.8hPa | 2.6V | 03:54:08 | 01:45:50 | 00:00:00 | |
| DL1XH-15 | 2026-08-31 11:54:33 | 53.21391 | 10.78379 | 85° | 22km/h | 20165m | 4.1m/s | -50.8°C | 3.3% | 56.9hPa | 2.7V | 03:53:44 | 01:45:48 | 00:00:00 | |
| BIOWL1-15 | 2026-08-31 11:54:31 | 53.21391 | 10.78379 | 86° | 22km/h | 20165m | 4.1m/s | -50.8°C | 0% | 56.9hPa | 2.7V | 03:54:08 | 01:45:48 | 00:00:00 | |
| DO2SHX-10 | 2026-08-31 11:54:30 | 53.21391 | 10.78369 | 83° | 20km/h | 20161m | 4.6m/s | -50.8°C | 3.3% | 56.9hPa | 2.7V | 00:00:00 | 01:45:47 | 00:00:00 | |
| DL1XH1-15 | 2026-08-31 11:54:28 | 53.21381 | 10.78294 | 73° | 35km/h | 20127m | 5.5m/s | -51.3°C | 3.4% | 57.3hPa | 2.7V | 03:53:52 | 01:45:40 | 00:00:00 | |
| GOEST3-10 | 2026-08-31 11:54:28 | 53.21389 | 10.78353 | 78° | 27km/h | 20152m | 4.3m/s | -50.8°C | 3.4% | 57.0hPa | 2.6V | 03:53:00 | 00:00:00 | 00:00:00 | |
| DM0DOS-11 | 2026-08-31 11:54:27 | 53.21378 | 10.78280 | 69° | 33km/h | 20122m | 5.1m/s | -51.3°C | 3.4% | 57.3hPa | 2.6V | 03:53:53 | 01:45:39 | 00:00:00 | |
| DL1XH-west | 2026-08-31 11:54:26 | 53.21385 | 10.78322 | 78° | 33km/h | 20137m | 5.4m/s | -51°C | 0% | 57.2hPa | 2.7V | 03:54:08 | 01:45:42 | 00:00:00 | |
| DL1XH-15 | 2026-08-31 11:54:26 | 53.21375 | 10.78268 | 66° | 31km/h | 20117m | 4.6m/s | -51.2°C | 3.4% | 57.3hPa | 2.6V | 03:53:54 | 01:45:38 | 00:00:00 | |
| DB0DAN | 2026-08-31 11:54:25 | 53.21385 | 10.78322 | 78° | 31km/h | 20137m | 5.4m/s | -51°C | 0.8% | 57.18hPa | 2.7V | 00:00:00 | 00:00:00 | 00:00:00 | |
| AA1-15 | 2026-08-31 11:54:23 | 53.21378 | 10.78280 | 69° | 33km/h | 20122m | 5.1m/s | -51.3°C | 0% | 57.3hPa | 2.6V | 03:54:08 | 01:45:39 | 00:00:00 | |
| BIOWL1-15 | 2026-08-31 11:54:21 | 53.21375 | 10.78268 | 67° | 31km/h | 20117m | 4.6m/s | -51.3°C | 0% | 57.3hPa | 2.6V | 03:54:08 | 01:45:38 | 00:00:00 | |
| TFSTFS | 2026-08-31 11:54:19 | 53.21372 | 10.78256 | 66° | 29km/h | 20112m | 5.2m/s | -51.3°C | 0.8% | 57.4hPa | 2.7V | 00:00:00 | 00:00:00 | 00:00:00 | |
| DL1XH1-15 | 2026-08-31 11:54:18 | 53.21349 | 10.78196 | 57° | 24km/h | 20076m | 4.8m/s | -51.7°C | 3.4% | 57.7hPa | 2.7V | 03:54:02 | 01:45:30 | 00:00:00 | |
| DM0DOS-11 | 2026-08-31 11:54:17 | 53.21342 | 10.78178 | 57° | 27km/h | 20067m | 5.8m/s | -52.1°C | 3.6% | 57.8hPa | 2.6V | 03:54:04 | 01:45:28 | 00:00:00 | |
| DL1XH-west | 2026-08-31 11:54:15 | 53.21352 | 10.78204 | 53° | 22km/h | 20081m | 5.5m/s | -51.5°C | 0% | 57.7hPa | 2.7V | 03:54:08 | 01:45:31 | 00:00:00 | |
| AA1-15 | 2026-08-31 11:54:13 | 53.21342 | 10.78178 | 58° | 27km/h | 20067m | 5.8m/s | -52.1°C | 0.2% | 57.8hPa | 2.6V | 03:54:08 | 01:45:28 | 00:00:00 | |
| DF8AY | 2026-08-31 11:54:13 | 53.21338 | 10.78168 | 54° | 29km/h | 20061m | 5.1m/s | -52.2°C | 0.2% | 57.8hPa | 2.6V | 03:54:08 | 01:45:27 | 00:00:00 | |
| DF7ER-10 | 2026-08-31 11:54:13 | 53.21349 | 10.78196 | 58° | 24km/h | 20077m | 4.8m/s | -51.7°C | 0.9% | 57.7hPa | 2.7V | 03:54:00 | 00:00:00 | 00:00:00 | |
| DL1XH-15 | 2026-08-31 11:54:12 | 53.21342 | 10.78178 | 57° | 27km/h | 20067m | 5.8m/s | -52.1°C | 3.6% | 57.8hPa | 2.6V | 03:54:04 | 01:45:28 | 00:00:00 | |
| DL4BBY-15 | 2026-08-31 11:54:12 | 53.21346 | 10.78187 | 60° | 33km/h | 20072m | 4.7m/s | -50.8°C | 0% | 0hPa | 2.7V | 00:00:00 | 00:00:00 | 00:00:00 | |
| BUE01 | 2026-08-31 11:54:11 | 53.21338 | 10.78168 | 53° | 27km/h | 20061m | 5.1m/s | -52.2°C | 0.9% | 57.8hPa | 2.7V | 00:00:00 | 00:00:00 | 00:00:00 | |
| BIOWL1-15 | 2026-08-31 11:54:11 | 53.21329 | 10.78146 | 54° | 37km/h | 20052m | 5.7m/s | -52.4°C | 0.2% | 57.9hPa | 2.7V | 03:54:08 | 01:45:25 | 00:00:00 | |
| DO2SHX-10 | 2026-08-31 11:54:09 | 53.21334 | 10.78158 | 52° | 35km/h | 20057m | 4.1m/s | -52.3°C | 3.6% | 57.8hPa | 2.7V | 00:00:00 | 01:45:26 | 00:00:00 | |
| GOEST3-10 | 2026-08-31 11:54:08 | 53.21329 | 10.78146 | 55° | 37km/h | 20052m | 5.7m/s | -52.3°C | 3.6% | 57.9hPa | 2.7V | 03:54:00 | 00:00:00 | 00:00:00 | |
| DL1XH1-15 | 2026-08-31 11:54:06 | 53.21299 | 10.78093 | 32° | 31km/h | 20027m | 4.7m/s | -52.2°C | 3.6% | 58.2hPa | 2.7V | 03:54:12 | 01:45:20 | 00:00:00 | |
| DL1XH-west | 2026-08-31 11:54:04 | 53.21305 | 10.78101 | 38° | 33km/h | 20031m | 5.2m/s | -52.3°C | 0.1% | 58.1hPa | 2.6V | 03:54:59 | 01:45:21 | 00:00:00 | |
| AA1-15 | 2026-08-31 11:54:02 | 53.21286 | 10.78079 | 34° | 29km/h | 20016m | 5.6m/s | -52.4°C | 0.2% | 58.3hPa | 2.7V | 03:54:59 | 01:45:18 | 00:00:00 | |
| DF8AY | 2026-08-31 11:53:59 | 53.21274 | 10.78066 | 32° | 29km/h | 20006m | 5.6m/s | -52.6°C | 0.2% | 58.4hPa | 2.6V | 03:54:59 | 01:45:16 | 00:00:00 | |
| BIOWL1-15 | 2026-08-31 11:53:59 | 53.21268 | 10.78060 | 28° | 29km/h | 20001m | 5m/s | -52.6°C | 0.2% | 58.4hPa | 2.7V | 03:54:59 | 01:45:15 | 00:00:00 | |
| DL8OAI-8 | 2026-08-31 11:53:58 | 53.21268 | 10.78060 | 29° | 29km/h | 20001m | 5.0m/s | -52.6°C | 0.9% | 58.4hPa | 2.7V | 03:54:00 | 00:00:00 | 00:00:00 | |
| DO2SHX-10 | 2026-08-31 11:53:57 | 53.21261 | 10.78053 | 29° | 35km/h | 19996m | 4.3m/s | -52.6°C | 3.7% | 58.4hPa | 2.7V | 00:00:00 | 01:45:14 | 00:00:00 | |
| DL1XH-15 | 2026-08-31 11:53:56 | 53.21211 | 10.78011 | 15° | 40km/h | 19966m | 4.3m/s | -52.7°C | 3.8% | 58.7hPa | 2.7V | 03:54:24 | 01:45:08 | 00:00:00 | |
| DL1XH-west | 2026-08-31 11:53:54 | 53.21220 | 10.78016 | 19° | 38km/h | 19970m | 5.4m/s | -52.6°C | 0.2% | 58.7hPa | 2.7V | 03:54:59 | 01:45:09 | 00:00:00 | |
| DF8AY | 2026-08-31 11:53:54 | 53.21183 | 10.77997 | 19° | 35km/h | 19951m | 3.8m/s | -52.7°C | 0.2% | 58.8hPa | 2.7V | 03:54:59 | 01:45:05 | 00:00:00 | |
| AA1-15 | 2026-08-31 11:53:51 | 53.21201 | 10.78007 | 16° | 38km/h | 19961m | 5.3m/s | -52.7°C | 0.2% | 58.8hPa | 2.6V | 03:54:59 | 01:45:07 | 00:00:00 | |
| AP2371 | 2026-08-31 11:53:51 | 53.21211 | 10.78011 | 17° | 40km/h | 19966m | 4.3m/s | -52.7°C | 1.0% | 58.7hPa | 2.6V | 03:54:00 | 00:00:00 | 00:00:00 | |
| DL1XH1-15 | 2026-08-31 11:53:48 | 53.21146 | 10.77981 | 18° | 29km/h | 19926m | 4.6m/s | -52.4°C | 3.8% | 59.1hPa | 2.6V | 03:54:32 | 01:45:00 | 00:00:00 | |
| Es werden nur die letzten 3500 von 6584 Frames angezeigt. GPX/KML und Diagramme bleiben verfügbar. | |||||||||||||||